<?xml version="1.0" encoding="UTF-8" standalone="no" ?>
<gpx xmlns="http://www.topografix.com/GPX/1/1" xmlns:xsi="http://www.w3.org/2001/XMLSchema-instance" xsi:schemaLocation="http://www.topografix.com/GPX/1/1 http://www.topografix.com/GPX/1/1/gpx.xsd" version="1.1" creator="VisuGPX - https://www.visugpx.com">
  <metadata>
    <name>gergovienne 2019</name>
    <desc><![CDATA[60km 1500m de D+]]></desc>
  </metadata>
  <trk>
    <name><![CDATA[gergovienne 2019_1]]></name>
    <trkseg>
      <trkpt lat="45.70456" lon="3.12684">
        <ele>497</ele>
        <time>2019-06-23T05:49:07.000Z</time>
      </trkpt>
      <trkpt lat="45.70456" lon="3.12684">
        <ele>497</ele>
        <time>2019-06-23T05:49:08.000Z</time>
      </trkpt>
      <trkpt lat="45.70453" lon="3.12684">
        <ele>497</ele>
        <time>2019-06-23T05:49:09.000Z</time>
      </trkpt>
      <trkpt lat="45.70449" lon="3.12684">
        <ele>497</ele>
        <time>2019-06-23T05:49:10.000Z</time>
      </trkpt>
      <trkpt lat="45.70445" lon="3.12684">
        <ele>497</ele>
        <time>2019-06-23T05:49:11.000Z</time>
      </trkpt>
      <trkpt lat="45.70441" lon="3.12685">
        <ele>497</ele>
        <time>2019-06-23T05:49:12.000Z</time>
      </trkpt>
      <trkpt lat="45.70438" lon="3.12685">
        <ele>497</ele>
        <time>2019-06-23T05:49:13.000Z</time>
      </trkpt>
      <trkpt lat="45.70434" lon="3.12686">
        <ele>498</ele>
        <time>2019-06-23T05:49:14.000Z</time>
      </trkpt>
      <trkpt lat="45.7043" lon="3.12686">
        <ele>498</ele>
        <time>2019-06-23T05:49:15.000Z</time>
      </trkpt>
      <trkpt lat="45.70427" lon="3.12687">
        <ele>498</ele>
        <time>2019-06-23T05:49:16.000Z</time>
      </trkpt>
      <trkpt lat="45.70423" lon="3.12687">
        <ele>498</ele>
        <time>2019-06-23T05:49:17.000Z</time>
      </trkpt>
      <trkpt lat="45.7042" lon="3.12687">
        <ele>498</ele>
        <time>2019-06-23T05:49:18.000Z</time>
      </trkpt>
      <trkpt lat="45.70417" lon="3.12688">
        <ele>498</ele>
        <time>2019-06-23T05:49:19.000Z</time>
      </trkpt>
      <trkpt lat="45.70414" lon="3.12688">
        <ele>498</ele>
        <time>2019-06-23T05:49:20.000Z</time>
      </trkpt>
      <trkpt lat="45.70411" lon="3.12689">
        <ele>498</ele>
        <time>2019-06-23T05:49:21.000Z</time>
      </trkpt>
      <trkpt lat="45.70407" lon="3.1269">
        <ele>498</ele>
        <time>2019-06-23T05:49:22.000Z</time>
      </trkpt>
      <trkpt lat="45.70404" lon="3.12691">
        <ele>498</ele>
        <time>2019-06-23T05:49:23.000Z</time>
      </trkpt>
      <trkpt lat="45.70401" lon="3.12693">
        <ele>498</ele>
        <time>2019-06-23T05:49:24.000Z</time>
      </trkpt>
      <trkpt lat="45.70397" lon="3.12694">
        <ele>499</ele>
        <time>2019-06-23T05:49:25.000Z</time>
      </trkpt>
      <trkpt lat="45.70394" lon="3.12696">
        <ele>499</ele>
        <time>2019-06-23T05:49:26.000Z</time>
      </trkpt>
      <trkpt lat="45.70391" lon="3.12697">
        <ele>499</ele>
        <time>2019-06-23T05:49:27.000Z</time>
      </trkpt>
      <trkpt lat="45.70388" lon="3.12699">
        <ele>499</ele>
        <time>2019-06-23T05:49:28.000Z</time>
      </trkpt>
      <trkpt lat="45.70385" lon="3.127">
        <ele>498</ele>
        <time>2019-06-23T05:49:29.000Z</time>
      </trkpt>
      <trkpt lat="45.70382" lon="3.12702">
        <ele>499</ele>
        <time>2019-06-23T05:49:30.000Z</time>
      </trkpt>
      <trkpt lat="45.70378" lon="3.12704">
        <ele>499</ele>
        <time>2019-06-23T05:49:31.000Z</time>
      </trkpt>
      <trkpt lat="45.70375" lon="3.12706">
        <ele>499</ele>
        <time>2019-06-23T05:49:32.000Z</time>
      </trkpt>
      <trkpt lat="45.70372" lon="3.12708">
        <ele>499</ele>
        <time>2019-06-23T05:49:33.000Z</time>
      </trkpt>
      <trkpt lat="45.70369" lon="3.12709">
        <ele>499</ele>
        <time>2019-06-23T05:49:34.000Z</time>
      </trkpt>
      <trkpt lat="45.70366" lon="3.12711">
        <ele>499</ele>
        <time>2019-06-23T05:49:35.000Z</time>
      </trkpt>
      <trkpt lat="45.70363" lon="3.12712">
        <ele>499</ele>
        <time>2019-06-23T05:49:36.000Z</time>
      </trkpt>
      <trkpt lat="45.7036" lon="3.12713">
        <ele>499</ele>
        <time>2019-06-23T05:49:37.000Z</time>
      </trkpt>
      <trkpt lat="45.70357" lon="3.12714">
        <ele>499</ele>
        <time>2019-06-23T05:49:38.000Z</time>
      </trkpt>
      <trkpt lat="45.70355" lon="3.12715">
        <ele>499</ele>
        <time>2019-06-23T05:49:39.000Z</time>
      </trkpt>
      <trkpt lat="45.70352" lon="3.12717">
        <ele>499</ele>
        <time>2019-06-23T05:49:40.000Z</time>
      </trkpt>
      <trkpt lat="45.70349" lon="3.12718">
        <ele>500</ele>
        <time>2019-06-23T05:49:41.000Z</time>
      </trkpt>
      <trkpt lat="45.70346" lon="3.12719">
        <ele>500</ele>
        <time>2019-06-23T05:49:42.000Z</time>
      </trkpt>
      <trkpt lat="45.70344" lon="3.1272">
        <ele>500</ele>
        <time>2019-06-23T05:49:43.000Z</time>
      </trkpt>
      <trkpt lat="45.70341" lon="3.12722">
        <ele>500</ele>
        <time>2019-06-23T05:49:44.000Z</time>
      </trkpt>
      <trkpt lat="45.70339" lon="3.12723">
        <ele>501</ele>
        <time>2019-06-23T05:49:45.000Z</time>
      </trkpt>
      <trkpt lat="45.70336" lon="3.12724">
        <ele>501</ele>
        <time>2019-06-23T05:49:46.000Z</time>
      </trkpt>
      <trkpt lat="45.70333" lon="3.12725">
        <ele>501</ele>
        <time>2019-06-23T05:49:47.000Z</time>
      </trkpt>
      <trkpt lat="45.7033" lon="3.12727">
        <ele>501</ele>
        <time>2019-06-23T05:49:48.000Z</time>
      </trkpt>
      <trkpt lat="45.70327" lon="3.12728">
        <ele>501</ele>
        <time>2019-06-23T05:49:49.000Z</time>
      </trkpt>
      <trkpt lat="45.70324" lon="3.12729">
        <ele>501</ele>
        <time>2019-06-23T05:49:50.000Z</time>
      </trkpt>
      <trkpt lat="45.70321" lon="3.1273">
        <ele>501</ele>
        <time>2019-06-23T05:49:51.000Z</time>
      </trkpt>
      <trkpt lat="45.70318" lon="3.12732">
        <ele>502</ele>
        <time>2019-06-23T05:49:52.000Z</time>
      </trkpt>
      <trkpt lat="45.70316" lon="3.12733">
        <ele>502</ele>
        <time>2019-06-23T05:49:53.000Z</time>
      </trkpt>
      <trkpt lat="45.70313" lon="3.12734">
        <ele>502</ele>
        <time>2019-06-23T05:49:54.000Z</time>
      </trkpt>
      <trkpt lat="45.7031" lon="3.12735">
        <ele>502</ele>
        <time>2019-06-23T05:49:55.000Z</time>
      </trkpt>
      <trkpt lat="45.70308" lon="3.12736">
        <ele>502</ele>
        <time>2019-06-23T05:49:56.000Z</time>
      </trkpt>
      <trkpt lat="45.70305" lon="3.12738">
        <ele>502</ele>
        <time>2019-06-23T05:49:57.000Z</time>
      </trkpt>
      <trkpt lat="45.70302" lon="3.1274">
        <ele>502</ele>
        <time>2019-06-23T05:49:58.000Z</time>
      </trkpt>
      <trkpt lat="45.70299" lon="3.12741">
        <ele>503</ele>
        <time>2019-06-23T05:49:59.000Z</time>
      </trkpt>
      <trkpt lat="45.70297" lon="3.12743">
        <ele>503</ele>
        <time>2019-06-23T05:50:00.000Z</time>
      </trkpt>
      <trkpt lat="45.70293" lon="3.12745">
        <ele>503</ele>
        <time>2019-06-23T05:50:01.000Z</time>
      </trkpt>
      <trkpt lat="45.7029" lon="3.12747">
        <ele>503</ele>
        <time>2019-06-23T05:50:02.000Z</time>
      </trkpt>
      <trkpt lat="45.70287" lon="3.12749">
        <ele>504</ele>
        <time>2019-06-23T05:50:03.000Z</time>
      </trkpt>
      <trkpt lat="45.70284" lon="3.1275">
        <ele>504</ele>
        <time>2019-06-23T05:50:04.000Z</time>
      </trkpt>
      <trkpt lat="45.70281" lon="3.12749">
        <ele>505</ele>
        <time>2019-06-23T05:50:05.000Z</time>
      </trkpt>
      <trkpt lat="45.70278" lon="3.12749">
        <ele>505</ele>
        <time>2019-06-23T05:50:06.000Z</time>
      </trkpt>
      <trkpt lat="45.70277" lon="3.12747">
        <ele>506</ele>
        <time>2019-06-23T05:50:07.000Z</time>
      </trkpt>
      <trkpt lat="45.70275" lon="3.12746">
        <ele>507</ele>
        <time>2019-06-23T05:50:08.000Z</time>
      </trkpt>
      <trkpt lat="45.70276" lon="3.12742">
        <ele>505</ele>
        <time>2019-06-23T05:50:09.000Z</time>
      </trkpt>
      <trkpt lat="45.70276" lon="3.1274">
        <ele>505</ele>
        <time>2019-06-23T05:50:10.000Z</time>
      </trkpt>
      <trkpt lat="45.70278" lon="3.12738">
        <ele>506</ele>
        <time>2019-06-23T05:50:11.000Z</time>
      </trkpt>
      <trkpt lat="45.70279" lon="3.12737">
        <ele>506</ele>
        <time>2019-06-23T05:50:12.000Z</time>
      </trkpt>
      <trkpt lat="45.7028" lon="3.12736">
        <ele>506</ele>
        <time>2019-06-23T05:50:13.000Z</time>
      </trkpt>
      <trkpt lat="45.70282" lon="3.12734">
        <ele>507</ele>
        <time>2019-06-23T05:50:14.000Z</time>
      </trkpt>
      <trkpt lat="45.70283" lon="3.12732">
        <ele>507</ele>
        <time>2019-06-23T05:50:15.000Z</time>
      </trkpt>
      <trkpt lat="45.70284" lon="3.12731">
        <ele>507</ele>
        <time>2019-06-23T05:50:16.000Z</time>
      </trkpt>
      <trkpt lat="45.70285" lon="3.12729">
        <ele>508</ele>
        <time>2019-06-23T05:50:17.000Z</time>
      </trkpt>
      <trkpt lat="45.70287" lon="3.12727">
        <ele>508</ele>
        <time>2019-06-23T05:50:18.000Z</time>
      </trkpt>
      <trkpt lat="45.70288" lon="3.12725">
        <ele>509</ele>
        <time>2019-06-23T05:50:19.000Z</time>
      </trkpt>
      <trkpt lat="45.70289" lon="3.12723">
        <ele>509</ele>
        <time>2019-06-23T05:50:20.000Z</time>
      </trkpt>
      <trkpt lat="45.7029" lon="3.12721">
        <ele>509</ele>
        <time>2019-06-23T05:50:21.000Z</time>
      </trkpt>
      <trkpt lat="45.70292" lon="3.12719">
        <ele>509</ele>
        <time>2019-06-23T05:50:22.000Z</time>
      </trkpt>
      <trkpt lat="45.70293" lon="3.12718">
        <ele>510</ele>
        <time>2019-06-23T05:50:23.000Z</time>
      </trkpt>
      <trkpt lat="45.70294" lon="3.12716">
        <ele>510</ele>
        <time>2019-06-23T05:50:24.000Z</time>
      </trkpt>
      <trkpt lat="45.70296" lon="3.12714">
        <ele>511</ele>
        <time>2019-06-23T05:50:25.000Z</time>
      </trkpt>
      <trkpt lat="45.70297" lon="3.12713">
        <ele>511</ele>
        <time>2019-06-23T05:50:26.000Z</time>
      </trkpt>
      <trkpt lat="45.70299" lon="3.12711">
        <ele>511</ele>
        <time>2019-06-23T05:50:27.000Z</time>
      </trkpt>
      <trkpt lat="45.703" lon="3.12709">
        <ele>512</ele>
        <time>2019-06-23T05:50:28.000Z</time>
      </trkpt>
      <trkpt lat="45.70302" lon="3.12707">
        <ele>512</ele>
        <time>2019-06-23T05:50:29.000Z</time>
      </trkpt>
      <trkpt lat="45.70304" lon="3.12705">
        <ele>512</ele>
        <time>2019-06-23T05:50:30.000Z</time>
      </trkpt>
      <trkpt lat="45.70305" lon="3.12703">
        <ele>513</ele>
        <time>2019-06-23T05:50:31.000Z</time>
      </trkpt>
      <trkpt lat="45.70307" lon="3.12701">
        <ele>513</ele>
        <time>2019-06-23T05:50:32.000Z</time>
      </trkpt>
      <trkpt lat="45.70308" lon="3.12699">
        <ele>513</ele>
        <time>2019-06-23T05:50:33.000Z</time>
      </trkpt>
      <trkpt lat="45.7031" lon="3.12696">
        <ele>513</ele>
        <time>2019-06-23T05:50:34.000Z</time>
      </trkpt>
      <trkpt lat="45.70311" lon="3.12694">
        <ele>513</ele>
        <time>2019-06-23T05:50:35.000Z</time>
      </trkpt>
      <trkpt lat="45.70313" lon="3.12692">
        <ele>514</ele>
        <time>2019-06-23T05:50:36.000Z</time>
      </trkpt>
      <trkpt lat="45.70314" lon="3.12689">
        <ele>514</ele>
        <time>2019-06-23T05:50:37.000Z</time>
      </trkpt>
      <trkpt lat="45.70316" lon="3.12687">
        <ele>514</ele>
        <time>2019-06-23T05:50:38.000Z</time>
      </trkpt>
      <trkpt lat="45.70317" lon="3.12685">
        <ele>515</ele>
        <time>2019-06-23T05:50:39.000Z</time>
      </trkpt>
      <trkpt lat="45.70319" lon="3.12682">
        <ele>515</ele>
        <time>2019-06-23T05:50:40.000Z</time>
      </trkpt>
      <trkpt lat="45.7032" lon="3.1268">
        <ele>515</ele>
        <time>2019-06-23T05:50:41.000Z</time>
      </trkpt>
      <trkpt lat="45.70321" lon="3.12678">
        <ele>516</ele>
        <time>2019-06-23T05:50:42.000Z</time>
      </trkpt>
      <trkpt lat="45.70323" lon="3.12675">
        <ele>516</ele>
        <time>2019-06-23T05:50:43.000Z</time>
      </trkpt>
      <trkpt lat="45.70325" lon="3.12673">
        <ele>516</ele>
        <time>2019-06-23T05:50:44.000Z</time>
      </trkpt>
      <trkpt lat="45.70326" lon="3.12671">
        <ele>516</ele>
        <time>2019-06-23T05:50:45.000Z</time>
      </trkpt>
      <trkpt lat="45.70328" lon="3.12669">
        <ele>516</ele>
        <time>2019-06-23T05:50:46.000Z</time>
      </trkpt>
      <trkpt lat="45.7033" lon="3.12667">
        <ele>516</ele>
        <time>2019-06-23T05:50:47.000Z</time>
      </trkpt>
      <trkpt lat="45.70332" lon="3.12665">
        <ele>516</ele>
        <time>2019-06-23T05:50:48.000Z</time>
      </trkpt>
      <trkpt lat="45.70334" lon="3.12663">
        <ele>517</ele>
        <time>2019-06-23T05:50:49.000Z</time>
      </trkpt>
      <trkpt lat="45.70336" lon="3.12661">
        <ele>517</ele>
        <time>2019-06-23T05:50:50.000Z</time>
      </trkpt>
      <trkpt lat="45.70338" lon="3.12659">
        <ele>517</ele>
        <time>2019-06-23T05:50:51.000Z</time>
      </trkpt>
      <trkpt lat="45.7034" lon="3.12657">
        <ele>517</ele>
        <time>2019-06-23T05:50:52.000Z</time>
      </trkpt>
      <trkpt lat="45.70342" lon="3.12655">
        <ele>517</ele>
        <time>2019-06-23T05:50:53.000Z</time>
      </trkpt>
      <trkpt lat="45.70344" lon="3.12654">
        <ele>518</ele>
        <time>2019-06-23T05:50:54.000Z</time>
      </trkpt>
      <trkpt lat="45.70346" lon="3.12653">
        <ele>518</ele>
        <time>2019-06-23T05:50:55.000Z</time>
      </trkpt>
      <trkpt lat="45.70349" lon="3.12652">
        <ele>518</ele>
        <time>2019-06-23T05:50:56.000Z</time>
      </trkpt>
      <trkpt lat="45.70351" lon="3.12651">
        <ele>519</ele>
        <time>2019-06-23T05:50:57.000Z</time>
      </trkpt>
      <trkpt lat="45.70354" lon="3.12649">
        <ele>519</ele>
        <time>2019-06-23T05:50:58.000Z</time>
      </trkpt>
      <trkpt lat="45.70356" lon="3.12648">
        <ele>519</ele>
        <time>2019-06-23T05:50:59.000Z</time>
      </trkpt>
      <trkpt lat="45.70358" lon="3.12647">
        <ele>519</ele>
        <time>2019-06-23T05:51:00.000Z</time>
      </trkpt>
      <trkpt lat="45.70361" lon="3.12645">
        <ele>519</ele>
        <time>2019-06-23T05:51:01.000Z</time>
      </trkpt>
      <trkpt lat="45.70362" lon="3.12644">
        <ele>519</ele>
        <time>2019-06-23T05:51:02.000Z</time>
      </trkpt>
      <trkpt lat="45.70365" lon="3.12643">
        <ele>520</ele>
        <time>2019-06-23T05:51:03.000Z</time>
      </trkpt>
      <trkpt lat="45.70367" lon="3.12641">
        <ele>520</ele>
        <time>2019-06-23T05:51:04.000Z</time>
      </trkpt>
      <trkpt lat="45.7037" lon="3.12639">
        <ele>521</ele>
        <time>2019-06-23T05:51:05.000Z</time>
      </trkpt>
      <trkpt lat="45.70372" lon="3.12637">
        <ele>521</ele>
        <time>2019-06-23T05:51:06.000Z</time>
      </trkpt>
      <trkpt lat="45.70374" lon="3.12635">
        <ele>521</ele>
        <time>2019-06-23T05:51:07.000Z</time>
      </trkpt>
      <trkpt lat="45.70377" lon="3.12633">
        <ele>521</ele>
        <time>2019-06-23T05:51:08.000Z</time>
      </trkpt>
      <trkpt lat="45.70379" lon="3.12631">
        <ele>520</ele>
        <time>2019-06-23T05:51:09.000Z</time>
      </trkpt>
      <trkpt lat="45.70382" lon="3.12629">
        <ele>520</ele>
        <time>2019-06-23T05:51:10.000Z</time>
      </trkpt>
      <trkpt lat="45.70385" lon="3.12627">
        <ele>521</ele>
        <time>2019-06-23T05:51:11.000Z</time>
      </trkpt>
      <trkpt lat="45.70387" lon="3.12625">
        <ele>521</ele>
        <time>2019-06-23T05:51:12.000Z</time>
      </trkpt>
      <trkpt lat="45.7039" lon="3.12623">
        <ele>521</ele>
        <time>2019-06-23T05:51:13.000Z</time>
      </trkpt>
      <trkpt lat="45.70392" lon="3.12621">
        <ele>521</ele>
        <time>2019-06-23T05:51:14.000Z</time>
      </trkpt>
      <trkpt lat="45.70395" lon="3.12619">
        <ele>521</ele>
        <time>2019-06-23T05:51:15.000Z</time>
      </trkpt>
      <trkpt lat="45.70397" lon="3.12617">
        <ele>521</ele>
        <time>2019-06-23T05:51:16.000Z</time>
      </trkpt>
      <trkpt lat="45.70399" lon="3.12615">
        <ele>521</ele>
        <time>2019-06-23T05:51:17.000Z</time>
      </trkpt>
      <trkpt lat="45.70402" lon="3.12613">
        <ele>521</ele>
        <time>2019-06-23T05:51:18.000Z</time>
      </trkpt>
      <trkpt lat="45.70404" lon="3.12611">
        <ele>521</ele>
        <time>2019-06-23T05:51:19.000Z</time>
      </trkpt>
      <trkpt lat="45.70406" lon="3.12609">
        <ele>521</ele>
        <time>2019-06-23T05:51:20.000Z</time>
      </trkpt>
      <trkpt lat="45.70408" lon="3.12608">
        <ele>521</ele>
        <time>2019-06-23T05:51:21.000Z</time>
      </trkpt>
      <trkpt lat="45.70411" lon="3.12606">
        <ele>521</ele>
        <time>2019-06-23T05:51:22.000Z</time>
      </trkpt>
      <trkpt lat="45.70413" lon="3.12604">
        <ele>522</ele>
        <time>2019-06-23T05:51:23.000Z</time>
      </trkpt>
      <trkpt lat="45.70415" lon="3.12603">
        <ele>522</ele>
        <time>2019-06-23T05:51:24.000Z</time>
      </trkpt>
      <trkpt lat="45.70417" lon="3.12601">
        <ele>522</ele>
        <time>2019-06-23T05:51:25.000Z</time>
      </trkpt>
      <trkpt lat="45.70419" lon="3.126">
        <ele>522</ele>
        <time>2019-06-23T05:51:26.000Z</time>
      </trkpt>
      <trkpt lat="45.70421" lon="3.12598">
        <ele>522</ele>
        <time>2019-06-23T05:51:27.000Z</time>
      </trkpt>
      <trkpt lat="45.70423" lon="3.12596">
        <ele>522</ele>
        <time>2019-06-23T05:51:28.000Z</time>
      </trkpt>
      <trkpt lat="45.70425" lon="3.12595">
        <ele>522</ele>
        <time>2019-06-23T05:51:29.000Z</time>
      </trkpt>
      <trkpt lat="45.70427" lon="3.12593">
        <ele>523</ele>
        <time>2019-06-23T05:51:30.000Z</time>
      </trkpt>
      <trkpt lat="45.70429" lon="3.12592">
        <ele>523</ele>
        <time>2019-06-23T05:51:31.000Z</time>
      </trkpt>
      <trkpt lat="45.70431" lon="3.12591">
        <ele>523</ele>
        <time>2019-06-23T05:51:32.000Z</time>
      </trkpt>
      <trkpt lat="45.70432" lon="3.12589">
        <ele>524</ele>
        <time>2019-06-23T05:51:33.000Z</time>
      </trkpt>
      <trkpt lat="45.70434" lon="3.12588">
        <ele>524</ele>
        <time>2019-06-23T05:51:34.000Z</time>
      </trkpt>
      <trkpt lat="45.70436" lon="3.12586">
        <ele>524</ele>
        <time>2019-06-23T05:51:35.000Z</time>
      </trkpt>
      <trkpt lat="45.70438" lon="3.12584">
        <ele>525</ele>
        <time>2019-06-23T05:51:36.000Z</time>
      </trkpt>
      <trkpt lat="45.7044" lon="3.12583">
        <ele>525</ele>
        <time>2019-06-23T05:51:37.000Z</time>
      </trkpt>
      <trkpt lat="45.70443" lon="3.12582">
        <ele>525</ele>
        <time>2019-06-23T05:51:38.000Z</time>
      </trkpt>
      <trkpt lat="45.70445" lon="3.1258">
        <ele>526</ele>
        <time>2019-06-23T05:51:39.000Z</time>
      </trkpt>
      <trkpt lat="45.70447" lon="3.12579">
        <ele>526</ele>
        <time>2019-06-23T05:51:40.000Z</time>
      </trkpt>
      <trkpt lat="45.70449" lon="3.12577">
        <ele>526</ele>
        <time>2019-06-23T05:51:41.000Z</time>
      </trkpt>
      <trkpt lat="45.70451" lon="3.12576">
        <ele>526</ele>
        <time>2019-06-23T05:51:42.000Z</time>
      </trkpt>
      <trkpt lat="45.70454" lon="3.12574">
        <ele>527</ele>
        <time>2019-06-23T05:51:43.000Z</time>
      </trkpt>
      <trkpt lat="45.70456" lon="3.12573">
        <ele>527</ele>
        <time>2019-06-23T05:51:44.000Z</time>
      </trkpt>
      <trkpt lat="45.70458" lon="3.12572">
        <ele>527</ele>
        <time>2019-06-23T05:51:45.000Z</time>
      </trkpt>
      <trkpt lat="45.7046" lon="3.1257">
        <ele>527</ele>
        <time>2019-06-23T05:51:46.000Z</time>
      </trkpt>
      <trkpt lat="45.70462" lon="3.12568">
        <ele>527</ele>
        <time>2019-06-23T05:51:47.000Z</time>
      </trkpt>
      <trkpt lat="45.70464" lon="3.12566">
        <ele>527</ele>
        <time>2019-06-23T05:51:48.000Z</time>
      </trkpt>
      <trkpt lat="45.70466" lon="3.12564">
        <ele>528</ele>
        <time>2019-06-23T05:51:49.000Z</time>
      </trkpt>
      <trkpt lat="45.70468" lon="3.12562">
        <ele>528</ele>
        <time>2019-06-23T05:51:50.000Z</time>
      </trkpt>
      <trkpt lat="45.70469" lon="3.1256">
        <ele>528</ele>
        <time>2019-06-23T05:51:51.000Z</time>
      </trkpt>
      <trkpt lat="45.70471" lon="3.12558">
        <ele>528</ele>
        <time>2019-06-23T05:51:52.000Z</time>
      </trkpt>
      <trkpt lat="45.70472" lon="3.12557">
        <ele>528</ele>
        <time>2019-06-23T05:51:53.000Z</time>
      </trkpt>
      <trkpt lat="45.70474" lon="3.12555">
        <ele>528</ele>
        <time>2019-06-23T05:51:54.000Z</time>
      </trkpt>
      <trkpt lat="45.70476" lon="3.12554">
        <ele>528</ele>
        <time>2019-06-23T05:51:55.000Z</time>
      </trkpt>
      <trkpt lat="45.70478" lon="3.12553">
        <ele>528</ele>
        <time>2019-06-23T05:51:56.000Z</time>
      </trkpt>
      <trkpt lat="45.7048" lon="3.12552">
        <ele>528</ele>
        <time>2019-06-23T05:51:57.000Z</time>
      </trkpt>
      <trkpt lat="45.70482" lon="3.12551">
        <ele>528</ele>
        <time>2019-06-23T05:51:58.000Z</time>
      </trkpt>
      <trkpt lat="45.70484" lon="3.1255">
        <ele>528</ele>
        <time>2019-06-23T05:51:59.000Z</time>
      </trkpt>
      <trkpt lat="45.70485" lon="3.12548">
        <ele>528</ele>
        <time>2019-06-23T05:52:00.000Z</time>
      </trkpt>
      <trkpt lat="45.70487" lon="3.12547">
        <ele>528</ele>
        <time>2019-06-23T05:52:01.000Z</time>
      </trkpt>
      <trkpt lat="45.70489" lon="3.12545">
        <ele>528</ele>
        <time>2019-06-23T05:52:02.000Z</time>
      </trkpt>
      <trkpt lat="45.70492" lon="3.12543">
        <ele>528</ele>
        <time>2019-06-23T05:52:03.000Z</time>
      </trkpt>
      <trkpt lat="45.70495" lon="3.12542">
        <ele>528</ele>
        <time>2019-06-23T05:52:04.000Z</time>
      </trkpt>
      <trkpt lat="45.70497" lon="3.1254">
        <ele>528</ele>
        <time>2019-06-23T05:52:05.000Z</time>
      </trkpt>
      <trkpt lat="45.705" lon="3.12539">
        <ele>528</ele>
        <time>2019-06-23T05:52:06.000Z</time>
      </trkpt>
      <trkpt lat="45.70503" lon="3.12537">
        <ele>528</ele>
        <time>2019-06-23T05:52:07.000Z</time>
      </trkpt>
      <trkpt lat="45.70506" lon="3.12535">
        <ele>527</ele>
        <time>2019-06-23T05:52:08.000Z</time>
      </trkpt>
      <trkpt lat="45.70509" lon="3.12532">
        <ele>527</ele>
        <time>2019-06-23T05:52:09.000Z</time>
      </trkpt>
      <trkpt lat="45.70512" lon="3.1253">
        <ele>527</ele>
        <time>2019-06-23T05:52:10.000Z</time>
      </trkpt>
      <trkpt lat="45.70516" lon="3.12528">
        <ele>527</ele>
        <time>2019-06-23T05:52:11.000Z</time>
      </trkpt>
      <trkpt lat="45.7052" lon="3.12525">
        <ele>527</ele>
        <time>2019-06-23T05:52:12.000Z</time>
      </trkpt>
      <trkpt lat="45.70524" lon="3.12523">
        <ele>527</ele>
        <time>2019-06-23T05:52:13.000Z</time>
      </trkpt>
      <trkpt lat="45.70527" lon="3.1252">
        <ele>527</ele>
        <time>2019-06-23T05:52:14.000Z</time>
      </trkpt>
      <trkpt lat="45.70531" lon="3.12517">
        <ele>527</ele>
        <time>2019-06-23T05:52:15.000Z</time>
      </trkpt>
      <trkpt lat="45.70535" lon="3.12515">
        <ele>527</ele>
        <time>2019-06-23T05:52:16.000Z</time>
      </trkpt>
      <trkpt lat="45.70538" lon="3.12512">
        <ele>527</ele>
        <time>2019-06-23T05:52:17.000Z</time>
      </trkpt>
      <trkpt lat="45.70542" lon="3.1251">
        <ele>527</ele>
        <time>2019-06-23T05:52:18.000Z</time>
      </trkpt>
      <trkpt lat="45.70545" lon="3.12508">
        <ele>528</ele>
        <time>2019-06-23T05:52:19.000Z</time>
      </trkpt>
      <trkpt lat="45.70548" lon="3.12505">
        <ele>528</ele>
        <time>2019-06-23T05:52:20.000Z</time>
      </trkpt>
      <trkpt lat="45.70551" lon="3.12502">
        <ele>528</ele>
        <time>2019-06-23T05:52:21.000Z</time>
      </trkpt>
      <trkpt lat="45.70554" lon="3.125">
        <ele>529</ele>
        <time>2019-06-23T05:52:22.000Z</time>
      </trkpt>
      <trkpt lat="45.70557" lon="3.12496">
        <ele>529</ele>
        <time>2019-06-23T05:52:23.000Z</time>
      </trkpt>
      <trkpt lat="45.70558" lon="3.12494">
        <ele>531</ele>
        <time>2019-06-23T05:52:24.000Z</time>
      </trkpt>
      <trkpt lat="45.70561" lon="3.1249">
        <ele>531</ele>
        <time>2019-06-23T05:52:25.000Z</time>
      </trkpt>
      <trkpt lat="45.70565" lon="3.12486">
        <ele>530</ele>
        <time>2019-06-23T05:52:26.000Z</time>
      </trkpt>
      <trkpt lat="45.70567" lon="3.12482">
        <ele>530</ele>
        <time>2019-06-23T05:52:27.000Z</time>
      </trkpt>
      <trkpt lat="45.7057" lon="3.12477">
        <ele>530</ele>
        <time>2019-06-23T05:52:28.000Z</time>
      </trkpt>
      <trkpt lat="45.70572" lon="3.12472">
        <ele>530</ele>
        <time>2019-06-23T05:52:29.000Z</time>
      </trkpt>
      <trkpt lat="45.70574" lon="3.12468">
        <ele>530</ele>
        <time>2019-06-23T05:52:30.000Z</time>
      </trkpt>
      <trkpt lat="45.70576" lon="3.12463">
        <ele>530</ele>
        <time>2019-06-23T05:52:31.000Z</time>
      </trkpt>
      <trkpt lat="45.70578" lon="3.12458">
        <ele>530</ele>
        <time>2019-06-23T05:52:32.000Z</time>
      </trkpt>
      <trkpt lat="45.7058" lon="3.12454">
        <ele>530</ele>
        <time>2019-06-23T05:52:33.000Z</time>
      </trkpt>
      <trkpt lat="45.70581" lon="3.12449">
        <ele>530</ele>
        <time>2019-06-23T05:52:34.000Z</time>
      </trkpt>
      <trkpt lat="45.70583" lon="3.12445">
        <ele>530</ele>
        <time>2019-06-23T05:52:35.000Z</time>
      </trkpt>
      <trkpt lat="45.70585" lon="3.12441">
        <ele>531</ele>
        <time>2019-06-23T05:52:36.000Z</time>
      </trkpt>
      <trkpt lat="45.70586" lon="3.12436">
        <ele>531</ele>
        <time>2019-06-23T05:52:37.000Z</time>
      </trkpt>
      <trkpt lat="45.70588" lon="3.12432">
        <ele>531</ele>
        <time>2019-06-23T05:52:38.000Z</time>
      </trkpt>
      <trkpt lat="45.7059" lon="3.12428">
        <ele>531</ele>
        <time>2019-06-23T05:52:39.000Z</time>
      </trkpt>
      <trkpt lat="45.70591" lon="3.12423">
        <ele>531</ele>
        <time>2019-06-23T05:52:40.000Z</time>
      </trkpt>
      <trkpt lat="45.70592" lon="3.12419">
        <ele>531</ele>
        <time>2019-06-23T05:52:41.000Z</time>
      </trkpt>
      <trkpt lat="45.70594" lon="3.12415">
        <ele>531</ele>
        <time>2019-06-23T05:52:42.000Z</time>
      </trkpt>
      <trkpt lat="45.70595" lon="3.12411">
        <ele>531</ele>
        <time>2019-06-23T05:52:43.000Z</time>
      </trkpt>
      <trkpt lat="45.70596" lon="3.12406">
        <ele>532</ele>
        <time>2019-06-23T05:52:44.000Z</time>
      </trkpt>
      <trkpt lat="45.70598" lon="3.12402">
        <ele>532</ele>
        <time>2019-06-23T05:52:45.000Z</time>
      </trkpt>
      <trkpt lat="45.70599" lon="3.12398">
        <ele>532</ele>
        <time>2019-06-23T05:52:46.000Z</time>
      </trkpt>
      <trkpt lat="45.70601" lon="3.12394">
        <ele>533</ele>
        <time>2019-06-23T05:52:47.000Z</time>
      </trkpt>
      <trkpt lat="45.70602" lon="3.1239">
        <ele>533</ele>
        <time>2019-06-23T05:52:48.000Z</time>
      </trkpt>
      <trkpt lat="45.70604" lon="3.12385">
        <ele>533</ele>
        <time>2019-06-23T05:52:49.000Z</time>
      </trkpt>
      <trkpt lat="45.70605" lon="3.12381">
        <ele>533</ele>
        <time>2019-06-23T05:52:50.000Z</time>
      </trkpt>
      <trkpt lat="45.70607" lon="3.12377">
        <ele>534</ele>
        <time>2019-06-23T05:52:51.000Z</time>
      </trkpt>
      <trkpt lat="45.70608" lon="3.12373">
        <ele>534</ele>
        <time>2019-06-23T05:52:52.000Z</time>
      </trkpt>
      <trkpt lat="45.70609" lon="3.1237">
        <ele>534</ele>
        <time>2019-06-23T05:52:53.000Z</time>
      </trkpt>
      <trkpt lat="45.7061" lon="3.12366">
        <ele>535</ele>
        <time>2019-06-23T05:52:54.000Z</time>
      </trkpt>
      <trkpt lat="45.70611" lon="3.12361">
        <ele>535</ele>
        <time>2019-06-23T05:52:55.000Z</time>
      </trkpt>
      <trkpt lat="45.70612" lon="3.12357">
        <ele>535</ele>
        <time>2019-06-23T05:52:56.000Z</time>
      </trkpt>
      <trkpt lat="45.70613" lon="3.12353">
        <ele>535</ele>
        <time>2019-06-23T05:52:57.000Z</time>
      </trkpt>
      <trkpt lat="45.70615" lon="3.12348">
        <ele>535</ele>
        <time>2019-06-23T05:52:58.000Z</time>
      </trkpt>
      <trkpt lat="45.70616" lon="3.12342">
        <ele>535</ele>
        <time>2019-06-23T05:52:59.000Z</time>
      </trkpt>
      <trkpt lat="45.70617" lon="3.12338">
        <ele>535</ele>
        <time>2019-06-23T05:53:00.000Z</time>
      </trkpt>
      <trkpt lat="45.70618" lon="3.12334">
        <ele>535</ele>
        <time>2019-06-23T05:53:01.000Z</time>
      </trkpt>
      <trkpt lat="45.70619" lon="3.12329">
        <ele>535</ele>
        <time>2019-06-23T05:53:02.000Z</time>
      </trkpt>
      <trkpt lat="45.7062" lon="3.12325">
        <ele>535</ele>
        <time>2019-06-23T05:53:03.000Z</time>
      </trkpt>
      <trkpt lat="45.70621" lon="3.1232">
        <ele>535</ele>
        <time>2019-06-23T05:53:04.000Z</time>
      </trkpt>
      <trkpt lat="45.70622" lon="3.12316">
        <ele>535</ele>
        <time>2019-06-23T05:53:05.000Z</time>
      </trkpt>
      <trkpt lat="45.70623" lon="3.12311">
        <ele>535</ele>
        <time>2019-06-23T05:53:06.000Z</time>
      </trkpt>
      <trkpt lat="45.70624" lon="3.12307">
        <ele>535</ele>
        <time>2019-06-23T05:53:07.000Z</time>
      </trkpt>
      <trkpt lat="45.70625" lon="3.12303">
        <ele>535</ele>
        <time>2019-06-23T05:53:08.000Z</time>
      </trkpt>
      <trkpt lat="45.70626" lon="3.12299">
        <ele>535</ele>
        <time>2019-06-23T05:53:09.000Z</time>
      </trkpt>
      <trkpt lat="45.70627" lon="3.12295">
        <ele>535</ele>
        <time>2019-06-23T05:53:10.000Z</time>
      </trkpt>
      <trkpt lat="45.70628" lon="3.12291">
        <ele>536</ele>
        <time>2019-06-23T05:53:11.000Z</time>
      </trkpt>
      <trkpt lat="45.70629" lon="3.12287">
        <ele>535</ele>
        <time>2019-06-23T05:53:12.000Z</time>
      </trkpt>
      <trkpt lat="45.70629" lon="3.12283">
        <ele>535</ele>
        <time>2019-06-23T05:53:13.000Z</time>
      </trkpt>
      <trkpt lat="45.70631" lon="3.12279">
        <ele>536</ele>
        <time>2019-06-23T05:53:14.000Z</time>
      </trkpt>
      <trkpt lat="45.70631" lon="3.12275">
        <ele>536</ele>
        <time>2019-06-23T05:53:15.000Z</time>
      </trkpt>
      <trkpt lat="45.70632" lon="3.12271">
        <ele>536</ele>
        <time>2019-06-23T05:53:16.000Z</time>
      </trkpt>
      <trkpt lat="45.70633" lon="3.12267">
        <ele>536</ele>
        <time>2019-06-23T05:53:17.000Z</time>
      </trkpt>
      <trkpt lat="45.70634" lon="3.12262">
        <ele>537</ele>
        <time>2019-06-23T05:53:18.000Z</time>
      </trkpt>
      <trkpt lat="45.70636" lon="3.12258">
        <ele>537</ele>
        <time>2019-06-23T05:53:19.000Z</time>
      </trkpt>
      <trkpt lat="45.70637" lon="3.12254">
        <ele>537</ele>
        <time>2019-06-23T05:53:20.000Z</time>
      </trkpt>
      <trkpt lat="45.70638" lon="3.12249">
        <ele>537</ele>
        <time>2019-06-23T05:53:21.000Z</time>
      </trkpt>
      <trkpt lat="45.70638" lon="3.12245">
        <ele>537</ele>
        <time>2019-06-23T05:53:22.000Z</time>
      </trkpt>
      <trkpt lat="45.70638" lon="3.1224">
        <ele>537</ele>
        <time>2019-06-23T05:53:23.000Z</time>
      </trkpt>
      <trkpt lat="45.70638" lon="3.12236">
        <ele>538</ele>
        <time>2019-06-23T05:53:24.000Z</time>
      </trkpt>
      <trkpt lat="45.70639" lon="3.12232">
        <ele>538</ele>
        <time>2019-06-23T05:53:25.000Z</time>
      </trkpt>
      <trkpt lat="45.70639" lon="3.12228">
        <ele>538</ele>
        <time>2019-06-23T05:53:26.000Z</time>
      </trkpt>
      <trkpt lat="45.70639" lon="3.12223">
        <ele>539</ele>
        <time>2019-06-23T05:53:27.000Z</time>
      </trkpt>
      <trkpt lat="45.70639" lon="3.12219">
        <ele>539</ele>
        <time>2019-06-23T05:53:28.000Z</time>
      </trkpt>
      <trkpt lat="45.7064" lon="3.12216">
        <ele>539</ele>
        <time>2019-06-23T05:53:29.000Z</time>
      </trkpt>
      <trkpt lat="45.7064" lon="3.12212">
        <ele>540</ele>
        <time>2019-06-23T05:53:30.000Z</time>
      </trkpt>
      <trkpt lat="45.7064" lon="3.12208">
        <ele>540</ele>
        <time>2019-06-23T05:53:31.000Z</time>
      </trkpt>
      <trkpt lat="45.7064" lon="3.12204">
        <ele>540</ele>
        <time>2019-06-23T05:53:32.000Z</time>
      </trkpt>
      <trkpt lat="45.7064" lon="3.122">
        <ele>540</ele>
        <time>2019-06-23T05:53:33.000Z</time>
      </trkpt>
      <trkpt lat="45.7064" lon="3.12196">
        <ele>540</ele>
        <time>2019-06-23T05:53:34.000Z</time>
      </trkpt>
      <trkpt lat="45.7064" lon="3.12193">
        <ele>541</ele>
        <time>2019-06-23T05:53:35.000Z</time>
      </trkpt>
      <trkpt lat="45.7064" lon="3.12189">
        <ele>541</ele>
        <time>2019-06-23T05:53:36.000Z</time>
      </trkpt>
      <trkpt lat="45.7064" lon="3.12185">
        <ele>541</ele>
        <time>2019-06-23T05:53:37.000Z</time>
      </trkpt>
      <trkpt lat="45.7064" lon="3.12181">
        <ele>541</ele>
        <time>2019-06-23T05:53:38.000Z</time>
      </trkpt>
      <trkpt lat="45.70639" lon="3.12178">
        <ele>541</ele>
        <time>2019-06-23T05:53:39.000Z</time>
      </trkpt>
      <trkpt lat="45.70639" lon="3.12174">
        <ele>541</ele>
        <time>2019-06-23T05:53:40.000Z</time>
      </trkpt>
      <trkpt lat="45.70639" lon="3.12171">
        <ele>541</ele>
        <time>2019-06-23T05:53:41.000Z</time>
      </trkpt>
      <trkpt lat="45.70639" lon="3.12167">
        <ele>541</ele>
        <time>2019-06-23T05:53:42.000Z</time>
      </trkpt>
      <trkpt lat="45.70639" lon="3.12163">
        <ele>542</ele>
        <time>2019-06-23T05:53:43.000Z</time>
      </trkpt>
      <trkpt lat="45.70639" lon="3.1216">
        <ele>542</ele>
        <time>2019-06-23T05:53:44.000Z</time>
      </trkpt>
      <trkpt lat="45.70639" lon="3.12157">
        <ele>542</ele>
        <time>2019-06-23T05:53:45.000Z</time>
      </trkpt>
      <trkpt lat="45.7064" lon="3.12152">
        <ele>542</ele>
        <time>2019-06-23T05:53:46.000Z</time>
      </trkpt>
      <trkpt lat="45.7064" lon="3.12148">
        <ele>542</ele>
        <time>2019-06-23T05:53:47.000Z</time>
      </trkpt>
      <trkpt lat="45.70641" lon="3.12143">
        <ele>541</ele>
        <time>2019-06-23T05:53:48.000Z</time>
      </trkpt>
      <trkpt lat="45.70641" lon="3.12138">
        <ele>541</ele>
        <time>2019-06-23T05:53:49.000Z</time>
      </trkpt>
      <trkpt lat="45.70641" lon="3.12133">
        <ele>540</ele>
        <time>2019-06-23T05:53:50.000Z</time>
      </trkpt>
      <trkpt lat="45.70642" lon="3.12128">
        <ele>540</ele>
        <time>2019-06-23T05:53:51.000Z</time>
      </trkpt>
      <trkpt lat="45.70642" lon="3.12123">
        <ele>540</ele>
        <time>2019-06-23T05:53:52.000Z</time>
      </trkpt>
      <trkpt lat="45.70646" lon="3.12117">
        <ele>540</ele>
        <time>2019-06-23T05:53:53.000Z</time>
      </trkpt>
      <trkpt lat="45.70649" lon="3.12112">
        <ele>538</ele>
        <time>2019-06-23T05:53:54.000Z</time>
      </trkpt>
      <trkpt lat="45.70653" lon="3.12108">
        <ele>536</ele>
        <time>2019-06-23T05:53:55.000Z</time>
      </trkpt>
      <trkpt lat="45.7066" lon="3.12104">
        <ele>535</ele>
        <time>2019-06-23T05:53:56.000Z</time>
      </trkpt>
      <trkpt lat="45.70667" lon="3.12101">
        <ele>533</ele>
        <time>2019-06-23T05:53:57.000Z</time>
      </trkpt>
      <trkpt lat="45.70674" lon="3.12098">
        <ele>532</ele>
        <time>2019-06-23T05:53:58.000Z</time>
      </trkpt>
      <trkpt lat="45.70681" lon="3.12095">
        <ele>530</ele>
        <time>2019-06-23T05:53:59.000Z</time>
      </trkpt>
      <trkpt lat="45.70689" lon="3.12091">
        <ele>529</ele>
        <time>2019-06-23T05:54:00.000Z</time>
      </trkpt>
      <trkpt lat="45.70697" lon="3.12087">
        <ele>528</ele>
        <time>2019-06-23T05:54:01.000Z</time>
      </trkpt>
      <trkpt lat="45.70705" lon="3.12082">
        <ele>527</ele>
        <time>2019-06-23T05:54:02.000Z</time>
      </trkpt>
      <trkpt lat="45.70712" lon="3.12078">
        <ele>527</ele>
        <time>2019-06-23T05:54:03.000Z</time>
      </trkpt>
      <trkpt lat="45.70718" lon="3.12075">
        <ele>526</ele>
        <time>2019-06-23T05:54:04.000Z</time>
      </trkpt>
      <trkpt lat="45.70724" lon="3.12073">
        <ele>526</ele>
        <time>2019-06-23T05:54:05.000Z</time>
      </trkpt>
      <trkpt lat="45.70728" lon="3.12073">
        <ele>524</ele>
        <time>2019-06-23T05:54:06.000Z</time>
      </trkpt>
      <trkpt lat="45.70732" lon="3.12073">
        <ele>523</ele>
        <time>2019-06-23T05:54:07.000Z</time>
      </trkpt>
      <trkpt lat="45.70735" lon="3.12072">
        <ele>523</ele>
        <time>2019-06-23T05:54:08.000Z</time>
      </trkpt>
      <trkpt lat="45.70736" lon="3.1207">
        <ele>523</ele>
        <time>2019-06-23T05:54:09.000Z</time>
      </trkpt>
      <trkpt lat="45.70736" lon="3.12065">
        <ele>524</ele>
        <time>2019-06-23T05:54:10.000Z</time>
      </trkpt>
      <trkpt lat="45.70736" lon="3.12062">
        <ele>524</ele>
        <time>2019-06-23T05:54:11.000Z</time>
      </trkpt>
      <trkpt lat="45.70735" lon="3.12058">
        <ele>524</ele>
        <time>2019-06-23T05:54:12.000Z</time>
      </trkpt>
      <trkpt lat="45.70733" lon="3.12054">
        <ele>525</ele>
        <time>2019-06-23T05:54:13.000Z</time>
      </trkpt>
      <trkpt lat="45.7073" lon="3.1205">
        <ele>525</ele>
        <time>2019-06-23T05:54:14.000Z</time>
      </trkpt>
      <trkpt lat="45.70725" lon="3.12046">
        <ele>524</ele>
        <time>2019-06-23T05:54:15.000Z</time>
      </trkpt>
      <trkpt lat="45.70721" lon="3.12043">
        <ele>524</ele>
        <time>2019-06-23T05:54:16.000Z</time>
      </trkpt>
      <trkpt lat="45.70717" lon="3.12039">
        <ele>524</ele>
        <time>2019-06-23T05:54:17.000Z</time>
      </trkpt>
      <trkpt lat="45.70713" lon="3.12036">
        <ele>524</ele>
        <time>2019-06-23T05:54:18.000Z</time>
      </trkpt>
      <trkpt lat="45.70709" lon="3.12033">
        <ele>524</ele>
        <time>2019-06-23T05:54:19.000Z</time>
      </trkpt>
      <trkpt lat="45.70705" lon="3.12029">
        <ele>524</ele>
        <time>2019-06-23T05:54:20.000Z</time>
      </trkpt>
      <trkpt lat="45.70702" lon="3.12026">
        <ele>524</ele>
        <time>2019-06-23T05:54:21.000Z</time>
      </trkpt>
      <trkpt lat="45.70698" lon="3.12022">
        <ele>524</ele>
        <time>2019-06-23T05:54:22.000Z</time>
      </trkpt>
      <trkpt lat="45.70694" lon="3.12018">
        <ele>524</ele>
        <time>2019-06-23T05:54:23.000Z</time>
      </trkpt>
      <trkpt lat="45.70691" lon="3.12014">
        <ele>524</ele>
        <time>2019-06-23T05:54:24.000Z</time>
      </trkpt>
      <trkpt lat="45.70687" lon="3.1201">
        <ele>524</ele>
        <time>2019-06-23T05:54:25.000Z</time>
      </trkpt>
      <trkpt lat="45.70683" lon="3.12006">
        <ele>524</ele>
        <time>2019-06-23T05:54:26.000Z</time>
      </trkpt>
      <trkpt lat="45.70679" lon="3.12003">
        <ele>524</ele>
        <time>2019-06-23T05:54:27.000Z</time>
      </trkpt>
      <trkpt lat="45.70675" lon="3.11999">
        <ele>523</ele>
        <time>2019-06-23T05:54:28.000Z</time>
      </trkpt>
      <trkpt lat="45.70672" lon="3.11995">
        <ele>523</ele>
        <time>2019-06-23T05:54:29.000Z</time>
      </trkpt>
      <trkpt lat="45.70668" lon="3.1199">
        <ele>523</ele>
        <time>2019-06-23T05:54:30.000Z</time>
      </trkpt>
      <trkpt lat="45.70664" lon="3.11986">
        <ele>523</ele>
        <time>2019-06-23T05:54:31.000Z</time>
      </trkpt>
      <trkpt lat="45.7066" lon="3.11981">
        <ele>523</ele>
        <time>2019-06-23T05:54:32.000Z</time>
      </trkpt>
      <trkpt lat="45.70655" lon="3.11976">
        <ele>523</ele>
        <time>2019-06-23T05:54:33.000Z</time>
      </trkpt>
      <trkpt lat="45.70651" lon="3.11969">
        <ele>522</ele>
        <time>2019-06-23T05:54:34.000Z</time>
      </trkpt>
      <trkpt lat="45.70647" lon="3.11962">
        <ele>521</ele>
        <time>2019-06-23T05:54:35.000Z</time>
      </trkpt>
      <trkpt lat="45.70642" lon="3.11956">
        <ele>519</ele>
        <time>2019-06-23T05:54:36.000Z</time>
      </trkpt>
      <trkpt lat="45.70637" lon="3.1195">
        <ele>518</ele>
        <time>2019-06-23T05:54:37.000Z</time>
      </trkpt>
      <trkpt lat="45.70632" lon="3.11943">
        <ele>517</ele>
        <time>2019-06-23T05:54:38.000Z</time>
      </trkpt>
      <trkpt lat="45.70625" lon="3.11936">
        <ele>516</ele>
        <time>2019-06-23T05:54:39.000Z</time>
      </trkpt>
      <trkpt lat="45.70619" lon="3.1193">
        <ele>514</ele>
        <time>2019-06-23T05:54:40.000Z</time>
      </trkpt>
      <trkpt lat="45.70613" lon="3.11925">
        <ele>514</ele>
        <time>2019-06-23T05:54:41.000Z</time>
      </trkpt>
      <trkpt lat="45.70606" lon="3.11919">
        <ele>513</ele>
        <time>2019-06-23T05:54:42.000Z</time>
      </trkpt>
      <trkpt lat="45.70599" lon="3.11914">
        <ele>512</ele>
        <time>2019-06-23T05:54:43.000Z</time>
      </trkpt>
      <trkpt lat="45.70592" lon="3.11908">
        <ele>511</ele>
        <time>2019-06-23T05:54:44.000Z</time>
      </trkpt>
      <trkpt lat="45.70586" lon="3.11903">
        <ele>511</ele>
        <time>2019-06-23T05:54:45.000Z</time>
      </trkpt>
      <trkpt lat="45.70579" lon="3.11898">
        <ele>511</ele>
        <time>2019-06-23T05:54:46.000Z</time>
      </trkpt>
      <trkpt lat="45.70572" lon="3.11893">
        <ele>510</ele>
        <time>2019-06-23T05:54:47.000Z</time>
      </trkpt>
      <trkpt lat="45.70566" lon="3.11889">
        <ele>510</ele>
        <time>2019-06-23T05:54:48.000Z</time>
      </trkpt>
      <trkpt lat="45.70558" lon="3.11884">
        <ele>509</ele>
        <time>2019-06-23T05:54:49.000Z</time>
      </trkpt>
      <trkpt lat="45.70552" lon="3.11879">
        <ele>508</ele>
        <time>2019-06-23T05:54:50.000Z</time>
      </trkpt>
      <trkpt lat="45.70544" lon="3.11874">
        <ele>507</ele>
        <time>2019-06-23T05:54:51.000Z</time>
      </trkpt>
      <trkpt lat="45.70537" lon="3.11868">
        <ele>507</ele>
        <time>2019-06-23T05:54:52.000Z</time>
      </trkpt>
      <trkpt lat="45.7053" lon="3.11862">
        <ele>506</ele>
        <time>2019-06-23T05:54:53.000Z</time>
      </trkpt>
      <trkpt lat="45.70522" lon="3.11855">
        <ele>506</ele>
        <time>2019-06-23T05:54:54.000Z</time>
      </trkpt>
      <trkpt lat="45.70514" lon="3.11848">
        <ele>505</ele>
        <time>2019-06-23T05:54:55.000Z</time>
      </trkpt>
      <trkpt lat="45.70507" lon="3.11841">
        <ele>503</ele>
        <time>2019-06-23T05:54:56.000Z</time>
      </trkpt>
      <trkpt lat="45.70499" lon="3.11833">
        <ele>503</ele>
        <time>2019-06-23T05:54:57.000Z</time>
      </trkpt>
      <trkpt lat="45.70492" lon="3.11825">
        <ele>502</ele>
        <time>2019-06-23T05:54:58.000Z</time>
      </trkpt>
      <trkpt lat="45.70485" lon="3.11816">
        <ele>501</ele>
        <time>2019-06-23T05:54:59.000Z</time>
      </trkpt>
      <trkpt lat="45.70477" lon="3.11809">
        <ele>501</ele>
        <time>2019-06-23T05:55:00.000Z</time>
      </trkpt>
      <trkpt lat="45.70469" lon="3.11802">
        <ele>501</ele>
        <time>2019-06-23T05:55:01.000Z</time>
      </trkpt>
      <trkpt lat="45.70461" lon="3.118">
        <ele>500</ele>
        <time>2019-06-23T05:55:02.000Z</time>
      </trkpt>
      <trkpt lat="45.70453" lon="3.11798">
        <ele>499</ele>
        <time>2019-06-23T05:55:03.000Z</time>
      </trkpt>
      <trkpt lat="45.70444" lon="3.11796">
        <ele>499</ele>
        <time>2019-06-23T05:55:04.000Z</time>
      </trkpt>
      <trkpt lat="45.70435" lon="3.11795">
        <ele>498</ele>
        <time>2019-06-23T05:55:05.000Z</time>
      </trkpt>
      <trkpt lat="45.70426" lon="3.11793">
        <ele>496</ele>
        <time>2019-06-23T05:55:06.000Z</time>
      </trkpt>
      <trkpt lat="45.70417" lon="3.11792">
        <ele>495</ele>
        <time>2019-06-23T05:55:07.000Z</time>
      </trkpt>
      <trkpt lat="45.70408" lon="3.1179">
        <ele>494</ele>
        <time>2019-06-23T05:55:08.000Z</time>
      </trkpt>
      <trkpt lat="45.70398" lon="3.11788">
        <ele>493</ele>
        <time>2019-06-23T05:55:09.000Z</time>
      </trkpt>
      <trkpt lat="45.70388" lon="3.11785">
        <ele>492</ele>
        <time>2019-06-23T05:55:10.000Z</time>
      </trkpt>
      <trkpt lat="45.70377" lon="3.11781">
        <ele>491</ele>
        <time>2019-06-23T05:55:11.000Z</time>
      </trkpt>
      <trkpt lat="45.70367" lon="3.11778">
        <ele>490</ele>
        <time>2019-06-23T05:55:12.000Z</time>
      </trkpt>
      <trkpt lat="45.70357" lon="3.11775">
        <ele>489</ele>
        <time>2019-06-23T05:55:13.000Z</time>
      </trkpt>
      <trkpt lat="45.70347" lon="3.11773">
        <ele>488</ele>
        <time>2019-06-23T05:55:14.000Z</time>
      </trkpt>
      <trkpt lat="45.70338" lon="3.1177">
        <ele>488</ele>
        <time>2019-06-23T05:55:15.000Z</time>
      </trkpt>
      <trkpt lat="45.70328" lon="3.11768">
        <ele>487</ele>
        <time>2019-06-23T05:55:16.000Z</time>
      </trkpt>
      <trkpt lat="45.70318" lon="3.11765">
        <ele>487</ele>
        <time>2019-06-23T05:55:17.000Z</time>
      </trkpt>
      <trkpt lat="45.70309" lon="3.11762">
        <ele>486</ele>
        <time>2019-06-23T05:55:18.000Z</time>
      </trkpt>
      <trkpt lat="45.70299" lon="3.11758">
        <ele>485</ele>
        <time>2019-06-23T05:55:19.000Z</time>
      </trkpt>
      <trkpt lat="45.7029" lon="3.11754">
        <ele>485</ele>
        <time>2019-06-23T05:55:20.000Z</time>
      </trkpt>
      <trkpt lat="45.70282" lon="3.1175">
        <ele>485</ele>
        <time>2019-06-23T05:55:21.000Z</time>
      </trkpt>
      <trkpt lat="45.70273" lon="3.11746">
        <ele>484</ele>
        <time>2019-06-23T05:55:22.000Z</time>
      </trkpt>
      <trkpt lat="45.70264" lon="3.11742">
        <ele>483</ele>
        <time>2019-06-23T05:55:23.000Z</time>
      </trkpt>
      <trkpt lat="45.70256" lon="3.11738">
        <ele>483</ele>
        <time>2019-06-23T05:55:24.000Z</time>
      </trkpt>
      <trkpt lat="45.70247" lon="3.11734">
        <ele>482</ele>
        <time>2019-06-23T05:55:25.000Z</time>
      </trkpt>
      <trkpt lat="45.70239" lon="3.1173">
        <ele>482</ele>
        <time>2019-06-23T05:55:26.000Z</time>
      </trkpt>
      <trkpt lat="45.70229" lon="3.11724">
        <ele>481</ele>
        <time>2019-06-23T05:55:27.000Z</time>
      </trkpt>
      <trkpt lat="45.70219" lon="3.11718">
        <ele>479</ele>
        <time>2019-06-23T05:55:28.000Z</time>
      </trkpt>
      <trkpt lat="45.7021" lon="3.11712">
        <ele>478</ele>
        <time>2019-06-23T05:55:29.000Z</time>
      </trkpt>
      <trkpt lat="45.70201" lon="3.11707">
        <ele>477</ele>
        <time>2019-06-23T05:55:30.000Z</time>
      </trkpt>
      <trkpt lat="45.70195" lon="3.11706">
        <ele>477</ele>
        <time>2019-06-23T05:55:31.000Z</time>
      </trkpt>
      <trkpt lat="45.70187" lon="3.11703">
        <ele>476</ele>
        <time>2019-06-23T05:55:32.000Z</time>
      </trkpt>
      <trkpt lat="45.70179" lon="3.11702">
        <ele>474</ele>
        <time>2019-06-23T05:55:33.000Z</time>
      </trkpt>
      <trkpt lat="45.70168" lon="3.11704">
        <ele>473</ele>
        <time>2019-06-23T05:55:34.000Z</time>
      </trkpt>
      <trkpt lat="45.70159" lon="3.11706">
        <ele>473</ele>
        <time>2019-06-23T05:55:35.000Z</time>
      </trkpt>
      <trkpt lat="45.70151" lon="3.1171">
        <ele>474</ele>
        <time>2019-06-23T05:55:36.000Z</time>
      </trkpt>
      <trkpt lat="45.70141" lon="3.11714">
        <ele>472</ele>
        <time>2019-06-23T05:55:37.000Z</time>
      </trkpt>
      <trkpt lat="45.70132" lon="3.11717">
        <ele>472</ele>
        <time>2019-06-23T05:55:38.000Z</time>
      </trkpt>
      <trkpt lat="45.70124" lon="3.11719">
        <ele>471</ele>
        <time>2019-06-23T05:55:39.000Z</time>
      </trkpt>
      <trkpt lat="45.70117" lon="3.11721">
        <ele>470</ele>
        <time>2019-06-23T05:55:40.000Z</time>
      </trkpt>
      <trkpt lat="45.70108" lon="3.11723">
        <ele>469</ele>
        <time>2019-06-23T05:55:41.000Z</time>
      </trkpt>
      <trkpt lat="45.70099" lon="3.11725">
        <ele>467</ele>
        <time>2019-06-23T05:55:42.000Z</time>
      </trkpt>
      <trkpt lat="45.70091" lon="3.11728">
        <ele>466</ele>
        <time>2019-06-23T05:55:43.000Z</time>
      </trkpt>
      <trkpt lat="45.70082" lon="3.11729">
        <ele>465</ele>
        <time>2019-06-23T05:55:44.000Z</time>
      </trkpt>
      <trkpt lat="45.70072" lon="3.1173">
        <ele>462</ele>
        <time>2019-06-23T05:55:45.000Z</time>
      </trkpt>
      <trkpt lat="45.70061" lon="3.1173">
        <ele>460</ele>
        <time>2019-06-23T05:55:46.000Z</time>
      </trkpt>
      <trkpt lat="45.70051" lon="3.1173">
        <ele>458</ele>
        <time>2019-06-23T05:55:47.000Z</time>
      </trkpt>
      <trkpt lat="45.70041" lon="3.1173">
        <ele>457</ele>
        <time>2019-06-23T05:55:48.000Z</time>
      </trkpt>
      <trkpt lat="45.70031" lon="3.1173">
        <ele>456</ele>
        <time>2019-06-23T05:55:49.000Z</time>
      </trkpt>
      <trkpt lat="45.70022" lon="3.11732">
        <ele>455</ele>
        <time>2019-06-23T05:55:50.000Z</time>
      </trkpt>
      <trkpt lat="45.70012" lon="3.11735">
        <ele>454</ele>
        <time>2019-06-23T05:55:51.000Z</time>
      </trkpt>
      <trkpt lat="45.70002" lon="3.11738">
        <ele>454</ele>
        <time>2019-06-23T05:55:52.000Z</time>
      </trkpt>
      <trkpt lat="45.69993" lon="3.1174">
        <ele>453</ele>
        <time>2019-06-23T05:55:53.000Z</time>
      </trkpt>
      <trkpt lat="45.69983" lon="3.11744">
        <ele>453</ele>
        <time>2019-06-23T05:55:54.000Z</time>
      </trkpt>
      <trkpt lat="45.69973" lon="3.11749">
        <ele>452</ele>
        <time>2019-06-23T05:55:55.000Z</time>
      </trkpt>
      <trkpt lat="45.69963" lon="3.11752">
        <ele>452</ele>
        <time>2019-06-23T05:55:56.000Z</time>
      </trkpt>
      <trkpt lat="45.69953" lon="3.11755">
        <ele>451</ele>
        <time>2019-06-23T05:55:57.000Z</time>
      </trkpt>
      <trkpt lat="45.69943" lon="3.11759">
        <ele>451</ele>
        <time>2019-06-23T05:55:58.000Z</time>
      </trkpt>
      <trkpt lat="45.69933" lon="3.11763">
        <ele>451</ele>
        <time>2019-06-23T05:55:59.000Z</time>
      </trkpt>
      <trkpt lat="45.69923" lon="3.11766">
        <ele>451</ele>
        <time>2019-06-23T05:56:00.000Z</time>
      </trkpt>
      <trkpt lat="45.69914" lon="3.1177">
        <ele>450</ele>
        <time>2019-06-23T05:56:01.000Z</time>
      </trkpt>
      <trkpt lat="45.69905" lon="3.11774">
        <ele>449</ele>
        <time>2019-06-23T05:56:02.000Z</time>
      </trkpt>
      <trkpt lat="45.69896" lon="3.11774">
        <ele>451</ele>
        <time>2019-06-23T05:56:03.000Z</time>
      </trkpt>
      <trkpt lat="45.69887" lon="3.11773">
        <ele>451</ele>
        <time>2019-06-23T05:56:04.000Z</time>
      </trkpt>
      <trkpt lat="45.69879" lon="3.11775">
        <ele>452</ele>
        <time>2019-06-23T05:56:05.000Z</time>
      </trkpt>
      <trkpt lat="45.69871" lon="3.11778">
        <ele>453</ele>
        <time>2019-06-23T05:56:06.000Z</time>
      </trkpt>
      <trkpt lat="45.69864" lon="3.11785">
        <ele>456</ele>
        <time>2019-06-23T05:56:07.000Z</time>
      </trkpt>
      <trkpt lat="45.69858" lon="3.11791">
        <ele>458</ele>
        <time>2019-06-23T05:56:08.000Z</time>
      </trkpt>
      <trkpt lat="45.69853" lon="3.11795">
        <ele>460</ele>
        <time>2019-06-23T05:56:09.000Z</time>
      </trkpt>
      <trkpt lat="45.69852" lon="3.11799">
        <ele>459</ele>
        <time>2019-06-23T05:56:10.000Z</time>
      </trkpt>
      <trkpt lat="45.69851" lon="3.11801">
        <ele>456</ele>
        <time>2019-06-23T05:56:11.000Z</time>
      </trkpt>
      <trkpt lat="45.69849" lon="3.11803">
        <ele>454</ele>
        <time>2019-06-23T05:56:12.000Z</time>
      </trkpt>
      <trkpt lat="45.69848" lon="3.11804">
        <ele>454</ele>
        <time>2019-06-23T05:56:13.000Z</time>
      </trkpt>
      <trkpt lat="45.69846" lon="3.11805">
        <ele>454</ele>
        <time>2019-06-23T05:56:14.000Z</time>
      </trkpt>
      <trkpt lat="45.69845" lon="3.11805">
        <ele>455</ele>
        <time>2019-06-23T05:56:15.000Z</time>
      </trkpt>
      <trkpt lat="45.69843" lon="3.11806">
        <ele>455</ele>
        <time>2019-06-23T05:56:16.000Z</time>
      </trkpt>
      <trkpt lat="45.6984" lon="3.11809">
        <ele>455</ele>
        <time>2019-06-23T05:56:17.000Z</time>
      </trkpt>
      <trkpt lat="45.69838" lon="3.11814">
        <ele>454</ele>
        <time>2019-06-23T05:56:18.000Z</time>
      </trkpt>
      <trkpt lat="45.69836" lon="3.1182">
        <ele>453</ele>
        <time>2019-06-23T05:56:19.000Z</time>
      </trkpt>
      <trkpt lat="45.69834" lon="3.11827">
        <ele>452</ele>
        <time>2019-06-23T05:56:20.000Z</time>
      </trkpt>
      <trkpt lat="45.69833" lon="3.11835">
        <ele>450</ele>
        <time>2019-06-23T05:56:21.000Z</time>
      </trkpt>
      <trkpt lat="45.69832" lon="3.11843">
        <ele>450</ele>
        <time>2019-06-23T05:56:22.000Z</time>
      </trkpt>
      <trkpt lat="45.6983" lon="3.11848">
        <ele>449</ele>
        <time>2019-06-23T05:56:23.000Z</time>
      </trkpt>
      <trkpt lat="45.69829" lon="3.11852">
        <ele>448</ele>
        <time>2019-06-23T05:56:24.000Z</time>
      </trkpt>
      <trkpt lat="45.69826" lon="3.11855">
        <ele>448</ele>
        <time>2019-06-23T05:56:25.000Z</time>
      </trkpt>
      <trkpt lat="45.69824" lon="3.11857">
        <ele>448</ele>
        <time>2019-06-23T05:56:26.000Z</time>
      </trkpt>
      <trkpt lat="45.69822" lon="3.1186">
        <ele>448</ele>
        <time>2019-06-23T05:56:27.000Z</time>
      </trkpt>
      <trkpt lat="45.69819" lon="3.11865">
        <ele>447</ele>
        <time>2019-06-23T05:56:28.000Z</time>
      </trkpt>
      <trkpt lat="45.69818" lon="3.1187">
        <ele>447</ele>
        <time>2019-06-23T05:56:29.000Z</time>
      </trkpt>
      <trkpt lat="45.69817" lon="3.11875">
        <ele>446</ele>
        <time>2019-06-23T05:56:30.000Z</time>
      </trkpt>
      <trkpt lat="45.69817" lon="3.1188">
        <ele>446</ele>
        <time>2019-06-23T05:56:31.000Z</time>
      </trkpt>
      <trkpt lat="45.69816" lon="3.11885">
        <ele>445</ele>
        <time>2019-06-23T05:56:32.000Z</time>
      </trkpt>
      <trkpt lat="45.69818" lon="3.11891">
        <ele>446</ele>
        <time>2019-06-23T05:56:33.000Z</time>
      </trkpt>
      <trkpt lat="45.69824" lon="3.11893">
        <ele>449</ele>
        <time>2019-06-23T05:56:34.000Z</time>
      </trkpt>
      <trkpt lat="45.69826" lon="3.11896">
        <ele>448</ele>
        <time>2019-06-23T05:56:35.000Z</time>
      </trkpt>
      <trkpt lat="45.69829" lon="3.11896">
        <ele>450</ele>
        <time>2019-06-23T05:56:36.000Z</time>
      </trkpt>
      <trkpt lat="45.69833" lon="3.11893">
        <ele>451</ele>
        <time>2019-06-23T05:56:37.000Z</time>
      </trkpt>
      <trkpt lat="45.69836" lon="3.11891">
        <ele>451</ele>
        <time>2019-06-23T05:56:38.000Z</time>
      </trkpt>
      <trkpt lat="45.69837" lon="3.11886">
        <ele>451</ele>
        <time>2019-06-23T05:56:39.000Z</time>
      </trkpt>
      <trkpt lat="45.69837" lon="3.11881">
        <ele>452</ele>
        <time>2019-06-23T05:56:40.000Z</time>
      </trkpt>
      <trkpt lat="45.69837" lon="3.11876">
        <ele>452</ele>
        <time>2019-06-23T05:56:41.000Z</time>
      </trkpt>
      <trkpt lat="45.69836" lon="3.11871">
        <ele>452</ele>
        <time>2019-06-23T05:56:42.000Z</time>
      </trkpt>
      <trkpt lat="45.69833" lon="3.11867">
        <ele>452</ele>
        <time>2019-06-23T05:56:43.000Z</time>
      </trkpt>
      <trkpt lat="45.6983" lon="3.11865">
        <ele>453</ele>
        <time>2019-06-23T05:56:44.000Z</time>
      </trkpt>
      <trkpt lat="45.69828" lon="3.11865">
        <ele>451</ele>
        <time>2019-06-23T05:56:45.000Z</time>
      </trkpt>
      <trkpt lat="45.69825" lon="3.11866">
        <ele>452</ele>
        <time>2019-06-23T05:56:46.000Z</time>
      </trkpt>
      <trkpt lat="45.69823" lon="3.11868">
        <ele>451</ele>
        <time>2019-06-23T05:56:47.000Z</time>
      </trkpt>
      <trkpt lat="45.69822" lon="3.1187">
        <ele>451</ele>
        <time>2019-06-23T05:56:48.000Z</time>
      </trkpt>
      <trkpt lat="45.6982" lon="3.11872">
        <ele>451</ele>
        <time>2019-06-23T05:56:49.000Z</time>
      </trkpt>
      <trkpt lat="45.69819" lon="3.11875">
        <ele>451</ele>
        <time>2019-06-23T05:56:50.000Z</time>
      </trkpt>
      <trkpt lat="45.69819" lon="3.11878">
        <ele>451</ele>
        <time>2019-06-23T05:56:51.000Z</time>
      </trkpt>
      <trkpt lat="45.69819" lon="3.11881">
        <ele>451</ele>
        <time>2019-06-23T05:56:52.000Z</time>
      </trkpt>
      <trkpt lat="45.69819" lon="3.11884">
        <ele>451</ele>
        <time>2019-06-23T05:56:53.000Z</time>
      </trkpt>
      <trkpt lat="45.69819" lon="3.11887">
        <ele>451</ele>
        <time>2019-06-23T05:56:54.000Z</time>
      </trkpt>
      <trkpt lat="45.69819" lon="3.1189">
        <ele>451</ele>
        <time>2019-06-23T05:56:55.000Z</time>
      </trkpt>
      <trkpt lat="45.69818" lon="3.11893">
        <ele>450</ele>
        <time>2019-06-23T05:56:56.000Z</time>
      </trkpt>
      <trkpt lat="45.69814" lon="3.11896">
        <ele>450</ele>
        <time>2019-06-23T05:56:57.000Z</time>
      </trkpt>
      <trkpt lat="45.6981" lon="3.11899">
        <ele>449</ele>
        <time>2019-06-23T05:56:58.000Z</time>
      </trkpt>
      <trkpt lat="45.69808" lon="3.11901">
        <ele>449</ele>
        <time>2019-06-23T05:56:59.000Z</time>
      </trkpt>
      <trkpt lat="45.69805" lon="3.11903">
        <ele>449</ele>
        <time>2019-06-23T05:57:00.000Z</time>
      </trkpt>
      <trkpt lat="45.698" lon="3.11902">
        <ele>447</ele>
        <time>2019-06-23T05:57:01.000Z</time>
      </trkpt>
      <trkpt lat="45.69797" lon="3.11902">
        <ele>447</ele>
        <time>2019-06-23T05:57:02.000Z</time>
      </trkpt>
      <trkpt lat="45.69793" lon="3.11903">
        <ele>447</ele>
        <time>2019-06-23T05:57:03.000Z</time>
      </trkpt>
      <trkpt lat="45.69788" lon="3.11903">
        <ele>447</ele>
        <time>2019-06-23T05:57:04.000Z</time>
      </trkpt>
      <trkpt lat="45.69783" lon="3.11903">
        <ele>447</ele>
        <time>2019-06-23T05:57:05.000Z</time>
      </trkpt>
      <trkpt lat="45.69779" lon="3.11902">
        <ele>446</ele>
        <time>2019-06-23T05:57:06.000Z</time>
      </trkpt>
      <trkpt lat="45.69775" lon="3.11901">
        <ele>446</ele>
        <time>2019-06-23T05:57:07.000Z</time>
      </trkpt>
      <trkpt lat="45.6977" lon="3.119">
        <ele>446</ele>
        <time>2019-06-23T05:57:08.000Z</time>
      </trkpt>
      <trkpt lat="45.69765" lon="3.11898">
        <ele>446</ele>
        <time>2019-06-23T05:57:09.000Z</time>
      </trkpt>
      <trkpt lat="45.6976" lon="3.11898">
        <ele>445</ele>
        <time>2019-06-23T05:57:10.000Z</time>
      </trkpt>
      <trkpt lat="45.69754" lon="3.11898">
        <ele>445</ele>
        <time>2019-06-23T05:57:11.000Z</time>
      </trkpt>
      <trkpt lat="45.69749" lon="3.11898">
        <ele>445</ele>
        <time>2019-06-23T05:57:12.000Z</time>
      </trkpt>
      <trkpt lat="45.69743" lon="3.11899">
        <ele>445</ele>
        <time>2019-06-23T05:57:13.000Z</time>
      </trkpt>
      <trkpt lat="45.69738" lon="3.119">
        <ele>445</ele>
        <time>2019-06-23T05:57:14.000Z</time>
      </trkpt>
      <trkpt lat="45.69733" lon="3.11901">
        <ele>444</ele>
        <time>2019-06-23T05:57:15.000Z</time>
      </trkpt>
      <trkpt lat="45.69727" lon="3.11901">
        <ele>444</ele>
        <time>2019-06-23T05:57:16.000Z</time>
      </trkpt>
      <trkpt lat="45.69722" lon="3.119">
        <ele>444</ele>
        <time>2019-06-23T05:57:17.000Z</time>
      </trkpt>
      <trkpt lat="45.69716" lon="3.11899">
        <ele>444</ele>
        <time>2019-06-23T05:57:18.000Z</time>
      </trkpt>
      <trkpt lat="45.69711" lon="3.11897">
        <ele>444</ele>
        <time>2019-06-23T05:57:19.000Z</time>
      </trkpt>
      <trkpt lat="45.69705" lon="3.11897">
        <ele>444</ele>
        <time>2019-06-23T05:57:20.000Z</time>
      </trkpt>
      <trkpt lat="45.697" lon="3.11896">
        <ele>444</ele>
        <time>2019-06-23T05:57:21.000Z</time>
      </trkpt>
      <trkpt lat="45.69696" lon="3.11896">
        <ele>444</ele>
        <time>2019-06-23T05:57:22.000Z</time>
      </trkpt>
      <trkpt lat="45.69692" lon="3.11897">
        <ele>445</ele>
        <time>2019-06-23T05:57:23.000Z</time>
      </trkpt>
      <trkpt lat="45.69687" lon="3.11897">
        <ele>444</ele>
        <time>2019-06-23T05:57:24.000Z</time>
      </trkpt>
      <trkpt lat="45.69683" lon="3.11898">
        <ele>445</ele>
        <time>2019-06-23T05:57:25.000Z</time>
      </trkpt>
      <trkpt lat="45.69679" lon="3.11898">
        <ele>446</ele>
        <time>2019-06-23T05:57:26.000Z</time>
      </trkpt>
      <trkpt lat="45.69676" lon="3.11899">
        <ele>447</ele>
        <time>2019-06-23T05:57:27.000Z</time>
      </trkpt>
      <trkpt lat="45.69673" lon="3.11899">
        <ele>448</ele>
        <time>2019-06-23T05:57:28.000Z</time>
      </trkpt>
      <trkpt lat="45.6967" lon="3.119">
        <ele>449</ele>
        <time>2019-06-23T05:57:29.000Z</time>
      </trkpt>
      <trkpt lat="45.69667" lon="3.119">
        <ele>450</ele>
        <time>2019-06-23T05:57:30.000Z</time>
      </trkpt>
      <trkpt lat="45.69665" lon="3.11901">
        <ele>451</ele>
        <time>2019-06-23T05:57:31.000Z</time>
      </trkpt>
      <trkpt lat="45.69663" lon="3.11902">
        <ele>451</ele>
        <time>2019-06-23T05:57:32.000Z</time>
      </trkpt>
      <trkpt lat="45.69657" lon="3.11905">
        <ele>449</ele>
        <time>2019-06-23T05:57:33.000Z</time>
      </trkpt>
      <trkpt lat="45.6965" lon="3.11909">
        <ele>446</ele>
        <time>2019-06-23T05:57:34.000Z</time>
      </trkpt>
      <trkpt lat="45.69647" lon="3.11912">
        <ele>447</ele>
        <time>2019-06-23T05:57:35.000Z</time>
      </trkpt>
      <trkpt lat="45.69644" lon="3.11914">
        <ele>447</ele>
        <time>2019-06-23T05:57:36.000Z</time>
      </trkpt>
      <trkpt lat="45.69641" lon="3.11916">
        <ele>447</ele>
        <time>2019-06-23T05:57:37.000Z</time>
      </trkpt>
      <trkpt lat="45.69638" lon="3.11919">
        <ele>448</ele>
        <time>2019-06-23T05:57:38.000Z</time>
      </trkpt>
      <trkpt lat="45.69635" lon="3.11921">
        <ele>448</ele>
        <time>2019-06-23T05:57:39.000Z</time>
      </trkpt>
      <trkpt lat="45.69633" lon="3.11922">
        <ele>448</ele>
        <time>2019-06-23T05:57:40.000Z</time>
      </trkpt>
      <trkpt lat="45.69632" lon="3.11922">
        <ele>449</ele>
        <time>2019-06-23T05:57:41.000Z</time>
      </trkpt>
      <trkpt lat="45.69631" lon="3.11924">
        <ele>449</ele>
        <time>2019-06-23T05:57:42.000Z</time>
      </trkpt>
      <trkpt lat="45.6963" lon="3.11924">
        <ele>450</ele>
        <time>2019-06-23T05:57:43.000Z</time>
      </trkpt>
      <trkpt lat="45.69628" lon="3.11924">
        <ele>451</ele>
        <time>2019-06-23T05:57:44.000Z</time>
      </trkpt>
      <trkpt lat="45.69627" lon="3.11925">
        <ele>451</ele>
        <time>2019-06-23T05:57:45.000Z</time>
      </trkpt>
      <trkpt lat="45.69626" lon="3.11925">
        <ele>453</ele>
        <time>2019-06-23T05:57:46.000Z</time>
      </trkpt>
      <trkpt lat="45.69625" lon="3.11926">
        <ele>453</ele>
        <time>2019-06-23T05:57:47.000Z</time>
      </trkpt>
      <trkpt lat="45.69623" lon="3.11927">
        <ele>453</ele>
        <time>2019-06-23T05:57:48.000Z</time>
      </trkpt>
      <trkpt lat="45.69623" lon="3.11927">
        <ele>455</ele>
        <time>2019-06-23T05:57:49.000Z</time>
      </trkpt>
      <trkpt lat="45.69622" lon="3.11928">
        <ele>456</ele>
        <time>2019-06-23T05:57:50.000Z</time>
      </trkpt>
      <trkpt lat="45.69621" lon="3.11928">
        <ele>456</ele>
        <time>2019-06-23T05:57:51.000Z</time>
      </trkpt>
      <trkpt lat="45.69619" lon="3.11928">
        <ele>457</ele>
        <time>2019-06-23T05:57:52.000Z</time>
      </trkpt>
      <trkpt lat="45.69617" lon="3.11929">
        <ele>458</ele>
        <time>2019-06-23T05:57:53.000Z</time>
      </trkpt>
      <trkpt lat="45.69615" lon="3.11931">
        <ele>458</ele>
        <time>2019-06-23T05:57:54.000Z</time>
      </trkpt>
      <trkpt lat="45.69612" lon="3.11932">
        <ele>458</ele>
        <time>2019-06-23T05:57:55.000Z</time>
      </trkpt>
      <trkpt lat="45.6961" lon="3.11933">
        <ele>460</ele>
        <time>2019-06-23T05:57:56.000Z</time>
      </trkpt>
      <trkpt lat="45.69607" lon="3.11934">
        <ele>460</ele>
        <time>2019-06-23T05:57:57.000Z</time>
      </trkpt>
      <trkpt lat="45.69603" lon="3.11936">
        <ele>459</ele>
        <time>2019-06-23T05:57:58.000Z</time>
      </trkpt>
      <trkpt lat="45.696" lon="3.11937">
        <ele>459</ele>
        <time>2019-06-23T05:57:59.000Z</time>
      </trkpt>
      <trkpt lat="45.69595" lon="3.11939">
        <ele>457</ele>
        <time>2019-06-23T05:58:00.000Z</time>
      </trkpt>
      <trkpt lat="45.69591" lon="3.1194">
        <ele>455</ele>
        <time>2019-06-23T05:58:01.000Z</time>
      </trkpt>
      <trkpt lat="45.69588" lon="3.11941">
        <ele>455</ele>
        <time>2019-06-23T05:58:02.000Z</time>
      </trkpt>
      <trkpt lat="45.69585" lon="3.11942">
        <ele>455</ele>
        <time>2019-06-23T05:58:03.000Z</time>
      </trkpt>
      <trkpt lat="45.69583" lon="3.11943">
        <ele>455</ele>
        <time>2019-06-23T05:58:04.000Z</time>
      </trkpt>
      <trkpt lat="45.6958" lon="3.11943">
        <ele>454</ele>
        <time>2019-06-23T05:58:05.000Z</time>
      </trkpt>
      <trkpt lat="45.69578" lon="3.11943">
        <ele>455</ele>
        <time>2019-06-23T05:58:06.000Z</time>
      </trkpt>
      <trkpt lat="45.69576" lon="3.11944">
        <ele>456</ele>
        <time>2019-06-23T05:58:07.000Z</time>
      </trkpt>
      <trkpt lat="45.69575" lon="3.11944">
        <ele>456</ele>
        <time>2019-06-23T05:58:08.000Z</time>
      </trkpt>
      <trkpt lat="45.69572" lon="3.11945">
        <ele>456</ele>
        <time>2019-06-23T05:58:09.000Z</time>
      </trkpt>
      <trkpt lat="45.6957" lon="3.11945">
        <ele>457</ele>
        <time>2019-06-23T05:58:10.000Z</time>
      </trkpt>
      <trkpt lat="45.69567" lon="3.11945">
        <ele>456</ele>
        <time>2019-06-23T05:58:11.000Z</time>
      </trkpt>
      <trkpt lat="45.69565" lon="3.11946">
        <ele>456</ele>
        <time>2019-06-23T05:58:12.000Z</time>
      </trkpt>
      <trkpt lat="45.69563" lon="3.11946">
        <ele>456</ele>
        <time>2019-06-23T05:58:13.000Z</time>
      </trkpt>
      <trkpt lat="45.69561" lon="3.11946">
        <ele>456</ele>
        <time>2019-06-23T05:58:14.000Z</time>
      </trkpt>
      <trkpt lat="45.69559" lon="3.11947">
        <ele>456</ele>
        <time>2019-06-23T05:58:15.000Z</time>
      </trkpt>
      <trkpt lat="45.69555" lon="3.11947">
        <ele>456</ele>
        <time>2019-06-23T05:58:16.000Z</time>
      </trkpt>
      <trkpt lat="45.69553" lon="3.11947">
        <ele>456</ele>
        <time>2019-06-23T05:58:17.000Z</time>
      </trkpt>
      <trkpt lat="45.69551" lon="3.11948">
        <ele>456</ele>
        <time>2019-06-23T05:58:18.000Z</time>
      </trkpt>
      <trkpt lat="45.69549" lon="3.11948">
        <ele>456</ele>
        <time>2019-06-23T05:58:19.000Z</time>
      </trkpt>
      <trkpt lat="45.69547" lon="3.11948">
        <ele>457</ele>
        <time>2019-06-23T05:58:20.000Z</time>
      </trkpt>
      <trkpt lat="45.69545" lon="3.11948">
        <ele>457</ele>
        <time>2019-06-23T05:58:21.000Z</time>
      </trkpt>
      <trkpt lat="45.69543" lon="3.11949">
        <ele>458</ele>
        <time>2019-06-23T05:58:22.000Z</time>
      </trkpt>
      <trkpt lat="45.69541" lon="3.11949">
        <ele>459</ele>
        <time>2019-06-23T05:58:23.000Z</time>
      </trkpt>
      <trkpt lat="45.6954" lon="3.11949">
        <ele>459</ele>
        <time>2019-06-23T05:58:24.000Z</time>
      </trkpt>
      <trkpt lat="45.69538" lon="3.1195">
        <ele>460</ele>
        <time>2019-06-23T05:58:25.000Z</time>
      </trkpt>
      <trkpt lat="45.69536" lon="3.1195">
        <ele>461</ele>
        <time>2019-06-23T05:58:26.000Z</time>
      </trkpt>
      <trkpt lat="45.69535" lon="3.11949">
        <ele>461</ele>
        <time>2019-06-23T05:58:27.000Z</time>
      </trkpt>
      <trkpt lat="45.69533" lon="3.11949">
        <ele>462</ele>
        <time>2019-06-23T05:58:28.000Z</time>
      </trkpt>
      <trkpt lat="45.69532" lon="3.11949">
        <ele>463</ele>
        <time>2019-06-23T05:58:29.000Z</time>
      </trkpt>
      <trkpt lat="45.6953" lon="3.11949">
        <ele>463</ele>
        <time>2019-06-23T05:58:30.000Z</time>
      </trkpt>
      <trkpt lat="45.69528" lon="3.11949">
        <ele>464</ele>
        <time>2019-06-23T05:58:31.000Z</time>
      </trkpt>
      <trkpt lat="45.69526" lon="3.11949">
        <ele>463</ele>
        <time>2019-06-23T05:58:32.000Z</time>
      </trkpt>
      <trkpt lat="45.69525" lon="3.11949">
        <ele>464</ele>
        <time>2019-06-23T05:58:33.000Z</time>
      </trkpt>
      <trkpt lat="45.69523" lon="3.11949">
        <ele>464</ele>
        <time>2019-06-23T05:58:34.000Z</time>
      </trkpt>
      <trkpt lat="45.69521" lon="3.11949">
        <ele>464</ele>
        <time>2019-06-23T05:58:35.000Z</time>
      </trkpt>
      <trkpt lat="45.69519" lon="3.11949">
        <ele>464</ele>
        <time>2019-06-23T05:58:36.000Z</time>
      </trkpt>
      <trkpt lat="45.69516" lon="3.1195">
        <ele>464</ele>
        <time>2019-06-23T05:58:37.000Z</time>
      </trkpt>
      <trkpt lat="45.69515" lon="3.1195">
        <ele>464</ele>
        <time>2019-06-23T05:58:38.000Z</time>
      </trkpt>
      <trkpt lat="45.69513" lon="3.11951">
        <ele>465</ele>
        <time>2019-06-23T05:58:39.000Z</time>
      </trkpt>
      <trkpt lat="45.69511" lon="3.11951">
        <ele>465</ele>
        <time>2019-06-23T05:58:40.000Z</time>
      </trkpt>
      <trkpt lat="45.6951" lon="3.11951">
        <ele>465</ele>
        <time>2019-06-23T05:58:41.000Z</time>
      </trkpt>
      <trkpt lat="45.69508" lon="3.11952">
        <ele>465</ele>
        <time>2019-06-23T05:58:42.000Z</time>
      </trkpt>
      <trkpt lat="45.69506" lon="3.11952">
        <ele>466</ele>
        <time>2019-06-23T05:58:43.000Z</time>
      </trkpt>
      <trkpt lat="45.69505" lon="3.11953">
        <ele>466</ele>
        <time>2019-06-23T05:58:44.000Z</time>
      </trkpt>
      <trkpt lat="45.69503" lon="3.11953">
        <ele>466</ele>
        <time>2019-06-23T05:58:45.000Z</time>
      </trkpt>
      <trkpt lat="45.69501" lon="3.11954">
        <ele>466</ele>
        <time>2019-06-23T05:58:46.000Z</time>
      </trkpt>
      <trkpt lat="45.69498" lon="3.11955">
        <ele>466</ele>
        <time>2019-06-23T05:58:47.000Z</time>
      </trkpt>
      <trkpt lat="45.69497" lon="3.11956">
        <ele>466</ele>
        <time>2019-06-23T05:58:48.000Z</time>
      </trkpt>
      <trkpt lat="45.69495" lon="3.11957">
        <ele>466</ele>
        <time>2019-06-23T05:58:49.000Z</time>
      </trkpt>
      <trkpt lat="45.69493" lon="3.11957">
        <ele>466</ele>
        <time>2019-06-23T05:58:50.000Z</time>
      </trkpt>
      <trkpt lat="45.69491" lon="3.11958">
        <ele>467</ele>
        <time>2019-06-23T05:58:51.000Z</time>
      </trkpt>
      <trkpt lat="45.69489" lon="3.11959">
        <ele>466</ele>
        <time>2019-06-23T05:58:52.000Z</time>
      </trkpt>
      <trkpt lat="45.69486" lon="3.11959">
        <ele>466</ele>
        <time>2019-06-23T05:58:53.000Z</time>
      </trkpt>
      <trkpt lat="45.69485" lon="3.1196">
        <ele>466</ele>
        <time>2019-06-23T05:58:54.000Z</time>
      </trkpt>
      <trkpt lat="45.69482" lon="3.11961">
        <ele>466</ele>
        <time>2019-06-23T05:58:55.000Z</time>
      </trkpt>
      <trkpt lat="45.69481" lon="3.11961">
        <ele>466</ele>
        <time>2019-06-23T05:58:56.000Z</time>
      </trkpt>
      <trkpt lat="45.69479" lon="3.11962">
        <ele>466</ele>
        <time>2019-06-23T05:58:57.000Z</time>
      </trkpt>
      <trkpt lat="45.69477" lon="3.11962">
        <ele>466</ele>
        <time>2019-06-23T05:58:58.000Z</time>
      </trkpt>
      <trkpt lat="45.69475" lon="3.11962">
        <ele>467</ele>
        <time>2019-06-23T05:58:59.000Z</time>
      </trkpt>
      <trkpt lat="45.69474" lon="3.11963">
        <ele>467</ele>
        <time>2019-06-23T05:59:00.000Z</time>
      </trkpt>
      <trkpt lat="45.69472" lon="3.11963">
        <ele>467</ele>
        <time>2019-06-23T05:59:01.000Z</time>
      </trkpt>
      <trkpt lat="45.6947" lon="3.11964">
        <ele>468</ele>
        <time>2019-06-23T05:59:02.000Z</time>
      </trkpt>
      <trkpt lat="45.69468" lon="3.11964">
        <ele>468</ele>
        <time>2019-06-23T05:59:03.000Z</time>
      </trkpt>
      <trkpt lat="45.69466" lon="3.11965">
        <ele>468</ele>
        <time>2019-06-23T05:59:04.000Z</time>
      </trkpt>
      <trkpt lat="45.69465" lon="3.11965">
        <ele>469</ele>
        <time>2019-06-23T05:59:05.000Z</time>
      </trkpt>
      <trkpt lat="45.69463" lon="3.11966">
        <ele>469</ele>
        <time>2019-06-23T05:59:06.000Z</time>
      </trkpt>
      <trkpt lat="45.69461" lon="3.11966">
        <ele>469</ele>
        <time>2019-06-23T05:59:07.000Z</time>
      </trkpt>
      <trkpt lat="45.6946" lon="3.11966">
        <ele>470</ele>
        <time>2019-06-23T05:59:08.000Z</time>
      </trkpt>
      <trkpt lat="45.69458" lon="3.11967">
        <ele>470</ele>
        <time>2019-06-23T05:59:09.000Z</time>
      </trkpt>
      <trkpt lat="45.69456" lon="3.11968">
        <ele>470</ele>
        <time>2019-06-23T05:59:10.000Z</time>
      </trkpt>
      <trkpt lat="45.69454" lon="3.11968">
        <ele>470</ele>
        <time>2019-06-23T05:59:11.000Z</time>
      </trkpt>
      <trkpt lat="45.69452" lon="3.11969">
        <ele>471</ele>
        <time>2019-06-23T05:59:12.000Z</time>
      </trkpt>
      <trkpt lat="45.6945" lon="3.11969">
        <ele>471</ele>
        <time>2019-06-23T05:59:13.000Z</time>
      </trkpt>
      <trkpt lat="45.69448" lon="3.1197">
        <ele>472</ele>
        <time>2019-06-23T05:59:14.000Z</time>
      </trkpt>
      <trkpt lat="45.69447" lon="3.11971">
        <ele>472</ele>
        <time>2019-06-23T05:59:15.000Z</time>
      </trkpt>
      <trkpt lat="45.69445" lon="3.11971">
        <ele>473</ele>
        <time>2019-06-23T05:59:16.000Z</time>
      </trkpt>
      <trkpt lat="45.69443" lon="3.11972">
        <ele>473</ele>
        <time>2019-06-23T05:59:17.000Z</time>
      </trkpt>
      <trkpt lat="45.69441" lon="3.11972">
        <ele>473</ele>
        <time>2019-06-23T05:59:18.000Z</time>
      </trkpt>
      <trkpt lat="45.69439" lon="3.11972">
        <ele>473</ele>
        <time>2019-06-23T05:59:19.000Z</time>
      </trkpt>
      <trkpt lat="45.69438" lon="3.11972">
        <ele>473</ele>
        <time>2019-06-23T05:59:20.000Z</time>
      </trkpt>
      <trkpt lat="45.69436" lon="3.11973">
        <ele>473</ele>
        <time>2019-06-23T05:59:21.000Z</time>
      </trkpt>
      <trkpt lat="45.69434" lon="3.11973">
        <ele>473</ele>
        <time>2019-06-23T05:59:22.000Z</time>
      </trkpt>
      <trkpt lat="45.69432" lon="3.11973">
        <ele>474</ele>
        <time>2019-06-23T05:59:23.000Z</time>
      </trkpt>
      <trkpt lat="45.69431" lon="3.11974">
        <ele>474</ele>
        <time>2019-06-23T05:59:24.000Z</time>
      </trkpt>
      <trkpt lat="45.69429" lon="3.11974">
        <ele>474</ele>
        <time>2019-06-23T05:59:25.000Z</time>
      </trkpt>
      <trkpt lat="45.69427" lon="3.11974">
        <ele>474</ele>
        <time>2019-06-23T05:59:26.000Z</time>
      </trkpt>
      <trkpt lat="45.69426" lon="3.11975">
        <ele>475</ele>
        <time>2019-06-23T05:59:27.000Z</time>
      </trkpt>
      <trkpt lat="45.69424" lon="3.11975">
        <ele>475</ele>
        <time>2019-06-23T05:59:28.000Z</time>
      </trkpt>
      <trkpt lat="45.69422" lon="3.11976">
        <ele>475</ele>
        <time>2019-06-23T05:59:29.000Z</time>
      </trkpt>
      <trkpt lat="45.6942" lon="3.11976">
        <ele>475</ele>
        <time>2019-06-23T05:59:30.000Z</time>
      </trkpt>
      <trkpt lat="45.69419" lon="3.11976">
        <ele>476</ele>
        <time>2019-06-23T05:59:31.000Z</time>
      </trkpt>
      <trkpt lat="45.69418" lon="3.11977">
        <ele>476</ele>
        <time>2019-06-23T05:59:32.000Z</time>
      </trkpt>
      <trkpt lat="45.69415" lon="3.11977">
        <ele>476</ele>
        <time>2019-06-23T05:59:33.000Z</time>
      </trkpt>
      <trkpt lat="45.69413" lon="3.11978">
        <ele>476</ele>
        <time>2019-06-23T05:59:34.000Z</time>
      </trkpt>
      <trkpt lat="45.69412" lon="3.11978">
        <ele>476</ele>
        <time>2019-06-23T05:59:35.000Z</time>
      </trkpt>
      <trkpt lat="45.6941" lon="3.11979">
        <ele>477</ele>
        <time>2019-06-23T05:59:36.000Z</time>
      </trkpt>
      <trkpt lat="45.69408" lon="3.1198">
        <ele>477</ele>
        <time>2019-06-23T05:59:37.000Z</time>
      </trkpt>
      <trkpt lat="45.69407" lon="3.1198">
        <ele>477</ele>
        <time>2019-06-23T05:59:38.000Z</time>
      </trkpt>
      <trkpt lat="45.69405" lon="3.1198">
        <ele>477</ele>
        <time>2019-06-23T05:59:39.000Z</time>
      </trkpt>
      <trkpt lat="45.69404" lon="3.1198">
        <ele>477</ele>
        <time>2019-06-23T05:59:40.000Z</time>
      </trkpt>
      <trkpt lat="45.69402" lon="3.1198">
        <ele>478</ele>
        <time>2019-06-23T05:59:41.000Z</time>
      </trkpt>
      <trkpt lat="45.69401" lon="3.11981">
        <ele>478</ele>
        <time>2019-06-23T05:59:42.000Z</time>
      </trkpt>
      <trkpt lat="45.694" lon="3.11981">
        <ele>478</ele>
        <time>2019-06-23T05:59:43.000Z</time>
      </trkpt>
      <trkpt lat="45.69399" lon="3.11981">
        <ele>478</ele>
        <time>2019-06-23T05:59:44.000Z</time>
      </trkpt>
      <trkpt lat="45.69397" lon="3.11981">
        <ele>479</ele>
        <time>2019-06-23T05:59:45.000Z</time>
      </trkpt>
      <trkpt lat="45.69395" lon="3.11981">
        <ele>479</ele>
        <time>2019-06-23T05:59:46.000Z</time>
      </trkpt>
      <trkpt lat="45.69394" lon="3.11982">
        <ele>479</ele>
        <time>2019-06-23T05:59:47.000Z</time>
      </trkpt>
      <trkpt lat="45.69393" lon="3.11982">
        <ele>480</ele>
        <time>2019-06-23T05:59:48.000Z</time>
      </trkpt>
      <trkpt lat="45.69391" lon="3.11982">
        <ele>480</ele>
        <time>2019-06-23T05:59:49.000Z</time>
      </trkpt>
      <trkpt lat="45.69389" lon="3.11982">
        <ele>481</ele>
        <time>2019-06-23T05:59:50.000Z</time>
      </trkpt>
      <trkpt lat="45.69388" lon="3.11982">
        <ele>481</ele>
        <time>2019-06-23T05:59:51.000Z</time>
      </trkpt>
      <trkpt lat="45.69386" lon="3.11982">
        <ele>481</ele>
        <time>2019-06-23T05:59:52.000Z</time>
      </trkpt>
      <trkpt lat="45.69384" lon="3.11982">
        <ele>481</ele>
        <time>2019-06-23T05:59:53.000Z</time>
      </trkpt>
      <trkpt lat="45.69382" lon="3.11982">
        <ele>481</ele>
        <time>2019-06-23T05:59:54.000Z</time>
      </trkpt>
      <trkpt lat="45.6938" lon="3.11982">
        <ele>481</ele>
        <time>2019-06-23T05:59:55.000Z</time>
      </trkpt>
      <trkpt lat="45.69378" lon="3.11983">
        <ele>481</ele>
        <time>2019-06-23T05:59:56.000Z</time>
      </trkpt>
      <trkpt lat="45.69376" lon="3.11983">
        <ele>482</ele>
        <time>2019-06-23T05:59:57.000Z</time>
      </trkpt>
      <trkpt lat="45.69375" lon="3.11983">
        <ele>482</ele>
        <time>2019-06-23T05:59:58.000Z</time>
      </trkpt>
      <trkpt lat="45.69373" lon="3.11983">
        <ele>482</ele>
        <time>2019-06-23T05:59:59.000Z</time>
      </trkpt>
      <trkpt lat="45.69371" lon="3.11983">
        <ele>482</ele>
        <time>2019-06-23T06:00:00.000Z</time>
      </trkpt>
      <trkpt lat="45.69369" lon="3.11984">
        <ele>482</ele>
        <time>2019-06-23T06:00:01.000Z</time>
      </trkpt>
      <trkpt lat="45.69367" lon="3.11984">
        <ele>482</ele>
        <time>2019-06-23T06:00:02.000Z</time>
      </trkpt>
      <trkpt lat="45.69366" lon="3.11984">
        <ele>482</ele>
        <time>2019-06-23T06:00:03.000Z</time>
      </trkpt>
      <trkpt lat="45.69364" lon="3.11984">
        <ele>483</ele>
        <time>2019-06-23T06:00:04.000Z</time>
      </trkpt>
      <trkpt lat="45.69362" lon="3.11984">
        <ele>483</ele>
        <time>2019-06-23T06:00:05.000Z</time>
      </trkpt>
      <trkpt lat="45.69361" lon="3.11984">
        <ele>483</ele>
        <time>2019-06-23T06:00:06.000Z</time>
      </trkpt>
      <trkpt lat="45.69359" lon="3.11984">
        <ele>483</ele>
        <time>2019-06-23T06:00:07.000Z</time>
      </trkpt>
      <trkpt lat="45.69357" lon="3.11984">
        <ele>484</ele>
        <time>2019-06-23T06:00:08.000Z</time>
      </trkpt>
      <trkpt lat="45.69355" lon="3.11984">
        <ele>484</ele>
        <time>2019-06-23T06:00:09.000Z</time>
      </trkpt>
      <trkpt lat="45.69354" lon="3.11985">
        <ele>484</ele>
        <time>2019-06-23T06:00:10.000Z</time>
      </trkpt>
      <trkpt lat="45.69352" lon="3.11985">
        <ele>484</ele>
        <time>2019-06-23T06:00:11.000Z</time>
      </trkpt>
      <trkpt lat="45.6935" lon="3.11986">
        <ele>485</ele>
        <time>2019-06-23T06:00:12.000Z</time>
      </trkpt>
      <trkpt lat="45.69349" lon="3.11986">
        <ele>485</ele>
        <time>2019-06-23T06:00:13.000Z</time>
      </trkpt>
      <trkpt lat="45.69347" lon="3.11987">
        <ele>486</ele>
        <time>2019-06-23T06:00:14.000Z</time>
      </trkpt>
      <trkpt lat="45.69345" lon="3.11987">
        <ele>486</ele>
        <time>2019-06-23T06:00:15.000Z</time>
      </trkpt>
      <trkpt lat="45.69344" lon="3.11988">
        <ele>486</ele>
        <time>2019-06-23T06:00:16.000Z</time>
      </trkpt>
      <trkpt lat="45.69342" lon="3.11989">
        <ele>486</ele>
        <time>2019-06-23T06:00:17.000Z</time>
      </trkpt>
      <trkpt lat="45.69341" lon="3.1199">
        <ele>486</ele>
        <time>2019-06-23T06:00:18.000Z</time>
      </trkpt>
      <trkpt lat="45.69339" lon="3.11991">
        <ele>486</ele>
        <time>2019-06-23T06:00:19.000Z</time>
      </trkpt>
      <trkpt lat="45.69337" lon="3.11992">
        <ele>487</ele>
        <time>2019-06-23T06:00:20.000Z</time>
      </trkpt>
      <trkpt lat="45.69336" lon="3.11993">
        <ele>487</ele>
        <time>2019-06-23T06:00:21.000Z</time>
      </trkpt>
      <trkpt lat="45.69334" lon="3.11994">
        <ele>487</ele>
        <time>2019-06-23T06:00:22.000Z</time>
      </trkpt>
      <trkpt lat="45.69333" lon="3.11994">
        <ele>487</ele>
        <time>2019-06-23T06:00:23.000Z</time>
      </trkpt>
      <trkpt lat="45.69331" lon="3.11995">
        <ele>487</ele>
        <time>2019-06-23T06:00:24.000Z</time>
      </trkpt>
      <trkpt lat="45.69329" lon="3.11995">
        <ele>487</ele>
        <time>2019-06-23T06:00:25.000Z</time>
      </trkpt>
      <trkpt lat="45.69328" lon="3.11996">
        <ele>487</ele>
        <time>2019-06-23T06:00:26.000Z</time>
      </trkpt>
      <trkpt lat="45.69326" lon="3.11996">
        <ele>487</ele>
        <time>2019-06-23T06:00:27.000Z</time>
      </trkpt>
      <trkpt lat="45.69324" lon="3.11997">
        <ele>488</ele>
        <time>2019-06-23T06:00:28.000Z</time>
      </trkpt>
      <trkpt lat="45.69323" lon="3.11996">
        <ele>488</ele>
        <time>2019-06-23T06:00:29.000Z</time>
      </trkpt>
      <trkpt lat="45.69321" lon="3.11996">
        <ele>488</ele>
        <time>2019-06-23T06:00:30.000Z</time>
      </trkpt>
      <trkpt lat="45.69319" lon="3.11997">
        <ele>488</ele>
        <time>2019-06-23T06:00:31.000Z</time>
      </trkpt>
      <trkpt lat="45.69318" lon="3.11998">
        <ele>488</ele>
        <time>2019-06-23T06:00:32.000Z</time>
      </trkpt>
      <trkpt lat="45.69316" lon="3.11998">
        <ele>489</ele>
        <time>2019-06-23T06:00:33.000Z</time>
      </trkpt>
      <trkpt lat="45.69314" lon="3.11998">
        <ele>489</ele>
        <time>2019-06-23T06:00:34.000Z</time>
      </trkpt>
      <trkpt lat="45.69313" lon="3.11999">
        <ele>489</ele>
        <time>2019-06-23T06:00:35.000Z</time>
      </trkpt>
      <trkpt lat="45.69311" lon="3.11999">
        <ele>489</ele>
        <time>2019-06-23T06:00:36.000Z</time>
      </trkpt>
      <trkpt lat="45.6931" lon="3.11999">
        <ele>490</ele>
        <time>2019-06-23T06:00:37.000Z</time>
      </trkpt>
      <trkpt lat="45.69308" lon="3.12">
        <ele>490</ele>
        <time>2019-06-23T06:00:38.000Z</time>
      </trkpt>
      <trkpt lat="45.69306" lon="3.12001">
        <ele>490</ele>
        <time>2019-06-23T06:00:39.000Z</time>
      </trkpt>
      <trkpt lat="45.69305" lon="3.12001">
        <ele>490</ele>
        <time>2019-06-23T06:00:40.000Z</time>
      </trkpt>
      <trkpt lat="45.69303" lon="3.12002">
        <ele>490</ele>
        <time>2019-06-23T06:00:41.000Z</time>
      </trkpt>
      <trkpt lat="45.69301" lon="3.12002">
        <ele>491</ele>
        <time>2019-06-23T06:00:42.000Z</time>
      </trkpt>
      <trkpt lat="45.693" lon="3.12003">
        <ele>491</ele>
        <time>2019-06-23T06:00:43.000Z</time>
      </trkpt>
      <trkpt lat="45.69298" lon="3.12003">
        <ele>491</ele>
        <time>2019-06-23T06:00:44.000Z</time>
      </trkpt>
      <trkpt lat="45.69297" lon="3.12003">
        <ele>491</ele>
        <time>2019-06-23T06:00:45.000Z</time>
      </trkpt>
      <trkpt lat="45.69295" lon="3.12003">
        <ele>491</ele>
        <time>2019-06-23T06:00:46.000Z</time>
      </trkpt>
      <trkpt lat="45.69293" lon="3.12002">
        <ele>492</ele>
        <time>2019-06-23T06:00:47.000Z</time>
      </trkpt>
      <trkpt lat="45.69291" lon="3.12002">
        <ele>492</ele>
        <time>2019-06-23T06:00:48.000Z</time>
      </trkpt>
      <trkpt lat="45.6929" lon="3.12002">
        <ele>492</ele>
        <time>2019-06-23T06:00:49.000Z</time>
      </trkpt>
      <trkpt lat="45.69288" lon="3.12002">
        <ele>493</ele>
        <time>2019-06-23T06:00:50.000Z</time>
      </trkpt>
      <trkpt lat="45.69287" lon="3.12002">
        <ele>493</ele>
        <time>2019-06-23T06:00:51.000Z</time>
      </trkpt>
      <trkpt lat="45.69285" lon="3.12001">
        <ele>493</ele>
        <time>2019-06-23T06:00:52.000Z</time>
      </trkpt>
      <trkpt lat="45.69284" lon="3.12001">
        <ele>493</ele>
        <time>2019-06-23T06:00:53.000Z</time>
      </trkpt>
      <trkpt lat="45.69282" lon="3.12">
        <ele>494</ele>
        <time>2019-06-23T06:00:54.000Z</time>
      </trkpt>
      <trkpt lat="45.69281" lon="3.11999">
        <ele>494</ele>
        <time>2019-06-23T06:00:55.000Z</time>
      </trkpt>
      <trkpt lat="45.69279" lon="3.11998">
        <ele>494</ele>
        <time>2019-06-23T06:00:56.000Z</time>
      </trkpt>
      <trkpt lat="45.69278" lon="3.11998">
        <ele>494</ele>
        <time>2019-06-23T06:00:57.000Z</time>
      </trkpt>
      <trkpt lat="45.69276" lon="3.11997">
        <ele>495</ele>
        <time>2019-06-23T06:00:58.000Z</time>
      </trkpt>
      <trkpt lat="45.69275" lon="3.11997">
        <ele>495</ele>
        <time>2019-06-23T06:00:59.000Z</time>
      </trkpt>
      <trkpt lat="45.69273" lon="3.11996">
        <ele>495</ele>
        <time>2019-06-23T06:01:00.000Z</time>
      </trkpt>
      <trkpt lat="45.69271" lon="3.11997">
        <ele>495</ele>
        <time>2019-06-23T06:01:01.000Z</time>
      </trkpt>
      <trkpt lat="45.69269" lon="3.11997">
        <ele>495</ele>
        <time>2019-06-23T06:01:02.000Z</time>
      </trkpt>
      <trkpt lat="45.69268" lon="3.11997">
        <ele>495</ele>
        <time>2019-06-23T06:01:03.000Z</time>
      </trkpt>
      <trkpt lat="45.69266" lon="3.11997">
        <ele>495</ele>
        <time>2019-06-23T06:01:04.000Z</time>
      </trkpt>
      <trkpt lat="45.69265" lon="3.11998">
        <ele>496</ele>
        <time>2019-06-23T06:01:05.000Z</time>
      </trkpt>
      <trkpt lat="45.69263" lon="3.11998">
        <ele>496</ele>
        <time>2019-06-23T06:01:06.000Z</time>
      </trkpt>
      <trkpt lat="45.69262" lon="3.11999">
        <ele>496</ele>
        <time>2019-06-23T06:01:07.000Z</time>
      </trkpt>
      <trkpt lat="45.6926" lon="3.11999">
        <ele>497</ele>
        <time>2019-06-23T06:01:08.000Z</time>
      </trkpt>
      <trkpt lat="45.69258" lon="3.12">
        <ele>497</ele>
        <time>2019-06-23T06:01:09.000Z</time>
      </trkpt>
      <trkpt lat="45.69257" lon="3.12001">
        <ele>497</ele>
        <time>2019-06-23T06:01:10.000Z</time>
      </trkpt>
      <trkpt lat="45.69255" lon="3.12003">
        <ele>497</ele>
        <time>2019-06-23T06:01:11.000Z</time>
      </trkpt>
      <trkpt lat="45.69254" lon="3.12004">
        <ele>497</ele>
        <time>2019-06-23T06:01:12.000Z</time>
      </trkpt>
      <trkpt lat="45.69252" lon="3.12005">
        <ele>497</ele>
        <time>2019-06-23T06:01:13.000Z</time>
      </trkpt>
      <trkpt lat="45.69251" lon="3.12006">
        <ele>497</ele>
        <time>2019-06-23T06:01:14.000Z</time>
      </trkpt>
      <trkpt lat="45.6925" lon="3.12007">
        <ele>498</ele>
        <time>2019-06-23T06:01:15.000Z</time>
      </trkpt>
      <trkpt lat="45.69248" lon="3.12009">
        <ele>498</ele>
        <time>2019-06-23T06:01:16.000Z</time>
      </trkpt>
      <trkpt lat="45.69247" lon="3.1201">
        <ele>498</ele>
        <time>2019-06-23T06:01:17.000Z</time>
      </trkpt>
      <trkpt lat="45.69245" lon="3.12011">
        <ele>498</ele>
        <time>2019-06-23T06:01:18.000Z</time>
      </trkpt>
      <trkpt lat="45.69244" lon="3.12013">
        <ele>499</ele>
        <time>2019-06-23T06:01:19.000Z</time>
      </trkpt>
      <trkpt lat="45.69242" lon="3.12014">
        <ele>499</ele>
        <time>2019-06-23T06:01:20.000Z</time>
      </trkpt>
      <trkpt lat="45.69241" lon="3.12015">
        <ele>499</ele>
        <time>2019-06-23T06:01:21.000Z</time>
      </trkpt>
      <trkpt lat="45.6924" lon="3.12017">
        <ele>500</ele>
        <time>2019-06-23T06:01:22.000Z</time>
      </trkpt>
      <trkpt lat="45.69239" lon="3.12018">
        <ele>500</ele>
        <time>2019-06-23T06:01:23.000Z</time>
      </trkpt>
      <trkpt lat="45.69238" lon="3.1202">
        <ele>500</ele>
        <time>2019-06-23T06:01:24.000Z</time>
      </trkpt>
      <trkpt lat="45.69237" lon="3.12022">
        <ele>501</ele>
        <time>2019-06-23T06:01:25.000Z</time>
      </trkpt>
      <trkpt lat="45.69235" lon="3.12023">
        <ele>501</ele>
        <time>2019-06-23T06:01:26.000Z</time>
      </trkpt>
      <trkpt lat="45.69234" lon="3.12024">
        <ele>501</ele>
        <time>2019-06-23T06:01:27.000Z</time>
      </trkpt>
      <trkpt lat="45.69232" lon="3.12025">
        <ele>502</ele>
        <time>2019-06-23T06:01:28.000Z</time>
      </trkpt>
      <trkpt lat="45.69231" lon="3.12026">
        <ele>502</ele>
        <time>2019-06-23T06:01:29.000Z</time>
      </trkpt>
      <trkpt lat="45.69229" lon="3.12028">
        <ele>502</ele>
        <time>2019-06-23T06:01:30.000Z</time>
      </trkpt>
      <trkpt lat="45.69228" lon="3.12029">
        <ele>502</ele>
        <time>2019-06-23T06:01:31.000Z</time>
      </trkpt>
      <trkpt lat="45.69226" lon="3.1203">
        <ele>502</ele>
        <time>2019-06-23T06:01:32.000Z</time>
      </trkpt>
      <trkpt lat="45.69225" lon="3.12031">
        <ele>503</ele>
        <time>2019-06-23T06:01:33.000Z</time>
      </trkpt>
      <trkpt lat="45.69223" lon="3.12033">
        <ele>503</ele>
        <time>2019-06-23T06:01:34.000Z</time>
      </trkpt>
      <trkpt lat="45.69221" lon="3.12034">
        <ele>503</ele>
        <time>2019-06-23T06:01:35.000Z</time>
      </trkpt>
      <trkpt lat="45.6922" lon="3.12035">
        <ele>503</ele>
        <time>2019-06-23T06:01:36.000Z</time>
      </trkpt>
      <trkpt lat="45.69218" lon="3.12036">
        <ele>503</ele>
        <time>2019-06-23T06:01:37.000Z</time>
      </trkpt>
      <trkpt lat="45.69216" lon="3.12037">
        <ele>504</ele>
        <time>2019-06-23T06:01:38.000Z</time>
      </trkpt>
      <trkpt lat="45.69215" lon="3.12037">
        <ele>504</ele>
        <time>2019-06-23T06:01:39.000Z</time>
      </trkpt>
      <trkpt lat="45.69213" lon="3.12038">
        <ele>504</ele>
        <time>2019-06-23T06:01:40.000Z</time>
      </trkpt>
      <trkpt lat="45.69211" lon="3.12039">
        <ele>504</ele>
        <time>2019-06-23T06:01:41.000Z</time>
      </trkpt>
      <trkpt lat="45.69209" lon="3.12039">
        <ele>504</ele>
        <time>2019-06-23T06:01:42.000Z</time>
      </trkpt>
      <trkpt lat="45.69208" lon="3.12039">
        <ele>505</ele>
        <time>2019-06-23T06:01:43.000Z</time>
      </trkpt>
      <trkpt lat="45.69206" lon="3.12039">
        <ele>505</ele>
        <time>2019-06-23T06:01:44.000Z</time>
      </trkpt>
      <trkpt lat="45.69204" lon="3.12038">
        <ele>505</ele>
        <time>2019-06-23T06:01:45.000Z</time>
      </trkpt>
      <trkpt lat="45.69203" lon="3.12038">
        <ele>505</ele>
        <time>2019-06-23T06:01:46.000Z</time>
      </trkpt>
      <trkpt lat="45.69201" lon="3.12039">
        <ele>505</ele>
        <time>2019-06-23T06:01:47.000Z</time>
      </trkpt>
      <trkpt lat="45.69199" lon="3.12039">
        <ele>505</ele>
        <time>2019-06-23T06:01:48.000Z</time>
      </trkpt>
      <trkpt lat="45.69197" lon="3.1204">
        <ele>505</ele>
        <time>2019-06-23T06:01:49.000Z</time>
      </trkpt>
      <trkpt lat="45.69195" lon="3.1204">
        <ele>506</ele>
        <time>2019-06-23T06:01:50.000Z</time>
      </trkpt>
      <trkpt lat="45.69193" lon="3.12041">
        <ele>506</ele>
        <time>2019-06-23T06:01:51.000Z</time>
      </trkpt>
      <trkpt lat="45.69192" lon="3.12042">
        <ele>506</ele>
        <time>2019-06-23T06:01:52.000Z</time>
      </trkpt>
      <trkpt lat="45.6919" lon="3.12042">
        <ele>506</ele>
        <time>2019-06-23T06:01:53.000Z</time>
      </trkpt>
      <trkpt lat="45.69188" lon="3.12043">
        <ele>507</ele>
        <time>2019-06-23T06:01:54.000Z</time>
      </trkpt>
      <trkpt lat="45.69186" lon="3.12044">
        <ele>507</ele>
        <time>2019-06-23T06:01:55.000Z</time>
      </trkpt>
      <trkpt lat="45.69185" lon="3.12044">
        <ele>507</ele>
        <time>2019-06-23T06:01:56.000Z</time>
      </trkpt>
      <trkpt lat="45.69183" lon="3.12045">
        <ele>507</ele>
        <time>2019-06-23T06:01:57.000Z</time>
      </trkpt>
      <trkpt lat="45.69181" lon="3.12046">
        <ele>507</ele>
        <time>2019-06-23T06:01:58.000Z</time>
      </trkpt>
      <trkpt lat="45.69179" lon="3.12047">
        <ele>508</ele>
        <time>2019-06-23T06:01:59.000Z</time>
      </trkpt>
      <trkpt lat="45.69177" lon="3.12048">
        <ele>508</ele>
        <time>2019-06-23T06:02:00.000Z</time>
      </trkpt>
      <trkpt lat="45.69176" lon="3.12049">
        <ele>508</ele>
        <time>2019-06-23T06:02:01.000Z</time>
      </trkpt>
      <trkpt lat="45.69174" lon="3.1205">
        <ele>508</ele>
        <time>2019-06-23T06:02:02.000Z</time>
      </trkpt>
      <trkpt lat="45.69172" lon="3.12051">
        <ele>509</ele>
        <time>2019-06-23T06:02:03.000Z</time>
      </trkpt>
      <trkpt lat="45.6917" lon="3.12051">
        <ele>509</ele>
        <time>2019-06-23T06:02:04.000Z</time>
      </trkpt>
      <trkpt lat="45.69168" lon="3.12052">
        <ele>509</ele>
        <time>2019-06-23T06:02:05.000Z</time>
      </trkpt>
      <trkpt lat="45.69167" lon="3.12053">
        <ele>509</ele>
        <time>2019-06-23T06:02:06.000Z</time>
      </trkpt>
      <trkpt lat="45.69165" lon="3.12054">
        <ele>509</ele>
        <time>2019-06-23T06:02:07.000Z</time>
      </trkpt>
      <trkpt lat="45.69163" lon="3.12055">
        <ele>510</ele>
        <time>2019-06-23T06:02:08.000Z</time>
      </trkpt>
      <trkpt lat="45.69161" lon="3.12056">
        <ele>510</ele>
        <time>2019-06-23T06:02:09.000Z</time>
      </trkpt>
      <trkpt lat="45.6916" lon="3.12057">
        <ele>510</ele>
        <time>2019-06-23T06:02:10.000Z</time>
      </trkpt>
      <trkpt lat="45.69158" lon="3.12058">
        <ele>510</ele>
        <time>2019-06-23T06:02:11.000Z</time>
      </trkpt>
      <trkpt lat="45.69156" lon="3.12058">
        <ele>511</ele>
        <time>2019-06-23T06:02:12.000Z</time>
      </trkpt>
      <trkpt lat="45.69155" lon="3.12059">
        <ele>511</ele>
        <time>2019-06-23T06:02:13.000Z</time>
      </trkpt>
      <trkpt lat="45.69154" lon="3.12059">
        <ele>512</ele>
        <time>2019-06-23T06:02:14.000Z</time>
      </trkpt>
      <trkpt lat="45.69153" lon="3.1206">
        <ele>512</ele>
        <time>2019-06-23T06:02:15.000Z</time>
      </trkpt>
      <trkpt lat="45.6915" lon="3.12061">
        <ele>512</ele>
        <time>2019-06-23T06:02:16.000Z</time>
      </trkpt>
      <trkpt lat="45.69149" lon="3.12062">
        <ele>512</ele>
        <time>2019-06-23T06:02:17.000Z</time>
      </trkpt>
      <trkpt lat="45.69147" lon="3.12063">
        <ele>513</ele>
        <time>2019-06-23T06:02:18.000Z</time>
      </trkpt>
      <trkpt lat="45.69145" lon="3.12064">
        <ele>513</ele>
        <time>2019-06-23T06:02:19.000Z</time>
      </trkpt>
      <trkpt lat="45.69144" lon="3.12064">
        <ele>514</ele>
        <time>2019-06-23T06:02:20.000Z</time>
      </trkpt>
      <trkpt lat="45.69142" lon="3.12065">
        <ele>514</ele>
        <time>2019-06-23T06:02:21.000Z</time>
      </trkpt>
      <trkpt lat="45.6914" lon="3.12066">
        <ele>514</ele>
        <time>2019-06-23T06:02:22.000Z</time>
      </trkpt>
      <trkpt lat="45.69138" lon="3.12068">
        <ele>514</ele>
        <time>2019-06-23T06:02:23.000Z</time>
      </trkpt>
      <trkpt lat="45.69137" lon="3.12069">
        <ele>514</ele>
        <time>2019-06-23T06:02:24.000Z</time>
      </trkpt>
      <trkpt lat="45.69135" lon="3.1207">
        <ele>515</ele>
        <time>2019-06-23T06:02:25.000Z</time>
      </trkpt>
      <trkpt lat="45.69134" lon="3.1207">
        <ele>516</ele>
        <time>2019-06-23T06:02:26.000Z</time>
      </trkpt>
      <trkpt lat="45.69133" lon="3.12071">
        <ele>516</ele>
        <time>2019-06-23T06:02:27.000Z</time>
      </trkpt>
      <trkpt lat="45.6913" lon="3.12073">
        <ele>516</ele>
        <time>2019-06-23T06:02:28.000Z</time>
      </trkpt>
      <trkpt lat="45.69129" lon="3.12075">
        <ele>517</ele>
        <time>2019-06-23T06:02:29.000Z</time>
      </trkpt>
      <trkpt lat="45.69127" lon="3.12075">
        <ele>517</ele>
        <time>2019-06-23T06:02:30.000Z</time>
      </trkpt>
      <trkpt lat="45.69126" lon="3.12076">
        <ele>518</ele>
        <time>2019-06-23T06:02:31.000Z</time>
      </trkpt>
      <trkpt lat="45.69124" lon="3.12077">
        <ele>519</ele>
        <time>2019-06-23T06:02:32.000Z</time>
      </trkpt>
      <trkpt lat="45.69123" lon="3.12078">
        <ele>519</ele>
        <time>2019-06-23T06:02:33.000Z</time>
      </trkpt>
      <trkpt lat="45.69121" lon="3.12079">
        <ele>520</ele>
        <time>2019-06-23T06:02:34.000Z</time>
      </trkpt>
      <trkpt lat="45.6912" lon="3.1208">
        <ele>520</ele>
        <time>2019-06-23T06:02:35.000Z</time>
      </trkpt>
      <trkpt lat="45.69119" lon="3.12081">
        <ele>521</ele>
        <time>2019-06-23T06:02:36.000Z</time>
      </trkpt>
      <trkpt lat="45.69117" lon="3.12082">
        <ele>521</ele>
        <time>2019-06-23T06:02:37.000Z</time>
      </trkpt>
      <trkpt lat="45.69115" lon="3.12083">
        <ele>521</ele>
        <time>2019-06-23T06:02:38.000Z</time>
      </trkpt>
      <trkpt lat="45.69113" lon="3.12085">
        <ele>521</ele>
        <time>2019-06-23T06:02:39.000Z</time>
      </trkpt>
      <trkpt lat="45.69111" lon="3.12087">
        <ele>521</ele>
        <time>2019-06-23T06:02:40.000Z</time>
      </trkpt>
      <trkpt lat="45.69109" lon="3.12088">
        <ele>522</ele>
        <time>2019-06-23T06:02:41.000Z</time>
      </trkpt>
      <trkpt lat="45.69108" lon="3.12089">
        <ele>522</ele>
        <time>2019-06-23T06:02:42.000Z</time>
      </trkpt>
      <trkpt lat="45.69106" lon="3.1209">
        <ele>523</ele>
        <time>2019-06-23T06:02:43.000Z</time>
      </trkpt>
      <trkpt lat="45.69105" lon="3.12091">
        <ele>523</ele>
        <time>2019-06-23T06:02:44.000Z</time>
      </trkpt>
      <trkpt lat="45.69104" lon="3.12092">
        <ele>523</ele>
        <time>2019-06-23T06:02:45.000Z</time>
      </trkpt>
      <trkpt lat="45.69102" lon="3.12093">
        <ele>524</ele>
        <time>2019-06-23T06:02:46.000Z</time>
      </trkpt>
      <trkpt lat="45.691" lon="3.12094">
        <ele>524</ele>
        <time>2019-06-23T06:02:47.000Z</time>
      </trkpt>
      <trkpt lat="45.69099" lon="3.12095">
        <ele>524</ele>
        <time>2019-06-23T06:02:48.000Z</time>
      </trkpt>
      <trkpt lat="45.69098" lon="3.12096">
        <ele>525</ele>
        <time>2019-06-23T06:02:49.000Z</time>
      </trkpt>
      <trkpt lat="45.69096" lon="3.12097">
        <ele>526</ele>
        <time>2019-06-23T06:02:50.000Z</time>
      </trkpt>
      <trkpt lat="45.69095" lon="3.12098">
        <ele>526</ele>
        <time>2019-06-23T06:02:51.000Z</time>
      </trkpt>
      <trkpt lat="45.69094" lon="3.12099">
        <ele>526</ele>
        <time>2019-06-23T06:02:52.000Z</time>
      </trkpt>
      <trkpt lat="45.69092" lon="3.121">
        <ele>526</ele>
        <time>2019-06-23T06:02:53.000Z</time>
      </trkpt>
      <trkpt lat="45.69091" lon="3.12101">
        <ele>527</ele>
        <time>2019-06-23T06:02:54.000Z</time>
      </trkpt>
      <trkpt lat="45.6909" lon="3.12102">
        <ele>527</ele>
        <time>2019-06-23T06:02:55.000Z</time>
      </trkpt>
      <trkpt lat="45.69088" lon="3.12104">
        <ele>528</ele>
        <time>2019-06-23T06:02:56.000Z</time>
      </trkpt>
      <trkpt lat="45.69087" lon="3.12105">
        <ele>529</ele>
        <time>2019-06-23T06:02:57.000Z</time>
      </trkpt>
      <trkpt lat="45.69086" lon="3.12106">
        <ele>530</ele>
        <time>2019-06-23T06:02:58.000Z</time>
      </trkpt>
      <trkpt lat="45.69084" lon="3.12107">
        <ele>530</ele>
        <time>2019-06-23T06:02:59.000Z</time>
      </trkpt>
      <trkpt lat="45.69083" lon="3.12108">
        <ele>531</ele>
        <time>2019-06-23T06:03:00.000Z</time>
      </trkpt>
      <trkpt lat="45.69081" lon="3.12109">
        <ele>530</ele>
        <time>2019-06-23T06:03:01.000Z</time>
      </trkpt>
      <trkpt lat="45.69079" lon="3.12111">
        <ele>531</ele>
        <time>2019-06-23T06:03:02.000Z</time>
      </trkpt>
      <trkpt lat="45.69076" lon="3.12113">
        <ele>530</ele>
        <time>2019-06-23T06:03:03.000Z</time>
      </trkpt>
      <trkpt lat="45.69073" lon="3.12115">
        <ele>529</ele>
        <time>2019-06-23T06:03:04.000Z</time>
      </trkpt>
      <trkpt lat="45.6907" lon="3.12117">
        <ele>528</ele>
        <time>2019-06-23T06:03:05.000Z</time>
      </trkpt>
      <trkpt lat="45.69067" lon="3.12119">
        <ele>527</ele>
        <time>2019-06-23T06:03:06.000Z</time>
      </trkpt>
      <trkpt lat="45.69064" lon="3.1212">
        <ele>527</ele>
        <time>2019-06-23T06:03:07.000Z</time>
      </trkpt>
      <trkpt lat="45.69062" lon="3.12122">
        <ele>527</ele>
        <time>2019-06-23T06:03:08.000Z</time>
      </trkpt>
      <trkpt lat="45.69059" lon="3.12124">
        <ele>527</ele>
        <time>2019-06-23T06:03:09.000Z</time>
      </trkpt>
      <trkpt lat="45.69058" lon="3.12126">
        <ele>527</ele>
        <time>2019-06-23T06:03:10.000Z</time>
      </trkpt>
      <trkpt lat="45.69056" lon="3.12127">
        <ele>527</ele>
        <time>2019-06-23T06:03:11.000Z</time>
      </trkpt>
      <trkpt lat="45.69053" lon="3.12128">
        <ele>527</ele>
        <time>2019-06-23T06:03:12.000Z</time>
      </trkpt>
      <trkpt lat="45.69052" lon="3.1213">
        <ele>527</ele>
        <time>2019-06-23T06:03:13.000Z</time>
      </trkpt>
      <trkpt lat="45.6905" lon="3.12131">
        <ele>528</ele>
        <time>2019-06-23T06:03:14.000Z</time>
      </trkpt>
      <trkpt lat="45.69048" lon="3.12132">
        <ele>528</ele>
        <time>2019-06-23T06:03:15.000Z</time>
      </trkpt>
      <trkpt lat="45.69046" lon="3.12133">
        <ele>528</ele>
        <time>2019-06-23T06:03:16.000Z</time>
      </trkpt>
      <trkpt lat="45.69044" lon="3.12135">
        <ele>528</ele>
        <time>2019-06-23T06:03:17.000Z</time>
      </trkpt>
      <trkpt lat="45.69042" lon="3.12136">
        <ele>529</ele>
        <time>2019-06-23T06:03:18.000Z</time>
      </trkpt>
      <trkpt lat="45.6904" lon="3.12137">
        <ele>529</ele>
        <time>2019-06-23T06:03:19.000Z</time>
      </trkpt>
      <trkpt lat="45.69038" lon="3.12139">
        <ele>529</ele>
        <time>2019-06-23T06:03:20.000Z</time>
      </trkpt>
      <trkpt lat="45.69036" lon="3.1214">
        <ele>529</ele>
        <time>2019-06-23T06:03:21.000Z</time>
      </trkpt>
      <trkpt lat="45.69034" lon="3.12142">
        <ele>529</ele>
        <time>2019-06-23T06:03:22.000Z</time>
      </trkpt>
      <trkpt lat="45.69032" lon="3.12144">
        <ele>530</ele>
        <time>2019-06-23T06:03:23.000Z</time>
      </trkpt>
      <trkpt lat="45.69029" lon="3.12146">
        <ele>529</ele>
        <time>2019-06-23T06:03:24.000Z</time>
      </trkpt>
      <trkpt lat="45.69027" lon="3.12148">
        <ele>529</ele>
        <time>2019-06-23T06:03:25.000Z</time>
      </trkpt>
      <trkpt lat="45.69025" lon="3.1215">
        <ele>529</ele>
        <time>2019-06-23T06:03:26.000Z</time>
      </trkpt>
      <trkpt lat="45.69023" lon="3.12151">
        <ele>529</ele>
        <time>2019-06-23T06:03:27.000Z</time>
      </trkpt>
      <trkpt lat="45.69021" lon="3.12153">
        <ele>529</ele>
        <time>2019-06-23T06:03:28.000Z</time>
      </trkpt>
      <trkpt lat="45.69019" lon="3.12155">
        <ele>529</ele>
        <time>2019-06-23T06:03:29.000Z</time>
      </trkpt>
      <trkpt lat="45.69017" lon="3.12156">
        <ele>530</ele>
        <time>2019-06-23T06:03:30.000Z</time>
      </trkpt>
      <trkpt lat="45.69015" lon="3.12158">
        <ele>530</ele>
        <time>2019-06-23T06:03:31.000Z</time>
      </trkpt>
      <trkpt lat="45.69013" lon="3.12159">
        <ele>530</ele>
        <time>2019-06-23T06:03:32.000Z</time>
      </trkpt>
      <trkpt lat="45.69011" lon="3.12161">
        <ele>530</ele>
        <time>2019-06-23T06:03:33.000Z</time>
      </trkpt>
      <trkpt lat="45.69009" lon="3.12162">
        <ele>530</ele>
        <time>2019-06-23T06:03:34.000Z</time>
      </trkpt>
      <trkpt lat="45.69007" lon="3.12164">
        <ele>530</ele>
        <time>2019-06-23T06:03:35.000Z</time>
      </trkpt>
      <trkpt lat="45.69006" lon="3.12166">
        <ele>531</ele>
        <time>2019-06-23T06:03:36.000Z</time>
      </trkpt>
      <trkpt lat="45.69004" lon="3.12168">
        <ele>531</ele>
        <time>2019-06-23T06:03:37.000Z</time>
      </trkpt>
      <trkpt lat="45.69002" lon="3.12169">
        <ele>531</ele>
        <time>2019-06-23T06:03:38.000Z</time>
      </trkpt>
      <trkpt lat="45.69" lon="3.1217">
        <ele>532</ele>
        <time>2019-06-23T06:03:39.000Z</time>
      </trkpt>
      <trkpt lat="45.68999" lon="3.12172">
        <ele>532</ele>
        <time>2019-06-23T06:03:40.000Z</time>
      </trkpt>
      <trkpt lat="45.68997" lon="3.12173">
        <ele>532</ele>
        <time>2019-06-23T06:03:41.000Z</time>
      </trkpt>
      <trkpt lat="45.68995" lon="3.12174">
        <ele>533</ele>
        <time>2019-06-23T06:03:42.000Z</time>
      </trkpt>
      <trkpt lat="45.68993" lon="3.12176">
        <ele>533</ele>
        <time>2019-06-23T06:03:43.000Z</time>
      </trkpt>
      <trkpt lat="45.68991" lon="3.12177">
        <ele>533</ele>
        <time>2019-06-23T06:03:44.000Z</time>
      </trkpt>
      <trkpt lat="45.68989" lon="3.12179">
        <ele>533</ele>
        <time>2019-06-23T06:03:45.000Z</time>
      </trkpt>
      <trkpt lat="45.68987" lon="3.1218">
        <ele>534</ele>
        <time>2019-06-23T06:03:46.000Z</time>
      </trkpt>
      <trkpt lat="45.68986" lon="3.12181">
        <ele>534</ele>
        <time>2019-06-23T06:03:47.000Z</time>
      </trkpt>
      <trkpt lat="45.68984" lon="3.12183">
        <ele>535</ele>
        <time>2019-06-23T06:03:48.000Z</time>
      </trkpt>
      <trkpt lat="45.68982" lon="3.12184">
        <ele>535</ele>
        <time>2019-06-23T06:03:49.000Z</time>
      </trkpt>
      <trkpt lat="45.6898" lon="3.12186">
        <ele>535</ele>
        <time>2019-06-23T06:03:50.000Z</time>
      </trkpt>
      <trkpt lat="45.68978" lon="3.12188">
        <ele>535</ele>
        <time>2019-06-23T06:03:51.000Z</time>
      </trkpt>
      <trkpt lat="45.68976" lon="3.12189">
        <ele>536</ele>
        <time>2019-06-23T06:03:52.000Z</time>
      </trkpt>
      <trkpt lat="45.68974" lon="3.1219">
        <ele>536</ele>
        <time>2019-06-23T06:03:53.000Z</time>
      </trkpt>
      <trkpt lat="45.68972" lon="3.12191">
        <ele>536</ele>
        <time>2019-06-23T06:03:54.000Z</time>
      </trkpt>
      <trkpt lat="45.68971" lon="3.12192">
        <ele>537</ele>
        <time>2019-06-23T06:03:55.000Z</time>
      </trkpt>
      <trkpt lat="45.68969" lon="3.12194">
        <ele>537</ele>
        <time>2019-06-23T06:03:56.000Z</time>
      </trkpt>
      <trkpt lat="45.68967" lon="3.12195">
        <ele>537</ele>
        <time>2019-06-23T06:03:57.000Z</time>
      </trkpt>
      <trkpt lat="45.68965" lon="3.12196">
        <ele>538</ele>
        <time>2019-06-23T06:03:58.000Z</time>
      </trkpt>
      <trkpt lat="45.68963" lon="3.12198">
        <ele>538</ele>
        <time>2019-06-23T06:03:59.000Z</time>
      </trkpt>
      <trkpt lat="45.68961" lon="3.12199">
        <ele>538</ele>
        <time>2019-06-23T06:04:00.000Z</time>
      </trkpt>
      <trkpt lat="45.68958" lon="3.122">
        <ele>538</ele>
        <time>2019-06-23T06:04:01.000Z</time>
      </trkpt>
      <trkpt lat="45.68956" lon="3.122">
        <ele>538</ele>
        <time>2019-06-23T06:04:02.000Z</time>
      </trkpt>
      <trkpt lat="45.68954" lon="3.12201">
        <ele>539</ele>
        <time>2019-06-23T06:04:03.000Z</time>
      </trkpt>
      <trkpt lat="45.68952" lon="3.12201">
        <ele>539</ele>
        <time>2019-06-23T06:04:04.000Z</time>
      </trkpt>
      <trkpt lat="45.6895" lon="3.12202">
        <ele>539</ele>
        <time>2019-06-23T06:04:05.000Z</time>
      </trkpt>
      <trkpt lat="45.68948" lon="3.12203">
        <ele>540</ele>
        <time>2019-06-23T06:04:06.000Z</time>
      </trkpt>
      <trkpt lat="45.68946" lon="3.12205">
        <ele>540</ele>
        <time>2019-06-23T06:04:07.000Z</time>
      </trkpt>
      <trkpt lat="45.68944" lon="3.12206">
        <ele>540</ele>
        <time>2019-06-23T06:04:08.000Z</time>
      </trkpt>
      <trkpt lat="45.68942" lon="3.12208">
        <ele>540</ele>
        <time>2019-06-23T06:04:09.000Z</time>
      </trkpt>
      <trkpt lat="45.68941" lon="3.1221">
        <ele>541</ele>
        <time>2019-06-23T06:04:10.000Z</time>
      </trkpt>
      <trkpt lat="45.6894" lon="3.12212">
        <ele>541</ele>
        <time>2019-06-23T06:04:11.000Z</time>
      </trkpt>
      <trkpt lat="45.68938" lon="3.12213">
        <ele>542</ele>
        <time>2019-06-23T06:04:12.000Z</time>
      </trkpt>
      <trkpt lat="45.68937" lon="3.12215">
        <ele>542</ele>
        <time>2019-06-23T06:04:13.000Z</time>
      </trkpt>
      <trkpt lat="45.68936" lon="3.12217">
        <ele>543</ele>
        <time>2019-06-23T06:04:14.000Z</time>
      </trkpt>
      <trkpt lat="45.68935" lon="3.12219">
        <ele>544</ele>
        <time>2019-06-23T06:04:15.000Z</time>
      </trkpt>
      <trkpt lat="45.68935" lon="3.12221">
        <ele>545</ele>
        <time>2019-06-23T06:04:16.000Z</time>
      </trkpt>
      <trkpt lat="45.68934" lon="3.12223">
        <ele>545</ele>
        <time>2019-06-23T06:04:17.000Z</time>
      </trkpt>
      <trkpt lat="45.68933" lon="3.12225">
        <ele>545</ele>
        <time>2019-06-23T06:04:18.000Z</time>
      </trkpt>
      <trkpt lat="45.68931" lon="3.12229">
        <ele>545</ele>
        <time>2019-06-23T06:04:19.000Z</time>
      </trkpt>
      <trkpt lat="45.6893" lon="3.12231">
        <ele>545</ele>
        <time>2019-06-23T06:04:20.000Z</time>
      </trkpt>
      <trkpt lat="45.68928" lon="3.12233">
        <ele>545</ele>
        <time>2019-06-23T06:04:21.000Z</time>
      </trkpt>
      <trkpt lat="45.68927" lon="3.12235">
        <ele>546</ele>
        <time>2019-06-23T06:04:22.000Z</time>
      </trkpt>
      <trkpt lat="45.68926" lon="3.12236">
        <ele>546</ele>
        <time>2019-06-23T06:04:23.000Z</time>
      </trkpt>
      <trkpt lat="45.68924" lon="3.12239">
        <ele>546</ele>
        <time>2019-06-23T06:04:24.000Z</time>
      </trkpt>
      <trkpt lat="45.68923" lon="3.12241">
        <ele>546</ele>
        <time>2019-06-23T06:04:25.000Z</time>
      </trkpt>
      <trkpt lat="45.68921" lon="3.12243">
        <ele>546</ele>
        <time>2019-06-23T06:04:26.000Z</time>
      </trkpt>
      <trkpt lat="45.6892" lon="3.12245">
        <ele>547</ele>
        <time>2019-06-23T06:04:27.000Z</time>
      </trkpt>
      <trkpt lat="45.68918" lon="3.12247">
        <ele>547</ele>
        <time>2019-06-23T06:04:28.000Z</time>
      </trkpt>
      <trkpt lat="45.68917" lon="3.12248">
        <ele>547</ele>
        <time>2019-06-23T06:04:29.000Z</time>
      </trkpt>
      <trkpt lat="45.68915" lon="3.12249">
        <ele>548</ele>
        <time>2019-06-23T06:04:30.000Z</time>
      </trkpt>
      <trkpt lat="45.68913" lon="3.12251">
        <ele>548</ele>
        <time>2019-06-23T06:04:31.000Z</time>
      </trkpt>
      <trkpt lat="45.68912" lon="3.12253">
        <ele>549</ele>
        <time>2019-06-23T06:04:32.000Z</time>
      </trkpt>
      <trkpt lat="45.6891" lon="3.12254">
        <ele>549</ele>
        <time>2019-06-23T06:04:33.000Z</time>
      </trkpt>
      <trkpt lat="45.68909" lon="3.12256">
        <ele>550</ele>
        <time>2019-06-23T06:04:34.000Z</time>
      </trkpt>
      <trkpt lat="45.68907" lon="3.12258">
        <ele>550</ele>
        <time>2019-06-23T06:04:35.000Z</time>
      </trkpt>
      <trkpt lat="45.68905" lon="3.1226">
        <ele>550</ele>
        <time>2019-06-23T06:04:36.000Z</time>
      </trkpt>
      <trkpt lat="45.68903" lon="3.12261">
        <ele>550</ele>
        <time>2019-06-23T06:04:37.000Z</time>
      </trkpt>
      <trkpt lat="45.68901" lon="3.12263">
        <ele>550</ele>
        <time>2019-06-23T06:04:38.000Z</time>
      </trkpt>
      <trkpt lat="45.68898" lon="3.12266">
        <ele>549</ele>
        <time>2019-06-23T06:04:39.000Z</time>
      </trkpt>
      <trkpt lat="45.68896" lon="3.12267">
        <ele>549</ele>
        <time>2019-06-23T06:04:40.000Z</time>
      </trkpt>
      <trkpt lat="45.68893" lon="3.12268">
        <ele>549</ele>
        <time>2019-06-23T06:04:41.000Z</time>
      </trkpt>
      <trkpt lat="45.68891" lon="3.12269">
        <ele>549</ele>
        <time>2019-06-23T06:04:42.000Z</time>
      </trkpt>
      <trkpt lat="45.68889" lon="3.12271">
        <ele>549</ele>
        <time>2019-06-23T06:04:43.000Z</time>
      </trkpt>
      <trkpt lat="45.68887" lon="3.12272">
        <ele>549</ele>
        <time>2019-06-23T06:04:44.000Z</time>
      </trkpt>
      <trkpt lat="45.68885" lon="3.12273">
        <ele>549</ele>
        <time>2019-06-23T06:04:45.000Z</time>
      </trkpt>
      <trkpt lat="45.68883" lon="3.12273">
        <ele>549</ele>
        <time>2019-06-23T06:04:46.000Z</time>
      </trkpt>
      <trkpt lat="45.68881" lon="3.12274">
        <ele>549</ele>
        <time>2019-06-23T06:04:47.000Z</time>
      </trkpt>
      <trkpt lat="45.68879" lon="3.12274">
        <ele>550</ele>
        <time>2019-06-23T06:04:48.000Z</time>
      </trkpt>
      <trkpt lat="45.68877" lon="3.12275">
        <ele>550</ele>
        <time>2019-06-23T06:04:49.000Z</time>
      </trkpt>
      <trkpt lat="45.68875" lon="3.12275">
        <ele>550</ele>
        <time>2019-06-23T06:04:50.000Z</time>
      </trkpt>
      <trkpt lat="45.68873" lon="3.12276">
        <ele>550</ele>
        <time>2019-06-23T06:04:51.000Z</time>
      </trkpt>
      <trkpt lat="45.6887" lon="3.12276">
        <ele>550</ele>
        <time>2019-06-23T06:04:52.000Z</time>
      </trkpt>
      <trkpt lat="45.68868" lon="3.12276">
        <ele>550</ele>
        <time>2019-06-23T06:04:53.000Z</time>
      </trkpt>
      <trkpt lat="45.68866" lon="3.12277">
        <ele>551</ele>
        <time>2019-06-23T06:04:54.000Z</time>
      </trkpt>
      <trkpt lat="45.68864" lon="3.12278">
        <ele>551</ele>
        <time>2019-06-23T06:04:55.000Z</time>
      </trkpt>
      <trkpt lat="45.68862" lon="3.12278">
        <ele>551</ele>
        <time>2019-06-23T06:04:56.000Z</time>
      </trkpt>
      <trkpt lat="45.6886" lon="3.12279">
        <ele>551</ele>
        <time>2019-06-23T06:04:57.000Z</time>
      </trkpt>
      <trkpt lat="45.68858" lon="3.12279">
        <ele>551</ele>
        <time>2019-06-23T06:04:58.000Z</time>
      </trkpt>
      <trkpt lat="45.68855" lon="3.1228">
        <ele>552</ele>
        <time>2019-06-23T06:04:59.000Z</time>
      </trkpt>
      <trkpt lat="45.68853" lon="3.1228">
        <ele>552</ele>
        <time>2019-06-23T06:05:00.000Z</time>
      </trkpt>
      <trkpt lat="45.68851" lon="3.1228">
        <ele>552</ele>
        <time>2019-06-23T06:05:01.000Z</time>
      </trkpt>
      <trkpt lat="45.68849" lon="3.12281">
        <ele>552</ele>
        <time>2019-06-23T06:05:02.000Z</time>
      </trkpt>
      <trkpt lat="45.68847" lon="3.12281">
        <ele>553</ele>
        <time>2019-06-23T06:05:03.000Z</time>
      </trkpt>
      <trkpt lat="45.68845" lon="3.12281">
        <ele>553</ele>
        <time>2019-06-23T06:05:04.000Z</time>
      </trkpt>
      <trkpt lat="45.68842" lon="3.12282">
        <ele>553</ele>
        <time>2019-06-23T06:05:05.000Z</time>
      </trkpt>
      <trkpt lat="45.6884" lon="3.12282">
        <ele>553</ele>
        <time>2019-06-23T06:05:06.000Z</time>
      </trkpt>
      <trkpt lat="45.68838" lon="3.12282">
        <ele>554</ele>
        <time>2019-06-23T06:05:07.000Z</time>
      </trkpt>
      <trkpt lat="45.68836" lon="3.12282">
        <ele>554</ele>
        <time>2019-06-23T06:05:08.000Z</time>
      </trkpt>
      <trkpt lat="45.68834" lon="3.12282">
        <ele>554</ele>
        <time>2019-06-23T06:05:09.000Z</time>
      </trkpt>
      <trkpt lat="45.68832" lon="3.12283">
        <ele>554</ele>
        <time>2019-06-23T06:05:10.000Z</time>
      </trkpt>
      <trkpt lat="45.6883" lon="3.12283">
        <ele>555</ele>
        <time>2019-06-23T06:05:11.000Z</time>
      </trkpt>
      <trkpt lat="45.68828" lon="3.12283">
        <ele>555</ele>
        <time>2019-06-23T06:05:12.000Z</time>
      </trkpt>
      <trkpt lat="45.68826" lon="3.12284">
        <ele>555</ele>
        <time>2019-06-23T06:05:13.000Z</time>
      </trkpt>
      <trkpt lat="45.68823" lon="3.12284">
        <ele>555</ele>
        <time>2019-06-23T06:05:14.000Z</time>
      </trkpt>
      <trkpt lat="45.68822" lon="3.12285">
        <ele>555</ele>
        <time>2019-06-23T06:05:15.000Z</time>
      </trkpt>
      <trkpt lat="45.6882" lon="3.12286">
        <ele>556</ele>
        <time>2019-06-23T06:05:16.000Z</time>
      </trkpt>
      <trkpt lat="45.68818" lon="3.12287">
        <ele>556</ele>
        <time>2019-06-23T06:05:17.000Z</time>
      </trkpt>
      <trkpt lat="45.68815" lon="3.12287">
        <ele>556</ele>
        <time>2019-06-23T06:05:18.000Z</time>
      </trkpt>
      <trkpt lat="45.68813" lon="3.12287">
        <ele>556</ele>
        <time>2019-06-23T06:05:19.000Z</time>
      </trkpt>
      <trkpt lat="45.68812" lon="3.12288">
        <ele>557</ele>
        <time>2019-06-23T06:05:20.000Z</time>
      </trkpt>
      <trkpt lat="45.6881" lon="3.12288">
        <ele>557</ele>
        <time>2019-06-23T06:05:21.000Z</time>
      </trkpt>
      <trkpt lat="45.68808" lon="3.12288">
        <ele>557</ele>
        <time>2019-06-23T06:05:22.000Z</time>
      </trkpt>
      <trkpt lat="45.68806" lon="3.12287">
        <ele>557</ele>
        <time>2019-06-23T06:05:23.000Z</time>
      </trkpt>
      <trkpt lat="45.68805" lon="3.12284">
        <ele>558</ele>
        <time>2019-06-23T06:05:24.000Z</time>
      </trkpt>
      <trkpt lat="45.68806" lon="3.12282">
        <ele>558</ele>
        <time>2019-06-23T06:05:25.000Z</time>
      </trkpt>
      <trkpt lat="45.68806" lon="3.1228">
        <ele>558</ele>
        <time>2019-06-23T06:05:26.000Z</time>
      </trkpt>
      <trkpt lat="45.68807" lon="3.12278">
        <ele>558</ele>
        <time>2019-06-23T06:05:27.000Z</time>
      </trkpt>
      <trkpt lat="45.68808" lon="3.12274">
        <ele>558</ele>
        <time>2019-06-23T06:05:28.000Z</time>
      </trkpt>
      <trkpt lat="45.68808" lon="3.1227">
        <ele>558</ele>
        <time>2019-06-23T06:05:29.000Z</time>
      </trkpt>
      <trkpt lat="45.68807" lon="3.12266">
        <ele>559</ele>
        <time>2019-06-23T06:05:30.000Z</time>
      </trkpt>
      <trkpt lat="45.68807" lon="3.12262">
        <ele>559</ele>
        <time>2019-06-23T06:05:31.000Z</time>
      </trkpt>
      <trkpt lat="45.68806" lon="3.12259">
        <ele>560</ele>
        <time>2019-06-23T06:05:32.000Z</time>
      </trkpt>
      <trkpt lat="45.68805" lon="3.12256">
        <ele>561</ele>
        <time>2019-06-23T06:05:33.000Z</time>
      </trkpt>
      <trkpt lat="45.68804" lon="3.12254">
        <ele>561</ele>
        <time>2019-06-23T06:05:34.000Z</time>
      </trkpt>
      <trkpt lat="45.68802" lon="3.12252">
        <ele>560</ele>
        <time>2019-06-23T06:05:35.000Z</time>
      </trkpt>
      <trkpt lat="45.68801" lon="3.12249">
        <ele>560</ele>
        <time>2019-06-23T06:05:36.000Z</time>
      </trkpt>
      <trkpt lat="45.688" lon="3.12246">
        <ele>560</ele>
        <time>2019-06-23T06:05:37.000Z</time>
      </trkpt>
      <trkpt lat="45.68798" lon="3.12243">
        <ele>561</ele>
        <time>2019-06-23T06:05:38.000Z</time>
      </trkpt>
      <trkpt lat="45.68797" lon="3.12241">
        <ele>561</ele>
        <time>2019-06-23T06:05:39.000Z</time>
      </trkpt>
      <trkpt lat="45.68795" lon="3.12238">
        <ele>561</ele>
        <time>2019-06-23T06:05:40.000Z</time>
      </trkpt>
      <trkpt lat="45.68792" lon="3.12236">
        <ele>561</ele>
        <time>2019-06-23T06:05:41.000Z</time>
      </trkpt>
      <trkpt lat="45.6879" lon="3.12233">
        <ele>561</ele>
        <time>2019-06-23T06:05:42.000Z</time>
      </trkpt>
      <trkpt lat="45.68788" lon="3.12231">
        <ele>561</ele>
        <time>2019-06-23T06:05:43.000Z</time>
      </trkpt>
      <trkpt lat="45.68786" lon="3.12229">
        <ele>561</ele>
        <time>2019-06-23T06:05:44.000Z</time>
      </trkpt>
      <trkpt lat="45.68784" lon="3.12227">
        <ele>561</ele>
        <time>2019-06-23T06:05:45.000Z</time>
      </trkpt>
      <trkpt lat="45.68782" lon="3.12226">
        <ele>561</ele>
        <time>2019-06-23T06:05:46.000Z</time>
      </trkpt>
      <trkpt lat="45.6878" lon="3.12224">
        <ele>562</ele>
        <time>2019-06-23T06:05:47.000Z</time>
      </trkpt>
      <trkpt lat="45.68778" lon="3.12223">
        <ele>562</ele>
        <time>2019-06-23T06:05:48.000Z</time>
      </trkpt>
      <trkpt lat="45.68776" lon="3.12222">
        <ele>562</ele>
        <time>2019-06-23T06:05:49.000Z</time>
      </trkpt>
      <trkpt lat="45.68774" lon="3.12221">
        <ele>562</ele>
        <time>2019-06-23T06:05:50.000Z</time>
      </trkpt>
      <trkpt lat="45.68772" lon="3.12219">
        <ele>563</ele>
        <time>2019-06-23T06:05:51.000Z</time>
      </trkpt>
      <trkpt lat="45.6877" lon="3.12217">
        <ele>563</ele>
        <time>2019-06-23T06:05:52.000Z</time>
      </trkpt>
      <trkpt lat="45.68768" lon="3.12216">
        <ele>563</ele>
        <time>2019-06-23T06:05:53.000Z</time>
      </trkpt>
      <trkpt lat="45.68766" lon="3.12215">
        <ele>564</ele>
        <time>2019-06-23T06:05:54.000Z</time>
      </trkpt>
      <trkpt lat="45.68764" lon="3.12214">
        <ele>564</ele>
        <time>2019-06-23T06:05:55.000Z</time>
      </trkpt>
      <trkpt lat="45.68762" lon="3.12213">
        <ele>564</ele>
        <time>2019-06-23T06:05:56.000Z</time>
      </trkpt>
      <trkpt lat="45.68759" lon="3.12212">
        <ele>565</ele>
        <time>2019-06-23T06:05:57.000Z</time>
      </trkpt>
      <trkpt lat="45.68757" lon="3.12211">
        <ele>565</ele>
        <time>2019-06-23T06:05:58.000Z</time>
      </trkpt>
      <trkpt lat="45.68755" lon="3.12211">
        <ele>565</ele>
        <time>2019-06-23T06:05:59.000Z</time>
      </trkpt>
      <trkpt lat="45.68753" lon="3.1221">
        <ele>566</ele>
        <time>2019-06-23T06:06:00.000Z</time>
      </trkpt>
      <trkpt lat="45.68751" lon="3.1221">
        <ele>566</ele>
        <time>2019-06-23T06:06:01.000Z</time>
      </trkpt>
      <trkpt lat="45.68749" lon="3.1221">
        <ele>566</ele>
        <time>2019-06-23T06:06:02.000Z</time>
      </trkpt>
      <trkpt lat="45.68746" lon="3.12209">
        <ele>567</ele>
        <time>2019-06-23T06:06:03.000Z</time>
      </trkpt>
      <trkpt lat="45.68744" lon="3.12209">
        <ele>567</ele>
        <time>2019-06-23T06:06:04.000Z</time>
      </trkpt>
      <trkpt lat="45.68742" lon="3.12209">
        <ele>567</ele>
        <time>2019-06-23T06:06:05.000Z</time>
      </trkpt>
      <trkpt lat="45.6874" lon="3.12208">
        <ele>568</ele>
        <time>2019-06-23T06:06:06.000Z</time>
      </trkpt>
      <trkpt lat="45.68737" lon="3.12208">
        <ele>568</ele>
        <time>2019-06-23T06:06:07.000Z</time>
      </trkpt>
      <trkpt lat="45.68735" lon="3.12207">
        <ele>569</ele>
        <time>2019-06-23T06:06:08.000Z</time>
      </trkpt>
      <trkpt lat="45.68733" lon="3.12206">
        <ele>569</ele>
        <time>2019-06-23T06:06:09.000Z</time>
      </trkpt>
      <trkpt lat="45.68731" lon="3.12204">
        <ele>570</ele>
        <time>2019-06-23T06:06:10.000Z</time>
      </trkpt>
      <trkpt lat="45.6873" lon="3.12202">
        <ele>570</ele>
        <time>2019-06-23T06:06:11.000Z</time>
      </trkpt>
      <trkpt lat="45.68728" lon="3.122">
        <ele>570</ele>
        <time>2019-06-23T06:06:12.000Z</time>
      </trkpt>
      <trkpt lat="45.68727" lon="3.12198">
        <ele>569</ele>
        <time>2019-06-23T06:06:13.000Z</time>
      </trkpt>
      <trkpt lat="45.68727" lon="3.12196">
        <ele>569</ele>
        <time>2019-06-23T06:06:14.000Z</time>
      </trkpt>
      <trkpt lat="45.68727" lon="3.12195">
        <ele>569</ele>
        <time>2019-06-23T06:06:15.000Z</time>
      </trkpt>
      <trkpt lat="45.68727" lon="3.12192">
        <ele>569</ele>
        <time>2019-06-23T06:06:16.000Z</time>
      </trkpt>
      <trkpt lat="45.68728" lon="3.12188">
        <ele>569</ele>
        <time>2019-06-23T06:06:17.000Z</time>
      </trkpt>
      <trkpt lat="45.68729" lon="3.12183">
        <ele>569</ele>
        <time>2019-06-23T06:06:18.000Z</time>
      </trkpt>
      <trkpt lat="45.68729" lon="3.12179">
        <ele>568</ele>
        <time>2019-06-23T06:06:19.000Z</time>
      </trkpt>
      <trkpt lat="45.6873" lon="3.12174">
        <ele>568</ele>
        <time>2019-06-23T06:06:20.000Z</time>
      </trkpt>
      <trkpt lat="45.68732" lon="3.12171">
        <ele>568</ele>
        <time>2019-06-23T06:06:21.000Z</time>
      </trkpt>
      <trkpt lat="45.68732" lon="3.12166">
        <ele>568</ele>
        <time>2019-06-23T06:06:22.000Z</time>
      </trkpt>
      <trkpt lat="45.68734" lon="3.12161">
        <ele>569</ele>
        <time>2019-06-23T06:06:23.000Z</time>
      </trkpt>
      <trkpt lat="45.68735" lon="3.12157">
        <ele>569</ele>
        <time>2019-06-23T06:06:24.000Z</time>
      </trkpt>
      <trkpt lat="45.68737" lon="3.12152">
        <ele>569</ele>
        <time>2019-06-23T06:06:25.000Z</time>
      </trkpt>
      <trkpt lat="45.68738" lon="3.12148">
        <ele>570</ele>
        <time>2019-06-23T06:06:26.000Z</time>
      </trkpt>
      <trkpt lat="45.6874" lon="3.12142">
        <ele>571</ele>
        <time>2019-06-23T06:06:27.000Z</time>
      </trkpt>
      <trkpt lat="45.68742" lon="3.12137">
        <ele>570</ele>
        <time>2019-06-23T06:06:28.000Z</time>
      </trkpt>
      <trkpt lat="45.68744" lon="3.1213">
        <ele>569</ele>
        <time>2019-06-23T06:06:29.000Z</time>
      </trkpt>
      <trkpt lat="45.68746" lon="3.12123">
        <ele>568</ele>
        <time>2019-06-23T06:06:30.000Z</time>
      </trkpt>
      <trkpt lat="45.68748" lon="3.12117">
        <ele>567</ele>
        <time>2019-06-23T06:06:31.000Z</time>
      </trkpt>
      <trkpt lat="45.6875" lon="3.1211">
        <ele>567</ele>
        <time>2019-06-23T06:06:32.000Z</time>
      </trkpt>
      <trkpt lat="45.68752" lon="3.12104">
        <ele>567</ele>
        <time>2019-06-23T06:06:33.000Z</time>
      </trkpt>
      <trkpt lat="45.68754" lon="3.12098">
        <ele>567</ele>
        <time>2019-06-23T06:06:34.000Z</time>
      </trkpt>
      <trkpt lat="45.68757" lon="3.12092">
        <ele>566</ele>
        <time>2019-06-23T06:06:35.000Z</time>
      </trkpt>
      <trkpt lat="45.68758" lon="3.12085">
        <ele>566</ele>
        <time>2019-06-23T06:06:36.000Z</time>
      </trkpt>
      <trkpt lat="45.68761" lon="3.12079">
        <ele>566</ele>
        <time>2019-06-23T06:06:37.000Z</time>
      </trkpt>
      <trkpt lat="45.68762" lon="3.12072">
        <ele>565</ele>
        <time>2019-06-23T06:06:38.000Z</time>
      </trkpt>
      <trkpt lat="45.68764" lon="3.12066">
        <ele>565</ele>
        <time>2019-06-23T06:06:39.000Z</time>
      </trkpt>
      <trkpt lat="45.68766" lon="3.12059">
        <ele>565</ele>
        <time>2019-06-23T06:06:40.000Z</time>
      </trkpt>
      <trkpt lat="45.68767" lon="3.12053">
        <ele>565</ele>
        <time>2019-06-23T06:06:41.000Z</time>
      </trkpt>
      <trkpt lat="45.68769" lon="3.12046">
        <ele>565</ele>
        <time>2019-06-23T06:06:42.000Z</time>
      </trkpt>
      <trkpt lat="45.68771" lon="3.12039">
        <ele>565</ele>
        <time>2019-06-23T06:06:43.000Z</time>
      </trkpt>
      <trkpt lat="45.68772" lon="3.12032">
        <ele>565</ele>
        <time>2019-06-23T06:06:44.000Z</time>
      </trkpt>
      <trkpt lat="45.68773" lon="3.12025">
        <ele>565</ele>
        <time>2019-06-23T06:06:45.000Z</time>
      </trkpt>
      <trkpt lat="45.68773" lon="3.12018">
        <ele>565</ele>
        <time>2019-06-23T06:06:46.000Z</time>
      </trkpt>
      <trkpt lat="45.68774" lon="3.12011">
        <ele>565</ele>
        <time>2019-06-23T06:06:47.000Z</time>
      </trkpt>
      <trkpt lat="45.68774" lon="3.12004">
        <ele>565</ele>
        <time>2019-06-23T06:06:48.000Z</time>
      </trkpt>
      <trkpt lat="45.68773" lon="3.11998">
        <ele>564</ele>
        <time>2019-06-23T06:06:49.000Z</time>
      </trkpt>
      <trkpt lat="45.68772" lon="3.11992">
        <ele>564</ele>
        <time>2019-06-23T06:06:50.000Z</time>
      </trkpt>
      <trkpt lat="45.68772" lon="3.11985">
        <ele>564</ele>
        <time>2019-06-23T06:06:51.000Z</time>
      </trkpt>
      <trkpt lat="45.68771" lon="3.11979">
        <ele>565</ele>
        <time>2019-06-23T06:06:52.000Z</time>
      </trkpt>
      <trkpt lat="45.68771" lon="3.11973">
        <ele>565</ele>
        <time>2019-06-23T06:06:53.000Z</time>
      </trkpt>
      <trkpt lat="45.68771" lon="3.11968">
        <ele>565</ele>
        <time>2019-06-23T06:06:54.000Z</time>
      </trkpt>
      <trkpt lat="45.68771" lon="3.11963">
        <ele>564</ele>
        <time>2019-06-23T06:06:55.000Z</time>
      </trkpt>
      <trkpt lat="45.68772" lon="3.11957">
        <ele>564</ele>
        <time>2019-06-23T06:06:56.000Z</time>
      </trkpt>
      <trkpt lat="45.68772" lon="3.11951">
        <ele>564</ele>
        <time>2019-06-23T06:06:57.000Z</time>
      </trkpt>
      <trkpt lat="45.68772" lon="3.11946">
        <ele>564</ele>
        <time>2019-06-23T06:06:58.000Z</time>
      </trkpt>
      <trkpt lat="45.68773" lon="3.11941">
        <ele>564</ele>
        <time>2019-06-23T06:06:59.000Z</time>
      </trkpt>
      <trkpt lat="45.68774" lon="3.11935">
        <ele>564</ele>
        <time>2019-06-23T06:07:00.000Z</time>
      </trkpt>
      <trkpt lat="45.68775" lon="3.11931">
        <ele>564</ele>
        <time>2019-06-23T06:07:01.000Z</time>
      </trkpt>
      <trkpt lat="45.68775" lon="3.11926">
        <ele>564</ele>
        <time>2019-06-23T06:07:02.000Z</time>
      </trkpt>
      <trkpt lat="45.68775" lon="3.11921">
        <ele>564</ele>
        <time>2019-06-23T06:07:03.000Z</time>
      </trkpt>
      <trkpt lat="45.68775" lon="3.11916">
        <ele>564</ele>
        <time>2019-06-23T06:07:04.000Z</time>
      </trkpt>
      <trkpt lat="45.68775" lon="3.11911">
        <ele>564</ele>
        <time>2019-06-23T06:07:05.000Z</time>
      </trkpt>
      <trkpt lat="45.68774" lon="3.11905">
        <ele>564</ele>
        <time>2019-06-23T06:07:06.000Z</time>
      </trkpt>
      <trkpt lat="45.68772" lon="3.11902">
        <ele>563</ele>
        <time>2019-06-23T06:07:07.000Z</time>
      </trkpt>
      <trkpt lat="45.68771" lon="3.11896">
        <ele>563</ele>
        <time>2019-06-23T06:07:08.000Z</time>
      </trkpt>
      <trkpt lat="45.68771" lon="3.1189">
        <ele>564</ele>
        <time>2019-06-23T06:07:09.000Z</time>
      </trkpt>
      <trkpt lat="45.68771" lon="3.11885">
        <ele>564</ele>
        <time>2019-06-23T06:07:10.000Z</time>
      </trkpt>
      <trkpt lat="45.68771" lon="3.11878">
        <ele>564</ele>
        <time>2019-06-23T06:07:11.000Z</time>
      </trkpt>
      <trkpt lat="45.6877" lon="3.11873">
        <ele>564</ele>
        <time>2019-06-23T06:07:12.000Z</time>
      </trkpt>
      <trkpt lat="45.68771" lon="3.11867">
        <ele>564</ele>
        <time>2019-06-23T06:07:13.000Z</time>
      </trkpt>
      <trkpt lat="45.68771" lon="3.11863">
        <ele>564</ele>
        <time>2019-06-23T06:07:14.000Z</time>
      </trkpt>
      <trkpt lat="45.68771" lon="3.11858">
        <ele>564</ele>
        <time>2019-06-23T06:07:15.000Z</time>
      </trkpt>
      <trkpt lat="45.6877" lon="3.11854">
        <ele>564</ele>
        <time>2019-06-23T06:07:16.000Z</time>
      </trkpt>
      <trkpt lat="45.6877" lon="3.1185">
        <ele>564</ele>
        <time>2019-06-23T06:07:17.000Z</time>
      </trkpt>
      <trkpt lat="45.6877" lon="3.11846">
        <ele>564</ele>
        <time>2019-06-23T06:07:18.000Z</time>
      </trkpt>
      <trkpt lat="45.68769" lon="3.11841">
        <ele>564</ele>
        <time>2019-06-23T06:07:19.000Z</time>
      </trkpt>
      <trkpt lat="45.68769" lon="3.11837">
        <ele>564</ele>
        <time>2019-06-23T06:07:20.000Z</time>
      </trkpt>
      <trkpt lat="45.68768" lon="3.11833">
        <ele>565</ele>
        <time>2019-06-23T06:07:21.000Z</time>
      </trkpt>
      <trkpt lat="45.68768" lon="3.11829">
        <ele>564</ele>
        <time>2019-06-23T06:07:22.000Z</time>
      </trkpt>
      <trkpt lat="45.68768" lon="3.11825">
        <ele>565</ele>
        <time>2019-06-23T06:07:23.000Z</time>
      </trkpt>
      <trkpt lat="45.68767" lon="3.11821">
        <ele>565</ele>
        <time>2019-06-23T06:07:24.000Z</time>
      </trkpt>
      <trkpt lat="45.68766" lon="3.11817">
        <ele>566</ele>
        <time>2019-06-23T06:07:25.000Z</time>
      </trkpt>
      <trkpt lat="45.68765" lon="3.11814">
        <ele>566</ele>
        <time>2019-06-23T06:07:26.000Z</time>
      </trkpt>
      <trkpt lat="45.68763" lon="3.11809">
        <ele>566</ele>
        <time>2019-06-23T06:07:27.000Z</time>
      </trkpt>
      <trkpt lat="45.68762" lon="3.11805">
        <ele>566</ele>
        <time>2019-06-23T06:07:28.000Z</time>
      </trkpt>
      <trkpt lat="45.68761" lon="3.11801">
        <ele>567</ele>
        <time>2019-06-23T06:07:29.000Z</time>
      </trkpt>
      <trkpt lat="45.6876" lon="3.11796">
        <ele>567</ele>
        <time>2019-06-23T06:07:30.000Z</time>
      </trkpt>
      <trkpt lat="45.68758" lon="3.11792">
        <ele>568</ele>
        <time>2019-06-23T06:07:31.000Z</time>
      </trkpt>
      <trkpt lat="45.68757" lon="3.11788">
        <ele>568</ele>
        <time>2019-06-23T06:07:32.000Z</time>
      </trkpt>
      <trkpt lat="45.68755" lon="3.11784">
        <ele>570</ele>
        <time>2019-06-23T06:07:33.000Z</time>
      </trkpt>
      <trkpt lat="45.68753" lon="3.1178">
        <ele>571</ele>
        <time>2019-06-23T06:07:34.000Z</time>
      </trkpt>
      <trkpt lat="45.68752" lon="3.11776">
        <ele>572</ele>
        <time>2019-06-23T06:07:35.000Z</time>
      </trkpt>
      <trkpt lat="45.68751" lon="3.11773">
        <ele>572</ele>
        <time>2019-06-23T06:07:36.000Z</time>
      </trkpt>
      <trkpt lat="45.68749" lon="3.11769">
        <ele>573</ele>
        <time>2019-06-23T06:07:37.000Z</time>
      </trkpt>
      <trkpt lat="45.68748" lon="3.11766">
        <ele>573</ele>
        <time>2019-06-23T06:07:38.000Z</time>
      </trkpt>
      <trkpt lat="45.68748" lon="3.11763">
        <ele>573</ele>
        <time>2019-06-23T06:07:39.000Z</time>
      </trkpt>
      <trkpt lat="45.68747" lon="3.11759">
        <ele>574</ele>
        <time>2019-06-23T06:07:40.000Z</time>
      </trkpt>
      <trkpt lat="45.68746" lon="3.11755">
        <ele>573</ele>
        <time>2019-06-23T06:07:41.000Z</time>
      </trkpt>
      <trkpt lat="45.68745" lon="3.1175">
        <ele>574</ele>
        <time>2019-06-23T06:07:42.000Z</time>
      </trkpt>
      <trkpt lat="45.68744" lon="3.11746">
        <ele>575</ele>
        <time>2019-06-23T06:07:43.000Z</time>
      </trkpt>
      <trkpt lat="45.68743" lon="3.11742">
        <ele>575</ele>
        <time>2019-06-23T06:07:44.000Z</time>
      </trkpt>
      <trkpt lat="45.68743" lon="3.11738">
        <ele>576</ele>
        <time>2019-06-23T06:07:45.000Z</time>
      </trkpt>
      <trkpt lat="45.68742" lon="3.11735">
        <ele>576</ele>
        <time>2019-06-23T06:07:46.000Z</time>
      </trkpt>
      <trkpt lat="45.68741" lon="3.11731">
        <ele>576</ele>
        <time>2019-06-23T06:07:47.000Z</time>
      </trkpt>
      <trkpt lat="45.68741" lon="3.11727">
        <ele>576</ele>
        <time>2019-06-23T06:07:48.000Z</time>
      </trkpt>
      <trkpt lat="45.68741" lon="3.11723">
        <ele>576</ele>
        <time>2019-06-23T06:07:49.000Z</time>
      </trkpt>
      <trkpt lat="45.6874" lon="3.11719">
        <ele>578</ele>
        <time>2019-06-23T06:07:50.000Z</time>
      </trkpt>
      <trkpt lat="45.6874" lon="3.11716">
        <ele>578</ele>
        <time>2019-06-23T06:07:51.000Z</time>
      </trkpt>
      <trkpt lat="45.68739" lon="3.11712">
        <ele>579</ele>
        <time>2019-06-23T06:07:52.000Z</time>
      </trkpt>
      <trkpt lat="45.68739" lon="3.11709">
        <ele>580</ele>
        <time>2019-06-23T06:07:53.000Z</time>
      </trkpt>
      <trkpt lat="45.68738" lon="3.11706">
        <ele>581</ele>
        <time>2019-06-23T06:07:54.000Z</time>
      </trkpt>
      <trkpt lat="45.68738" lon="3.11702">
        <ele>582</ele>
        <time>2019-06-23T06:07:55.000Z</time>
      </trkpt>
      <trkpt lat="45.68738" lon="3.11699">
        <ele>582</ele>
        <time>2019-06-23T06:07:56.000Z</time>
      </trkpt>
      <trkpt lat="45.68737" lon="3.11693">
        <ele>583</ele>
        <time>2019-06-23T06:07:57.000Z</time>
      </trkpt>
      <trkpt lat="45.68737" lon="3.11688">
        <ele>583</ele>
        <time>2019-06-23T06:07:58.000Z</time>
      </trkpt>
      <trkpt lat="45.68737" lon="3.11683">
        <ele>582</ele>
        <time>2019-06-23T06:07:59.000Z</time>
      </trkpt>
      <trkpt lat="45.68735" lon="3.11679">
        <ele>582</ele>
        <time>2019-06-23T06:08:00.000Z</time>
      </trkpt>
      <trkpt lat="45.68735" lon="3.11674">
        <ele>581</ele>
        <time>2019-06-23T06:08:01.000Z</time>
      </trkpt>
      <trkpt lat="45.68734" lon="3.1167">
        <ele>581</ele>
        <time>2019-06-23T06:08:02.000Z</time>
      </trkpt>
      <trkpt lat="45.68733" lon="3.11666">
        <ele>581</ele>
        <time>2019-06-23T06:08:03.000Z</time>
      </trkpt>
      <trkpt lat="45.68732" lon="3.11661">
        <ele>581</ele>
        <time>2019-06-23T06:08:04.000Z</time>
      </trkpt>
      <trkpt lat="45.68732" lon="3.11656">
        <ele>582</ele>
        <time>2019-06-23T06:08:05.000Z</time>
      </trkpt>
      <trkpt lat="45.68732" lon="3.11651">
        <ele>582</ele>
        <time>2019-06-23T06:08:06.000Z</time>
      </trkpt>
      <trkpt lat="45.68732" lon="3.11646">
        <ele>582</ele>
        <time>2019-06-23T06:08:07.000Z</time>
      </trkpt>
      <trkpt lat="45.68732" lon="3.11642">
        <ele>583</ele>
        <time>2019-06-23T06:08:08.000Z</time>
      </trkpt>
      <trkpt lat="45.68732" lon="3.11638">
        <ele>583</ele>
        <time>2019-06-23T06:08:09.000Z</time>
      </trkpt>
      <trkpt lat="45.68732" lon="3.11631">
        <ele>583</ele>
        <time>2019-06-23T06:08:10.000Z</time>
      </trkpt>
      <trkpt lat="45.68734" lon="3.11624">
        <ele>582</ele>
        <time>2019-06-23T06:08:11.000Z</time>
      </trkpt>
      <trkpt lat="45.68734" lon="3.11619">
        <ele>583</ele>
        <time>2019-06-23T06:08:12.000Z</time>
      </trkpt>
      <trkpt lat="45.68735" lon="3.11614">
        <ele>583</ele>
        <time>2019-06-23T06:08:13.000Z</time>
      </trkpt>
      <trkpt lat="45.68732" lon="3.11607">
        <ele>584</ele>
        <time>2019-06-23T06:08:14.000Z</time>
      </trkpt>
      <trkpt lat="45.6873" lon="3.11602">
        <ele>584</ele>
        <time>2019-06-23T06:08:15.000Z</time>
      </trkpt>
      <trkpt lat="45.68729" lon="3.11596">
        <ele>585</ele>
        <time>2019-06-23T06:08:16.000Z</time>
      </trkpt>
      <trkpt lat="45.68729" lon="3.1159">
        <ele>586</ele>
        <time>2019-06-23T06:08:17.000Z</time>
      </trkpt>
      <trkpt lat="45.68729" lon="3.11585">
        <ele>588</ele>
        <time>2019-06-23T06:08:18.000Z</time>
      </trkpt>
      <trkpt lat="45.68728" lon="3.1158">
        <ele>588</ele>
        <time>2019-06-23T06:08:19.000Z</time>
      </trkpt>
      <trkpt lat="45.68728" lon="3.11573">
        <ele>589</ele>
        <time>2019-06-23T06:08:20.000Z</time>
      </trkpt>
      <trkpt lat="45.68727" lon="3.11568">
        <ele>588</ele>
        <time>2019-06-23T06:08:21.000Z</time>
      </trkpt>
      <trkpt lat="45.68728" lon="3.11562">
        <ele>589</ele>
        <time>2019-06-23T06:08:22.000Z</time>
      </trkpt>
      <trkpt lat="45.68728" lon="3.11555">
        <ele>589</ele>
        <time>2019-06-23T06:08:23.000Z</time>
      </trkpt>
      <trkpt lat="45.68729" lon="3.11547">
        <ele>589</ele>
        <time>2019-06-23T06:08:24.000Z</time>
      </trkpt>
      <trkpt lat="45.68729" lon="3.11539">
        <ele>588</ele>
        <time>2019-06-23T06:08:25.000Z</time>
      </trkpt>
      <trkpt lat="45.68731" lon="3.1153">
        <ele>588</ele>
        <time>2019-06-23T06:08:26.000Z</time>
      </trkpt>
      <trkpt lat="45.6873" lon="3.11525">
        <ele>588</ele>
        <time>2019-06-23T06:08:27.000Z</time>
      </trkpt>
      <trkpt lat="45.6873" lon="3.1152">
        <ele>588</ele>
        <time>2019-06-23T06:08:28.000Z</time>
      </trkpt>
      <trkpt lat="45.68729" lon="3.11515">
        <ele>588</ele>
        <time>2019-06-23T06:08:29.000Z</time>
      </trkpt>
      <trkpt lat="45.68727" lon="3.1151">
        <ele>588</ele>
        <time>2019-06-23T06:08:30.000Z</time>
      </trkpt>
      <trkpt lat="45.68725" lon="3.11505">
        <ele>589</ele>
        <time>2019-06-23T06:08:31.000Z</time>
      </trkpt>
      <trkpt lat="45.68724" lon="3.11501">
        <ele>590</ele>
        <time>2019-06-23T06:08:32.000Z</time>
      </trkpt>
      <trkpt lat="45.68722" lon="3.11497">
        <ele>590</ele>
        <time>2019-06-23T06:08:33.000Z</time>
      </trkpt>
      <trkpt lat="45.68721" lon="3.11494">
        <ele>590</ele>
        <time>2019-06-23T06:08:34.000Z</time>
      </trkpt>
      <trkpt lat="45.6872" lon="3.11491">
        <ele>590</ele>
        <time>2019-06-23T06:08:35.000Z</time>
      </trkpt>
      <trkpt lat="45.6872" lon="3.11488">
        <ele>590</ele>
        <time>2019-06-23T06:08:36.000Z</time>
      </trkpt>
      <trkpt lat="45.68719" lon="3.11484">
        <ele>590</ele>
        <time>2019-06-23T06:08:37.000Z</time>
      </trkpt>
      <trkpt lat="45.68716" lon="3.11479">
        <ele>587</ele>
        <time>2019-06-23T06:08:38.000Z</time>
      </trkpt>
      <trkpt lat="45.68714" lon="3.11474">
        <ele>587</ele>
        <time>2019-06-23T06:08:39.000Z</time>
      </trkpt>
      <trkpt lat="45.68714" lon="3.11469">
        <ele>589</ele>
        <time>2019-06-23T06:08:40.000Z</time>
      </trkpt>
      <trkpt lat="45.68712" lon="3.11465">
        <ele>590</ele>
        <time>2019-06-23T06:08:41.000Z</time>
      </trkpt>
      <trkpt lat="45.68711" lon="3.11463">
        <ele>590</ele>
        <time>2019-06-23T06:08:42.000Z</time>
      </trkpt>
      <trkpt lat="45.68709" lon="3.11461">
        <ele>591</ele>
        <time>2019-06-23T06:08:43.000Z</time>
      </trkpt>
      <trkpt lat="45.68709" lon="3.11458">
        <ele>591</ele>
        <time>2019-06-23T06:08:44.000Z</time>
      </trkpt>
      <trkpt lat="45.68708" lon="3.11454">
        <ele>593</ele>
        <time>2019-06-23T06:08:45.000Z</time>
      </trkpt>
      <trkpt lat="45.68706" lon="3.11451">
        <ele>593</ele>
        <time>2019-06-23T06:08:46.000Z</time>
      </trkpt>
      <trkpt lat="45.68705" lon="3.11448">
        <ele>594</ele>
        <time>2019-06-23T06:08:47.000Z</time>
      </trkpt>
      <trkpt lat="45.68704" lon="3.11445">
        <ele>594</ele>
        <time>2019-06-23T06:08:48.000Z</time>
      </trkpt>
      <trkpt lat="45.68702" lon="3.11442">
        <ele>594</ele>
        <time>2019-06-23T06:08:49.000Z</time>
      </trkpt>
      <trkpt lat="45.687" lon="3.1144">
        <ele>595</ele>
        <time>2019-06-23T06:08:50.000Z</time>
      </trkpt>
      <trkpt lat="45.68699" lon="3.11437">
        <ele>596</ele>
        <time>2019-06-23T06:08:51.000Z</time>
      </trkpt>
      <trkpt lat="45.68698" lon="3.11435">
        <ele>596</ele>
        <time>2019-06-23T06:08:52.000Z</time>
      </trkpt>
      <trkpt lat="45.68698" lon="3.11433">
        <ele>597</ele>
        <time>2019-06-23T06:08:53.000Z</time>
      </trkpt>
      <trkpt lat="45.68697" lon="3.11431">
        <ele>598</ele>
        <time>2019-06-23T06:08:54.000Z</time>
      </trkpt>
      <trkpt lat="45.68696" lon="3.11428">
        <ele>599</ele>
        <time>2019-06-23T06:08:55.000Z</time>
      </trkpt>
      <trkpt lat="45.68696" lon="3.11425">
        <ele>598</ele>
        <time>2019-06-23T06:08:56.000Z</time>
      </trkpt>
      <trkpt lat="45.68695" lon="3.11423">
        <ele>598</ele>
        <time>2019-06-23T06:08:57.000Z</time>
      </trkpt>
      <trkpt lat="45.68694" lon="3.1142">
        <ele>598</ele>
        <time>2019-06-23T06:08:58.000Z</time>
      </trkpt>
      <trkpt lat="45.68692" lon="3.11418">
        <ele>596</ele>
        <time>2019-06-23T06:08:59.000Z</time>
      </trkpt>
      <trkpt lat="45.68691" lon="3.11415">
        <ele>596</ele>
        <time>2019-06-23T06:09:00.000Z</time>
      </trkpt>
      <trkpt lat="45.6869" lon="3.11413">
        <ele>596</ele>
        <time>2019-06-23T06:09:01.000Z</time>
      </trkpt>
      <trkpt lat="45.6869" lon="3.1141">
        <ele>596</ele>
        <time>2019-06-23T06:09:02.000Z</time>
      </trkpt>
      <trkpt lat="45.68689" lon="3.11407">
        <ele>597</ele>
        <time>2019-06-23T06:09:03.000Z</time>
      </trkpt>
      <trkpt lat="45.68688" lon="3.11403">
        <ele>598</ele>
        <time>2019-06-23T06:09:04.000Z</time>
      </trkpt>
      <trkpt lat="45.68687" lon="3.114">
        <ele>597</ele>
        <time>2019-06-23T06:09:05.000Z</time>
      </trkpt>
      <trkpt lat="45.68687" lon="3.11397">
        <ele>598</ele>
        <time>2019-06-23T06:09:06.000Z</time>
      </trkpt>
      <trkpt lat="45.68687" lon="3.11394">
        <ele>599</ele>
        <time>2019-06-23T06:09:07.000Z</time>
      </trkpt>
      <trkpt lat="45.68686" lon="3.11391">
        <ele>598</ele>
        <time>2019-06-23T06:09:08.000Z</time>
      </trkpt>
      <trkpt lat="45.68685" lon="3.11389">
        <ele>599</ele>
        <time>2019-06-23T06:09:09.000Z</time>
      </trkpt>
      <trkpt lat="45.68685" lon="3.11387">
        <ele>599</ele>
        <time>2019-06-23T06:09:10.000Z</time>
      </trkpt>
      <trkpt lat="45.68685" lon="3.11383">
        <ele>600</ele>
        <time>2019-06-23T06:09:11.000Z</time>
      </trkpt>
      <trkpt lat="45.68685" lon="3.11379">
        <ele>600</ele>
        <time>2019-06-23T06:09:12.000Z</time>
      </trkpt>
      <trkpt lat="45.68684" lon="3.11375">
        <ele>602</ele>
        <time>2019-06-23T06:09:13.000Z</time>
      </trkpt>
      <trkpt lat="45.68684" lon="3.11371">
        <ele>602</ele>
        <time>2019-06-23T06:09:14.000Z</time>
      </trkpt>
      <trkpt lat="45.68684" lon="3.11368">
        <ele>602</ele>
        <time>2019-06-23T06:09:15.000Z</time>
      </trkpt>
      <trkpt lat="45.68681" lon="3.11365">
        <ele>601</ele>
        <time>2019-06-23T06:09:16.000Z</time>
      </trkpt>
      <trkpt lat="45.6868" lon="3.11362">
        <ele>600</ele>
        <time>2019-06-23T06:09:17.000Z</time>
      </trkpt>
      <trkpt lat="45.68677" lon="3.11359">
        <ele>597</ele>
        <time>2019-06-23T06:09:18.000Z</time>
      </trkpt>
      <trkpt lat="45.68676" lon="3.11356">
        <ele>597</ele>
        <time>2019-06-23T06:09:19.000Z</time>
      </trkpt>
      <trkpt lat="45.68675" lon="3.11353">
        <ele>596</ele>
        <time>2019-06-23T06:09:20.000Z</time>
      </trkpt>
      <trkpt lat="45.68674" lon="3.1135">
        <ele>596</ele>
        <time>2019-06-23T06:09:21.000Z</time>
      </trkpt>
      <trkpt lat="45.68673" lon="3.11347">
        <ele>596</ele>
        <time>2019-06-23T06:09:22.000Z</time>
      </trkpt>
      <trkpt lat="45.68672" lon="3.11344">
        <ele>596</ele>
        <time>2019-06-23T06:09:23.000Z</time>
      </trkpt>
      <trkpt lat="45.68672" lon="3.1134">
        <ele>597</ele>
        <time>2019-06-23T06:09:24.000Z</time>
      </trkpt>
      <trkpt lat="45.68671" lon="3.11337">
        <ele>597</ele>
        <time>2019-06-23T06:09:25.000Z</time>
      </trkpt>
      <trkpt lat="45.6867" lon="3.11334">
        <ele>597</ele>
        <time>2019-06-23T06:09:26.000Z</time>
      </trkpt>
      <trkpt lat="45.68669" lon="3.1133">
        <ele>596</ele>
        <time>2019-06-23T06:09:27.000Z</time>
      </trkpt>
      <trkpt lat="45.68667" lon="3.11326">
        <ele>595</ele>
        <time>2019-06-23T06:09:28.000Z</time>
      </trkpt>
      <trkpt lat="45.68665" lon="3.11323">
        <ele>594</ele>
        <time>2019-06-23T06:09:29.000Z</time>
      </trkpt>
      <trkpt lat="45.68664" lon="3.1132">
        <ele>594</ele>
        <time>2019-06-23T06:09:30.000Z</time>
      </trkpt>
      <trkpt lat="45.68663" lon="3.11316">
        <ele>595</ele>
        <time>2019-06-23T06:09:31.000Z</time>
      </trkpt>
      <trkpt lat="45.68662" lon="3.11313">
        <ele>595</ele>
        <time>2019-06-23T06:09:32.000Z</time>
      </trkpt>
      <trkpt lat="45.68661" lon="3.1131">
        <ele>595</ele>
        <time>2019-06-23T06:09:33.000Z</time>
      </trkpt>
      <trkpt lat="45.68661" lon="3.11306">
        <ele>595</ele>
        <time>2019-06-23T06:09:34.000Z</time>
      </trkpt>
      <trkpt lat="45.6866" lon="3.11302">
        <ele>595</ele>
        <time>2019-06-23T06:09:35.000Z</time>
      </trkpt>
      <trkpt lat="45.68658" lon="3.11298">
        <ele>594</ele>
        <time>2019-06-23T06:09:36.000Z</time>
      </trkpt>
      <trkpt lat="45.68657" lon="3.11295">
        <ele>593</ele>
        <time>2019-06-23T06:09:37.000Z</time>
      </trkpt>
      <trkpt lat="45.68655" lon="3.11291">
        <ele>592</ele>
        <time>2019-06-23T06:09:38.000Z</time>
      </trkpt>
      <trkpt lat="45.68654" lon="3.11287">
        <ele>593</ele>
        <time>2019-06-23T06:09:39.000Z</time>
      </trkpt>
      <trkpt lat="45.68653" lon="3.11284">
        <ele>593</ele>
        <time>2019-06-23T06:09:40.000Z</time>
      </trkpt>
      <trkpt lat="45.68652" lon="3.11281">
        <ele>592</ele>
        <time>2019-06-23T06:09:41.000Z</time>
      </trkpt>
      <trkpt lat="45.6865" lon="3.11277">
        <ele>591</ele>
        <time>2019-06-23T06:09:42.000Z</time>
      </trkpt>
      <trkpt lat="45.68648" lon="3.11274">
        <ele>591</ele>
        <time>2019-06-23T06:09:43.000Z</time>
      </trkpt>
      <trkpt lat="45.68647" lon="3.11271">
        <ele>590</ele>
        <time>2019-06-23T06:09:44.000Z</time>
      </trkpt>
      <trkpt lat="45.68646" lon="3.11267">
        <ele>590</ele>
        <time>2019-06-23T06:09:45.000Z</time>
      </trkpt>
      <trkpt lat="45.68645" lon="3.11264">
        <ele>591</ele>
        <time>2019-06-23T06:09:46.000Z</time>
      </trkpt>
      <trkpt lat="45.68645" lon="3.11261">
        <ele>590</ele>
        <time>2019-06-23T06:09:47.000Z</time>
      </trkpt>
      <trkpt lat="45.68643" lon="3.11258">
        <ele>591</ele>
        <time>2019-06-23T06:09:48.000Z</time>
      </trkpt>
      <trkpt lat="45.68642" lon="3.11254">
        <ele>591</ele>
        <time>2019-06-23T06:09:49.000Z</time>
      </trkpt>
      <trkpt lat="45.68641" lon="3.11251">
        <ele>592</ele>
        <time>2019-06-23T06:09:50.000Z</time>
      </trkpt>
      <trkpt lat="45.6864" lon="3.11248">
        <ele>592</ele>
        <time>2019-06-23T06:09:51.000Z</time>
      </trkpt>
      <trkpt lat="45.68638" lon="3.11244">
        <ele>592</ele>
        <time>2019-06-23T06:09:52.000Z</time>
      </trkpt>
      <trkpt lat="45.68637" lon="3.1124">
        <ele>592</ele>
        <time>2019-06-23T06:09:53.000Z</time>
      </trkpt>
      <trkpt lat="45.68635" lon="3.11236">
        <ele>592</ele>
        <time>2019-06-23T06:09:54.000Z</time>
      </trkpt>
      <trkpt lat="45.68634" lon="3.11233">
        <ele>592</ele>
        <time>2019-06-23T06:09:55.000Z</time>
      </trkpt>
      <trkpt lat="45.68633" lon="3.11229">
        <ele>592</ele>
        <time>2019-06-23T06:09:56.000Z</time>
      </trkpt>
      <trkpt lat="45.68632" lon="3.11226">
        <ele>593</ele>
        <time>2019-06-23T06:09:57.000Z</time>
      </trkpt>
      <trkpt lat="45.6863" lon="3.11224">
        <ele>592</ele>
        <time>2019-06-23T06:09:58.000Z</time>
      </trkpt>
      <trkpt lat="45.68628" lon="3.11221">
        <ele>592</ele>
        <time>2019-06-23T06:09:59.000Z</time>
      </trkpt>
      <trkpt lat="45.68626" lon="3.11217">
        <ele>593</ele>
        <time>2019-06-23T06:10:00.000Z</time>
      </trkpt>
      <trkpt lat="45.68625" lon="3.11214">
        <ele>594</ele>
        <time>2019-06-23T06:10:01.000Z</time>
      </trkpt>
      <trkpt lat="45.68623" lon="3.11211">
        <ele>594</ele>
        <time>2019-06-23T06:10:02.000Z</time>
      </trkpt>
      <trkpt lat="45.68622" lon="3.11208">
        <ele>594</ele>
        <time>2019-06-23T06:10:03.000Z</time>
      </trkpt>
      <trkpt lat="45.68621" lon="3.11204">
        <ele>594</ele>
        <time>2019-06-23T06:10:04.000Z</time>
      </trkpt>
      <trkpt lat="45.6862" lon="3.112">
        <ele>594</ele>
        <time>2019-06-23T06:10:05.000Z</time>
      </trkpt>
      <trkpt lat="45.68618" lon="3.11196">
        <ele>594</ele>
        <time>2019-06-23T06:10:06.000Z</time>
      </trkpt>
      <trkpt lat="45.68617" lon="3.11193">
        <ele>594</ele>
        <time>2019-06-23T06:10:07.000Z</time>
      </trkpt>
      <trkpt lat="45.68616" lon="3.11189">
        <ele>595</ele>
        <time>2019-06-23T06:10:08.000Z</time>
      </trkpt>
      <trkpt lat="45.68614" lon="3.11186">
        <ele>595</ele>
        <time>2019-06-23T06:10:09.000Z</time>
      </trkpt>
      <trkpt lat="45.68612" lon="3.11183">
        <ele>595</ele>
        <time>2019-06-23T06:10:10.000Z</time>
      </trkpt>
      <trkpt lat="45.6861" lon="3.1118">
        <ele>596</ele>
        <time>2019-06-23T06:10:11.000Z</time>
      </trkpt>
      <trkpt lat="45.68609" lon="3.11177">
        <ele>596</ele>
        <time>2019-06-23T06:10:12.000Z</time>
      </trkpt>
      <trkpt lat="45.68606" lon="3.11174">
        <ele>596</ele>
        <time>2019-06-23T06:10:13.000Z</time>
      </trkpt>
      <trkpt lat="45.68605" lon="3.11171">
        <ele>596</ele>
        <time>2019-06-23T06:10:14.000Z</time>
      </trkpt>
      <trkpt lat="45.68603" lon="3.11169">
        <ele>597</ele>
        <time>2019-06-23T06:10:15.000Z</time>
      </trkpt>
      <trkpt lat="45.68601" lon="3.11166">
        <ele>597</ele>
        <time>2019-06-23T06:10:16.000Z</time>
      </trkpt>
      <trkpt lat="45.68598" lon="3.11164">
        <ele>598</ele>
        <time>2019-06-23T06:10:17.000Z</time>
      </trkpt>
      <trkpt lat="45.68597" lon="3.11161">
        <ele>599</ele>
        <time>2019-06-23T06:10:18.000Z</time>
      </trkpt>
      <trkpt lat="45.68594" lon="3.11159">
        <ele>599</ele>
        <time>2019-06-23T06:10:19.000Z</time>
      </trkpt>
      <trkpt lat="45.68592" lon="3.11157">
        <ele>599</ele>
        <time>2019-06-23T06:10:20.000Z</time>
      </trkpt>
      <trkpt lat="45.6859" lon="3.11155">
        <ele>600</ele>
        <time>2019-06-23T06:10:21.000Z</time>
      </trkpt>
      <trkpt lat="45.68588" lon="3.11152">
        <ele>600</ele>
        <time>2019-06-23T06:10:22.000Z</time>
      </trkpt>
      <trkpt lat="45.68586" lon="3.11151">
        <ele>600</ele>
        <time>2019-06-23T06:10:23.000Z</time>
      </trkpt>
      <trkpt lat="45.68584" lon="3.11149">
        <ele>601</ele>
        <time>2019-06-23T06:10:24.000Z</time>
      </trkpt>
      <trkpt lat="45.68582" lon="3.11147">
        <ele>602</ele>
        <time>2019-06-23T06:10:25.000Z</time>
      </trkpt>
      <trkpt lat="45.68581" lon="3.11145">
        <ele>603</ele>
        <time>2019-06-23T06:10:26.000Z</time>
      </trkpt>
      <trkpt lat="45.6858" lon="3.11143">
        <ele>604</ele>
        <time>2019-06-23T06:10:27.000Z</time>
      </trkpt>
      <trkpt lat="45.6858" lon="3.1114">
        <ele>605</ele>
        <time>2019-06-23T06:10:28.000Z</time>
      </trkpt>
      <trkpt lat="45.68579" lon="3.11137">
        <ele>606</ele>
        <time>2019-06-23T06:10:29.000Z</time>
      </trkpt>
      <trkpt lat="45.68577" lon="3.11135">
        <ele>608</ele>
        <time>2019-06-23T06:10:30.000Z</time>
      </trkpt>
      <trkpt lat="45.68576" lon="3.11132">
        <ele>609</ele>
        <time>2019-06-23T06:10:31.000Z</time>
      </trkpt>
      <trkpt lat="45.68575" lon="3.1113">
        <ele>609</ele>
        <time>2019-06-23T06:10:32.000Z</time>
      </trkpt>
      <trkpt lat="45.68574" lon="3.11127">
        <ele>611</ele>
        <time>2019-06-23T06:10:33.000Z</time>
      </trkpt>
      <trkpt lat="45.68574" lon="3.11125">
        <ele>612</ele>
        <time>2019-06-23T06:10:34.000Z</time>
      </trkpt>
      <trkpt lat="45.68572" lon="3.11123">
        <ele>612</ele>
        <time>2019-06-23T06:10:35.000Z</time>
      </trkpt>
      <trkpt lat="45.68571" lon="3.1112">
        <ele>613</ele>
        <time>2019-06-23T06:10:36.000Z</time>
      </trkpt>
      <trkpt lat="45.6857" lon="3.11118">
        <ele>614</ele>
        <time>2019-06-23T06:10:37.000Z</time>
      </trkpt>
      <trkpt lat="45.68569" lon="3.11115">
        <ele>615</ele>
        <time>2019-06-23T06:10:38.000Z</time>
      </trkpt>
      <trkpt lat="45.68567" lon="3.11113">
        <ele>616</ele>
        <time>2019-06-23T06:10:39.000Z</time>
      </trkpt>
      <trkpt lat="45.68566" lon="3.1111">
        <ele>617</ele>
        <time>2019-06-23T06:10:40.000Z</time>
      </trkpt>
      <trkpt lat="45.68565" lon="3.11107">
        <ele>618</ele>
        <time>2019-06-23T06:10:41.000Z</time>
      </trkpt>
      <trkpt lat="45.68564" lon="3.11104">
        <ele>618</ele>
        <time>2019-06-23T06:10:42.000Z</time>
      </trkpt>
      <trkpt lat="45.68562" lon="3.11102">
        <ele>618</ele>
        <time>2019-06-23T06:10:43.000Z</time>
      </trkpt>
      <trkpt lat="45.68561" lon="3.11099">
        <ele>619</ele>
        <time>2019-06-23T06:10:44.000Z</time>
      </trkpt>
      <trkpt lat="45.68561" lon="3.11096">
        <ele>620</ele>
        <time>2019-06-23T06:10:45.000Z</time>
      </trkpt>
      <trkpt lat="45.68558" lon="3.11093">
        <ele>618</ele>
        <time>2019-06-23T06:10:46.000Z</time>
      </trkpt>
      <trkpt lat="45.68557" lon="3.11091">
        <ele>618</ele>
        <time>2019-06-23T06:10:47.000Z</time>
      </trkpt>
      <trkpt lat="45.68556" lon="3.11088">
        <ele>618</ele>
        <time>2019-06-23T06:10:48.000Z</time>
      </trkpt>
      <trkpt lat="45.68555" lon="3.11085">
        <ele>618</ele>
        <time>2019-06-23T06:10:49.000Z</time>
      </trkpt>
      <trkpt lat="45.68553" lon="3.11082">
        <ele>618</ele>
        <time>2019-06-23T06:10:50.000Z</time>
      </trkpt>
      <trkpt lat="45.68553" lon="3.1108">
        <ele>619</ele>
        <time>2019-06-23T06:10:51.000Z</time>
      </trkpt>
      <trkpt lat="45.68553" lon="3.11077">
        <ele>620</ele>
        <time>2019-06-23T06:10:52.000Z</time>
      </trkpt>
      <trkpt lat="45.68552" lon="3.11075">
        <ele>621</ele>
        <time>2019-06-23T06:10:53.000Z</time>
      </trkpt>
      <trkpt lat="45.68551" lon="3.11072">
        <ele>622</ele>
        <time>2019-06-23T06:10:54.000Z</time>
      </trkpt>
      <trkpt lat="45.6855" lon="3.1107">
        <ele>622</ele>
        <time>2019-06-23T06:10:55.000Z</time>
      </trkpt>
      <trkpt lat="45.68548" lon="3.11067">
        <ele>622</ele>
        <time>2019-06-23T06:10:56.000Z</time>
      </trkpt>
      <trkpt lat="45.68546" lon="3.11064">
        <ele>622</ele>
        <time>2019-06-23T06:10:57.000Z</time>
      </trkpt>
      <trkpt lat="45.68543" lon="3.11061">
        <ele>622</ele>
        <time>2019-06-23T06:10:58.000Z</time>
      </trkpt>
      <trkpt lat="45.68542" lon="3.11059">
        <ele>623</ele>
        <time>2019-06-23T06:10:59.000Z</time>
      </trkpt>
      <trkpt lat="45.68539" lon="3.11057">
        <ele>623</ele>
        <time>2019-06-23T06:11:00.000Z</time>
      </trkpt>
      <trkpt lat="45.68536" lon="3.11055">
        <ele>623</ele>
        <time>2019-06-23T06:11:01.000Z</time>
      </trkpt>
      <trkpt lat="45.68533" lon="3.11053">
        <ele>624</ele>
        <time>2019-06-23T06:11:02.000Z</time>
      </trkpt>
      <trkpt lat="45.68531" lon="3.11051">
        <ele>625</ele>
        <time>2019-06-23T06:11:03.000Z</time>
      </trkpt>
      <trkpt lat="45.68529" lon="3.1105">
        <ele>626</ele>
        <time>2019-06-23T06:11:04.000Z</time>
      </trkpt>
      <trkpt lat="45.68528" lon="3.11048">
        <ele>629</ele>
        <time>2019-06-23T06:11:05.000Z</time>
      </trkpt>
      <trkpt lat="45.68526" lon="3.11047">
        <ele>629</ele>
        <time>2019-06-23T06:11:06.000Z</time>
      </trkpt>
      <trkpt lat="45.68525" lon="3.11045">
        <ele>630</ele>
        <time>2019-06-23T06:11:07.000Z</time>
      </trkpt>
      <trkpt lat="45.68523" lon="3.11043">
        <ele>629</ele>
        <time>2019-06-23T06:11:08.000Z</time>
      </trkpt>
      <trkpt lat="45.6852" lon="3.11041">
        <ele>629</ele>
        <time>2019-06-23T06:11:09.000Z</time>
      </trkpt>
      <trkpt lat="45.68517" lon="3.11039">
        <ele>628</ele>
        <time>2019-06-23T06:11:10.000Z</time>
      </trkpt>
      <trkpt lat="45.68516" lon="3.11037">
        <ele>628</ele>
        <time>2019-06-23T06:11:11.000Z</time>
      </trkpt>
      <trkpt lat="45.68515" lon="3.11034">
        <ele>629</ele>
        <time>2019-06-23T06:11:12.000Z</time>
      </trkpt>
      <trkpt lat="45.68513" lon="3.11032">
        <ele>630</ele>
        <time>2019-06-23T06:11:13.000Z</time>
      </trkpt>
      <trkpt lat="45.68512" lon="3.1103">
        <ele>631</ele>
        <time>2019-06-23T06:11:14.000Z</time>
      </trkpt>
      <trkpt lat="45.68509" lon="3.11029">
        <ele>631</ele>
        <time>2019-06-23T06:11:15.000Z</time>
      </trkpt>
      <trkpt lat="45.68507" lon="3.11027">
        <ele>632</ele>
        <time>2019-06-23T06:11:16.000Z</time>
      </trkpt>
      <trkpt lat="45.68505" lon="3.11026">
        <ele>632</ele>
        <time>2019-06-23T06:11:17.000Z</time>
      </trkpt>
      <trkpt lat="45.68504" lon="3.11024">
        <ele>633</ele>
        <time>2019-06-23T06:11:18.000Z</time>
      </trkpt>
      <trkpt lat="45.68501" lon="3.11023">
        <ele>632</ele>
        <time>2019-06-23T06:11:19.000Z</time>
      </trkpt>
      <trkpt lat="45.68499" lon="3.11021">
        <ele>633</ele>
        <time>2019-06-23T06:11:20.000Z</time>
      </trkpt>
      <trkpt lat="45.68497" lon="3.11019">
        <ele>633</ele>
        <time>2019-06-23T06:11:21.000Z</time>
      </trkpt>
      <trkpt lat="45.68495" lon="3.11018">
        <ele>633</ele>
        <time>2019-06-23T06:11:22.000Z</time>
      </trkpt>
      <trkpt lat="45.68494" lon="3.11017">
        <ele>633</ele>
        <time>2019-06-23T06:11:23.000Z</time>
      </trkpt>
      <trkpt lat="45.68492" lon="3.11016">
        <ele>634</ele>
        <time>2019-06-23T06:11:24.000Z</time>
      </trkpt>
      <trkpt lat="45.6849" lon="3.11014">
        <ele>634</ele>
        <time>2019-06-23T06:11:25.000Z</time>
      </trkpt>
      <trkpt lat="45.68489" lon="3.11013">
        <ele>635</ele>
        <time>2019-06-23T06:11:26.000Z</time>
      </trkpt>
      <trkpt lat="45.68487" lon="3.11012">
        <ele>636</ele>
        <time>2019-06-23T06:11:27.000Z</time>
      </trkpt>
      <trkpt lat="45.68486" lon="3.11011">
        <ele>637</ele>
        <time>2019-06-23T06:11:28.000Z</time>
      </trkpt>
      <trkpt lat="45.68485" lon="3.11009">
        <ele>638</ele>
        <time>2019-06-23T06:11:29.000Z</time>
      </trkpt>
      <trkpt lat="45.68483" lon="3.11007">
        <ele>638</ele>
        <time>2019-06-23T06:11:30.000Z</time>
      </trkpt>
      <trkpt lat="45.68481" lon="3.11006">
        <ele>639</ele>
        <time>2019-06-23T06:11:31.000Z</time>
      </trkpt>
      <trkpt lat="45.68479" lon="3.11004">
        <ele>639</ele>
        <time>2019-06-23T06:11:32.000Z</time>
      </trkpt>
      <trkpt lat="45.68473" lon="3.11002">
        <ele>635</ele>
        <time>2019-06-23T06:11:33.000Z</time>
      </trkpt>
      <trkpt lat="45.68471" lon="3.11">
        <ele>635</ele>
        <time>2019-06-23T06:11:34.000Z</time>
      </trkpt>
      <trkpt lat="45.68468" lon="3.10998">
        <ele>634</ele>
        <time>2019-06-23T06:11:35.000Z</time>
      </trkpt>
      <trkpt lat="45.68466" lon="3.10996">
        <ele>635</ele>
        <time>2019-06-23T06:11:36.000Z</time>
      </trkpt>
      <trkpt lat="45.68464" lon="3.10993">
        <ele>635</ele>
        <time>2019-06-23T06:11:37.000Z</time>
      </trkpt>
      <trkpt lat="45.68463" lon="3.1099">
        <ele>636</ele>
        <time>2019-06-23T06:11:38.000Z</time>
      </trkpt>
      <trkpt lat="45.68462" lon="3.10988">
        <ele>636</ele>
        <time>2019-06-23T06:11:39.000Z</time>
      </trkpt>
      <trkpt lat="45.6846" lon="3.10985">
        <ele>636</ele>
        <time>2019-06-23T06:11:40.000Z</time>
      </trkpt>
      <trkpt lat="45.68459" lon="3.10983">
        <ele>637</ele>
        <time>2019-06-23T06:11:41.000Z</time>
      </trkpt>
      <trkpt lat="45.68456" lon="3.10981">
        <ele>636</ele>
        <time>2019-06-23T06:11:42.000Z</time>
      </trkpt>
      <trkpt lat="45.68452" lon="3.10977">
        <ele>633</ele>
        <time>2019-06-23T06:11:43.000Z</time>
      </trkpt>
      <trkpt lat="45.6845" lon="3.10974">
        <ele>632</ele>
        <time>2019-06-23T06:11:44.000Z</time>
      </trkpt>
      <trkpt lat="45.68448" lon="3.10971">
        <ele>631</ele>
        <time>2019-06-23T06:11:45.000Z</time>
      </trkpt>
      <trkpt lat="45.68446" lon="3.10968">
        <ele>630</ele>
        <time>2019-06-23T06:11:46.000Z</time>
      </trkpt>
      <trkpt lat="45.68445" lon="3.10965">
        <ele>629</ele>
        <time>2019-06-23T06:11:47.000Z</time>
      </trkpt>
      <trkpt lat="45.68443" lon="3.10961">
        <ele>629</ele>
        <time>2019-06-23T06:11:48.000Z</time>
      </trkpt>
      <trkpt lat="45.68442" lon="3.10958">
        <ele>629</ele>
        <time>2019-06-23T06:11:49.000Z</time>
      </trkpt>
      <trkpt lat="45.68441" lon="3.10954">
        <ele>629</ele>
        <time>2019-06-23T06:11:50.000Z</time>
      </trkpt>
      <trkpt lat="45.6844" lon="3.10951">
        <ele>628</ele>
        <time>2019-06-23T06:11:51.000Z</time>
      </trkpt>
      <trkpt lat="45.68439" lon="3.10949">
        <ele>628</ele>
        <time>2019-06-23T06:11:52.000Z</time>
      </trkpt>
      <trkpt lat="45.68437" lon="3.10946">
        <ele>628</ele>
        <time>2019-06-23T06:11:53.000Z</time>
      </trkpt>
      <trkpt lat="45.68433" lon="3.10944">
        <ele>628</ele>
        <time>2019-06-23T06:11:54.000Z</time>
      </trkpt>
      <trkpt lat="45.68431" lon="3.10941">
        <ele>627</ele>
        <time>2019-06-23T06:11:55.000Z</time>
      </trkpt>
      <trkpt lat="45.68428" lon="3.10937">
        <ele>627</ele>
        <time>2019-06-23T06:11:56.000Z</time>
      </trkpt>
      <trkpt lat="45.68426" lon="3.10934">
        <ele>625</ele>
        <time>2019-06-23T06:11:57.000Z</time>
      </trkpt>
      <trkpt lat="45.68424" lon="3.10932">
        <ele>625</ele>
        <time>2019-06-23T06:11:58.000Z</time>
      </trkpt>
      <trkpt lat="45.68422" lon="3.10929">
        <ele>626</ele>
        <time>2019-06-23T06:11:59.000Z</time>
      </trkpt>
      <trkpt lat="45.6842" lon="3.10926">
        <ele>625</ele>
        <time>2019-06-23T06:12:00.000Z</time>
      </trkpt>
      <trkpt lat="45.68418" lon="3.10922">
        <ele>625</ele>
        <time>2019-06-23T06:12:01.000Z</time>
      </trkpt>
      <trkpt lat="45.68416" lon="3.10919">
        <ele>625</ele>
        <time>2019-06-23T06:12:02.000Z</time>
      </trkpt>
      <trkpt lat="45.68415" lon="3.10915">
        <ele>626</ele>
        <time>2019-06-23T06:12:03.000Z</time>
      </trkpt>
      <trkpt lat="45.68414" lon="3.10912">
        <ele>626</ele>
        <time>2019-06-23T06:12:04.000Z</time>
      </trkpt>
      <trkpt lat="45.68413" lon="3.10908">
        <ele>626</ele>
        <time>2019-06-23T06:12:05.000Z</time>
      </trkpt>
      <trkpt lat="45.68411" lon="3.10904">
        <ele>626</ele>
        <time>2019-06-23T06:12:06.000Z</time>
      </trkpt>
      <trkpt lat="45.6841" lon="3.10901">
        <ele>626</ele>
        <time>2019-06-23T06:12:07.000Z</time>
      </trkpt>
      <trkpt lat="45.68408" lon="3.10896">
        <ele>626</ele>
        <time>2019-06-23T06:12:08.000Z</time>
      </trkpt>
      <trkpt lat="45.68406" lon="3.10893">
        <ele>625</ele>
        <time>2019-06-23T06:12:09.000Z</time>
      </trkpt>
      <trkpt lat="45.68404" lon="3.10889">
        <ele>625</ele>
        <time>2019-06-23T06:12:10.000Z</time>
      </trkpt>
      <trkpt lat="45.68403" lon="3.10885">
        <ele>625</ele>
        <time>2019-06-23T06:12:11.000Z</time>
      </trkpt>
      <trkpt lat="45.68401" lon="3.10881">
        <ele>625</ele>
        <time>2019-06-23T06:12:12.000Z</time>
      </trkpt>
      <trkpt lat="45.68398" lon="3.10878">
        <ele>623</ele>
        <time>2019-06-23T06:12:13.000Z</time>
      </trkpt>
      <trkpt lat="45.68396" lon="3.10874">
        <ele>622</ele>
        <time>2019-06-23T06:12:14.000Z</time>
      </trkpt>
      <trkpt lat="45.68395" lon="3.1087">
        <ele>622</ele>
        <time>2019-06-23T06:12:15.000Z</time>
      </trkpt>
      <trkpt lat="45.68393" lon="3.10866">
        <ele>621</ele>
        <time>2019-06-23T06:12:16.000Z</time>
      </trkpt>
      <trkpt lat="45.68392" lon="3.10861">
        <ele>621</ele>
        <time>2019-06-23T06:12:17.000Z</time>
      </trkpt>
      <trkpt lat="45.68391" lon="3.10857">
        <ele>620</ele>
        <time>2019-06-23T06:12:18.000Z</time>
      </trkpt>
      <trkpt lat="45.6839" lon="3.10853">
        <ele>620</ele>
        <time>2019-06-23T06:12:19.000Z</time>
      </trkpt>
      <trkpt lat="45.68388" lon="3.10848">
        <ele>620</ele>
        <time>2019-06-23T06:12:20.000Z</time>
      </trkpt>
      <trkpt lat="45.68387" lon="3.10844">
        <ele>620</ele>
        <time>2019-06-23T06:12:21.000Z</time>
      </trkpt>
      <trkpt lat="45.68387" lon="3.10839">
        <ele>620</ele>
        <time>2019-06-23T06:12:22.000Z</time>
      </trkpt>
      <trkpt lat="45.68386" lon="3.10834">
        <ele>620</ele>
        <time>2019-06-23T06:12:23.000Z</time>
      </trkpt>
      <trkpt lat="45.68385" lon="3.1083">
        <ele>620</ele>
        <time>2019-06-23T06:12:24.000Z</time>
      </trkpt>
      <trkpt lat="45.68384" lon="3.10826">
        <ele>620</ele>
        <time>2019-06-23T06:12:25.000Z</time>
      </trkpt>
      <trkpt lat="45.68383" lon="3.10821">
        <ele>621</ele>
        <time>2019-06-23T06:12:26.000Z</time>
      </trkpt>
      <trkpt lat="45.68383" lon="3.10817">
        <ele>622</ele>
        <time>2019-06-23T06:12:27.000Z</time>
      </trkpt>
      <trkpt lat="45.68382" lon="3.10812">
        <ele>622</ele>
        <time>2019-06-23T06:12:28.000Z</time>
      </trkpt>
      <trkpt lat="45.68381" lon="3.10808">
        <ele>622</ele>
        <time>2019-06-23T06:12:29.000Z</time>
      </trkpt>
      <trkpt lat="45.68379" lon="3.10804">
        <ele>621</ele>
        <time>2019-06-23T06:12:30.000Z</time>
      </trkpt>
      <trkpt lat="45.68378" lon="3.10798">
        <ele>621</ele>
        <time>2019-06-23T06:12:31.000Z</time>
      </trkpt>
      <trkpt lat="45.68376" lon="3.10792">
        <ele>622</ele>
        <time>2019-06-23T06:12:32.000Z</time>
      </trkpt>
      <trkpt lat="45.68375" lon="3.10786">
        <ele>621</ele>
        <time>2019-06-23T06:12:33.000Z</time>
      </trkpt>
      <trkpt lat="45.68374" lon="3.1078">
        <ele>620</ele>
        <time>2019-06-23T06:12:34.000Z</time>
      </trkpt>
      <trkpt lat="45.68373" lon="3.10774">
        <ele>620</ele>
        <time>2019-06-23T06:12:35.000Z</time>
      </trkpt>
      <trkpt lat="45.68372" lon="3.10768">
        <ele>620</ele>
        <time>2019-06-23T06:12:36.000Z</time>
      </trkpt>
      <trkpt lat="45.6837" lon="3.1076">
        <ele>620</ele>
        <time>2019-06-23T06:12:37.000Z</time>
      </trkpt>
      <trkpt lat="45.68369" lon="3.10754">
        <ele>620</ele>
        <time>2019-06-23T06:12:38.000Z</time>
      </trkpt>
      <trkpt lat="45.68369" lon="3.10747">
        <ele>620</ele>
        <time>2019-06-23T06:12:39.000Z</time>
      </trkpt>
      <trkpt lat="45.68368" lon="3.1074">
        <ele>619</ele>
        <time>2019-06-23T06:12:40.000Z</time>
      </trkpt>
      <trkpt lat="45.68367" lon="3.10733">
        <ele>619</ele>
        <time>2019-06-23T06:12:41.000Z</time>
      </trkpt>
      <trkpt lat="45.68366" lon="3.10727">
        <ele>618</ele>
        <time>2019-06-23T06:12:42.000Z</time>
      </trkpt>
      <trkpt lat="45.68364" lon="3.10721">
        <ele>618</ele>
        <time>2019-06-23T06:12:43.000Z</time>
      </trkpt>
      <trkpt lat="45.68362" lon="3.10715">
        <ele>618</ele>
        <time>2019-06-23T06:12:44.000Z</time>
      </trkpt>
      <trkpt lat="45.68361" lon="3.10709">
        <ele>618</ele>
        <time>2019-06-23T06:12:45.000Z</time>
      </trkpt>
      <trkpt lat="45.68358" lon="3.10703">
        <ele>617</ele>
        <time>2019-06-23T06:12:46.000Z</time>
      </trkpt>
      <trkpt lat="45.68356" lon="3.10696">
        <ele>617</ele>
        <time>2019-06-23T06:12:47.000Z</time>
      </trkpt>
      <trkpt lat="45.68354" lon="3.1069">
        <ele>618</ele>
        <time>2019-06-23T06:12:48.000Z</time>
      </trkpt>
      <trkpt lat="45.68353" lon="3.10685">
        <ele>618</ele>
        <time>2019-06-23T06:12:49.000Z</time>
      </trkpt>
      <trkpt lat="45.68351" lon="3.1068">
        <ele>619</ele>
        <time>2019-06-23T06:12:50.000Z</time>
      </trkpt>
      <trkpt lat="45.6835" lon="3.10674">
        <ele>620</ele>
        <time>2019-06-23T06:12:51.000Z</time>
      </trkpt>
      <trkpt lat="45.68348" lon="3.1067">
        <ele>621</ele>
        <time>2019-06-23T06:12:52.000Z</time>
      </trkpt>
      <trkpt lat="45.68347" lon="3.10665">
        <ele>622</ele>
        <time>2019-06-23T06:12:53.000Z</time>
      </trkpt>
      <trkpt lat="45.68346" lon="3.1066">
        <ele>622</ele>
        <time>2019-06-23T06:12:54.000Z</time>
      </trkpt>
      <trkpt lat="45.68345" lon="3.10655">
        <ele>622</ele>
        <time>2019-06-23T06:12:55.000Z</time>
      </trkpt>
      <trkpt lat="45.68343" lon="3.10649">
        <ele>622</ele>
        <time>2019-06-23T06:12:56.000Z</time>
      </trkpt>
      <trkpt lat="45.68342" lon="3.10644">
        <ele>622</ele>
        <time>2019-06-23T06:12:57.000Z</time>
      </trkpt>
      <trkpt lat="45.68341" lon="3.10641">
        <ele>622</ele>
        <time>2019-06-23T06:12:58.000Z</time>
      </trkpt>
      <trkpt lat="45.6834" lon="3.10637">
        <ele>622</ele>
        <time>2019-06-23T06:12:59.000Z</time>
      </trkpt>
      <trkpt lat="45.68338" lon="3.10634">
        <ele>623</ele>
        <time>2019-06-23T06:13:00.000Z</time>
      </trkpt>
      <trkpt lat="45.68334" lon="3.1063">
        <ele>623</ele>
        <time>2019-06-23T06:13:01.000Z</time>
      </trkpt>
      <trkpt lat="45.68332" lon="3.10626">
        <ele>624</ele>
        <time>2019-06-23T06:13:02.000Z</time>
      </trkpt>
      <trkpt lat="45.68331" lon="3.10622">
        <ele>624</ele>
        <time>2019-06-23T06:13:03.000Z</time>
      </trkpt>
      <trkpt lat="45.68329" lon="3.10618">
        <ele>623</ele>
        <time>2019-06-23T06:13:04.000Z</time>
      </trkpt>
      <trkpt lat="45.68326" lon="3.10614">
        <ele>622</ele>
        <time>2019-06-23T06:13:05.000Z</time>
      </trkpt>
      <trkpt lat="45.68324" lon="3.10611">
        <ele>622</ele>
        <time>2019-06-23T06:13:06.000Z</time>
      </trkpt>
      <trkpt lat="45.68322" lon="3.10607">
        <ele>622</ele>
        <time>2019-06-23T06:13:07.000Z</time>
      </trkpt>
      <trkpt lat="45.68321" lon="3.10604">
        <ele>621</ele>
        <time>2019-06-23T06:13:08.000Z</time>
      </trkpt>
      <trkpt lat="45.68319" lon="3.106">
        <ele>620</ele>
        <time>2019-06-23T06:13:09.000Z</time>
      </trkpt>
      <trkpt lat="45.68317" lon="3.10596">
        <ele>621</ele>
        <time>2019-06-23T06:13:10.000Z</time>
      </trkpt>
      <trkpt lat="45.68316" lon="3.10592">
        <ele>621</ele>
        <time>2019-06-23T06:13:11.000Z</time>
      </trkpt>
      <trkpt lat="45.68315" lon="3.10588">
        <ele>622</ele>
        <time>2019-06-23T06:13:12.000Z</time>
      </trkpt>
      <trkpt lat="45.68314" lon="3.10584">
        <ele>624</ele>
        <time>2019-06-23T06:13:13.000Z</time>
      </trkpt>
      <trkpt lat="45.68314" lon="3.1058">
        <ele>624</ele>
        <time>2019-06-23T06:13:14.000Z</time>
      </trkpt>
      <trkpt lat="45.68313" lon="3.10576">
        <ele>625</ele>
        <time>2019-06-23T06:13:15.000Z</time>
      </trkpt>
      <trkpt lat="45.68312" lon="3.10572">
        <ele>625</ele>
        <time>2019-06-23T06:13:16.000Z</time>
      </trkpt>
      <trkpt lat="45.68311" lon="3.10569">
        <ele>625</ele>
        <time>2019-06-23T06:13:17.000Z</time>
      </trkpt>
      <trkpt lat="45.68311" lon="3.10565">
        <ele>625</ele>
        <time>2019-06-23T06:13:18.000Z</time>
      </trkpt>
      <trkpt lat="45.6831" lon="3.10561">
        <ele>625</ele>
        <time>2019-06-23T06:13:19.000Z</time>
      </trkpt>
      <trkpt lat="45.68309" lon="3.10557">
        <ele>625</ele>
        <time>2019-06-23T06:13:20.000Z</time>
      </trkpt>
      <trkpt lat="45.68308" lon="3.10553">
        <ele>625</ele>
        <time>2019-06-23T06:13:21.000Z</time>
      </trkpt>
      <trkpt lat="45.68307" lon="3.1055">
        <ele>625</ele>
        <time>2019-06-23T06:13:22.000Z</time>
      </trkpt>
      <trkpt lat="45.68308" lon="3.10545">
        <ele>625</ele>
        <time>2019-06-23T06:13:23.000Z</time>
      </trkpt>
      <trkpt lat="45.68307" lon="3.10541">
        <ele>625</ele>
        <time>2019-06-23T06:13:24.000Z</time>
      </trkpt>
      <trkpt lat="45.68307" lon="3.10536">
        <ele>625</ele>
        <time>2019-06-23T06:13:25.000Z</time>
      </trkpt>
      <trkpt lat="45.68306" lon="3.10531">
        <ele>626</ele>
        <time>2019-06-23T06:13:26.000Z</time>
      </trkpt>
      <trkpt lat="45.68305" lon="3.10526">
        <ele>626</ele>
        <time>2019-06-23T06:13:27.000Z</time>
      </trkpt>
      <trkpt lat="45.68305" lon="3.10521">
        <ele>626</ele>
        <time>2019-06-23T06:13:28.000Z</time>
      </trkpt>
      <trkpt lat="45.68305" lon="3.10516">
        <ele>626</ele>
        <time>2019-06-23T06:13:29.000Z</time>
      </trkpt>
      <trkpt lat="45.68305" lon="3.10512">
        <ele>626</ele>
        <time>2019-06-23T06:13:30.000Z</time>
      </trkpt>
      <trkpt lat="45.68307" lon="3.10507">
        <ele>626</ele>
        <time>2019-06-23T06:13:31.000Z</time>
      </trkpt>
      <trkpt lat="45.68307" lon="3.10502">
        <ele>628</ele>
        <time>2019-06-23T06:13:32.000Z</time>
      </trkpt>
      <trkpt lat="45.68305" lon="3.10499">
        <ele>627</ele>
        <time>2019-06-23T06:13:33.000Z</time>
      </trkpt>
      <trkpt lat="45.68305" lon="3.10496">
        <ele>627</ele>
        <time>2019-06-23T06:13:34.000Z</time>
      </trkpt>
      <trkpt lat="45.68307" lon="3.10488">
        <ele>627</ele>
        <time>2019-06-23T06:13:35.000Z</time>
      </trkpt>
      <trkpt lat="45.68309" lon="3.10482">
        <ele>626</ele>
        <time>2019-06-23T06:13:36.000Z</time>
      </trkpt>
      <trkpt lat="45.68309" lon="3.10476">
        <ele>627</ele>
        <time>2019-06-23T06:13:37.000Z</time>
      </trkpt>
      <trkpt lat="45.6831" lon="3.10469">
        <ele>628</ele>
        <time>2019-06-23T06:13:38.000Z</time>
      </trkpt>
      <trkpt lat="45.68311" lon="3.10463">
        <ele>629</ele>
        <time>2019-06-23T06:13:39.000Z</time>
      </trkpt>
      <trkpt lat="45.68311" lon="3.10457">
        <ele>629</ele>
        <time>2019-06-23T06:13:40.000Z</time>
      </trkpt>
      <trkpt lat="45.68311" lon="3.10453">
        <ele>629</ele>
        <time>2019-06-23T06:13:41.000Z</time>
      </trkpt>
      <trkpt lat="45.68311" lon="3.10449">
        <ele>630</ele>
        <time>2019-06-23T06:13:42.000Z</time>
      </trkpt>
      <trkpt lat="45.68311" lon="3.10444">
        <ele>631</ele>
        <time>2019-06-23T06:13:43.000Z</time>
      </trkpt>
      <trkpt lat="45.68311" lon="3.1044">
        <ele>632</ele>
        <time>2019-06-23T06:13:44.000Z</time>
      </trkpt>
      <trkpt lat="45.68311" lon="3.10435">
        <ele>632</ele>
        <time>2019-06-23T06:13:45.000Z</time>
      </trkpt>
      <trkpt lat="45.6831" lon="3.10429">
        <ele>632</ele>
        <time>2019-06-23T06:13:46.000Z</time>
      </trkpt>
      <trkpt lat="45.6831" lon="3.10423">
        <ele>631</ele>
        <time>2019-06-23T06:13:47.000Z</time>
      </trkpt>
      <trkpt lat="45.6831" lon="3.10418">
        <ele>632</ele>
        <time>2019-06-23T06:13:48.000Z</time>
      </trkpt>
      <trkpt lat="45.68309" lon="3.10412">
        <ele>630</ele>
        <time>2019-06-23T06:13:49.000Z</time>
      </trkpt>
      <trkpt lat="45.68308" lon="3.10405">
        <ele>629</ele>
        <time>2019-06-23T06:13:50.000Z</time>
      </trkpt>
      <trkpt lat="45.68308" lon="3.10399">
        <ele>628</ele>
        <time>2019-06-23T06:13:51.000Z</time>
      </trkpt>
      <trkpt lat="45.68305" lon="3.10391">
        <ele>626</ele>
        <time>2019-06-23T06:13:52.000Z</time>
      </trkpt>
      <trkpt lat="45.68305" lon="3.10385">
        <ele>626</ele>
        <time>2019-06-23T06:13:53.000Z</time>
      </trkpt>
      <trkpt lat="45.68304" lon="3.10378">
        <ele>627</ele>
        <time>2019-06-23T06:13:54.000Z</time>
      </trkpt>
      <trkpt lat="45.68303" lon="3.10372">
        <ele>627</ele>
        <time>2019-06-23T06:13:55.000Z</time>
      </trkpt>
      <trkpt lat="45.68302" lon="3.10365">
        <ele>627</ele>
        <time>2019-06-23T06:13:56.000Z</time>
      </trkpt>
      <trkpt lat="45.68302" lon="3.10357">
        <ele>628</ele>
        <time>2019-06-23T06:13:57.000Z</time>
      </trkpt>
      <trkpt lat="45.68302" lon="3.10351">
        <ele>629</ele>
        <time>2019-06-23T06:13:58.000Z</time>
      </trkpt>
      <trkpt lat="45.68302" lon="3.10344">
        <ele>629</ele>
        <time>2019-06-23T06:13:59.000Z</time>
      </trkpt>
      <trkpt lat="45.683" lon="3.10338">
        <ele>627</ele>
        <time>2019-06-23T06:14:00.000Z</time>
      </trkpt>
      <trkpt lat="45.68299" lon="3.10331">
        <ele>626</ele>
        <time>2019-06-23T06:14:01.000Z</time>
      </trkpt>
      <trkpt lat="45.683" lon="3.10324">
        <ele>627</ele>
        <time>2019-06-23T06:14:02.000Z</time>
      </trkpt>
      <trkpt lat="45.683" lon="3.10317">
        <ele>627</ele>
        <time>2019-06-23T06:14:03.000Z</time>
      </trkpt>
      <trkpt lat="45.68299" lon="3.10312">
        <ele>627</ele>
        <time>2019-06-23T06:14:04.000Z</time>
      </trkpt>
      <trkpt lat="45.68297" lon="3.10305">
        <ele>628</ele>
        <time>2019-06-23T06:14:05.000Z</time>
      </trkpt>
      <trkpt lat="45.68296" lon="3.10294">
        <ele>630</ele>
        <time>2019-06-23T06:14:06.000Z</time>
      </trkpt>
      <trkpt lat="45.68297" lon="3.10285">
        <ele>631</ele>
        <time>2019-06-23T06:14:07.000Z</time>
      </trkpt>
      <trkpt lat="45.68297" lon="3.10278">
        <ele>633</ele>
        <time>2019-06-23T06:14:08.000Z</time>
      </trkpt>
      <trkpt lat="45.68296" lon="3.10271">
        <ele>634</ele>
        <time>2019-06-23T06:14:09.000Z</time>
      </trkpt>
      <trkpt lat="45.68295" lon="3.10265">
        <ele>633</ele>
        <time>2019-06-23T06:14:10.000Z</time>
      </trkpt>
      <trkpt lat="45.68294" lon="3.10259">
        <ele>633</ele>
        <time>2019-06-23T06:14:11.000Z</time>
      </trkpt>
      <trkpt lat="45.68295" lon="3.10254">
        <ele>634</ele>
        <time>2019-06-23T06:14:12.000Z</time>
      </trkpt>
      <trkpt lat="45.68295" lon="3.10248">
        <ele>635</ele>
        <time>2019-06-23T06:14:13.000Z</time>
      </trkpt>
      <trkpt lat="45.68295" lon="3.10243">
        <ele>635</ele>
        <time>2019-06-23T06:14:14.000Z</time>
      </trkpt>
      <trkpt lat="45.68296" lon="3.10236">
        <ele>635</ele>
        <time>2019-06-23T06:14:15.000Z</time>
      </trkpt>
      <trkpt lat="45.68295" lon="3.10232">
        <ele>634</ele>
        <time>2019-06-23T06:14:16.000Z</time>
      </trkpt>
      <trkpt lat="45.68296" lon="3.10227">
        <ele>634</ele>
        <time>2019-06-23T06:14:17.000Z</time>
      </trkpt>
      <trkpt lat="45.68296" lon="3.10222">
        <ele>634</ele>
        <time>2019-06-23T06:14:18.000Z</time>
      </trkpt>
      <trkpt lat="45.68296" lon="3.10217">
        <ele>634</ele>
        <time>2019-06-23T06:14:19.000Z</time>
      </trkpt>
      <trkpt lat="45.68297" lon="3.10211">
        <ele>633</ele>
        <time>2019-06-23T06:14:20.000Z</time>
      </trkpt>
      <trkpt lat="45.68298" lon="3.10206">
        <ele>633</ele>
        <time>2019-06-23T06:14:21.000Z</time>
      </trkpt>
      <trkpt lat="45.68298" lon="3.10201">
        <ele>633</ele>
        <time>2019-06-23T06:14:22.000Z</time>
      </trkpt>
      <trkpt lat="45.683" lon="3.1019">
        <ele>634</ele>
        <time>2019-06-23T06:14:23.000Z</time>
      </trkpt>
      <trkpt lat="45.68301" lon="3.10182">
        <ele>634</ele>
        <time>2019-06-23T06:14:24.000Z</time>
      </trkpt>
      <trkpt lat="45.68303" lon="3.10174">
        <ele>631</ele>
        <time>2019-06-23T06:14:25.000Z</time>
      </trkpt>
      <trkpt lat="45.68305" lon="3.10165">
        <ele>632</ele>
        <time>2019-06-23T06:14:26.000Z</time>
      </trkpt>
      <trkpt lat="45.68308" lon="3.10156">
        <ele>631</ele>
        <time>2019-06-23T06:14:27.000Z</time>
      </trkpt>
      <trkpt lat="45.68313" lon="3.10141">
        <ele>628</ele>
        <time>2019-06-23T06:14:28.000Z</time>
      </trkpt>
      <trkpt lat="45.68317" lon="3.10128">
        <ele>628</ele>
        <time>2019-06-23T06:14:29.000Z</time>
      </trkpt>
      <trkpt lat="45.68318" lon="3.10119">
        <ele>629</ele>
        <time>2019-06-23T06:14:30.000Z</time>
      </trkpt>
      <trkpt lat="45.68319" lon="3.10109">
        <ele>630</ele>
        <time>2019-06-23T06:14:31.000Z</time>
      </trkpt>
      <trkpt lat="45.68319" lon="3.10101">
        <ele>631</ele>
        <time>2019-06-23T06:14:32.000Z</time>
      </trkpt>
      <trkpt lat="45.68319" lon="3.10094">
        <ele>631</ele>
        <time>2019-06-23T06:14:33.000Z</time>
      </trkpt>
      <trkpt lat="45.68319" lon="3.10088">
        <ele>633</ele>
        <time>2019-06-23T06:14:34.000Z</time>
      </trkpt>
      <trkpt lat="45.68318" lon="3.10083">
        <ele>633</ele>
        <time>2019-06-23T06:14:35.000Z</time>
      </trkpt>
      <trkpt lat="45.68317" lon="3.10077">
        <ele>632</ele>
        <time>2019-06-23T06:14:36.000Z</time>
      </trkpt>
      <trkpt lat="45.68316" lon="3.10072">
        <ele>632</ele>
        <time>2019-06-23T06:14:37.000Z</time>
      </trkpt>
      <trkpt lat="45.68315" lon="3.10067">
        <ele>632</ele>
        <time>2019-06-23T06:14:38.000Z</time>
      </trkpt>
      <trkpt lat="45.68314" lon="3.10061">
        <ele>631</ele>
        <time>2019-06-23T06:14:39.000Z</time>
      </trkpt>
      <trkpt lat="45.68314" lon="3.10056">
        <ele>631</ele>
        <time>2019-06-23T06:14:40.000Z</time>
      </trkpt>
      <trkpt lat="45.68314" lon="3.10052">
        <ele>631</ele>
        <time>2019-06-23T06:14:41.000Z</time>
      </trkpt>
      <trkpt lat="45.68313" lon="3.10046">
        <ele>633</ele>
        <time>2019-06-23T06:14:42.000Z</time>
      </trkpt>
      <trkpt lat="45.68313" lon="3.10042">
        <ele>634</ele>
        <time>2019-06-23T06:14:43.000Z</time>
      </trkpt>
      <trkpt lat="45.68313" lon="3.10037">
        <ele>636</ele>
        <time>2019-06-23T06:14:44.000Z</time>
      </trkpt>
      <trkpt lat="45.68315" lon="3.10031">
        <ele>636</ele>
        <time>2019-06-23T06:14:45.000Z</time>
      </trkpt>
      <trkpt lat="45.68316" lon="3.10025">
        <ele>636</ele>
        <time>2019-06-23T06:14:46.000Z</time>
      </trkpt>
      <trkpt lat="45.68317" lon="3.1002">
        <ele>638</ele>
        <time>2019-06-23T06:14:47.000Z</time>
      </trkpt>
      <trkpt lat="45.68317" lon="3.10011">
        <ele>640</ele>
        <time>2019-06-23T06:14:48.000Z</time>
      </trkpt>
      <trkpt lat="45.68318" lon="3.10003">
        <ele>645</ele>
        <time>2019-06-23T06:14:49.000Z</time>
      </trkpt>
      <trkpt lat="45.68321" lon="3.09997">
        <ele>648</ele>
        <time>2019-06-23T06:14:50.000Z</time>
      </trkpt>
      <trkpt lat="45.68323" lon="3.0999">
        <ele>650</ele>
        <time>2019-06-23T06:14:51.000Z</time>
      </trkpt>
      <trkpt lat="45.68325" lon="3.09985">
        <ele>650</ele>
        <time>2019-06-23T06:14:52.000Z</time>
      </trkpt>
      <trkpt lat="45.68322" lon="3.0998">
        <ele>646</ele>
        <time>2019-06-23T06:14:53.000Z</time>
      </trkpt>
      <trkpt lat="45.6832" lon="3.09975">
        <ele>643</ele>
        <time>2019-06-23T06:14:54.000Z</time>
      </trkpt>
      <trkpt lat="45.6832" lon="3.0997">
        <ele>641</ele>
        <time>2019-06-23T06:14:55.000Z</time>
      </trkpt>
      <trkpt lat="45.68319" lon="3.09965">
        <ele>639</ele>
        <time>2019-06-23T06:14:56.000Z</time>
      </trkpt>
      <trkpt lat="45.68318" lon="3.0996">
        <ele>638</ele>
        <time>2019-06-23T06:14:57.000Z</time>
      </trkpt>
      <trkpt lat="45.68316" lon="3.09955">
        <ele>636</ele>
        <time>2019-06-23T06:14:58.000Z</time>
      </trkpt>
      <trkpt lat="45.68316" lon="3.09949">
        <ele>637</ele>
        <time>2019-06-23T06:14:59.000Z</time>
      </trkpt>
      <trkpt lat="45.68316" lon="3.09945">
        <ele>637</ele>
        <time>2019-06-23T06:15:00.000Z</time>
      </trkpt>
      <trkpt lat="45.68316" lon="3.09941">
        <ele>637</ele>
        <time>2019-06-23T06:15:01.000Z</time>
      </trkpt>
      <trkpt lat="45.68315" lon="3.09937">
        <ele>638</ele>
        <time>2019-06-23T06:15:02.000Z</time>
      </trkpt>
      <trkpt lat="45.68316" lon="3.09933">
        <ele>637</ele>
        <time>2019-06-23T06:15:03.000Z</time>
      </trkpt>
      <trkpt lat="45.68315" lon="3.09928">
        <ele>637</ele>
        <time>2019-06-23T06:15:04.000Z</time>
      </trkpt>
      <trkpt lat="45.68315" lon="3.09924">
        <ele>636</ele>
        <time>2019-06-23T06:15:05.000Z</time>
      </trkpt>
      <trkpt lat="45.68315" lon="3.09919">
        <ele>636</ele>
        <time>2019-06-23T06:15:06.000Z</time>
      </trkpt>
      <trkpt lat="45.68315" lon="3.09916">
        <ele>635</ele>
        <time>2019-06-23T06:15:07.000Z</time>
      </trkpt>
      <trkpt lat="45.68315" lon="3.09913">
        <ele>635</ele>
        <time>2019-06-23T06:15:08.000Z</time>
      </trkpt>
      <trkpt lat="45.68315" lon="3.0991">
        <ele>635</ele>
        <time>2019-06-23T06:15:09.000Z</time>
      </trkpt>
      <trkpt lat="45.68316" lon="3.09907">
        <ele>635</ele>
        <time>2019-06-23T06:15:10.000Z</time>
      </trkpt>
      <trkpt lat="45.68314" lon="3.09901">
        <ele>633</ele>
        <time>2019-06-23T06:15:11.000Z</time>
      </trkpt>
      <trkpt lat="45.68315" lon="3.09897">
        <ele>634</ele>
        <time>2019-06-23T06:15:12.000Z</time>
      </trkpt>
      <trkpt lat="45.68316" lon="3.09893">
        <ele>634</ele>
        <time>2019-06-23T06:15:13.000Z</time>
      </trkpt>
      <trkpt lat="45.68317" lon="3.09889">
        <ele>633</ele>
        <time>2019-06-23T06:15:14.000Z</time>
      </trkpt>
      <trkpt lat="45.68319" lon="3.09885">
        <ele>633</ele>
        <time>2019-06-23T06:15:15.000Z</time>
      </trkpt>
      <trkpt lat="45.68321" lon="3.0988">
        <ele>634</ele>
        <time>2019-06-23T06:15:16.000Z</time>
      </trkpt>
      <trkpt lat="45.68324" lon="3.09875">
        <ele>635</ele>
        <time>2019-06-23T06:15:17.000Z</time>
      </trkpt>
      <trkpt lat="45.68328" lon="3.09869">
        <ele>635</ele>
        <time>2019-06-23T06:15:18.000Z</time>
      </trkpt>
      <trkpt lat="45.6833" lon="3.09864">
        <ele>635</ele>
        <time>2019-06-23T06:15:19.000Z</time>
      </trkpt>
      <trkpt lat="45.68333" lon="3.09859">
        <ele>636</ele>
        <time>2019-06-23T06:15:20.000Z</time>
      </trkpt>
      <trkpt lat="45.68336" lon="3.09854">
        <ele>637</ele>
        <time>2019-06-23T06:15:21.000Z</time>
      </trkpt>
      <trkpt lat="45.68339" lon="3.09849">
        <ele>637</ele>
        <time>2019-06-23T06:15:22.000Z</time>
      </trkpt>
      <trkpt lat="45.68341" lon="3.09843">
        <ele>638</ele>
        <time>2019-06-23T06:15:23.000Z</time>
      </trkpt>
      <trkpt lat="45.68343" lon="3.09838">
        <ele>638</ele>
        <time>2019-06-23T06:15:24.000Z</time>
      </trkpt>
      <trkpt lat="45.68346" lon="3.09833">
        <ele>638</ele>
        <time>2019-06-23T06:15:25.000Z</time>
      </trkpt>
      <trkpt lat="45.68347" lon="3.09829">
        <ele>638</ele>
        <time>2019-06-23T06:15:26.000Z</time>
      </trkpt>
      <trkpt lat="45.68349" lon="3.09824">
        <ele>639</ele>
        <time>2019-06-23T06:15:27.000Z</time>
      </trkpt>
      <trkpt lat="45.68352" lon="3.09817">
        <ele>640</ele>
        <time>2019-06-23T06:15:28.000Z</time>
      </trkpt>
      <trkpt lat="45.68353" lon="3.09813">
        <ele>640</ele>
        <time>2019-06-23T06:15:29.000Z</time>
      </trkpt>
      <trkpt lat="45.68356" lon="3.09808">
        <ele>640</ele>
        <time>2019-06-23T06:15:30.000Z</time>
      </trkpt>
      <trkpt lat="45.68359" lon="3.09802">
        <ele>640</ele>
        <time>2019-06-23T06:15:31.000Z</time>
      </trkpt>
      <trkpt lat="45.68361" lon="3.09797">
        <ele>639</ele>
        <time>2019-06-23T06:15:32.000Z</time>
      </trkpt>
      <trkpt lat="45.68363" lon="3.0979">
        <ele>637</ele>
        <time>2019-06-23T06:15:33.000Z</time>
      </trkpt>
      <trkpt lat="45.68365" lon="3.09784">
        <ele>636</ele>
        <time>2019-06-23T06:15:34.000Z</time>
      </trkpt>
      <trkpt lat="45.68366" lon="3.09779">
        <ele>636</ele>
        <time>2019-06-23T06:15:35.000Z</time>
      </trkpt>
      <trkpt lat="45.6837" lon="3.0977">
        <ele>635</ele>
        <time>2019-06-23T06:15:36.000Z</time>
      </trkpt>
      <trkpt lat="45.68372" lon="3.09763">
        <ele>635</ele>
        <time>2019-06-23T06:15:37.000Z</time>
      </trkpt>
      <trkpt lat="45.68373" lon="3.09756">
        <ele>634</ele>
        <time>2019-06-23T06:15:38.000Z</time>
      </trkpt>
      <trkpt lat="45.68379" lon="3.09745">
        <ele>633</ele>
        <time>2019-06-23T06:15:39.000Z</time>
      </trkpt>
      <trkpt lat="45.68382" lon="3.09736">
        <ele>632</ele>
        <time>2019-06-23T06:15:40.000Z</time>
      </trkpt>
      <trkpt lat="45.68385" lon="3.09727">
        <ele>631</ele>
        <time>2019-06-23T06:15:41.000Z</time>
      </trkpt>
      <trkpt lat="45.68388" lon="3.0972">
        <ele>631</ele>
        <time>2019-06-23T06:15:42.000Z</time>
      </trkpt>
      <trkpt lat="45.68389" lon="3.09711">
        <ele>630</ele>
        <time>2019-06-23T06:15:43.000Z</time>
      </trkpt>
      <trkpt lat="45.68392" lon="3.09703">
        <ele>630</ele>
        <time>2019-06-23T06:15:44.000Z</time>
      </trkpt>
      <trkpt lat="45.68394" lon="3.09694">
        <ele>630</ele>
        <time>2019-06-23T06:15:45.000Z</time>
      </trkpt>
      <trkpt lat="45.68395" lon="3.09683">
        <ele>629</ele>
        <time>2019-06-23T06:15:46.000Z</time>
      </trkpt>
      <trkpt lat="45.68396" lon="3.09673">
        <ele>629</ele>
        <time>2019-06-23T06:15:47.000Z</time>
      </trkpt>
      <trkpt lat="45.68397" lon="3.09664">
        <ele>628</ele>
        <time>2019-06-23T06:15:48.000Z</time>
      </trkpt>
      <trkpt lat="45.68397" lon="3.09655">
        <ele>629</ele>
        <time>2019-06-23T06:15:49.000Z</time>
      </trkpt>
      <trkpt lat="45.68398" lon="3.09646">
        <ele>628</ele>
        <time>2019-06-23T06:15:50.000Z</time>
      </trkpt>
      <trkpt lat="45.68399" lon="3.09638">
        <ele>628</ele>
        <time>2019-06-23T06:15:51.000Z</time>
      </trkpt>
      <trkpt lat="45.68399" lon="3.0963">
        <ele>626</ele>
        <time>2019-06-23T06:15:52.000Z</time>
      </trkpt>
      <trkpt lat="45.68399" lon="3.09622">
        <ele>624</ele>
        <time>2019-06-23T06:15:53.000Z</time>
      </trkpt>
      <trkpt lat="45.68397" lon="3.09613">
        <ele>624</ele>
        <time>2019-06-23T06:15:54.000Z</time>
      </trkpt>
      <trkpt lat="45.68397" lon="3.09606">
        <ele>625</ele>
        <time>2019-06-23T06:15:55.000Z</time>
      </trkpt>
      <trkpt lat="45.68397" lon="3.096">
        <ele>626</ele>
        <time>2019-06-23T06:15:56.000Z</time>
      </trkpt>
      <trkpt lat="45.68398" lon="3.09594">
        <ele>627</ele>
        <time>2019-06-23T06:15:57.000Z</time>
      </trkpt>
      <trkpt lat="45.68398" lon="3.09587">
        <ele>627</ele>
        <time>2019-06-23T06:15:58.000Z</time>
      </trkpt>
      <trkpt lat="45.68398" lon="3.09582">
        <ele>627</ele>
        <time>2019-06-23T06:15:59.000Z</time>
      </trkpt>
      <trkpt lat="45.68399" lon="3.09576">
        <ele>627</ele>
        <time>2019-06-23T06:16:00.000Z</time>
      </trkpt>
      <trkpt lat="45.68398" lon="3.09571">
        <ele>626</ele>
        <time>2019-06-23T06:16:01.000Z</time>
      </trkpt>
      <trkpt lat="45.68398" lon="3.09566">
        <ele>626</ele>
        <time>2019-06-23T06:16:02.000Z</time>
      </trkpt>
      <trkpt lat="45.68398" lon="3.09561">
        <ele>626</ele>
        <time>2019-06-23T06:16:03.000Z</time>
      </trkpt>
      <trkpt lat="45.68398" lon="3.09556">
        <ele>626</ele>
        <time>2019-06-23T06:16:04.000Z</time>
      </trkpt>
      <trkpt lat="45.68399" lon="3.09551">
        <ele>626</ele>
        <time>2019-06-23T06:16:05.000Z</time>
      </trkpt>
      <trkpt lat="45.684" lon="3.09548">
        <ele>626</ele>
        <time>2019-06-23T06:16:06.000Z</time>
      </trkpt>
      <trkpt lat="45.68399" lon="3.09544">
        <ele>627</ele>
        <time>2019-06-23T06:16:07.000Z</time>
      </trkpt>
      <trkpt lat="45.68397" lon="3.09539">
        <ele>630</ele>
        <time>2019-06-23T06:16:08.000Z</time>
      </trkpt>
      <trkpt lat="45.68395" lon="3.09535">
        <ele>631</ele>
        <time>2019-06-23T06:16:09.000Z</time>
      </trkpt>
      <trkpt lat="45.68393" lon="3.09532">
        <ele>632</ele>
        <time>2019-06-23T06:16:10.000Z</time>
      </trkpt>
      <trkpt lat="45.6839" lon="3.09532">
        <ele>633</ele>
        <time>2019-06-23T06:16:11.000Z</time>
      </trkpt>
      <trkpt lat="45.68389" lon="3.0953">
        <ele>634</ele>
        <time>2019-06-23T06:16:12.000Z</time>
      </trkpt>
      <trkpt lat="45.68387" lon="3.09529">
        <ele>634</ele>
        <time>2019-06-23T06:16:13.000Z</time>
      </trkpt>
      <trkpt lat="45.68385" lon="3.09527">
        <ele>635</ele>
        <time>2019-06-23T06:16:14.000Z</time>
      </trkpt>
      <trkpt lat="45.68384" lon="3.09526">
        <ele>635</ele>
        <time>2019-06-23T06:16:15.000Z</time>
      </trkpt>
      <trkpt lat="45.68381" lon="3.09524">
        <ele>635</ele>
        <time>2019-06-23T06:16:16.000Z</time>
      </trkpt>
      <trkpt lat="45.68379" lon="3.09523">
        <ele>635</ele>
        <time>2019-06-23T06:16:17.000Z</time>
      </trkpt>
      <trkpt lat="45.68379" lon="3.09522">
        <ele>636</ele>
        <time>2019-06-23T06:16:18.000Z</time>
      </trkpt>
      <trkpt lat="45.68377" lon="3.09519">
        <ele>636</ele>
        <time>2019-06-23T06:16:19.000Z</time>
      </trkpt>
      <trkpt lat="45.68374" lon="3.09517">
        <ele>635</ele>
        <time>2019-06-23T06:16:20.000Z</time>
      </trkpt>
      <trkpt lat="45.68372" lon="3.09515">
        <ele>634</ele>
        <time>2019-06-23T06:16:21.000Z</time>
      </trkpt>
      <trkpt lat="45.68371" lon="3.09512">
        <ele>636</ele>
        <time>2019-06-23T06:16:22.000Z</time>
      </trkpt>
      <trkpt lat="45.68368" lon="3.0951">
        <ele>637</ele>
        <time>2019-06-23T06:16:23.000Z</time>
      </trkpt>
      <trkpt lat="45.68366" lon="3.09508">
        <ele>637</ele>
        <time>2019-06-23T06:16:24.000Z</time>
      </trkpt>
      <trkpt lat="45.68365" lon="3.09506">
        <ele>638</ele>
        <time>2019-06-23T06:16:25.000Z</time>
      </trkpt>
      <trkpt lat="45.68362" lon="3.09504">
        <ele>637</ele>
        <time>2019-06-23T06:16:26.000Z</time>
      </trkpt>
      <trkpt lat="45.68358" lon="3.09501">
        <ele>635</ele>
        <time>2019-06-23T06:16:27.000Z</time>
      </trkpt>
      <trkpt lat="45.68355" lon="3.09498">
        <ele>634</ele>
        <time>2019-06-23T06:16:28.000Z</time>
      </trkpt>
      <trkpt lat="45.68353" lon="3.09495">
        <ele>634</ele>
        <time>2019-06-23T06:16:29.000Z</time>
      </trkpt>
      <trkpt lat="45.68352" lon="3.09493">
        <ele>635</ele>
        <time>2019-06-23T06:16:30.000Z</time>
      </trkpt>
      <trkpt lat="45.68352" lon="3.0949">
        <ele>635</ele>
        <time>2019-06-23T06:16:31.000Z</time>
      </trkpt>
      <trkpt lat="45.68348" lon="3.09487">
        <ele>633</ele>
        <time>2019-06-23T06:16:32.000Z</time>
      </trkpt>
      <trkpt lat="45.68345" lon="3.09485">
        <ele>631</ele>
        <time>2019-06-23T06:16:33.000Z</time>
      </trkpt>
      <trkpt lat="45.68342" lon="3.09481">
        <ele>629</ele>
        <time>2019-06-23T06:16:34.000Z</time>
      </trkpt>
      <trkpt lat="45.68339" lon="3.09478">
        <ele>628</ele>
        <time>2019-06-23T06:16:35.000Z</time>
      </trkpt>
      <trkpt lat="45.68338" lon="3.09475">
        <ele>628</ele>
        <time>2019-06-23T06:16:36.000Z</time>
      </trkpt>
      <trkpt lat="45.68337" lon="3.09471">
        <ele>629</ele>
        <time>2019-06-23T06:16:37.000Z</time>
      </trkpt>
      <trkpt lat="45.68336" lon="3.09469">
        <ele>629</ele>
        <time>2019-06-23T06:16:38.000Z</time>
      </trkpt>
      <trkpt lat="45.68336" lon="3.09465">
        <ele>630</ele>
        <time>2019-06-23T06:16:39.000Z</time>
      </trkpt>
      <trkpt lat="45.68335" lon="3.09463">
        <ele>631</ele>
        <time>2019-06-23T06:16:40.000Z</time>
      </trkpt>
      <trkpt lat="45.68335" lon="3.0946">
        <ele>632</ele>
        <time>2019-06-23T06:16:41.000Z</time>
      </trkpt>
      <trkpt lat="45.68334" lon="3.09457">
        <ele>632</ele>
        <time>2019-06-23T06:16:42.000Z</time>
      </trkpt>
      <trkpt lat="45.68334" lon="3.09454">
        <ele>633</ele>
        <time>2019-06-23T06:16:43.000Z</time>
      </trkpt>
      <trkpt lat="45.68333" lon="3.09451">
        <ele>635</ele>
        <time>2019-06-23T06:16:44.000Z</time>
      </trkpt>
      <trkpt lat="45.68333" lon="3.09449">
        <ele>635</ele>
        <time>2019-06-23T06:16:45.000Z</time>
      </trkpt>
      <trkpt lat="45.68332" lon="3.09447">
        <ele>636</ele>
        <time>2019-06-23T06:16:46.000Z</time>
      </trkpt>
      <trkpt lat="45.68332" lon="3.09445">
        <ele>637</ele>
        <time>2019-06-23T06:16:47.000Z</time>
      </trkpt>
      <trkpt lat="45.68331" lon="3.09442">
        <ele>637</ele>
        <time>2019-06-23T06:16:48.000Z</time>
      </trkpt>
      <trkpt lat="45.6833" lon="3.0944">
        <ele>638</ele>
        <time>2019-06-23T06:16:49.000Z</time>
      </trkpt>
      <trkpt lat="45.6833" lon="3.09437">
        <ele>639</ele>
        <time>2019-06-23T06:16:50.000Z</time>
      </trkpt>
      <trkpt lat="45.68329" lon="3.09435">
        <ele>639</ele>
        <time>2019-06-23T06:16:51.000Z</time>
      </trkpt>
      <trkpt lat="45.68327" lon="3.09432">
        <ele>639</ele>
        <time>2019-06-23T06:16:52.000Z</time>
      </trkpt>
      <trkpt lat="45.68326" lon="3.09429">
        <ele>638</ele>
        <time>2019-06-23T06:16:53.000Z</time>
      </trkpt>
      <trkpt lat="45.68325" lon="3.09427">
        <ele>638</ele>
        <time>2019-06-23T06:16:54.000Z</time>
      </trkpt>
      <trkpt lat="45.68324" lon="3.09424">
        <ele>638</ele>
        <time>2019-06-23T06:16:55.000Z</time>
      </trkpt>
      <trkpt lat="45.68323" lon="3.09421">
        <ele>638</ele>
        <time>2019-06-23T06:16:56.000Z</time>
      </trkpt>
      <trkpt lat="45.68323" lon="3.09417">
        <ele>638</ele>
        <time>2019-06-23T06:16:57.000Z</time>
      </trkpt>
      <trkpt lat="45.68322" lon="3.09414">
        <ele>638</ele>
        <time>2019-06-23T06:16:58.000Z</time>
      </trkpt>
      <trkpt lat="45.6832" lon="3.09411">
        <ele>638</ele>
        <time>2019-06-23T06:16:59.000Z</time>
      </trkpt>
      <trkpt lat="45.68318" lon="3.09408">
        <ele>638</ele>
        <time>2019-06-23T06:17:00.000Z</time>
      </trkpt>
      <trkpt lat="45.68317" lon="3.09404">
        <ele>637</ele>
        <time>2019-06-23T06:17:01.000Z</time>
      </trkpt>
      <trkpt lat="45.68316" lon="3.09401">
        <ele>635</ele>
        <time>2019-06-23T06:17:02.000Z</time>
      </trkpt>
      <trkpt lat="45.68314" lon="3.09397">
        <ele>635</ele>
        <time>2019-06-23T06:17:03.000Z</time>
      </trkpt>
      <trkpt lat="45.68313" lon="3.09393">
        <ele>636</ele>
        <time>2019-06-23T06:17:04.000Z</time>
      </trkpt>
      <trkpt lat="45.68312" lon="3.09389">
        <ele>637</ele>
        <time>2019-06-23T06:17:05.000Z</time>
      </trkpt>
      <trkpt lat="45.68312" lon="3.09385">
        <ele>638</ele>
        <time>2019-06-23T06:17:06.000Z</time>
      </trkpt>
      <trkpt lat="45.68311" lon="3.09381">
        <ele>638</ele>
        <time>2019-06-23T06:17:07.000Z</time>
      </trkpt>
      <trkpt lat="45.6831" lon="3.09377">
        <ele>637</ele>
        <time>2019-06-23T06:17:08.000Z</time>
      </trkpt>
      <trkpt lat="45.68309" lon="3.09373">
        <ele>638</ele>
        <time>2019-06-23T06:17:09.000Z</time>
      </trkpt>
      <trkpt lat="45.68308" lon="3.09369">
        <ele>638</ele>
        <time>2019-06-23T06:17:10.000Z</time>
      </trkpt>
      <trkpt lat="45.68307" lon="3.09366">
        <ele>637</ele>
        <time>2019-06-23T06:17:11.000Z</time>
      </trkpt>
      <trkpt lat="45.68306" lon="3.09362">
        <ele>637</ele>
        <time>2019-06-23T06:17:12.000Z</time>
      </trkpt>
      <trkpt lat="45.68305" lon="3.09358">
        <ele>636</ele>
        <time>2019-06-23T06:17:13.000Z</time>
      </trkpt>
      <trkpt lat="45.68303" lon="3.09355">
        <ele>635</ele>
        <time>2019-06-23T06:17:14.000Z</time>
      </trkpt>
      <trkpt lat="45.68302" lon="3.09351">
        <ele>635</ele>
        <time>2019-06-23T06:17:15.000Z</time>
      </trkpt>
      <trkpt lat="45.68302" lon="3.09347">
        <ele>636</ele>
        <time>2019-06-23T06:17:16.000Z</time>
      </trkpt>
      <trkpt lat="45.68302" lon="3.09343">
        <ele>636</ele>
        <time>2019-06-23T06:17:17.000Z</time>
      </trkpt>
      <trkpt lat="45.68302" lon="3.09339">
        <ele>636</ele>
        <time>2019-06-23T06:17:18.000Z</time>
      </trkpt>
      <trkpt lat="45.68301" lon="3.09335">
        <ele>636</ele>
        <time>2019-06-23T06:17:19.000Z</time>
      </trkpt>
      <trkpt lat="45.68299" lon="3.09331">
        <ele>635</ele>
        <time>2019-06-23T06:17:20.000Z</time>
      </trkpt>
      <trkpt lat="45.68298" lon="3.09327">
        <ele>635</ele>
        <time>2019-06-23T06:17:21.000Z</time>
      </trkpt>
      <trkpt lat="45.68298" lon="3.09323">
        <ele>635</ele>
        <time>2019-06-23T06:17:22.000Z</time>
      </trkpt>
      <trkpt lat="45.68297" lon="3.09319">
        <ele>635</ele>
        <time>2019-06-23T06:17:23.000Z</time>
      </trkpt>
      <trkpt lat="45.68297" lon="3.09314">
        <ele>636</ele>
        <time>2019-06-23T06:17:24.000Z</time>
      </trkpt>
      <trkpt lat="45.68296" lon="3.0931">
        <ele>637</ele>
        <time>2019-06-23T06:17:25.000Z</time>
      </trkpt>
      <trkpt lat="45.68296" lon="3.09305">
        <ele>637</ele>
        <time>2019-06-23T06:17:26.000Z</time>
      </trkpt>
      <trkpt lat="45.68296" lon="3.093">
        <ele>637</ele>
        <time>2019-06-23T06:17:27.000Z</time>
      </trkpt>
      <trkpt lat="45.68296" lon="3.09296">
        <ele>638</ele>
        <time>2019-06-23T06:17:28.000Z</time>
      </trkpt>
      <trkpt lat="45.68296" lon="3.09291">
        <ele>638</ele>
        <time>2019-06-23T06:17:29.000Z</time>
      </trkpt>
      <trkpt lat="45.68296" lon="3.09287">
        <ele>639</ele>
        <time>2019-06-23T06:17:30.000Z</time>
      </trkpt>
      <trkpt lat="45.68296" lon="3.09282">
        <ele>639</ele>
        <time>2019-06-23T06:17:31.000Z</time>
      </trkpt>
      <trkpt lat="45.68296" lon="3.09278">
        <ele>640</ele>
        <time>2019-06-23T06:17:32.000Z</time>
      </trkpt>
      <trkpt lat="45.68296" lon="3.09275">
        <ele>640</ele>
        <time>2019-06-23T06:17:33.000Z</time>
      </trkpt>
      <trkpt lat="45.68297" lon="3.09271">
        <ele>641</ele>
        <time>2019-06-23T06:17:34.000Z</time>
      </trkpt>
      <trkpt lat="45.68297" lon="3.09267">
        <ele>641</ele>
        <time>2019-06-23T06:17:35.000Z</time>
      </trkpt>
      <trkpt lat="45.68298" lon="3.09263">
        <ele>642</ele>
        <time>2019-06-23T06:17:36.000Z</time>
      </trkpt>
      <trkpt lat="45.68298" lon="3.0926">
        <ele>643</ele>
        <time>2019-06-23T06:17:37.000Z</time>
      </trkpt>
      <trkpt lat="45.68298" lon="3.09257">
        <ele>643</ele>
        <time>2019-06-23T06:17:38.000Z</time>
      </trkpt>
      <trkpt lat="45.68299" lon="3.09254">
        <ele>644</ele>
        <time>2019-06-23T06:17:39.000Z</time>
      </trkpt>
      <trkpt lat="45.68299" lon="3.09251">
        <ele>644</ele>
        <time>2019-06-23T06:17:40.000Z</time>
      </trkpt>
      <trkpt lat="45.68298" lon="3.09248">
        <ele>644</ele>
        <time>2019-06-23T06:17:41.000Z</time>
      </trkpt>
      <trkpt lat="45.68299" lon="3.09245">
        <ele>644</ele>
        <time>2019-06-23T06:17:42.000Z</time>
      </trkpt>
      <trkpt lat="45.68298" lon="3.09242">
        <ele>644</ele>
        <time>2019-06-23T06:17:43.000Z</time>
      </trkpt>
      <trkpt lat="45.68299" lon="3.09239">
        <ele>645</ele>
        <time>2019-06-23T06:17:44.000Z</time>
      </trkpt>
      <trkpt lat="45.68299" lon="3.09236">
        <ele>645</ele>
        <time>2019-06-23T06:17:45.000Z</time>
      </trkpt>
      <trkpt lat="45.68299" lon="3.09233">
        <ele>645</ele>
        <time>2019-06-23T06:17:46.000Z</time>
      </trkpt>
      <trkpt lat="45.68299" lon="3.0923">
        <ele>646</ele>
        <time>2019-06-23T06:17:47.000Z</time>
      </trkpt>
      <trkpt lat="45.68298" lon="3.09227">
        <ele>646</ele>
        <time>2019-06-23T06:17:48.000Z</time>
      </trkpt>
      <trkpt lat="45.68298" lon="3.09224">
        <ele>647</ele>
        <time>2019-06-23T06:17:49.000Z</time>
      </trkpt>
      <trkpt lat="45.68298" lon="3.0922">
        <ele>647</ele>
        <time>2019-06-23T06:17:50.000Z</time>
      </trkpt>
      <trkpt lat="45.68298" lon="3.09216">
        <ele>646</ele>
        <time>2019-06-23T06:17:51.000Z</time>
      </trkpt>
      <trkpt lat="45.68298" lon="3.09212">
        <ele>647</ele>
        <time>2019-06-23T06:17:52.000Z</time>
      </trkpt>
      <trkpt lat="45.68298" lon="3.09208">
        <ele>647</ele>
        <time>2019-06-23T06:17:53.000Z</time>
      </trkpt>
      <trkpt lat="45.68298" lon="3.09203">
        <ele>648</ele>
        <time>2019-06-23T06:17:54.000Z</time>
      </trkpt>
      <trkpt lat="45.68299" lon="3.09201">
        <ele>649</ele>
        <time>2019-06-23T06:17:55.000Z</time>
      </trkpt>
      <trkpt lat="45.683" lon="3.09196">
        <ele>649</ele>
        <time>2019-06-23T06:17:56.000Z</time>
      </trkpt>
      <trkpt lat="45.68301" lon="3.09193">
        <ele>650</ele>
        <time>2019-06-23T06:17:57.000Z</time>
      </trkpt>
      <trkpt lat="45.68301" lon="3.09188">
        <ele>649</ele>
        <time>2019-06-23T06:17:58.000Z</time>
      </trkpt>
      <trkpt lat="45.68302" lon="3.09184">
        <ele>650</ele>
        <time>2019-06-23T06:17:59.000Z</time>
      </trkpt>
      <trkpt lat="45.68302" lon="3.0918">
        <ele>651</ele>
        <time>2019-06-23T06:18:00.000Z</time>
      </trkpt>
      <trkpt lat="45.68302" lon="3.09175">
        <ele>651</ele>
        <time>2019-06-23T06:18:01.000Z</time>
      </trkpt>
      <trkpt lat="45.68303" lon="3.09171">
        <ele>653</ele>
        <time>2019-06-23T06:18:02.000Z</time>
      </trkpt>
      <trkpt lat="45.68303" lon="3.09167">
        <ele>653</ele>
        <time>2019-06-23T06:18:03.000Z</time>
      </trkpt>
      <trkpt lat="45.68303" lon="3.09163">
        <ele>654</ele>
        <time>2019-06-23T06:18:04.000Z</time>
      </trkpt>
      <trkpt lat="45.68303" lon="3.09159">
        <ele>653</ele>
        <time>2019-06-23T06:18:05.000Z</time>
      </trkpt>
      <trkpt lat="45.68305" lon="3.09154">
        <ele>653</ele>
        <time>2019-06-23T06:18:06.000Z</time>
      </trkpt>
      <trkpt lat="45.68306" lon="3.0915">
        <ele>653</ele>
        <time>2019-06-23T06:18:07.000Z</time>
      </trkpt>
      <trkpt lat="45.68307" lon="3.09146">
        <ele>653</ele>
        <time>2019-06-23T06:18:08.000Z</time>
      </trkpt>
      <trkpt lat="45.68308" lon="3.0914">
        <ele>653</ele>
        <time>2019-06-23T06:18:09.000Z</time>
      </trkpt>
      <trkpt lat="45.68309" lon="3.09137">
        <ele>654</ele>
        <time>2019-06-23T06:18:10.000Z</time>
      </trkpt>
      <trkpt lat="45.68309" lon="3.09133">
        <ele>655</ele>
        <time>2019-06-23T06:18:11.000Z</time>
      </trkpt>
      <trkpt lat="45.68309" lon="3.09129">
        <ele>655</ele>
        <time>2019-06-23T06:18:12.000Z</time>
      </trkpt>
      <trkpt lat="45.68311" lon="3.09124">
        <ele>657</ele>
        <time>2019-06-23T06:18:13.000Z</time>
      </trkpt>
      <trkpt lat="45.68312" lon="3.0912">
        <ele>659</ele>
        <time>2019-06-23T06:18:14.000Z</time>
      </trkpt>
      <trkpt lat="45.68313" lon="3.09116">
        <ele>659</ele>
        <time>2019-06-23T06:18:15.000Z</time>
      </trkpt>
      <trkpt lat="45.68313" lon="3.09112">
        <ele>660</ele>
        <time>2019-06-23T06:18:16.000Z</time>
      </trkpt>
      <trkpt lat="45.68314" lon="3.09108">
        <ele>661</ele>
        <time>2019-06-23T06:18:17.000Z</time>
      </trkpt>
      <trkpt lat="45.68314" lon="3.09105">
        <ele>662</ele>
        <time>2019-06-23T06:18:18.000Z</time>
      </trkpt>
      <trkpt lat="45.68313" lon="3.09101">
        <ele>661</ele>
        <time>2019-06-23T06:18:19.000Z</time>
      </trkpt>
      <trkpt lat="45.68314" lon="3.09097">
        <ele>661</ele>
        <time>2019-06-23T06:18:20.000Z</time>
      </trkpt>
      <trkpt lat="45.68314" lon="3.09094">
        <ele>661</ele>
        <time>2019-06-23T06:18:21.000Z</time>
      </trkpt>
      <trkpt lat="45.68314" lon="3.0909">
        <ele>661</ele>
        <time>2019-06-23T06:18:22.000Z</time>
      </trkpt>
      <trkpt lat="45.68313" lon="3.09087">
        <ele>661</ele>
        <time>2019-06-23T06:18:23.000Z</time>
      </trkpt>
      <trkpt lat="45.68313" lon="3.09084">
        <ele>661</ele>
        <time>2019-06-23T06:18:24.000Z</time>
      </trkpt>
      <trkpt lat="45.68312" lon="3.09081">
        <ele>661</ele>
        <time>2019-06-23T06:18:25.000Z</time>
      </trkpt>
      <trkpt lat="45.68312" lon="3.09078">
        <ele>661</ele>
        <time>2019-06-23T06:18:26.000Z</time>
      </trkpt>
      <trkpt lat="45.68312" lon="3.09075">
        <ele>662</ele>
        <time>2019-06-23T06:18:27.000Z</time>
      </trkpt>
      <trkpt lat="45.68312" lon="3.09072">
        <ele>662</ele>
        <time>2019-06-23T06:18:28.000Z</time>
      </trkpt>
      <trkpt lat="45.68312" lon="3.09069">
        <ele>661</ele>
        <time>2019-06-23T06:18:29.000Z</time>
      </trkpt>
      <trkpt lat="45.68312" lon="3.09065">
        <ele>660</ele>
        <time>2019-06-23T06:18:30.000Z</time>
      </trkpt>
      <trkpt lat="45.68312" lon="3.09063">
        <ele>659</ele>
        <time>2019-06-23T06:18:31.000Z</time>
      </trkpt>
      <trkpt lat="45.68312" lon="3.0906">
        <ele>658</ele>
        <time>2019-06-23T06:18:32.000Z</time>
      </trkpt>
      <trkpt lat="45.68312" lon="3.09058">
        <ele>658</ele>
        <time>2019-06-23T06:18:33.000Z</time>
      </trkpt>
      <trkpt lat="45.68311" lon="3.09055">
        <ele>657</ele>
        <time>2019-06-23T06:18:34.000Z</time>
      </trkpt>
      <trkpt lat="45.68312" lon="3.09053">
        <ele>657</ele>
        <time>2019-06-23T06:18:35.000Z</time>
      </trkpt>
      <trkpt lat="45.68312" lon="3.09052">
        <ele>656</ele>
        <time>2019-06-23T06:18:36.000Z</time>
      </trkpt>
      <trkpt lat="45.68312" lon="3.0905">
        <ele>655</ele>
        <time>2019-06-23T06:18:37.000Z</time>
      </trkpt>
      <trkpt lat="45.68313" lon="3.09049">
        <ele>655</ele>
        <time>2019-06-23T06:18:38.000Z</time>
      </trkpt>
      <trkpt lat="45.68314" lon="3.09048">
        <ele>656</ele>
        <time>2019-06-23T06:18:39.000Z</time>
      </trkpt>
      <trkpt lat="45.68313" lon="3.09046">
        <ele>654</ele>
        <time>2019-06-23T06:18:40.000Z</time>
      </trkpt>
      <trkpt lat="45.68314" lon="3.09045">
        <ele>653</ele>
        <time>2019-06-23T06:18:41.000Z</time>
      </trkpt>
      <trkpt lat="45.68315" lon="3.09043">
        <ele>653</ele>
        <time>2019-06-23T06:18:42.000Z</time>
      </trkpt>
      <trkpt lat="45.68316" lon="3.09041">
        <ele>652</ele>
        <time>2019-06-23T06:18:43.000Z</time>
      </trkpt>
      <trkpt lat="45.68316" lon="3.09037">
        <ele>650</ele>
        <time>2019-06-23T06:18:44.000Z</time>
      </trkpt>
      <trkpt lat="45.68317" lon="3.09034">
        <ele>649</ele>
        <time>2019-06-23T06:18:45.000Z</time>
      </trkpt>
      <trkpt lat="45.68317" lon="3.09032">
        <ele>648</ele>
        <time>2019-06-23T06:18:46.000Z</time>
      </trkpt>
      <trkpt lat="45.68318" lon="3.0903">
        <ele>648</ele>
        <time>2019-06-23T06:18:47.000Z</time>
      </trkpt>
      <trkpt lat="45.6832" lon="3.09028">
        <ele>648</ele>
        <time>2019-06-23T06:18:48.000Z</time>
      </trkpt>
      <trkpt lat="45.68322" lon="3.09025">
        <ele>648</ele>
        <time>2019-06-23T06:18:49.000Z</time>
      </trkpt>
      <trkpt lat="45.68324" lon="3.09023">
        <ele>649</ele>
        <time>2019-06-23T06:18:50.000Z</time>
      </trkpt>
      <trkpt lat="45.68326" lon="3.0902">
        <ele>649</ele>
        <time>2019-06-23T06:18:51.000Z</time>
      </trkpt>
      <trkpt lat="45.68328" lon="3.09016">
        <ele>650</ele>
        <time>2019-06-23T06:18:52.000Z</time>
      </trkpt>
      <trkpt lat="45.6833" lon="3.09012">
        <ele>649</ele>
        <time>2019-06-23T06:18:53.000Z</time>
      </trkpt>
      <trkpt lat="45.68332" lon="3.09009">
        <ele>649</ele>
        <time>2019-06-23T06:18:54.000Z</time>
      </trkpt>
      <trkpt lat="45.68333" lon="3.09006">
        <ele>649</ele>
        <time>2019-06-23T06:18:55.000Z</time>
      </trkpt>
      <trkpt lat="45.68335" lon="3.09002">
        <ele>650</ele>
        <time>2019-06-23T06:18:56.000Z</time>
      </trkpt>
      <trkpt lat="45.68336" lon="3.08999">
        <ele>651</ele>
        <time>2019-06-23T06:18:57.000Z</time>
      </trkpt>
      <trkpt lat="45.68338" lon="3.08995">
        <ele>651</ele>
        <time>2019-06-23T06:18:58.000Z</time>
      </trkpt>
      <trkpt lat="45.68339" lon="3.08992">
        <ele>651</ele>
        <time>2019-06-23T06:18:59.000Z</time>
      </trkpt>
      <trkpt lat="45.6834" lon="3.08989">
        <ele>651</ele>
        <time>2019-06-23T06:19:00.000Z</time>
      </trkpt>
      <trkpt lat="45.68341" lon="3.08986">
        <ele>650</ele>
        <time>2019-06-23T06:19:01.000Z</time>
      </trkpt>
      <trkpt lat="45.68343" lon="3.08983">
        <ele>650</ele>
        <time>2019-06-23T06:19:02.000Z</time>
      </trkpt>
      <trkpt lat="45.68344" lon="3.08981">
        <ele>650</ele>
        <time>2019-06-23T06:19:03.000Z</time>
      </trkpt>
      <trkpt lat="45.68346" lon="3.08978">
        <ele>650</ele>
        <time>2019-06-23T06:19:04.000Z</time>
      </trkpt>
      <trkpt lat="45.68347" lon="3.08974">
        <ele>649</ele>
        <time>2019-06-23T06:19:05.000Z</time>
      </trkpt>
      <trkpt lat="45.68349" lon="3.08971">
        <ele>650</ele>
        <time>2019-06-23T06:19:06.000Z</time>
      </trkpt>
      <trkpt lat="45.68351" lon="3.08968">
        <ele>649</ele>
        <time>2019-06-23T06:19:07.000Z</time>
      </trkpt>
      <trkpt lat="45.68352" lon="3.08965">
        <ele>649</ele>
        <time>2019-06-23T06:19:08.000Z</time>
      </trkpt>
      <trkpt lat="45.68354" lon="3.08961">
        <ele>649</ele>
        <time>2019-06-23T06:19:09.000Z</time>
      </trkpt>
      <trkpt lat="45.68355" lon="3.08957">
        <ele>649</ele>
        <time>2019-06-23T06:19:10.000Z</time>
      </trkpt>
      <trkpt lat="45.68357" lon="3.08954">
        <ele>649</ele>
        <time>2019-06-23T06:19:11.000Z</time>
      </trkpt>
      <trkpt lat="45.68358" lon="3.08951">
        <ele>649</ele>
        <time>2019-06-23T06:19:12.000Z</time>
      </trkpt>
      <trkpt lat="45.6836" lon="3.08947">
        <ele>649</ele>
        <time>2019-06-23T06:19:13.000Z</time>
      </trkpt>
      <trkpt lat="45.68361" lon="3.08944">
        <ele>650</ele>
        <time>2019-06-23T06:19:14.000Z</time>
      </trkpt>
      <trkpt lat="45.68362" lon="3.08941">
        <ele>650</ele>
        <time>2019-06-23T06:19:15.000Z</time>
      </trkpt>
      <trkpt lat="45.68363" lon="3.08938">
        <ele>651</ele>
        <time>2019-06-23T06:19:16.000Z</time>
      </trkpt>
      <trkpt lat="45.68365" lon="3.08935">
        <ele>651</ele>
        <time>2019-06-23T06:19:17.000Z</time>
      </trkpt>
      <trkpt lat="45.68366" lon="3.0893">
        <ele>650</ele>
        <time>2019-06-23T06:19:18.000Z</time>
      </trkpt>
      <trkpt lat="45.68368" lon="3.08927">
        <ele>650</ele>
        <time>2019-06-23T06:19:19.000Z</time>
      </trkpt>
      <trkpt lat="45.68369" lon="3.08924">
        <ele>650</ele>
        <time>2019-06-23T06:19:20.000Z</time>
      </trkpt>
      <trkpt lat="45.68371" lon="3.0892">
        <ele>651</ele>
        <time>2019-06-23T06:19:21.000Z</time>
      </trkpt>
      <trkpt lat="45.68373" lon="3.08917">
        <ele>651</ele>
        <time>2019-06-23T06:19:22.000Z</time>
      </trkpt>
      <trkpt lat="45.68373" lon="3.08914">
        <ele>651</ele>
        <time>2019-06-23T06:19:23.000Z</time>
      </trkpt>
      <trkpt lat="45.68375" lon="3.08911">
        <ele>652</ele>
        <time>2019-06-23T06:19:24.000Z</time>
      </trkpt>
      <trkpt lat="45.68376" lon="3.08907">
        <ele>652</ele>
        <time>2019-06-23T06:19:25.000Z</time>
      </trkpt>
      <trkpt lat="45.68377" lon="3.08903">
        <ele>652</ele>
        <time>2019-06-23T06:19:26.000Z</time>
      </trkpt>
      <trkpt lat="45.68379" lon="3.089">
        <ele>653</ele>
        <time>2019-06-23T06:19:27.000Z</time>
      </trkpt>
      <trkpt lat="45.6838" lon="3.08897">
        <ele>653</ele>
        <time>2019-06-23T06:19:28.000Z</time>
      </trkpt>
      <trkpt lat="45.68382" lon="3.08894">
        <ele>653</ele>
        <time>2019-06-23T06:19:29.000Z</time>
      </trkpt>
      <trkpt lat="45.68383" lon="3.08891">
        <ele>654</ele>
        <time>2019-06-23T06:19:30.000Z</time>
      </trkpt>
      <trkpt lat="45.68385" lon="3.08888">
        <ele>654</ele>
        <time>2019-06-23T06:19:31.000Z</time>
      </trkpt>
      <trkpt lat="45.68387" lon="3.08885">
        <ele>654</ele>
        <time>2019-06-23T06:19:32.000Z</time>
      </trkpt>
      <trkpt lat="45.68388" lon="3.08883">
        <ele>655</ele>
        <time>2019-06-23T06:19:33.000Z</time>
      </trkpt>
      <trkpt lat="45.68389" lon="3.08881">
        <ele>656</ele>
        <time>2019-06-23T06:19:34.000Z</time>
      </trkpt>
      <trkpt lat="45.6839" lon="3.08878">
        <ele>656</ele>
        <time>2019-06-23T06:19:35.000Z</time>
      </trkpt>
      <trkpt lat="45.68392" lon="3.08874">
        <ele>655</ele>
        <time>2019-06-23T06:19:36.000Z</time>
      </trkpt>
      <trkpt lat="45.68394" lon="3.08872">
        <ele>656</ele>
        <time>2019-06-23T06:19:37.000Z</time>
      </trkpt>
      <trkpt lat="45.68395" lon="3.0887">
        <ele>656</ele>
        <time>2019-06-23T06:19:38.000Z</time>
      </trkpt>
      <trkpt lat="45.68396" lon="3.08868">
        <ele>657</ele>
        <time>2019-06-23T06:19:39.000Z</time>
      </trkpt>
      <trkpt lat="45.68398" lon="3.08865">
        <ele>656</ele>
        <time>2019-06-23T06:19:40.000Z</time>
      </trkpt>
      <trkpt lat="45.684" lon="3.08862">
        <ele>657</ele>
        <time>2019-06-23T06:19:41.000Z</time>
      </trkpt>
      <trkpt lat="45.68402" lon="3.08859">
        <ele>657</ele>
        <time>2019-06-23T06:19:42.000Z</time>
      </trkpt>
      <trkpt lat="45.68404" lon="3.08858">
        <ele>657</ele>
        <time>2019-06-23T06:19:43.000Z</time>
      </trkpt>
      <trkpt lat="45.68406" lon="3.08855">
        <ele>657</ele>
        <time>2019-06-23T06:19:44.000Z</time>
      </trkpt>
      <trkpt lat="45.68408" lon="3.08853">
        <ele>657</ele>
        <time>2019-06-23T06:19:45.000Z</time>
      </trkpt>
      <trkpt lat="45.6841" lon="3.08851">
        <ele>658</ele>
        <time>2019-06-23T06:19:46.000Z</time>
      </trkpt>
      <trkpt lat="45.68412" lon="3.08849">
        <ele>659</ele>
        <time>2019-06-23T06:19:47.000Z</time>
      </trkpt>
      <trkpt lat="45.68414" lon="3.08847">
        <ele>658</ele>
        <time>2019-06-23T06:19:48.000Z</time>
      </trkpt>
      <trkpt lat="45.68417" lon="3.08844">
        <ele>658</ele>
        <time>2019-06-23T06:19:49.000Z</time>
      </trkpt>
      <trkpt lat="45.68419" lon="3.08842">
        <ele>659</ele>
        <time>2019-06-23T06:19:50.000Z</time>
      </trkpt>
      <trkpt lat="45.68421" lon="3.0884">
        <ele>660</ele>
        <time>2019-06-23T06:19:51.000Z</time>
      </trkpt>
      <trkpt lat="45.68424" lon="3.08838">
        <ele>660</ele>
        <time>2019-06-23T06:19:52.000Z</time>
      </trkpt>
      <trkpt lat="45.68427" lon="3.08836">
        <ele>660</ele>
        <time>2019-06-23T06:19:53.000Z</time>
      </trkpt>
      <trkpt lat="45.68429" lon="3.08835">
        <ele>661</ele>
        <time>2019-06-23T06:19:54.000Z</time>
      </trkpt>
      <trkpt lat="45.68431" lon="3.08834">
        <ele>662</ele>
        <time>2019-06-23T06:19:55.000Z</time>
      </trkpt>
      <trkpt lat="45.68433" lon="3.08833">
        <ele>662</ele>
        <time>2019-06-23T06:19:56.000Z</time>
      </trkpt>
      <trkpt lat="45.68435" lon="3.08831">
        <ele>662</ele>
        <time>2019-06-23T06:19:57.000Z</time>
      </trkpt>
      <trkpt lat="45.68437" lon="3.08829">
        <ele>663</ele>
        <time>2019-06-23T06:19:58.000Z</time>
      </trkpt>
      <trkpt lat="45.68438" lon="3.08827">
        <ele>663</ele>
        <time>2019-06-23T06:19:59.000Z</time>
      </trkpt>
      <trkpt lat="45.68441" lon="3.08826">
        <ele>661</ele>
        <time>2019-06-23T06:20:00.000Z</time>
      </trkpt>
      <trkpt lat="45.68444" lon="3.08825">
        <ele>661</ele>
        <time>2019-06-23T06:20:01.000Z</time>
      </trkpt>
      <trkpt lat="45.68446" lon="3.08823">
        <ele>659</ele>
        <time>2019-06-23T06:20:02.000Z</time>
      </trkpt>
      <trkpt lat="45.68448" lon="3.08821">
        <ele>659</ele>
        <time>2019-06-23T06:20:03.000Z</time>
      </trkpt>
      <trkpt lat="45.6845" lon="3.0882">
        <ele>659</ele>
        <time>2019-06-23T06:20:04.000Z</time>
      </trkpt>
      <trkpt lat="45.68452" lon="3.08818">
        <ele>658</ele>
        <time>2019-06-23T06:20:05.000Z</time>
      </trkpt>
      <trkpt lat="45.68456" lon="3.08817">
        <ele>658</ele>
        <time>2019-06-23T06:20:06.000Z</time>
      </trkpt>
      <trkpt lat="45.68459" lon="3.08814">
        <ele>658</ele>
        <time>2019-06-23T06:20:07.000Z</time>
      </trkpt>
      <trkpt lat="45.68461" lon="3.08812">
        <ele>657</ele>
        <time>2019-06-23T06:20:08.000Z</time>
      </trkpt>
      <trkpt lat="45.68464" lon="3.08809">
        <ele>658</ele>
        <time>2019-06-23T06:20:09.000Z</time>
      </trkpt>
      <trkpt lat="45.68466" lon="3.08806">
        <ele>658</ele>
        <time>2019-06-23T06:20:10.000Z</time>
      </trkpt>
      <trkpt lat="45.68467" lon="3.08803">
        <ele>658</ele>
        <time>2019-06-23T06:20:11.000Z</time>
      </trkpt>
      <trkpt lat="45.68469" lon="3.08801">
        <ele>659</ele>
        <time>2019-06-23T06:20:12.000Z</time>
      </trkpt>
      <trkpt lat="45.68471" lon="3.08798">
        <ele>659</ele>
        <time>2019-06-23T06:20:13.000Z</time>
      </trkpt>
      <trkpt lat="45.68472" lon="3.08796">
        <ele>660</ele>
        <time>2019-06-23T06:20:14.000Z</time>
      </trkpt>
      <trkpt lat="45.68474" lon="3.08794">
        <ele>660</ele>
        <time>2019-06-23T06:20:15.000Z</time>
      </trkpt>
      <trkpt lat="45.68476" lon="3.08792">
        <ele>661</ele>
        <time>2019-06-23T06:20:16.000Z</time>
      </trkpt>
      <trkpt lat="45.68477" lon="3.08789">
        <ele>661</ele>
        <time>2019-06-23T06:20:17.000Z</time>
      </trkpt>
      <trkpt lat="45.68479" lon="3.08787">
        <ele>661</ele>
        <time>2019-06-23T06:20:18.000Z</time>
      </trkpt>
      <trkpt lat="45.68479" lon="3.08785">
        <ele>661</ele>
        <time>2019-06-23T06:20:19.000Z</time>
      </trkpt>
      <trkpt lat="45.6848" lon="3.08782">
        <ele>662</ele>
        <time>2019-06-23T06:20:20.000Z</time>
      </trkpt>
      <trkpt lat="45.68481" lon="3.0878">
        <ele>662</ele>
        <time>2019-06-23T06:20:21.000Z</time>
      </trkpt>
      <trkpt lat="45.68482" lon="3.08778">
        <ele>662</ele>
        <time>2019-06-23T06:20:22.000Z</time>
      </trkpt>
      <trkpt lat="45.68484" lon="3.08775">
        <ele>662</ele>
        <time>2019-06-23T06:20:23.000Z</time>
      </trkpt>
      <trkpt lat="45.68485" lon="3.08773">
        <ele>662</ele>
        <time>2019-06-23T06:20:24.000Z</time>
      </trkpt>
      <trkpt lat="45.68486" lon="3.08771">
        <ele>662</ele>
        <time>2019-06-23T06:20:25.000Z</time>
      </trkpt>
      <trkpt lat="45.68488" lon="3.08768">
        <ele>663</ele>
        <time>2019-06-23T06:20:26.000Z</time>
      </trkpt>
      <trkpt lat="45.68489" lon="3.08766">
        <ele>664</ele>
        <time>2019-06-23T06:20:27.000Z</time>
      </trkpt>
      <trkpt lat="45.6849" lon="3.08764">
        <ele>665</ele>
        <time>2019-06-23T06:20:28.000Z</time>
      </trkpt>
      <trkpt lat="45.68491" lon="3.08762">
        <ele>666</ele>
        <time>2019-06-23T06:20:29.000Z</time>
      </trkpt>
      <trkpt lat="45.68492" lon="3.0876">
        <ele>667</ele>
        <time>2019-06-23T06:20:30.000Z</time>
      </trkpt>
      <trkpt lat="45.68493" lon="3.08758">
        <ele>667</ele>
        <time>2019-06-23T06:20:31.000Z</time>
      </trkpt>
      <trkpt lat="45.68493" lon="3.08756">
        <ele>668</ele>
        <time>2019-06-23T06:20:32.000Z</time>
      </trkpt>
      <trkpt lat="45.68494" lon="3.08753">
        <ele>668</ele>
        <time>2019-06-23T06:20:33.000Z</time>
      </trkpt>
      <trkpt lat="45.68495" lon="3.08751">
        <ele>668</ele>
        <time>2019-06-23T06:20:34.000Z</time>
      </trkpt>
      <trkpt lat="45.68495" lon="3.08748">
        <ele>669</ele>
        <time>2019-06-23T06:20:35.000Z</time>
      </trkpt>
      <trkpt lat="45.68496" lon="3.08746">
        <ele>669</ele>
        <time>2019-06-23T06:20:36.000Z</time>
      </trkpt>
      <trkpt lat="45.68497" lon="3.08743">
        <ele>669</ele>
        <time>2019-06-23T06:20:37.000Z</time>
      </trkpt>
      <trkpt lat="45.68498" lon="3.0874">
        <ele>670</ele>
        <time>2019-06-23T06:20:38.000Z</time>
      </trkpt>
      <trkpt lat="45.685" lon="3.08737">
        <ele>670</ele>
        <time>2019-06-23T06:20:39.000Z</time>
      </trkpt>
      <trkpt lat="45.68501" lon="3.08735">
        <ele>671</ele>
        <time>2019-06-23T06:20:40.000Z</time>
      </trkpt>
      <trkpt lat="45.68501" lon="3.08732">
        <ele>671</ele>
        <time>2019-06-23T06:20:41.000Z</time>
      </trkpt>
      <trkpt lat="45.68502" lon="3.08729">
        <ele>672</ele>
        <time>2019-06-23T06:20:42.000Z</time>
      </trkpt>
      <trkpt lat="45.68504" lon="3.08727">
        <ele>672</ele>
        <time>2019-06-23T06:20:43.000Z</time>
      </trkpt>
      <trkpt lat="45.68505" lon="3.08724">
        <ele>672</ele>
        <time>2019-06-23T06:20:44.000Z</time>
      </trkpt>
      <trkpt lat="45.68506" lon="3.08722">
        <ele>672</ele>
        <time>2019-06-23T06:20:45.000Z</time>
      </trkpt>
      <trkpt lat="45.68507" lon="3.0872">
        <ele>672</ele>
        <time>2019-06-23T06:20:46.000Z</time>
      </trkpt>
      <trkpt lat="45.68508" lon="3.08718">
        <ele>672</ele>
        <time>2019-06-23T06:20:47.000Z</time>
      </trkpt>
      <trkpt lat="45.68509" lon="3.08715">
        <ele>673</ele>
        <time>2019-06-23T06:20:48.000Z</time>
      </trkpt>
      <trkpt lat="45.6851" lon="3.08713">
        <ele>673</ele>
        <time>2019-06-23T06:20:49.000Z</time>
      </trkpt>
      <trkpt lat="45.68511" lon="3.08711">
        <ele>673</ele>
        <time>2019-06-23T06:20:50.000Z</time>
      </trkpt>
      <trkpt lat="45.68512" lon="3.08708">
        <ele>674</ele>
        <time>2019-06-23T06:20:51.000Z</time>
      </trkpt>
      <trkpt lat="45.68514" lon="3.08705">
        <ele>674</ele>
        <time>2019-06-23T06:20:52.000Z</time>
      </trkpt>
      <trkpt lat="45.68515" lon="3.08703">
        <ele>675</ele>
        <time>2019-06-23T06:20:53.000Z</time>
      </trkpt>
      <trkpt lat="45.68516" lon="3.08699">
        <ele>675</ele>
        <time>2019-06-23T06:20:54.000Z</time>
      </trkpt>
      <trkpt lat="45.68517" lon="3.08696">
        <ele>674</ele>
        <time>2019-06-23T06:20:55.000Z</time>
      </trkpt>
      <trkpt lat="45.68518" lon="3.08693">
        <ele>674</ele>
        <time>2019-06-23T06:20:56.000Z</time>
      </trkpt>
      <trkpt lat="45.6852" lon="3.08689">
        <ele>674</ele>
        <time>2019-06-23T06:20:57.000Z</time>
      </trkpt>
      <trkpt lat="45.68522" lon="3.08685">
        <ele>673</ele>
        <time>2019-06-23T06:20:58.000Z</time>
      </trkpt>
      <trkpt lat="45.68523" lon="3.08682">
        <ele>673</ele>
        <time>2019-06-23T06:20:59.000Z</time>
      </trkpt>
      <trkpt lat="45.68525" lon="3.08678">
        <ele>672</ele>
        <time>2019-06-23T06:21:00.000Z</time>
      </trkpt>
      <trkpt lat="45.68526" lon="3.08674">
        <ele>671</ele>
        <time>2019-06-23T06:21:01.000Z</time>
      </trkpt>
      <trkpt lat="45.68527" lon="3.08672">
        <ele>671</ele>
        <time>2019-06-23T06:21:02.000Z</time>
      </trkpt>
      <trkpt lat="45.68529" lon="3.08668">
        <ele>672</ele>
        <time>2019-06-23T06:21:03.000Z</time>
      </trkpt>
      <trkpt lat="45.6853" lon="3.08665">
        <ele>672</ele>
        <time>2019-06-23T06:21:04.000Z</time>
      </trkpt>
      <trkpt lat="45.68532" lon="3.08662">
        <ele>672</ele>
        <time>2019-06-23T06:21:05.000Z</time>
      </trkpt>
      <trkpt lat="45.68533" lon="3.08659">
        <ele>671</ele>
        <time>2019-06-23T06:21:06.000Z</time>
      </trkpt>
      <trkpt lat="45.68535" lon="3.08655">
        <ele>671</ele>
        <time>2019-06-23T06:21:07.000Z</time>
      </trkpt>
      <trkpt lat="45.68537" lon="3.08651">
        <ele>672</ele>
        <time>2019-06-23T06:21:08.000Z</time>
      </trkpt>
      <trkpt lat="45.68539" lon="3.08648">
        <ele>672</ele>
        <time>2019-06-23T06:21:09.000Z</time>
      </trkpt>
      <trkpt lat="45.68541" lon="3.08644">
        <ele>672</ele>
        <time>2019-06-23T06:21:10.000Z</time>
      </trkpt>
      <trkpt lat="45.68543" lon="3.08641">
        <ele>671</ele>
        <time>2019-06-23T06:21:11.000Z</time>
      </trkpt>
      <trkpt lat="45.68546" lon="3.08638">
        <ele>672</ele>
        <time>2019-06-23T06:21:12.000Z</time>
      </trkpt>
      <trkpt lat="45.68548" lon="3.08634">
        <ele>673</ele>
        <time>2019-06-23T06:21:13.000Z</time>
      </trkpt>
      <trkpt lat="45.6855" lon="3.08631">
        <ele>673</ele>
        <time>2019-06-23T06:21:14.000Z</time>
      </trkpt>
      <trkpt lat="45.68552" lon="3.08627">
        <ele>672</ele>
        <time>2019-06-23T06:21:15.000Z</time>
      </trkpt>
      <trkpt lat="45.68555" lon="3.08622">
        <ele>672</ele>
        <time>2019-06-23T06:21:16.000Z</time>
      </trkpt>
      <trkpt lat="45.68556" lon="3.08617">
        <ele>673</ele>
        <time>2019-06-23T06:21:17.000Z</time>
      </trkpt>
      <trkpt lat="45.68557" lon="3.08614">
        <ele>674</ele>
        <time>2019-06-23T06:21:18.000Z</time>
      </trkpt>
      <trkpt lat="45.68558" lon="3.08611">
        <ele>674</ele>
        <time>2019-06-23T06:21:19.000Z</time>
      </trkpt>
      <trkpt lat="45.6856" lon="3.08608">
        <ele>675</ele>
        <time>2019-06-23T06:21:20.000Z</time>
      </trkpt>
      <trkpt lat="45.68561" lon="3.08604">
        <ele>677</ele>
        <time>2019-06-23T06:21:21.000Z</time>
      </trkpt>
      <trkpt lat="45.68563" lon="3.08598">
        <ele>677</ele>
        <time>2019-06-23T06:21:22.000Z</time>
      </trkpt>
      <trkpt lat="45.68565" lon="3.08594">
        <ele>677</ele>
        <time>2019-06-23T06:21:23.000Z</time>
      </trkpt>
      <trkpt lat="45.68566" lon="3.08589">
        <ele>678</ele>
        <time>2019-06-23T06:21:24.000Z</time>
      </trkpt>
      <trkpt lat="45.68566" lon="3.08584">
        <ele>678</ele>
        <time>2019-06-23T06:21:25.000Z</time>
      </trkpt>
      <trkpt lat="45.68566" lon="3.08581">
        <ele>679</ele>
        <time>2019-06-23T06:21:26.000Z</time>
      </trkpt>
      <trkpt lat="45.68567" lon="3.08577">
        <ele>680</ele>
        <time>2019-06-23T06:21:27.000Z</time>
      </trkpt>
      <trkpt lat="45.68567" lon="3.08574">
        <ele>679</ele>
        <time>2019-06-23T06:21:28.000Z</time>
      </trkpt>
      <trkpt lat="45.68567" lon="3.0857">
        <ele>678</ele>
        <time>2019-06-23T06:21:29.000Z</time>
      </trkpt>
      <trkpt lat="45.68568" lon="3.08563">
        <ele>677</ele>
        <time>2019-06-23T06:21:30.000Z</time>
      </trkpt>
      <trkpt lat="45.68573" lon="3.08554">
        <ele>676</ele>
        <time>2019-06-23T06:21:31.000Z</time>
      </trkpt>
      <trkpt lat="45.68574" lon="3.08547">
        <ele>676</ele>
        <time>2019-06-23T06:21:32.000Z</time>
      </trkpt>
      <trkpt lat="45.68575" lon="3.08543">
        <ele>675</ele>
        <time>2019-06-23T06:21:33.000Z</time>
      </trkpt>
      <trkpt lat="45.68577" lon="3.08537">
        <ele>675</ele>
        <time>2019-06-23T06:21:34.000Z</time>
      </trkpt>
      <trkpt lat="45.68579" lon="3.08532">
        <ele>675</ele>
        <time>2019-06-23T06:21:35.000Z</time>
      </trkpt>
      <trkpt lat="45.68584" lon="3.08525">
        <ele>673</ele>
        <time>2019-06-23T06:21:36.000Z</time>
      </trkpt>
      <trkpt lat="45.68586" lon="3.08518">
        <ele>672</ele>
        <time>2019-06-23T06:21:37.000Z</time>
      </trkpt>
      <trkpt lat="45.68588" lon="3.08513">
        <ele>672</ele>
        <time>2019-06-23T06:21:38.000Z</time>
      </trkpt>
      <trkpt lat="45.68591" lon="3.08506">
        <ele>671</ele>
        <time>2019-06-23T06:21:39.000Z</time>
      </trkpt>
      <trkpt lat="45.68593" lon="3.085">
        <ele>672</ele>
        <time>2019-06-23T06:21:40.000Z</time>
      </trkpt>
      <trkpt lat="45.68595" lon="3.08494">
        <ele>672</ele>
        <time>2019-06-23T06:21:41.000Z</time>
      </trkpt>
      <trkpt lat="45.68598" lon="3.08489">
        <ele>673</ele>
        <time>2019-06-23T06:21:42.000Z</time>
      </trkpt>
      <trkpt lat="45.68601" lon="3.08481">
        <ele>673</ele>
        <time>2019-06-23T06:21:43.000Z</time>
      </trkpt>
      <trkpt lat="45.68601" lon="3.08473">
        <ele>671</ele>
        <time>2019-06-23T06:21:44.000Z</time>
      </trkpt>
      <trkpt lat="45.68601" lon="3.08465">
        <ele>669</ele>
        <time>2019-06-23T06:21:45.000Z</time>
      </trkpt>
      <trkpt lat="45.68601" lon="3.08457">
        <ele>668</ele>
        <time>2019-06-23T06:21:46.000Z</time>
      </trkpt>
      <trkpt lat="45.68603" lon="3.08448">
        <ele>668</ele>
        <time>2019-06-23T06:21:47.000Z</time>
      </trkpt>
      <trkpt lat="45.68608" lon="3.08439">
        <ele>667</ele>
        <time>2019-06-23T06:21:48.000Z</time>
      </trkpt>
      <trkpt lat="45.68611" lon="3.08431">
        <ele>667</ele>
        <time>2019-06-23T06:21:49.000Z</time>
      </trkpt>
      <trkpt lat="45.68614" lon="3.08423">
        <ele>668</ele>
        <time>2019-06-23T06:21:50.000Z</time>
      </trkpt>
      <trkpt lat="45.68617" lon="3.08415">
        <ele>667</ele>
        <time>2019-06-23T06:21:51.000Z</time>
      </trkpt>
      <trkpt lat="45.68621" lon="3.08407">
        <ele>668</ele>
        <time>2019-06-23T06:21:52.000Z</time>
      </trkpt>
      <trkpt lat="45.68624" lon="3.08399">
        <ele>667</ele>
        <time>2019-06-23T06:21:53.000Z</time>
      </trkpt>
      <trkpt lat="45.68629" lon="3.0839">
        <ele>665</ele>
        <time>2019-06-23T06:21:54.000Z</time>
      </trkpt>
      <trkpt lat="45.68632" lon="3.08383">
        <ele>664</ele>
        <time>2019-06-23T06:21:55.000Z</time>
      </trkpt>
      <trkpt lat="45.68635" lon="3.08375">
        <ele>664</ele>
        <time>2019-06-23T06:21:56.000Z</time>
      </trkpt>
      <trkpt lat="45.68638" lon="3.08367">
        <ele>664</ele>
        <time>2019-06-23T06:21:57.000Z</time>
      </trkpt>
      <trkpt lat="45.6864" lon="3.0836">
        <ele>663</ele>
        <time>2019-06-23T06:21:58.000Z</time>
      </trkpt>
      <trkpt lat="45.68643" lon="3.08353">
        <ele>663</ele>
        <time>2019-06-23T06:21:59.000Z</time>
      </trkpt>
      <trkpt lat="45.68645" lon="3.08346">
        <ele>662</ele>
        <time>2019-06-23T06:22:00.000Z</time>
      </trkpt>
      <trkpt lat="45.68646" lon="3.08339">
        <ele>663</ele>
        <time>2019-06-23T06:22:01.000Z</time>
      </trkpt>
      <trkpt lat="45.68648" lon="3.08333">
        <ele>663</ele>
        <time>2019-06-23T06:22:02.000Z</time>
      </trkpt>
      <trkpt lat="45.68649" lon="3.08328">
        <ele>663</ele>
        <time>2019-06-23T06:22:03.000Z</time>
      </trkpt>
      <trkpt lat="45.68651" lon="3.08323">
        <ele>663</ele>
        <time>2019-06-23T06:22:04.000Z</time>
      </trkpt>
      <trkpt lat="45.68652" lon="3.08318">
        <ele>663</ele>
        <time>2019-06-23T06:22:05.000Z</time>
      </trkpt>
      <trkpt lat="45.68653" lon="3.08313">
        <ele>664</ele>
        <time>2019-06-23T06:22:06.000Z</time>
      </trkpt>
      <trkpt lat="45.68653" lon="3.08309">
        <ele>664</ele>
        <time>2019-06-23T06:22:07.000Z</time>
      </trkpt>
      <trkpt lat="45.68655" lon="3.08306">
        <ele>665</ele>
        <time>2019-06-23T06:22:08.000Z</time>
      </trkpt>
      <trkpt lat="45.68656" lon="3.08303">
        <ele>665</ele>
        <time>2019-06-23T06:22:09.000Z</time>
      </trkpt>
      <trkpt lat="45.68657" lon="3.08299">
        <ele>665</ele>
        <time>2019-06-23T06:22:10.000Z</time>
      </trkpt>
      <trkpt lat="45.68658" lon="3.08294">
        <ele>665</ele>
        <time>2019-06-23T06:22:11.000Z</time>
      </trkpt>
      <trkpt lat="45.6866" lon="3.0829">
        <ele>665</ele>
        <time>2019-06-23T06:22:12.000Z</time>
      </trkpt>
      <trkpt lat="45.68661" lon="3.08284">
        <ele>666</ele>
        <time>2019-06-23T06:22:13.000Z</time>
      </trkpt>
      <trkpt lat="45.68662" lon="3.08281">
        <ele>667</ele>
        <time>2019-06-23T06:22:14.000Z</time>
      </trkpt>
      <trkpt lat="45.68663" lon="3.08276">
        <ele>667</ele>
        <time>2019-06-23T06:22:15.000Z</time>
      </trkpt>
      <trkpt lat="45.68665" lon="3.08272">
        <ele>667</ele>
        <time>2019-06-23T06:22:16.000Z</time>
      </trkpt>
      <trkpt lat="45.68665" lon="3.08266">
        <ele>665</ele>
        <time>2019-06-23T06:22:17.000Z</time>
      </trkpt>
      <trkpt lat="45.68666" lon="3.08263">
        <ele>665</ele>
        <time>2019-06-23T06:22:18.000Z</time>
      </trkpt>
      <trkpt lat="45.68668" lon="3.08258">
        <ele>666</ele>
        <time>2019-06-23T06:22:19.000Z</time>
      </trkpt>
      <trkpt lat="45.68668" lon="3.08254">
        <ele>666</ele>
        <time>2019-06-23T06:22:20.000Z</time>
      </trkpt>
      <trkpt lat="45.68669" lon="3.0825">
        <ele>666</ele>
        <time>2019-06-23T06:22:21.000Z</time>
      </trkpt>
      <trkpt lat="45.68671" lon="3.08245">
        <ele>667</ele>
        <time>2019-06-23T06:22:22.000Z</time>
      </trkpt>
      <trkpt lat="45.68673" lon="3.0824">
        <ele>668</ele>
        <time>2019-06-23T06:22:23.000Z</time>
      </trkpt>
      <trkpt lat="45.68675" lon="3.08233">
        <ele>669</ele>
        <time>2019-06-23T06:22:24.000Z</time>
      </trkpt>
      <trkpt lat="45.68676" lon="3.08228">
        <ele>670</ele>
        <time>2019-06-23T06:22:25.000Z</time>
      </trkpt>
      <trkpt lat="45.68678" lon="3.08224">
        <ele>671</ele>
        <time>2019-06-23T06:22:26.000Z</time>
      </trkpt>
      <trkpt lat="45.68679" lon="3.08218">
        <ele>671</ele>
        <time>2019-06-23T06:22:27.000Z</time>
      </trkpt>
      <trkpt lat="45.68681" lon="3.08211">
        <ele>673</ele>
        <time>2019-06-23T06:22:28.000Z</time>
      </trkpt>
      <trkpt lat="45.68681" lon="3.08206">
        <ele>673</ele>
        <time>2019-06-23T06:22:29.000Z</time>
      </trkpt>
      <trkpt lat="45.68682" lon="3.08201">
        <ele>673</ele>
        <time>2019-06-23T06:22:30.000Z</time>
      </trkpt>
      <trkpt lat="45.68684" lon="3.08195">
        <ele>671</ele>
        <time>2019-06-23T06:22:31.000Z</time>
      </trkpt>
      <trkpt lat="45.68685" lon="3.0819">
        <ele>671</ele>
        <time>2019-06-23T06:22:32.000Z</time>
      </trkpt>
      <trkpt lat="45.68687" lon="3.08184">
        <ele>671</ele>
        <time>2019-06-23T06:22:33.000Z</time>
      </trkpt>
      <trkpt lat="45.68687" lon="3.08177">
        <ele>669</ele>
        <time>2019-06-23T06:22:34.000Z</time>
      </trkpt>
      <trkpt lat="45.6869" lon="3.0817">
        <ele>671</ele>
        <time>2019-06-23T06:22:35.000Z</time>
      </trkpt>
      <trkpt lat="45.68691" lon="3.08163">
        <ele>670</ele>
        <time>2019-06-23T06:22:36.000Z</time>
      </trkpt>
      <trkpt lat="45.68693" lon="3.08155">
        <ele>669</ele>
        <time>2019-06-23T06:22:37.000Z</time>
      </trkpt>
      <trkpt lat="45.68695" lon="3.08148">
        <ele>670</ele>
        <time>2019-06-23T06:22:38.000Z</time>
      </trkpt>
      <trkpt lat="45.68696" lon="3.08141">
        <ele>670</ele>
        <time>2019-06-23T06:22:39.000Z</time>
      </trkpt>
      <trkpt lat="45.68698" lon="3.08133">
        <ele>670</ele>
        <time>2019-06-23T06:22:40.000Z</time>
      </trkpt>
      <trkpt lat="45.687" lon="3.08125">
        <ele>671</ele>
        <time>2019-06-23T06:22:41.000Z</time>
      </trkpt>
      <trkpt lat="45.68701" lon="3.08117">
        <ele>672</ele>
        <time>2019-06-23T06:22:42.000Z</time>
      </trkpt>
      <trkpt lat="45.68701" lon="3.08109">
        <ele>671</ele>
        <time>2019-06-23T06:22:43.000Z</time>
      </trkpt>
      <trkpt lat="45.68701" lon="3.08101">
        <ele>670</ele>
        <time>2019-06-23T06:22:44.000Z</time>
      </trkpt>
      <trkpt lat="45.687" lon="3.08094">
        <ele>670</ele>
        <time>2019-06-23T06:22:45.000Z</time>
      </trkpt>
      <trkpt lat="45.68701" lon="3.08088">
        <ele>669</ele>
        <time>2019-06-23T06:22:46.000Z</time>
      </trkpt>
      <trkpt lat="45.68701" lon="3.08081">
        <ele>669</ele>
        <time>2019-06-23T06:22:47.000Z</time>
      </trkpt>
      <trkpt lat="45.68701" lon="3.08075">
        <ele>669</ele>
        <time>2019-06-23T06:22:48.000Z</time>
      </trkpt>
      <trkpt lat="45.68701" lon="3.08069">
        <ele>669</ele>
        <time>2019-06-23T06:22:49.000Z</time>
      </trkpt>
      <trkpt lat="45.68701" lon="3.08064">
        <ele>669</ele>
        <time>2019-06-23T06:22:50.000Z</time>
      </trkpt>
      <trkpt lat="45.68701" lon="3.08059">
        <ele>669</ele>
        <time>2019-06-23T06:22:51.000Z</time>
      </trkpt>
      <trkpt lat="45.68701" lon="3.08054">
        <ele>670</ele>
        <time>2019-06-23T06:22:52.000Z</time>
      </trkpt>
      <trkpt lat="45.68701" lon="3.08049">
        <ele>670</ele>
        <time>2019-06-23T06:22:53.000Z</time>
      </trkpt>
      <trkpt lat="45.68701" lon="3.08044">
        <ele>671</ele>
        <time>2019-06-23T06:22:54.000Z</time>
      </trkpt>
      <trkpt lat="45.68701" lon="3.08038">
        <ele>672</ele>
        <time>2019-06-23T06:22:55.000Z</time>
      </trkpt>
      <trkpt lat="45.68701" lon="3.08034">
        <ele>672</ele>
        <time>2019-06-23T06:22:56.000Z</time>
      </trkpt>
      <trkpt lat="45.687" lon="3.08029">
        <ele>673</ele>
        <time>2019-06-23T06:22:57.000Z</time>
      </trkpt>
      <trkpt lat="45.68701" lon="3.08024">
        <ele>674</ele>
        <time>2019-06-23T06:22:58.000Z</time>
      </trkpt>
      <trkpt lat="45.687" lon="3.0802">
        <ele>674</ele>
        <time>2019-06-23T06:22:59.000Z</time>
      </trkpt>
      <trkpt lat="45.687" lon="3.08015">
        <ele>675</ele>
        <time>2019-06-23T06:23:00.000Z</time>
      </trkpt>
      <trkpt lat="45.687" lon="3.0801">
        <ele>675</ele>
        <time>2019-06-23T06:23:01.000Z</time>
      </trkpt>
      <trkpt lat="45.687" lon="3.08004">
        <ele>676</ele>
        <time>2019-06-23T06:23:02.000Z</time>
      </trkpt>
      <trkpt lat="45.68699" lon="3.07999">
        <ele>677</ele>
        <time>2019-06-23T06:23:03.000Z</time>
      </trkpt>
      <trkpt lat="45.68698" lon="3.07994">
        <ele>678</ele>
        <time>2019-06-23T06:23:04.000Z</time>
      </trkpt>
      <trkpt lat="45.68698" lon="3.07988">
        <ele>680</ele>
        <time>2019-06-23T06:23:05.000Z</time>
      </trkpt>
      <trkpt lat="45.68697" lon="3.07982">
        <ele>680</ele>
        <time>2019-06-23T06:23:06.000Z</time>
      </trkpt>
      <trkpt lat="45.68698" lon="3.07978">
        <ele>681</ele>
        <time>2019-06-23T06:23:07.000Z</time>
      </trkpt>
      <trkpt lat="45.68697" lon="3.07974">
        <ele>681</ele>
        <time>2019-06-23T06:23:08.000Z</time>
      </trkpt>
      <trkpt lat="45.68696" lon="3.0797">
        <ele>682</ele>
        <time>2019-06-23T06:23:09.000Z</time>
      </trkpt>
      <trkpt lat="45.68696" lon="3.07965">
        <ele>682</ele>
        <time>2019-06-23T06:23:10.000Z</time>
      </trkpt>
      <trkpt lat="45.68695" lon="3.07961">
        <ele>683</ele>
        <time>2019-06-23T06:23:11.000Z</time>
      </trkpt>
      <trkpt lat="45.68696" lon="3.07957">
        <ele>685</ele>
        <time>2019-06-23T06:23:12.000Z</time>
      </trkpt>
      <trkpt lat="45.68696" lon="3.07952">
        <ele>687</ele>
        <time>2019-06-23T06:23:13.000Z</time>
      </trkpt>
      <trkpt lat="45.68697" lon="3.07946">
        <ele>686</ele>
        <time>2019-06-23T06:23:14.000Z</time>
      </trkpt>
      <trkpt lat="45.68697" lon="3.07941">
        <ele>686</ele>
        <time>2019-06-23T06:23:15.000Z</time>
      </trkpt>
      <trkpt lat="45.68698" lon="3.07937">
        <ele>686</ele>
        <time>2019-06-23T06:23:16.000Z</time>
      </trkpt>
      <trkpt lat="45.68697" lon="3.07931">
        <ele>685</ele>
        <time>2019-06-23T06:23:17.000Z</time>
      </trkpt>
      <trkpt lat="45.68695" lon="3.07921">
        <ele>683</ele>
        <time>2019-06-23T06:23:18.000Z</time>
      </trkpt>
      <trkpt lat="45.68694" lon="3.07914">
        <ele>683</ele>
        <time>2019-06-23T06:23:19.000Z</time>
      </trkpt>
      <trkpt lat="45.68694" lon="3.0791">
        <ele>684</ele>
        <time>2019-06-23T06:23:20.000Z</time>
      </trkpt>
      <trkpt lat="45.68694" lon="3.07905">
        <ele>684</ele>
        <time>2019-06-23T06:23:21.000Z</time>
      </trkpt>
      <trkpt lat="45.68693" lon="3.07899">
        <ele>683</ele>
        <time>2019-06-23T06:23:22.000Z</time>
      </trkpt>
      <trkpt lat="45.68692" lon="3.07894">
        <ele>682</ele>
        <time>2019-06-23T06:23:23.000Z</time>
      </trkpt>
      <trkpt lat="45.68693" lon="3.0789">
        <ele>682</ele>
        <time>2019-06-23T06:23:24.000Z</time>
      </trkpt>
      <trkpt lat="45.68692" lon="3.07886">
        <ele>682</ele>
        <time>2019-06-23T06:23:25.000Z</time>
      </trkpt>
      <trkpt lat="45.68693" lon="3.07883">
        <ele>683</ele>
        <time>2019-06-23T06:23:26.000Z</time>
      </trkpt>
      <trkpt lat="45.68693" lon="3.07879">
        <ele>684</ele>
        <time>2019-06-23T06:23:27.000Z</time>
      </trkpt>
      <trkpt lat="45.68692" lon="3.07875">
        <ele>684</ele>
        <time>2019-06-23T06:23:28.000Z</time>
      </trkpt>
      <trkpt lat="45.68692" lon="3.07871">
        <ele>684</ele>
        <time>2019-06-23T06:23:29.000Z</time>
      </trkpt>
      <trkpt lat="45.68691" lon="3.07866">
        <ele>684</ele>
        <time>2019-06-23T06:23:30.000Z</time>
      </trkpt>
      <trkpt lat="45.68691" lon="3.07861">
        <ele>684</ele>
        <time>2019-06-23T06:23:31.000Z</time>
      </trkpt>
      <trkpt lat="45.6869" lon="3.07856">
        <ele>683</ele>
        <time>2019-06-23T06:23:32.000Z</time>
      </trkpt>
      <trkpt lat="45.6869" lon="3.07851">
        <ele>683</ele>
        <time>2019-06-23T06:23:33.000Z</time>
      </trkpt>
      <trkpt lat="45.68689" lon="3.07845">
        <ele>685</ele>
        <time>2019-06-23T06:23:34.000Z</time>
      </trkpt>
      <trkpt lat="45.68688" lon="3.07839">
        <ele>685</ele>
        <time>2019-06-23T06:23:35.000Z</time>
      </trkpt>
      <trkpt lat="45.68688" lon="3.07833">
        <ele>685</ele>
        <time>2019-06-23T06:23:36.000Z</time>
      </trkpt>
      <trkpt lat="45.68688" lon="3.07827">
        <ele>686</ele>
        <time>2019-06-23T06:23:37.000Z</time>
      </trkpt>
      <trkpt lat="45.68689" lon="3.07822">
        <ele>687</ele>
        <time>2019-06-23T06:23:38.000Z</time>
      </trkpt>
      <trkpt lat="45.68689" lon="3.07817">
        <ele>689</ele>
        <time>2019-06-23T06:23:39.000Z</time>
      </trkpt>
      <trkpt lat="45.68689" lon="3.07811">
        <ele>689</ele>
        <time>2019-06-23T06:23:40.000Z</time>
      </trkpt>
      <trkpt lat="45.68687" lon="3.07806">
        <ele>688</ele>
        <time>2019-06-23T06:23:41.000Z</time>
      </trkpt>
      <trkpt lat="45.68687" lon="3.078">
        <ele>689</ele>
        <time>2019-06-23T06:23:42.000Z</time>
      </trkpt>
      <trkpt lat="45.68686" lon="3.07794">
        <ele>687</ele>
        <time>2019-06-23T06:23:43.000Z</time>
      </trkpt>
      <trkpt lat="45.68684" lon="3.07787">
        <ele>685</ele>
        <time>2019-06-23T06:23:44.000Z</time>
      </trkpt>
      <trkpt lat="45.68683" lon="3.07782">
        <ele>684</ele>
        <time>2019-06-23T06:23:45.000Z</time>
      </trkpt>
      <trkpt lat="45.68683" lon="3.07776">
        <ele>684</ele>
        <time>2019-06-23T06:23:46.000Z</time>
      </trkpt>
      <trkpt lat="45.68685" lon="3.07768">
        <ele>684</ele>
        <time>2019-06-23T06:23:47.000Z</time>
      </trkpt>
      <trkpt lat="45.68686" lon="3.07761">
        <ele>683</ele>
        <time>2019-06-23T06:23:48.000Z</time>
      </trkpt>
      <trkpt lat="45.68686" lon="3.07753">
        <ele>682</ele>
        <time>2019-06-23T06:23:49.000Z</time>
      </trkpt>
      <trkpt lat="45.68688" lon="3.07744">
        <ele>683</ele>
        <time>2019-06-23T06:23:50.000Z</time>
      </trkpt>
      <trkpt lat="45.68691" lon="3.07734">
        <ele>682</ele>
        <time>2019-06-23T06:23:51.000Z</time>
      </trkpt>
      <trkpt lat="45.68692" lon="3.07726">
        <ele>681</ele>
        <time>2019-06-23T06:23:52.000Z</time>
      </trkpt>
      <trkpt lat="45.68693" lon="3.07717">
        <ele>681</ele>
        <time>2019-06-23T06:23:53.000Z</time>
      </trkpt>
      <trkpt lat="45.68694" lon="3.07709">
        <ele>679</ele>
        <time>2019-06-23T06:23:54.000Z</time>
      </trkpt>
      <trkpt lat="45.68697" lon="3.07698">
        <ele>679</ele>
        <time>2019-06-23T06:23:55.000Z</time>
      </trkpt>
      <trkpt lat="45.687" lon="3.07688">
        <ele>677</ele>
        <time>2019-06-23T06:23:56.000Z</time>
      </trkpt>
      <trkpt lat="45.68702" lon="3.07679">
        <ele>676</ele>
        <time>2019-06-23T06:23:57.000Z</time>
      </trkpt>
      <trkpt lat="45.68703" lon="3.07666">
        <ele>674</ele>
        <time>2019-06-23T06:23:58.000Z</time>
      </trkpt>
      <trkpt lat="45.68703" lon="3.07654">
        <ele>673</ele>
        <time>2019-06-23T06:23:59.000Z</time>
      </trkpt>
      <trkpt lat="45.68703" lon="3.07643">
        <ele>670</ele>
        <time>2019-06-23T06:24:00.000Z</time>
      </trkpt>
      <trkpt lat="45.68702" lon="3.07633">
        <ele>669</ele>
        <time>2019-06-23T06:24:01.000Z</time>
      </trkpt>
      <trkpt lat="45.68705" lon="3.07621">
        <ele>666</ele>
        <time>2019-06-23T06:24:02.000Z</time>
      </trkpt>
      <trkpt lat="45.68711" lon="3.07607">
        <ele>664</ele>
        <time>2019-06-23T06:24:03.000Z</time>
      </trkpt>
      <trkpt lat="45.68714" lon="3.07599">
        <ele>663</ele>
        <time>2019-06-23T06:24:04.000Z</time>
      </trkpt>
      <trkpt lat="45.6872" lon="3.07593">
        <ele>665</ele>
        <time>2019-06-23T06:24:05.000Z</time>
      </trkpt>
      <trkpt lat="45.68724" lon="3.07587">
        <ele>664</ele>
        <time>2019-06-23T06:24:06.000Z</time>
      </trkpt>
      <trkpt lat="45.68726" lon="3.0758">
        <ele>663</ele>
        <time>2019-06-23T06:24:07.000Z</time>
      </trkpt>
      <trkpt lat="45.68728" lon="3.07575">
        <ele>661</ele>
        <time>2019-06-23T06:24:08.000Z</time>
      </trkpt>
      <trkpt lat="45.68729" lon="3.0757">
        <ele>660</ele>
        <time>2019-06-23T06:24:09.000Z</time>
      </trkpt>
      <trkpt lat="45.68731" lon="3.07564">
        <ele>659</ele>
        <time>2019-06-23T06:24:10.000Z</time>
      </trkpt>
      <trkpt lat="45.68733" lon="3.07559">
        <ele>659</ele>
        <time>2019-06-23T06:24:11.000Z</time>
      </trkpt>
      <trkpt lat="45.68735" lon="3.07555">
        <ele>658</ele>
        <time>2019-06-23T06:24:12.000Z</time>
      </trkpt>
      <trkpt lat="45.68735" lon="3.0755">
        <ele>658</ele>
        <time>2019-06-23T06:24:13.000Z</time>
      </trkpt>
      <trkpt lat="45.68736" lon="3.07547">
        <ele>658</ele>
        <time>2019-06-23T06:24:14.000Z</time>
      </trkpt>
      <trkpt lat="45.68737" lon="3.07543">
        <ele>657</ele>
        <time>2019-06-23T06:24:15.000Z</time>
      </trkpt>
      <trkpt lat="45.68739" lon="3.07538">
        <ele>657</ele>
        <time>2019-06-23T06:24:16.000Z</time>
      </trkpt>
      <trkpt lat="45.6874" lon="3.07535">
        <ele>657</ele>
        <time>2019-06-23T06:24:17.000Z</time>
      </trkpt>
      <trkpt lat="45.68741" lon="3.07531">
        <ele>658</ele>
        <time>2019-06-23T06:24:18.000Z</time>
      </trkpt>
      <trkpt lat="45.68743" lon="3.07527">
        <ele>659</ele>
        <time>2019-06-23T06:24:19.000Z</time>
      </trkpt>
      <trkpt lat="45.68745" lon="3.07523">
        <ele>658</ele>
        <time>2019-06-23T06:24:20.000Z</time>
      </trkpt>
      <trkpt lat="45.68747" lon="3.07517">
        <ele>658</ele>
        <time>2019-06-23T06:24:21.000Z</time>
      </trkpt>
      <trkpt lat="45.68749" lon="3.07513">
        <ele>657</ele>
        <time>2019-06-23T06:24:22.000Z</time>
      </trkpt>
      <trkpt lat="45.68752" lon="3.07506">
        <ele>657</ele>
        <time>2019-06-23T06:24:23.000Z</time>
      </trkpt>
      <trkpt lat="45.68754" lon="3.07501">
        <ele>657</ele>
        <time>2019-06-23T06:24:24.000Z</time>
      </trkpt>
      <trkpt lat="45.68758" lon="3.07496">
        <ele>658</ele>
        <time>2019-06-23T06:24:25.000Z</time>
      </trkpt>
      <trkpt lat="45.6876" lon="3.07493">
        <ele>659</ele>
        <time>2019-06-23T06:24:26.000Z</time>
      </trkpt>
      <trkpt lat="45.68763" lon="3.07489">
        <ele>658</ele>
        <time>2019-06-23T06:24:27.000Z</time>
      </trkpt>
      <trkpt lat="45.68765" lon="3.07485">
        <ele>657</ele>
        <time>2019-06-23T06:24:28.000Z</time>
      </trkpt>
      <trkpt lat="45.68767" lon="3.0748">
        <ele>656</ele>
        <time>2019-06-23T06:24:29.000Z</time>
      </trkpt>
      <trkpt lat="45.6877" lon="3.07475">
        <ele>656</ele>
        <time>2019-06-23T06:24:30.000Z</time>
      </trkpt>
      <trkpt lat="45.68773" lon="3.07471">
        <ele>656</ele>
        <time>2019-06-23T06:24:31.000Z</time>
      </trkpt>
      <trkpt lat="45.68776" lon="3.07467">
        <ele>657</ele>
        <time>2019-06-23T06:24:32.000Z</time>
      </trkpt>
      <trkpt lat="45.68782" lon="3.07462">
        <ele>658</ele>
        <time>2019-06-23T06:24:33.000Z</time>
      </trkpt>
      <trkpt lat="45.68788" lon="3.07457">
        <ele>656</ele>
        <time>2019-06-23T06:24:34.000Z</time>
      </trkpt>
      <trkpt lat="45.68796" lon="3.07449">
        <ele>652</ele>
        <time>2019-06-23T06:24:35.000Z</time>
      </trkpt>
      <trkpt lat="45.68802" lon="3.07443">
        <ele>650</ele>
        <time>2019-06-23T06:24:36.000Z</time>
      </trkpt>
      <trkpt lat="45.68807" lon="3.07436">
        <ele>648</ele>
        <time>2019-06-23T06:24:37.000Z</time>
      </trkpt>
      <trkpt lat="45.68813" lon="3.0743">
        <ele>647</ele>
        <time>2019-06-23T06:24:38.000Z</time>
      </trkpt>
      <trkpt lat="45.68818" lon="3.07424">
        <ele>646</ele>
        <time>2019-06-23T06:24:39.000Z</time>
      </trkpt>
      <trkpt lat="45.68825" lon="3.07417">
        <ele>647</ele>
        <time>2019-06-23T06:24:40.000Z</time>
      </trkpt>
      <trkpt lat="45.68832" lon="3.07411">
        <ele>648</ele>
        <time>2019-06-23T06:24:41.000Z</time>
      </trkpt>
      <trkpt lat="45.68837" lon="3.07406">
        <ele>648</ele>
        <time>2019-06-23T06:24:42.000Z</time>
      </trkpt>
      <trkpt lat="45.68842" lon="3.07401">
        <ele>647</ele>
        <time>2019-06-23T06:24:43.000Z</time>
      </trkpt>
      <trkpt lat="45.68845" lon="3.07397">
        <ele>647</ele>
        <time>2019-06-23T06:24:44.000Z</time>
      </trkpt>
      <trkpt lat="45.68848" lon="3.07394">
        <ele>647</ele>
        <time>2019-06-23T06:24:45.000Z</time>
      </trkpt>
      <trkpt lat="45.68851" lon="3.07393">
        <ele>649</ele>
        <time>2019-06-23T06:24:46.000Z</time>
      </trkpt>
      <trkpt lat="45.68853" lon="3.07391">
        <ele>649</ele>
        <time>2019-06-23T06:24:47.000Z</time>
      </trkpt>
      <trkpt lat="45.68854" lon="3.0739">
        <ele>649</ele>
        <time>2019-06-23T06:24:48.000Z</time>
      </trkpt>
      <trkpt lat="45.68856" lon="3.07388">
        <ele>648</ele>
        <time>2019-06-23T06:24:49.000Z</time>
      </trkpt>
      <trkpt lat="45.68857" lon="3.07386">
        <ele>649</ele>
        <time>2019-06-23T06:24:50.000Z</time>
      </trkpt>
      <trkpt lat="45.68859" lon="3.07384">
        <ele>649</ele>
        <time>2019-06-23T06:24:51.000Z</time>
      </trkpt>
      <trkpt lat="45.68861" lon="3.07381">
        <ele>648</ele>
        <time>2019-06-23T06:24:52.000Z</time>
      </trkpt>
      <trkpt lat="45.68863" lon="3.07379">
        <ele>648</ele>
        <time>2019-06-23T06:24:53.000Z</time>
      </trkpt>
      <trkpt lat="45.68866" lon="3.07376">
        <ele>649</ele>
        <time>2019-06-23T06:24:54.000Z</time>
      </trkpt>
      <trkpt lat="45.68868" lon="3.07374">
        <ele>649</ele>
        <time>2019-06-23T06:24:55.000Z</time>
      </trkpt>
      <trkpt lat="45.68869" lon="3.07373">
        <ele>650</ele>
        <time>2019-06-23T06:24:56.000Z</time>
      </trkpt>
      <trkpt lat="45.68871" lon="3.07372">
        <ele>650</ele>
        <time>2019-06-23T06:24:57.000Z</time>
      </trkpt>
      <trkpt lat="45.68872" lon="3.0737">
        <ele>649</ele>
        <time>2019-06-23T06:24:58.000Z</time>
      </trkpt>
      <trkpt lat="45.68873" lon="3.07368">
        <ele>649</ele>
        <time>2019-06-23T06:24:59.000Z</time>
      </trkpt>
      <trkpt lat="45.68875" lon="3.07364">
        <ele>648</ele>
        <time>2019-06-23T06:25:00.000Z</time>
      </trkpt>
      <trkpt lat="45.68878" lon="3.07362">
        <ele>646</ele>
        <time>2019-06-23T06:25:01.000Z</time>
      </trkpt>
      <trkpt lat="45.68879" lon="3.07359">
        <ele>645</ele>
        <time>2019-06-23T06:25:02.000Z</time>
      </trkpt>
      <trkpt lat="45.68881" lon="3.07357">
        <ele>644</ele>
        <time>2019-06-23T06:25:03.000Z</time>
      </trkpt>
      <trkpt lat="45.68882" lon="3.07355">
        <ele>644</ele>
        <time>2019-06-23T06:25:04.000Z</time>
      </trkpt>
      <trkpt lat="45.68884" lon="3.07351">
        <ele>644</ele>
        <time>2019-06-23T06:25:05.000Z</time>
      </trkpt>
      <trkpt lat="45.68886" lon="3.07347">
        <ele>644</ele>
        <time>2019-06-23T06:25:06.000Z</time>
      </trkpt>
      <trkpt lat="45.68888" lon="3.07344">
        <ele>645</ele>
        <time>2019-06-23T06:25:07.000Z</time>
      </trkpt>
      <trkpt lat="45.6889" lon="3.07341">
        <ele>646</ele>
        <time>2019-06-23T06:25:08.000Z</time>
      </trkpt>
      <trkpt lat="45.68891" lon="3.07335">
        <ele>644</ele>
        <time>2019-06-23T06:25:09.000Z</time>
      </trkpt>
      <trkpt lat="45.68893" lon="3.07331">
        <ele>644</ele>
        <time>2019-06-23T06:25:10.000Z</time>
      </trkpt>
      <trkpt lat="45.68895" lon="3.07327">
        <ele>643</ele>
        <time>2019-06-23T06:25:11.000Z</time>
      </trkpt>
      <trkpt lat="45.68897" lon="3.07322">
        <ele>643</ele>
        <time>2019-06-23T06:25:12.000Z</time>
      </trkpt>
      <trkpt lat="45.689" lon="3.07316">
        <ele>643</ele>
        <time>2019-06-23T06:25:13.000Z</time>
      </trkpt>
      <trkpt lat="45.68903" lon="3.07311">
        <ele>645</ele>
        <time>2019-06-23T06:25:14.000Z</time>
      </trkpt>
      <trkpt lat="45.68905" lon="3.07306">
        <ele>645</ele>
        <time>2019-06-23T06:25:15.000Z</time>
      </trkpt>
      <trkpt lat="45.68907" lon="3.07301">
        <ele>645</ele>
        <time>2019-06-23T06:25:16.000Z</time>
      </trkpt>
      <trkpt lat="45.68909" lon="3.07294">
        <ele>645</ele>
        <time>2019-06-23T06:25:17.000Z</time>
      </trkpt>
      <trkpt lat="45.68911" lon="3.07288">
        <ele>645</ele>
        <time>2019-06-23T06:25:18.000Z</time>
      </trkpt>
      <trkpt lat="45.68913" lon="3.07282">
        <ele>645</ele>
        <time>2019-06-23T06:25:19.000Z</time>
      </trkpt>
      <trkpt lat="45.68916" lon="3.07276">
        <ele>645</ele>
        <time>2019-06-23T06:25:20.000Z</time>
      </trkpt>
      <trkpt lat="45.68919" lon="3.07269">
        <ele>646</ele>
        <time>2019-06-23T06:25:21.000Z</time>
      </trkpt>
      <trkpt lat="45.68921" lon="3.07263">
        <ele>646</ele>
        <time>2019-06-23T06:25:22.000Z</time>
      </trkpt>
      <trkpt lat="45.68923" lon="3.07256">
        <ele>645</ele>
        <time>2019-06-23T06:25:23.000Z</time>
      </trkpt>
      <trkpt lat="45.68926" lon="3.07251">
        <ele>646</ele>
        <time>2019-06-23T06:25:24.000Z</time>
      </trkpt>
      <trkpt lat="45.68928" lon="3.07245">
        <ele>646</ele>
        <time>2019-06-23T06:25:25.000Z</time>
      </trkpt>
      <trkpt lat="45.6893" lon="3.0724">
        <ele>647</ele>
        <time>2019-06-23T06:25:26.000Z</time>
      </trkpt>
      <trkpt lat="45.68931" lon="3.07234">
        <ele>650</ele>
        <time>2019-06-23T06:25:27.000Z</time>
      </trkpt>
      <trkpt lat="45.68932" lon="3.0723">
        <ele>651</ele>
        <time>2019-06-23T06:25:28.000Z</time>
      </trkpt>
      <trkpt lat="45.68934" lon="3.07226">
        <ele>652</ele>
        <time>2019-06-23T06:25:29.000Z</time>
      </trkpt>
      <trkpt lat="45.68935" lon="3.07222">
        <ele>653</ele>
        <time>2019-06-23T06:25:30.000Z</time>
      </trkpt>
      <trkpt lat="45.68936" lon="3.07218">
        <ele>654</ele>
        <time>2019-06-23T06:25:31.000Z</time>
      </trkpt>
      <trkpt lat="45.68938" lon="3.07214">
        <ele>655</ele>
        <time>2019-06-23T06:25:32.000Z</time>
      </trkpt>
      <trkpt lat="45.68939" lon="3.07211">
        <ele>656</ele>
        <time>2019-06-23T06:25:33.000Z</time>
      </trkpt>
      <trkpt lat="45.6894" lon="3.07207">
        <ele>656</ele>
        <time>2019-06-23T06:25:34.000Z</time>
      </trkpt>
      <trkpt lat="45.68941" lon="3.07202">
        <ele>656</ele>
        <time>2019-06-23T06:25:35.000Z</time>
      </trkpt>
      <trkpt lat="45.68942" lon="3.07198">
        <ele>656</ele>
        <time>2019-06-23T06:25:36.000Z</time>
      </trkpt>
      <trkpt lat="45.68942" lon="3.07195">
        <ele>656</ele>
        <time>2019-06-23T06:25:37.000Z</time>
      </trkpt>
      <trkpt lat="45.68943" lon="3.07191">
        <ele>656</ele>
        <time>2019-06-23T06:25:38.000Z</time>
      </trkpt>
      <trkpt lat="45.68943" lon="3.07187">
        <ele>656</ele>
        <time>2019-06-23T06:25:39.000Z</time>
      </trkpt>
      <trkpt lat="45.68943" lon="3.07184">
        <ele>655</ele>
        <time>2019-06-23T06:25:40.000Z</time>
      </trkpt>
      <trkpt lat="45.68943" lon="3.07181">
        <ele>654</ele>
        <time>2019-06-23T06:25:41.000Z</time>
      </trkpt>
      <trkpt lat="45.68945" lon="3.07175">
        <ele>655</ele>
        <time>2019-06-23T06:25:42.000Z</time>
      </trkpt>
      <trkpt lat="45.68945" lon="3.07172">
        <ele>654</ele>
        <time>2019-06-23T06:25:43.000Z</time>
      </trkpt>
      <trkpt lat="45.68945" lon="3.0717">
        <ele>654</ele>
        <time>2019-06-23T06:25:44.000Z</time>
      </trkpt>
      <trkpt lat="45.68946" lon="3.07166">
        <ele>654</ele>
        <time>2019-06-23T06:25:45.000Z</time>
      </trkpt>
      <trkpt lat="45.68947" lon="3.07163">
        <ele>655</ele>
        <time>2019-06-23T06:25:46.000Z</time>
      </trkpt>
      <trkpt lat="45.68948" lon="3.07158">
        <ele>654</ele>
        <time>2019-06-23T06:25:47.000Z</time>
      </trkpt>
      <trkpt lat="45.68948" lon="3.07154">
        <ele>654</ele>
        <time>2019-06-23T06:25:48.000Z</time>
      </trkpt>
      <trkpt lat="45.68949" lon="3.0715">
        <ele>654</ele>
        <time>2019-06-23T06:25:49.000Z</time>
      </trkpt>
      <trkpt lat="45.6895" lon="3.07145">
        <ele>653</ele>
        <time>2019-06-23T06:25:50.000Z</time>
      </trkpt>
      <trkpt lat="45.68952" lon="3.07139">
        <ele>653</ele>
        <time>2019-06-23T06:25:51.000Z</time>
      </trkpt>
      <trkpt lat="45.68954" lon="3.07135">
        <ele>653</ele>
        <time>2019-06-23T06:25:52.000Z</time>
      </trkpt>
      <trkpt lat="45.68955" lon="3.07131">
        <ele>653</ele>
        <time>2019-06-23T06:25:53.000Z</time>
      </trkpt>
      <trkpt lat="45.68956" lon="3.07127">
        <ele>653</ele>
        <time>2019-06-23T06:25:54.000Z</time>
      </trkpt>
      <trkpt lat="45.68957" lon="3.07123">
        <ele>653</ele>
        <time>2019-06-23T06:25:55.000Z</time>
      </trkpt>
      <trkpt lat="45.68959" lon="3.07119">
        <ele>653</ele>
        <time>2019-06-23T06:25:56.000Z</time>
      </trkpt>
      <trkpt lat="45.6896" lon="3.07116">
        <ele>654</ele>
        <time>2019-06-23T06:25:57.000Z</time>
      </trkpt>
      <trkpt lat="45.68961" lon="3.07112">
        <ele>654</ele>
        <time>2019-06-23T06:25:58.000Z</time>
      </trkpt>
      <trkpt lat="45.68962" lon="3.07108">
        <ele>653</ele>
        <time>2019-06-23T06:25:59.000Z</time>
      </trkpt>
      <trkpt lat="45.68963" lon="3.07106">
        <ele>655</ele>
        <time>2019-06-23T06:26:00.000Z</time>
      </trkpt>
      <trkpt lat="45.68964" lon="3.07104">
        <ele>655</ele>
        <time>2019-06-23T06:26:01.000Z</time>
      </trkpt>
      <trkpt lat="45.68964" lon="3.07102">
        <ele>655</ele>
        <time>2019-06-23T06:26:02.000Z</time>
      </trkpt>
      <trkpt lat="45.68964" lon="3.071">
        <ele>655</ele>
        <time>2019-06-23T06:26:03.000Z</time>
      </trkpt>
      <trkpt lat="45.68964" lon="3.07098">
        <ele>656</ele>
        <time>2019-06-23T06:26:04.000Z</time>
      </trkpt>
      <trkpt lat="45.68965" lon="3.07096">
        <ele>656</ele>
        <time>2019-06-23T06:26:05.000Z</time>
      </trkpt>
      <trkpt lat="45.68965" lon="3.07094">
        <ele>656</ele>
        <time>2019-06-23T06:26:06.000Z</time>
      </trkpt>
      <trkpt lat="45.68965" lon="3.07092">
        <ele>656</ele>
        <time>2019-06-23T06:26:07.000Z</time>
      </trkpt>
      <trkpt lat="45.68966" lon="3.07088">
        <ele>656</ele>
        <time>2019-06-23T06:26:08.000Z</time>
      </trkpt>
      <trkpt lat="45.68966" lon="3.07085">
        <ele>656</ele>
        <time>2019-06-23T06:26:09.000Z</time>
      </trkpt>
      <trkpt lat="45.68967" lon="3.07083">
        <ele>656</ele>
        <time>2019-06-23T06:26:10.000Z</time>
      </trkpt>
      <trkpt lat="45.68967" lon="3.07079">
        <ele>656</ele>
        <time>2019-06-23T06:26:11.000Z</time>
      </trkpt>
      <trkpt lat="45.68968" lon="3.07075">
        <ele>656</ele>
        <time>2019-06-23T06:26:12.000Z</time>
      </trkpt>
      <trkpt lat="45.68968" lon="3.07071">
        <ele>656</ele>
        <time>2019-06-23T06:26:13.000Z</time>
      </trkpt>
      <trkpt lat="45.6897" lon="3.07067">
        <ele>657</ele>
        <time>2019-06-23T06:26:14.000Z</time>
      </trkpt>
      <trkpt lat="45.6897" lon="3.07063">
        <ele>657</ele>
        <time>2019-06-23T06:26:15.000Z</time>
      </trkpt>
      <trkpt lat="45.68971" lon="3.0706">
        <ele>657</ele>
        <time>2019-06-23T06:26:16.000Z</time>
      </trkpt>
      <trkpt lat="45.68971" lon="3.07058">
        <ele>657</ele>
        <time>2019-06-23T06:26:17.000Z</time>
      </trkpt>
      <trkpt lat="45.6897" lon="3.07054">
        <ele>657</ele>
        <time>2019-06-23T06:26:18.000Z</time>
      </trkpt>
      <trkpt lat="45.6897" lon="3.07051">
        <ele>657</ele>
        <time>2019-06-23T06:26:19.000Z</time>
      </trkpt>
      <trkpt lat="45.68971" lon="3.07047">
        <ele>658</ele>
        <time>2019-06-23T06:26:20.000Z</time>
      </trkpt>
      <trkpt lat="45.68972" lon="3.07044">
        <ele>659</ele>
        <time>2019-06-23T06:26:21.000Z</time>
      </trkpt>
      <trkpt lat="45.68973" lon="3.07041">
        <ele>660</ele>
        <time>2019-06-23T06:26:22.000Z</time>
      </trkpt>
      <trkpt lat="45.68974" lon="3.07038">
        <ele>661</ele>
        <time>2019-06-23T06:26:23.000Z</time>
      </trkpt>
      <trkpt lat="45.68974" lon="3.07036">
        <ele>663</ele>
        <time>2019-06-23T06:26:24.000Z</time>
      </trkpt>
      <trkpt lat="45.68974" lon="3.07032">
        <ele>663</ele>
        <time>2019-06-23T06:26:25.000Z</time>
      </trkpt>
      <trkpt lat="45.68974" lon="3.07029">
        <ele>663</ele>
        <time>2019-06-23T06:26:26.000Z</time>
      </trkpt>
      <trkpt lat="45.68974" lon="3.07027">
        <ele>664</ele>
        <time>2019-06-23T06:26:27.000Z</time>
      </trkpt>
      <trkpt lat="45.68975" lon="3.07024">
        <ele>665</ele>
        <time>2019-06-23T06:26:28.000Z</time>
      </trkpt>
      <trkpt lat="45.68974" lon="3.0702">
        <ele>665</ele>
        <time>2019-06-23T06:26:29.000Z</time>
      </trkpt>
      <trkpt lat="45.68973" lon="3.07017">
        <ele>664</ele>
        <time>2019-06-23T06:26:30.000Z</time>
      </trkpt>
      <trkpt lat="45.68972" lon="3.07015">
        <ele>663</ele>
        <time>2019-06-23T06:26:31.000Z</time>
      </trkpt>
      <trkpt lat="45.68971" lon="3.07013">
        <ele>663</ele>
        <time>2019-06-23T06:26:32.000Z</time>
      </trkpt>
      <trkpt lat="45.68971" lon="3.07009">
        <ele>663</ele>
        <time>2019-06-23T06:26:33.000Z</time>
      </trkpt>
      <trkpt lat="45.68971" lon="3.07006">
        <ele>663</ele>
        <time>2019-06-23T06:26:34.000Z</time>
      </trkpt>
      <trkpt lat="45.68973" lon="3.07001">
        <ele>666</ele>
        <time>2019-06-23T06:26:35.000Z</time>
      </trkpt>
      <trkpt lat="45.68974" lon="3.06998">
        <ele>667</ele>
        <time>2019-06-23T06:26:36.000Z</time>
      </trkpt>
      <trkpt lat="45.68974" lon="3.06995">
        <ele>667</ele>
        <time>2019-06-23T06:26:37.000Z</time>
      </trkpt>
      <trkpt lat="45.68973" lon="3.06991">
        <ele>666</ele>
        <time>2019-06-23T06:26:38.000Z</time>
      </trkpt>
      <trkpt lat="45.68972" lon="3.06987">
        <ele>665</ele>
        <time>2019-06-23T06:26:39.000Z</time>
      </trkpt>
      <trkpt lat="45.68972" lon="3.06984">
        <ele>665</ele>
        <time>2019-06-23T06:26:40.000Z</time>
      </trkpt>
      <trkpt lat="45.68972" lon="3.06981">
        <ele>665</ele>
        <time>2019-06-23T06:26:41.000Z</time>
      </trkpt>
      <trkpt lat="45.68972" lon="3.06977">
        <ele>666</ele>
        <time>2019-06-23T06:26:42.000Z</time>
      </trkpt>
      <trkpt lat="45.68974" lon="3.06972">
        <ele>667</ele>
        <time>2019-06-23T06:26:43.000Z</time>
      </trkpt>
      <trkpt lat="45.68976" lon="3.06967">
        <ele>669</ele>
        <time>2019-06-23T06:26:44.000Z</time>
      </trkpt>
      <trkpt lat="45.68978" lon="3.06963">
        <ele>671</ele>
        <time>2019-06-23T06:26:45.000Z</time>
      </trkpt>
      <trkpt lat="45.68978" lon="3.06959">
        <ele>670</ele>
        <time>2019-06-23T06:26:46.000Z</time>
      </trkpt>
      <trkpt lat="45.68977" lon="3.06956">
        <ele>668</ele>
        <time>2019-06-23T06:26:47.000Z</time>
      </trkpt>
      <trkpt lat="45.68977" lon="3.06953">
        <ele>667</ele>
        <time>2019-06-23T06:26:48.000Z</time>
      </trkpt>
      <trkpt lat="45.68977" lon="3.06953">
        <ele>668</ele>
        <time>2019-06-23T06:26:49.000Z</time>
      </trkpt>
      <trkpt lat="45.68977" lon="3.06949">
        <ele>668</ele>
        <time>2019-06-23T06:26:50.000Z</time>
      </trkpt>
      <trkpt lat="45.68978" lon="3.06946">
        <ele>669</ele>
        <time>2019-06-23T06:26:51.000Z</time>
      </trkpt>
      <trkpt lat="45.68979" lon="3.06943">
        <ele>668</ele>
        <time>2019-06-23T06:26:52.000Z</time>
      </trkpt>
      <trkpt lat="45.6898" lon="3.0694">
        <ele>668</ele>
        <time>2019-06-23T06:26:53.000Z</time>
      </trkpt>
      <trkpt lat="45.68981" lon="3.06936">
        <ele>670</ele>
        <time>2019-06-23T06:26:54.000Z</time>
      </trkpt>
      <trkpt lat="45.68982" lon="3.06933">
        <ele>670</ele>
        <time>2019-06-23T06:26:55.000Z</time>
      </trkpt>
      <trkpt lat="45.68982" lon="3.06929">
        <ele>670</ele>
        <time>2019-06-23T06:26:56.000Z</time>
      </trkpt>
      <trkpt lat="45.68983" lon="3.06926">
        <ele>670</ele>
        <time>2019-06-23T06:26:57.000Z</time>
      </trkpt>
      <trkpt lat="45.68984" lon="3.06922">
        <ele>670</ele>
        <time>2019-06-23T06:26:58.000Z</time>
      </trkpt>
      <trkpt lat="45.68985" lon="3.06919">
        <ele>670</ele>
        <time>2019-06-23T06:26:59.000Z</time>
      </trkpt>
      <trkpt lat="45.68985" lon="3.06915">
        <ele>671</ele>
        <time>2019-06-23T06:27:00.000Z</time>
      </trkpt>
      <trkpt lat="45.68986" lon="3.06911">
        <ele>671</ele>
        <time>2019-06-23T06:27:01.000Z</time>
      </trkpt>
      <trkpt lat="45.68988" lon="3.06907">
        <ele>671</ele>
        <time>2019-06-23T06:27:02.000Z</time>
      </trkpt>
      <trkpt lat="45.68988" lon="3.06903">
        <ele>670</ele>
        <time>2019-06-23T06:27:03.000Z</time>
      </trkpt>
      <trkpt lat="45.68989" lon="3.06899">
        <ele>669</ele>
        <time>2019-06-23T06:27:04.000Z</time>
      </trkpt>
      <trkpt lat="45.68989" lon="3.06896">
        <ele>667</ele>
        <time>2019-06-23T06:27:05.000Z</time>
      </trkpt>
      <trkpt lat="45.6899" lon="3.06892">
        <ele>666</ele>
        <time>2019-06-23T06:27:06.000Z</time>
      </trkpt>
      <trkpt lat="45.68991" lon="3.0689">
        <ele>666</ele>
        <time>2019-06-23T06:27:07.000Z</time>
      </trkpt>
      <trkpt lat="45.68992" lon="3.06887">
        <ele>667</ele>
        <time>2019-06-23T06:27:08.000Z</time>
      </trkpt>
      <trkpt lat="45.68994" lon="3.06884">
        <ele>666</ele>
        <time>2019-06-23T06:27:09.000Z</time>
      </trkpt>
      <trkpt lat="45.68995" lon="3.06881">
        <ele>664</ele>
        <time>2019-06-23T06:27:10.000Z</time>
      </trkpt>
      <trkpt lat="45.68996" lon="3.06878">
        <ele>665</ele>
        <time>2019-06-23T06:27:11.000Z</time>
      </trkpt>
      <trkpt lat="45.68997" lon="3.06875">
        <ele>665</ele>
        <time>2019-06-23T06:27:12.000Z</time>
      </trkpt>
      <trkpt lat="45.68998" lon="3.06872">
        <ele>664</ele>
        <time>2019-06-23T06:27:13.000Z</time>
      </trkpt>
      <trkpt lat="45.68998" lon="3.06868">
        <ele>664</ele>
        <time>2019-06-23T06:27:14.000Z</time>
      </trkpt>
      <trkpt lat="45.68999" lon="3.06866">
        <ele>664</ele>
        <time>2019-06-23T06:27:15.000Z</time>
      </trkpt>
      <trkpt lat="45.68999" lon="3.06864">
        <ele>664</ele>
        <time>2019-06-23T06:27:16.000Z</time>
      </trkpt>
      <trkpt lat="45.69" lon="3.06863">
        <ele>665</ele>
        <time>2019-06-23T06:27:17.000Z</time>
      </trkpt>
      <trkpt lat="45.68999" lon="3.06862">
        <ele>665</ele>
        <time>2019-06-23T06:27:18.000Z</time>
      </trkpt>
      <trkpt lat="45.69" lon="3.0686">
        <ele>665</ele>
        <time>2019-06-23T06:27:19.000Z</time>
      </trkpt>
      <trkpt lat="45.69" lon="3.06858">
        <ele>664</ele>
        <time>2019-06-23T06:27:20.000Z</time>
      </trkpt>
      <trkpt lat="45.69" lon="3.06856">
        <ele>665</ele>
        <time>2019-06-23T06:27:21.000Z</time>
      </trkpt>
      <trkpt lat="45.69001" lon="3.06853">
        <ele>666</ele>
        <time>2019-06-23T06:27:22.000Z</time>
      </trkpt>
      <trkpt lat="45.69003" lon="3.06851">
        <ele>667</ele>
        <time>2019-06-23T06:27:23.000Z</time>
      </trkpt>
      <trkpt lat="45.69003" lon="3.06849">
        <ele>668</ele>
        <time>2019-06-23T06:27:24.000Z</time>
      </trkpt>
      <trkpt lat="45.69004" lon="3.06847">
        <ele>669</ele>
        <time>2019-06-23T06:27:25.000Z</time>
      </trkpt>
      <trkpt lat="45.69003" lon="3.06845">
        <ele>669</ele>
        <time>2019-06-23T06:27:26.000Z</time>
      </trkpt>
      <trkpt lat="45.69004" lon="3.0684">
        <ele>670</ele>
        <time>2019-06-23T06:27:27.000Z</time>
      </trkpt>
      <trkpt lat="45.69007" lon="3.06835">
        <ele>672</ele>
        <time>2019-06-23T06:27:28.000Z</time>
      </trkpt>
      <trkpt lat="45.69007" lon="3.06833">
        <ele>673</ele>
        <time>2019-06-23T06:27:29.000Z</time>
      </trkpt>
      <trkpt lat="45.69008" lon="3.06831">
        <ele>674</ele>
        <time>2019-06-23T06:27:30.000Z</time>
      </trkpt>
      <trkpt lat="45.69009" lon="3.0683">
        <ele>675</ele>
        <time>2019-06-23T06:27:31.000Z</time>
      </trkpt>
      <trkpt lat="45.69009" lon="3.06828">
        <ele>675</ele>
        <time>2019-06-23T06:27:32.000Z</time>
      </trkpt>
      <trkpt lat="45.69012" lon="3.06823">
        <ele>674</ele>
        <time>2019-06-23T06:27:33.000Z</time>
      </trkpt>
      <trkpt lat="45.6901" lon="3.06804">
        <ele>668</ele>
        <time>2019-06-23T06:27:34.000Z</time>
      </trkpt>
      <trkpt lat="45.69011" lon="3.06803">
        <ele>668</ele>
        <time>2019-06-23T06:27:35.000Z</time>
      </trkpt>
      <trkpt lat="45.69012" lon="3.06801">
        <ele>669</ele>
        <time>2019-06-23T06:27:36.000Z</time>
      </trkpt>
      <trkpt lat="45.69012" lon="3.06799">
        <ele>669</ele>
        <time>2019-06-23T06:27:37.000Z</time>
      </trkpt>
      <trkpt lat="45.69012" lon="3.06798">
        <ele>669</ele>
        <time>2019-06-23T06:27:38.000Z</time>
      </trkpt>
      <trkpt lat="45.69013" lon="3.06796">
        <ele>669</ele>
        <time>2019-06-23T06:27:39.000Z</time>
      </trkpt>
      <trkpt lat="45.69014" lon="3.06794">
        <ele>669</ele>
        <time>2019-06-23T06:27:40.000Z</time>
      </trkpt>
      <trkpt lat="45.69015" lon="3.06792">
        <ele>669</ele>
        <time>2019-06-23T06:27:41.000Z</time>
      </trkpt>
      <trkpt lat="45.69016" lon="3.0679">
        <ele>669</ele>
        <time>2019-06-23T06:27:42.000Z</time>
      </trkpt>
      <trkpt lat="45.69016" lon="3.06787">
        <ele>668</ele>
        <time>2019-06-23T06:27:43.000Z</time>
      </trkpt>
      <trkpt lat="45.69017" lon="3.06785">
        <ele>669</ele>
        <time>2019-06-23T06:27:44.000Z</time>
      </trkpt>
      <trkpt lat="45.69019" lon="3.06782">
        <ele>670</ele>
        <time>2019-06-23T06:27:45.000Z</time>
      </trkpt>
      <trkpt lat="45.6902" lon="3.0678">
        <ele>670</ele>
        <time>2019-06-23T06:27:46.000Z</time>
      </trkpt>
      <trkpt lat="45.69021" lon="3.06779">
        <ele>672</ele>
        <time>2019-06-23T06:27:47.000Z</time>
      </trkpt>
      <trkpt lat="45.69022" lon="3.06776">
        <ele>673</ele>
        <time>2019-06-23T06:27:48.000Z</time>
      </trkpt>
      <trkpt lat="45.69023" lon="3.06774">
        <ele>674</ele>
        <time>2019-06-23T06:27:49.000Z</time>
      </trkpt>
      <trkpt lat="45.69024" lon="3.06771">
        <ele>675</ele>
        <time>2019-06-23T06:27:50.000Z</time>
      </trkpt>
      <trkpt lat="45.69025" lon="3.06768">
        <ele>676</ele>
        <time>2019-06-23T06:27:51.000Z</time>
      </trkpt>
      <trkpt lat="45.69026" lon="3.06766">
        <ele>679</ele>
        <time>2019-06-23T06:27:52.000Z</time>
      </trkpt>
      <trkpt lat="45.69027" lon="3.06764">
        <ele>680</ele>
        <time>2019-06-23T06:27:53.000Z</time>
      </trkpt>
      <trkpt lat="45.69027" lon="3.06762">
        <ele>681</ele>
        <time>2019-06-23T06:27:54.000Z</time>
      </trkpt>
      <trkpt lat="45.69029" lon="3.0676">
        <ele>682</ele>
        <time>2019-06-23T06:27:55.000Z</time>
      </trkpt>
      <trkpt lat="45.69029" lon="3.06757">
        <ele>682</ele>
        <time>2019-06-23T06:27:56.000Z</time>
      </trkpt>
      <trkpt lat="45.69029" lon="3.06754">
        <ele>683</ele>
        <time>2019-06-23T06:27:57.000Z</time>
      </trkpt>
      <trkpt lat="45.6903" lon="3.06752">
        <ele>683</ele>
        <time>2019-06-23T06:27:58.000Z</time>
      </trkpt>
      <trkpt lat="45.69031" lon="3.06749">
        <ele>684</ele>
        <time>2019-06-23T06:27:59.000Z</time>
      </trkpt>
      <trkpt lat="45.6903" lon="3.06746">
        <ele>683</ele>
        <time>2019-06-23T06:28:00.000Z</time>
      </trkpt>
      <trkpt lat="45.6903" lon="3.06742">
        <ele>683</ele>
        <time>2019-06-23T06:28:01.000Z</time>
      </trkpt>
      <trkpt lat="45.6903" lon="3.06738">
        <ele>683</ele>
        <time>2019-06-23T06:28:02.000Z</time>
      </trkpt>
      <trkpt lat="45.6903" lon="3.06736">
        <ele>684</ele>
        <time>2019-06-23T06:28:03.000Z</time>
      </trkpt>
      <trkpt lat="45.6903" lon="3.06733">
        <ele>684</ele>
        <time>2019-06-23T06:28:04.000Z</time>
      </trkpt>
      <trkpt lat="45.69031" lon="3.06729">
        <ele>684</ele>
        <time>2019-06-23T06:28:05.000Z</time>
      </trkpt>
      <trkpt lat="45.69031" lon="3.06725">
        <ele>683</ele>
        <time>2019-06-23T06:28:06.000Z</time>
      </trkpt>
      <trkpt lat="45.69029" lon="3.06722">
        <ele>681</ele>
        <time>2019-06-23T06:28:07.000Z</time>
      </trkpt>
      <trkpt lat="45.69029" lon="3.06718">
        <ele>680</ele>
        <time>2019-06-23T06:28:08.000Z</time>
      </trkpt>
      <trkpt lat="45.69029" lon="3.06715">
        <ele>680</ele>
        <time>2019-06-23T06:28:09.000Z</time>
      </trkpt>
      <trkpt lat="45.69029" lon="3.06713">
        <ele>680</ele>
        <time>2019-06-23T06:28:10.000Z</time>
      </trkpt>
      <trkpt lat="45.69028" lon="3.0671">
        <ele>680</ele>
        <time>2019-06-23T06:28:11.000Z</time>
      </trkpt>
      <trkpt lat="45.69028" lon="3.06708">
        <ele>679</ele>
        <time>2019-06-23T06:28:12.000Z</time>
      </trkpt>
      <trkpt lat="45.69028" lon="3.06705">
        <ele>680</ele>
        <time>2019-06-23T06:28:13.000Z</time>
      </trkpt>
      <trkpt lat="45.69029" lon="3.06703">
        <ele>680</ele>
        <time>2019-06-23T06:28:14.000Z</time>
      </trkpt>
      <trkpt lat="45.6903" lon="3.06699">
        <ele>680</ele>
        <time>2019-06-23T06:28:15.000Z</time>
      </trkpt>
      <trkpt lat="45.6903" lon="3.06696">
        <ele>679</ele>
        <time>2019-06-23T06:28:16.000Z</time>
      </trkpt>
      <trkpt lat="45.69031" lon="3.06693">
        <ele>679</ele>
        <time>2019-06-23T06:28:17.000Z</time>
      </trkpt>
      <trkpt lat="45.69031" lon="3.06691">
        <ele>680</ele>
        <time>2019-06-23T06:28:18.000Z</time>
      </trkpt>
      <trkpt lat="45.6903" lon="3.06689">
        <ele>680</ele>
        <time>2019-06-23T06:28:19.000Z</time>
      </trkpt>
      <trkpt lat="45.6903" lon="3.06687">
        <ele>681</ele>
        <time>2019-06-23T06:28:20.000Z</time>
      </trkpt>
      <trkpt lat="45.69031" lon="3.06685">
        <ele>681</ele>
        <time>2019-06-23T06:28:21.000Z</time>
      </trkpt>
      <trkpt lat="45.6903" lon="3.06683">
        <ele>681</ele>
        <time>2019-06-23T06:28:22.000Z</time>
      </trkpt>
      <trkpt lat="45.6903" lon="3.0668">
        <ele>681</ele>
        <time>2019-06-23T06:28:23.000Z</time>
      </trkpt>
      <trkpt lat="45.6903" lon="3.06679">
        <ele>682</ele>
        <time>2019-06-23T06:28:24.000Z</time>
      </trkpt>
      <trkpt lat="45.6903" lon="3.06678">
        <ele>682</ele>
        <time>2019-06-23T06:28:25.000Z</time>
      </trkpt>
      <trkpt lat="45.69029" lon="3.06676">
        <ele>682</ele>
        <time>2019-06-23T06:28:26.000Z</time>
      </trkpt>
      <trkpt lat="45.69028" lon="3.06675">
        <ele>682</ele>
        <time>2019-06-23T06:28:27.000Z</time>
      </trkpt>
      <trkpt lat="45.69027" lon="3.06673">
        <ele>682</ele>
        <time>2019-06-23T06:28:28.000Z</time>
      </trkpt>
      <trkpt lat="45.69026" lon="3.06671">
        <ele>682</ele>
        <time>2019-06-23T06:28:29.000Z</time>
      </trkpt>
      <trkpt lat="45.69026" lon="3.0667">
        <ele>683</ele>
        <time>2019-06-23T06:28:30.000Z</time>
      </trkpt>
      <trkpt lat="45.69026" lon="3.06667">
        <ele>683</ele>
        <time>2019-06-23T06:28:31.000Z</time>
      </trkpt>
      <trkpt lat="45.69026" lon="3.06666">
        <ele>684</ele>
        <time>2019-06-23T06:28:32.000Z</time>
      </trkpt>
      <trkpt lat="45.69025" lon="3.06664">
        <ele>685</ele>
        <time>2019-06-23T06:28:33.000Z</time>
      </trkpt>
      <trkpt lat="45.69025" lon="3.06663">
        <ele>685</ele>
        <time>2019-06-23T06:28:34.000Z</time>
      </trkpt>
      <trkpt lat="45.69024" lon="3.06662">
        <ele>686</ele>
        <time>2019-06-23T06:28:35.000Z</time>
      </trkpt>
      <trkpt lat="45.69023" lon="3.06662">
        <ele>687</ele>
        <time>2019-06-23T06:28:36.000Z</time>
      </trkpt>
      <trkpt lat="45.69022" lon="3.0666">
        <ele>688</ele>
        <time>2019-06-23T06:28:37.000Z</time>
      </trkpt>
      <trkpt lat="45.69021" lon="3.06658">
        <ele>688</ele>
        <time>2019-06-23T06:28:38.000Z</time>
      </trkpt>
      <trkpt lat="45.69019" lon="3.06656">
        <ele>688</ele>
        <time>2019-06-23T06:28:39.000Z</time>
      </trkpt>
      <trkpt lat="45.69017" lon="3.06654">
        <ele>688</ele>
        <time>2019-06-23T06:28:40.000Z</time>
      </trkpt>
      <trkpt lat="45.69015" lon="3.06651">
        <ele>689</ele>
        <time>2019-06-23T06:28:41.000Z</time>
      </trkpt>
      <trkpt lat="45.69014" lon="3.0665">
        <ele>690</ele>
        <time>2019-06-23T06:28:42.000Z</time>
      </trkpt>
      <trkpt lat="45.69013" lon="3.06648">
        <ele>690</ele>
        <time>2019-06-23T06:28:43.000Z</time>
      </trkpt>
      <trkpt lat="45.69012" lon="3.06647">
        <ele>691</ele>
        <time>2019-06-23T06:28:44.000Z</time>
      </trkpt>
      <trkpt lat="45.69012" lon="3.06646">
        <ele>692</ele>
        <time>2019-06-23T06:28:45.000Z</time>
      </trkpt>
      <trkpt lat="45.69011" lon="3.06644">
        <ele>693</ele>
        <time>2019-06-23T06:28:46.000Z</time>
      </trkpt>
      <trkpt lat="45.6901" lon="3.06643">
        <ele>695</ele>
        <time>2019-06-23T06:28:47.000Z</time>
      </trkpt>
      <trkpt lat="45.69007" lon="3.06641">
        <ele>693</ele>
        <time>2019-06-23T06:28:48.000Z</time>
      </trkpt>
      <trkpt lat="45.69003" lon="3.06638">
        <ele>689</ele>
        <time>2019-06-23T06:28:49.000Z</time>
      </trkpt>
      <trkpt lat="45.69002" lon="3.06637">
        <ele>689</ele>
        <time>2019-06-23T06:28:50.000Z</time>
      </trkpt>
      <trkpt lat="45.68999" lon="3.06633">
        <ele>685</ele>
        <time>2019-06-23T06:28:51.000Z</time>
      </trkpt>
      <trkpt lat="45.68997" lon="3.0663">
        <ele>683</ele>
        <time>2019-06-23T06:28:52.000Z</time>
      </trkpt>
      <trkpt lat="45.68996" lon="3.0663">
        <ele>682</ele>
        <time>2019-06-23T06:28:53.000Z</time>
      </trkpt>
      <trkpt lat="45.68995" lon="3.0663">
        <ele>682</ele>
        <time>2019-06-23T06:28:54.000Z</time>
      </trkpt>
      <trkpt lat="45.68994" lon="3.0663">
        <ele>682</ele>
        <time>2019-06-23T06:28:55.000Z</time>
      </trkpt>
      <trkpt lat="45.68994" lon="3.06631">
        <ele>682</ele>
        <time>2019-06-23T06:28:56.000Z</time>
      </trkpt>
      <trkpt lat="45.68994" lon="3.06631">
        <ele>683</ele>
        <time>2019-06-23T06:28:57.000Z</time>
      </trkpt>
      <trkpt lat="45.68994" lon="3.06631">
        <ele>684</ele>
        <time>2019-06-23T06:28:58.000Z</time>
      </trkpt>
      <trkpt lat="45.68994" lon="3.0663">
        <ele>686</ele>
        <time>2019-06-23T06:28:59.000Z</time>
      </trkpt>
      <trkpt lat="45.68995" lon="3.06631">
        <ele>686</ele>
        <time>2019-06-23T06:29:00.000Z</time>
      </trkpt>
      <trkpt lat="45.68995" lon="3.06632">
        <ele>686</ele>
        <time>2019-06-23T06:29:01.000Z</time>
      </trkpt>
      <trkpt lat="45.68996" lon="3.06633">
        <ele>686</ele>
        <time>2019-06-23T06:29:02.000Z</time>
      </trkpt>
      <trkpt lat="45.68997" lon="3.06634">
        <ele>687</ele>
        <time>2019-06-23T06:29:03.000Z</time>
      </trkpt>
      <trkpt lat="45.68998" lon="3.06635">
        <ele>688</ele>
        <time>2019-06-23T06:29:04.000Z</time>
      </trkpt>
      <trkpt lat="45.68999" lon="3.06636">
        <ele>688</ele>
        <time>2019-06-23T06:29:05.000Z</time>
      </trkpt>
      <trkpt lat="45.69001" lon="3.06637">
        <ele>688</ele>
        <time>2019-06-23T06:29:06.000Z</time>
      </trkpt>
      <trkpt lat="45.69002" lon="3.06638">
        <ele>689</ele>
        <time>2019-06-23T06:29:07.000Z</time>
      </trkpt>
      <trkpt lat="45.69004" lon="3.06639">
        <ele>689</ele>
        <time>2019-06-23T06:29:08.000Z</time>
      </trkpt>
      <trkpt lat="45.69005" lon="3.06641">
        <ele>688</ele>
        <time>2019-06-23T06:29:09.000Z</time>
      </trkpt>
      <trkpt lat="45.69005" lon="3.0664">
        <ele>688</ele>
        <time>2019-06-23T06:29:10.000Z</time>
      </trkpt>
      <trkpt lat="45.69007" lon="3.06637">
        <ele>688</ele>
        <time>2019-06-23T06:29:11.000Z</time>
      </trkpt>
      <trkpt lat="45.69007" lon="3.06638">
        <ele>688</ele>
        <time>2019-06-23T06:29:12.000Z</time>
      </trkpt>
      <trkpt lat="45.69007" lon="3.06639">
        <ele>687</ele>
        <time>2019-06-23T06:29:13.000Z</time>
      </trkpt>
      <trkpt lat="45.69008" lon="3.06639">
        <ele>687</ele>
        <time>2019-06-23T06:29:14.000Z</time>
      </trkpt>
      <trkpt lat="45.69008" lon="3.0664">
        <ele>686</ele>
        <time>2019-06-23T06:29:15.000Z</time>
      </trkpt>
      <trkpt lat="45.69009" lon="3.06641">
        <ele>686</ele>
        <time>2019-06-23T06:29:16.000Z</time>
      </trkpt>
      <trkpt lat="45.6901" lon="3.06643">
        <ele>686</ele>
        <time>2019-06-23T06:29:17.000Z</time>
      </trkpt>
      <trkpt lat="45.6901" lon="3.06644">
        <ele>686</ele>
        <time>2019-06-23T06:29:18.000Z</time>
      </trkpt>
      <trkpt lat="45.69012" lon="3.06647">
        <ele>685</ele>
        <time>2019-06-23T06:29:19.000Z</time>
      </trkpt>
      <trkpt lat="45.69012" lon="3.06649">
        <ele>685</ele>
        <time>2019-06-23T06:29:20.000Z</time>
      </trkpt>
      <trkpt lat="45.69013" lon="3.06653">
        <ele>684</ele>
        <time>2019-06-23T06:29:21.000Z</time>
      </trkpt>
      <trkpt lat="45.69013" lon="3.06656">
        <ele>684</ele>
        <time>2019-06-23T06:29:22.000Z</time>
      </trkpt>
      <trkpt lat="45.69013" lon="3.06662">
        <ele>683</ele>
        <time>2019-06-23T06:29:23.000Z</time>
      </trkpt>
      <trkpt lat="45.69015" lon="3.06668">
        <ele>683</ele>
        <time>2019-06-23T06:29:24.000Z</time>
      </trkpt>
      <trkpt lat="45.69015" lon="3.06674">
        <ele>683</ele>
        <time>2019-06-23T06:29:25.000Z</time>
      </trkpt>
      <trkpt lat="45.69014" lon="3.06685">
        <ele>685</ele>
        <time>2019-06-23T06:29:26.000Z</time>
      </trkpt>
      <trkpt lat="45.69015" lon="3.06693">
        <ele>685</ele>
        <time>2019-06-23T06:29:27.000Z</time>
      </trkpt>
      <trkpt lat="45.69016" lon="3.06701">
        <ele>685</ele>
        <time>2019-06-23T06:29:28.000Z</time>
      </trkpt>
      <trkpt lat="45.69015" lon="3.06709">
        <ele>684</ele>
        <time>2019-06-23T06:29:29.000Z</time>
      </trkpt>
      <trkpt lat="45.69015" lon="3.06718">
        <ele>684</ele>
        <time>2019-06-23T06:29:30.000Z</time>
      </trkpt>
      <trkpt lat="45.69014" lon="3.06726">
        <ele>682</ele>
        <time>2019-06-23T06:29:31.000Z</time>
      </trkpt>
      <trkpt lat="45.69013" lon="3.06734">
        <ele>679</ele>
        <time>2019-06-23T06:29:32.000Z</time>
      </trkpt>
      <trkpt lat="45.69012" lon="3.06742">
        <ele>679</ele>
        <time>2019-06-23T06:29:33.000Z</time>
      </trkpt>
      <trkpt lat="45.6901" lon="3.06753">
        <ele>682</ele>
        <time>2019-06-23T06:29:34.000Z</time>
      </trkpt>
      <trkpt lat="45.6901" lon="3.06764">
        <ele>683</ele>
        <time>2019-06-23T06:29:35.000Z</time>
      </trkpt>
      <trkpt lat="45.69009" lon="3.06773">
        <ele>684</ele>
        <time>2019-06-23T06:29:36.000Z</time>
      </trkpt>
      <trkpt lat="45.69009" lon="3.06785">
        <ele>684</ele>
        <time>2019-06-23T06:29:37.000Z</time>
      </trkpt>
      <trkpt lat="45.69012" lon="3.06798">
        <ele>683</ele>
        <time>2019-06-23T06:29:38.000Z</time>
      </trkpt>
      <trkpt lat="45.69014" lon="3.06811">
        <ele>681</ele>
        <time>2019-06-23T06:29:39.000Z</time>
      </trkpt>
      <trkpt lat="45.69014" lon="3.06821">
        <ele>681</ele>
        <time>2019-06-23T06:29:40.000Z</time>
      </trkpt>
      <trkpt lat="45.69014" lon="3.06831">
        <ele>680</ele>
        <time>2019-06-23T06:29:41.000Z</time>
      </trkpt>
      <trkpt lat="45.69013" lon="3.06843">
        <ele>681</ele>
        <time>2019-06-23T06:29:42.000Z</time>
      </trkpt>
      <trkpt lat="45.6901" lon="3.06853">
        <ele>681</ele>
        <time>2019-06-23T06:29:43.000Z</time>
      </trkpt>
      <trkpt lat="45.69008" lon="3.06859">
        <ele>680</ele>
        <time>2019-06-23T06:29:44.000Z</time>
      </trkpt>
      <trkpt lat="45.69006" lon="3.06867">
        <ele>681</ele>
        <time>2019-06-23T06:29:45.000Z</time>
      </trkpt>
      <trkpt lat="45.69005" lon="3.06876">
        <ele>683</ele>
        <time>2019-06-23T06:29:46.000Z</time>
      </trkpt>
      <trkpt lat="45.69002" lon="3.06886">
        <ele>684</ele>
        <time>2019-06-23T06:29:47.000Z</time>
      </trkpt>
      <trkpt lat="45.69" lon="3.06896">
        <ele>688</ele>
        <time>2019-06-23T06:29:48.000Z</time>
      </trkpt>
      <trkpt lat="45.68999" lon="3.06907">
        <ele>689</ele>
        <time>2019-06-23T06:29:49.000Z</time>
      </trkpt>
      <trkpt lat="45.68997" lon="3.06918">
        <ele>690</ele>
        <time>2019-06-23T06:29:50.000Z</time>
      </trkpt>
      <trkpt lat="45.68996" lon="3.06928">
        <ele>693</ele>
        <time>2019-06-23T06:29:51.000Z</time>
      </trkpt>
      <trkpt lat="45.68995" lon="3.06939">
        <ele>697</ele>
        <time>2019-06-23T06:29:52.000Z</time>
      </trkpt>
      <trkpt lat="45.68998" lon="3.06951">
        <ele>700</ele>
        <time>2019-06-23T06:29:53.000Z</time>
      </trkpt>
      <trkpt lat="45.68997" lon="3.06963">
        <ele>702</ele>
        <time>2019-06-23T06:29:54.000Z</time>
      </trkpt>
      <trkpt lat="45.68997" lon="3.06976">
        <ele>704</ele>
        <time>2019-06-23T06:29:55.000Z</time>
      </trkpt>
      <trkpt lat="45.68994" lon="3.06989">
        <ele>701</ele>
        <time>2019-06-23T06:29:56.000Z</time>
      </trkpt>
      <trkpt lat="45.68991" lon="3.07">
        <ele>700</ele>
        <time>2019-06-23T06:29:57.000Z</time>
      </trkpt>
      <trkpt lat="45.68988" lon="3.07009">
        <ele>701</ele>
        <time>2019-06-23T06:29:58.000Z</time>
      </trkpt>
      <trkpt lat="45.68986" lon="3.07021">
        <ele>701</ele>
        <time>2019-06-23T06:29:59.000Z</time>
      </trkpt>
      <trkpt lat="45.68988" lon="3.07032">
        <ele>702</ele>
        <time>2019-06-23T06:30:00.000Z</time>
      </trkpt>
      <trkpt lat="45.68987" lon="3.07046">
        <ele>700</ele>
        <time>2019-06-23T06:30:01.000Z</time>
      </trkpt>
      <trkpt lat="45.68984" lon="3.07057">
        <ele>699</ele>
        <time>2019-06-23T06:30:02.000Z</time>
      </trkpt>
      <trkpt lat="45.68983" lon="3.07066">
        <ele>698</ele>
        <time>2019-06-23T06:30:03.000Z</time>
      </trkpt>
      <trkpt lat="45.68983" lon="3.0707">
        <ele>696</ele>
        <time>2019-06-23T06:30:04.000Z</time>
      </trkpt>
      <trkpt lat="45.68982" lon="3.07073">
        <ele>693</ele>
        <time>2019-06-23T06:30:05.000Z</time>
      </trkpt>
      <trkpt lat="45.68971" lon="3.07105">
        <ele>672</ele>
        <time>2019-06-23T06:30:06.000Z</time>
      </trkpt>
      <trkpt lat="45.68969" lon="3.07107">
        <ele>671</ele>
        <time>2019-06-23T06:30:07.000Z</time>
      </trkpt>
      <trkpt lat="45.68968" lon="3.07109">
        <ele>670</ele>
        <time>2019-06-23T06:30:08.000Z</time>
      </trkpt>
      <trkpt lat="45.68968" lon="3.07113">
        <ele>670</ele>
        <time>2019-06-23T06:30:09.000Z</time>
      </trkpt>
      <trkpt lat="45.68967" lon="3.07117">
        <ele>669</ele>
        <time>2019-06-23T06:30:10.000Z</time>
      </trkpt>
      <trkpt lat="45.68967" lon="3.07121">
        <ele>669</ele>
        <time>2019-06-23T06:30:11.000Z</time>
      </trkpt>
      <trkpt lat="45.68966" lon="3.07128">
        <ele>667</ele>
        <time>2019-06-23T06:30:12.000Z</time>
      </trkpt>
      <trkpt lat="45.68965" lon="3.07133">
        <ele>667</ele>
        <time>2019-06-23T06:30:13.000Z</time>
      </trkpt>
      <trkpt lat="45.68964" lon="3.07138">
        <ele>667</ele>
        <time>2019-06-23T06:30:14.000Z</time>
      </trkpt>
      <trkpt lat="45.68963" lon="3.07143">
        <ele>666</ele>
        <time>2019-06-23T06:30:15.000Z</time>
      </trkpt>
      <trkpt lat="45.68963" lon="3.07146">
        <ele>666</ele>
        <time>2019-06-23T06:30:16.000Z</time>
      </trkpt>
      <trkpt lat="45.68962" lon="3.07151">
        <ele>666</ele>
        <time>2019-06-23T06:30:17.000Z</time>
      </trkpt>
      <trkpt lat="45.68961" lon="3.07156">
        <ele>667</ele>
        <time>2019-06-23T06:30:18.000Z</time>
      </trkpt>
      <trkpt lat="45.6896" lon="3.07159">
        <ele>666</ele>
        <time>2019-06-23T06:30:19.000Z</time>
      </trkpt>
      <trkpt lat="45.68959" lon="3.07162">
        <ele>666</ele>
        <time>2019-06-23T06:30:20.000Z</time>
      </trkpt>
      <trkpt lat="45.68958" lon="3.07164">
        <ele>667</ele>
        <time>2019-06-23T06:30:21.000Z</time>
      </trkpt>
      <trkpt lat="45.68957" lon="3.07165">
        <ele>666</ele>
        <time>2019-06-23T06:30:22.000Z</time>
      </trkpt>
      <trkpt lat="45.68942" lon="3.07191">
        <ele>665</ele>
        <time>2019-06-23T06:30:23.000Z</time>
      </trkpt>
      <trkpt lat="45.68942" lon="3.0719">
        <ele>665</ele>
        <time>2019-06-23T06:30:24.000Z</time>
      </trkpt>
      <trkpt lat="45.68942" lon="3.0719">
        <ele>664</ele>
        <time>2019-06-23T06:30:25.000Z</time>
      </trkpt>
      <trkpt lat="45.68942" lon="3.07188">
        <ele>664</ele>
        <time>2019-06-23T06:30:26.000Z</time>
      </trkpt>
      <trkpt lat="45.68943" lon="3.07186">
        <ele>664</ele>
        <time>2019-06-23T06:30:27.000Z</time>
      </trkpt>
      <trkpt lat="45.68943" lon="3.07184">
        <ele>664</ele>
        <time>2019-06-23T06:30:28.000Z</time>
      </trkpt>
      <trkpt lat="45.68945" lon="3.07181">
        <ele>664</ele>
        <time>2019-06-23T06:30:29.000Z</time>
      </trkpt>
      <trkpt lat="45.68945" lon="3.07178">
        <ele>664</ele>
        <time>2019-06-23T06:30:30.000Z</time>
      </trkpt>
      <trkpt lat="45.68946" lon="3.07176">
        <ele>664</ele>
        <time>2019-06-23T06:30:31.000Z</time>
      </trkpt>
      <trkpt lat="45.68947" lon="3.07173">
        <ele>663</ele>
        <time>2019-06-23T06:30:32.000Z</time>
      </trkpt>
      <trkpt lat="45.68948" lon="3.0717">
        <ele>663</ele>
        <time>2019-06-23T06:30:33.000Z</time>
      </trkpt>
      <trkpt lat="45.68949" lon="3.07168">
        <ele>663</ele>
        <time>2019-06-23T06:30:34.000Z</time>
      </trkpt>
      <trkpt lat="45.6895" lon="3.07166">
        <ele>663</ele>
        <time>2019-06-23T06:30:35.000Z</time>
      </trkpt>
      <trkpt lat="45.68951" lon="3.07163">
        <ele>664</ele>
        <time>2019-06-23T06:30:36.000Z</time>
      </trkpt>
      <trkpt lat="45.68953" lon="3.0716">
        <ele>665</ele>
        <time>2019-06-23T06:30:37.000Z</time>
      </trkpt>
      <trkpt lat="45.68954" lon="3.07157">
        <ele>665</ele>
        <time>2019-06-23T06:30:38.000Z</time>
      </trkpt>
      <trkpt lat="45.68954" lon="3.07154">
        <ele>666</ele>
        <time>2019-06-23T06:30:39.000Z</time>
      </trkpt>
      <trkpt lat="45.68956" lon="3.07152">
        <ele>667</ele>
        <time>2019-06-23T06:30:40.000Z</time>
      </trkpt>
      <trkpt lat="45.68957" lon="3.07149">
        <ele>667</ele>
        <time>2019-06-23T06:30:41.000Z</time>
      </trkpt>
      <trkpt lat="45.68957" lon="3.07146">
        <ele>666</ele>
        <time>2019-06-23T06:30:42.000Z</time>
      </trkpt>
      <trkpt lat="45.68958" lon="3.07143">
        <ele>665</ele>
        <time>2019-06-23T06:30:43.000Z</time>
      </trkpt>
      <trkpt lat="45.68958" lon="3.0714">
        <ele>665</ele>
        <time>2019-06-23T06:30:44.000Z</time>
      </trkpt>
      <trkpt lat="45.6896" lon="3.07136">
        <ele>665</ele>
        <time>2019-06-23T06:30:45.000Z</time>
      </trkpt>
      <trkpt lat="45.68961" lon="3.07133">
        <ele>664</ele>
        <time>2019-06-23T06:30:46.000Z</time>
      </trkpt>
      <trkpt lat="45.68962" lon="3.0713">
        <ele>663</ele>
        <time>2019-06-23T06:30:47.000Z</time>
      </trkpt>
      <trkpt lat="45.68962" lon="3.07128">
        <ele>660</ele>
        <time>2019-06-23T06:30:48.000Z</time>
      </trkpt>
      <trkpt lat="45.68963" lon="3.07128">
        <ele>660</ele>
        <time>2019-06-23T06:30:49.000Z</time>
      </trkpt>
      <trkpt lat="45.68964" lon="3.07127">
        <ele>658</ele>
        <time>2019-06-23T06:30:50.000Z</time>
      </trkpt>
      <trkpt lat="45.68966" lon="3.07125">
        <ele>656</ele>
        <time>2019-06-23T06:30:51.000Z</time>
      </trkpt>
      <trkpt lat="45.6897" lon="3.07126">
        <ele>656</ele>
        <time>2019-06-23T06:30:52.000Z</time>
      </trkpt>
      <trkpt lat="45.68978" lon="3.07135">
        <ele>658</ele>
        <time>2019-06-23T06:30:53.000Z</time>
      </trkpt>
      <trkpt lat="45.68986" lon="3.07138">
        <ele>655</ele>
        <time>2019-06-23T06:30:54.000Z</time>
      </trkpt>
      <trkpt lat="45.68995" lon="3.0714">
        <ele>653</ele>
        <time>2019-06-23T06:30:55.000Z</time>
      </trkpt>
      <trkpt lat="45.69004" lon="3.07141">
        <ele>651</ele>
        <time>2019-06-23T06:30:56.000Z</time>
      </trkpt>
      <trkpt lat="45.69012" lon="3.07144">
        <ele>649</ele>
        <time>2019-06-23T06:30:57.000Z</time>
      </trkpt>
      <trkpt lat="45.69021" lon="3.07148">
        <ele>647</ele>
        <time>2019-06-23T06:30:58.000Z</time>
      </trkpt>
      <trkpt lat="45.69029" lon="3.07152">
        <ele>645</ele>
        <time>2019-06-23T06:30:59.000Z</time>
      </trkpt>
      <trkpt lat="45.69036" lon="3.07156">
        <ele>643</ele>
        <time>2019-06-23T06:31:00.000Z</time>
      </trkpt>
      <trkpt lat="45.69044" lon="3.07159">
        <ele>641</ele>
        <time>2019-06-23T06:31:01.000Z</time>
      </trkpt>
      <trkpt lat="45.69052" lon="3.07164">
        <ele>640</ele>
        <time>2019-06-23T06:31:02.000Z</time>
      </trkpt>
      <trkpt lat="45.69061" lon="3.07169">
        <ele>639</ele>
        <time>2019-06-23T06:31:03.000Z</time>
      </trkpt>
      <trkpt lat="45.69067" lon="3.07172">
        <ele>639</ele>
        <time>2019-06-23T06:31:04.000Z</time>
      </trkpt>
      <trkpt lat="45.69073" lon="3.07178">
        <ele>637</ele>
        <time>2019-06-23T06:31:05.000Z</time>
      </trkpt>
      <trkpt lat="45.69076" lon="3.07187">
        <ele>633</ele>
        <time>2019-06-23T06:31:06.000Z</time>
      </trkpt>
      <trkpt lat="45.6908" lon="3.07195">
        <ele>633</ele>
        <time>2019-06-23T06:31:07.000Z</time>
      </trkpt>
      <trkpt lat="45.6908" lon="3.07203">
        <ele>632</ele>
        <time>2019-06-23T06:31:08.000Z</time>
      </trkpt>
      <trkpt lat="45.6908" lon="3.07208">
        <ele>630</ele>
        <time>2019-06-23T06:31:09.000Z</time>
      </trkpt>
      <trkpt lat="45.69081" lon="3.07214">
        <ele>629</ele>
        <time>2019-06-23T06:31:10.000Z</time>
      </trkpt>
      <trkpt lat="45.69082" lon="3.07219">
        <ele>628</ele>
        <time>2019-06-23T06:31:11.000Z</time>
      </trkpt>
      <trkpt lat="45.69084" lon="3.07226">
        <ele>627</ele>
        <time>2019-06-23T06:31:12.000Z</time>
      </trkpt>
      <trkpt lat="45.69086" lon="3.07232">
        <ele>626</ele>
        <time>2019-06-23T06:31:13.000Z</time>
      </trkpt>
      <trkpt lat="45.69088" lon="3.07239">
        <ele>625</ele>
        <time>2019-06-23T06:31:14.000Z</time>
      </trkpt>
      <trkpt lat="45.6909" lon="3.07247">
        <ele>625</ele>
        <time>2019-06-23T06:31:15.000Z</time>
      </trkpt>
      <trkpt lat="45.69094" lon="3.07255">
        <ele>624</ele>
        <time>2019-06-23T06:31:16.000Z</time>
      </trkpt>
      <trkpt lat="45.69096" lon="3.07263">
        <ele>624</ele>
        <time>2019-06-23T06:31:17.000Z</time>
      </trkpt>
      <trkpt lat="45.69099" lon="3.07272">
        <ele>623</ele>
        <time>2019-06-23T06:31:18.000Z</time>
      </trkpt>
      <trkpt lat="45.69101" lon="3.07281">
        <ele>621</ele>
        <time>2019-06-23T06:31:19.000Z</time>
      </trkpt>
      <trkpt lat="45.69103" lon="3.0729">
        <ele>620</ele>
        <time>2019-06-23T06:31:20.000Z</time>
      </trkpt>
      <trkpt lat="45.69106" lon="3.07299">
        <ele>620</ele>
        <time>2019-06-23T06:31:21.000Z</time>
      </trkpt>
      <trkpt lat="45.69108" lon="3.0731">
        <ele>619</ele>
        <time>2019-06-23T06:31:22.000Z</time>
      </trkpt>
      <trkpt lat="45.69113" lon="3.07326">
        <ele>616</ele>
        <time>2019-06-23T06:31:23.000Z</time>
      </trkpt>
      <trkpt lat="45.69117" lon="3.07341">
        <ele>614</ele>
        <time>2019-06-23T06:31:24.000Z</time>
      </trkpt>
      <trkpt lat="45.69119" lon="3.07356">
        <ele>613</ele>
        <time>2019-06-23T06:31:25.000Z</time>
      </trkpt>
      <trkpt lat="45.69121" lon="3.07371">
        <ele>612</ele>
        <time>2019-06-23T06:31:26.000Z</time>
      </trkpt>
      <trkpt lat="45.69123" lon="3.07386">
        <ele>611</ele>
        <time>2019-06-23T06:31:27.000Z</time>
      </trkpt>
      <trkpt lat="45.69125" lon="3.07399">
        <ele>610</ele>
        <time>2019-06-23T06:31:28.000Z</time>
      </trkpt>
      <trkpt lat="45.69127" lon="3.07412">
        <ele>609</ele>
        <time>2019-06-23T06:31:29.000Z</time>
      </trkpt>
      <trkpt lat="45.69129" lon="3.07425">
        <ele>608</ele>
        <time>2019-06-23T06:31:30.000Z</time>
      </trkpt>
      <trkpt lat="45.69132" lon="3.07438">
        <ele>607</ele>
        <time>2019-06-23T06:31:31.000Z</time>
      </trkpt>
      <trkpt lat="45.69137" lon="3.07448">
        <ele>604</ele>
        <time>2019-06-23T06:31:32.000Z</time>
      </trkpt>
      <trkpt lat="45.69141" lon="3.07461">
        <ele>602</ele>
        <time>2019-06-23T06:31:33.000Z</time>
      </trkpt>
      <trkpt lat="45.69145" lon="3.07475">
        <ele>601</ele>
        <time>2019-06-23T06:31:34.000Z</time>
      </trkpt>
      <trkpt lat="45.69149" lon="3.07491">
        <ele>599</ele>
        <time>2019-06-23T06:31:35.000Z</time>
      </trkpt>
      <trkpt lat="45.69155" lon="3.07507">
        <ele>597</ele>
        <time>2019-06-23T06:31:36.000Z</time>
      </trkpt>
      <trkpt lat="45.6916" lon="3.0752">
        <ele>594</ele>
        <time>2019-06-23T06:31:37.000Z</time>
      </trkpt>
      <trkpt lat="45.69166" lon="3.07532">
        <ele>594</ele>
        <time>2019-06-23T06:31:38.000Z</time>
      </trkpt>
      <trkpt lat="45.69171" lon="3.07543">
        <ele>591</ele>
        <time>2019-06-23T06:31:39.000Z</time>
      </trkpt>
      <trkpt lat="45.69173" lon="3.07552">
        <ele>589</ele>
        <time>2019-06-23T06:31:40.000Z</time>
      </trkpt>
      <trkpt lat="45.69177" lon="3.07557">
        <ele>584</ele>
        <time>2019-06-23T06:31:41.000Z</time>
      </trkpt>
      <trkpt lat="45.69191" lon="3.07566">
        <ele>583</ele>
        <time>2019-06-23T06:31:42.000Z</time>
      </trkpt>
      <trkpt lat="45.69207" lon="3.07575">
        <ele>584</ele>
        <time>2019-06-23T06:31:43.000Z</time>
      </trkpt>
      <trkpt lat="45.69221" lon="3.07577">
        <ele>583</ele>
        <time>2019-06-23T06:31:44.000Z</time>
      </trkpt>
      <trkpt lat="45.69232" lon="3.07576">
        <ele>581</ele>
        <time>2019-06-23T06:31:45.000Z</time>
      </trkpt>
      <trkpt lat="45.69245" lon="3.07576">
        <ele>580</ele>
        <time>2019-06-23T06:31:46.000Z</time>
      </trkpt>
      <trkpt lat="45.69256" lon="3.07577">
        <ele>578</ele>
        <time>2019-06-23T06:31:47.000Z</time>
      </trkpt>
      <trkpt lat="45.69266" lon="3.07583">
        <ele>577</ele>
        <time>2019-06-23T06:31:48.000Z</time>
      </trkpt>
      <trkpt lat="45.69274" lon="3.0759">
        <ele>577</ele>
        <time>2019-06-23T06:31:49.000Z</time>
      </trkpt>
      <trkpt lat="45.69281" lon="3.07596">
        <ele>576</ele>
        <time>2019-06-23T06:31:50.000Z</time>
      </trkpt>
      <trkpt lat="45.69285" lon="3.076">
        <ele>578</ele>
        <time>2019-06-23T06:31:51.000Z</time>
      </trkpt>
      <trkpt lat="45.69288" lon="3.07602">
        <ele>578</ele>
        <time>2019-06-23T06:31:52.000Z</time>
      </trkpt>
      <trkpt lat="45.6929" lon="3.07604">
        <ele>578</ele>
        <time>2019-06-23T06:31:53.000Z</time>
      </trkpt>
      <trkpt lat="45.69293" lon="3.07606">
        <ele>578</ele>
        <time>2019-06-23T06:31:54.000Z</time>
      </trkpt>
      <trkpt lat="45.69295" lon="3.07609">
        <ele>577</ele>
        <time>2019-06-23T06:31:55.000Z</time>
      </trkpt>
      <trkpt lat="45.69298" lon="3.07612">
        <ele>577</ele>
        <time>2019-06-23T06:31:56.000Z</time>
      </trkpt>
      <trkpt lat="45.693" lon="3.07614">
        <ele>576</ele>
        <time>2019-06-23T06:31:57.000Z</time>
      </trkpt>
      <trkpt lat="45.69303" lon="3.07618">
        <ele>576</ele>
        <time>2019-06-23T06:31:58.000Z</time>
      </trkpt>
      <trkpt lat="45.69305" lon="3.07624">
        <ele>576</ele>
        <time>2019-06-23T06:31:59.000Z</time>
      </trkpt>
      <trkpt lat="45.69306" lon="3.07631">
        <ele>577</ele>
        <time>2019-06-23T06:32:00.000Z</time>
      </trkpt>
      <trkpt lat="45.69305" lon="3.0764">
        <ele>577</ele>
        <time>2019-06-23T06:32:01.000Z</time>
      </trkpt>
      <trkpt lat="45.69303" lon="3.07649">
        <ele>579</ele>
        <time>2019-06-23T06:32:02.000Z</time>
      </trkpt>
      <trkpt lat="45.69299" lon="3.07659">
        <ele>581</ele>
        <time>2019-06-23T06:32:03.000Z</time>
      </trkpt>
      <trkpt lat="45.69297" lon="3.0767">
        <ele>582</ele>
        <time>2019-06-23T06:32:04.000Z</time>
      </trkpt>
      <trkpt lat="45.69296" lon="3.07681">
        <ele>583</ele>
        <time>2019-06-23T06:32:05.000Z</time>
      </trkpt>
      <trkpt lat="45.69294" lon="3.07691">
        <ele>583</ele>
        <time>2019-06-23T06:32:06.000Z</time>
      </trkpt>
      <trkpt lat="45.69293" lon="3.07701">
        <ele>584</ele>
        <time>2019-06-23T06:32:07.000Z</time>
      </trkpt>
      <trkpt lat="45.69292" lon="3.07711">
        <ele>586</ele>
        <time>2019-06-23T06:32:08.000Z</time>
      </trkpt>
      <trkpt lat="45.69288" lon="3.07719">
        <ele>585</ele>
        <time>2019-06-23T06:32:09.000Z</time>
      </trkpt>
      <trkpt lat="45.69285" lon="3.07729">
        <ele>585</ele>
        <time>2019-06-23T06:32:10.000Z</time>
      </trkpt>
      <trkpt lat="45.69283" lon="3.07739">
        <ele>585</ele>
        <time>2019-06-23T06:32:11.000Z</time>
      </trkpt>
      <trkpt lat="45.69281" lon="3.07748">
        <ele>585</ele>
        <time>2019-06-23T06:32:12.000Z</time>
      </trkpt>
      <trkpt lat="45.69282" lon="3.0776">
        <ele>583</ele>
        <time>2019-06-23T06:32:13.000Z</time>
      </trkpt>
      <trkpt lat="45.69283" lon="3.0777">
        <ele>582</ele>
        <time>2019-06-23T06:32:14.000Z</time>
      </trkpt>
      <trkpt lat="45.69284" lon="3.0778">
        <ele>581</ele>
        <time>2019-06-23T06:32:15.000Z</time>
      </trkpt>
      <trkpt lat="45.69284" lon="3.0779">
        <ele>580</ele>
        <time>2019-06-23T06:32:16.000Z</time>
      </trkpt>
      <trkpt lat="45.69284" lon="3.078">
        <ele>580</ele>
        <time>2019-06-23T06:32:17.000Z</time>
      </trkpt>
      <trkpt lat="45.69284" lon="3.0781">
        <ele>580</ele>
        <time>2019-06-23T06:32:18.000Z</time>
      </trkpt>
      <trkpt lat="45.69283" lon="3.07819">
        <ele>580</ele>
        <time>2019-06-23T06:32:19.000Z</time>
      </trkpt>
      <trkpt lat="45.69283" lon="3.07829">
        <ele>580</ele>
        <time>2019-06-23T06:32:20.000Z</time>
      </trkpt>
      <trkpt lat="45.69282" lon="3.07839">
        <ele>580</ele>
        <time>2019-06-23T06:32:21.000Z</time>
      </trkpt>
      <trkpt lat="45.69282" lon="3.07848">
        <ele>579</ele>
        <time>2019-06-23T06:32:22.000Z</time>
      </trkpt>
      <trkpt lat="45.69282" lon="3.07858">
        <ele>580</ele>
        <time>2019-06-23T06:32:23.000Z</time>
      </trkpt>
      <trkpt lat="45.69284" lon="3.07866">
        <ele>580</ele>
        <time>2019-06-23T06:32:24.000Z</time>
      </trkpt>
      <trkpt lat="45.69286" lon="3.07873">
        <ele>580</ele>
        <time>2019-06-23T06:32:25.000Z</time>
      </trkpt>
      <trkpt lat="45.69288" lon="3.07879">
        <ele>580</ele>
        <time>2019-06-23T06:32:26.000Z</time>
      </trkpt>
      <trkpt lat="45.69289" lon="3.07884">
        <ele>579</ele>
        <time>2019-06-23T06:32:27.000Z</time>
      </trkpt>
      <trkpt lat="45.6929" lon="3.07886">
        <ele>577</ele>
        <time>2019-06-23T06:32:28.000Z</time>
      </trkpt>
      <trkpt lat="45.69291" lon="3.07888">
        <ele>575</ele>
        <time>2019-06-23T06:32:29.000Z</time>
      </trkpt>
      <trkpt lat="45.69294" lon="3.07887">
        <ele>575</ele>
        <time>2019-06-23T06:32:30.000Z</time>
      </trkpt>
      <trkpt lat="45.69296" lon="3.07885">
        <ele>575</ele>
        <time>2019-06-23T06:32:31.000Z</time>
      </trkpt>
      <trkpt lat="45.69297" lon="3.07881">
        <ele>575</ele>
        <time>2019-06-23T06:32:32.000Z</time>
      </trkpt>
      <trkpt lat="45.69299" lon="3.07876">
        <ele>575</ele>
        <time>2019-06-23T06:32:33.000Z</time>
      </trkpt>
      <trkpt lat="45.693" lon="3.07872">
        <ele>575</ele>
        <time>2019-06-23T06:32:34.000Z</time>
      </trkpt>
      <trkpt lat="45.69301" lon="3.07867">
        <ele>575</ele>
        <time>2019-06-23T06:32:35.000Z</time>
      </trkpt>
      <trkpt lat="45.69301" lon="3.07863">
        <ele>574</ele>
        <time>2019-06-23T06:32:36.000Z</time>
      </trkpt>
      <trkpt lat="45.69303" lon="3.07859">
        <ele>574</ele>
        <time>2019-06-23T06:32:37.000Z</time>
      </trkpt>
      <trkpt lat="45.69305" lon="3.07855">
        <ele>574</ele>
        <time>2019-06-23T06:32:38.000Z</time>
      </trkpt>
      <trkpt lat="45.69306" lon="3.07851">
        <ele>574</ele>
        <time>2019-06-23T06:32:39.000Z</time>
      </trkpt>
      <trkpt lat="45.69309" lon="3.07847">
        <ele>574</ele>
        <time>2019-06-23T06:32:40.000Z</time>
      </trkpt>
      <trkpt lat="45.69311" lon="3.07843">
        <ele>574</ele>
        <time>2019-06-23T06:32:41.000Z</time>
      </trkpt>
      <trkpt lat="45.69313" lon="3.0784">
        <ele>574</ele>
        <time>2019-06-23T06:32:42.000Z</time>
      </trkpt>
      <trkpt lat="45.69315" lon="3.07836">
        <ele>574</ele>
        <time>2019-06-23T06:32:43.000Z</time>
      </trkpt>
      <trkpt lat="45.69318" lon="3.07833">
        <ele>574</ele>
        <time>2019-06-23T06:32:44.000Z</time>
      </trkpt>
      <trkpt lat="45.6932" lon="3.07829">
        <ele>574</ele>
        <time>2019-06-23T06:32:45.000Z</time>
      </trkpt>
      <trkpt lat="45.69322" lon="3.07825">
        <ele>574</ele>
        <time>2019-06-23T06:32:46.000Z</time>
      </trkpt>
      <trkpt lat="45.69325" lon="3.07822">
        <ele>574</ele>
        <time>2019-06-23T06:32:47.000Z</time>
      </trkpt>
      <trkpt lat="45.69327" lon="3.07818">
        <ele>574</ele>
        <time>2019-06-23T06:32:48.000Z</time>
      </trkpt>
      <trkpt lat="45.69329" lon="3.07814">
        <ele>574</ele>
        <time>2019-06-23T06:32:49.000Z</time>
      </trkpt>
      <trkpt lat="45.69331" lon="3.0781">
        <ele>574</ele>
        <time>2019-06-23T06:32:50.000Z</time>
      </trkpt>
      <trkpt lat="45.69334" lon="3.07805">
        <ele>574</ele>
        <time>2019-06-23T06:32:51.000Z</time>
      </trkpt>
      <trkpt lat="45.69336" lon="3.07801">
        <ele>575</ele>
        <time>2019-06-23T06:32:52.000Z</time>
      </trkpt>
      <trkpt lat="45.69338" lon="3.07797">
        <ele>575</ele>
        <time>2019-06-23T06:32:53.000Z</time>
      </trkpt>
      <trkpt lat="45.6934" lon="3.07792">
        <ele>575</ele>
        <time>2019-06-23T06:32:54.000Z</time>
      </trkpt>
      <trkpt lat="45.69342" lon="3.07787">
        <ele>575</ele>
        <time>2019-06-23T06:32:55.000Z</time>
      </trkpt>
      <trkpt lat="45.69343" lon="3.07783">
        <ele>575</ele>
        <time>2019-06-23T06:32:56.000Z</time>
      </trkpt>
      <trkpt lat="45.69345" lon="3.07778">
        <ele>575</ele>
        <time>2019-06-23T06:32:57.000Z</time>
      </trkpt>
      <trkpt lat="45.69347" lon="3.07773">
        <ele>576</ele>
        <time>2019-06-23T06:32:58.000Z</time>
      </trkpt>
      <trkpt lat="45.69348" lon="3.07768">
        <ele>576</ele>
        <time>2019-06-23T06:32:59.000Z</time>
      </trkpt>
      <trkpt lat="45.6935" lon="3.07763">
        <ele>576</ele>
        <time>2019-06-23T06:33:00.000Z</time>
      </trkpt>
      <trkpt lat="45.69351" lon="3.07758">
        <ele>577</ele>
        <time>2019-06-23T06:33:01.000Z</time>
      </trkpt>
      <trkpt lat="45.69353" lon="3.07753">
        <ele>577</ele>
        <time>2019-06-23T06:33:02.000Z</time>
      </trkpt>
      <trkpt lat="45.69354" lon="3.07748">
        <ele>577</ele>
        <time>2019-06-23T06:33:03.000Z</time>
      </trkpt>
      <trkpt lat="45.69355" lon="3.07743">
        <ele>577</ele>
        <time>2019-06-23T06:33:04.000Z</time>
      </trkpt>
      <trkpt lat="45.69356" lon="3.07738">
        <ele>577</ele>
        <time>2019-06-23T06:33:05.000Z</time>
      </trkpt>
      <trkpt lat="45.69357" lon="3.07733">
        <ele>578</ele>
        <time>2019-06-23T06:33:06.000Z</time>
      </trkpt>
      <trkpt lat="45.69359" lon="3.07728">
        <ele>578</ele>
        <time>2019-06-23T06:33:07.000Z</time>
      </trkpt>
      <trkpt lat="45.69361" lon="3.07723">
        <ele>578</ele>
        <time>2019-06-23T06:33:08.000Z</time>
      </trkpt>
      <trkpt lat="45.69362" lon="3.07718">
        <ele>578</ele>
        <time>2019-06-23T06:33:09.000Z</time>
      </trkpt>
      <trkpt lat="45.69364" lon="3.07713">
        <ele>579</ele>
        <time>2019-06-23T06:33:10.000Z</time>
      </trkpt>
      <trkpt lat="45.69365" lon="3.07708">
        <ele>579</ele>
        <time>2019-06-23T06:33:11.000Z</time>
      </trkpt>
      <trkpt lat="45.69367" lon="3.07703">
        <ele>579</ele>
        <time>2019-06-23T06:33:12.000Z</time>
      </trkpt>
      <trkpt lat="45.69369" lon="3.07698">
        <ele>579</ele>
        <time>2019-06-23T06:33:13.000Z</time>
      </trkpt>
      <trkpt lat="45.69371" lon="3.07693">
        <ele>580</ele>
        <time>2019-06-23T06:33:14.000Z</time>
      </trkpt>
      <trkpt lat="45.69373" lon="3.07688">
        <ele>580</ele>
        <time>2019-06-23T06:33:15.000Z</time>
      </trkpt>
      <trkpt lat="45.69375" lon="3.07683">
        <ele>580</ele>
        <time>2019-06-23T06:33:16.000Z</time>
      </trkpt>
      <trkpt lat="45.69377" lon="3.07678">
        <ele>581</ele>
        <time>2019-06-23T06:33:17.000Z</time>
      </trkpt>
      <trkpt lat="45.69379" lon="3.07673">
        <ele>581</ele>
        <time>2019-06-23T06:33:18.000Z</time>
      </trkpt>
      <trkpt lat="45.69381" lon="3.07668">
        <ele>581</ele>
        <time>2019-06-23T06:33:19.000Z</time>
      </trkpt>
      <trkpt lat="45.69383" lon="3.07664">
        <ele>581</ele>
        <time>2019-06-23T06:33:20.000Z</time>
      </trkpt>
      <trkpt lat="45.69385" lon="3.07659">
        <ele>581</ele>
        <time>2019-06-23T06:33:21.000Z</time>
      </trkpt>
      <trkpt lat="45.69386" lon="3.07654">
        <ele>582</ele>
        <time>2019-06-23T06:33:22.000Z</time>
      </trkpt>
      <trkpt lat="45.69388" lon="3.07649">
        <ele>582</ele>
        <time>2019-06-23T06:33:23.000Z</time>
      </trkpt>
      <trkpt lat="45.6939" lon="3.07644">
        <ele>582</ele>
        <time>2019-06-23T06:33:24.000Z</time>
      </trkpt>
      <trkpt lat="45.69393" lon="3.07641">
        <ele>582</ele>
        <time>2019-06-23T06:33:25.000Z</time>
      </trkpt>
      <trkpt lat="45.69396" lon="3.07638">
        <ele>582</ele>
        <time>2019-06-23T06:33:26.000Z</time>
      </trkpt>
      <trkpt lat="45.69399" lon="3.07638">
        <ele>582</ele>
        <time>2019-06-23T06:33:27.000Z</time>
      </trkpt>
      <trkpt lat="45.69403" lon="3.07639">
        <ele>583</ele>
        <time>2019-06-23T06:33:28.000Z</time>
      </trkpt>
      <trkpt lat="45.69405" lon="3.0764">
        <ele>583</ele>
        <time>2019-06-23T06:33:29.000Z</time>
      </trkpt>
      <trkpt lat="45.69407" lon="3.07642">
        <ele>584</ele>
        <time>2019-06-23T06:33:30.000Z</time>
      </trkpt>
      <trkpt lat="45.6941" lon="3.07643">
        <ele>584</ele>
        <time>2019-06-23T06:33:31.000Z</time>
      </trkpt>
      <trkpt lat="45.69412" lon="3.07644">
        <ele>584</ele>
        <time>2019-06-23T06:33:32.000Z</time>
      </trkpt>
      <trkpt lat="45.69415" lon="3.07645">
        <ele>584</ele>
        <time>2019-06-23T06:33:33.000Z</time>
      </trkpt>
      <trkpt lat="45.69418" lon="3.07646">
        <ele>585</ele>
        <time>2019-06-23T06:33:34.000Z</time>
      </trkpt>
      <trkpt lat="45.69421" lon="3.07648">
        <ele>585</ele>
        <time>2019-06-23T06:33:35.000Z</time>
      </trkpt>
      <trkpt lat="45.69423" lon="3.07649">
        <ele>585</ele>
        <time>2019-06-23T06:33:36.000Z</time>
      </trkpt>
      <trkpt lat="45.69426" lon="3.07651">
        <ele>585</ele>
        <time>2019-06-23T06:33:37.000Z</time>
      </trkpt>
      <trkpt lat="45.69429" lon="3.07652">
        <ele>586</ele>
        <time>2019-06-23T06:33:38.000Z</time>
      </trkpt>
      <trkpt lat="45.69431" lon="3.07654">
        <ele>586</ele>
        <time>2019-06-23T06:33:39.000Z</time>
      </trkpt>
      <trkpt lat="45.69434" lon="3.07655">
        <ele>586</ele>
        <time>2019-06-23T06:33:40.000Z</time>
      </trkpt>
      <trkpt lat="45.69437" lon="3.07657">
        <ele>587</ele>
        <time>2019-06-23T06:33:41.000Z</time>
      </trkpt>
      <trkpt lat="45.69439" lon="3.07658">
        <ele>587</ele>
        <time>2019-06-23T06:33:42.000Z</time>
      </trkpt>
      <trkpt lat="45.69442" lon="3.07659">
        <ele>588</ele>
        <time>2019-06-23T06:33:43.000Z</time>
      </trkpt>
      <trkpt lat="45.69445" lon="3.07661">
        <ele>588</ele>
        <time>2019-06-23T06:33:44.000Z</time>
      </trkpt>
      <trkpt lat="45.69447" lon="3.07663">
        <ele>589</ele>
        <time>2019-06-23T06:33:45.000Z</time>
      </trkpt>
      <trkpt lat="45.6945" lon="3.07664">
        <ele>589</ele>
        <time>2019-06-23T06:33:46.000Z</time>
      </trkpt>
      <trkpt lat="45.69452" lon="3.07665">
        <ele>589</ele>
        <time>2019-06-23T06:33:47.000Z</time>
      </trkpt>
      <trkpt lat="45.69455" lon="3.07666">
        <ele>590</ele>
        <time>2019-06-23T06:33:48.000Z</time>
      </trkpt>
      <trkpt lat="45.69457" lon="3.07668">
        <ele>590</ele>
        <time>2019-06-23T06:33:49.000Z</time>
      </trkpt>
      <trkpt lat="45.6946" lon="3.07669">
        <ele>590</ele>
        <time>2019-06-23T06:33:50.000Z</time>
      </trkpt>
      <trkpt lat="45.69462" lon="3.0767">
        <ele>591</ele>
        <time>2019-06-23T06:33:51.000Z</time>
      </trkpt>
      <trkpt lat="45.69465" lon="3.07671">
        <ele>591</ele>
        <time>2019-06-23T06:33:52.000Z</time>
      </trkpt>
      <trkpt lat="45.69467" lon="3.07672">
        <ele>591</ele>
        <time>2019-06-23T06:33:53.000Z</time>
      </trkpt>
      <trkpt lat="45.69469" lon="3.07671">
        <ele>591</ele>
        <time>2019-06-23T06:33:54.000Z</time>
      </trkpt>
      <trkpt lat="45.6947" lon="3.07668">
        <ele>592</ele>
        <time>2019-06-23T06:33:55.000Z</time>
      </trkpt>
      <trkpt lat="45.69471" lon="3.07664">
        <ele>592</ele>
        <time>2019-06-23T06:33:56.000Z</time>
      </trkpt>
      <trkpt lat="45.69472" lon="3.07661">
        <ele>592</ele>
        <time>2019-06-23T06:33:57.000Z</time>
      </trkpt>
      <trkpt lat="45.69472" lon="3.07657">
        <ele>592</ele>
        <time>2019-06-23T06:33:58.000Z</time>
      </trkpt>
      <trkpt lat="45.69472" lon="3.07653">
        <ele>592</ele>
        <time>2019-06-23T06:33:59.000Z</time>
      </trkpt>
      <trkpt lat="45.69472" lon="3.07649">
        <ele>592</ele>
        <time>2019-06-23T06:34:00.000Z</time>
      </trkpt>
      <trkpt lat="45.69472" lon="3.07645">
        <ele>592</ele>
        <time>2019-06-23T06:34:01.000Z</time>
      </trkpt>
      <trkpt lat="45.69472" lon="3.07641">
        <ele>592</ele>
        <time>2019-06-23T06:34:02.000Z</time>
      </trkpt>
      <trkpt lat="45.69472" lon="3.07636">
        <ele>591</ele>
        <time>2019-06-23T06:34:03.000Z</time>
      </trkpt>
      <trkpt lat="45.69472" lon="3.07632">
        <ele>592</ele>
        <time>2019-06-23T06:34:04.000Z</time>
      </trkpt>
      <trkpt lat="45.69472" lon="3.07628">
        <ele>592</ele>
        <time>2019-06-23T06:34:05.000Z</time>
      </trkpt>
      <trkpt lat="45.69473" lon="3.07623">
        <ele>592</ele>
        <time>2019-06-23T06:34:06.000Z</time>
      </trkpt>
      <trkpt lat="45.69474" lon="3.0762">
        <ele>592</ele>
        <time>2019-06-23T06:34:07.000Z</time>
      </trkpt>
      <trkpt lat="45.69476" lon="3.07616">
        <ele>592</ele>
        <time>2019-06-23T06:34:08.000Z</time>
      </trkpt>
      <trkpt lat="45.69478" lon="3.07613">
        <ele>592</ele>
        <time>2019-06-23T06:34:09.000Z</time>
      </trkpt>
      <trkpt lat="45.6948" lon="3.07611">
        <ele>592</ele>
        <time>2019-06-23T06:34:10.000Z</time>
      </trkpt>
      <trkpt lat="45.69482" lon="3.07608">
        <ele>593</ele>
        <time>2019-06-23T06:34:11.000Z</time>
      </trkpt>
      <trkpt lat="45.69484" lon="3.07606">
        <ele>593</ele>
        <time>2019-06-23T06:34:12.000Z</time>
      </trkpt>
      <trkpt lat="45.69486" lon="3.07603">
        <ele>593</ele>
        <time>2019-06-23T06:34:13.000Z</time>
      </trkpt>
      <trkpt lat="45.69487" lon="3.076">
        <ele>594</ele>
        <time>2019-06-23T06:34:14.000Z</time>
      </trkpt>
      <trkpt lat="45.69489" lon="3.07598">
        <ele>594</ele>
        <time>2019-06-23T06:34:15.000Z</time>
      </trkpt>
      <trkpt lat="45.69491" lon="3.07595">
        <ele>594</ele>
        <time>2019-06-23T06:34:16.000Z</time>
      </trkpt>
      <trkpt lat="45.69493" lon="3.07594">
        <ele>595</ele>
        <time>2019-06-23T06:34:17.000Z</time>
      </trkpt>
      <trkpt lat="45.69494" lon="3.07592">
        <ele>595</ele>
        <time>2019-06-23T06:34:18.000Z</time>
      </trkpt>
      <trkpt lat="45.69496" lon="3.0759">
        <ele>596</ele>
        <time>2019-06-23T06:34:19.000Z</time>
      </trkpt>
      <trkpt lat="45.69498" lon="3.07588">
        <ele>596</ele>
        <time>2019-06-23T06:34:20.000Z</time>
      </trkpt>
      <trkpt lat="45.69499" lon="3.07586">
        <ele>596</ele>
        <time>2019-06-23T06:34:21.000Z</time>
      </trkpt>
      <trkpt lat="45.69501" lon="3.07583">
        <ele>596</ele>
        <time>2019-06-23T06:34:22.000Z</time>
      </trkpt>
      <trkpt lat="45.69502" lon="3.07581">
        <ele>597</ele>
        <time>2019-06-23T06:34:23.000Z</time>
      </trkpt>
      <trkpt lat="45.69503" lon="3.07579">
        <ele>597</ele>
        <time>2019-06-23T06:34:24.000Z</time>
      </trkpt>
      <trkpt lat="45.69505" lon="3.07577">
        <ele>598</ele>
        <time>2019-06-23T06:34:25.000Z</time>
      </trkpt>
      <trkpt lat="45.69506" lon="3.07575">
        <ele>598</ele>
        <time>2019-06-23T06:34:26.000Z</time>
      </trkpt>
      <trkpt lat="45.69507" lon="3.07573">
        <ele>599</ele>
        <time>2019-06-23T06:34:27.000Z</time>
      </trkpt>
      <trkpt lat="45.69509" lon="3.07571">
        <ele>599</ele>
        <time>2019-06-23T06:34:28.000Z</time>
      </trkpt>
      <trkpt lat="45.6951" lon="3.07568">
        <ele>599</ele>
        <time>2019-06-23T06:34:29.000Z</time>
      </trkpt>
      <trkpt lat="45.69511" lon="3.07566">
        <ele>599</ele>
        <time>2019-06-23T06:34:30.000Z</time>
      </trkpt>
      <trkpt lat="45.69512" lon="3.07564">
        <ele>600</ele>
        <time>2019-06-23T06:34:31.000Z</time>
      </trkpt>
      <trkpt lat="45.69514" lon="3.07562">
        <ele>600</ele>
        <time>2019-06-23T06:34:32.000Z</time>
      </trkpt>
      <trkpt lat="45.69515" lon="3.0756">
        <ele>600</ele>
        <time>2019-06-23T06:34:33.000Z</time>
      </trkpt>
      <trkpt lat="45.69516" lon="3.07557">
        <ele>601</ele>
        <time>2019-06-23T06:34:34.000Z</time>
      </trkpt>
      <trkpt lat="45.69517" lon="3.07555">
        <ele>601</ele>
        <time>2019-06-23T06:34:35.000Z</time>
      </trkpt>
      <trkpt lat="45.69517" lon="3.07552">
        <ele>601</ele>
        <time>2019-06-23T06:34:36.000Z</time>
      </trkpt>
      <trkpt lat="45.69518" lon="3.0755">
        <ele>601</ele>
        <time>2019-06-23T06:34:37.000Z</time>
      </trkpt>
      <trkpt lat="45.69519" lon="3.07547">
        <ele>602</ele>
        <time>2019-06-23T06:34:38.000Z</time>
      </trkpt>
      <trkpt lat="45.69519" lon="3.07545">
        <ele>603</ele>
        <time>2019-06-23T06:34:39.000Z</time>
      </trkpt>
      <trkpt lat="45.6952" lon="3.07543">
        <ele>603</ele>
        <time>2019-06-23T06:34:40.000Z</time>
      </trkpt>
      <trkpt lat="45.6952" lon="3.0754">
        <ele>603</ele>
        <time>2019-06-23T06:34:41.000Z</time>
      </trkpt>
      <trkpt lat="45.69521" lon="3.07538">
        <ele>603</ele>
        <time>2019-06-23T06:34:42.000Z</time>
      </trkpt>
      <trkpt lat="45.69521" lon="3.07535">
        <ele>603</ele>
        <time>2019-06-23T06:34:43.000Z</time>
      </trkpt>
      <trkpt lat="45.6952" lon="3.07533">
        <ele>604</ele>
        <time>2019-06-23T06:34:44.000Z</time>
      </trkpt>
      <trkpt lat="45.69521" lon="3.07531">
        <ele>605</ele>
        <time>2019-06-23T06:34:45.000Z</time>
      </trkpt>
      <trkpt lat="45.69521" lon="3.07528">
        <ele>605</ele>
        <time>2019-06-23T06:34:46.000Z</time>
      </trkpt>
      <trkpt lat="45.69521" lon="3.07525">
        <ele>606</ele>
        <time>2019-06-23T06:34:47.000Z</time>
      </trkpt>
      <trkpt lat="45.69521" lon="3.07522">
        <ele>606</ele>
        <time>2019-06-23T06:34:48.000Z</time>
      </trkpt>
      <trkpt lat="45.69521" lon="3.07519">
        <ele>606</ele>
        <time>2019-06-23T06:34:49.000Z</time>
      </trkpt>
      <trkpt lat="45.69521" lon="3.07516">
        <ele>607</ele>
        <time>2019-06-23T06:34:50.000Z</time>
      </trkpt>
      <trkpt lat="45.69521" lon="3.07512">
        <ele>607</ele>
        <time>2019-06-23T06:34:51.000Z</time>
      </trkpt>
      <trkpt lat="45.69521" lon="3.07509">
        <ele>607</ele>
        <time>2019-06-23T06:34:52.000Z</time>
      </trkpt>
      <trkpt lat="45.69521" lon="3.07505">
        <ele>608</ele>
        <time>2019-06-23T06:34:53.000Z</time>
      </trkpt>
      <trkpt lat="45.69521" lon="3.07502">
        <ele>608</ele>
        <time>2019-06-23T06:34:54.000Z</time>
      </trkpt>
      <trkpt lat="45.69521" lon="3.07498">
        <ele>608</ele>
        <time>2019-06-23T06:34:55.000Z</time>
      </trkpt>
      <trkpt lat="45.69522" lon="3.07494">
        <ele>609</ele>
        <time>2019-06-23T06:34:56.000Z</time>
      </trkpt>
      <trkpt lat="45.69522" lon="3.0749">
        <ele>609</ele>
        <time>2019-06-23T06:34:57.000Z</time>
      </trkpt>
      <trkpt lat="45.69522" lon="3.07487">
        <ele>609</ele>
        <time>2019-06-23T06:34:58.000Z</time>
      </trkpt>
      <trkpt lat="45.69522" lon="3.07483">
        <ele>609</ele>
        <time>2019-06-23T06:34:59.000Z</time>
      </trkpt>
      <trkpt lat="45.69523" lon="3.0748">
        <ele>610</ele>
        <time>2019-06-23T06:35:00.000Z</time>
      </trkpt>
      <trkpt lat="45.69523" lon="3.07476">
        <ele>610</ele>
        <time>2019-06-23T06:35:01.000Z</time>
      </trkpt>
      <trkpt lat="45.69523" lon="3.07473">
        <ele>610</ele>
        <time>2019-06-23T06:35:02.000Z</time>
      </trkpt>
      <trkpt lat="45.69524" lon="3.07469">
        <ele>610</ele>
        <time>2019-06-23T06:35:03.000Z</time>
      </trkpt>
      <trkpt lat="45.69524" lon="3.07465">
        <ele>610</ele>
        <time>2019-06-23T06:35:04.000Z</time>
      </trkpt>
      <trkpt lat="45.69525" lon="3.07461">
        <ele>610</ele>
        <time>2019-06-23T06:35:05.000Z</time>
      </trkpt>
      <trkpt lat="45.69525" lon="3.07458">
        <ele>611</ele>
        <time>2019-06-23T06:35:06.000Z</time>
      </trkpt>
      <trkpt lat="45.69525" lon="3.07454">
        <ele>611</ele>
        <time>2019-06-23T06:35:07.000Z</time>
      </trkpt>
      <trkpt lat="45.69526" lon="3.0745">
        <ele>611</ele>
        <time>2019-06-23T06:35:08.000Z</time>
      </trkpt>
      <trkpt lat="45.69526" lon="3.07447">
        <ele>611</ele>
        <time>2019-06-23T06:35:09.000Z</time>
      </trkpt>
      <trkpt lat="45.69526" lon="3.07443">
        <ele>611</ele>
        <time>2019-06-23T06:35:10.000Z</time>
      </trkpt>
      <trkpt lat="45.69527" lon="3.0744">
        <ele>611</ele>
        <time>2019-06-23T06:35:11.000Z</time>
      </trkpt>
      <trkpt lat="45.69527" lon="3.07436">
        <ele>612</ele>
        <time>2019-06-23T06:35:12.000Z</time>
      </trkpt>
      <trkpt lat="45.69528" lon="3.07433">
        <ele>611</ele>
        <time>2019-06-23T06:35:13.000Z</time>
      </trkpt>
      <trkpt lat="45.69529" lon="3.07429">
        <ele>611</ele>
        <time>2019-06-23T06:35:14.000Z</time>
      </trkpt>
      <trkpt lat="45.69529" lon="3.07426">
        <ele>611</ele>
        <time>2019-06-23T06:35:15.000Z</time>
      </trkpt>
      <trkpt lat="45.6953" lon="3.07422">
        <ele>610</ele>
        <time>2019-06-23T06:35:16.000Z</time>
      </trkpt>
      <trkpt lat="45.6953" lon="3.07419">
        <ele>610</ele>
        <time>2019-06-23T06:35:17.000Z</time>
      </trkpt>
      <trkpt lat="45.6953" lon="3.07415">
        <ele>610</ele>
        <time>2019-06-23T06:35:18.000Z</time>
      </trkpt>
      <trkpt lat="45.69531" lon="3.07411">
        <ele>610</ele>
        <time>2019-06-23T06:35:19.000Z</time>
      </trkpt>
      <trkpt lat="45.69531" lon="3.07407">
        <ele>610</ele>
        <time>2019-06-23T06:35:20.000Z</time>
      </trkpt>
      <trkpt lat="45.69531" lon="3.07403">
        <ele>610</ele>
        <time>2019-06-23T06:35:21.000Z</time>
      </trkpt>
      <trkpt lat="45.69532" lon="3.07399">
        <ele>610</ele>
        <time>2019-06-23T06:35:22.000Z</time>
      </trkpt>
      <trkpt lat="45.69532" lon="3.07395">
        <ele>610</ele>
        <time>2019-06-23T06:35:23.000Z</time>
      </trkpt>
      <trkpt lat="45.69532" lon="3.07391">
        <ele>610</ele>
        <time>2019-06-23T06:35:24.000Z</time>
      </trkpt>
      <trkpt lat="45.69533" lon="3.07387">
        <ele>610</ele>
        <time>2019-06-23T06:35:25.000Z</time>
      </trkpt>
      <trkpt lat="45.69533" lon="3.07383">
        <ele>609</ele>
        <time>2019-06-23T06:35:26.000Z</time>
      </trkpt>
      <trkpt lat="45.69534" lon="3.07378">
        <ele>609</ele>
        <time>2019-06-23T06:35:27.000Z</time>
      </trkpt>
      <trkpt lat="45.69535" lon="3.07373">
        <ele>609</ele>
        <time>2019-06-23T06:35:28.000Z</time>
      </trkpt>
      <trkpt lat="45.69535" lon="3.07368">
        <ele>609</ele>
        <time>2019-06-23T06:35:29.000Z</time>
      </trkpt>
      <trkpt lat="45.69536" lon="3.07364">
        <ele>610</ele>
        <time>2019-06-23T06:35:30.000Z</time>
      </trkpt>
      <trkpt lat="45.69537" lon="3.07359">
        <ele>610</ele>
        <time>2019-06-23T06:35:31.000Z</time>
      </trkpt>
      <trkpt lat="45.69537" lon="3.07354">
        <ele>610</ele>
        <time>2019-06-23T06:35:32.000Z</time>
      </trkpt>
      <trkpt lat="45.69537" lon="3.0735">
        <ele>610</ele>
        <time>2019-06-23T06:35:33.000Z</time>
      </trkpt>
      <trkpt lat="45.69537" lon="3.07346">
        <ele>610</ele>
        <time>2019-06-23T06:35:34.000Z</time>
      </trkpt>
      <trkpt lat="45.69537" lon="3.07342">
        <ele>610</ele>
        <time>2019-06-23T06:35:35.000Z</time>
      </trkpt>
      <trkpt lat="45.69537" lon="3.07337">
        <ele>610</ele>
        <time>2019-06-23T06:35:36.000Z</time>
      </trkpt>
      <trkpt lat="45.69537" lon="3.07333">
        <ele>610</ele>
        <time>2019-06-23T06:35:37.000Z</time>
      </trkpt>
      <trkpt lat="45.69537" lon="3.07329">
        <ele>610</ele>
        <time>2019-06-23T06:35:38.000Z</time>
      </trkpt>
      <trkpt lat="45.69537" lon="3.07324">
        <ele>610</ele>
        <time>2019-06-23T06:35:39.000Z</time>
      </trkpt>
      <trkpt lat="45.69537" lon="3.07319">
        <ele>610</ele>
        <time>2019-06-23T06:35:40.000Z</time>
      </trkpt>
      <trkpt lat="45.69536" lon="3.07314">
        <ele>611</ele>
        <time>2019-06-23T06:35:41.000Z</time>
      </trkpt>
      <trkpt lat="45.69536" lon="3.07309">
        <ele>611</ele>
        <time>2019-06-23T06:35:42.000Z</time>
      </trkpt>
      <trkpt lat="45.69536" lon="3.07304">
        <ele>610</ele>
        <time>2019-06-23T06:35:43.000Z</time>
      </trkpt>
      <trkpt lat="45.69536" lon="3.07299">
        <ele>610</ele>
        <time>2019-06-23T06:35:44.000Z</time>
      </trkpt>
      <trkpt lat="45.69536" lon="3.07294">
        <ele>610</ele>
        <time>2019-06-23T06:35:45.000Z</time>
      </trkpt>
      <trkpt lat="45.69536" lon="3.07288">
        <ele>610</ele>
        <time>2019-06-23T06:35:46.000Z</time>
      </trkpt>
      <trkpt lat="45.69536" lon="3.07283">
        <ele>609</ele>
        <time>2019-06-23T06:35:47.000Z</time>
      </trkpt>
      <trkpt lat="45.69537" lon="3.07277">
        <ele>609</ele>
        <time>2019-06-23T06:35:48.000Z</time>
      </trkpt>
      <trkpt lat="45.69538" lon="3.07272">
        <ele>609</ele>
        <time>2019-06-23T06:35:49.000Z</time>
      </trkpt>
      <trkpt lat="45.69539" lon="3.07267">
        <ele>609</ele>
        <time>2019-06-23T06:35:50.000Z</time>
      </trkpt>
      <trkpt lat="45.6954" lon="3.07262">
        <ele>609</ele>
        <time>2019-06-23T06:35:51.000Z</time>
      </trkpt>
      <trkpt lat="45.69541" lon="3.07257">
        <ele>609</ele>
        <time>2019-06-23T06:35:52.000Z</time>
      </trkpt>
      <trkpt lat="45.69542" lon="3.07252">
        <ele>608</ele>
        <time>2019-06-23T06:35:53.000Z</time>
      </trkpt>
      <trkpt lat="45.69544" lon="3.07246">
        <ele>608</ele>
        <time>2019-06-23T06:35:54.000Z</time>
      </trkpt>
      <trkpt lat="45.69545" lon="3.07241">
        <ele>608</ele>
        <time>2019-06-23T06:35:55.000Z</time>
      </trkpt>
      <trkpt lat="45.69547" lon="3.07236">
        <ele>608</ele>
        <time>2019-06-23T06:35:56.000Z</time>
      </trkpt>
      <trkpt lat="45.69549" lon="3.07229">
        <ele>608</ele>
        <time>2019-06-23T06:35:57.000Z</time>
      </trkpt>
      <trkpt lat="45.69551" lon="3.07224">
        <ele>608</ele>
        <time>2019-06-23T06:35:58.000Z</time>
      </trkpt>
      <trkpt lat="45.69553" lon="3.07217">
        <ele>608</ele>
        <time>2019-06-23T06:35:59.000Z</time>
      </trkpt>
      <trkpt lat="45.69555" lon="3.07211">
        <ele>608</ele>
        <time>2019-06-23T06:36:00.000Z</time>
      </trkpt>
      <trkpt lat="45.69557" lon="3.07205">
        <ele>608</ele>
        <time>2019-06-23T06:36:01.000Z</time>
      </trkpt>
      <trkpt lat="45.69559" lon="3.07199">
        <ele>608</ele>
        <time>2019-06-23T06:36:02.000Z</time>
      </trkpt>
      <trkpt lat="45.69561" lon="3.07193">
        <ele>608</ele>
        <time>2019-06-23T06:36:03.000Z</time>
      </trkpt>
      <trkpt lat="45.69563" lon="3.07186">
        <ele>608</ele>
        <time>2019-06-23T06:36:04.000Z</time>
      </trkpt>
      <trkpt lat="45.69565" lon="3.07181">
        <ele>609</ele>
        <time>2019-06-23T06:36:05.000Z</time>
      </trkpt>
      <trkpt lat="45.69566" lon="3.07175">
        <ele>609</ele>
        <time>2019-06-23T06:36:06.000Z</time>
      </trkpt>
      <trkpt lat="45.69568" lon="3.0717">
        <ele>609</ele>
        <time>2019-06-23T06:36:07.000Z</time>
      </trkpt>
      <trkpt lat="45.69569" lon="3.07164">
        <ele>609</ele>
        <time>2019-06-23T06:36:08.000Z</time>
      </trkpt>
      <trkpt lat="45.69571" lon="3.07159">
        <ele>609</ele>
        <time>2019-06-23T06:36:09.000Z</time>
      </trkpt>
      <trkpt lat="45.69572" lon="3.07154">
        <ele>609</ele>
        <time>2019-06-23T06:36:10.000Z</time>
      </trkpt>
      <trkpt lat="45.69573" lon="3.07148">
        <ele>609</ele>
        <time>2019-06-23T06:36:11.000Z</time>
      </trkpt>
      <trkpt lat="45.69575" lon="3.07144">
        <ele>609</ele>
        <time>2019-06-23T06:36:12.000Z</time>
      </trkpt>
      <trkpt lat="45.69577" lon="3.07138">
        <ele>609</ele>
        <time>2019-06-23T06:36:13.000Z</time>
      </trkpt>
      <trkpt lat="45.69578" lon="3.07133">
        <ele>609</ele>
        <time>2019-06-23T06:36:14.000Z</time>
      </trkpt>
      <trkpt lat="45.6958" lon="3.07127">
        <ele>609</ele>
        <time>2019-06-23T06:36:15.000Z</time>
      </trkpt>
      <trkpt lat="45.69582" lon="3.07121">
        <ele>609</ele>
        <time>2019-06-23T06:36:16.000Z</time>
      </trkpt>
      <trkpt lat="45.69584" lon="3.07115">
        <ele>609</ele>
        <time>2019-06-23T06:36:17.000Z</time>
      </trkpt>
      <trkpt lat="45.69586" lon="3.07109">
        <ele>609</ele>
        <time>2019-06-23T06:36:18.000Z</time>
      </trkpt>
      <trkpt lat="45.69588" lon="3.07102">
        <ele>609</ele>
        <time>2019-06-23T06:36:19.000Z</time>
      </trkpt>
      <trkpt lat="45.6959" lon="3.07096">
        <ele>609</ele>
        <time>2019-06-23T06:36:20.000Z</time>
      </trkpt>
      <trkpt lat="45.69592" lon="3.07089">
        <ele>609</ele>
        <time>2019-06-23T06:36:21.000Z</time>
      </trkpt>
      <trkpt lat="45.69595" lon="3.07083">
        <ele>609</ele>
        <time>2019-06-23T06:36:22.000Z</time>
      </trkpt>
      <trkpt lat="45.69597" lon="3.07077">
        <ele>609</ele>
        <time>2019-06-23T06:36:23.000Z</time>
      </trkpt>
      <trkpt lat="45.69598" lon="3.0707">
        <ele>609</ele>
        <time>2019-06-23T06:36:24.000Z</time>
      </trkpt>
      <trkpt lat="45.696" lon="3.07064">
        <ele>609</ele>
        <time>2019-06-23T06:36:25.000Z</time>
      </trkpt>
      <trkpt lat="45.69601" lon="3.07058">
        <ele>609</ele>
        <time>2019-06-23T06:36:26.000Z</time>
      </trkpt>
      <trkpt lat="45.69602" lon="3.07052">
        <ele>609</ele>
        <time>2019-06-23T06:36:27.000Z</time>
      </trkpt>
      <trkpt lat="45.69603" lon="3.07046">
        <ele>609</ele>
        <time>2019-06-23T06:36:28.000Z</time>
      </trkpt>
      <trkpt lat="45.69604" lon="3.0704">
        <ele>609</ele>
        <time>2019-06-23T06:36:29.000Z</time>
      </trkpt>
      <trkpt lat="45.69605" lon="3.07034">
        <ele>609</ele>
        <time>2019-06-23T06:36:30.000Z</time>
      </trkpt>
      <trkpt lat="45.69607" lon="3.07028">
        <ele>610</ele>
        <time>2019-06-23T06:36:31.000Z</time>
      </trkpt>
      <trkpt lat="45.69608" lon="3.07023">
        <ele>610</ele>
        <time>2019-06-23T06:36:32.000Z</time>
      </trkpt>
      <trkpt lat="45.69609" lon="3.07018">
        <ele>610</ele>
        <time>2019-06-23T06:36:33.000Z</time>
      </trkpt>
      <trkpt lat="45.69611" lon="3.07012">
        <ele>610</ele>
        <time>2019-06-23T06:36:34.000Z</time>
      </trkpt>
      <trkpt lat="45.69611" lon="3.07007">
        <ele>610</ele>
        <time>2019-06-23T06:36:35.000Z</time>
      </trkpt>
      <trkpt lat="45.69613" lon="3.07002">
        <ele>610</ele>
        <time>2019-06-23T06:36:36.000Z</time>
      </trkpt>
      <trkpt lat="45.69614" lon="3.06997">
        <ele>610</ele>
        <time>2019-06-23T06:36:37.000Z</time>
      </trkpt>
      <trkpt lat="45.69615" lon="3.06992">
        <ele>610</ele>
        <time>2019-06-23T06:36:38.000Z</time>
      </trkpt>
      <trkpt lat="45.69616" lon="3.06986">
        <ele>610</ele>
        <time>2019-06-23T06:36:39.000Z</time>
      </trkpt>
      <trkpt lat="45.69618" lon="3.06981">
        <ele>610</ele>
        <time>2019-06-23T06:36:40.000Z</time>
      </trkpt>
      <trkpt lat="45.69619" lon="3.06976">
        <ele>610</ele>
        <time>2019-06-23T06:36:41.000Z</time>
      </trkpt>
      <trkpt lat="45.6962" lon="3.06971">
        <ele>611</ele>
        <time>2019-06-23T06:36:42.000Z</time>
      </trkpt>
      <trkpt lat="45.69622" lon="3.06966">
        <ele>611</ele>
        <time>2019-06-23T06:36:43.000Z</time>
      </trkpt>
      <trkpt lat="45.69623" lon="3.06961">
        <ele>611</ele>
        <time>2019-06-23T06:36:44.000Z</time>
      </trkpt>
      <trkpt lat="45.69624" lon="3.06956">
        <ele>611</ele>
        <time>2019-06-23T06:36:45.000Z</time>
      </trkpt>
      <trkpt lat="45.69625" lon="3.06952">
        <ele>612</ele>
        <time>2019-06-23T06:36:46.000Z</time>
      </trkpt>
      <trkpt lat="45.69625" lon="3.06947">
        <ele>612</ele>
        <time>2019-06-23T06:36:47.000Z</time>
      </trkpt>
      <trkpt lat="45.69625" lon="3.06943">
        <ele>612</ele>
        <time>2019-06-23T06:36:48.000Z</time>
      </trkpt>
      <trkpt lat="45.69624" lon="3.06939">
        <ele>612</ele>
        <time>2019-06-23T06:36:49.000Z</time>
      </trkpt>
      <trkpt lat="45.69623" lon="3.06935">
        <ele>612</ele>
        <time>2019-06-23T06:36:50.000Z</time>
      </trkpt>
      <trkpt lat="45.69623" lon="3.06931">
        <ele>612</ele>
        <time>2019-06-23T06:36:51.000Z</time>
      </trkpt>
      <trkpt lat="45.69623" lon="3.06927">
        <ele>612</ele>
        <time>2019-06-23T06:36:52.000Z</time>
      </trkpt>
      <trkpt lat="45.69622" lon="3.06923">
        <ele>613</ele>
        <time>2019-06-23T06:36:53.000Z</time>
      </trkpt>
      <trkpt lat="45.69622" lon="3.0692">
        <ele>613</ele>
        <time>2019-06-23T06:36:54.000Z</time>
      </trkpt>
      <trkpt lat="45.69622" lon="3.06917">
        <ele>613</ele>
        <time>2019-06-23T06:36:55.000Z</time>
      </trkpt>
      <trkpt lat="45.69621" lon="3.06914">
        <ele>613</ele>
        <time>2019-06-23T06:36:56.000Z</time>
      </trkpt>
      <trkpt lat="45.69621" lon="3.0691">
        <ele>613</ele>
        <time>2019-06-23T06:36:57.000Z</time>
      </trkpt>
      <trkpt lat="45.69621" lon="3.06907">
        <ele>613</ele>
        <time>2019-06-23T06:36:58.000Z</time>
      </trkpt>
      <trkpt lat="45.69621" lon="3.06903">
        <ele>613</ele>
        <time>2019-06-23T06:36:59.000Z</time>
      </trkpt>
      <trkpt lat="45.69621" lon="3.069">
        <ele>613</ele>
        <time>2019-06-23T06:37:00.000Z</time>
      </trkpt>
      <trkpt lat="45.6962" lon="3.06897">
        <ele>613</ele>
        <time>2019-06-23T06:37:01.000Z</time>
      </trkpt>
      <trkpt lat="45.6962" lon="3.06894">
        <ele>613</ele>
        <time>2019-06-23T06:37:02.000Z</time>
      </trkpt>
      <trkpt lat="45.6962" lon="3.06891">
        <ele>613</ele>
        <time>2019-06-23T06:37:03.000Z</time>
      </trkpt>
      <trkpt lat="45.6962" lon="3.06888">
        <ele>613</ele>
        <time>2019-06-23T06:37:04.000Z</time>
      </trkpt>
      <trkpt lat="45.6962" lon="3.06885">
        <ele>613</ele>
        <time>2019-06-23T06:37:05.000Z</time>
      </trkpt>
      <trkpt lat="45.6962" lon="3.06881">
        <ele>614</ele>
        <time>2019-06-23T06:37:06.000Z</time>
      </trkpt>
      <trkpt lat="45.6962" lon="3.06878">
        <ele>614</ele>
        <time>2019-06-23T06:37:07.000Z</time>
      </trkpt>
      <trkpt lat="45.6962" lon="3.06874">
        <ele>614</ele>
        <time>2019-06-23T06:37:08.000Z</time>
      </trkpt>
      <trkpt lat="45.6962" lon="3.06871">
        <ele>614</ele>
        <time>2019-06-23T06:37:09.000Z</time>
      </trkpt>
      <trkpt lat="45.69621" lon="3.06867">
        <ele>614</ele>
        <time>2019-06-23T06:37:10.000Z</time>
      </trkpt>
      <trkpt lat="45.69621" lon="3.06864">
        <ele>615</ele>
        <time>2019-06-23T06:37:11.000Z</time>
      </trkpt>
      <trkpt lat="45.69621" lon="3.0686">
        <ele>615</ele>
        <time>2019-06-23T06:37:12.000Z</time>
      </trkpt>
      <trkpt lat="45.69622" lon="3.06857">
        <ele>615</ele>
        <time>2019-06-23T06:37:13.000Z</time>
      </trkpt>
      <trkpt lat="45.69622" lon="3.06853">
        <ele>615</ele>
        <time>2019-06-23T06:37:14.000Z</time>
      </trkpt>
      <trkpt lat="45.69623" lon="3.0685">
        <ele>615</ele>
        <time>2019-06-23T06:37:15.000Z</time>
      </trkpt>
      <trkpt lat="45.69624" lon="3.06847">
        <ele>615</ele>
        <time>2019-06-23T06:37:16.000Z</time>
      </trkpt>
      <trkpt lat="45.69624" lon="3.06844">
        <ele>615</ele>
        <time>2019-06-23T06:37:17.000Z</time>
      </trkpt>
      <trkpt lat="45.69626" lon="3.0684">
        <ele>615</ele>
        <time>2019-06-23T06:37:18.000Z</time>
      </trkpt>
      <trkpt lat="45.69626" lon="3.06837">
        <ele>615</ele>
        <time>2019-06-23T06:37:19.000Z</time>
      </trkpt>
      <trkpt lat="45.69628" lon="3.06834">
        <ele>615</ele>
        <time>2019-06-23T06:37:20.000Z</time>
      </trkpt>
      <trkpt lat="45.69629" lon="3.0683">
        <ele>615</ele>
        <time>2019-06-23T06:37:21.000Z</time>
      </trkpt>
      <trkpt lat="45.69631" lon="3.06827">
        <ele>615</ele>
        <time>2019-06-23T06:37:22.000Z</time>
      </trkpt>
      <trkpt lat="45.69632" lon="3.06823">
        <ele>615</ele>
        <time>2019-06-23T06:37:23.000Z</time>
      </trkpt>
      <trkpt lat="45.69633" lon="3.0682">
        <ele>615</ele>
        <time>2019-06-23T06:37:24.000Z</time>
      </trkpt>
      <trkpt lat="45.69635" lon="3.06816">
        <ele>616</ele>
        <time>2019-06-23T06:37:25.000Z</time>
      </trkpt>
      <trkpt lat="45.69636" lon="3.06812">
        <ele>616</ele>
        <time>2019-06-23T06:37:26.000Z</time>
      </trkpt>
      <trkpt lat="45.69638" lon="3.06808">
        <ele>616</ele>
        <time>2019-06-23T06:37:27.000Z</time>
      </trkpt>
      <trkpt lat="45.6964" lon="3.06805">
        <ele>616</ele>
        <time>2019-06-23T06:37:28.000Z</time>
      </trkpt>
      <trkpt lat="45.69642" lon="3.06801">
        <ele>616</ele>
        <time>2019-06-23T06:37:29.000Z</time>
      </trkpt>
      <trkpt lat="45.69644" lon="3.06796">
        <ele>616</ele>
        <time>2019-06-23T06:37:30.000Z</time>
      </trkpt>
      <trkpt lat="45.69646" lon="3.06792">
        <ele>616</ele>
        <time>2019-06-23T06:37:31.000Z</time>
      </trkpt>
      <trkpt lat="45.69648" lon="3.06787">
        <ele>616</ele>
        <time>2019-06-23T06:37:32.000Z</time>
      </trkpt>
      <trkpt lat="45.6965" lon="3.06782">
        <ele>617</ele>
        <time>2019-06-23T06:37:33.000Z</time>
      </trkpt>
      <trkpt lat="45.69653" lon="3.06778">
        <ele>616</ele>
        <time>2019-06-23T06:37:34.000Z</time>
      </trkpt>
      <trkpt lat="45.69655" lon="3.06773">
        <ele>616</ele>
        <time>2019-06-23T06:37:35.000Z</time>
      </trkpt>
      <trkpt lat="45.69658" lon="3.06768">
        <ele>616</ele>
        <time>2019-06-23T06:37:36.000Z</time>
      </trkpt>
      <trkpt lat="45.69661" lon="3.06762">
        <ele>615</ele>
        <time>2019-06-23T06:37:37.000Z</time>
      </trkpt>
      <trkpt lat="45.69663" lon="3.06756">
        <ele>615</ele>
        <time>2019-06-23T06:37:38.000Z</time>
      </trkpt>
      <trkpt lat="45.69667" lon="3.0675">
        <ele>615</ele>
        <time>2019-06-23T06:37:39.000Z</time>
      </trkpt>
      <trkpt lat="45.6967" lon="3.06742">
        <ele>614</ele>
        <time>2019-06-23T06:37:40.000Z</time>
      </trkpt>
      <trkpt lat="45.69673" lon="3.06736">
        <ele>614</ele>
        <time>2019-06-23T06:37:41.000Z</time>
      </trkpt>
      <trkpt lat="45.69676" lon="3.06731">
        <ele>614</ele>
        <time>2019-06-23T06:37:42.000Z</time>
      </trkpt>
      <trkpt lat="45.69679" lon="3.06727">
        <ele>613</ele>
        <time>2019-06-23T06:37:43.000Z</time>
      </trkpt>
      <trkpt lat="45.6968" lon="3.06723">
        <ele>613</ele>
        <time>2019-06-23T06:37:44.000Z</time>
      </trkpt>
      <trkpt lat="45.6968" lon="3.0672">
        <ele>612</ele>
        <time>2019-06-23T06:37:45.000Z</time>
      </trkpt>
      <trkpt lat="45.6968" lon="3.06717">
        <ele>612</ele>
        <time>2019-06-23T06:37:46.000Z</time>
      </trkpt>
      <trkpt lat="45.69679" lon="3.06716">
        <ele>611</ele>
        <time>2019-06-23T06:37:47.000Z</time>
      </trkpt>
      <trkpt lat="45.69678" lon="3.06715">
        <ele>610</ele>
        <time>2019-06-23T06:37:48.000Z</time>
      </trkpt>
      <trkpt lat="45.69676" lon="3.06715">
        <ele>608</ele>
        <time>2019-06-23T06:37:49.000Z</time>
      </trkpt>
      <trkpt lat="45.69672" lon="3.06718">
        <ele>607</ele>
        <time>2019-06-23T06:37:50.000Z</time>
      </trkpt>
      <trkpt lat="45.69667" lon="3.06722">
        <ele>606</ele>
        <time>2019-06-23T06:37:51.000Z</time>
      </trkpt>
      <trkpt lat="45.69662" lon="3.06724">
        <ele>606</ele>
        <time>2019-06-23T06:37:52.000Z</time>
      </trkpt>
      <trkpt lat="45.69657" lon="3.06727">
        <ele>605</ele>
        <time>2019-06-23T06:37:53.000Z</time>
      </trkpt>
      <trkpt lat="45.69651" lon="3.06731">
        <ele>606</ele>
        <time>2019-06-23T06:37:54.000Z</time>
      </trkpt>
      <trkpt lat="45.69644" lon="3.06734">
        <ele>606</ele>
        <time>2019-06-23T06:37:55.000Z</time>
      </trkpt>
      <trkpt lat="45.69638" lon="3.06738">
        <ele>605</ele>
        <time>2019-06-23T06:37:56.000Z</time>
      </trkpt>
      <trkpt lat="45.69631" lon="3.06742">
        <ele>606</ele>
        <time>2019-06-23T06:37:57.000Z</time>
      </trkpt>
      <trkpt lat="45.69624" lon="3.06746">
        <ele>607</ele>
        <time>2019-06-23T06:37:58.000Z</time>
      </trkpt>
      <trkpt lat="45.69618" lon="3.06752">
        <ele>606</ele>
        <time>2019-06-23T06:37:59.000Z</time>
      </trkpt>
      <trkpt lat="45.69611" lon="3.06758">
        <ele>607</ele>
        <time>2019-06-23T06:38:00.000Z</time>
      </trkpt>
      <trkpt lat="45.69607" lon="3.06766">
        <ele>609</ele>
        <time>2019-06-23T06:38:01.000Z</time>
      </trkpt>
      <trkpt lat="45.69602" lon="3.06774">
        <ele>609</ele>
        <time>2019-06-23T06:38:02.000Z</time>
      </trkpt>
      <trkpt lat="45.69597" lon="3.06781">
        <ele>609</ele>
        <time>2019-06-23T06:38:03.000Z</time>
      </trkpt>
      <trkpt lat="45.69593" lon="3.06789">
        <ele>609</ele>
        <time>2019-06-23T06:38:04.000Z</time>
      </trkpt>
      <trkpt lat="45.69589" lon="3.06798">
        <ele>609</ele>
        <time>2019-06-23T06:38:05.000Z</time>
      </trkpt>
      <trkpt lat="45.69585" lon="3.06807">
        <ele>608</ele>
        <time>2019-06-23T06:38:06.000Z</time>
      </trkpt>
      <trkpt lat="45.69581" lon="3.06815">
        <ele>608</ele>
        <time>2019-06-23T06:38:07.000Z</time>
      </trkpt>
      <trkpt lat="45.69576" lon="3.06823">
        <ele>607</ele>
        <time>2019-06-23T06:38:08.000Z</time>
      </trkpt>
      <trkpt lat="45.69571" lon="3.06831">
        <ele>606</ele>
        <time>2019-06-23T06:38:09.000Z</time>
      </trkpt>
      <trkpt lat="45.69567" lon="3.06839">
        <ele>606</ele>
        <time>2019-06-23T06:38:10.000Z</time>
      </trkpt>
      <trkpt lat="45.69562" lon="3.06847">
        <ele>606</ele>
        <time>2019-06-23T06:38:11.000Z</time>
      </trkpt>
      <trkpt lat="45.69558" lon="3.06855">
        <ele>606</ele>
        <time>2019-06-23T06:38:12.000Z</time>
      </trkpt>
      <trkpt lat="45.69552" lon="3.06862">
        <ele>606</ele>
        <time>2019-06-23T06:38:13.000Z</time>
      </trkpt>
      <trkpt lat="45.69547" lon="3.0687">
        <ele>605</ele>
        <time>2019-06-23T06:38:14.000Z</time>
      </trkpt>
      <trkpt lat="45.69541" lon="3.06878">
        <ele>605</ele>
        <time>2019-06-23T06:38:15.000Z</time>
      </trkpt>
      <trkpt lat="45.69536" lon="3.06885">
        <ele>605</ele>
        <time>2019-06-23T06:38:16.000Z</time>
      </trkpt>
      <trkpt lat="45.69531" lon="3.06893">
        <ele>605</ele>
        <time>2019-06-23T06:38:17.000Z</time>
      </trkpt>
      <trkpt lat="45.69526" lon="3.06899">
        <ele>605</ele>
        <time>2019-06-23T06:38:18.000Z</time>
      </trkpt>
      <trkpt lat="45.69521" lon="3.06906">
        <ele>606</ele>
        <time>2019-06-23T06:38:19.000Z</time>
      </trkpt>
      <trkpt lat="45.69515" lon="3.06912">
        <ele>606</ele>
        <time>2019-06-23T06:38:20.000Z</time>
      </trkpt>
      <trkpt lat="45.69508" lon="3.06918">
        <ele>605</ele>
        <time>2019-06-23T06:38:21.000Z</time>
      </trkpt>
      <trkpt lat="45.69501" lon="3.06923">
        <ele>603</ele>
        <time>2019-06-23T06:38:22.000Z</time>
      </trkpt>
      <trkpt lat="45.69494" lon="3.06928">
        <ele>602</ele>
        <time>2019-06-23T06:38:23.000Z</time>
      </trkpt>
      <trkpt lat="45.69486" lon="3.06933">
        <ele>601</ele>
        <time>2019-06-23T06:38:24.000Z</time>
      </trkpt>
      <trkpt lat="45.69479" lon="3.06937">
        <ele>601</ele>
        <time>2019-06-23T06:38:25.000Z</time>
      </trkpt>
      <trkpt lat="45.69472" lon="3.0694">
        <ele>601</ele>
        <time>2019-06-23T06:38:26.000Z</time>
      </trkpt>
      <trkpt lat="45.69465" lon="3.06942">
        <ele>601</ele>
        <time>2019-06-23T06:38:27.000Z</time>
      </trkpt>
      <trkpt lat="45.69458" lon="3.06945">
        <ele>601</ele>
        <time>2019-06-23T06:38:28.000Z</time>
      </trkpt>
      <trkpt lat="45.69451" lon="3.06947">
        <ele>600</ele>
        <time>2019-06-23T06:38:29.000Z</time>
      </trkpt>
      <trkpt lat="45.69444" lon="3.0695">
        <ele>600</ele>
        <time>2019-06-23T06:38:30.000Z</time>
      </trkpt>
      <trkpt lat="45.69437" lon="3.06955">
        <ele>600</ele>
        <time>2019-06-23T06:38:31.000Z</time>
      </trkpt>
      <trkpt lat="45.69431" lon="3.0696">
        <ele>599</ele>
        <time>2019-06-23T06:38:32.000Z</time>
      </trkpt>
      <trkpt lat="45.69426" lon="3.06964">
        <ele>598</ele>
        <time>2019-06-23T06:38:33.000Z</time>
      </trkpt>
      <trkpt lat="45.69421" lon="3.06963">
        <ele>598</ele>
        <time>2019-06-23T06:38:34.000Z</time>
      </trkpt>
      <trkpt lat="45.69418" lon="3.0696">
        <ele>597</ele>
        <time>2019-06-23T06:38:35.000Z</time>
      </trkpt>
      <trkpt lat="45.69416" lon="3.06954">
        <ele>597</ele>
        <time>2019-06-23T06:38:36.000Z</time>
      </trkpt>
      <trkpt lat="45.69416" lon="3.06948">
        <ele>597</ele>
        <time>2019-06-23T06:38:37.000Z</time>
      </trkpt>
      <trkpt lat="45.69416" lon="3.06941">
        <ele>598</ele>
        <time>2019-06-23T06:38:38.000Z</time>
      </trkpt>
      <trkpt lat="45.69416" lon="3.06934">
        <ele>597</ele>
        <time>2019-06-23T06:38:39.000Z</time>
      </trkpt>
      <trkpt lat="45.69416" lon="3.06927">
        <ele>597</ele>
        <time>2019-06-23T06:38:40.000Z</time>
      </trkpt>
      <trkpt lat="45.69417" lon="3.0692">
        <ele>597</ele>
        <time>2019-06-23T06:38:41.000Z</time>
      </trkpt>
      <trkpt lat="45.69418" lon="3.06913">
        <ele>597</ele>
        <time>2019-06-23T06:38:42.000Z</time>
      </trkpt>
      <trkpt lat="45.69419" lon="3.06906">
        <ele>597</ele>
        <time>2019-06-23T06:38:43.000Z</time>
      </trkpt>
      <trkpt lat="45.69421" lon="3.069">
        <ele>597</ele>
        <time>2019-06-23T06:38:44.000Z</time>
      </trkpt>
      <trkpt lat="45.69423" lon="3.06893">
        <ele>597</ele>
        <time>2019-06-23T06:38:45.000Z</time>
      </trkpt>
      <trkpt lat="45.69424" lon="3.06887">
        <ele>597</ele>
        <time>2019-06-23T06:38:46.000Z</time>
      </trkpt>
      <trkpt lat="45.69426" lon="3.0688">
        <ele>598</ele>
        <time>2019-06-23T06:38:47.000Z</time>
      </trkpt>
      <trkpt lat="45.69428" lon="3.06874">
        <ele>598</ele>
        <time>2019-06-23T06:38:48.000Z</time>
      </trkpt>
      <trkpt lat="45.6943" lon="3.06867">
        <ele>598</ele>
        <time>2019-06-23T06:38:49.000Z</time>
      </trkpt>
      <trkpt lat="45.69432" lon="3.06861">
        <ele>597</ele>
        <time>2019-06-23T06:38:50.000Z</time>
      </trkpt>
      <trkpt lat="45.69434" lon="3.06855">
        <ele>597</ele>
        <time>2019-06-23T06:38:51.000Z</time>
      </trkpt>
      <trkpt lat="45.69436" lon="3.06849">
        <ele>597</ele>
        <time>2019-06-23T06:38:52.000Z</time>
      </trkpt>
      <trkpt lat="45.69439" lon="3.06842">
        <ele>598</ele>
        <time>2019-06-23T06:38:53.000Z</time>
      </trkpt>
      <trkpt lat="45.69441" lon="3.06836">
        <ele>598</ele>
        <time>2019-06-23T06:38:54.000Z</time>
      </trkpt>
      <trkpt lat="45.69444" lon="3.06829">
        <ele>598</ele>
        <time>2019-06-23T06:38:55.000Z</time>
      </trkpt>
      <trkpt lat="45.69446" lon="3.06822">
        <ele>598</ele>
        <time>2019-06-23T06:38:56.000Z</time>
      </trkpt>
      <trkpt lat="45.69449" lon="3.06816">
        <ele>598</ele>
        <time>2019-06-23T06:38:57.000Z</time>
      </trkpt>
      <trkpt lat="45.69451" lon="3.06809">
        <ele>598</ele>
        <time>2019-06-23T06:38:58.000Z</time>
      </trkpt>
      <trkpt lat="45.69454" lon="3.06803">
        <ele>598</ele>
        <time>2019-06-23T06:38:59.000Z</time>
      </trkpt>
      <trkpt lat="45.69456" lon="3.06797">
        <ele>599</ele>
        <time>2019-06-23T06:39:00.000Z</time>
      </trkpt>
      <trkpt lat="45.69458" lon="3.06791">
        <ele>599</ele>
        <time>2019-06-23T06:39:01.000Z</time>
      </trkpt>
      <trkpt lat="45.69461" lon="3.06784">
        <ele>599</ele>
        <time>2019-06-23T06:39:02.000Z</time>
      </trkpt>
      <trkpt lat="45.69463" lon="3.06778">
        <ele>599</ele>
        <time>2019-06-23T06:39:03.000Z</time>
      </trkpt>
      <trkpt lat="45.69465" lon="3.06772">
        <ele>599</ele>
        <time>2019-06-23T06:39:04.000Z</time>
      </trkpt>
      <trkpt lat="45.69468" lon="3.06767">
        <ele>599</ele>
        <time>2019-06-23T06:39:05.000Z</time>
      </trkpt>
      <trkpt lat="45.69469" lon="3.06761">
        <ele>600</ele>
        <time>2019-06-23T06:39:06.000Z</time>
      </trkpt>
      <trkpt lat="45.69471" lon="3.06754">
        <ele>599</ele>
        <time>2019-06-23T06:39:07.000Z</time>
      </trkpt>
      <trkpt lat="45.69474" lon="3.06748">
        <ele>599</ele>
        <time>2019-06-23T06:39:08.000Z</time>
      </trkpt>
      <trkpt lat="45.69476" lon="3.06742">
        <ele>600</ele>
        <time>2019-06-23T06:39:09.000Z</time>
      </trkpt>
      <trkpt lat="45.69478" lon="3.06736">
        <ele>600</ele>
        <time>2019-06-23T06:39:10.000Z</time>
      </trkpt>
      <trkpt lat="45.6948" lon="3.0673">
        <ele>600</ele>
        <time>2019-06-23T06:39:11.000Z</time>
      </trkpt>
      <trkpt lat="45.69481" lon="3.06724">
        <ele>600</ele>
        <time>2019-06-23T06:39:12.000Z</time>
      </trkpt>
      <trkpt lat="45.69483" lon="3.06718">
        <ele>600</ele>
        <time>2019-06-23T06:39:13.000Z</time>
      </trkpt>
      <trkpt lat="45.69484" lon="3.06711">
        <ele>600</ele>
        <time>2019-06-23T06:39:14.000Z</time>
      </trkpt>
      <trkpt lat="45.69486" lon="3.06705">
        <ele>600</ele>
        <time>2019-06-23T06:39:15.000Z</time>
      </trkpt>
      <trkpt lat="45.69488" lon="3.06699">
        <ele>600</ele>
        <time>2019-06-23T06:39:16.000Z</time>
      </trkpt>
      <trkpt lat="45.6949" lon="3.06693">
        <ele>600</ele>
        <time>2019-06-23T06:39:17.000Z</time>
      </trkpt>
      <trkpt lat="45.69492" lon="3.06687">
        <ele>601</ele>
        <time>2019-06-23T06:39:18.000Z</time>
      </trkpt>
      <trkpt lat="45.69493" lon="3.06681">
        <ele>601</ele>
        <time>2019-06-23T06:39:19.000Z</time>
      </trkpt>
      <trkpt lat="45.69495" lon="3.06675">
        <ele>601</ele>
        <time>2019-06-23T06:39:20.000Z</time>
      </trkpt>
      <trkpt lat="45.69496" lon="3.06669">
        <ele>601</ele>
        <time>2019-06-23T06:39:21.000Z</time>
      </trkpt>
      <trkpt lat="45.69497" lon="3.06663">
        <ele>601</ele>
        <time>2019-06-23T06:39:22.000Z</time>
      </trkpt>
      <trkpt lat="45.69498" lon="3.06657">
        <ele>601</ele>
        <time>2019-06-23T06:39:23.000Z</time>
      </trkpt>
      <trkpt lat="45.69497" lon="3.06651">
        <ele>601</ele>
        <time>2019-06-23T06:39:24.000Z</time>
      </trkpt>
      <trkpt lat="45.69495" lon="3.06647">
        <ele>601</ele>
        <time>2019-06-23T06:39:25.000Z</time>
      </trkpt>
      <trkpt lat="45.69491" lon="3.06645">
        <ele>602</ele>
        <time>2019-06-23T06:39:26.000Z</time>
      </trkpt>
      <trkpt lat="45.69487" lon="3.06644">
        <ele>601</ele>
        <time>2019-06-23T06:39:27.000Z</time>
      </trkpt>
      <trkpt lat="45.69483" lon="3.06643">
        <ele>601</ele>
        <time>2019-06-23T06:39:28.000Z</time>
      </trkpt>
      <trkpt lat="45.69478" lon="3.06643">
        <ele>601</ele>
        <time>2019-06-23T06:39:29.000Z</time>
      </trkpt>
      <trkpt lat="45.69472" lon="3.06643">
        <ele>601</ele>
        <time>2019-06-23T06:39:30.000Z</time>
      </trkpt>
      <trkpt lat="45.69467" lon="3.06641">
        <ele>601</ele>
        <time>2019-06-23T06:39:31.000Z</time>
      </trkpt>
      <trkpt lat="45.69461" lon="3.0664">
        <ele>601</ele>
        <time>2019-06-23T06:39:32.000Z</time>
      </trkpt>
      <trkpt lat="45.69455" lon="3.0664">
        <ele>601</ele>
        <time>2019-06-23T06:39:33.000Z</time>
      </trkpt>
      <trkpt lat="45.69448" lon="3.0664">
        <ele>601</ele>
        <time>2019-06-23T06:39:34.000Z</time>
      </trkpt>
      <trkpt lat="45.69443" lon="3.06638">
        <ele>600</ele>
        <time>2019-06-23T06:39:35.000Z</time>
      </trkpt>
      <trkpt lat="45.69437" lon="3.06637">
        <ele>600</ele>
        <time>2019-06-23T06:39:36.000Z</time>
      </trkpt>
      <trkpt lat="45.69432" lon="3.06635">
        <ele>599</ele>
        <time>2019-06-23T06:39:37.000Z</time>
      </trkpt>
      <trkpt lat="45.6943" lon="3.06631">
        <ele>602</ele>
        <time>2019-06-23T06:39:38.000Z</time>
      </trkpt>
      <trkpt lat="45.69427" lon="3.06627">
        <ele>603</ele>
        <time>2019-06-23T06:39:39.000Z</time>
      </trkpt>
      <trkpt lat="45.69426" lon="3.06622">
        <ele>605</ele>
        <time>2019-06-23T06:39:40.000Z</time>
      </trkpt>
      <trkpt lat="45.69424" lon="3.06617">
        <ele>605</ele>
        <time>2019-06-23T06:39:41.000Z</time>
      </trkpt>
      <trkpt lat="45.69423" lon="3.06615">
        <ele>606</ele>
        <time>2019-06-23T06:39:42.000Z</time>
      </trkpt>
      <trkpt lat="45.69423" lon="3.06614">
        <ele>606</ele>
        <time>2019-06-23T06:39:43.000Z</time>
      </trkpt>
      <trkpt lat="45.69422" lon="3.06613">
        <ele>606</ele>
        <time>2019-06-23T06:39:44.000Z</time>
      </trkpt>
      <trkpt lat="45.69422" lon="3.06612">
        <ele>606</ele>
        <time>2019-06-23T06:39:45.000Z</time>
      </trkpt>
      <trkpt lat="45.69422" lon="3.06611">
        <ele>606</ele>
        <time>2019-06-23T06:39:46.000Z</time>
      </trkpt>
      <trkpt lat="45.69422" lon="3.06611">
        <ele>606</ele>
        <time>2019-06-23T06:39:47.000Z</time>
      </trkpt>
      <trkpt lat="45.69422" lon="3.06611">
        <ele>606</ele>
        <time>2019-06-23T06:39:48.000Z</time>
      </trkpt>
      <trkpt lat="45.69421" lon="3.06608">
        <ele>606</ele>
        <time>2019-06-23T06:39:49.000Z</time>
      </trkpt>
      <trkpt lat="45.69421" lon="3.06607">
        <ele>606</ele>
        <time>2019-06-23T06:39:50.000Z</time>
      </trkpt>
      <trkpt lat="45.6942" lon="3.06605">
        <ele>605</ele>
        <time>2019-06-23T06:39:51.000Z</time>
      </trkpt>
      <trkpt lat="45.69419" lon="3.06603">
        <ele>605</ele>
        <time>2019-06-23T06:39:52.000Z</time>
      </trkpt>
      <trkpt lat="45.69418" lon="3.066">
        <ele>604</ele>
        <time>2019-06-23T06:39:53.000Z</time>
      </trkpt>
      <trkpt lat="45.69417" lon="3.06597">
        <ele>604</ele>
        <time>2019-06-23T06:39:54.000Z</time>
      </trkpt>
      <trkpt lat="45.69416" lon="3.06595">
        <ele>604</ele>
        <time>2019-06-23T06:39:55.000Z</time>
      </trkpt>
      <trkpt lat="45.69415" lon="3.06593">
        <ele>604</ele>
        <time>2019-06-23T06:39:56.000Z</time>
      </trkpt>
      <trkpt lat="45.69415" lon="3.06591">
        <ele>604</ele>
        <time>2019-06-23T06:39:57.000Z</time>
      </trkpt>
      <trkpt lat="45.69414" lon="3.06589">
        <ele>604</ele>
        <time>2019-06-23T06:39:58.000Z</time>
      </trkpt>
      <trkpt lat="45.69414" lon="3.06587">
        <ele>604</ele>
        <time>2019-06-23T06:39:59.000Z</time>
      </trkpt>
      <trkpt lat="45.69415" lon="3.06587">
        <ele>603</ele>
        <time>2019-06-23T06:40:00.000Z</time>
      </trkpt>
      <trkpt lat="45.69415" lon="3.06586">
        <ele>604</ele>
        <time>2019-06-23T06:40:01.000Z</time>
      </trkpt>
      <trkpt lat="45.69415" lon="3.06586">
        <ele>604</ele>
        <time>2019-06-23T06:40:02.000Z</time>
      </trkpt>
      <trkpt lat="45.69415" lon="3.06585">
        <ele>604</ele>
        <time>2019-06-23T06:40:03.000Z</time>
      </trkpt>
      <trkpt lat="45.69415" lon="3.06584">
        <ele>605</ele>
        <time>2019-06-23T06:40:04.000Z</time>
      </trkpt>
      <trkpt lat="45.69415" lon="3.06582">
        <ele>604</ele>
        <time>2019-06-23T06:40:05.000Z</time>
      </trkpt>
      <trkpt lat="45.69415" lon="3.0658">
        <ele>604</ele>
        <time>2019-06-23T06:40:06.000Z</time>
      </trkpt>
      <trkpt lat="45.69415" lon="3.06579">
        <ele>604</ele>
        <time>2019-06-23T06:40:07.000Z</time>
      </trkpt>
      <trkpt lat="45.69415" lon="3.06578">
        <ele>603</ele>
        <time>2019-06-23T06:40:08.000Z</time>
      </trkpt>
      <trkpt lat="45.69415" lon="3.06578">
        <ele>604</ele>
        <time>2019-06-23T06:40:09.000Z</time>
      </trkpt>
      <trkpt lat="45.69414" lon="3.06577">
        <ele>604</ele>
        <time>2019-06-23T06:40:10.000Z</time>
      </trkpt>
      <trkpt lat="45.69414" lon="3.06577">
        <ele>604</ele>
        <time>2019-06-23T06:40:11.000Z</time>
      </trkpt>
      <trkpt lat="45.69414" lon="3.06575">
        <ele>606</ele>
        <time>2019-06-23T06:40:12.000Z</time>
      </trkpt>
      <trkpt lat="45.69415" lon="3.06573">
        <ele>606</ele>
        <time>2019-06-23T06:40:13.000Z</time>
      </trkpt>
      <trkpt lat="45.69414" lon="3.0657">
        <ele>605</ele>
        <time>2019-06-23T06:40:14.000Z</time>
      </trkpt>
      <trkpt lat="45.69414" lon="3.06568">
        <ele>605</ele>
        <time>2019-06-23T06:40:15.000Z</time>
      </trkpt>
      <trkpt lat="45.69415" lon="3.06566">
        <ele>606</ele>
        <time>2019-06-23T06:40:16.000Z</time>
      </trkpt>
      <trkpt lat="45.69416" lon="3.06564">
        <ele>606</ele>
        <time>2019-06-23T06:40:17.000Z</time>
      </trkpt>
      <trkpt lat="45.69417" lon="3.06561">
        <ele>606</ele>
        <time>2019-06-23T06:40:18.000Z</time>
      </trkpt>
      <trkpt lat="45.69418" lon="3.06559">
        <ele>606</ele>
        <time>2019-06-23T06:40:19.000Z</time>
      </trkpt>
      <trkpt lat="45.69418" lon="3.06555">
        <ele>606</ele>
        <time>2019-06-23T06:40:20.000Z</time>
      </trkpt>
      <trkpt lat="45.69417" lon="3.0655">
        <ele>606</ele>
        <time>2019-06-23T06:40:21.000Z</time>
      </trkpt>
      <trkpt lat="45.69417" lon="3.06546">
        <ele>606</ele>
        <time>2019-06-23T06:40:22.000Z</time>
      </trkpt>
      <trkpt lat="45.69416" lon="3.06543">
        <ele>606</ele>
        <time>2019-06-23T06:40:23.000Z</time>
      </trkpt>
      <trkpt lat="45.69416" lon="3.06539">
        <ele>606</ele>
        <time>2019-06-23T06:40:24.000Z</time>
      </trkpt>
      <trkpt lat="45.69416" lon="3.06536">
        <ele>606</ele>
        <time>2019-06-23T06:40:25.000Z</time>
      </trkpt>
      <trkpt lat="45.69416" lon="3.06533">
        <ele>607</ele>
        <time>2019-06-23T06:40:26.000Z</time>
      </trkpt>
      <trkpt lat="45.69416" lon="3.0653">
        <ele>608</ele>
        <time>2019-06-23T06:40:27.000Z</time>
      </trkpt>
      <trkpt lat="45.69417" lon="3.06528">
        <ele>608</ele>
        <time>2019-06-23T06:40:28.000Z</time>
      </trkpt>
      <trkpt lat="45.69418" lon="3.06526">
        <ele>608</ele>
        <time>2019-06-23T06:40:29.000Z</time>
      </trkpt>
      <trkpt lat="45.69418" lon="3.06524">
        <ele>609</ele>
        <time>2019-06-23T06:40:30.000Z</time>
      </trkpt>
      <trkpt lat="45.6942" lon="3.06522">
        <ele>610</ele>
        <time>2019-06-23T06:40:31.000Z</time>
      </trkpt>
      <trkpt lat="45.6942" lon="3.0652">
        <ele>610</ele>
        <time>2019-06-23T06:40:32.000Z</time>
      </trkpt>
      <trkpt lat="45.69419" lon="3.06516">
        <ele>609</ele>
        <time>2019-06-23T06:40:33.000Z</time>
      </trkpt>
      <trkpt lat="45.69418" lon="3.06513">
        <ele>611</ele>
        <time>2019-06-23T06:40:34.000Z</time>
      </trkpt>
      <trkpt lat="45.69418" lon="3.0651">
        <ele>611</ele>
        <time>2019-06-23T06:40:35.000Z</time>
      </trkpt>
      <trkpt lat="45.69418" lon="3.06508">
        <ele>612</ele>
        <time>2019-06-23T06:40:36.000Z</time>
      </trkpt>
      <trkpt lat="45.69418" lon="3.06505">
        <ele>613</ele>
        <time>2019-06-23T06:40:37.000Z</time>
      </trkpt>
      <trkpt lat="45.69418" lon="3.06502">
        <ele>614</ele>
        <time>2019-06-23T06:40:38.000Z</time>
      </trkpt>
      <trkpt lat="45.69418" lon="3.06499">
        <ele>614</ele>
        <time>2019-06-23T06:40:39.000Z</time>
      </trkpt>
      <trkpt lat="45.69418" lon="3.06496">
        <ele>614</ele>
        <time>2019-06-23T06:40:40.000Z</time>
      </trkpt>
      <trkpt lat="45.69416" lon="3.06491">
        <ele>614</ele>
        <time>2019-06-23T06:40:41.000Z</time>
      </trkpt>
      <trkpt lat="45.69415" lon="3.06487">
        <ele>614</ele>
        <time>2019-06-23T06:40:42.000Z</time>
      </trkpt>
      <trkpt lat="45.69415" lon="3.06484">
        <ele>614</ele>
        <time>2019-06-23T06:40:43.000Z</time>
      </trkpt>
      <trkpt lat="45.69414" lon="3.06481">
        <ele>614</ele>
        <time>2019-06-23T06:40:44.000Z</time>
      </trkpt>
      <trkpt lat="45.69413" lon="3.06478">
        <ele>612</ele>
        <time>2019-06-23T06:40:45.000Z</time>
      </trkpt>
      <trkpt lat="45.69413" lon="3.06475">
        <ele>612</ele>
        <time>2019-06-23T06:40:46.000Z</time>
      </trkpt>
      <trkpt lat="45.69413" lon="3.06472">
        <ele>612</ele>
        <time>2019-06-23T06:40:47.000Z</time>
      </trkpt>
      <trkpt lat="45.69413" lon="3.06469">
        <ele>612</ele>
        <time>2019-06-23T06:40:48.000Z</time>
      </trkpt>
      <trkpt lat="45.69412" lon="3.06466">
        <ele>613</ele>
        <time>2019-06-23T06:40:49.000Z</time>
      </trkpt>
      <trkpt lat="45.69411" lon="3.06464">
        <ele>614</ele>
        <time>2019-06-23T06:40:50.000Z</time>
      </trkpt>
      <trkpt lat="45.69411" lon="3.06462">
        <ele>614</ele>
        <time>2019-06-23T06:40:51.000Z</time>
      </trkpt>
      <trkpt lat="45.69409" lon="3.06461">
        <ele>615</ele>
        <time>2019-06-23T06:40:52.000Z</time>
      </trkpt>
      <trkpt lat="45.69409" lon="3.0646">
        <ele>615</ele>
        <time>2019-06-23T06:40:53.000Z</time>
      </trkpt>
      <trkpt lat="45.69409" lon="3.06458">
        <ele>615</ele>
        <time>2019-06-23T06:40:54.000Z</time>
      </trkpt>
      <trkpt lat="45.69408" lon="3.06456">
        <ele>615</ele>
        <time>2019-06-23T06:40:55.000Z</time>
      </trkpt>
      <trkpt lat="45.69407" lon="3.06453">
        <ele>616</ele>
        <time>2019-06-23T06:40:56.000Z</time>
      </trkpt>
      <trkpt lat="45.69406" lon="3.06451">
        <ele>616</ele>
        <time>2019-06-23T06:40:57.000Z</time>
      </trkpt>
      <trkpt lat="45.69404" lon="3.06447">
        <ele>617</ele>
        <time>2019-06-23T06:40:58.000Z</time>
      </trkpt>
      <trkpt lat="45.69404" lon="3.06445">
        <ele>618</ele>
        <time>2019-06-23T06:40:59.000Z</time>
      </trkpt>
      <trkpt lat="45.69404" lon="3.06441">
        <ele>618</ele>
        <time>2019-06-23T06:41:00.000Z</time>
      </trkpt>
      <trkpt lat="45.69404" lon="3.06438">
        <ele>619</ele>
        <time>2019-06-23T06:41:01.000Z</time>
      </trkpt>
      <trkpt lat="45.69404" lon="3.06436">
        <ele>619</ele>
        <time>2019-06-23T06:41:02.000Z</time>
      </trkpt>
      <trkpt lat="45.69404" lon="3.06433">
        <ele>620</ele>
        <time>2019-06-23T06:41:03.000Z</time>
      </trkpt>
      <trkpt lat="45.69404" lon="3.0643">
        <ele>620</ele>
        <time>2019-06-23T06:41:04.000Z</time>
      </trkpt>
      <trkpt lat="45.69404" lon="3.06427">
        <ele>621</ele>
        <time>2019-06-23T06:41:05.000Z</time>
      </trkpt>
      <trkpt lat="45.69405" lon="3.06424">
        <ele>621</ele>
        <time>2019-06-23T06:41:06.000Z</time>
      </trkpt>
      <trkpt lat="45.69405" lon="3.06421">
        <ele>621</ele>
        <time>2019-06-23T06:41:07.000Z</time>
      </trkpt>
      <trkpt lat="45.69406" lon="3.06418">
        <ele>622</ele>
        <time>2019-06-23T06:41:08.000Z</time>
      </trkpt>
      <trkpt lat="45.69406" lon="3.06416">
        <ele>623</ele>
        <time>2019-06-23T06:41:09.000Z</time>
      </trkpt>
      <trkpt lat="45.69407" lon="3.06414">
        <ele>623</ele>
        <time>2019-06-23T06:41:10.000Z</time>
      </trkpt>
      <trkpt lat="45.69408" lon="3.06411">
        <ele>623</ele>
        <time>2019-06-23T06:41:11.000Z</time>
      </trkpt>
      <trkpt lat="45.69409" lon="3.06409">
        <ele>624</ele>
        <time>2019-06-23T06:41:12.000Z</time>
      </trkpt>
      <trkpt lat="45.69409" lon="3.06405">
        <ele>624</ele>
        <time>2019-06-23T06:41:13.000Z</time>
      </trkpt>
      <trkpt lat="45.69408" lon="3.06401">
        <ele>622</ele>
        <time>2019-06-23T06:41:14.000Z</time>
      </trkpt>
      <trkpt lat="45.69408" lon="3.06399">
        <ele>622</ele>
        <time>2019-06-23T06:41:15.000Z</time>
      </trkpt>
      <trkpt lat="45.69407" lon="3.06395">
        <ele>624</ele>
        <time>2019-06-23T06:41:16.000Z</time>
      </trkpt>
      <trkpt lat="45.69407" lon="3.06391">
        <ele>625</ele>
        <time>2019-06-23T06:41:17.000Z</time>
      </trkpt>
      <trkpt lat="45.69406" lon="3.06388">
        <ele>625</ele>
        <time>2019-06-23T06:41:18.000Z</time>
      </trkpt>
      <trkpt lat="45.69406" lon="3.06386">
        <ele>626</ele>
        <time>2019-06-23T06:41:19.000Z</time>
      </trkpt>
      <trkpt lat="45.69405" lon="3.06384">
        <ele>627</ele>
        <time>2019-06-23T06:41:20.000Z</time>
      </trkpt>
      <trkpt lat="45.69405" lon="3.0638">
        <ele>626</ele>
        <time>2019-06-23T06:41:21.000Z</time>
      </trkpt>
      <trkpt lat="45.69405" lon="3.06375">
        <ele>626</ele>
        <time>2019-06-23T06:41:22.000Z</time>
      </trkpt>
      <trkpt lat="45.69407" lon="3.0637">
        <ele>625</ele>
        <time>2019-06-23T06:41:23.000Z</time>
      </trkpt>
      <trkpt lat="45.69408" lon="3.06367">
        <ele>626</ele>
        <time>2019-06-23T06:41:24.000Z</time>
      </trkpt>
      <trkpt lat="45.69409" lon="3.06361">
        <ele>625</ele>
        <time>2019-06-23T06:41:25.000Z</time>
      </trkpt>
      <trkpt lat="45.69409" lon="3.06356">
        <ele>624</ele>
        <time>2019-06-23T06:41:26.000Z</time>
      </trkpt>
      <trkpt lat="45.6941" lon="3.06353">
        <ele>624</ele>
        <time>2019-06-23T06:41:27.000Z</time>
      </trkpt>
      <trkpt lat="45.6941" lon="3.06349">
        <ele>623</ele>
        <time>2019-06-23T06:41:28.000Z</time>
      </trkpt>
      <trkpt lat="45.69411" lon="3.06345">
        <ele>623</ele>
        <time>2019-06-23T06:41:29.000Z</time>
      </trkpt>
      <trkpt lat="45.69411" lon="3.0634">
        <ele>623</ele>
        <time>2019-06-23T06:41:30.000Z</time>
      </trkpt>
      <trkpt lat="45.69412" lon="3.06337">
        <ele>623</ele>
        <time>2019-06-23T06:41:31.000Z</time>
      </trkpt>
      <trkpt lat="45.69411" lon="3.06334">
        <ele>623</ele>
        <time>2019-06-23T06:41:32.000Z</time>
      </trkpt>
      <trkpt lat="45.69412" lon="3.0633">
        <ele>623</ele>
        <time>2019-06-23T06:41:33.000Z</time>
      </trkpt>
      <trkpt lat="45.69412" lon="3.06326">
        <ele>624</ele>
        <time>2019-06-23T06:41:34.000Z</time>
      </trkpt>
      <trkpt lat="45.69414" lon="3.06323">
        <ele>626</ele>
        <time>2019-06-23T06:41:35.000Z</time>
      </trkpt>
      <trkpt lat="45.69414" lon="3.06319">
        <ele>626</ele>
        <time>2019-06-23T06:41:36.000Z</time>
      </trkpt>
      <trkpt lat="45.69413" lon="3.06314">
        <ele>627</ele>
        <time>2019-06-23T06:41:37.000Z</time>
      </trkpt>
      <trkpt lat="45.69412" lon="3.0631">
        <ele>627</ele>
        <time>2019-06-23T06:41:38.000Z</time>
      </trkpt>
      <trkpt lat="45.69411" lon="3.06306">
        <ele>626</ele>
        <time>2019-06-23T06:41:39.000Z</time>
      </trkpt>
      <trkpt lat="45.69411" lon="3.06301">
        <ele>624</ele>
        <time>2019-06-23T06:41:40.000Z</time>
      </trkpt>
      <trkpt lat="45.6941" lon="3.06296">
        <ele>624</ele>
        <time>2019-06-23T06:41:41.000Z</time>
      </trkpt>
      <trkpt lat="45.69408" lon="3.06292">
        <ele>622</ele>
        <time>2019-06-23T06:41:42.000Z</time>
      </trkpt>
      <trkpt lat="45.69407" lon="3.06289">
        <ele>621</ele>
        <time>2019-06-23T06:41:43.000Z</time>
      </trkpt>
      <trkpt lat="45.69409" lon="3.06285">
        <ele>623</ele>
        <time>2019-06-23T06:41:44.000Z</time>
      </trkpt>
      <trkpt lat="45.6941" lon="3.06281">
        <ele>623</ele>
        <time>2019-06-23T06:41:45.000Z</time>
      </trkpt>
      <trkpt lat="45.69411" lon="3.06278">
        <ele>623</ele>
        <time>2019-06-23T06:41:46.000Z</time>
      </trkpt>
      <trkpt lat="45.69412" lon="3.06273">
        <ele>623</ele>
        <time>2019-06-23T06:41:47.000Z</time>
      </trkpt>
      <trkpt lat="45.69412" lon="3.06269">
        <ele>624</ele>
        <time>2019-06-23T06:41:48.000Z</time>
      </trkpt>
      <trkpt lat="45.69413" lon="3.06264">
        <ele>624</ele>
        <time>2019-06-23T06:41:49.000Z</time>
      </trkpt>
      <trkpt lat="45.69411" lon="3.06258">
        <ele>624</ele>
        <time>2019-06-23T06:41:50.000Z</time>
      </trkpt>
      <trkpt lat="45.69414" lon="3.06253">
        <ele>626</ele>
        <time>2019-06-23T06:41:51.000Z</time>
      </trkpt>
      <trkpt lat="45.69417" lon="3.06247">
        <ele>628</ele>
        <time>2019-06-23T06:41:52.000Z</time>
      </trkpt>
      <trkpt lat="45.69418" lon="3.06243">
        <ele>629</ele>
        <time>2019-06-23T06:41:53.000Z</time>
      </trkpt>
      <trkpt lat="45.69417" lon="3.06238">
        <ele>629</ele>
        <time>2019-06-23T06:41:54.000Z</time>
      </trkpt>
      <trkpt lat="45.69415" lon="3.06232">
        <ele>626</ele>
        <time>2019-06-23T06:41:55.000Z</time>
      </trkpt>
      <trkpt lat="45.69416" lon="3.06223">
        <ele>625</ele>
        <time>2019-06-23T06:41:56.000Z</time>
      </trkpt>
      <trkpt lat="45.69415" lon="3.06218">
        <ele>623</ele>
        <time>2019-06-23T06:41:57.000Z</time>
      </trkpt>
      <trkpt lat="45.69415" lon="3.06212">
        <ele>623</ele>
        <time>2019-06-23T06:41:58.000Z</time>
      </trkpt>
      <trkpt lat="45.69414" lon="3.06206">
        <ele>622</ele>
        <time>2019-06-23T06:41:59.000Z</time>
      </trkpt>
      <trkpt lat="45.69414" lon="3.06201">
        <ele>622</ele>
        <time>2019-06-23T06:42:00.000Z</time>
      </trkpt>
      <trkpt lat="45.69413" lon="3.06197">
        <ele>622</ele>
        <time>2019-06-23T06:42:01.000Z</time>
      </trkpt>
      <trkpt lat="45.69413" lon="3.06192">
        <ele>622</ele>
        <time>2019-06-23T06:42:02.000Z</time>
      </trkpt>
      <trkpt lat="45.69413" lon="3.06187">
        <ele>622</ele>
        <time>2019-06-23T06:42:03.000Z</time>
      </trkpt>
      <trkpt lat="45.69414" lon="3.06182">
        <ele>622</ele>
        <time>2019-06-23T06:42:04.000Z</time>
      </trkpt>
      <trkpt lat="45.69416" lon="3.06177">
        <ele>622</ele>
        <time>2019-06-23T06:42:05.000Z</time>
      </trkpt>
      <trkpt lat="45.6942" lon="3.0617">
        <ele>625</ele>
        <time>2019-06-23T06:42:06.000Z</time>
      </trkpt>
      <trkpt lat="45.69421" lon="3.06165">
        <ele>625</ele>
        <time>2019-06-23T06:42:07.000Z</time>
      </trkpt>
      <trkpt lat="45.69422" lon="3.06162">
        <ele>625</ele>
        <time>2019-06-23T06:42:08.000Z</time>
      </trkpt>
      <trkpt lat="45.69423" lon="3.06157">
        <ele>625</ele>
        <time>2019-06-23T06:42:09.000Z</time>
      </trkpt>
      <trkpt lat="45.69425" lon="3.06153">
        <ele>626</ele>
        <time>2019-06-23T06:42:10.000Z</time>
      </trkpt>
      <trkpt lat="45.69424" lon="3.06147">
        <ele>626</ele>
        <time>2019-06-23T06:42:11.000Z</time>
      </trkpt>
      <trkpt lat="45.69425" lon="3.0614">
        <ele>626</ele>
        <time>2019-06-23T06:42:12.000Z</time>
      </trkpt>
      <trkpt lat="45.69424" lon="3.06133">
        <ele>624</ele>
        <time>2019-06-23T06:42:13.000Z</time>
      </trkpt>
      <trkpt lat="45.69421" lon="3.06125">
        <ele>622</ele>
        <time>2019-06-23T06:42:14.000Z</time>
      </trkpt>
      <trkpt lat="45.69416" lon="3.06115">
        <ele>617</ele>
        <time>2019-06-23T06:42:15.000Z</time>
      </trkpt>
      <trkpt lat="45.69415" lon="3.06106">
        <ele>616</ele>
        <time>2019-06-23T06:42:16.000Z</time>
      </trkpt>
      <trkpt lat="45.69413" lon="3.06099">
        <ele>614</ele>
        <time>2019-06-23T06:42:17.000Z</time>
      </trkpt>
      <trkpt lat="45.69412" lon="3.06093">
        <ele>613</ele>
        <time>2019-06-23T06:42:18.000Z</time>
      </trkpt>
      <trkpt lat="45.69412" lon="3.06086">
        <ele>614</ele>
        <time>2019-06-23T06:42:19.000Z</time>
      </trkpt>
      <trkpt lat="45.69412" lon="3.06079">
        <ele>613</ele>
        <time>2019-06-23T06:42:20.000Z</time>
      </trkpt>
      <trkpt lat="45.69411" lon="3.06073">
        <ele>613</ele>
        <time>2019-06-23T06:42:21.000Z</time>
      </trkpt>
      <trkpt lat="45.69411" lon="3.06068">
        <ele>612</ele>
        <time>2019-06-23T06:42:22.000Z</time>
      </trkpt>
      <trkpt lat="45.6941" lon="3.06063">
        <ele>613</ele>
        <time>2019-06-23T06:42:23.000Z</time>
      </trkpt>
      <trkpt lat="45.69408" lon="3.06058">
        <ele>613</ele>
        <time>2019-06-23T06:42:24.000Z</time>
      </trkpt>
      <trkpt lat="45.69407" lon="3.06052">
        <ele>614</ele>
        <time>2019-06-23T06:42:25.000Z</time>
      </trkpt>
      <trkpt lat="45.69406" lon="3.06046">
        <ele>614</ele>
        <time>2019-06-23T06:42:26.000Z</time>
      </trkpt>
      <trkpt lat="45.69404" lon="3.06041">
        <ele>614</ele>
        <time>2019-06-23T06:42:27.000Z</time>
      </trkpt>
      <trkpt lat="45.69403" lon="3.06036">
        <ele>614</ele>
        <time>2019-06-23T06:42:28.000Z</time>
      </trkpt>
      <trkpt lat="45.69401" lon="3.06031">
        <ele>614</ele>
        <time>2019-06-23T06:42:29.000Z</time>
      </trkpt>
      <trkpt lat="45.69399" lon="3.06027">
        <ele>614</ele>
        <time>2019-06-23T06:42:30.000Z</time>
      </trkpt>
      <trkpt lat="45.69397" lon="3.06022">
        <ele>615</ele>
        <time>2019-06-23T06:42:31.000Z</time>
      </trkpt>
      <trkpt lat="45.69394" lon="3.06014">
        <ele>615</ele>
        <time>2019-06-23T06:42:32.000Z</time>
      </trkpt>
      <trkpt lat="45.69394" lon="3.06008">
        <ele>614</ele>
        <time>2019-06-23T06:42:33.000Z</time>
      </trkpt>
      <trkpt lat="45.69393" lon="3.06002">
        <ele>615</ele>
        <time>2019-06-23T06:42:34.000Z</time>
      </trkpt>
      <trkpt lat="45.69392" lon="3.05997">
        <ele>615</ele>
        <time>2019-06-23T06:42:35.000Z</time>
      </trkpt>
      <trkpt lat="45.69393" lon="3.05991">
        <ele>617</ele>
        <time>2019-06-23T06:42:36.000Z</time>
      </trkpt>
      <trkpt lat="45.69395" lon="3.05985">
        <ele>618</ele>
        <time>2019-06-23T06:42:37.000Z</time>
      </trkpt>
      <trkpt lat="45.69396" lon="3.0598">
        <ele>619</ele>
        <time>2019-06-23T06:42:38.000Z</time>
      </trkpt>
      <trkpt lat="45.69395" lon="3.05976">
        <ele>619</ele>
        <time>2019-06-23T06:42:39.000Z</time>
      </trkpt>
      <trkpt lat="45.69394" lon="3.05971">
        <ele>620</ele>
        <time>2019-06-23T06:42:40.000Z</time>
      </trkpt>
      <trkpt lat="45.69393" lon="3.05966">
        <ele>620</ele>
        <time>2019-06-23T06:42:41.000Z</time>
      </trkpt>
      <trkpt lat="45.69393" lon="3.05962">
        <ele>621</ele>
        <time>2019-06-23T06:42:42.000Z</time>
      </trkpt>
      <trkpt lat="45.69391" lon="3.05958">
        <ele>621</ele>
        <time>2019-06-23T06:42:43.000Z</time>
      </trkpt>
      <trkpt lat="45.6939" lon="3.05954">
        <ele>621</ele>
        <time>2019-06-23T06:42:44.000Z</time>
      </trkpt>
      <trkpt lat="45.69389" lon="3.05951">
        <ele>621</ele>
        <time>2019-06-23T06:42:45.000Z</time>
      </trkpt>
      <trkpt lat="45.69387" lon="3.05948">
        <ele>621</ele>
        <time>2019-06-23T06:42:46.000Z</time>
      </trkpt>
      <trkpt lat="45.69387" lon="3.05944">
        <ele>621</ele>
        <time>2019-06-23T06:42:47.000Z</time>
      </trkpt>
      <trkpt lat="45.69386" lon="3.0594">
        <ele>621</ele>
        <time>2019-06-23T06:42:48.000Z</time>
      </trkpt>
      <trkpt lat="45.69385" lon="3.05937">
        <ele>621</ele>
        <time>2019-06-23T06:42:49.000Z</time>
      </trkpt>
      <trkpt lat="45.69383" lon="3.05934">
        <ele>621</ele>
        <time>2019-06-23T06:42:50.000Z</time>
      </trkpt>
      <trkpt lat="45.6938" lon="3.0593">
        <ele>620</ele>
        <time>2019-06-23T06:42:51.000Z</time>
      </trkpt>
      <trkpt lat="45.69378" lon="3.05927">
        <ele>620</ele>
        <time>2019-06-23T06:42:52.000Z</time>
      </trkpt>
      <trkpt lat="45.69376" lon="3.05924">
        <ele>621</ele>
        <time>2019-06-23T06:42:53.000Z</time>
      </trkpt>
      <trkpt lat="45.69373" lon="3.05919">
        <ele>620</ele>
        <time>2019-06-23T06:42:54.000Z</time>
      </trkpt>
      <trkpt lat="45.69371" lon="3.05916">
        <ele>619</ele>
        <time>2019-06-23T06:42:55.000Z</time>
      </trkpt>
      <trkpt lat="45.69369" lon="3.05913">
        <ele>619</ele>
        <time>2019-06-23T06:42:56.000Z</time>
      </trkpt>
      <trkpt lat="45.69368" lon="3.05908">
        <ele>619</ele>
        <time>2019-06-23T06:42:57.000Z</time>
      </trkpt>
      <trkpt lat="45.69366" lon="3.05904">
        <ele>619</ele>
        <time>2019-06-23T06:42:58.000Z</time>
      </trkpt>
      <trkpt lat="45.69364" lon="3.05901">
        <ele>619</ele>
        <time>2019-06-23T06:42:59.000Z</time>
      </trkpt>
      <trkpt lat="45.69362" lon="3.05893">
        <ele>618</ele>
        <time>2019-06-23T06:43:00.000Z</time>
      </trkpt>
      <trkpt lat="45.69361" lon="3.05887">
        <ele>617</ele>
        <time>2019-06-23T06:43:01.000Z</time>
      </trkpt>
      <trkpt lat="45.69361" lon="3.05881">
        <ele>618</ele>
        <time>2019-06-23T06:43:02.000Z</time>
      </trkpt>
      <trkpt lat="45.69361" lon="3.05875">
        <ele>617</ele>
        <time>2019-06-23T06:43:03.000Z</time>
      </trkpt>
      <trkpt lat="45.69359" lon="3.05869">
        <ele>616</ele>
        <time>2019-06-23T06:43:04.000Z</time>
      </trkpt>
      <trkpt lat="45.69355" lon="3.05861">
        <ele>614</ele>
        <time>2019-06-23T06:43:05.000Z</time>
      </trkpt>
      <trkpt lat="45.69353" lon="3.05855">
        <ele>614</ele>
        <time>2019-06-23T06:43:06.000Z</time>
      </trkpt>
      <trkpt lat="45.69353" lon="3.05848">
        <ele>615</ele>
        <time>2019-06-23T06:43:07.000Z</time>
      </trkpt>
      <trkpt lat="45.69353" lon="3.05841">
        <ele>615</ele>
        <time>2019-06-23T06:43:08.000Z</time>
      </trkpt>
      <trkpt lat="45.69353" lon="3.05835">
        <ele>616</ele>
        <time>2019-06-23T06:43:09.000Z</time>
      </trkpt>
      <trkpt lat="45.69352" lon="3.0583">
        <ele>617</ele>
        <time>2019-06-23T06:43:10.000Z</time>
      </trkpt>
      <trkpt lat="45.6935" lon="3.05825">
        <ele>616</ele>
        <time>2019-06-23T06:43:11.000Z</time>
      </trkpt>
      <trkpt lat="45.69349" lon="3.05821">
        <ele>615</ele>
        <time>2019-06-23T06:43:12.000Z</time>
      </trkpt>
      <trkpt lat="45.6935" lon="3.05816">
        <ele>616</ele>
        <time>2019-06-23T06:43:13.000Z</time>
      </trkpt>
      <trkpt lat="45.69351" lon="3.0581">
        <ele>617</ele>
        <time>2019-06-23T06:43:14.000Z</time>
      </trkpt>
      <trkpt lat="45.6935" lon="3.05805">
        <ele>617</ele>
        <time>2019-06-23T06:43:15.000Z</time>
      </trkpt>
      <trkpt lat="45.69349" lon="3.058">
        <ele>618</ele>
        <time>2019-06-23T06:43:16.000Z</time>
      </trkpt>
      <trkpt lat="45.69348" lon="3.05796">
        <ele>617</ele>
        <time>2019-06-23T06:43:17.000Z</time>
      </trkpt>
      <trkpt lat="45.6935" lon="3.05791">
        <ele>617</ele>
        <time>2019-06-23T06:43:18.000Z</time>
      </trkpt>
      <trkpt lat="45.69354" lon="3.05783">
        <ele>619</ele>
        <time>2019-06-23T06:43:19.000Z</time>
      </trkpt>
      <trkpt lat="45.69356" lon="3.05774">
        <ele>620</ele>
        <time>2019-06-23T06:43:20.000Z</time>
      </trkpt>
      <trkpt lat="45.69357" lon="3.05768">
        <ele>619</ele>
        <time>2019-06-23T06:43:21.000Z</time>
      </trkpt>
      <trkpt lat="45.69357" lon="3.05761">
        <ele>619</ele>
        <time>2019-06-23T06:43:22.000Z</time>
      </trkpt>
      <trkpt lat="45.69358" lon="3.05755">
        <ele>618</ele>
        <time>2019-06-23T06:43:23.000Z</time>
      </trkpt>
      <trkpt lat="45.69358" lon="3.05749">
        <ele>619</ele>
        <time>2019-06-23T06:43:24.000Z</time>
      </trkpt>
      <trkpt lat="45.69358" lon="3.05743">
        <ele>620</ele>
        <time>2019-06-23T06:43:25.000Z</time>
      </trkpt>
      <trkpt lat="45.69358" lon="3.05737">
        <ele>621</ele>
        <time>2019-06-23T06:43:26.000Z</time>
      </trkpt>
      <trkpt lat="45.69358" lon="3.05732">
        <ele>620</ele>
        <time>2019-06-23T06:43:27.000Z</time>
      </trkpt>
      <trkpt lat="45.69358" lon="3.05727">
        <ele>619</ele>
        <time>2019-06-23T06:43:28.000Z</time>
      </trkpt>
      <trkpt lat="45.69358" lon="3.05722">
        <ele>618</ele>
        <time>2019-06-23T06:43:29.000Z</time>
      </trkpt>
      <trkpt lat="45.69359" lon="3.05716">
        <ele>619</ele>
        <time>2019-06-23T06:43:30.000Z</time>
      </trkpt>
      <trkpt lat="45.69359" lon="3.0571">
        <ele>619</ele>
        <time>2019-06-23T06:43:31.000Z</time>
      </trkpt>
      <trkpt lat="45.6936" lon="3.05705">
        <ele>619</ele>
        <time>2019-06-23T06:43:32.000Z</time>
      </trkpt>
      <trkpt lat="45.69359" lon="3.057">
        <ele>619</ele>
        <time>2019-06-23T06:43:33.000Z</time>
      </trkpt>
      <trkpt lat="45.6936" lon="3.05693">
        <ele>618</ele>
        <time>2019-06-23T06:43:34.000Z</time>
      </trkpt>
      <trkpt lat="45.6936" lon="3.05685">
        <ele>619</ele>
        <time>2019-06-23T06:43:35.000Z</time>
      </trkpt>
      <trkpt lat="45.69359" lon="3.05678">
        <ele>620</ele>
        <time>2019-06-23T06:43:36.000Z</time>
      </trkpt>
      <trkpt lat="45.69357" lon="3.0567">
        <ele>621</ele>
        <time>2019-06-23T06:43:37.000Z</time>
      </trkpt>
      <trkpt lat="45.69356" lon="3.05663">
        <ele>622</ele>
        <time>2019-06-23T06:43:38.000Z</time>
      </trkpt>
      <trkpt lat="45.69354" lon="3.05654">
        <ele>620</ele>
        <time>2019-06-23T06:43:39.000Z</time>
      </trkpt>
      <trkpt lat="45.69354" lon="3.05646">
        <ele>620</ele>
        <time>2019-06-23T06:43:40.000Z</time>
      </trkpt>
      <trkpt lat="45.69353" lon="3.05638">
        <ele>620</ele>
        <time>2019-06-23T06:43:41.000Z</time>
      </trkpt>
      <trkpt lat="45.69353" lon="3.0563">
        <ele>621</ele>
        <time>2019-06-23T06:43:42.000Z</time>
      </trkpt>
      <trkpt lat="45.69351" lon="3.05623">
        <ele>620</ele>
        <time>2019-06-23T06:43:43.000Z</time>
      </trkpt>
      <trkpt lat="45.69349" lon="3.05617">
        <ele>621</ele>
        <time>2019-06-23T06:43:44.000Z</time>
      </trkpt>
      <trkpt lat="45.69347" lon="3.05614">
        <ele>622</ele>
        <time>2019-06-23T06:43:45.000Z</time>
      </trkpt>
      <trkpt lat="45.69343" lon="3.05612">
        <ele>623</ele>
        <time>2019-06-23T06:43:46.000Z</time>
      </trkpt>
      <trkpt lat="45.69337" lon="3.05611">
        <ele>624</ele>
        <time>2019-06-23T06:43:47.000Z</time>
      </trkpt>
      <trkpt lat="45.69334" lon="3.0561">
        <ele>625</ele>
        <time>2019-06-23T06:43:48.000Z</time>
      </trkpt>
      <trkpt lat="45.69331" lon="3.05609">
        <ele>624</ele>
        <time>2019-06-23T06:43:49.000Z</time>
      </trkpt>
      <trkpt lat="45.69327" lon="3.05608">
        <ele>623</ele>
        <time>2019-06-23T06:43:50.000Z</time>
      </trkpt>
      <trkpt lat="45.69324" lon="3.05606">
        <ele>623</ele>
        <time>2019-06-23T06:43:51.000Z</time>
      </trkpt>
      <trkpt lat="45.69321" lon="3.05603">
        <ele>622</ele>
        <time>2019-06-23T06:43:52.000Z</time>
      </trkpt>
      <trkpt lat="45.69318" lon="3.05602">
        <ele>622</ele>
        <time>2019-06-23T06:43:53.000Z</time>
      </trkpt>
      <trkpt lat="45.69316" lon="3.05601">
        <ele>623</ele>
        <time>2019-06-23T06:43:54.000Z</time>
      </trkpt>
      <trkpt lat="45.69313" lon="3.056">
        <ele>623</ele>
        <time>2019-06-23T06:43:55.000Z</time>
      </trkpt>
      <trkpt lat="45.69311" lon="3.05599">
        <ele>623</ele>
        <time>2019-06-23T06:43:56.000Z</time>
      </trkpt>
      <trkpt lat="45.6931" lon="3.05598">
        <ele>623</ele>
        <time>2019-06-23T06:43:57.000Z</time>
      </trkpt>
      <trkpt lat="45.69308" lon="3.05595">
        <ele>623</ele>
        <time>2019-06-23T06:43:58.000Z</time>
      </trkpt>
      <trkpt lat="45.69307" lon="3.05593">
        <ele>624</ele>
        <time>2019-06-23T06:43:59.000Z</time>
      </trkpt>
      <trkpt lat="45.69306" lon="3.05592">
        <ele>624</ele>
        <time>2019-06-23T06:44:00.000Z</time>
      </trkpt>
      <trkpt lat="45.69304" lon="3.0559">
        <ele>624</ele>
        <time>2019-06-23T06:44:01.000Z</time>
      </trkpt>
      <trkpt lat="45.69303" lon="3.05589">
        <ele>624</ele>
        <time>2019-06-23T06:44:02.000Z</time>
      </trkpt>
      <trkpt lat="45.69301" lon="3.05587">
        <ele>625</ele>
        <time>2019-06-23T06:44:03.000Z</time>
      </trkpt>
      <trkpt lat="45.693" lon="3.05585">
        <ele>626</ele>
        <time>2019-06-23T06:44:04.000Z</time>
      </trkpt>
      <trkpt lat="45.69298" lon="3.05582">
        <ele>627</ele>
        <time>2019-06-23T06:44:05.000Z</time>
      </trkpt>
      <trkpt lat="45.69296" lon="3.05579">
        <ele>627</ele>
        <time>2019-06-23T06:44:06.000Z</time>
      </trkpt>
      <trkpt lat="45.69293" lon="3.05576">
        <ele>627</ele>
        <time>2019-06-23T06:44:07.000Z</time>
      </trkpt>
      <trkpt lat="45.69291" lon="3.05574">
        <ele>628</ele>
        <time>2019-06-23T06:44:08.000Z</time>
      </trkpt>
      <trkpt lat="45.69289" lon="3.05571">
        <ele>628</ele>
        <time>2019-06-23T06:44:09.000Z</time>
      </trkpt>
      <trkpt lat="45.69288" lon="3.05568">
        <ele>629</ele>
        <time>2019-06-23T06:44:10.000Z</time>
      </trkpt>
      <trkpt lat="45.69286" lon="3.05565">
        <ele>630</ele>
        <time>2019-06-23T06:44:11.000Z</time>
      </trkpt>
      <trkpt lat="45.69284" lon="3.05562">
        <ele>630</ele>
        <time>2019-06-23T06:44:12.000Z</time>
      </trkpt>
      <trkpt lat="45.69282" lon="3.05559">
        <ele>630</ele>
        <time>2019-06-23T06:44:13.000Z</time>
      </trkpt>
      <trkpt lat="45.69281" lon="3.05557">
        <ele>630</ele>
        <time>2019-06-23T06:44:14.000Z</time>
      </trkpt>
      <trkpt lat="45.69278" lon="3.05555">
        <ele>631</ele>
        <time>2019-06-23T06:44:15.000Z</time>
      </trkpt>
      <trkpt lat="45.69277" lon="3.05552">
        <ele>632</ele>
        <time>2019-06-23T06:44:16.000Z</time>
      </trkpt>
      <trkpt lat="45.69276" lon="3.0555">
        <ele>632</ele>
        <time>2019-06-23T06:44:17.000Z</time>
      </trkpt>
      <trkpt lat="45.69274" lon="3.05548">
        <ele>633</ele>
        <time>2019-06-23T06:44:18.000Z</time>
      </trkpt>
      <trkpt lat="45.69272" lon="3.05545">
        <ele>633</ele>
        <time>2019-06-23T06:44:19.000Z</time>
      </trkpt>
      <trkpt lat="45.6927" lon="3.05542">
        <ele>633</ele>
        <time>2019-06-23T06:44:20.000Z</time>
      </trkpt>
      <trkpt lat="45.69268" lon="3.05539">
        <ele>634</ele>
        <time>2019-06-23T06:44:21.000Z</time>
      </trkpt>
      <trkpt lat="45.69266" lon="3.05536">
        <ele>634</ele>
        <time>2019-06-23T06:44:22.000Z</time>
      </trkpt>
      <trkpt lat="45.69265" lon="3.05534">
        <ele>634</ele>
        <time>2019-06-23T06:44:23.000Z</time>
      </trkpt>
      <trkpt lat="45.69263" lon="3.05531">
        <ele>635</ele>
        <time>2019-06-23T06:44:24.000Z</time>
      </trkpt>
      <trkpt lat="45.69261" lon="3.05529">
        <ele>636</ele>
        <time>2019-06-23T06:44:25.000Z</time>
      </trkpt>
      <trkpt lat="45.69259" lon="3.05527">
        <ele>636</ele>
        <time>2019-06-23T06:44:26.000Z</time>
      </trkpt>
      <trkpt lat="45.69257" lon="3.05524">
        <ele>636</ele>
        <time>2019-06-23T06:44:27.000Z</time>
      </trkpt>
      <trkpt lat="45.69256" lon="3.05521">
        <ele>637</ele>
        <time>2019-06-23T06:44:28.000Z</time>
      </trkpt>
      <trkpt lat="45.69255" lon="3.05518">
        <ele>637</ele>
        <time>2019-06-23T06:44:29.000Z</time>
      </trkpt>
      <trkpt lat="45.69253" lon="3.05515">
        <ele>638</ele>
        <time>2019-06-23T06:44:30.000Z</time>
      </trkpt>
      <trkpt lat="45.69251" lon="3.05513">
        <ele>638</ele>
        <time>2019-06-23T06:44:31.000Z</time>
      </trkpt>
      <trkpt lat="45.69249" lon="3.0551">
        <ele>639</ele>
        <time>2019-06-23T06:44:32.000Z</time>
      </trkpt>
      <trkpt lat="45.69248" lon="3.05508">
        <ele>639</ele>
        <time>2019-06-23T06:44:33.000Z</time>
      </trkpt>
      <trkpt lat="45.69246" lon="3.05506">
        <ele>639</ele>
        <time>2019-06-23T06:44:34.000Z</time>
      </trkpt>
      <trkpt lat="45.69245" lon="3.05503">
        <ele>641</ele>
        <time>2019-06-23T06:44:35.000Z</time>
      </trkpt>
      <trkpt lat="45.69244" lon="3.05501">
        <ele>641</ele>
        <time>2019-06-23T06:44:36.000Z</time>
      </trkpt>
      <trkpt lat="45.69242" lon="3.05499">
        <ele>641</ele>
        <time>2019-06-23T06:44:37.000Z</time>
      </trkpt>
      <trkpt lat="45.69241" lon="3.05497">
        <ele>642</ele>
        <time>2019-06-23T06:44:38.000Z</time>
      </trkpt>
      <trkpt lat="45.69239" lon="3.05495">
        <ele>641</ele>
        <time>2019-06-23T06:44:39.000Z</time>
      </trkpt>
      <trkpt lat="45.69237" lon="3.05492">
        <ele>641</ele>
        <time>2019-06-23T06:44:40.000Z</time>
      </trkpt>
      <trkpt lat="45.69235" lon="3.0549">
        <ele>641</ele>
        <time>2019-06-23T06:44:41.000Z</time>
      </trkpt>
      <trkpt lat="45.69233" lon="3.05488">
        <ele>641</ele>
        <time>2019-06-23T06:44:42.000Z</time>
      </trkpt>
      <trkpt lat="45.69231" lon="3.05486">
        <ele>641</ele>
        <time>2019-06-23T06:44:43.000Z</time>
      </trkpt>
      <trkpt lat="45.6923" lon="3.05485">
        <ele>641</ele>
        <time>2019-06-23T06:44:44.000Z</time>
      </trkpt>
      <trkpt lat="45.69229" lon="3.05482">
        <ele>641</ele>
        <time>2019-06-23T06:44:45.000Z</time>
      </trkpt>
      <trkpt lat="45.69227" lon="3.0548">
        <ele>642</ele>
        <time>2019-06-23T06:44:46.000Z</time>
      </trkpt>
      <trkpt lat="45.69225" lon="3.05478">
        <ele>642</ele>
        <time>2019-06-23T06:44:47.000Z</time>
      </trkpt>
      <trkpt lat="45.69223" lon="3.05476">
        <ele>641</ele>
        <time>2019-06-23T06:44:48.000Z</time>
      </trkpt>
      <trkpt lat="45.6922" lon="3.05473">
        <ele>642</ele>
        <time>2019-06-23T06:44:49.000Z</time>
      </trkpt>
      <trkpt lat="45.69218" lon="3.05471">
        <ele>642</ele>
        <time>2019-06-23T06:44:50.000Z</time>
      </trkpt>
      <trkpt lat="45.69216" lon="3.05468">
        <ele>642</ele>
        <time>2019-06-23T06:44:51.000Z</time>
      </trkpt>
      <trkpt lat="45.69214" lon="3.05465">
        <ele>643</ele>
        <time>2019-06-23T06:44:52.000Z</time>
      </trkpt>
      <trkpt lat="45.69211" lon="3.05463">
        <ele>643</ele>
        <time>2019-06-23T06:44:53.000Z</time>
      </trkpt>
      <trkpt lat="45.69209" lon="3.0546">
        <ele>643</ele>
        <time>2019-06-23T06:44:54.000Z</time>
      </trkpt>
      <trkpt lat="45.69207" lon="3.05458">
        <ele>643</ele>
        <time>2019-06-23T06:44:55.000Z</time>
      </trkpt>
      <trkpt lat="45.69205" lon="3.05455">
        <ele>643</ele>
        <time>2019-06-23T06:44:56.000Z</time>
      </trkpt>
      <trkpt lat="45.69203" lon="3.05453">
        <ele>643</ele>
        <time>2019-06-23T06:44:57.000Z</time>
      </trkpt>
      <trkpt lat="45.692" lon="3.05451">
        <ele>642</ele>
        <time>2019-06-23T06:44:58.000Z</time>
      </trkpt>
      <trkpt lat="45.69198" lon="3.05447">
        <ele>643</ele>
        <time>2019-06-23T06:44:59.000Z</time>
      </trkpt>
      <trkpt lat="45.69195" lon="3.05444">
        <ele>643</ele>
        <time>2019-06-23T06:45:00.000Z</time>
      </trkpt>
      <trkpt lat="45.69194" lon="3.05441">
        <ele>643</ele>
        <time>2019-06-23T06:45:01.000Z</time>
      </trkpt>
      <trkpt lat="45.69192" lon="3.05438">
        <ele>643</ele>
        <time>2019-06-23T06:45:02.000Z</time>
      </trkpt>
      <trkpt lat="45.6919" lon="3.05436">
        <ele>644</ele>
        <time>2019-06-23T06:45:03.000Z</time>
      </trkpt>
      <trkpt lat="45.69187" lon="3.05433">
        <ele>644</ele>
        <time>2019-06-23T06:45:04.000Z</time>
      </trkpt>
      <trkpt lat="45.69185" lon="3.05429">
        <ele>644</ele>
        <time>2019-06-23T06:45:05.000Z</time>
      </trkpt>
      <trkpt lat="45.69183" lon="3.05427">
        <ele>645</ele>
        <time>2019-06-23T06:45:06.000Z</time>
      </trkpt>
      <trkpt lat="45.69181" lon="3.05424">
        <ele>645</ele>
        <time>2019-06-23T06:45:07.000Z</time>
      </trkpt>
      <trkpt lat="45.69178" lon="3.05422">
        <ele>646</ele>
        <time>2019-06-23T06:45:08.000Z</time>
      </trkpt>
      <trkpt lat="45.69176" lon="3.0542">
        <ele>646</ele>
        <time>2019-06-23T06:45:09.000Z</time>
      </trkpt>
      <trkpt lat="45.69174" lon="3.05418">
        <ele>646</ele>
        <time>2019-06-23T06:45:10.000Z</time>
      </trkpt>
      <trkpt lat="45.69172" lon="3.05418">
        <ele>645</ele>
        <time>2019-06-23T06:45:11.000Z</time>
      </trkpt>
      <trkpt lat="45.69169" lon="3.05416">
        <ele>645</ele>
        <time>2019-06-23T06:45:12.000Z</time>
      </trkpt>
      <trkpt lat="45.69167" lon="3.05415">
        <ele>645</ele>
        <time>2019-06-23T06:45:13.000Z</time>
      </trkpt>
      <trkpt lat="45.69164" lon="3.05414">
        <ele>644</ele>
        <time>2019-06-23T06:45:14.000Z</time>
      </trkpt>
      <trkpt lat="45.69161" lon="3.05413">
        <ele>644</ele>
        <time>2019-06-23T06:45:15.000Z</time>
      </trkpt>
      <trkpt lat="45.69159" lon="3.05412">
        <ele>644</ele>
        <time>2019-06-23T06:45:16.000Z</time>
      </trkpt>
      <trkpt lat="45.69158" lon="3.05411">
        <ele>643</ele>
        <time>2019-06-23T06:45:17.000Z</time>
      </trkpt>
      <trkpt lat="45.69155" lon="3.05409">
        <ele>644</ele>
        <time>2019-06-23T06:45:18.000Z</time>
      </trkpt>
      <trkpt lat="45.69153" lon="3.05406">
        <ele>642</ele>
        <time>2019-06-23T06:45:19.000Z</time>
      </trkpt>
      <trkpt lat="45.69151" lon="3.05403">
        <ele>642</ele>
        <time>2019-06-23T06:45:20.000Z</time>
      </trkpt>
      <trkpt lat="45.69149" lon="3.05401">
        <ele>642</ele>
        <time>2019-06-23T06:45:21.000Z</time>
      </trkpt>
      <trkpt lat="45.69148" lon="3.05399">
        <ele>640</ele>
        <time>2019-06-23T06:45:22.000Z</time>
      </trkpt>
      <trkpt lat="45.69146" lon="3.05395">
        <ele>641</ele>
        <time>2019-06-23T06:45:23.000Z</time>
      </trkpt>
      <trkpt lat="45.69145" lon="3.05393">
        <ele>642</ele>
        <time>2019-06-23T06:45:24.000Z</time>
      </trkpt>
      <trkpt lat="45.69143" lon="3.05391">
        <ele>642</ele>
        <time>2019-06-23T06:45:25.000Z</time>
      </trkpt>
      <trkpt lat="45.69143" lon="3.05389">
        <ele>643</ele>
        <time>2019-06-23T06:45:26.000Z</time>
      </trkpt>
      <trkpt lat="45.69142" lon="3.05386">
        <ele>644</ele>
        <time>2019-06-23T06:45:27.000Z</time>
      </trkpt>
      <trkpt lat="45.69141" lon="3.05383">
        <ele>645</ele>
        <time>2019-06-23T06:45:28.000Z</time>
      </trkpt>
      <trkpt lat="45.6914" lon="3.0538">
        <ele>647</ele>
        <time>2019-06-23T06:45:29.000Z</time>
      </trkpt>
      <trkpt lat="45.69138" lon="3.05378">
        <ele>647</ele>
        <time>2019-06-23T06:45:30.000Z</time>
      </trkpt>
      <trkpt lat="45.69137" lon="3.05375">
        <ele>647</ele>
        <time>2019-06-23T06:45:31.000Z</time>
      </trkpt>
      <trkpt lat="45.69135" lon="3.05373">
        <ele>648</ele>
        <time>2019-06-23T06:45:32.000Z</time>
      </trkpt>
      <trkpt lat="45.69134" lon="3.0537">
        <ele>648</ele>
        <time>2019-06-23T06:45:33.000Z</time>
      </trkpt>
      <trkpt lat="45.69134" lon="3.05368">
        <ele>649</ele>
        <time>2019-06-23T06:45:34.000Z</time>
      </trkpt>
      <trkpt lat="45.69133" lon="3.05366">
        <ele>649</ele>
        <time>2019-06-23T06:45:35.000Z</time>
      </trkpt>
      <trkpt lat="45.69133" lon="3.05364">
        <ele>649</ele>
        <time>2019-06-23T06:45:36.000Z</time>
      </trkpt>
      <trkpt lat="45.69132" lon="3.05362">
        <ele>649</ele>
        <time>2019-06-23T06:45:37.000Z</time>
      </trkpt>
      <trkpt lat="45.69131" lon="3.0536">
        <ele>650</ele>
        <time>2019-06-23T06:45:38.000Z</time>
      </trkpt>
      <trkpt lat="45.69131" lon="3.05358">
        <ele>650</ele>
        <time>2019-06-23T06:45:39.000Z</time>
      </trkpt>
      <trkpt lat="45.6913" lon="3.05356">
        <ele>650</ele>
        <time>2019-06-23T06:45:40.000Z</time>
      </trkpt>
      <trkpt lat="45.69129" lon="3.05354">
        <ele>651</ele>
        <time>2019-06-23T06:45:41.000Z</time>
      </trkpt>
      <trkpt lat="45.69128" lon="3.05352">
        <ele>651</ele>
        <time>2019-06-23T06:45:42.000Z</time>
      </trkpt>
      <trkpt lat="45.69127" lon="3.05348">
        <ele>652</ele>
        <time>2019-06-23T06:45:43.000Z</time>
      </trkpt>
      <trkpt lat="45.69125" lon="3.05345">
        <ele>652</ele>
        <time>2019-06-23T06:45:44.000Z</time>
      </trkpt>
      <trkpt lat="45.69124" lon="3.05342">
        <ele>652</ele>
        <time>2019-06-23T06:45:45.000Z</time>
      </trkpt>
      <trkpt lat="45.69123" lon="3.0534">
        <ele>653</ele>
        <time>2019-06-23T06:45:46.000Z</time>
      </trkpt>
      <trkpt lat="45.69122" lon="3.05338">
        <ele>654</ele>
        <time>2019-06-23T06:45:47.000Z</time>
      </trkpt>
      <trkpt lat="45.69121" lon="3.05337">
        <ele>654</ele>
        <time>2019-06-23T06:45:48.000Z</time>
      </trkpt>
      <trkpt lat="45.6912" lon="3.05335">
        <ele>655</ele>
        <time>2019-06-23T06:45:49.000Z</time>
      </trkpt>
      <trkpt lat="45.69119" lon="3.05332">
        <ele>655</ele>
        <time>2019-06-23T06:45:50.000Z</time>
      </trkpt>
      <trkpt lat="45.69118" lon="3.0533">
        <ele>656</ele>
        <time>2019-06-23T06:45:51.000Z</time>
      </trkpt>
      <trkpt lat="45.69117" lon="3.05328">
        <ele>656</ele>
        <time>2019-06-23T06:45:52.000Z</time>
      </trkpt>
      <trkpt lat="45.69116" lon="3.05326">
        <ele>656</ele>
        <time>2019-06-23T06:45:53.000Z</time>
      </trkpt>
      <trkpt lat="45.69114" lon="3.05324">
        <ele>658</ele>
        <time>2019-06-23T06:45:54.000Z</time>
      </trkpt>
      <trkpt lat="45.69112" lon="3.05321">
        <ele>658</ele>
        <time>2019-06-23T06:45:55.000Z</time>
      </trkpt>
      <trkpt lat="45.69111" lon="3.05319">
        <ele>658</ele>
        <time>2019-06-23T06:45:56.000Z</time>
      </trkpt>
      <trkpt lat="45.6911" lon="3.05316">
        <ele>658</ele>
        <time>2019-06-23T06:45:57.000Z</time>
      </trkpt>
      <trkpt lat="45.69109" lon="3.05314">
        <ele>659</ele>
        <time>2019-06-23T06:45:58.000Z</time>
      </trkpt>
      <trkpt lat="45.69107" lon="3.05312">
        <ele>658</ele>
        <time>2019-06-23T06:45:59.000Z</time>
      </trkpt>
      <trkpt lat="45.69106" lon="3.0531">
        <ele>659</ele>
        <time>2019-06-23T06:46:00.000Z</time>
      </trkpt>
      <trkpt lat="45.69104" lon="3.05309">
        <ele>660</ele>
        <time>2019-06-23T06:46:01.000Z</time>
      </trkpt>
      <trkpt lat="45.69103" lon="3.05308">
        <ele>660</ele>
        <time>2019-06-23T06:46:02.000Z</time>
      </trkpt>
      <trkpt lat="45.69101" lon="3.05307">
        <ele>661</ele>
        <time>2019-06-23T06:46:03.000Z</time>
      </trkpt>
      <trkpt lat="45.691" lon="3.05306">
        <ele>661</ele>
        <time>2019-06-23T06:46:04.000Z</time>
      </trkpt>
      <trkpt lat="45.69099" lon="3.05305">
        <ele>662</ele>
        <time>2019-06-23T06:46:05.000Z</time>
      </trkpt>
      <trkpt lat="45.69097" lon="3.05304">
        <ele>662</ele>
        <time>2019-06-23T06:46:06.000Z</time>
      </trkpt>
      <trkpt lat="45.69096" lon="3.05303">
        <ele>662</ele>
        <time>2019-06-23T06:46:07.000Z</time>
      </trkpt>
      <trkpt lat="45.69094" lon="3.05302">
        <ele>662</ele>
        <time>2019-06-23T06:46:08.000Z</time>
      </trkpt>
      <trkpt lat="45.69093" lon="3.05301">
        <ele>663</ele>
        <time>2019-06-23T06:46:09.000Z</time>
      </trkpt>
      <trkpt lat="45.69091" lon="3.053">
        <ele>663</ele>
        <time>2019-06-23T06:46:10.000Z</time>
      </trkpt>
      <trkpt lat="45.69089" lon="3.05299">
        <ele>663</ele>
        <time>2019-06-23T06:46:11.000Z</time>
      </trkpt>
      <trkpt lat="45.69088" lon="3.05299">
        <ele>663</ele>
        <time>2019-06-23T06:46:12.000Z</time>
      </trkpt>
      <trkpt lat="45.69086" lon="3.05298">
        <ele>664</ele>
        <time>2019-06-23T06:46:13.000Z</time>
      </trkpt>
      <trkpt lat="45.69084" lon="3.05297">
        <ele>664</ele>
        <time>2019-06-23T06:46:14.000Z</time>
      </trkpt>
      <trkpt lat="45.69082" lon="3.05297">
        <ele>663</ele>
        <time>2019-06-23T06:46:15.000Z</time>
      </trkpt>
      <trkpt lat="45.69081" lon="3.05296">
        <ele>663</ele>
        <time>2019-06-23T06:46:16.000Z</time>
      </trkpt>
      <trkpt lat="45.69079" lon="3.05295">
        <ele>664</ele>
        <time>2019-06-23T06:46:17.000Z</time>
      </trkpt>
      <trkpt lat="45.69078" lon="3.05295">
        <ele>664</ele>
        <time>2019-06-23T06:46:18.000Z</time>
      </trkpt>
      <trkpt lat="45.69076" lon="3.05294">
        <ele>665</ele>
        <time>2019-06-23T06:46:19.000Z</time>
      </trkpt>
      <trkpt lat="45.69074" lon="3.05294">
        <ele>665</ele>
        <time>2019-06-23T06:46:20.000Z</time>
      </trkpt>
      <trkpt lat="45.69073" lon="3.05293">
        <ele>665</ele>
        <time>2019-06-23T06:46:21.000Z</time>
      </trkpt>
      <trkpt lat="45.69071" lon="3.05292">
        <ele>666</ele>
        <time>2019-06-23T06:46:22.000Z</time>
      </trkpt>
      <trkpt lat="45.69069" lon="3.05291">
        <ele>666</ele>
        <time>2019-06-23T06:46:23.000Z</time>
      </trkpt>
      <trkpt lat="45.69068" lon="3.0529">
        <ele>666</ele>
        <time>2019-06-23T06:46:24.000Z</time>
      </trkpt>
      <trkpt lat="45.69066" lon="3.05289">
        <ele>667</ele>
        <time>2019-06-23T06:46:25.000Z</time>
      </trkpt>
      <trkpt lat="45.69065" lon="3.05288">
        <ele>667</ele>
        <time>2019-06-23T06:46:26.000Z</time>
      </trkpt>
      <trkpt lat="45.69064" lon="3.05287">
        <ele>667</ele>
        <time>2019-06-23T06:46:27.000Z</time>
      </trkpt>
      <trkpt lat="45.69062" lon="3.05286">
        <ele>667</ele>
        <time>2019-06-23T06:46:28.000Z</time>
      </trkpt>
      <trkpt lat="45.6906" lon="3.05284">
        <ele>667</ele>
        <time>2019-06-23T06:46:29.000Z</time>
      </trkpt>
      <trkpt lat="45.69059" lon="3.05283">
        <ele>668</ele>
        <time>2019-06-23T06:46:30.000Z</time>
      </trkpt>
      <trkpt lat="45.69057" lon="3.05282">
        <ele>668</ele>
        <time>2019-06-23T06:46:31.000Z</time>
      </trkpt>
      <trkpt lat="45.69055" lon="3.05281">
        <ele>669</ele>
        <time>2019-06-23T06:46:32.000Z</time>
      </trkpt>
      <trkpt lat="45.69054" lon="3.05279">
        <ele>669</ele>
        <time>2019-06-23T06:46:33.000Z</time>
      </trkpt>
      <trkpt lat="45.69053" lon="3.05277">
        <ele>670</ele>
        <time>2019-06-23T06:46:34.000Z</time>
      </trkpt>
      <trkpt lat="45.69051" lon="3.05276">
        <ele>670</ele>
        <time>2019-06-23T06:46:35.000Z</time>
      </trkpt>
      <trkpt lat="45.6905" lon="3.05275">
        <ele>670</ele>
        <time>2019-06-23T06:46:36.000Z</time>
      </trkpt>
      <trkpt lat="45.69048" lon="3.05274">
        <ele>669</ele>
        <time>2019-06-23T06:46:37.000Z</time>
      </trkpt>
      <trkpt lat="45.69047" lon="3.05273">
        <ele>669</ele>
        <time>2019-06-23T06:46:38.000Z</time>
      </trkpt>
      <trkpt lat="45.69046" lon="3.05272">
        <ele>669</ele>
        <time>2019-06-23T06:46:39.000Z</time>
      </trkpt>
      <trkpt lat="45.69044" lon="3.05269">
        <ele>669</ele>
        <time>2019-06-23T06:46:40.000Z</time>
      </trkpt>
      <trkpt lat="45.69042" lon="3.05267">
        <ele>669</ele>
        <time>2019-06-23T06:46:41.000Z</time>
      </trkpt>
      <trkpt lat="45.69041" lon="3.05265">
        <ele>669</ele>
        <time>2019-06-23T06:46:42.000Z</time>
      </trkpt>
      <trkpt lat="45.69039" lon="3.05263">
        <ele>670</ele>
        <time>2019-06-23T06:46:43.000Z</time>
      </trkpt>
      <trkpt lat="45.69037" lon="3.05262">
        <ele>671</ele>
        <time>2019-06-23T06:46:44.000Z</time>
      </trkpt>
      <trkpt lat="45.69035" lon="3.0526">
        <ele>671</ele>
        <time>2019-06-23T06:46:45.000Z</time>
      </trkpt>
      <trkpt lat="45.69033" lon="3.05257">
        <ele>671</ele>
        <time>2019-06-23T06:46:46.000Z</time>
      </trkpt>
      <trkpt lat="45.69032" lon="3.05255">
        <ele>671</ele>
        <time>2019-06-23T06:46:47.000Z</time>
      </trkpt>
      <trkpt lat="45.6903" lon="3.05253">
        <ele>672</ele>
        <time>2019-06-23T06:46:48.000Z</time>
      </trkpt>
      <trkpt lat="45.69029" lon="3.05251">
        <ele>672</ele>
        <time>2019-06-23T06:46:49.000Z</time>
      </trkpt>
      <trkpt lat="45.69027" lon="3.0525">
        <ele>672</ele>
        <time>2019-06-23T06:46:50.000Z</time>
      </trkpt>
      <trkpt lat="45.69026" lon="3.05248">
        <ele>672</ele>
        <time>2019-06-23T06:46:51.000Z</time>
      </trkpt>
      <trkpt lat="45.69025" lon="3.05247">
        <ele>672</ele>
        <time>2019-06-23T06:46:52.000Z</time>
      </trkpt>
      <trkpt lat="45.69023" lon="3.05245">
        <ele>673</ele>
        <time>2019-06-23T06:46:53.000Z</time>
      </trkpt>
      <trkpt lat="45.69021" lon="3.05242">
        <ele>673</ele>
        <time>2019-06-23T06:46:54.000Z</time>
      </trkpt>
      <trkpt lat="45.6902" lon="3.0524">
        <ele>673</ele>
        <time>2019-06-23T06:46:55.000Z</time>
      </trkpt>
      <trkpt lat="45.69019" lon="3.05238">
        <ele>674</ele>
        <time>2019-06-23T06:46:56.000Z</time>
      </trkpt>
      <trkpt lat="45.69017" lon="3.05236">
        <ele>674</ele>
        <time>2019-06-23T06:46:57.000Z</time>
      </trkpt>
      <trkpt lat="45.69016" lon="3.05234">
        <ele>675</ele>
        <time>2019-06-23T06:46:58.000Z</time>
      </trkpt>
      <trkpt lat="45.69015" lon="3.05232">
        <ele>675</ele>
        <time>2019-06-23T06:46:59.000Z</time>
      </trkpt>
      <trkpt lat="45.69014" lon="3.0523">
        <ele>675</ele>
        <time>2019-06-23T06:47:00.000Z</time>
      </trkpt>
      <trkpt lat="45.69012" lon="3.05228">
        <ele>676</ele>
        <time>2019-06-23T06:47:01.000Z</time>
      </trkpt>
      <trkpt lat="45.69011" lon="3.05226">
        <ele>676</ele>
        <time>2019-06-23T06:47:02.000Z</time>
      </trkpt>
      <trkpt lat="45.69011" lon="3.05224">
        <ele>677</ele>
        <time>2019-06-23T06:47:03.000Z</time>
      </trkpt>
      <trkpt lat="45.6901" lon="3.05222">
        <ele>677</ele>
        <time>2019-06-23T06:47:04.000Z</time>
      </trkpt>
      <trkpt lat="45.69009" lon="3.0522">
        <ele>677</ele>
        <time>2019-06-23T06:47:05.000Z</time>
      </trkpt>
      <trkpt lat="45.69008" lon="3.05215">
        <ele>677</ele>
        <time>2019-06-23T06:47:06.000Z</time>
      </trkpt>
      <trkpt lat="45.69006" lon="3.05211">
        <ele>676</ele>
        <time>2019-06-23T06:47:07.000Z</time>
      </trkpt>
      <trkpt lat="45.69006" lon="3.05209">
        <ele>676</ele>
        <time>2019-06-23T06:47:08.000Z</time>
      </trkpt>
      <trkpt lat="45.69005" lon="3.05206">
        <ele>677</ele>
        <time>2019-06-23T06:47:09.000Z</time>
      </trkpt>
      <trkpt lat="45.69005" lon="3.05204">
        <ele>676</ele>
        <time>2019-06-23T06:47:10.000Z</time>
      </trkpt>
      <trkpt lat="45.69005" lon="3.05202">
        <ele>677</ele>
        <time>2019-06-23T06:47:11.000Z</time>
      </trkpt>
      <trkpt lat="45.69005" lon="3.05199">
        <ele>677</ele>
        <time>2019-06-23T06:47:12.000Z</time>
      </trkpt>
      <trkpt lat="45.69003" lon="3.05195">
        <ele>676</ele>
        <time>2019-06-23T06:47:13.000Z</time>
      </trkpt>
      <trkpt lat="45.69002" lon="3.05192">
        <ele>677</ele>
        <time>2019-06-23T06:47:14.000Z</time>
      </trkpt>
      <trkpt lat="45.69001" lon="3.05189">
        <ele>677</ele>
        <time>2019-06-23T06:47:15.000Z</time>
      </trkpt>
      <trkpt lat="45.69001" lon="3.05186">
        <ele>677</ele>
        <time>2019-06-23T06:47:16.000Z</time>
      </trkpt>
      <trkpt lat="45.69001" lon="3.05183">
        <ele>677</ele>
        <time>2019-06-23T06:47:17.000Z</time>
      </trkpt>
      <trkpt lat="45.69" lon="3.05181">
        <ele>677</ele>
        <time>2019-06-23T06:47:18.000Z</time>
      </trkpt>
      <trkpt lat="45.68998" lon="3.0518">
        <ele>677</ele>
        <time>2019-06-23T06:47:19.000Z</time>
      </trkpt>
      <trkpt lat="45.68997" lon="3.05179">
        <ele>678</ele>
        <time>2019-06-23T06:47:20.000Z</time>
      </trkpt>
      <trkpt lat="45.68995" lon="3.05178">
        <ele>679</ele>
        <time>2019-06-23T06:47:21.000Z</time>
      </trkpt>
      <trkpt lat="45.68994" lon="3.05178">
        <ele>679</ele>
        <time>2019-06-23T06:47:22.000Z</time>
      </trkpt>
      <trkpt lat="45.68992" lon="3.05177">
        <ele>681</ele>
        <time>2019-06-23T06:47:23.000Z</time>
      </trkpt>
      <trkpt lat="45.68989" lon="3.05175">
        <ele>683</ele>
        <time>2019-06-23T06:47:24.000Z</time>
      </trkpt>
      <trkpt lat="45.68987" lon="3.05175">
        <ele>685</ele>
        <time>2019-06-23T06:47:25.000Z</time>
      </trkpt>
      <trkpt lat="45.68985" lon="3.05175">
        <ele>685</ele>
        <time>2019-06-23T06:47:26.000Z</time>
      </trkpt>
      <trkpt lat="45.68983" lon="3.05176">
        <ele>686</ele>
        <time>2019-06-23T06:47:27.000Z</time>
      </trkpt>
      <trkpt lat="45.68981" lon="3.05177">
        <ele>686</ele>
        <time>2019-06-23T06:47:28.000Z</time>
      </trkpt>
      <trkpt lat="45.6898" lon="3.0518">
        <ele>687</ele>
        <time>2019-06-23T06:47:29.000Z</time>
      </trkpt>
      <trkpt lat="45.68978" lon="3.05182">
        <ele>687</ele>
        <time>2019-06-23T06:47:30.000Z</time>
      </trkpt>
      <trkpt lat="45.68977" lon="3.05183">
        <ele>687</ele>
        <time>2019-06-23T06:47:31.000Z</time>
      </trkpt>
      <trkpt lat="45.68976" lon="3.05185">
        <ele>688</ele>
        <time>2019-06-23T06:47:32.000Z</time>
      </trkpt>
      <trkpt lat="45.68975" lon="3.05187">
        <ele>688</ele>
        <time>2019-06-23T06:47:33.000Z</time>
      </trkpt>
      <trkpt lat="45.68974" lon="3.05189">
        <ele>690</ele>
        <time>2019-06-23T06:47:34.000Z</time>
      </trkpt>
      <trkpt lat="45.68973" lon="3.05191">
        <ele>690</ele>
        <time>2019-06-23T06:47:35.000Z</time>
      </trkpt>
      <trkpt lat="45.68971" lon="3.05193">
        <ele>691</ele>
        <time>2019-06-23T06:47:36.000Z</time>
      </trkpt>
      <trkpt lat="45.6897" lon="3.05195">
        <ele>692</ele>
        <time>2019-06-23T06:47:37.000Z</time>
      </trkpt>
      <trkpt lat="45.68969" lon="3.05198">
        <ele>693</ele>
        <time>2019-06-23T06:47:38.000Z</time>
      </trkpt>
      <trkpt lat="45.68967" lon="3.05201">
        <ele>693</ele>
        <time>2019-06-23T06:47:39.000Z</time>
      </trkpt>
      <trkpt lat="45.68966" lon="3.05203">
        <ele>694</ele>
        <time>2019-06-23T06:47:40.000Z</time>
      </trkpt>
      <trkpt lat="45.68965" lon="3.05206">
        <ele>694</ele>
        <time>2019-06-23T06:47:41.000Z</time>
      </trkpt>
      <trkpt lat="45.68964" lon="3.05208">
        <ele>695</ele>
        <time>2019-06-23T06:47:42.000Z</time>
      </trkpt>
      <trkpt lat="45.68963" lon="3.0521">
        <ele>695</ele>
        <time>2019-06-23T06:47:43.000Z</time>
      </trkpt>
      <trkpt lat="45.68962" lon="3.05213">
        <ele>695</ele>
        <time>2019-06-23T06:47:44.000Z</time>
      </trkpt>
      <trkpt lat="45.6896" lon="3.05214">
        <ele>695</ele>
        <time>2019-06-23T06:47:45.000Z</time>
      </trkpt>
      <trkpt lat="45.68959" lon="3.05216">
        <ele>696</ele>
        <time>2019-06-23T06:47:46.000Z</time>
      </trkpt>
      <trkpt lat="45.68958" lon="3.05218">
        <ele>697</ele>
        <time>2019-06-23T06:47:47.000Z</time>
      </trkpt>
      <trkpt lat="45.68957" lon="3.0522">
        <ele>697</ele>
        <time>2019-06-23T06:47:48.000Z</time>
      </trkpt>
      <trkpt lat="45.68956" lon="3.05222">
        <ele>697</ele>
        <time>2019-06-23T06:47:49.000Z</time>
      </trkpt>
      <trkpt lat="45.68954" lon="3.05224">
        <ele>696</ele>
        <time>2019-06-23T06:47:50.000Z</time>
      </trkpt>
      <trkpt lat="45.68953" lon="3.05227">
        <ele>695</ele>
        <time>2019-06-23T06:47:51.000Z</time>
      </trkpt>
      <trkpt lat="45.68951" lon="3.05229">
        <ele>695</ele>
        <time>2019-06-23T06:47:52.000Z</time>
      </trkpt>
      <trkpt lat="45.68949" lon="3.05231">
        <ele>695</ele>
        <time>2019-06-23T06:47:53.000Z</time>
      </trkpt>
      <trkpt lat="45.68948" lon="3.05234">
        <ele>695</ele>
        <time>2019-06-23T06:47:54.000Z</time>
      </trkpt>
      <trkpt lat="45.68946" lon="3.05236">
        <ele>694</ele>
        <time>2019-06-23T06:47:55.000Z</time>
      </trkpt>
      <trkpt lat="45.68946" lon="3.05238">
        <ele>694</ele>
        <time>2019-06-23T06:47:56.000Z</time>
      </trkpt>
      <trkpt lat="45.68944" lon="3.0524">
        <ele>695</ele>
        <time>2019-06-23T06:47:57.000Z</time>
      </trkpt>
      <trkpt lat="45.68943" lon="3.05243">
        <ele>695</ele>
        <time>2019-06-23T06:47:58.000Z</time>
      </trkpt>
      <trkpt lat="45.68941" lon="3.05245">
        <ele>695</ele>
        <time>2019-06-23T06:47:59.000Z</time>
      </trkpt>
      <trkpt lat="45.6894" lon="3.05247">
        <ele>695</ele>
        <time>2019-06-23T06:48:00.000Z</time>
      </trkpt>
      <trkpt lat="45.68939" lon="3.0525">
        <ele>694</ele>
        <time>2019-06-23T06:48:01.000Z</time>
      </trkpt>
      <trkpt lat="45.68938" lon="3.05252">
        <ele>695</ele>
        <time>2019-06-23T06:48:02.000Z</time>
      </trkpt>
      <trkpt lat="45.68937" lon="3.05255">
        <ele>695</ele>
        <time>2019-06-23T06:48:03.000Z</time>
      </trkpt>
      <trkpt lat="45.68936" lon="3.05257">
        <ele>695</ele>
        <time>2019-06-23T06:48:04.000Z</time>
      </trkpt>
      <trkpt lat="45.68935" lon="3.0526">
        <ele>695</ele>
        <time>2019-06-23T06:48:05.000Z</time>
      </trkpt>
      <trkpt lat="45.68934" lon="3.05263">
        <ele>696</ele>
        <time>2019-06-23T06:48:06.000Z</time>
      </trkpt>
      <trkpt lat="45.68933" lon="3.05265">
        <ele>696</ele>
        <time>2019-06-23T06:48:07.000Z</time>
      </trkpt>
      <trkpt lat="45.68933" lon="3.05267">
        <ele>696</ele>
        <time>2019-06-23T06:48:08.000Z</time>
      </trkpt>
      <trkpt lat="45.68932" lon="3.0527">
        <ele>696</ele>
        <time>2019-06-23T06:48:09.000Z</time>
      </trkpt>
      <trkpt lat="45.68931" lon="3.05272">
        <ele>697</ele>
        <time>2019-06-23T06:48:10.000Z</time>
      </trkpt>
      <trkpt lat="45.68931" lon="3.05275">
        <ele>697</ele>
        <time>2019-06-23T06:48:11.000Z</time>
      </trkpt>
      <trkpt lat="45.6893" lon="3.05277">
        <ele>696</ele>
        <time>2019-06-23T06:48:12.000Z</time>
      </trkpt>
      <trkpt lat="45.68929" lon="3.05279">
        <ele>696</ele>
        <time>2019-06-23T06:48:13.000Z</time>
      </trkpt>
      <trkpt lat="45.68928" lon="3.0528">
        <ele>697</ele>
        <time>2019-06-23T06:48:14.000Z</time>
      </trkpt>
      <trkpt lat="45.68928" lon="3.05283">
        <ele>697</ele>
        <time>2019-06-23T06:48:15.000Z</time>
      </trkpt>
      <trkpt lat="45.68928" lon="3.05286">
        <ele>697</ele>
        <time>2019-06-23T06:48:16.000Z</time>
      </trkpt>
      <trkpt lat="45.68927" lon="3.05289">
        <ele>696</ele>
        <time>2019-06-23T06:48:17.000Z</time>
      </trkpt>
      <trkpt lat="45.68927" lon="3.05292">
        <ele>695</ele>
        <time>2019-06-23T06:48:18.000Z</time>
      </trkpt>
      <trkpt lat="45.68926" lon="3.05294">
        <ele>694</ele>
        <time>2019-06-23T06:48:19.000Z</time>
      </trkpt>
      <trkpt lat="45.68925" lon="3.05297">
        <ele>694</ele>
        <time>2019-06-23T06:48:20.000Z</time>
      </trkpt>
      <trkpt lat="45.68924" lon="3.05299">
        <ele>695</ele>
        <time>2019-06-23T06:48:21.000Z</time>
      </trkpt>
      <trkpt lat="45.68923" lon="3.05301">
        <ele>695</ele>
        <time>2019-06-23T06:48:22.000Z</time>
      </trkpt>
      <trkpt lat="45.68923" lon="3.05304">
        <ele>695</ele>
        <time>2019-06-23T06:48:23.000Z</time>
      </trkpt>
      <trkpt lat="45.68922" lon="3.05307">
        <ele>695</ele>
        <time>2019-06-23T06:48:24.000Z</time>
      </trkpt>
      <trkpt lat="45.68921" lon="3.05309">
        <ele>696</ele>
        <time>2019-06-23T06:48:25.000Z</time>
      </trkpt>
      <trkpt lat="45.68921" lon="3.05311">
        <ele>696</ele>
        <time>2019-06-23T06:48:26.000Z</time>
      </trkpt>
      <trkpt lat="45.6892" lon="3.05313">
        <ele>696</ele>
        <time>2019-06-23T06:48:27.000Z</time>
      </trkpt>
      <trkpt lat="45.6892" lon="3.05315">
        <ele>695</ele>
        <time>2019-06-23T06:48:28.000Z</time>
      </trkpt>
      <trkpt lat="45.68919" lon="3.05317">
        <ele>696</ele>
        <time>2019-06-23T06:48:29.000Z</time>
      </trkpt>
      <trkpt lat="45.68917" lon="3.05317">
        <ele>696</ele>
        <time>2019-06-23T06:48:30.000Z</time>
      </trkpt>
      <trkpt lat="45.68915" lon="3.05318">
        <ele>698</ele>
        <time>2019-06-23T06:48:31.000Z</time>
      </trkpt>
      <trkpt lat="45.68913" lon="3.0532">
        <ele>697</ele>
        <time>2019-06-23T06:48:32.000Z</time>
      </trkpt>
      <trkpt lat="45.68911" lon="3.05323">
        <ele>696</ele>
        <time>2019-06-23T06:48:33.000Z</time>
      </trkpt>
      <trkpt lat="45.6891" lon="3.05325">
        <ele>697</ele>
        <time>2019-06-23T06:48:34.000Z</time>
      </trkpt>
      <trkpt lat="45.68909" lon="3.05328">
        <ele>696</ele>
        <time>2019-06-23T06:48:35.000Z</time>
      </trkpt>
      <trkpt lat="45.68908" lon="3.0533">
        <ele>696</ele>
        <time>2019-06-23T06:48:36.000Z</time>
      </trkpt>
      <trkpt lat="45.68906" lon="3.05331">
        <ele>697</ele>
        <time>2019-06-23T06:48:37.000Z</time>
      </trkpt>
      <trkpt lat="45.68904" lon="3.05333">
        <ele>697</ele>
        <time>2019-06-23T06:48:38.000Z</time>
      </trkpt>
      <trkpt lat="45.68903" lon="3.05335">
        <ele>697</ele>
        <time>2019-06-23T06:48:39.000Z</time>
      </trkpt>
      <trkpt lat="45.68901" lon="3.05337">
        <ele>697</ele>
        <time>2019-06-23T06:48:40.000Z</time>
      </trkpt>
      <trkpt lat="45.689" lon="3.05339">
        <ele>697</ele>
        <time>2019-06-23T06:48:41.000Z</time>
      </trkpt>
      <trkpt lat="45.68899" lon="3.0534">
        <ele>698</ele>
        <time>2019-06-23T06:48:42.000Z</time>
      </trkpt>
      <trkpt lat="45.68897" lon="3.05342">
        <ele>699</ele>
        <time>2019-06-23T06:48:43.000Z</time>
      </trkpt>
      <trkpt lat="45.68896" lon="3.05344">
        <ele>700</ele>
        <time>2019-06-23T06:48:44.000Z</time>
      </trkpt>
      <trkpt lat="45.68895" lon="3.05346">
        <ele>701</ele>
        <time>2019-06-23T06:48:45.000Z</time>
      </trkpt>
      <trkpt lat="45.68894" lon="3.05347">
        <ele>701</ele>
        <time>2019-06-23T06:48:46.000Z</time>
      </trkpt>
      <trkpt lat="45.68893" lon="3.05349">
        <ele>701</ele>
        <time>2019-06-23T06:48:47.000Z</time>
      </trkpt>
      <trkpt lat="45.68892" lon="3.05351">
        <ele>701</ele>
        <time>2019-06-23T06:48:48.000Z</time>
      </trkpt>
      <trkpt lat="45.68891" lon="3.05353">
        <ele>701</ele>
        <time>2019-06-23T06:48:49.000Z</time>
      </trkpt>
      <trkpt lat="45.68889" lon="3.05356">
        <ele>700</ele>
        <time>2019-06-23T06:48:50.000Z</time>
      </trkpt>
      <trkpt lat="45.68888" lon="3.05357">
        <ele>700</ele>
        <time>2019-06-23T06:48:51.000Z</time>
      </trkpt>
      <trkpt lat="45.68886" lon="3.05359">
        <ele>700</ele>
        <time>2019-06-23T06:48:52.000Z</time>
      </trkpt>
      <trkpt lat="45.68884" lon="3.05361">
        <ele>702</ele>
        <time>2019-06-23T06:48:53.000Z</time>
      </trkpt>
      <trkpt lat="45.68882" lon="3.05363">
        <ele>702</ele>
        <time>2019-06-23T06:48:54.000Z</time>
      </trkpt>
      <trkpt lat="45.6888" lon="3.05364">
        <ele>702</ele>
        <time>2019-06-23T06:48:55.000Z</time>
      </trkpt>
      <trkpt lat="45.68879" lon="3.05366">
        <ele>702</ele>
        <time>2019-06-23T06:48:56.000Z</time>
      </trkpt>
      <trkpt lat="45.68877" lon="3.05368">
        <ele>703</ele>
        <time>2019-06-23T06:48:57.000Z</time>
      </trkpt>
      <trkpt lat="45.68875" lon="3.0537">
        <ele>703</ele>
        <time>2019-06-23T06:48:58.000Z</time>
      </trkpt>
      <trkpt lat="45.68874" lon="3.05372">
        <ele>703</ele>
        <time>2019-06-23T06:48:59.000Z</time>
      </trkpt>
      <trkpt lat="45.68872" lon="3.05373">
        <ele>703</ele>
        <time>2019-06-23T06:49:00.000Z</time>
      </trkpt>
      <trkpt lat="45.68871" lon="3.05375">
        <ele>704</ele>
        <time>2019-06-23T06:49:01.000Z</time>
      </trkpt>
      <trkpt lat="45.68869" lon="3.05376">
        <ele>705</ele>
        <time>2019-06-23T06:49:02.000Z</time>
      </trkpt>
      <trkpt lat="45.68868" lon="3.05378">
        <ele>705</ele>
        <time>2019-06-23T06:49:03.000Z</time>
      </trkpt>
      <trkpt lat="45.68867" lon="3.0538">
        <ele>705</ele>
        <time>2019-06-23T06:49:04.000Z</time>
      </trkpt>
      <trkpt lat="45.68865" lon="3.05381">
        <ele>706</ele>
        <time>2019-06-23T06:49:05.000Z</time>
      </trkpt>
      <trkpt lat="45.68864" lon="3.05382">
        <ele>707</ele>
        <time>2019-06-23T06:49:06.000Z</time>
      </trkpt>
      <trkpt lat="45.68862" lon="3.05384">
        <ele>707</ele>
        <time>2019-06-23T06:49:07.000Z</time>
      </trkpt>
      <trkpt lat="45.68861" lon="3.05386">
        <ele>707</ele>
        <time>2019-06-23T06:49:08.000Z</time>
      </trkpt>
      <trkpt lat="45.68859" lon="3.05388">
        <ele>707</ele>
        <time>2019-06-23T06:49:09.000Z</time>
      </trkpt>
      <trkpt lat="45.68858" lon="3.0539">
        <ele>707</ele>
        <time>2019-06-23T06:49:10.000Z</time>
      </trkpt>
      <trkpt lat="45.68856" lon="3.05391">
        <ele>707</ele>
        <time>2019-06-23T06:49:11.000Z</time>
      </trkpt>
      <trkpt lat="45.68854" lon="3.05393">
        <ele>708</ele>
        <time>2019-06-23T06:49:12.000Z</time>
      </trkpt>
      <trkpt lat="45.68853" lon="3.05395">
        <ele>708</ele>
        <time>2019-06-23T06:49:13.000Z</time>
      </trkpt>
      <trkpt lat="45.68851" lon="3.05397">
        <ele>708</ele>
        <time>2019-06-23T06:49:14.000Z</time>
      </trkpt>
      <trkpt lat="45.68849" lon="3.05399">
        <ele>707</ele>
        <time>2019-06-23T06:49:15.000Z</time>
      </trkpt>
      <trkpt lat="45.68848" lon="3.05401">
        <ele>707</ele>
        <time>2019-06-23T06:49:16.000Z</time>
      </trkpt>
      <trkpt lat="45.68846" lon="3.05403">
        <ele>707</ele>
        <time>2019-06-23T06:49:17.000Z</time>
      </trkpt>
      <trkpt lat="45.68845" lon="3.05405">
        <ele>707</ele>
        <time>2019-06-23T06:49:18.000Z</time>
      </trkpt>
      <trkpt lat="45.68844" lon="3.05407">
        <ele>707</ele>
        <time>2019-06-23T06:49:19.000Z</time>
      </trkpt>
      <trkpt lat="45.68843" lon="3.05409">
        <ele>707</ele>
        <time>2019-06-23T06:49:20.000Z</time>
      </trkpt>
      <trkpt lat="45.68842" lon="3.05411">
        <ele>708</ele>
        <time>2019-06-23T06:49:21.000Z</time>
      </trkpt>
      <trkpt lat="45.68841" lon="3.05414">
        <ele>708</ele>
        <time>2019-06-23T06:49:22.000Z</time>
      </trkpt>
      <trkpt lat="45.6884" lon="3.05416">
        <ele>708</ele>
        <time>2019-06-23T06:49:23.000Z</time>
      </trkpt>
      <trkpt lat="45.68839" lon="3.05418">
        <ele>708</ele>
        <time>2019-06-23T06:49:24.000Z</time>
      </trkpt>
      <trkpt lat="45.68838" lon="3.0542">
        <ele>710</ele>
        <time>2019-06-23T06:49:25.000Z</time>
      </trkpt>
      <trkpt lat="45.68836" lon="3.05422">
        <ele>711</ele>
        <time>2019-06-23T06:49:26.000Z</time>
      </trkpt>
      <trkpt lat="45.68835" lon="3.05423">
        <ele>713</ele>
        <time>2019-06-23T06:49:27.000Z</time>
      </trkpt>
      <trkpt lat="45.68834" lon="3.05425">
        <ele>714</ele>
        <time>2019-06-23T06:49:28.000Z</time>
      </trkpt>
      <trkpt lat="45.68832" lon="3.05427">
        <ele>714</ele>
        <time>2019-06-23T06:49:29.000Z</time>
      </trkpt>
      <trkpt lat="45.68831" lon="3.05428">
        <ele>715</ele>
        <time>2019-06-23T06:49:30.000Z</time>
      </trkpt>
      <trkpt lat="45.6883" lon="3.0543">
        <ele>716</ele>
        <time>2019-06-23T06:49:31.000Z</time>
      </trkpt>
      <trkpt lat="45.68829" lon="3.05432">
        <ele>716</ele>
        <time>2019-06-23T06:49:32.000Z</time>
      </trkpt>
      <trkpt lat="45.68828" lon="3.05435">
        <ele>716</ele>
        <time>2019-06-23T06:49:33.000Z</time>
      </trkpt>
      <trkpt lat="45.68827" lon="3.05437">
        <ele>716</ele>
        <time>2019-06-23T06:49:34.000Z</time>
      </trkpt>
      <trkpt lat="45.68826" lon="3.0544">
        <ele>716</ele>
        <time>2019-06-23T06:49:35.000Z</time>
      </trkpt>
      <trkpt lat="45.68825" lon="3.05442">
        <ele>716</ele>
        <time>2019-06-23T06:49:36.000Z</time>
      </trkpt>
      <trkpt lat="45.68824" lon="3.05444">
        <ele>716</ele>
        <time>2019-06-23T06:49:37.000Z</time>
      </trkpt>
      <trkpt lat="45.68824" lon="3.05446">
        <ele>717</ele>
        <time>2019-06-23T06:49:38.000Z</time>
      </trkpt>
      <trkpt lat="45.68823" lon="3.05448">
        <ele>718</ele>
        <time>2019-06-23T06:49:39.000Z</time>
      </trkpt>
      <trkpt lat="45.68822" lon="3.0545">
        <ele>719</ele>
        <time>2019-06-23T06:49:40.000Z</time>
      </trkpt>
      <trkpt lat="45.68822" lon="3.05454">
        <ele>718</ele>
        <time>2019-06-23T06:49:41.000Z</time>
      </trkpt>
      <trkpt lat="45.6882" lon="3.05456">
        <ele>719</ele>
        <time>2019-06-23T06:49:42.000Z</time>
      </trkpt>
      <trkpt lat="45.6882" lon="3.05459">
        <ele>719</ele>
        <time>2019-06-23T06:49:43.000Z</time>
      </trkpt>
      <trkpt lat="45.68819" lon="3.05461">
        <ele>720</ele>
        <time>2019-06-23T06:49:44.000Z</time>
      </trkpt>
      <trkpt lat="45.68819" lon="3.05464">
        <ele>720</ele>
        <time>2019-06-23T06:49:45.000Z</time>
      </trkpt>
      <trkpt lat="45.68818" lon="3.05467">
        <ele>721</ele>
        <time>2019-06-23T06:49:46.000Z</time>
      </trkpt>
      <trkpt lat="45.68818" lon="3.05469">
        <ele>720</ele>
        <time>2019-06-23T06:49:47.000Z</time>
      </trkpt>
      <trkpt lat="45.68819" lon="3.05472">
        <ele>720</ele>
        <time>2019-06-23T06:49:48.000Z</time>
      </trkpt>
      <trkpt lat="45.68819" lon="3.05475">
        <ele>720</ele>
        <time>2019-06-23T06:49:49.000Z</time>
      </trkpt>
      <trkpt lat="45.68819" lon="3.05477">
        <ele>720</ele>
        <time>2019-06-23T06:49:50.000Z</time>
      </trkpt>
      <trkpt lat="45.68819" lon="3.0548">
        <ele>720</ele>
        <time>2019-06-23T06:49:51.000Z</time>
      </trkpt>
      <trkpt lat="45.68819" lon="3.05482">
        <ele>720</ele>
        <time>2019-06-23T06:49:52.000Z</time>
      </trkpt>
      <trkpt lat="45.68819" lon="3.05484">
        <ele>720</ele>
        <time>2019-06-23T06:49:53.000Z</time>
      </trkpt>
      <trkpt lat="45.68819" lon="3.05487">
        <ele>720</ele>
        <time>2019-06-23T06:49:54.000Z</time>
      </trkpt>
      <trkpt lat="45.68819" lon="3.05489">
        <ele>719</ele>
        <time>2019-06-23T06:49:55.000Z</time>
      </trkpt>
      <trkpt lat="45.68819" lon="3.05492">
        <ele>719</ele>
        <time>2019-06-23T06:49:56.000Z</time>
      </trkpt>
      <trkpt lat="45.68819" lon="3.05494">
        <ele>719</ele>
        <time>2019-06-23T06:49:57.000Z</time>
      </trkpt>
      <trkpt lat="45.68819" lon="3.05496">
        <ele>719</ele>
        <time>2019-06-23T06:49:58.000Z</time>
      </trkpt>
      <trkpt lat="45.68819" lon="3.05498">
        <ele>719</ele>
        <time>2019-06-23T06:49:59.000Z</time>
      </trkpt>
      <trkpt lat="45.68819" lon="3.05501">
        <ele>719</ele>
        <time>2019-06-23T06:50:00.000Z</time>
      </trkpt>
      <trkpt lat="45.68819" lon="3.05502">
        <ele>719</ele>
        <time>2019-06-23T06:50:01.000Z</time>
      </trkpt>
      <trkpt lat="45.68819" lon="3.05505">
        <ele>719</ele>
        <time>2019-06-23T06:50:02.000Z</time>
      </trkpt>
      <trkpt lat="45.68819" lon="3.05507">
        <ele>719</ele>
        <time>2019-06-23T06:50:03.000Z</time>
      </trkpt>
      <trkpt lat="45.6882" lon="3.05509">
        <ele>720</ele>
        <time>2019-06-23T06:50:04.000Z</time>
      </trkpt>
      <trkpt lat="45.6882" lon="3.05512">
        <ele>720</ele>
        <time>2019-06-23T06:50:05.000Z</time>
      </trkpt>
      <trkpt lat="45.6882" lon="3.05514">
        <ele>720</ele>
        <time>2019-06-23T06:50:06.000Z</time>
      </trkpt>
      <trkpt lat="45.68821" lon="3.05517">
        <ele>720</ele>
        <time>2019-06-23T06:50:07.000Z</time>
      </trkpt>
      <trkpt lat="45.68821" lon="3.05519">
        <ele>719</ele>
        <time>2019-06-23T06:50:08.000Z</time>
      </trkpt>
      <trkpt lat="45.68821" lon="3.05522">
        <ele>720</ele>
        <time>2019-06-23T06:50:09.000Z</time>
      </trkpt>
      <trkpt lat="45.68821" lon="3.05524">
        <ele>720</ele>
        <time>2019-06-23T06:50:10.000Z</time>
      </trkpt>
      <trkpt lat="45.68821" lon="3.05526">
        <ele>721</ele>
        <time>2019-06-23T06:50:11.000Z</time>
      </trkpt>
      <trkpt lat="45.68822" lon="3.05528">
        <ele>721</ele>
        <time>2019-06-23T06:50:12.000Z</time>
      </trkpt>
      <trkpt lat="45.68822" lon="3.0553">
        <ele>721</ele>
        <time>2019-06-23T06:50:13.000Z</time>
      </trkpt>
      <trkpt lat="45.68823" lon="3.05533">
        <ele>720</ele>
        <time>2019-06-23T06:50:14.000Z</time>
      </trkpt>
      <trkpt lat="45.68823" lon="3.05536">
        <ele>721</ele>
        <time>2019-06-23T06:50:15.000Z</time>
      </trkpt>
      <trkpt lat="45.68823" lon="3.05538">
        <ele>721</ele>
        <time>2019-06-23T06:50:16.000Z</time>
      </trkpt>
      <trkpt lat="45.68824" lon="3.0554">
        <ele>722</ele>
        <time>2019-06-23T06:50:17.000Z</time>
      </trkpt>
      <trkpt lat="45.68824" lon="3.05543">
        <ele>722</ele>
        <time>2019-06-23T06:50:18.000Z</time>
      </trkpt>
      <trkpt lat="45.68824" lon="3.05545">
        <ele>722</ele>
        <time>2019-06-23T06:50:19.000Z</time>
      </trkpt>
      <trkpt lat="45.68825" lon="3.05548">
        <ele>723</ele>
        <time>2019-06-23T06:50:20.000Z</time>
      </trkpt>
      <trkpt lat="45.68825" lon="3.0555">
        <ele>723</ele>
        <time>2019-06-23T06:50:21.000Z</time>
      </trkpt>
      <trkpt lat="45.68825" lon="3.05553">
        <ele>723</ele>
        <time>2019-06-23T06:50:22.000Z</time>
      </trkpt>
      <trkpt lat="45.68825" lon="3.05555">
        <ele>723</ele>
        <time>2019-06-23T06:50:23.000Z</time>
      </trkpt>
      <trkpt lat="45.68826" lon="3.05558">
        <ele>723</ele>
        <time>2019-06-23T06:50:24.000Z</time>
      </trkpt>
      <trkpt lat="45.68826" lon="3.0556">
        <ele>723</ele>
        <time>2019-06-23T06:50:25.000Z</time>
      </trkpt>
      <trkpt lat="45.68826" lon="3.05563">
        <ele>723</ele>
        <time>2019-06-23T06:50:26.000Z</time>
      </trkpt>
      <trkpt lat="45.68826" lon="3.05565">
        <ele>724</ele>
        <time>2019-06-23T06:50:27.000Z</time>
      </trkpt>
      <trkpt lat="45.68826" lon="3.05568">
        <ele>724</ele>
        <time>2019-06-23T06:50:28.000Z</time>
      </trkpt>
      <trkpt lat="45.68826" lon="3.0557">
        <ele>724</ele>
        <time>2019-06-23T06:50:29.000Z</time>
      </trkpt>
      <trkpt lat="45.68826" lon="3.05573">
        <ele>724</ele>
        <time>2019-06-23T06:50:30.000Z</time>
      </trkpt>
      <trkpt lat="45.68827" lon="3.05575">
        <ele>725</ele>
        <time>2019-06-23T06:50:31.000Z</time>
      </trkpt>
      <trkpt lat="45.68827" lon="3.05578">
        <ele>725</ele>
        <time>2019-06-23T06:50:32.000Z</time>
      </trkpt>
      <trkpt lat="45.68827" lon="3.05581">
        <ele>725</ele>
        <time>2019-06-23T06:50:33.000Z</time>
      </trkpt>
      <trkpt lat="45.68826" lon="3.05583">
        <ele>725</ele>
        <time>2019-06-23T06:50:34.000Z</time>
      </trkpt>
      <trkpt lat="45.68826" lon="3.05586">
        <ele>725</ele>
        <time>2019-06-23T06:50:35.000Z</time>
      </trkpt>
      <trkpt lat="45.68826" lon="3.05589">
        <ele>725</ele>
        <time>2019-06-23T06:50:36.000Z</time>
      </trkpt>
      <trkpt lat="45.68825" lon="3.05591">
        <ele>726</ele>
        <time>2019-06-23T06:50:37.000Z</time>
      </trkpt>
      <trkpt lat="45.68825" lon="3.05594">
        <ele>726</ele>
        <time>2019-06-23T06:50:38.000Z</time>
      </trkpt>
      <trkpt lat="45.68824" lon="3.05596">
        <ele>726</ele>
        <time>2019-06-23T06:50:39.000Z</time>
      </trkpt>
      <trkpt lat="45.68823" lon="3.05599">
        <ele>726</ele>
        <time>2019-06-23T06:50:40.000Z</time>
      </trkpt>
      <trkpt lat="45.68822" lon="3.05601">
        <ele>726</ele>
        <time>2019-06-23T06:50:41.000Z</time>
      </trkpt>
      <trkpt lat="45.68821" lon="3.05603">
        <ele>727</ele>
        <time>2019-06-23T06:50:42.000Z</time>
      </trkpt>
      <trkpt lat="45.6882" lon="3.05605">
        <ele>727</ele>
        <time>2019-06-23T06:50:43.000Z</time>
      </trkpt>
      <trkpt lat="45.68819" lon="3.05607">
        <ele>728</ele>
        <time>2019-06-23T06:50:44.000Z</time>
      </trkpt>
      <trkpt lat="45.68818" lon="3.05609">
        <ele>728</ele>
        <time>2019-06-23T06:50:45.000Z</time>
      </trkpt>
      <trkpt lat="45.68817" lon="3.05612">
        <ele>728</ele>
        <time>2019-06-23T06:50:46.000Z</time>
      </trkpt>
      <trkpt lat="45.68816" lon="3.05614">
        <ele>729</ele>
        <time>2019-06-23T06:50:47.000Z</time>
      </trkpt>
      <trkpt lat="45.68815" lon="3.05616">
        <ele>729</ele>
        <time>2019-06-23T06:50:48.000Z</time>
      </trkpt>
      <trkpt lat="45.68814" lon="3.05618">
        <ele>729</ele>
        <time>2019-06-23T06:50:49.000Z</time>
      </trkpt>
      <trkpt lat="45.68813" lon="3.0562">
        <ele>730</ele>
        <time>2019-06-23T06:50:50.000Z</time>
      </trkpt>
      <trkpt lat="45.68812" lon="3.05622">
        <ele>731</ele>
        <time>2019-06-23T06:50:51.000Z</time>
      </trkpt>
      <trkpt lat="45.68811" lon="3.05625">
        <ele>731</ele>
        <time>2019-06-23T06:50:52.000Z</time>
      </trkpt>
      <trkpt lat="45.68811" lon="3.05627">
        <ele>731</ele>
        <time>2019-06-23T06:50:53.000Z</time>
      </trkpt>
      <trkpt lat="45.6881" lon="3.05629">
        <ele>732</ele>
        <time>2019-06-23T06:50:54.000Z</time>
      </trkpt>
      <trkpt lat="45.68809" lon="3.05631">
        <ele>733</ele>
        <time>2019-06-23T06:50:55.000Z</time>
      </trkpt>
      <trkpt lat="45.68808" lon="3.05632">
        <ele>733</ele>
        <time>2019-06-23T06:50:56.000Z</time>
      </trkpt>
      <trkpt lat="45.68808" lon="3.05634">
        <ele>734</ele>
        <time>2019-06-23T06:50:57.000Z</time>
      </trkpt>
      <trkpt lat="45.68807" lon="3.05636">
        <ele>735</ele>
        <time>2019-06-23T06:50:58.000Z</time>
      </trkpt>
      <trkpt lat="45.68807" lon="3.05638">
        <ele>735</ele>
        <time>2019-06-23T06:50:59.000Z</time>
      </trkpt>
      <trkpt lat="45.68806" lon="3.0564">
        <ele>735</ele>
        <time>2019-06-23T06:51:00.000Z</time>
      </trkpt>
      <trkpt lat="45.68805" lon="3.05643">
        <ele>735</ele>
        <time>2019-06-23T06:51:01.000Z</time>
      </trkpt>
      <trkpt lat="45.68804" lon="3.05645">
        <ele>736</ele>
        <time>2019-06-23T06:51:02.000Z</time>
      </trkpt>
      <trkpt lat="45.68803" lon="3.05648">
        <ele>736</ele>
        <time>2019-06-23T06:51:03.000Z</time>
      </trkpt>
      <trkpt lat="45.68802" lon="3.0565">
        <ele>735</ele>
        <time>2019-06-23T06:51:04.000Z</time>
      </trkpt>
      <trkpt lat="45.68801" lon="3.05652">
        <ele>735</ele>
        <time>2019-06-23T06:51:05.000Z</time>
      </trkpt>
      <trkpt lat="45.688" lon="3.05654">
        <ele>735</ele>
        <time>2019-06-23T06:51:06.000Z</time>
      </trkpt>
      <trkpt lat="45.688" lon="3.05656">
        <ele>736</ele>
        <time>2019-06-23T06:51:07.000Z</time>
      </trkpt>
      <trkpt lat="45.68799" lon="3.05658">
        <ele>736</ele>
        <time>2019-06-23T06:51:08.000Z</time>
      </trkpt>
      <trkpt lat="45.68798" lon="3.0566">
        <ele>736</ele>
        <time>2019-06-23T06:51:09.000Z</time>
      </trkpt>
      <trkpt lat="45.68797" lon="3.05662">
        <ele>736</ele>
        <time>2019-06-23T06:51:10.000Z</time>
      </trkpt>
      <trkpt lat="45.68796" lon="3.05664">
        <ele>737</ele>
        <time>2019-06-23T06:51:11.000Z</time>
      </trkpt>
      <trkpt lat="45.68795" lon="3.05666">
        <ele>737</ele>
        <time>2019-06-23T06:51:12.000Z</time>
      </trkpt>
      <trkpt lat="45.68794" lon="3.05668">
        <ele>737</ele>
        <time>2019-06-23T06:51:13.000Z</time>
      </trkpt>
      <trkpt lat="45.68793" lon="3.0567">
        <ele>738</ele>
        <time>2019-06-23T06:51:14.000Z</time>
      </trkpt>
      <trkpt lat="45.68792" lon="3.05672">
        <ele>738</ele>
        <time>2019-06-23T06:51:15.000Z</time>
      </trkpt>
      <trkpt lat="45.68791" lon="3.05675">
        <ele>739</ele>
        <time>2019-06-23T06:51:16.000Z</time>
      </trkpt>
      <trkpt lat="45.68789" lon="3.05676">
        <ele>738</ele>
        <time>2019-06-23T06:51:17.000Z</time>
      </trkpt>
      <trkpt lat="45.68788" lon="3.05678">
        <ele>739</ele>
        <time>2019-06-23T06:51:18.000Z</time>
      </trkpt>
      <trkpt lat="45.68787" lon="3.05681">
        <ele>740</ele>
        <time>2019-06-23T06:51:19.000Z</time>
      </trkpt>
      <trkpt lat="45.68786" lon="3.05683">
        <ele>740</ele>
        <time>2019-06-23T06:51:20.000Z</time>
      </trkpt>
      <trkpt lat="45.68785" lon="3.05686">
        <ele>740</ele>
        <time>2019-06-23T06:51:21.000Z</time>
      </trkpt>
      <trkpt lat="45.68784" lon="3.05688">
        <ele>741</ele>
        <time>2019-06-23T06:51:22.000Z</time>
      </trkpt>
      <trkpt lat="45.68784" lon="3.05691">
        <ele>741</ele>
        <time>2019-06-23T06:51:23.000Z</time>
      </trkpt>
      <trkpt lat="45.68783" lon="3.05693">
        <ele>742</ele>
        <time>2019-06-23T06:51:24.000Z</time>
      </trkpt>
      <trkpt lat="45.68782" lon="3.05696">
        <ele>743</ele>
        <time>2019-06-23T06:51:25.000Z</time>
      </trkpt>
      <trkpt lat="45.68781" lon="3.05698">
        <ele>743</ele>
        <time>2019-06-23T06:51:26.000Z</time>
      </trkpt>
      <trkpt lat="45.6878" lon="3.057">
        <ele>743</ele>
        <time>2019-06-23T06:51:27.000Z</time>
      </trkpt>
      <trkpt lat="45.6878" lon="3.05703">
        <ele>744</ele>
        <time>2019-06-23T06:51:28.000Z</time>
      </trkpt>
      <trkpt lat="45.68779" lon="3.05705">
        <ele>744</ele>
        <time>2019-06-23T06:51:29.000Z</time>
      </trkpt>
      <trkpt lat="45.68779" lon="3.05708">
        <ele>744</ele>
        <time>2019-06-23T06:51:30.000Z</time>
      </trkpt>
      <trkpt lat="45.68778" lon="3.05711">
        <ele>744</ele>
        <time>2019-06-23T06:51:31.000Z</time>
      </trkpt>
      <trkpt lat="45.68778" lon="3.05714">
        <ele>745</ele>
        <time>2019-06-23T06:51:32.000Z</time>
      </trkpt>
      <trkpt lat="45.68777" lon="3.05717">
        <ele>745</ele>
        <time>2019-06-23T06:51:33.000Z</time>
      </trkpt>
      <trkpt lat="45.68777" lon="3.0572">
        <ele>745</ele>
        <time>2019-06-23T06:51:34.000Z</time>
      </trkpt>
      <trkpt lat="45.68778" lon="3.05723">
        <ele>745</ele>
        <time>2019-06-23T06:51:35.000Z</time>
      </trkpt>
      <trkpt lat="45.68778" lon="3.05726">
        <ele>745</ele>
        <time>2019-06-23T06:51:36.000Z</time>
      </trkpt>
      <trkpt lat="45.68778" lon="3.05729">
        <ele>746</ele>
        <time>2019-06-23T06:51:37.000Z</time>
      </trkpt>
      <trkpt lat="45.68777" lon="3.05732">
        <ele>746</ele>
        <time>2019-06-23T06:51:38.000Z</time>
      </trkpt>
      <trkpt lat="45.68776" lon="3.05735">
        <ele>746</ele>
        <time>2019-06-23T06:51:39.000Z</time>
      </trkpt>
      <trkpt lat="45.68776" lon="3.05738">
        <ele>746</ele>
        <time>2019-06-23T06:51:40.000Z</time>
      </trkpt>
      <trkpt lat="45.68775" lon="3.05742">
        <ele>746</ele>
        <time>2019-06-23T06:51:41.000Z</time>
      </trkpt>
      <trkpt lat="45.68775" lon="3.05745">
        <ele>745</ele>
        <time>2019-06-23T06:51:42.000Z</time>
      </trkpt>
      <trkpt lat="45.68774" lon="3.05748">
        <ele>745</ele>
        <time>2019-06-23T06:51:43.000Z</time>
      </trkpt>
      <trkpt lat="45.68774" lon="3.05751">
        <ele>746</ele>
        <time>2019-06-23T06:51:44.000Z</time>
      </trkpt>
      <trkpt lat="45.68773" lon="3.05755">
        <ele>745</ele>
        <time>2019-06-23T06:51:45.000Z</time>
      </trkpt>
      <trkpt lat="45.68772" lon="3.05758">
        <ele>745</ele>
        <time>2019-06-23T06:51:46.000Z</time>
      </trkpt>
      <trkpt lat="45.68772" lon="3.05762">
        <ele>745</ele>
        <time>2019-06-23T06:51:47.000Z</time>
      </trkpt>
      <trkpt lat="45.68772" lon="3.05765">
        <ele>745</ele>
        <time>2019-06-23T06:51:48.000Z</time>
      </trkpt>
      <trkpt lat="45.68772" lon="3.05769">
        <ele>745</ele>
        <time>2019-06-23T06:51:49.000Z</time>
      </trkpt>
      <trkpt lat="45.68772" lon="3.05772">
        <ele>745</ele>
        <time>2019-06-23T06:51:50.000Z</time>
      </trkpt>
      <trkpt lat="45.68772" lon="3.05776">
        <ele>745</ele>
        <time>2019-06-23T06:51:51.000Z</time>
      </trkpt>
      <trkpt lat="45.68772" lon="3.0578">
        <ele>745</ele>
        <time>2019-06-23T06:51:52.000Z</time>
      </trkpt>
      <trkpt lat="45.68772" lon="3.05783">
        <ele>745</ele>
        <time>2019-06-23T06:51:53.000Z</time>
      </trkpt>
      <trkpt lat="45.68772" lon="3.05787">
        <ele>746</ele>
        <time>2019-06-23T06:51:54.000Z</time>
      </trkpt>
      <trkpt lat="45.68772" lon="3.0579">
        <ele>746</ele>
        <time>2019-06-23T06:51:55.000Z</time>
      </trkpt>
      <trkpt lat="45.68772" lon="3.05794">
        <ele>747</ele>
        <time>2019-06-23T06:51:56.000Z</time>
      </trkpt>
      <trkpt lat="45.68772" lon="3.05797">
        <ele>747</ele>
        <time>2019-06-23T06:51:57.000Z</time>
      </trkpt>
      <trkpt lat="45.68772" lon="3.05801">
        <ele>747</ele>
        <time>2019-06-23T06:51:58.000Z</time>
      </trkpt>
      <trkpt lat="45.68771" lon="3.05804">
        <ele>748</ele>
        <time>2019-06-23T06:51:59.000Z</time>
      </trkpt>
      <trkpt lat="45.68771" lon="3.05807">
        <ele>748</ele>
        <time>2019-06-23T06:52:00.000Z</time>
      </trkpt>
      <trkpt lat="45.68772" lon="3.05811">
        <ele>748</ele>
        <time>2019-06-23T06:52:01.000Z</time>
      </trkpt>
      <trkpt lat="45.68772" lon="3.05815">
        <ele>749</ele>
        <time>2019-06-23T06:52:02.000Z</time>
      </trkpt>
      <trkpt lat="45.68772" lon="3.05819">
        <ele>749</ele>
        <time>2019-06-23T06:52:03.000Z</time>
      </trkpt>
      <trkpt lat="45.68772" lon="3.05823">
        <ele>748</ele>
        <time>2019-06-23T06:52:04.000Z</time>
      </trkpt>
      <trkpt lat="45.68772" lon="3.05826">
        <ele>748</ele>
        <time>2019-06-23T06:52:05.000Z</time>
      </trkpt>
      <trkpt lat="45.68773" lon="3.0583">
        <ele>748</ele>
        <time>2019-06-23T06:52:06.000Z</time>
      </trkpt>
      <trkpt lat="45.68773" lon="3.05834">
        <ele>749</ele>
        <time>2019-06-23T06:52:07.000Z</time>
      </trkpt>
      <trkpt lat="45.68773" lon="3.05837">
        <ele>749</ele>
        <time>2019-06-23T06:52:08.000Z</time>
      </trkpt>
      <trkpt lat="45.68774" lon="3.05841">
        <ele>749</ele>
        <time>2019-06-23T06:52:09.000Z</time>
      </trkpt>
      <trkpt lat="45.68774" lon="3.05845">
        <ele>749</ele>
        <time>2019-06-23T06:52:10.000Z</time>
      </trkpt>
      <trkpt lat="45.68774" lon="3.05848">
        <ele>749</ele>
        <time>2019-06-23T06:52:11.000Z</time>
      </trkpt>
      <trkpt lat="45.68774" lon="3.05852">
        <ele>750</ele>
        <time>2019-06-23T06:52:12.000Z</time>
      </trkpt>
      <trkpt lat="45.68775" lon="3.05855">
        <ele>750</ele>
        <time>2019-06-23T06:52:13.000Z</time>
      </trkpt>
      <trkpt lat="45.68775" lon="3.05858">
        <ele>750</ele>
        <time>2019-06-23T06:52:14.000Z</time>
      </trkpt>
      <trkpt lat="45.68775" lon="3.05862">
        <ele>750</ele>
        <time>2019-06-23T06:52:15.000Z</time>
      </trkpt>
      <trkpt lat="45.68775" lon="3.05864">
        <ele>751</ele>
        <time>2019-06-23T06:52:16.000Z</time>
      </trkpt>
      <trkpt lat="45.68774" lon="3.05867">
        <ele>751</ele>
        <time>2019-06-23T06:52:17.000Z</time>
      </trkpt>
      <trkpt lat="45.68774" lon="3.0587">
        <ele>751</ele>
        <time>2019-06-23T06:52:18.000Z</time>
      </trkpt>
      <trkpt lat="45.68774" lon="3.05874">
        <ele>752</ele>
        <time>2019-06-23T06:52:19.000Z</time>
      </trkpt>
      <trkpt lat="45.68774" lon="3.05877">
        <ele>752</ele>
        <time>2019-06-23T06:52:20.000Z</time>
      </trkpt>
      <trkpt lat="45.68773" lon="3.0588">
        <ele>752</ele>
        <time>2019-06-23T06:52:21.000Z</time>
      </trkpt>
      <trkpt lat="45.68773" lon="3.05883">
        <ele>752</ele>
        <time>2019-06-23T06:52:22.000Z</time>
      </trkpt>
      <trkpt lat="45.68773" lon="3.05887">
        <ele>752</ele>
        <time>2019-06-23T06:52:23.000Z</time>
      </trkpt>
      <trkpt lat="45.68773" lon="3.05891">
        <ele>751</ele>
        <time>2019-06-23T06:52:24.000Z</time>
      </trkpt>
      <trkpt lat="45.68773" lon="3.05894">
        <ele>750</ele>
        <time>2019-06-23T06:52:25.000Z</time>
      </trkpt>
      <trkpt lat="45.68773" lon="3.05897">
        <ele>751</ele>
        <time>2019-06-23T06:52:26.000Z</time>
      </trkpt>
      <trkpt lat="45.68773" lon="3.05901">
        <ele>751</ele>
        <time>2019-06-23T06:52:27.000Z</time>
      </trkpt>
      <trkpt lat="45.68774" lon="3.05905">
        <ele>751</ele>
        <time>2019-06-23T06:52:28.000Z</time>
      </trkpt>
      <trkpt lat="45.68774" lon="3.05909">
        <ele>750</ele>
        <time>2019-06-23T06:52:29.000Z</time>
      </trkpt>
      <trkpt lat="45.68775" lon="3.05913">
        <ele>750</ele>
        <time>2019-06-23T06:52:30.000Z</time>
      </trkpt>
      <trkpt lat="45.68775" lon="3.05917">
        <ele>750</ele>
        <time>2019-06-23T06:52:31.000Z</time>
      </trkpt>
      <trkpt lat="45.68775" lon="3.05921">
        <ele>750</ele>
        <time>2019-06-23T06:52:32.000Z</time>
      </trkpt>
      <trkpt lat="45.68775" lon="3.05924">
        <ele>750</ele>
        <time>2019-06-23T06:52:33.000Z</time>
      </trkpt>
      <trkpt lat="45.68775" lon="3.05927">
        <ele>750</ele>
        <time>2019-06-23T06:52:34.000Z</time>
      </trkpt>
      <trkpt lat="45.68775" lon="3.0593">
        <ele>750</ele>
        <time>2019-06-23T06:52:35.000Z</time>
      </trkpt>
      <trkpt lat="45.68775" lon="3.05933">
        <ele>751</ele>
        <time>2019-06-23T06:52:36.000Z</time>
      </trkpt>
      <trkpt lat="45.68775" lon="3.05937">
        <ele>750</ele>
        <time>2019-06-23T06:52:37.000Z</time>
      </trkpt>
      <trkpt lat="45.68775" lon="3.05941">
        <ele>750</ele>
        <time>2019-06-23T06:52:38.000Z</time>
      </trkpt>
      <trkpt lat="45.68775" lon="3.05944">
        <ele>750</ele>
        <time>2019-06-23T06:52:39.000Z</time>
      </trkpt>
      <trkpt lat="45.68775" lon="3.05947">
        <ele>750</ele>
        <time>2019-06-23T06:52:40.000Z</time>
      </trkpt>
      <trkpt lat="45.68776" lon="3.05951">
        <ele>750</ele>
        <time>2019-06-23T06:52:41.000Z</time>
      </trkpt>
      <trkpt lat="45.68776" lon="3.05955">
        <ele>750</ele>
        <time>2019-06-23T06:52:42.000Z</time>
      </trkpt>
      <trkpt lat="45.68776" lon="3.05958">
        <ele>750</ele>
        <time>2019-06-23T06:52:43.000Z</time>
      </trkpt>
      <trkpt lat="45.68776" lon="3.05962">
        <ele>751</ele>
        <time>2019-06-23T06:52:44.000Z</time>
      </trkpt>
      <trkpt lat="45.68776" lon="3.05965">
        <ele>751</ele>
        <time>2019-06-23T06:52:45.000Z</time>
      </trkpt>
      <trkpt lat="45.68776" lon="3.05969">
        <ele>750</ele>
        <time>2019-06-23T06:52:46.000Z</time>
      </trkpt>
      <trkpt lat="45.68776" lon="3.05973">
        <ele>750</ele>
        <time>2019-06-23T06:52:47.000Z</time>
      </trkpt>
      <trkpt lat="45.68777" lon="3.05976">
        <ele>750</ele>
        <time>2019-06-23T06:52:48.000Z</time>
      </trkpt>
      <trkpt lat="45.68777" lon="3.05979">
        <ele>750</ele>
        <time>2019-06-23T06:52:49.000Z</time>
      </trkpt>
      <trkpt lat="45.68777" lon="3.05983">
        <ele>750</ele>
        <time>2019-06-23T06:52:50.000Z</time>
      </trkpt>
      <trkpt lat="45.68777" lon="3.05986">
        <ele>750</ele>
        <time>2019-06-23T06:52:51.000Z</time>
      </trkpt>
      <trkpt lat="45.68778" lon="3.0599">
        <ele>750</ele>
        <time>2019-06-23T06:52:52.000Z</time>
      </trkpt>
      <trkpt lat="45.68778" lon="3.05994">
        <ele>750</ele>
        <time>2019-06-23T06:52:53.000Z</time>
      </trkpt>
      <trkpt lat="45.68778" lon="3.05998">
        <ele>750</ele>
        <time>2019-06-23T06:52:54.000Z</time>
      </trkpt>
      <trkpt lat="45.68778" lon="3.06001">
        <ele>750</ele>
        <time>2019-06-23T06:52:55.000Z</time>
      </trkpt>
      <trkpt lat="45.68778" lon="3.06005">
        <ele>750</ele>
        <time>2019-06-23T06:52:56.000Z</time>
      </trkpt>
      <trkpt lat="45.68778" lon="3.06008">
        <ele>750</ele>
        <time>2019-06-23T06:52:57.000Z</time>
      </trkpt>
      <trkpt lat="45.68778" lon="3.06011">
        <ele>750</ele>
        <time>2019-06-23T06:52:58.000Z</time>
      </trkpt>
      <trkpt lat="45.68778" lon="3.06014">
        <ele>750</ele>
        <time>2019-06-23T06:52:59.000Z</time>
      </trkpt>
      <trkpt lat="45.68778" lon="3.06017">
        <ele>751</ele>
        <time>2019-06-23T06:53:00.000Z</time>
      </trkpt>
      <trkpt lat="45.68778" lon="3.0602">
        <ele>751</ele>
        <time>2019-06-23T06:53:01.000Z</time>
      </trkpt>
      <trkpt lat="45.68778" lon="3.06022">
        <ele>751</ele>
        <time>2019-06-23T06:53:02.000Z</time>
      </trkpt>
      <trkpt lat="45.68778" lon="3.06025">
        <ele>751</ele>
        <time>2019-06-23T06:53:03.000Z</time>
      </trkpt>
      <trkpt lat="45.68778" lon="3.06028">
        <ele>751</ele>
        <time>2019-06-23T06:53:04.000Z</time>
      </trkpt>
      <trkpt lat="45.68779" lon="3.06031">
        <ele>751</ele>
        <time>2019-06-23T06:53:05.000Z</time>
      </trkpt>
      <trkpt lat="45.68779" lon="3.06034">
        <ele>750</ele>
        <time>2019-06-23T06:53:06.000Z</time>
      </trkpt>
      <trkpt lat="45.68779" lon="3.06037">
        <ele>750</ele>
        <time>2019-06-23T06:53:07.000Z</time>
      </trkpt>
      <trkpt lat="45.68779" lon="3.06041">
        <ele>750</ele>
        <time>2019-06-23T06:53:08.000Z</time>
      </trkpt>
      <trkpt lat="45.68779" lon="3.06044">
        <ele>751</ele>
        <time>2019-06-23T06:53:09.000Z</time>
      </trkpt>
      <trkpt lat="45.68779" lon="3.06046">
        <ele>752</ele>
        <time>2019-06-23T06:53:10.000Z</time>
      </trkpt>
      <trkpt lat="45.6878" lon="3.0605">
        <ele>752</ele>
        <time>2019-06-23T06:53:11.000Z</time>
      </trkpt>
      <trkpt lat="45.6878" lon="3.06053">
        <ele>752</ele>
        <time>2019-06-23T06:53:12.000Z</time>
      </trkpt>
      <trkpt lat="45.68781" lon="3.06056">
        <ele>752</ele>
        <time>2019-06-23T06:53:13.000Z</time>
      </trkpt>
      <trkpt lat="45.68781" lon="3.0606">
        <ele>752</ele>
        <time>2019-06-23T06:53:14.000Z</time>
      </trkpt>
      <trkpt lat="45.68781" lon="3.06064">
        <ele>752</ele>
        <time>2019-06-23T06:53:15.000Z</time>
      </trkpt>
      <trkpt lat="45.68782" lon="3.06067">
        <ele>752</ele>
        <time>2019-06-23T06:53:16.000Z</time>
      </trkpt>
      <trkpt lat="45.68782" lon="3.06069">
        <ele>753</ele>
        <time>2019-06-23T06:53:17.000Z</time>
      </trkpt>
      <trkpt lat="45.68782" lon="3.06072">
        <ele>753</ele>
        <time>2019-06-23T06:53:18.000Z</time>
      </trkpt>
      <trkpt lat="45.68782" lon="3.06076">
        <ele>752</ele>
        <time>2019-06-23T06:53:19.000Z</time>
      </trkpt>
      <trkpt lat="45.68782" lon="3.06079">
        <ele>753</ele>
        <time>2019-06-23T06:53:20.000Z</time>
      </trkpt>
      <trkpt lat="45.68782" lon="3.06082">
        <ele>753</ele>
        <time>2019-06-23T06:53:21.000Z</time>
      </trkpt>
      <trkpt lat="45.68783" lon="3.06086">
        <ele>753</ele>
        <time>2019-06-23T06:53:22.000Z</time>
      </trkpt>
      <trkpt lat="45.68783" lon="3.06089">
        <ele>753</ele>
        <time>2019-06-23T06:53:23.000Z</time>
      </trkpt>
      <trkpt lat="45.68783" lon="3.06093">
        <ele>754</ele>
        <time>2019-06-23T06:53:24.000Z</time>
      </trkpt>
      <trkpt lat="45.68783" lon="3.06096">
        <ele>754</ele>
        <time>2019-06-23T06:53:25.000Z</time>
      </trkpt>
      <trkpt lat="45.68783" lon="3.06098">
        <ele>754</ele>
        <time>2019-06-23T06:53:26.000Z</time>
      </trkpt>
      <trkpt lat="45.68783" lon="3.06102">
        <ele>754</ele>
        <time>2019-06-23T06:53:27.000Z</time>
      </trkpt>
      <trkpt lat="45.68783" lon="3.06105">
        <ele>755</ele>
        <time>2019-06-23T06:53:28.000Z</time>
      </trkpt>
      <trkpt lat="45.68783" lon="3.0611">
        <ele>754</ele>
        <time>2019-06-23T06:53:29.000Z</time>
      </trkpt>
      <trkpt lat="45.68784" lon="3.06114">
        <ele>754</ele>
        <time>2019-06-23T06:53:30.000Z</time>
      </trkpt>
      <trkpt lat="45.68784" lon="3.06118">
        <ele>753</ele>
        <time>2019-06-23T06:53:31.000Z</time>
      </trkpt>
      <trkpt lat="45.68785" lon="3.06121">
        <ele>753</ele>
        <time>2019-06-23T06:53:32.000Z</time>
      </trkpt>
      <trkpt lat="45.68785" lon="3.06125">
        <ele>753</ele>
        <time>2019-06-23T06:53:33.000Z</time>
      </trkpt>
      <trkpt lat="45.68785" lon="3.06129">
        <ele>753</ele>
        <time>2019-06-23T06:53:34.000Z</time>
      </trkpt>
      <trkpt lat="45.68785" lon="3.06133">
        <ele>752</ele>
        <time>2019-06-23T06:53:35.000Z</time>
      </trkpt>
      <trkpt lat="45.68785" lon="3.06135">
        <ele>752</ele>
        <time>2019-06-23T06:53:36.000Z</time>
      </trkpt>
      <trkpt lat="45.68785" lon="3.06139">
        <ele>752</ele>
        <time>2019-06-23T06:53:37.000Z</time>
      </trkpt>
      <trkpt lat="45.68786" lon="3.06143">
        <ele>752</ele>
        <time>2019-06-23T06:53:38.000Z</time>
      </trkpt>
      <trkpt lat="45.68786" lon="3.06147">
        <ele>752</ele>
        <time>2019-06-23T06:53:39.000Z</time>
      </trkpt>
      <trkpt lat="45.68786" lon="3.0615">
        <ele>752</ele>
        <time>2019-06-23T06:53:40.000Z</time>
      </trkpt>
      <trkpt lat="45.68787" lon="3.06154">
        <ele>752</ele>
        <time>2019-06-23T06:53:41.000Z</time>
      </trkpt>
      <trkpt lat="45.68787" lon="3.06157">
        <ele>752</ele>
        <time>2019-06-23T06:53:42.000Z</time>
      </trkpt>
      <trkpt lat="45.68787" lon="3.06161">
        <ele>752</ele>
        <time>2019-06-23T06:53:43.000Z</time>
      </trkpt>
      <trkpt lat="45.68788" lon="3.06164">
        <ele>752</ele>
        <time>2019-06-23T06:53:44.000Z</time>
      </trkpt>
      <trkpt lat="45.68788" lon="3.06168">
        <ele>752</ele>
        <time>2019-06-23T06:53:45.000Z</time>
      </trkpt>
      <trkpt lat="45.68789" lon="3.06172">
        <ele>752</ele>
        <time>2019-06-23T06:53:46.000Z</time>
      </trkpt>
      <trkpt lat="45.68789" lon="3.06175">
        <ele>752</ele>
        <time>2019-06-23T06:53:47.000Z</time>
      </trkpt>
      <trkpt lat="45.68789" lon="3.06179">
        <ele>752</ele>
        <time>2019-06-23T06:53:48.000Z</time>
      </trkpt>
      <trkpt lat="45.68789" lon="3.06182">
        <ele>752</ele>
        <time>2019-06-23T06:53:49.000Z</time>
      </trkpt>
      <trkpt lat="45.6879" lon="3.06186">
        <ele>752</ele>
        <time>2019-06-23T06:53:50.000Z</time>
      </trkpt>
      <trkpt lat="45.6879" lon="3.06189">
        <ele>752</ele>
        <time>2019-06-23T06:53:51.000Z</time>
      </trkpt>
      <trkpt lat="45.6879" lon="3.06193">
        <ele>752</ele>
        <time>2019-06-23T06:53:52.000Z</time>
      </trkpt>
      <trkpt lat="45.6879" lon="3.06196">
        <ele>752</ele>
        <time>2019-06-23T06:53:53.000Z</time>
      </trkpt>
      <trkpt lat="45.6879" lon="3.062">
        <ele>751</ele>
        <time>2019-06-23T06:53:54.000Z</time>
      </trkpt>
      <trkpt lat="45.68791" lon="3.06204">
        <ele>750</ele>
        <time>2019-06-23T06:53:55.000Z</time>
      </trkpt>
      <trkpt lat="45.68791" lon="3.06209">
        <ele>750</ele>
        <time>2019-06-23T06:53:56.000Z</time>
      </trkpt>
      <trkpt lat="45.68792" lon="3.06213">
        <ele>750</ele>
        <time>2019-06-23T06:53:57.000Z</time>
      </trkpt>
      <trkpt lat="45.68792" lon="3.06218">
        <ele>749</ele>
        <time>2019-06-23T06:53:58.000Z</time>
      </trkpt>
      <trkpt lat="45.68792" lon="3.06222">
        <ele>749</ele>
        <time>2019-06-23T06:53:59.000Z</time>
      </trkpt>
      <trkpt lat="45.68792" lon="3.06226">
        <ele>749</ele>
        <time>2019-06-23T06:54:00.000Z</time>
      </trkpt>
      <trkpt lat="45.68793" lon="3.06231">
        <ele>749</ele>
        <time>2019-06-23T06:54:01.000Z</time>
      </trkpt>
      <trkpt lat="45.68794" lon="3.06236">
        <ele>748</ele>
        <time>2019-06-23T06:54:02.000Z</time>
      </trkpt>
      <trkpt lat="45.68795" lon="3.0624">
        <ele>748</ele>
        <time>2019-06-23T06:54:03.000Z</time>
      </trkpt>
      <trkpt lat="45.68795" lon="3.06244">
        <ele>747</ele>
        <time>2019-06-23T06:54:04.000Z</time>
      </trkpt>
      <trkpt lat="45.68796" lon="3.06246">
        <ele>747</ele>
        <time>2019-06-23T06:54:05.000Z</time>
      </trkpt>
      <trkpt lat="45.688" lon="3.0625">
        <ele>750</ele>
        <time>2019-06-23T06:54:06.000Z</time>
      </trkpt>
      <trkpt lat="45.688" lon="3.06252">
        <ele>749</ele>
        <time>2019-06-23T06:54:07.000Z</time>
      </trkpt>
      <trkpt lat="45.688" lon="3.06255">
        <ele>750</ele>
        <time>2019-06-23T06:54:08.000Z</time>
      </trkpt>
      <trkpt lat="45.688" lon="3.06258">
        <ele>749</ele>
        <time>2019-06-23T06:54:09.000Z</time>
      </trkpt>
      <trkpt lat="45.68798" lon="3.0626">
        <ele>749</ele>
        <time>2019-06-23T06:54:10.000Z</time>
      </trkpt>
      <trkpt lat="45.68797" lon="3.06264">
        <ele>749</ele>
        <time>2019-06-23T06:54:11.000Z</time>
      </trkpt>
      <trkpt lat="45.68795" lon="3.06267">
        <ele>749</ele>
        <time>2019-06-23T06:54:12.000Z</time>
      </trkpt>
      <trkpt lat="45.68794" lon="3.06271">
        <ele>749</ele>
        <time>2019-06-23T06:54:13.000Z</time>
      </trkpt>
      <trkpt lat="45.68792" lon="3.06274">
        <ele>749</ele>
        <time>2019-06-23T06:54:14.000Z</time>
      </trkpt>
      <trkpt lat="45.6879" lon="3.06277">
        <ele>749</ele>
        <time>2019-06-23T06:54:15.000Z</time>
      </trkpt>
      <trkpt lat="45.68788" lon="3.06281">
        <ele>749</ele>
        <time>2019-06-23T06:54:16.000Z</time>
      </trkpt>
      <trkpt lat="45.68786" lon="3.06284">
        <ele>749</ele>
        <time>2019-06-23T06:54:17.000Z</time>
      </trkpt>
      <trkpt lat="45.68783" lon="3.06287">
        <ele>749</ele>
        <time>2019-06-23T06:54:18.000Z</time>
      </trkpt>
      <trkpt lat="45.68781" lon="3.06291">
        <ele>750</ele>
        <time>2019-06-23T06:54:19.000Z</time>
      </trkpt>
      <trkpt lat="45.68779" lon="3.06294">
        <ele>750</ele>
        <time>2019-06-23T06:54:20.000Z</time>
      </trkpt>
      <trkpt lat="45.68777" lon="3.06298">
        <ele>750</ele>
        <time>2019-06-23T06:54:21.000Z</time>
      </trkpt>
      <trkpt lat="45.68775" lon="3.06301">
        <ele>750</ele>
        <time>2019-06-23T06:54:22.000Z</time>
      </trkpt>
      <trkpt lat="45.68773" lon="3.06305">
        <ele>751</ele>
        <time>2019-06-23T06:54:23.000Z</time>
      </trkpt>
      <trkpt lat="45.68771" lon="3.06308">
        <ele>751</ele>
        <time>2019-06-23T06:54:24.000Z</time>
      </trkpt>
      <trkpt lat="45.68769" lon="3.06311">
        <ele>751</ele>
        <time>2019-06-23T06:54:25.000Z</time>
      </trkpt>
      <trkpt lat="45.68767" lon="3.06315">
        <ele>752</ele>
        <time>2019-06-23T06:54:26.000Z</time>
      </trkpt>
      <trkpt lat="45.68765" lon="3.06318">
        <ele>752</ele>
        <time>2019-06-23T06:54:27.000Z</time>
      </trkpt>
      <trkpt lat="45.68762" lon="3.06322">
        <ele>752</ele>
        <time>2019-06-23T06:54:28.000Z</time>
      </trkpt>
      <trkpt lat="45.6876" lon="3.06325">
        <ele>752</ele>
        <time>2019-06-23T06:54:29.000Z</time>
      </trkpt>
      <trkpt lat="45.68758" lon="3.06329">
        <ele>752</ele>
        <time>2019-06-23T06:54:30.000Z</time>
      </trkpt>
      <trkpt lat="45.68756" lon="3.06332">
        <ele>752</ele>
        <time>2019-06-23T06:54:31.000Z</time>
      </trkpt>
      <trkpt lat="45.68754" lon="3.06335">
        <ele>753</ele>
        <time>2019-06-23T06:54:32.000Z</time>
      </trkpt>
      <trkpt lat="45.68752" lon="3.06339">
        <ele>753</ele>
        <time>2019-06-23T06:54:33.000Z</time>
      </trkpt>
      <trkpt lat="45.68749" lon="3.06344">
        <ele>753</ele>
        <time>2019-06-23T06:54:34.000Z</time>
      </trkpt>
      <trkpt lat="45.68746" lon="3.06348">
        <ele>753</ele>
        <time>2019-06-23T06:54:35.000Z</time>
      </trkpt>
      <trkpt lat="45.68743" lon="3.06352">
        <ele>753</ele>
        <time>2019-06-23T06:54:36.000Z</time>
      </trkpt>
      <trkpt lat="45.68741" lon="3.06356">
        <ele>753</ele>
        <time>2019-06-23T06:54:37.000Z</time>
      </trkpt>
      <trkpt lat="45.68738" lon="3.0636">
        <ele>753</ele>
        <time>2019-06-23T06:54:38.000Z</time>
      </trkpt>
      <trkpt lat="45.68736" lon="3.06364">
        <ele>753</ele>
        <time>2019-06-23T06:54:39.000Z</time>
      </trkpt>
      <trkpt lat="45.68733" lon="3.06368">
        <ele>753</ele>
        <time>2019-06-23T06:54:40.000Z</time>
      </trkpt>
      <trkpt lat="45.6873" lon="3.06372">
        <ele>753</ele>
        <time>2019-06-23T06:54:41.000Z</time>
      </trkpt>
      <trkpt lat="45.68728" lon="3.06377">
        <ele>753</ele>
        <time>2019-06-23T06:54:42.000Z</time>
      </trkpt>
      <trkpt lat="45.68726" lon="3.06381">
        <ele>753</ele>
        <time>2019-06-23T06:54:43.000Z</time>
      </trkpt>
      <trkpt lat="45.68723" lon="3.06385">
        <ele>754</ele>
        <time>2019-06-23T06:54:44.000Z</time>
      </trkpt>
      <trkpt lat="45.6872" lon="3.0639">
        <ele>754</ele>
        <time>2019-06-23T06:54:45.000Z</time>
      </trkpt>
      <trkpt lat="45.68717" lon="3.06394">
        <ele>754</ele>
        <time>2019-06-23T06:54:46.000Z</time>
      </trkpt>
      <trkpt lat="45.68715" lon="3.06399">
        <ele>754</ele>
        <time>2019-06-23T06:54:47.000Z</time>
      </trkpt>
      <trkpt lat="45.68712" lon="3.06403">
        <ele>754</ele>
        <time>2019-06-23T06:54:48.000Z</time>
      </trkpt>
      <trkpt lat="45.68709" lon="3.06407">
        <ele>754</ele>
        <time>2019-06-23T06:54:49.000Z</time>
      </trkpt>
      <trkpt lat="45.68706" lon="3.06411">
        <ele>754</ele>
        <time>2019-06-23T06:54:50.000Z</time>
      </trkpt>
      <trkpt lat="45.68703" lon="3.06415">
        <ele>755</ele>
        <time>2019-06-23T06:54:51.000Z</time>
      </trkpt>
      <trkpt lat="45.687" lon="3.0642">
        <ele>755</ele>
        <time>2019-06-23T06:54:52.000Z</time>
      </trkpt>
      <trkpt lat="45.68697" lon="3.06424">
        <ele>755</ele>
        <time>2019-06-23T06:54:53.000Z</time>
      </trkpt>
      <trkpt lat="45.68694" lon="3.06429">
        <ele>756</ele>
        <time>2019-06-23T06:54:54.000Z</time>
      </trkpt>
      <trkpt lat="45.68691" lon="3.06434">
        <ele>756</ele>
        <time>2019-06-23T06:54:55.000Z</time>
      </trkpt>
      <trkpt lat="45.68688" lon="3.06439">
        <ele>756</ele>
        <time>2019-06-23T06:54:56.000Z</time>
      </trkpt>
      <trkpt lat="45.68685" lon="3.06444">
        <ele>757</ele>
        <time>2019-06-23T06:54:57.000Z</time>
      </trkpt>
      <trkpt lat="45.68682" lon="3.06448">
        <ele>757</ele>
        <time>2019-06-23T06:54:58.000Z</time>
      </trkpt>
      <trkpt lat="45.68679" lon="3.06453">
        <ele>757</ele>
        <time>2019-06-23T06:54:59.000Z</time>
      </trkpt>
      <trkpt lat="45.68676" lon="3.06458">
        <ele>757</ele>
        <time>2019-06-23T06:55:00.000Z</time>
      </trkpt>
      <trkpt lat="45.68672" lon="3.06463">
        <ele>757</ele>
        <time>2019-06-23T06:55:01.000Z</time>
      </trkpt>
      <trkpt lat="45.68669" lon="3.06468">
        <ele>758</ele>
        <time>2019-06-23T06:55:02.000Z</time>
      </trkpt>
      <trkpt lat="45.68666" lon="3.06473">
        <ele>758</ele>
        <time>2019-06-23T06:55:03.000Z</time>
      </trkpt>
      <trkpt lat="45.68663" lon="3.06478">
        <ele>758</ele>
        <time>2019-06-23T06:55:04.000Z</time>
      </trkpt>
      <trkpt lat="45.68659" lon="3.06483">
        <ele>758</ele>
        <time>2019-06-23T06:55:05.000Z</time>
      </trkpt>
      <trkpt lat="45.68656" lon="3.06488">
        <ele>758</ele>
        <time>2019-06-23T06:55:06.000Z</time>
      </trkpt>
      <trkpt lat="45.68653" lon="3.06494">
        <ele>758</ele>
        <time>2019-06-23T06:55:07.000Z</time>
      </trkpt>
      <trkpt lat="45.68649" lon="3.065">
        <ele>758</ele>
        <time>2019-06-23T06:55:08.000Z</time>
      </trkpt>
      <trkpt lat="45.68645" lon="3.06505">
        <ele>758</ele>
        <time>2019-06-23T06:55:09.000Z</time>
      </trkpt>
      <trkpt lat="45.68642" lon="3.06511">
        <ele>759</ele>
        <time>2019-06-23T06:55:10.000Z</time>
      </trkpt>
      <trkpt lat="45.68639" lon="3.06516">
        <ele>759</ele>
        <time>2019-06-23T06:55:11.000Z</time>
      </trkpt>
      <trkpt lat="45.68636" lon="3.06523">
        <ele>759</ele>
        <time>2019-06-23T06:55:12.000Z</time>
      </trkpt>
      <trkpt lat="45.68632" lon="3.06528">
        <ele>759</ele>
        <time>2019-06-23T06:55:13.000Z</time>
      </trkpt>
      <trkpt lat="45.68629" lon="3.06534">
        <ele>760</ele>
        <time>2019-06-23T06:55:14.000Z</time>
      </trkpt>
      <trkpt lat="45.68626" lon="3.0654">
        <ele>760</ele>
        <time>2019-06-23T06:55:15.000Z</time>
      </trkpt>
      <trkpt lat="45.68623" lon="3.06545">
        <ele>760</ele>
        <time>2019-06-23T06:55:16.000Z</time>
      </trkpt>
      <trkpt lat="45.68618" lon="3.06552">
        <ele>760</ele>
        <time>2019-06-23T06:55:17.000Z</time>
      </trkpt>
      <trkpt lat="45.68614" lon="3.06559">
        <ele>760</ele>
        <time>2019-06-23T06:55:18.000Z</time>
      </trkpt>
      <trkpt lat="45.68611" lon="3.06564">
        <ele>759</ele>
        <time>2019-06-23T06:55:19.000Z</time>
      </trkpt>
      <trkpt lat="45.68606" lon="3.0657">
        <ele>760</ele>
        <time>2019-06-23T06:55:20.000Z</time>
      </trkpt>
      <trkpt lat="45.68602" lon="3.06577">
        <ele>760</ele>
        <time>2019-06-23T06:55:21.000Z</time>
      </trkpt>
      <trkpt lat="45.68597" lon="3.06583">
        <ele>761</ele>
        <time>2019-06-23T06:55:22.000Z</time>
      </trkpt>
      <trkpt lat="45.68593" lon="3.06589">
        <ele>761</ele>
        <time>2019-06-23T06:55:23.000Z</time>
      </trkpt>
      <trkpt lat="45.68589" lon="3.06595">
        <ele>761</ele>
        <time>2019-06-23T06:55:24.000Z</time>
      </trkpt>
      <trkpt lat="45.68585" lon="3.06601">
        <ele>761</ele>
        <time>2019-06-23T06:55:25.000Z</time>
      </trkpt>
      <trkpt lat="45.68581" lon="3.06606">
        <ele>761</ele>
        <time>2019-06-23T06:55:26.000Z</time>
      </trkpt>
      <trkpt lat="45.68576" lon="3.06612">
        <ele>762</ele>
        <time>2019-06-23T06:55:27.000Z</time>
      </trkpt>
      <trkpt lat="45.68572" lon="3.06618">
        <ele>762</ele>
        <time>2019-06-23T06:55:28.000Z</time>
      </trkpt>
      <trkpt lat="45.68569" lon="3.06624">
        <ele>761</ele>
        <time>2019-06-23T06:55:29.000Z</time>
      </trkpt>
      <trkpt lat="45.68566" lon="3.06629">
        <ele>761</ele>
        <time>2019-06-23T06:55:30.000Z</time>
      </trkpt>
      <trkpt lat="45.68562" lon="3.06635">
        <ele>761</ele>
        <time>2019-06-23T06:55:31.000Z</time>
      </trkpt>
      <trkpt lat="45.68558" lon="3.06641">
        <ele>761</ele>
        <time>2019-06-23T06:55:32.000Z</time>
      </trkpt>
      <trkpt lat="45.68554" lon="3.06647">
        <ele>761</ele>
        <time>2019-06-23T06:55:33.000Z</time>
      </trkpt>
      <trkpt lat="45.6855" lon="3.06653">
        <ele>761</ele>
        <time>2019-06-23T06:55:34.000Z</time>
      </trkpt>
      <trkpt lat="45.68547" lon="3.06658">
        <ele>761</ele>
        <time>2019-06-23T06:55:35.000Z</time>
      </trkpt>
      <trkpt lat="45.68543" lon="3.06664">
        <ele>760</ele>
        <time>2019-06-23T06:55:36.000Z</time>
      </trkpt>
      <trkpt lat="45.6854" lon="3.06671">
        <ele>760</ele>
        <time>2019-06-23T06:55:37.000Z</time>
      </trkpt>
      <trkpt lat="45.68536" lon="3.06677">
        <ele>760</ele>
        <time>2019-06-23T06:55:38.000Z</time>
      </trkpt>
      <trkpt lat="45.68532" lon="3.06683">
        <ele>760</ele>
        <time>2019-06-23T06:55:39.000Z</time>
      </trkpt>
      <trkpt lat="45.68528" lon="3.06689">
        <ele>760</ele>
        <time>2019-06-23T06:55:40.000Z</time>
      </trkpt>
      <trkpt lat="45.68523" lon="3.06696">
        <ele>760</ele>
        <time>2019-06-23T06:55:41.000Z</time>
      </trkpt>
      <trkpt lat="45.68519" lon="3.06702">
        <ele>759</ele>
        <time>2019-06-23T06:55:42.000Z</time>
      </trkpt>
      <trkpt lat="45.68515" lon="3.06709">
        <ele>760</ele>
        <time>2019-06-23T06:55:43.000Z</time>
      </trkpt>
      <trkpt lat="45.68511" lon="3.06715">
        <ele>760</ele>
        <time>2019-06-23T06:55:44.000Z</time>
      </trkpt>
      <trkpt lat="45.68507" lon="3.06722">
        <ele>759</ele>
        <time>2019-06-23T06:55:45.000Z</time>
      </trkpt>
      <trkpt lat="45.68503" lon="3.06728">
        <ele>759</ele>
        <time>2019-06-23T06:55:46.000Z</time>
      </trkpt>
      <trkpt lat="45.68499" lon="3.06735">
        <ele>758</ele>
        <time>2019-06-23T06:55:47.000Z</time>
      </trkpt>
      <trkpt lat="45.68495" lon="3.06741">
        <ele>757</ele>
        <time>2019-06-23T06:55:48.000Z</time>
      </trkpt>
      <trkpt lat="45.68491" lon="3.06747">
        <ele>757</ele>
        <time>2019-06-23T06:55:49.000Z</time>
      </trkpt>
      <trkpt lat="45.68487" lon="3.06753">
        <ele>756</ele>
        <time>2019-06-23T06:55:50.000Z</time>
      </trkpt>
      <trkpt lat="45.68484" lon="3.06758">
        <ele>756</ele>
        <time>2019-06-23T06:55:51.000Z</time>
      </trkpt>
      <trkpt lat="45.6848" lon="3.06763">
        <ele>755</ele>
        <time>2019-06-23T06:55:52.000Z</time>
      </trkpt>
      <trkpt lat="45.68477" lon="3.06768">
        <ele>755</ele>
        <time>2019-06-23T06:55:53.000Z</time>
      </trkpt>
      <trkpt lat="45.68473" lon="3.06773">
        <ele>754</ele>
        <time>2019-06-23T06:55:54.000Z</time>
      </trkpt>
      <trkpt lat="45.68469" lon="3.06778">
        <ele>753</ele>
        <time>2019-06-23T06:55:55.000Z</time>
      </trkpt>
      <trkpt lat="45.68465" lon="3.06783">
        <ele>753</ele>
        <time>2019-06-23T06:55:56.000Z</time>
      </trkpt>
      <trkpt lat="45.68461" lon="3.06789">
        <ele>752</ele>
        <time>2019-06-23T06:55:57.000Z</time>
      </trkpt>
      <trkpt lat="45.68458" lon="3.06794">
        <ele>752</ele>
        <time>2019-06-23T06:55:58.000Z</time>
      </trkpt>
      <trkpt lat="45.68454" lon="3.068">
        <ele>751</ele>
        <time>2019-06-23T06:55:59.000Z</time>
      </trkpt>
      <trkpt lat="45.68451" lon="3.06806">
        <ele>751</ele>
        <time>2019-06-23T06:56:00.000Z</time>
      </trkpt>
      <trkpt lat="45.68448" lon="3.06813">
        <ele>751</ele>
        <time>2019-06-23T06:56:01.000Z</time>
      </trkpt>
      <trkpt lat="45.68445" lon="3.06819">
        <ele>751</ele>
        <time>2019-06-23T06:56:02.000Z</time>
      </trkpt>
      <trkpt lat="45.68443" lon="3.06827">
        <ele>750</ele>
        <time>2019-06-23T06:56:03.000Z</time>
      </trkpt>
      <trkpt lat="45.68441" lon="3.06834">
        <ele>750</ele>
        <time>2019-06-23T06:56:04.000Z</time>
      </trkpt>
      <trkpt lat="45.68439" lon="3.06842">
        <ele>749</ele>
        <time>2019-06-23T06:56:05.000Z</time>
      </trkpt>
      <trkpt lat="45.68437" lon="3.06849">
        <ele>749</ele>
        <time>2019-06-23T06:56:06.000Z</time>
      </trkpt>
      <trkpt lat="45.68434" lon="3.06859">
        <ele>750</ele>
        <time>2019-06-23T06:56:07.000Z</time>
      </trkpt>
      <trkpt lat="45.68432" lon="3.06869">
        <ele>749</ele>
        <time>2019-06-23T06:56:08.000Z</time>
      </trkpt>
      <trkpt lat="45.68429" lon="3.06877">
        <ele>749</ele>
        <time>2019-06-23T06:56:09.000Z</time>
      </trkpt>
      <trkpt lat="45.68425" lon="3.06885">
        <ele>749</ele>
        <time>2019-06-23T06:56:10.000Z</time>
      </trkpt>
      <trkpt lat="45.68422" lon="3.06895">
        <ele>749</ele>
        <time>2019-06-23T06:56:11.000Z</time>
      </trkpt>
      <trkpt lat="45.68419" lon="3.06905">
        <ele>748</ele>
        <time>2019-06-23T06:56:12.000Z</time>
      </trkpt>
      <trkpt lat="45.68415" lon="3.06913">
        <ele>746</ele>
        <time>2019-06-23T06:56:13.000Z</time>
      </trkpt>
      <trkpt lat="45.68412" lon="3.06922">
        <ele>746</ele>
        <time>2019-06-23T06:56:14.000Z</time>
      </trkpt>
      <trkpt lat="45.68409" lon="3.06932">
        <ele>747</ele>
        <time>2019-06-23T06:56:15.000Z</time>
      </trkpt>
      <trkpt lat="45.68406" lon="3.06939">
        <ele>746</ele>
        <time>2019-06-23T06:56:16.000Z</time>
      </trkpt>
      <trkpt lat="45.68403" lon="3.06947">
        <ele>746</ele>
        <time>2019-06-23T06:56:17.000Z</time>
      </trkpt>
      <trkpt lat="45.68401" lon="3.06956">
        <ele>746</ele>
        <time>2019-06-23T06:56:18.000Z</time>
      </trkpt>
      <trkpt lat="45.68399" lon="3.06963">
        <ele>745</ele>
        <time>2019-06-23T06:56:19.000Z</time>
      </trkpt>
      <trkpt lat="45.68397" lon="3.06971">
        <ele>745</ele>
        <time>2019-06-23T06:56:20.000Z</time>
      </trkpt>
      <trkpt lat="45.68394" lon="3.06978">
        <ele>745</ele>
        <time>2019-06-23T06:56:21.000Z</time>
      </trkpt>
      <trkpt lat="45.68393" lon="3.06985">
        <ele>744</ele>
        <time>2019-06-23T06:56:22.000Z</time>
      </trkpt>
      <trkpt lat="45.68392" lon="3.06992">
        <ele>745</ele>
        <time>2019-06-23T06:56:23.000Z</time>
      </trkpt>
      <trkpt lat="45.68388" lon="3.06992">
        <ele>744</ele>
        <time>2019-06-23T06:56:24.000Z</time>
      </trkpt>
      <trkpt lat="45.68384" lon="3.06993">
        <ele>746</ele>
        <time>2019-06-23T06:56:25.000Z</time>
      </trkpt>
      <trkpt lat="45.68382" lon="3.06992">
        <ele>747</ele>
        <time>2019-06-23T06:56:26.000Z</time>
      </trkpt>
      <trkpt lat="45.68377" lon="3.06992">
        <ele>748</ele>
        <time>2019-06-23T06:56:27.000Z</time>
      </trkpt>
      <trkpt lat="45.68373" lon="3.06993">
        <ele>747</ele>
        <time>2019-06-23T06:56:28.000Z</time>
      </trkpt>
      <trkpt lat="45.68369" lon="3.06996">
        <ele>746</ele>
        <time>2019-06-23T06:56:29.000Z</time>
      </trkpt>
      <trkpt lat="45.68369" lon="3.07">
        <ele>747</ele>
        <time>2019-06-23T06:56:30.000Z</time>
      </trkpt>
      <trkpt lat="45.68368" lon="3.07004">
        <ele>746</ele>
        <time>2019-06-23T06:56:31.000Z</time>
      </trkpt>
      <trkpt lat="45.68367" lon="3.07007">
        <ele>746</ele>
        <time>2019-06-23T06:56:32.000Z</time>
      </trkpt>
      <trkpt lat="45.68367" lon="3.0701">
        <ele>746</ele>
        <time>2019-06-23T06:56:33.000Z</time>
      </trkpt>
      <trkpt lat="45.68367" lon="3.07011">
        <ele>745</ele>
        <time>2019-06-23T06:56:34.000Z</time>
      </trkpt>
      <trkpt lat="45.68369" lon="3.07011">
        <ele>746</ele>
        <time>2019-06-23T06:56:35.000Z</time>
      </trkpt>
      <trkpt lat="45.6837" lon="3.07012">
        <ele>746</ele>
        <time>2019-06-23T06:56:36.000Z</time>
      </trkpt>
      <trkpt lat="45.6837" lon="3.07012">
        <ele>745</ele>
        <time>2019-06-23T06:56:37.000Z</time>
      </trkpt>
      <trkpt lat="45.68371" lon="3.07019">
        <ele>739</ele>
        <time>2019-06-23T06:56:38.000Z</time>
      </trkpt>
      <trkpt lat="45.68371" lon="3.07018">
        <ele>739</ele>
        <time>2019-06-23T06:56:39.000Z</time>
      </trkpt>
      <trkpt lat="45.68371" lon="3.07017">
        <ele>739</ele>
        <time>2019-06-23T06:56:40.000Z</time>
      </trkpt>
      <trkpt lat="45.6837" lon="3.07016">
        <ele>740</ele>
        <time>2019-06-23T06:56:41.000Z</time>
      </trkpt>
      <trkpt lat="45.6837" lon="3.07016">
        <ele>740</ele>
        <time>2019-06-23T06:56:42.000Z</time>
      </trkpt>
      <trkpt lat="45.68369" lon="3.07016">
        <ele>740</ele>
        <time>2019-06-23T06:56:43.000Z</time>
      </trkpt>
      <trkpt lat="45.68368" lon="3.07015">
        <ele>739</ele>
        <time>2019-06-23T06:56:44.000Z</time>
      </trkpt>
      <trkpt lat="45.68368" lon="3.07015">
        <ele>740</ele>
        <time>2019-06-23T06:56:45.000Z</time>
      </trkpt>
      <trkpt lat="45.68368" lon="3.07015">
        <ele>740</ele>
        <time>2019-06-23T06:56:46.000Z</time>
      </trkpt>
      <trkpt lat="45.68368" lon="3.07015">
        <ele>739</ele>
        <time>2019-06-23T06:56:47.000Z</time>
      </trkpt>
      <trkpt lat="45.68368" lon="3.07015">
        <ele>739</ele>
        <time>2019-06-23T06:56:48.000Z</time>
      </trkpt>
      <trkpt lat="45.68368" lon="3.07016">
        <ele>740</ele>
        <time>2019-06-23T06:56:49.000Z</time>
      </trkpt>
      <trkpt lat="45.68368" lon="3.07016">
        <ele>740</ele>
        <time>2019-06-23T06:56:50.000Z</time>
      </trkpt>
      <trkpt lat="45.68368" lon="3.07016">
        <ele>740</ele>
        <time>2019-06-23T06:56:51.000Z</time>
      </trkpt>
      <trkpt lat="45.68366" lon="3.07011">
        <ele>740</ele>
        <time>2019-06-23T06:56:52.000Z</time>
      </trkpt>
      <trkpt lat="45.68366" lon="3.07008">
        <ele>740</ele>
        <time>2019-06-23T06:56:53.000Z</time>
      </trkpt>
      <trkpt lat="45.68367" lon="3.07006">
        <ele>740</ele>
        <time>2019-06-23T06:56:54.000Z</time>
      </trkpt>
      <trkpt lat="45.68368" lon="3.07004">
        <ele>741</ele>
        <time>2019-06-23T06:56:55.000Z</time>
      </trkpt>
      <trkpt lat="45.6837" lon="3.07003">
        <ele>741</ele>
        <time>2019-06-23T06:56:56.000Z</time>
      </trkpt>
      <trkpt lat="45.68372" lon="3.07001">
        <ele>741</ele>
        <time>2019-06-23T06:56:57.000Z</time>
      </trkpt>
      <trkpt lat="45.68374" lon="3.07001">
        <ele>742</ele>
        <time>2019-06-23T06:56:58.000Z</time>
      </trkpt>
      <trkpt lat="45.68377" lon="3.07001">
        <ele>742</ele>
        <time>2019-06-23T06:56:59.000Z</time>
      </trkpt>
      <trkpt lat="45.6838" lon="3.07001">
        <ele>742</ele>
        <time>2019-06-23T06:57:00.000Z</time>
      </trkpt>
      <trkpt lat="45.68382" lon="3.07002">
        <ele>742</ele>
        <time>2019-06-23T06:57:01.000Z</time>
      </trkpt>
      <trkpt lat="45.68384" lon="3.07003">
        <ele>742</ele>
        <time>2019-06-23T06:57:02.000Z</time>
      </trkpt>
      <trkpt lat="45.68386" lon="3.07004">
        <ele>742</ele>
        <time>2019-06-23T06:57:03.000Z</time>
      </trkpt>
      <trkpt lat="45.68387" lon="3.07005">
        <ele>742</ele>
        <time>2019-06-23T06:57:04.000Z</time>
      </trkpt>
      <trkpt lat="45.68389" lon="3.07005">
        <ele>742</ele>
        <time>2019-06-23T06:57:05.000Z</time>
      </trkpt>
      <trkpt lat="45.68389" lon="3.07004">
        <ele>742</ele>
        <time>2019-06-23T06:57:06.000Z</time>
      </trkpt>
      <trkpt lat="45.6839" lon="3.07002">
        <ele>743</ele>
        <time>2019-06-23T06:57:07.000Z</time>
      </trkpt>
      <trkpt lat="45.68391" lon="3.07">
        <ele>743</ele>
        <time>2019-06-23T06:57:08.000Z</time>
      </trkpt>
      <trkpt lat="45.68392" lon="3.06997">
        <ele>744</ele>
        <time>2019-06-23T06:57:09.000Z</time>
      </trkpt>
      <trkpt lat="45.68393" lon="3.06993">
        <ele>743</ele>
        <time>2019-06-23T06:57:10.000Z</time>
      </trkpt>
      <trkpt lat="45.68395" lon="3.06987">
        <ele>743</ele>
        <time>2019-06-23T06:57:11.000Z</time>
      </trkpt>
      <trkpt lat="45.68396" lon="3.06982">
        <ele>743</ele>
        <time>2019-06-23T06:57:12.000Z</time>
      </trkpt>
      <trkpt lat="45.68398" lon="3.06976">
        <ele>743</ele>
        <time>2019-06-23T06:57:13.000Z</time>
      </trkpt>
      <trkpt lat="45.68401" lon="3.06968">
        <ele>743</ele>
        <time>2019-06-23T06:57:14.000Z</time>
      </trkpt>
      <trkpt lat="45.68402" lon="3.06961">
        <ele>743</ele>
        <time>2019-06-23T06:57:15.000Z</time>
      </trkpt>
      <trkpt lat="45.68404" lon="3.06955">
        <ele>743</ele>
        <time>2019-06-23T06:57:16.000Z</time>
      </trkpt>
      <trkpt lat="45.68407" lon="3.06949">
        <ele>742</ele>
        <time>2019-06-23T06:57:17.000Z</time>
      </trkpt>
      <trkpt lat="45.6841" lon="3.06943">
        <ele>742</ele>
        <time>2019-06-23T06:57:18.000Z</time>
      </trkpt>
      <trkpt lat="45.68412" lon="3.06937">
        <ele>743</ele>
        <time>2019-06-23T06:57:19.000Z</time>
      </trkpt>
      <trkpt lat="45.68414" lon="3.06931">
        <ele>743</ele>
        <time>2019-06-23T06:57:20.000Z</time>
      </trkpt>
      <trkpt lat="45.68416" lon="3.06925">
        <ele>743</ele>
        <time>2019-06-23T06:57:21.000Z</time>
      </trkpt>
      <trkpt lat="45.68418" lon="3.06919">
        <ele>743</ele>
        <time>2019-06-23T06:57:22.000Z</time>
      </trkpt>
      <trkpt lat="45.68421" lon="3.06913">
        <ele>743</ele>
        <time>2019-06-23T06:57:23.000Z</time>
      </trkpt>
      <trkpt lat="45.68423" lon="3.06908">
        <ele>743</ele>
        <time>2019-06-23T06:57:24.000Z</time>
      </trkpt>
      <trkpt lat="45.68426" lon="3.06903">
        <ele>743</ele>
        <time>2019-06-23T06:57:25.000Z</time>
      </trkpt>
      <trkpt lat="45.68428" lon="3.06898">
        <ele>743</ele>
        <time>2019-06-23T06:57:26.000Z</time>
      </trkpt>
      <trkpt lat="45.6843" lon="3.06894">
        <ele>743</ele>
        <time>2019-06-23T06:57:27.000Z</time>
      </trkpt>
      <trkpt lat="45.68432" lon="3.06889">
        <ele>743</ele>
        <time>2019-06-23T06:57:28.000Z</time>
      </trkpt>
      <trkpt lat="45.68433" lon="3.06885">
        <ele>743</ele>
        <time>2019-06-23T06:57:29.000Z</time>
      </trkpt>
      <trkpt lat="45.68434" lon="3.06881">
        <ele>744</ele>
        <time>2019-06-23T06:57:30.000Z</time>
      </trkpt>
      <trkpt lat="45.68435" lon="3.06876">
        <ele>744</ele>
        <time>2019-06-23T06:57:31.000Z</time>
      </trkpt>
      <trkpt lat="45.68436" lon="3.06872">
        <ele>744</ele>
        <time>2019-06-23T06:57:32.000Z</time>
      </trkpt>
      <trkpt lat="45.68437" lon="3.06868">
        <ele>744</ele>
        <time>2019-06-23T06:57:33.000Z</time>
      </trkpt>
      <trkpt lat="45.68438" lon="3.06863">
        <ele>744</ele>
        <time>2019-06-23T06:57:34.000Z</time>
      </trkpt>
      <trkpt lat="45.6844" lon="3.06859">
        <ele>744</ele>
        <time>2019-06-23T06:57:35.000Z</time>
      </trkpt>
      <trkpt lat="45.68441" lon="3.06855">
        <ele>744</ele>
        <time>2019-06-23T06:57:36.000Z</time>
      </trkpt>
      <trkpt lat="45.68442" lon="3.06851">
        <ele>744</ele>
        <time>2019-06-23T06:57:37.000Z</time>
      </trkpt>
      <trkpt lat="45.68443" lon="3.06847">
        <ele>744</ele>
        <time>2019-06-23T06:57:38.000Z</time>
      </trkpt>
      <trkpt lat="45.68444" lon="3.06844">
        <ele>744</ele>
        <time>2019-06-23T06:57:39.000Z</time>
      </trkpt>
      <trkpt lat="45.68444" lon="3.06841">
        <ele>744</ele>
        <time>2019-06-23T06:57:40.000Z</time>
      </trkpt>
      <trkpt lat="45.68444" lon="3.06837">
        <ele>744</ele>
        <time>2019-06-23T06:57:41.000Z</time>
      </trkpt>
      <trkpt lat="45.68445" lon="3.06834">
        <ele>745</ele>
        <time>2019-06-23T06:57:42.000Z</time>
      </trkpt>
      <trkpt lat="45.68445" lon="3.0683">
        <ele>745</ele>
        <time>2019-06-23T06:57:43.000Z</time>
      </trkpt>
      <trkpt lat="45.68444" lon="3.06828">
        <ele>745</ele>
        <time>2019-06-23T06:57:44.000Z</time>
      </trkpt>
      <trkpt lat="45.68444" lon="3.06825">
        <ele>745</ele>
        <time>2019-06-23T06:57:45.000Z</time>
      </trkpt>
      <trkpt lat="45.68445" lon="3.06823">
        <ele>745</ele>
        <time>2019-06-23T06:57:46.000Z</time>
      </trkpt>
      <trkpt lat="45.68447" lon="3.0682">
        <ele>745</ele>
        <time>2019-06-23T06:57:47.000Z</time>
      </trkpt>
      <trkpt lat="45.68448" lon="3.06818">
        <ele>746</ele>
        <time>2019-06-23T06:57:48.000Z</time>
      </trkpt>
      <trkpt lat="45.6845" lon="3.06815">
        <ele>746</ele>
        <time>2019-06-23T06:57:49.000Z</time>
      </trkpt>
      <trkpt lat="45.68451" lon="3.06813">
        <ele>746</ele>
        <time>2019-06-23T06:57:50.000Z</time>
      </trkpt>
      <trkpt lat="45.68452" lon="3.0681">
        <ele>746</ele>
        <time>2019-06-23T06:57:51.000Z</time>
      </trkpt>
      <trkpt lat="45.68453" lon="3.06807">
        <ele>746</ele>
        <time>2019-06-23T06:57:52.000Z</time>
      </trkpt>
      <trkpt lat="45.68454" lon="3.06804">
        <ele>746</ele>
        <time>2019-06-23T06:57:53.000Z</time>
      </trkpt>
      <trkpt lat="45.68455" lon="3.06802">
        <ele>747</ele>
        <time>2019-06-23T06:57:54.000Z</time>
      </trkpt>
      <trkpt lat="45.68456" lon="3.06799">
        <ele>747</ele>
        <time>2019-06-23T06:57:55.000Z</time>
      </trkpt>
      <trkpt lat="45.68457" lon="3.06796">
        <ele>747</ele>
        <time>2019-06-23T06:57:56.000Z</time>
      </trkpt>
      <trkpt lat="45.68458" lon="3.06793">
        <ele>747</ele>
        <time>2019-06-23T06:57:57.000Z</time>
      </trkpt>
      <trkpt lat="45.68459" lon="3.0679">
        <ele>748</ele>
        <time>2019-06-23T06:57:58.000Z</time>
      </trkpt>
      <trkpt lat="45.68459" lon="3.06787">
        <ele>748</ele>
        <time>2019-06-23T06:57:59.000Z</time>
      </trkpt>
      <trkpt lat="45.6846" lon="3.06784">
        <ele>748</ele>
        <time>2019-06-23T06:58:00.000Z</time>
      </trkpt>
      <trkpt lat="45.6846" lon="3.0678">
        <ele>748</ele>
        <time>2019-06-23T06:58:01.000Z</time>
      </trkpt>
      <trkpt lat="45.68461" lon="3.06776">
        <ele>748</ele>
        <time>2019-06-23T06:58:02.000Z</time>
      </trkpt>
      <trkpt lat="45.68461" lon="3.06773">
        <ele>748</ele>
        <time>2019-06-23T06:58:03.000Z</time>
      </trkpt>
      <trkpt lat="45.68462" lon="3.06769">
        <ele>748</ele>
        <time>2019-06-23T06:58:04.000Z</time>
      </trkpt>
      <trkpt lat="45.68462" lon="3.06764">
        <ele>749</ele>
        <time>2019-06-23T06:58:05.000Z</time>
      </trkpt>
      <trkpt lat="45.68462" lon="3.0676">
        <ele>749</ele>
        <time>2019-06-23T06:58:06.000Z</time>
      </trkpt>
      <trkpt lat="45.68462" lon="3.06756">
        <ele>749</ele>
        <time>2019-06-23T06:58:07.000Z</time>
      </trkpt>
      <trkpt lat="45.68462" lon="3.06751">
        <ele>749</ele>
        <time>2019-06-23T06:58:08.000Z</time>
      </trkpt>
      <trkpt lat="45.68462" lon="3.06747">
        <ele>749</ele>
        <time>2019-06-23T06:58:09.000Z</time>
      </trkpt>
      <trkpt lat="45.68462" lon="3.06743">
        <ele>749</ele>
        <time>2019-06-23T06:58:10.000Z</time>
      </trkpt>
      <trkpt lat="45.68462" lon="3.06738">
        <ele>749</ele>
        <time>2019-06-23T06:58:11.000Z</time>
      </trkpt>
      <trkpt lat="45.68462" lon="3.06734">
        <ele>749</ele>
        <time>2019-06-23T06:58:12.000Z</time>
      </trkpt>
      <trkpt lat="45.68462" lon="3.06729">
        <ele>750</ele>
        <time>2019-06-23T06:58:13.000Z</time>
      </trkpt>
      <trkpt lat="45.68461" lon="3.06724">
        <ele>750</ele>
        <time>2019-06-23T06:58:14.000Z</time>
      </trkpt>
      <trkpt lat="45.68461" lon="3.0672">
        <ele>751</ele>
        <time>2019-06-23T06:58:15.000Z</time>
      </trkpt>
      <trkpt lat="45.68461" lon="3.06715">
        <ele>751</ele>
        <time>2019-06-23T06:58:16.000Z</time>
      </trkpt>
      <trkpt lat="45.68461" lon="3.0671">
        <ele>751</ele>
        <time>2019-06-23T06:58:17.000Z</time>
      </trkpt>
      <trkpt lat="45.68461" lon="3.06706">
        <ele>751</ele>
        <time>2019-06-23T06:58:18.000Z</time>
      </trkpt>
      <trkpt lat="45.68461" lon="3.06701">
        <ele>751</ele>
        <time>2019-06-23T06:58:19.000Z</time>
      </trkpt>
      <trkpt lat="45.68461" lon="3.06696">
        <ele>752</ele>
        <time>2019-06-23T06:58:20.000Z</time>
      </trkpt>
      <trkpt lat="45.6846" lon="3.06692">
        <ele>752</ele>
        <time>2019-06-23T06:58:21.000Z</time>
      </trkpt>
      <trkpt lat="45.6846" lon="3.06687">
        <ele>752</ele>
        <time>2019-06-23T06:58:22.000Z</time>
      </trkpt>
      <trkpt lat="45.68459" lon="3.06682">
        <ele>752</ele>
        <time>2019-06-23T06:58:23.000Z</time>
      </trkpt>
      <trkpt lat="45.68459" lon="3.06677">
        <ele>752</ele>
        <time>2019-06-23T06:58:24.000Z</time>
      </trkpt>
      <trkpt lat="45.68459" lon="3.06672">
        <ele>752</ele>
        <time>2019-06-23T06:58:25.000Z</time>
      </trkpt>
      <trkpt lat="45.68459" lon="3.06667">
        <ele>753</ele>
        <time>2019-06-23T06:58:26.000Z</time>
      </trkpt>
      <trkpt lat="45.68459" lon="3.06662">
        <ele>753</ele>
        <time>2019-06-23T06:58:27.000Z</time>
      </trkpt>
      <trkpt lat="45.68459" lon="3.06658">
        <ele>753</ele>
        <time>2019-06-23T06:58:28.000Z</time>
      </trkpt>
      <trkpt lat="45.68459" lon="3.06653">
        <ele>753</ele>
        <time>2019-06-23T06:58:29.000Z</time>
      </trkpt>
      <trkpt lat="45.68459" lon="3.06648">
        <ele>753</ele>
        <time>2019-06-23T06:58:30.000Z</time>
      </trkpt>
      <trkpt lat="45.68459" lon="3.06643">
        <ele>754</ele>
        <time>2019-06-23T06:58:31.000Z</time>
      </trkpt>
      <trkpt lat="45.68459" lon="3.06639">
        <ele>754</ele>
        <time>2019-06-23T06:58:32.000Z</time>
      </trkpt>
      <trkpt lat="45.68459" lon="3.06634">
        <ele>754</ele>
        <time>2019-06-23T06:58:33.000Z</time>
      </trkpt>
      <trkpt lat="45.68459" lon="3.06629">
        <ele>754</ele>
        <time>2019-06-23T06:58:34.000Z</time>
      </trkpt>
      <trkpt lat="45.68459" lon="3.06624">
        <ele>755</ele>
        <time>2019-06-23T06:58:35.000Z</time>
      </trkpt>
      <trkpt lat="45.6846" lon="3.06619">
        <ele>755</ele>
        <time>2019-06-23T06:58:36.000Z</time>
      </trkpt>
      <trkpt lat="45.6846" lon="3.06614">
        <ele>755</ele>
        <time>2019-06-23T06:58:37.000Z</time>
      </trkpt>
      <trkpt lat="45.6846" lon="3.06609">
        <ele>755</ele>
        <time>2019-06-23T06:58:38.000Z</time>
      </trkpt>
      <trkpt lat="45.6846" lon="3.06605">
        <ele>755</ele>
        <time>2019-06-23T06:58:39.000Z</time>
      </trkpt>
      <trkpt lat="45.68461" lon="3.066">
        <ele>756</ele>
        <time>2019-06-23T06:58:40.000Z</time>
      </trkpt>
      <trkpt lat="45.68461" lon="3.06595">
        <ele>756</ele>
        <time>2019-06-23T06:58:41.000Z</time>
      </trkpt>
      <trkpt lat="45.68462" lon="3.06591">
        <ele>756</ele>
        <time>2019-06-23T06:58:42.000Z</time>
      </trkpt>
      <trkpt lat="45.68462" lon="3.06586">
        <ele>756</ele>
        <time>2019-06-23T06:58:43.000Z</time>
      </trkpt>
      <trkpt lat="45.68462" lon="3.06581">
        <ele>756</ele>
        <time>2019-06-23T06:58:44.000Z</time>
      </trkpt>
      <trkpt lat="45.68462" lon="3.06576">
        <ele>757</ele>
        <time>2019-06-23T06:58:45.000Z</time>
      </trkpt>
      <trkpt lat="45.68463" lon="3.06571">
        <ele>757</ele>
        <time>2019-06-23T06:58:46.000Z</time>
      </trkpt>
      <trkpt lat="45.68463" lon="3.06567">
        <ele>757</ele>
        <time>2019-06-23T06:58:47.000Z</time>
      </trkpt>
      <trkpt lat="45.68463" lon="3.06562">
        <ele>757</ele>
        <time>2019-06-23T06:58:48.000Z</time>
      </trkpt>
      <trkpt lat="45.68463" lon="3.06557">
        <ele>757</ele>
        <time>2019-06-23T06:58:49.000Z</time>
      </trkpt>
      <trkpt lat="45.68464" lon="3.06553">
        <ele>758</ele>
        <time>2019-06-23T06:58:50.000Z</time>
      </trkpt>
      <trkpt lat="45.68463" lon="3.06548">
        <ele>758</ele>
        <time>2019-06-23T06:58:51.000Z</time>
      </trkpt>
      <trkpt lat="45.68463" lon="3.06543">
        <ele>758</ele>
        <time>2019-06-23T06:58:52.000Z</time>
      </trkpt>
      <trkpt lat="45.68464" lon="3.06538">
        <ele>758</ele>
        <time>2019-06-23T06:58:53.000Z</time>
      </trkpt>
      <trkpt lat="45.68464" lon="3.06533">
        <ele>758</ele>
        <time>2019-06-23T06:58:54.000Z</time>
      </trkpt>
      <trkpt lat="45.68465" lon="3.06528">
        <ele>759</ele>
        <time>2019-06-23T06:58:55.000Z</time>
      </trkpt>
      <trkpt lat="45.68465" lon="3.06523">
        <ele>759</ele>
        <time>2019-06-23T06:58:56.000Z</time>
      </trkpt>
      <trkpt lat="45.68465" lon="3.06518">
        <ele>759</ele>
        <time>2019-06-23T06:58:57.000Z</time>
      </trkpt>
      <trkpt lat="45.68466" lon="3.06514">
        <ele>759</ele>
        <time>2019-06-23T06:58:58.000Z</time>
      </trkpt>
      <trkpt lat="45.68466" lon="3.06509">
        <ele>760</ele>
        <time>2019-06-23T06:58:59.000Z</time>
      </trkpt>
      <trkpt lat="45.68466" lon="3.06504">
        <ele>760</ele>
        <time>2019-06-23T06:59:00.000Z</time>
      </trkpt>
      <trkpt lat="45.68466" lon="3.06499">
        <ele>760</ele>
        <time>2019-06-23T06:59:01.000Z</time>
      </trkpt>
      <trkpt lat="45.68467" lon="3.06495">
        <ele>760</ele>
        <time>2019-06-23T06:59:02.000Z</time>
      </trkpt>
      <trkpt lat="45.68467" lon="3.0649">
        <ele>760</ele>
        <time>2019-06-23T06:59:03.000Z</time>
      </trkpt>
      <trkpt lat="45.68467" lon="3.06485">
        <ele>761</ele>
        <time>2019-06-23T06:59:04.000Z</time>
      </trkpt>
      <trkpt lat="45.68467" lon="3.0648">
        <ele>761</ele>
        <time>2019-06-23T06:59:05.000Z</time>
      </trkpt>
      <trkpt lat="45.68467" lon="3.06476">
        <ele>761</ele>
        <time>2019-06-23T06:59:06.000Z</time>
      </trkpt>
      <trkpt lat="45.68467" lon="3.06471">
        <ele>761</ele>
        <time>2019-06-23T06:59:07.000Z</time>
      </trkpt>
      <trkpt lat="45.68467" lon="3.06466">
        <ele>761</ele>
        <time>2019-06-23T06:59:08.000Z</time>
      </trkpt>
      <trkpt lat="45.68466" lon="3.06461">
        <ele>762</ele>
        <time>2019-06-23T06:59:09.000Z</time>
      </trkpt>
      <trkpt lat="45.68466" lon="3.06456">
        <ele>762</ele>
        <time>2019-06-23T06:59:10.000Z</time>
      </trkpt>
      <trkpt lat="45.68466" lon="3.06451">
        <ele>762</ele>
        <time>2019-06-23T06:59:11.000Z</time>
      </trkpt>
      <trkpt lat="45.68465" lon="3.06446">
        <ele>762</ele>
        <time>2019-06-23T06:59:12.000Z</time>
      </trkpt>
      <trkpt lat="45.68465" lon="3.06441">
        <ele>762</ele>
        <time>2019-06-23T06:59:13.000Z</time>
      </trkpt>
      <trkpt lat="45.68464" lon="3.06436">
        <ele>763</ele>
        <time>2019-06-23T06:59:14.000Z</time>
      </trkpt>
      <trkpt lat="45.68464" lon="3.06431">
        <ele>763</ele>
        <time>2019-06-23T06:59:15.000Z</time>
      </trkpt>
      <trkpt lat="45.68463" lon="3.06426">
        <ele>763</ele>
        <time>2019-06-23T06:59:16.000Z</time>
      </trkpt>
      <trkpt lat="45.68463" lon="3.06421">
        <ele>763</ele>
        <time>2019-06-23T06:59:17.000Z</time>
      </trkpt>
      <trkpt lat="45.68462" lon="3.06417">
        <ele>763</ele>
        <time>2019-06-23T06:59:18.000Z</time>
      </trkpt>
      <trkpt lat="45.68462" lon="3.06412">
        <ele>763</ele>
        <time>2019-06-23T06:59:19.000Z</time>
      </trkpt>
      <trkpt lat="45.68461" lon="3.06407">
        <ele>764</ele>
        <time>2019-06-23T06:59:20.000Z</time>
      </trkpt>
      <trkpt lat="45.6846" lon="3.06402">
        <ele>763</ele>
        <time>2019-06-23T06:59:21.000Z</time>
      </trkpt>
      <trkpt lat="45.68459" lon="3.06398">
        <ele>764</ele>
        <time>2019-06-23T06:59:22.000Z</time>
      </trkpt>
      <trkpt lat="45.68459" lon="3.06393">
        <ele>764</ele>
        <time>2019-06-23T06:59:23.000Z</time>
      </trkpt>
      <trkpt lat="45.68458" lon="3.06388">
        <ele>764</ele>
        <time>2019-06-23T06:59:24.000Z</time>
      </trkpt>
      <trkpt lat="45.68457" lon="3.06383">
        <ele>764</ele>
        <time>2019-06-23T06:59:25.000Z</time>
      </trkpt>
      <trkpt lat="45.68457" lon="3.06378">
        <ele>764</ele>
        <time>2019-06-23T06:59:26.000Z</time>
      </trkpt>
      <trkpt lat="45.68456" lon="3.06373">
        <ele>765</ele>
        <time>2019-06-23T06:59:27.000Z</time>
      </trkpt>
      <trkpt lat="45.68455" lon="3.06368">
        <ele>765</ele>
        <time>2019-06-23T06:59:28.000Z</time>
      </trkpt>
      <trkpt lat="45.68455" lon="3.06363">
        <ele>765</ele>
        <time>2019-06-23T06:59:29.000Z</time>
      </trkpt>
      <trkpt lat="45.68454" lon="3.06358">
        <ele>765</ele>
        <time>2019-06-23T06:59:30.000Z</time>
      </trkpt>
      <trkpt lat="45.68454" lon="3.06353">
        <ele>765</ele>
        <time>2019-06-23T06:59:31.000Z</time>
      </trkpt>
      <trkpt lat="45.68454" lon="3.06348">
        <ele>765</ele>
        <time>2019-06-23T06:59:32.000Z</time>
      </trkpt>
      <trkpt lat="45.68454" lon="3.06343">
        <ele>765</ele>
        <time>2019-06-23T06:59:33.000Z</time>
      </trkpt>
      <trkpt lat="45.68453" lon="3.06338">
        <ele>765</ele>
        <time>2019-06-23T06:59:34.000Z</time>
      </trkpt>
      <trkpt lat="45.68453" lon="3.06333">
        <ele>766</ele>
        <time>2019-06-23T06:59:35.000Z</time>
      </trkpt>
      <trkpt lat="45.68454" lon="3.06328">
        <ele>765</ele>
        <time>2019-06-23T06:59:36.000Z</time>
      </trkpt>
      <trkpt lat="45.68453" lon="3.06323">
        <ele>766</ele>
        <time>2019-06-23T06:59:37.000Z</time>
      </trkpt>
      <trkpt lat="45.68453" lon="3.06317">
        <ele>766</ele>
        <time>2019-06-23T06:59:38.000Z</time>
      </trkpt>
      <trkpt lat="45.68452" lon="3.06313">
        <ele>766</ele>
        <time>2019-06-23T06:59:39.000Z</time>
      </trkpt>
      <trkpt lat="45.68452" lon="3.06307">
        <ele>766</ele>
        <time>2019-06-23T06:59:40.000Z</time>
      </trkpt>
      <trkpt lat="45.68452" lon="3.06302">
        <ele>767</ele>
        <time>2019-06-23T06:59:41.000Z</time>
      </trkpt>
      <trkpt lat="45.68452" lon="3.06297">
        <ele>767</ele>
        <time>2019-06-23T06:59:42.000Z</time>
      </trkpt>
      <trkpt lat="45.68452" lon="3.06292">
        <ele>767</ele>
        <time>2019-06-23T06:59:43.000Z</time>
      </trkpt>
      <trkpt lat="45.68452" lon="3.06287">
        <ele>767</ele>
        <time>2019-06-23T06:59:44.000Z</time>
      </trkpt>
      <trkpt lat="45.68452" lon="3.06282">
        <ele>767</ele>
        <time>2019-06-23T06:59:45.000Z</time>
      </trkpt>
      <trkpt lat="45.68452" lon="3.06277">
        <ele>768</ele>
        <time>2019-06-23T06:59:46.000Z</time>
      </trkpt>
      <trkpt lat="45.68452" lon="3.06271">
        <ele>768</ele>
        <time>2019-06-23T06:59:47.000Z</time>
      </trkpt>
      <trkpt lat="45.68452" lon="3.06266">
        <ele>768</ele>
        <time>2019-06-23T06:59:48.000Z</time>
      </trkpt>
      <trkpt lat="45.68451" lon="3.06261">
        <ele>768</ele>
        <time>2019-06-23T06:59:49.000Z</time>
      </trkpt>
      <trkpt lat="45.68451" lon="3.06256">
        <ele>768</ele>
        <time>2019-06-23T06:59:50.000Z</time>
      </trkpt>
      <trkpt lat="45.68451" lon="3.0625">
        <ele>769</ele>
        <time>2019-06-23T06:59:51.000Z</time>
      </trkpt>
      <trkpt lat="45.68451" lon="3.06245">
        <ele>769</ele>
        <time>2019-06-23T06:59:52.000Z</time>
      </trkpt>
      <trkpt lat="45.68451" lon="3.0624">
        <ele>769</ele>
        <time>2019-06-23T06:59:53.000Z</time>
      </trkpt>
      <trkpt lat="45.6845" lon="3.06235">
        <ele>769</ele>
        <time>2019-06-23T06:59:54.000Z</time>
      </trkpt>
      <trkpt lat="45.6845" lon="3.0623">
        <ele>770</ele>
        <time>2019-06-23T06:59:55.000Z</time>
      </trkpt>
      <trkpt lat="45.6845" lon="3.06224">
        <ele>770</ele>
        <time>2019-06-23T06:59:56.000Z</time>
      </trkpt>
      <trkpt lat="45.6845" lon="3.06219">
        <ele>770</ele>
        <time>2019-06-23T06:59:57.000Z</time>
      </trkpt>
      <trkpt lat="45.68449" lon="3.06214">
        <ele>770</ele>
        <time>2019-06-23T06:59:58.000Z</time>
      </trkpt>
      <trkpt lat="45.68449" lon="3.06209">
        <ele>770</ele>
        <time>2019-06-23T06:59:59.000Z</time>
      </trkpt>
      <trkpt lat="45.68448" lon="3.06203">
        <ele>770</ele>
        <time>2019-06-23T07:00:00.000Z</time>
      </trkpt>
      <trkpt lat="45.68448" lon="3.06198">
        <ele>771</ele>
        <time>2019-06-23T07:00:01.000Z</time>
      </trkpt>
      <trkpt lat="45.68448" lon="3.06193">
        <ele>771</ele>
        <time>2019-06-23T07:00:02.000Z</time>
      </trkpt>
      <trkpt lat="45.68447" lon="3.06187">
        <ele>771</ele>
        <time>2019-06-23T07:00:03.000Z</time>
      </trkpt>
      <trkpt lat="45.68447" lon="3.06182">
        <ele>771</ele>
        <time>2019-06-23T07:00:04.000Z</time>
      </trkpt>
      <trkpt lat="45.68447" lon="3.06176">
        <ele>772</ele>
        <time>2019-06-23T07:00:05.000Z</time>
      </trkpt>
      <trkpt lat="45.68447" lon="3.06171">
        <ele>772</ele>
        <time>2019-06-23T07:00:06.000Z</time>
      </trkpt>
      <trkpt lat="45.68447" lon="3.06165">
        <ele>773</ele>
        <time>2019-06-23T07:00:07.000Z</time>
      </trkpt>
      <trkpt lat="45.68447" lon="3.0616">
        <ele>773</ele>
        <time>2019-06-23T07:00:08.000Z</time>
      </trkpt>
      <trkpt lat="45.68447" lon="3.06154">
        <ele>773</ele>
        <time>2019-06-23T07:00:09.000Z</time>
      </trkpt>
      <trkpt lat="45.68447" lon="3.06149">
        <ele>773</ele>
        <time>2019-06-23T07:00:10.000Z</time>
      </trkpt>
      <trkpt lat="45.68447" lon="3.06143">
        <ele>774</ele>
        <time>2019-06-23T07:00:11.000Z</time>
      </trkpt>
      <trkpt lat="45.68447" lon="3.06138">
        <ele>774</ele>
        <time>2019-06-23T07:00:12.000Z</time>
      </trkpt>
      <trkpt lat="45.68447" lon="3.06132">
        <ele>774</ele>
        <time>2019-06-23T07:00:13.000Z</time>
      </trkpt>
      <trkpt lat="45.68447" lon="3.06127">
        <ele>774</ele>
        <time>2019-06-23T07:00:14.000Z</time>
      </trkpt>
      <trkpt lat="45.68447" lon="3.06121">
        <ele>775</ele>
        <time>2019-06-23T07:00:15.000Z</time>
      </trkpt>
      <trkpt lat="45.68447" lon="3.06116">
        <ele>775</ele>
        <time>2019-06-23T07:00:16.000Z</time>
      </trkpt>
      <trkpt lat="45.68447" lon="3.0611">
        <ele>775</ele>
        <time>2019-06-23T07:00:17.000Z</time>
      </trkpt>
      <trkpt lat="45.68447" lon="3.06105">
        <ele>775</ele>
        <time>2019-06-23T07:00:18.000Z</time>
      </trkpt>
      <trkpt lat="45.68447" lon="3.061">
        <ele>775</ele>
        <time>2019-06-23T07:00:19.000Z</time>
      </trkpt>
      <trkpt lat="45.68446" lon="3.06094">
        <ele>775</ele>
        <time>2019-06-23T07:00:20.000Z</time>
      </trkpt>
      <trkpt lat="45.68446" lon="3.06089">
        <ele>775</ele>
        <time>2019-06-23T07:00:21.000Z</time>
      </trkpt>
      <trkpt lat="45.68447" lon="3.06084">
        <ele>775</ele>
        <time>2019-06-23T07:00:22.000Z</time>
      </trkpt>
      <trkpt lat="45.68448" lon="3.06078">
        <ele>776</ele>
        <time>2019-06-23T07:00:23.000Z</time>
      </trkpt>
      <trkpt lat="45.68448" lon="3.06073">
        <ele>776</ele>
        <time>2019-06-23T07:00:24.000Z</time>
      </trkpt>
      <trkpt lat="45.68449" lon="3.06067">
        <ele>776</ele>
        <time>2019-06-23T07:00:25.000Z</time>
      </trkpt>
      <trkpt lat="45.6845" lon="3.06062">
        <ele>776</ele>
        <time>2019-06-23T07:00:26.000Z</time>
      </trkpt>
      <trkpt lat="45.6845" lon="3.06057">
        <ele>776</ele>
        <time>2019-06-23T07:00:27.000Z</time>
      </trkpt>
      <trkpt lat="45.68451" lon="3.06052">
        <ele>777</ele>
        <time>2019-06-23T07:00:28.000Z</time>
      </trkpt>
      <trkpt lat="45.68451" lon="3.06046">
        <ele>777</ele>
        <time>2019-06-23T07:00:29.000Z</time>
      </trkpt>
      <trkpt lat="45.68452" lon="3.06041">
        <ele>777</ele>
        <time>2019-06-23T07:00:30.000Z</time>
      </trkpt>
      <trkpt lat="45.68453" lon="3.06036">
        <ele>777</ele>
        <time>2019-06-23T07:00:31.000Z</time>
      </trkpt>
      <trkpt lat="45.68453" lon="3.06031">
        <ele>778</ele>
        <time>2019-06-23T07:00:32.000Z</time>
      </trkpt>
      <trkpt lat="45.68453" lon="3.06025">
        <ele>778</ele>
        <time>2019-06-23T07:00:33.000Z</time>
      </trkpt>
      <trkpt lat="45.68453" lon="3.0602">
        <ele>778</ele>
        <time>2019-06-23T07:00:34.000Z</time>
      </trkpt>
      <trkpt lat="45.68453" lon="3.06015">
        <ele>778</ele>
        <time>2019-06-23T07:00:35.000Z</time>
      </trkpt>
      <trkpt lat="45.68454" lon="3.0601">
        <ele>779</ele>
        <time>2019-06-23T07:00:36.000Z</time>
      </trkpt>
      <trkpt lat="45.68454" lon="3.06005">
        <ele>779</ele>
        <time>2019-06-23T07:00:37.000Z</time>
      </trkpt>
      <trkpt lat="45.68454" lon="3.06">
        <ele>779</ele>
        <time>2019-06-23T07:00:38.000Z</time>
      </trkpt>
      <trkpt lat="45.68455" lon="3.05995">
        <ele>779</ele>
        <time>2019-06-23T07:00:39.000Z</time>
      </trkpt>
      <trkpt lat="45.68455" lon="3.0599">
        <ele>779</ele>
        <time>2019-06-23T07:00:40.000Z</time>
      </trkpt>
      <trkpt lat="45.68455" lon="3.05985">
        <ele>780</ele>
        <time>2019-06-23T07:00:41.000Z</time>
      </trkpt>
      <trkpt lat="45.68455" lon="3.0598">
        <ele>780</ele>
        <time>2019-06-23T07:00:42.000Z</time>
      </trkpt>
      <trkpt lat="45.68455" lon="3.05975">
        <ele>780</ele>
        <time>2019-06-23T07:00:43.000Z</time>
      </trkpt>
      <trkpt lat="45.68455" lon="3.0597">
        <ele>780</ele>
        <time>2019-06-23T07:00:44.000Z</time>
      </trkpt>
      <trkpt lat="45.68455" lon="3.05965">
        <ele>780</ele>
        <time>2019-06-23T07:00:45.000Z</time>
      </trkpt>
      <trkpt lat="45.68455" lon="3.0596">
        <ele>780</ele>
        <time>2019-06-23T07:00:46.000Z</time>
      </trkpt>
      <trkpt lat="45.68455" lon="3.05955">
        <ele>781</ele>
        <time>2019-06-23T07:00:47.000Z</time>
      </trkpt>
      <trkpt lat="45.68455" lon="3.05951">
        <ele>781</ele>
        <time>2019-06-23T07:00:48.000Z</time>
      </trkpt>
      <trkpt lat="45.68455" lon="3.05946">
        <ele>781</ele>
        <time>2019-06-23T07:00:49.000Z</time>
      </trkpt>
      <trkpt lat="45.68455" lon="3.05941">
        <ele>782</ele>
        <time>2019-06-23T07:00:50.000Z</time>
      </trkpt>
      <trkpt lat="45.68455" lon="3.05936">
        <ele>782</ele>
        <time>2019-06-23T07:00:51.000Z</time>
      </trkpt>
      <trkpt lat="45.68455" lon="3.05931">
        <ele>782</ele>
        <time>2019-06-23T07:00:52.000Z</time>
      </trkpt>
      <trkpt lat="45.68454" lon="3.05926">
        <ele>782</ele>
        <time>2019-06-23T07:00:53.000Z</time>
      </trkpt>
      <trkpt lat="45.68454" lon="3.05921">
        <ele>782</ele>
        <time>2019-06-23T07:00:54.000Z</time>
      </trkpt>
      <trkpt lat="45.68454" lon="3.05916">
        <ele>783</ele>
        <time>2019-06-23T07:00:55.000Z</time>
      </trkpt>
      <trkpt lat="45.68454" lon="3.05911">
        <ele>783</ele>
        <time>2019-06-23T07:00:56.000Z</time>
      </trkpt>
      <trkpt lat="45.68454" lon="3.05906">
        <ele>783</ele>
        <time>2019-06-23T07:00:57.000Z</time>
      </trkpt>
      <trkpt lat="45.68454" lon="3.05902">
        <ele>784</ele>
        <time>2019-06-23T07:00:58.000Z</time>
      </trkpt>
      <trkpt lat="45.68454" lon="3.05897">
        <ele>784</ele>
        <time>2019-06-23T07:00:59.000Z</time>
      </trkpt>
      <trkpt lat="45.68454" lon="3.05892">
        <ele>785</ele>
        <time>2019-06-23T07:01:00.000Z</time>
      </trkpt>
      <trkpt lat="45.68454" lon="3.05887">
        <ele>785</ele>
        <time>2019-06-23T07:01:01.000Z</time>
      </trkpt>
      <trkpt lat="45.68454" lon="3.05882">
        <ele>785</ele>
        <time>2019-06-23T07:01:02.000Z</time>
      </trkpt>
      <trkpt lat="45.68454" lon="3.05877">
        <ele>786</ele>
        <time>2019-06-23T07:01:03.000Z</time>
      </trkpt>
      <trkpt lat="45.68454" lon="3.05873">
        <ele>786</ele>
        <time>2019-06-23T07:01:04.000Z</time>
      </trkpt>
      <trkpt lat="45.68454" lon="3.05868">
        <ele>787</ele>
        <time>2019-06-23T07:01:05.000Z</time>
      </trkpt>
      <trkpt lat="45.68454" lon="3.05863">
        <ele>787</ele>
        <time>2019-06-23T07:01:06.000Z</time>
      </trkpt>
      <trkpt lat="45.68454" lon="3.05857">
        <ele>787</ele>
        <time>2019-06-23T07:01:07.000Z</time>
      </trkpt>
      <trkpt lat="45.68455" lon="3.05852">
        <ele>787</ele>
        <time>2019-06-23T07:01:08.000Z</time>
      </trkpt>
      <trkpt lat="45.68455" lon="3.05847">
        <ele>788</ele>
        <time>2019-06-23T07:01:09.000Z</time>
      </trkpt>
      <trkpt lat="45.68456" lon="3.05842">
        <ele>788</ele>
        <time>2019-06-23T07:01:10.000Z</time>
      </trkpt>
      <trkpt lat="45.68456" lon="3.05838">
        <ele>788</ele>
        <time>2019-06-23T07:01:11.000Z</time>
      </trkpt>
      <trkpt lat="45.68457" lon="3.05833">
        <ele>788</ele>
        <time>2019-06-23T07:01:12.000Z</time>
      </trkpt>
      <trkpt lat="45.68457" lon="3.05828">
        <ele>789</ele>
        <time>2019-06-23T07:01:13.000Z</time>
      </trkpt>
      <trkpt lat="45.68458" lon="3.05823">
        <ele>789</ele>
        <time>2019-06-23T07:01:14.000Z</time>
      </trkpt>
      <trkpt lat="45.68459" lon="3.05818">
        <ele>789</ele>
        <time>2019-06-23T07:01:15.000Z</time>
      </trkpt>
      <trkpt lat="45.68459" lon="3.05813">
        <ele>789</ele>
        <time>2019-06-23T07:01:16.000Z</time>
      </trkpt>
      <trkpt lat="45.6846" lon="3.05808">
        <ele>790</ele>
        <time>2019-06-23T07:01:17.000Z</time>
      </trkpt>
      <trkpt lat="45.6846" lon="3.05803">
        <ele>790</ele>
        <time>2019-06-23T07:01:18.000Z</time>
      </trkpt>
      <trkpt lat="45.68461" lon="3.05799">
        <ele>790</ele>
        <time>2019-06-23T07:01:19.000Z</time>
      </trkpt>
      <trkpt lat="45.68461" lon="3.05794">
        <ele>790</ele>
        <time>2019-06-23T07:01:20.000Z</time>
      </trkpt>
      <trkpt lat="45.68462" lon="3.05789">
        <ele>790</ele>
        <time>2019-06-23T07:01:21.000Z</time>
      </trkpt>
      <trkpt lat="45.68462" lon="3.05784">
        <ele>791</ele>
        <time>2019-06-23T07:01:22.000Z</time>
      </trkpt>
      <trkpt lat="45.68463" lon="3.05779">
        <ele>791</ele>
        <time>2019-06-23T07:01:23.000Z</time>
      </trkpt>
      <trkpt lat="45.68464" lon="3.05775">
        <ele>791</ele>
        <time>2019-06-23T07:01:24.000Z</time>
      </trkpt>
      <trkpt lat="45.68464" lon="3.0577">
        <ele>791</ele>
        <time>2019-06-23T07:01:25.000Z</time>
      </trkpt>
      <trkpt lat="45.68465" lon="3.05765">
        <ele>791</ele>
        <time>2019-06-23T07:01:26.000Z</time>
      </trkpt>
      <trkpt lat="45.68465" lon="3.0576">
        <ele>791</ele>
        <time>2019-06-23T07:01:27.000Z</time>
      </trkpt>
      <trkpt lat="45.68466" lon="3.05755">
        <ele>791</ele>
        <time>2019-06-23T07:01:28.000Z</time>
      </trkpt>
      <trkpt lat="45.68466" lon="3.05751">
        <ele>791</ele>
        <time>2019-06-23T07:01:29.000Z</time>
      </trkpt>
      <trkpt lat="45.68467" lon="3.05746">
        <ele>792</ele>
        <time>2019-06-23T07:01:30.000Z</time>
      </trkpt>
      <trkpt lat="45.68468" lon="3.05741">
        <ele>792</ele>
        <time>2019-06-23T07:01:31.000Z</time>
      </trkpt>
      <trkpt lat="45.68468" lon="3.05736">
        <ele>792</ele>
        <time>2019-06-23T07:01:32.000Z</time>
      </trkpt>
      <trkpt lat="45.68469" lon="3.05731">
        <ele>792</ele>
        <time>2019-06-23T07:01:33.000Z</time>
      </trkpt>
      <trkpt lat="45.6847" lon="3.05726">
        <ele>792</ele>
        <time>2019-06-23T07:01:34.000Z</time>
      </trkpt>
      <trkpt lat="45.68471" lon="3.05721">
        <ele>793</ele>
        <time>2019-06-23T07:01:35.000Z</time>
      </trkpt>
      <trkpt lat="45.68471" lon="3.05716">
        <ele>793</ele>
        <time>2019-06-23T07:01:36.000Z</time>
      </trkpt>
      <trkpt lat="45.68472" lon="3.05711">
        <ele>793</ele>
        <time>2019-06-23T07:01:37.000Z</time>
      </trkpt>
      <trkpt lat="45.68472" lon="3.05706">
        <ele>793</ele>
        <time>2019-06-23T07:01:38.000Z</time>
      </trkpt>
      <trkpt lat="45.68473" lon="3.05701">
        <ele>793</ele>
        <time>2019-06-23T07:01:39.000Z</time>
      </trkpt>
      <trkpt lat="45.68474" lon="3.05696">
        <ele>794</ele>
        <time>2019-06-23T07:01:40.000Z</time>
      </trkpt>
      <trkpt lat="45.68474" lon="3.05691">
        <ele>794</ele>
        <time>2019-06-23T07:01:41.000Z</time>
      </trkpt>
      <trkpt lat="45.68474" lon="3.05686">
        <ele>794</ele>
        <time>2019-06-23T07:01:42.000Z</time>
      </trkpt>
      <trkpt lat="45.68474" lon="3.05682">
        <ele>794</ele>
        <time>2019-06-23T07:01:43.000Z</time>
      </trkpt>
      <trkpt lat="45.68475" lon="3.05677">
        <ele>794</ele>
        <time>2019-06-23T07:01:44.000Z</time>
      </trkpt>
      <trkpt lat="45.68474" lon="3.05672">
        <ele>794</ele>
        <time>2019-06-23T07:01:45.000Z</time>
      </trkpt>
      <trkpt lat="45.68472" lon="3.05669">
        <ele>793</ele>
        <time>2019-06-23T07:01:46.000Z</time>
      </trkpt>
      <trkpt lat="45.6847" lon="3.05666">
        <ele>794</ele>
        <time>2019-06-23T07:01:47.000Z</time>
      </trkpt>
      <trkpt lat="45.68469" lon="3.05663">
        <ele>794</ele>
        <time>2019-06-23T07:01:48.000Z</time>
      </trkpt>
      <trkpt lat="45.68467" lon="3.05661">
        <ele>794</ele>
        <time>2019-06-23T07:01:49.000Z</time>
      </trkpt>
      <trkpt lat="45.68466" lon="3.0566">
        <ele>794</ele>
        <time>2019-06-23T07:01:50.000Z</time>
      </trkpt>
      <trkpt lat="45.68465" lon="3.05658">
        <ele>794</ele>
        <time>2019-06-23T07:01:51.000Z</time>
      </trkpt>
      <trkpt lat="45.68464" lon="3.05656">
        <ele>794</ele>
        <time>2019-06-23T07:01:52.000Z</time>
      </trkpt>
      <trkpt lat="45.68463" lon="3.05654">
        <ele>795</ele>
        <time>2019-06-23T07:01:53.000Z</time>
      </trkpt>
      <trkpt lat="45.68462" lon="3.05652">
        <ele>795</ele>
        <time>2019-06-23T07:01:54.000Z</time>
      </trkpt>
      <trkpt lat="45.68461" lon="3.0565">
        <ele>795</ele>
        <time>2019-06-23T07:01:55.000Z</time>
      </trkpt>
      <trkpt lat="45.68459" lon="3.05648">
        <ele>796</ele>
        <time>2019-06-23T07:01:56.000Z</time>
      </trkpt>
      <trkpt lat="45.68458" lon="3.05646">
        <ele>796</ele>
        <time>2019-06-23T07:01:57.000Z</time>
      </trkpt>
      <trkpt lat="45.68457" lon="3.05644">
        <ele>796</ele>
        <time>2019-06-23T07:01:58.000Z</time>
      </trkpt>
      <trkpt lat="45.68456" lon="3.05641">
        <ele>797</ele>
        <time>2019-06-23T07:01:59.000Z</time>
      </trkpt>
      <trkpt lat="45.68454" lon="3.05639">
        <ele>797</ele>
        <time>2019-06-23T07:02:00.000Z</time>
      </trkpt>
      <trkpt lat="45.68452" lon="3.05637">
        <ele>798</ele>
        <time>2019-06-23T07:02:01.000Z</time>
      </trkpt>
      <trkpt lat="45.68451" lon="3.05635">
        <ele>798</ele>
        <time>2019-06-23T07:02:02.000Z</time>
      </trkpt>
      <trkpt lat="45.6845" lon="3.05632">
        <ele>798</ele>
        <time>2019-06-23T07:02:03.000Z</time>
      </trkpt>
      <trkpt lat="45.68449" lon="3.0563">
        <ele>798</ele>
        <time>2019-06-23T07:02:04.000Z</time>
      </trkpt>
      <trkpt lat="45.68448" lon="3.05627">
        <ele>798</ele>
        <time>2019-06-23T07:02:05.000Z</time>
      </trkpt>
      <trkpt lat="45.68447" lon="3.05625">
        <ele>798</ele>
        <time>2019-06-23T07:02:06.000Z</time>
      </trkpt>
      <trkpt lat="45.68447" lon="3.05623">
        <ele>798</ele>
        <time>2019-06-23T07:02:07.000Z</time>
      </trkpt>
      <trkpt lat="45.68446" lon="3.05621">
        <ele>798</ele>
        <time>2019-06-23T07:02:08.000Z</time>
      </trkpt>
      <trkpt lat="45.68445" lon="3.05619">
        <ele>798</ele>
        <time>2019-06-23T07:02:09.000Z</time>
      </trkpt>
      <trkpt lat="45.68445" lon="3.05617">
        <ele>799</ele>
        <time>2019-06-23T07:02:10.000Z</time>
      </trkpt>
      <trkpt lat="45.68444" lon="3.05614">
        <ele>799</ele>
        <time>2019-06-23T07:02:11.000Z</time>
      </trkpt>
      <trkpt lat="45.68444" lon="3.05612">
        <ele>799</ele>
        <time>2019-06-23T07:02:12.000Z</time>
      </trkpt>
      <trkpt lat="45.68444" lon="3.05609">
        <ele>799</ele>
        <time>2019-06-23T07:02:13.000Z</time>
      </trkpt>
      <trkpt lat="45.68443" lon="3.05607">
        <ele>799</ele>
        <time>2019-06-23T07:02:14.000Z</time>
      </trkpt>
      <trkpt lat="45.68443" lon="3.05605">
        <ele>800</ele>
        <time>2019-06-23T07:02:15.000Z</time>
      </trkpt>
      <trkpt lat="45.68443" lon="3.05603">
        <ele>800</ele>
        <time>2019-06-23T07:02:16.000Z</time>
      </trkpt>
      <trkpt lat="45.68442" lon="3.05601">
        <ele>800</ele>
        <time>2019-06-23T07:02:17.000Z</time>
      </trkpt>
      <trkpt lat="45.68442" lon="3.05599">
        <ele>800</ele>
        <time>2019-06-23T07:02:18.000Z</time>
      </trkpt>
      <trkpt lat="45.68441" lon="3.05597">
        <ele>801</ele>
        <time>2019-06-23T07:02:19.000Z</time>
      </trkpt>
      <trkpt lat="45.68441" lon="3.05594">
        <ele>801</ele>
        <time>2019-06-23T07:02:20.000Z</time>
      </trkpt>
      <trkpt lat="45.6844" lon="3.05591">
        <ele>801</ele>
        <time>2019-06-23T07:02:21.000Z</time>
      </trkpt>
      <trkpt lat="45.68438" lon="3.05588">
        <ele>801</ele>
        <time>2019-06-23T07:02:22.000Z</time>
      </trkpt>
      <trkpt lat="45.68437" lon="3.05584">
        <ele>801</ele>
        <time>2019-06-23T07:02:23.000Z</time>
      </trkpt>
      <trkpt lat="45.68435" lon="3.0558">
        <ele>801</ele>
        <time>2019-06-23T07:02:24.000Z</time>
      </trkpt>
      <trkpt lat="45.68434" lon="3.05577">
        <ele>800</ele>
        <time>2019-06-23T07:02:25.000Z</time>
      </trkpt>
      <trkpt lat="45.68433" lon="3.05573">
        <ele>800</ele>
        <time>2019-06-23T07:02:26.000Z</time>
      </trkpt>
      <trkpt lat="45.68431" lon="3.0557">
        <ele>799</ele>
        <time>2019-06-23T07:02:27.000Z</time>
      </trkpt>
      <trkpt lat="45.68429" lon="3.05567">
        <ele>799</ele>
        <time>2019-06-23T07:02:28.000Z</time>
      </trkpt>
      <trkpt lat="45.68428" lon="3.05564">
        <ele>799</ele>
        <time>2019-06-23T07:02:29.000Z</time>
      </trkpt>
      <trkpt lat="45.68428" lon="3.05561">
        <ele>799</ele>
        <time>2019-06-23T07:02:30.000Z</time>
      </trkpt>
      <trkpt lat="45.68426" lon="3.05558">
        <ele>800</ele>
        <time>2019-06-23T07:02:31.000Z</time>
      </trkpt>
      <trkpt lat="45.68426" lon="3.05555">
        <ele>800</ele>
        <time>2019-06-23T07:02:32.000Z</time>
      </trkpt>
      <trkpt lat="45.68426" lon="3.05552">
        <ele>800</ele>
        <time>2019-06-23T07:02:33.000Z</time>
      </trkpt>
      <trkpt lat="45.68425" lon="3.0555">
        <ele>802</ele>
        <time>2019-06-23T07:02:34.000Z</time>
      </trkpt>
      <trkpt lat="45.68424" lon="3.05548">
        <ele>803</ele>
        <time>2019-06-23T07:02:35.000Z</time>
      </trkpt>
      <trkpt lat="45.68423" lon="3.05544">
        <ele>803</ele>
        <time>2019-06-23T07:02:36.000Z</time>
      </trkpt>
      <trkpt lat="45.68423" lon="3.05542">
        <ele>802</ele>
        <time>2019-06-23T07:02:37.000Z</time>
      </trkpt>
      <trkpt lat="45.68422" lon="3.05539">
        <ele>803</ele>
        <time>2019-06-23T07:02:38.000Z</time>
      </trkpt>
      <trkpt lat="45.68422" lon="3.05537">
        <ele>803</ele>
        <time>2019-06-23T07:02:39.000Z</time>
      </trkpt>
      <trkpt lat="45.68422" lon="3.05534">
        <ele>803</ele>
        <time>2019-06-23T07:02:40.000Z</time>
      </trkpt>
      <trkpt lat="45.68421" lon="3.05532">
        <ele>803</ele>
        <time>2019-06-23T07:02:41.000Z</time>
      </trkpt>
      <trkpt lat="45.6842" lon="3.0553">
        <ele>803</ele>
        <time>2019-06-23T07:02:42.000Z</time>
      </trkpt>
      <trkpt lat="45.68419" lon="3.05529">
        <ele>804</ele>
        <time>2019-06-23T07:02:43.000Z</time>
      </trkpt>
      <trkpt lat="45.68417" lon="3.05526">
        <ele>803</ele>
        <time>2019-06-23T07:02:44.000Z</time>
      </trkpt>
      <trkpt lat="45.68415" lon="3.05521">
        <ele>804</ele>
        <time>2019-06-23T07:02:45.000Z</time>
      </trkpt>
      <trkpt lat="45.68413" lon="3.05518">
        <ele>804</ele>
        <time>2019-06-23T07:02:46.000Z</time>
      </trkpt>
      <trkpt lat="45.68412" lon="3.05514">
        <ele>804</ele>
        <time>2019-06-23T07:02:47.000Z</time>
      </trkpt>
      <trkpt lat="45.6841" lon="3.05512">
        <ele>804</ele>
        <time>2019-06-23T07:02:48.000Z</time>
      </trkpt>
      <trkpt lat="45.68408" lon="3.05508">
        <ele>805</ele>
        <time>2019-06-23T07:02:49.000Z</time>
      </trkpt>
      <trkpt lat="45.68407" lon="3.05506">
        <ele>804</ele>
        <time>2019-06-23T07:02:50.000Z</time>
      </trkpt>
      <trkpt lat="45.68405" lon="3.05503">
        <ele>804</ele>
        <time>2019-06-23T07:02:51.000Z</time>
      </trkpt>
      <trkpt lat="45.68403" lon="3.055">
        <ele>806</ele>
        <time>2019-06-23T07:02:52.000Z</time>
      </trkpt>
      <trkpt lat="45.68402" lon="3.05497">
        <ele>805</ele>
        <time>2019-06-23T07:02:53.000Z</time>
      </trkpt>
      <trkpt lat="45.684" lon="3.05494">
        <ele>806</ele>
        <time>2019-06-23T07:02:54.000Z</time>
      </trkpt>
      <trkpt lat="45.68399" lon="3.05492">
        <ele>807</ele>
        <time>2019-06-23T07:02:55.000Z</time>
      </trkpt>
      <trkpt lat="45.68397" lon="3.05489">
        <ele>807</ele>
        <time>2019-06-23T07:02:56.000Z</time>
      </trkpt>
      <trkpt lat="45.68396" lon="3.05486">
        <ele>807</ele>
        <time>2019-06-23T07:02:57.000Z</time>
      </trkpt>
      <trkpt lat="45.68394" lon="3.05483">
        <ele>807</ele>
        <time>2019-06-23T07:02:58.000Z</time>
      </trkpt>
      <trkpt lat="45.68393" lon="3.0548">
        <ele>807</ele>
        <time>2019-06-23T07:02:59.000Z</time>
      </trkpt>
      <trkpt lat="45.68391" lon="3.05478">
        <ele>807</ele>
        <time>2019-06-23T07:03:00.000Z</time>
      </trkpt>
      <trkpt lat="45.6839" lon="3.05475">
        <ele>807</ele>
        <time>2019-06-23T07:03:01.000Z</time>
      </trkpt>
      <trkpt lat="45.68388" lon="3.05473">
        <ele>808</ele>
        <time>2019-06-23T07:03:02.000Z</time>
      </trkpt>
      <trkpt lat="45.68386" lon="3.0547">
        <ele>809</ele>
        <time>2019-06-23T07:03:03.000Z</time>
      </trkpt>
      <trkpt lat="45.68385" lon="3.05467">
        <ele>810</ele>
        <time>2019-06-23T07:03:04.000Z</time>
      </trkpt>
      <trkpt lat="45.68384" lon="3.05463">
        <ele>810</ele>
        <time>2019-06-23T07:03:05.000Z</time>
      </trkpt>
      <trkpt lat="45.68382" lon="3.05461">
        <ele>810</ele>
        <time>2019-06-23T07:03:06.000Z</time>
      </trkpt>
      <trkpt lat="45.6838" lon="3.05459">
        <ele>810</ele>
        <time>2019-06-23T07:03:07.000Z</time>
      </trkpt>
      <trkpt lat="45.68379" lon="3.05456">
        <ele>810</ele>
        <time>2019-06-23T07:03:08.000Z</time>
      </trkpt>
      <trkpt lat="45.68377" lon="3.05455">
        <ele>810</ele>
        <time>2019-06-23T07:03:09.000Z</time>
      </trkpt>
      <trkpt lat="45.68375" lon="3.05453">
        <ele>809</ele>
        <time>2019-06-23T07:03:10.000Z</time>
      </trkpt>
      <trkpt lat="45.68373" lon="3.05452">
        <ele>810</ele>
        <time>2019-06-23T07:03:11.000Z</time>
      </trkpt>
      <trkpt lat="45.6837" lon="3.05451">
        <ele>812</ele>
        <time>2019-06-23T07:03:12.000Z</time>
      </trkpt>
      <trkpt lat="45.68367" lon="3.05449">
        <ele>814</ele>
        <time>2019-06-23T07:03:13.000Z</time>
      </trkpt>
      <trkpt lat="45.68365" lon="3.05448">
        <ele>814</ele>
        <time>2019-06-23T07:03:14.000Z</time>
      </trkpt>
      <trkpt lat="45.68363" lon="3.05446">
        <ele>814</ele>
        <time>2019-06-23T07:03:15.000Z</time>
      </trkpt>
      <trkpt lat="45.68361" lon="3.05445">
        <ele>815</ele>
        <time>2019-06-23T07:03:16.000Z</time>
      </trkpt>
      <trkpt lat="45.68359" lon="3.05445">
        <ele>815</ele>
        <time>2019-06-23T07:03:17.000Z</time>
      </trkpt>
      <trkpt lat="45.68356" lon="3.05445">
        <ele>815</ele>
        <time>2019-06-23T07:03:18.000Z</time>
      </trkpt>
      <trkpt lat="45.68354" lon="3.05445">
        <ele>815</ele>
        <time>2019-06-23T07:03:19.000Z</time>
      </trkpt>
      <trkpt lat="45.68352" lon="3.05444">
        <ele>815</ele>
        <time>2019-06-23T07:03:20.000Z</time>
      </trkpt>
      <trkpt lat="45.6835" lon="3.05444">
        <ele>816</ele>
        <time>2019-06-23T07:03:21.000Z</time>
      </trkpt>
      <trkpt lat="45.68348" lon="3.05444">
        <ele>817</ele>
        <time>2019-06-23T07:03:22.000Z</time>
      </trkpt>
      <trkpt lat="45.68345" lon="3.05444">
        <ele>817</ele>
        <time>2019-06-23T07:03:23.000Z</time>
      </trkpt>
      <trkpt lat="45.68343" lon="3.05444">
        <ele>817</ele>
        <time>2019-06-23T07:03:24.000Z</time>
      </trkpt>
      <trkpt lat="45.6834" lon="3.05444">
        <ele>817</ele>
        <time>2019-06-23T07:03:25.000Z</time>
      </trkpt>
      <trkpt lat="45.68338" lon="3.05444">
        <ele>817</ele>
        <time>2019-06-23T07:03:26.000Z</time>
      </trkpt>
      <trkpt lat="45.68335" lon="3.05444">
        <ele>817</ele>
        <time>2019-06-23T07:03:27.000Z</time>
      </trkpt>
      <trkpt lat="45.68333" lon="3.05444">
        <ele>816</ele>
        <time>2019-06-23T07:03:28.000Z</time>
      </trkpt>
      <trkpt lat="45.68331" lon="3.05444">
        <ele>816</ele>
        <time>2019-06-23T07:03:29.000Z</time>
      </trkpt>
      <trkpt lat="45.68328" lon="3.05444">
        <ele>817</ele>
        <time>2019-06-23T07:03:30.000Z</time>
      </trkpt>
      <trkpt lat="45.68325" lon="3.05443">
        <ele>818</ele>
        <time>2019-06-23T07:03:31.000Z</time>
      </trkpt>
      <trkpt lat="45.68322" lon="3.05443">
        <ele>818</ele>
        <time>2019-06-23T07:03:32.000Z</time>
      </trkpt>
      <trkpt lat="45.68319" lon="3.05442">
        <ele>818</ele>
        <time>2019-06-23T07:03:33.000Z</time>
      </trkpt>
      <trkpt lat="45.68316" lon="3.05441">
        <ele>818</ele>
        <time>2019-06-23T07:03:34.000Z</time>
      </trkpt>
      <trkpt lat="45.68313" lon="3.0544">
        <ele>818</ele>
        <time>2019-06-23T07:03:35.000Z</time>
      </trkpt>
      <trkpt lat="45.6831" lon="3.0544">
        <ele>817</ele>
        <time>2019-06-23T07:03:36.000Z</time>
      </trkpt>
      <trkpt lat="45.68307" lon="3.05439">
        <ele>818</ele>
        <time>2019-06-23T07:03:37.000Z</time>
      </trkpt>
      <trkpt lat="45.68305" lon="3.05438">
        <ele>818</ele>
        <time>2019-06-23T07:03:38.000Z</time>
      </trkpt>
      <trkpt lat="45.68303" lon="3.05436">
        <ele>817</ele>
        <time>2019-06-23T07:03:39.000Z</time>
      </trkpt>
      <trkpt lat="45.68301" lon="3.05434">
        <ele>817</ele>
        <time>2019-06-23T07:03:40.000Z</time>
      </trkpt>
      <trkpt lat="45.68298" lon="3.05433">
        <ele>817</ele>
        <time>2019-06-23T07:03:41.000Z</time>
      </trkpt>
      <trkpt lat="45.68296" lon="3.0543">
        <ele>817</ele>
        <time>2019-06-23T07:03:42.000Z</time>
      </trkpt>
      <trkpt lat="45.68295" lon="3.05428">
        <ele>817</ele>
        <time>2019-06-23T07:03:43.000Z</time>
      </trkpt>
      <trkpt lat="45.68294" lon="3.05425">
        <ele>818</ele>
        <time>2019-06-23T07:03:44.000Z</time>
      </trkpt>
      <trkpt lat="45.68293" lon="3.05422">
        <ele>818</ele>
        <time>2019-06-23T07:03:45.000Z</time>
      </trkpt>
      <trkpt lat="45.68292" lon="3.05419">
        <ele>819</ele>
        <time>2019-06-23T07:03:46.000Z</time>
      </trkpt>
      <trkpt lat="45.68291" lon="3.05416">
        <ele>819</ele>
        <time>2019-06-23T07:03:47.000Z</time>
      </trkpt>
      <trkpt lat="45.6829" lon="3.05412">
        <ele>819</ele>
        <time>2019-06-23T07:03:48.000Z</time>
      </trkpt>
      <trkpt lat="45.68289" lon="3.05409">
        <ele>820</ele>
        <time>2019-06-23T07:03:49.000Z</time>
      </trkpt>
      <trkpt lat="45.68288" lon="3.05406">
        <ele>820</ele>
        <time>2019-06-23T07:03:50.000Z</time>
      </trkpt>
      <trkpt lat="45.68287" lon="3.05402">
        <ele>820</ele>
        <time>2019-06-23T07:03:51.000Z</time>
      </trkpt>
      <trkpt lat="45.68285" lon="3.05399">
        <ele>820</ele>
        <time>2019-06-23T07:03:52.000Z</time>
      </trkpt>
      <trkpt lat="45.68284" lon="3.05395">
        <ele>820</ele>
        <time>2019-06-23T07:03:53.000Z</time>
      </trkpt>
      <trkpt lat="45.68283" lon="3.05392">
        <ele>820</ele>
        <time>2019-06-23T07:03:54.000Z</time>
      </trkpt>
      <trkpt lat="45.68283" lon="3.05388">
        <ele>820</ele>
        <time>2019-06-23T07:03:55.000Z</time>
      </trkpt>
      <trkpt lat="45.68282" lon="3.05385">
        <ele>820</ele>
        <time>2019-06-23T07:03:56.000Z</time>
      </trkpt>
      <trkpt lat="45.68281" lon="3.05381">
        <ele>820</ele>
        <time>2019-06-23T07:03:57.000Z</time>
      </trkpt>
      <trkpt lat="45.6828" lon="3.05378">
        <ele>820</ele>
        <time>2019-06-23T07:03:58.000Z</time>
      </trkpt>
      <trkpt lat="45.6828" lon="3.05375">
        <ele>820</ele>
        <time>2019-06-23T07:03:59.000Z</time>
      </trkpt>
      <trkpt lat="45.68279" lon="3.05372">
        <ele>820</ele>
        <time>2019-06-23T07:04:00.000Z</time>
      </trkpt>
      <trkpt lat="45.68278" lon="3.05369">
        <ele>820</ele>
        <time>2019-06-23T07:04:01.000Z</time>
      </trkpt>
      <trkpt lat="45.68278" lon="3.05366">
        <ele>820</ele>
        <time>2019-06-23T07:04:02.000Z</time>
      </trkpt>
      <trkpt lat="45.68277" lon="3.05362">
        <ele>820</ele>
        <time>2019-06-23T07:04:03.000Z</time>
      </trkpt>
      <trkpt lat="45.68277" lon="3.05359">
        <ele>821</ele>
        <time>2019-06-23T07:04:04.000Z</time>
      </trkpt>
      <trkpt lat="45.68277" lon="3.05356">
        <ele>821</ele>
        <time>2019-06-23T07:04:05.000Z</time>
      </trkpt>
      <trkpt lat="45.68276" lon="3.05352">
        <ele>820</ele>
        <time>2019-06-23T07:04:06.000Z</time>
      </trkpt>
      <trkpt lat="45.68275" lon="3.05348">
        <ele>821</ele>
        <time>2019-06-23T07:04:07.000Z</time>
      </trkpt>
      <trkpt lat="45.68274" lon="3.05345">
        <ele>820</ele>
        <time>2019-06-23T07:04:08.000Z</time>
      </trkpt>
      <trkpt lat="45.68274" lon="3.05341">
        <ele>820</ele>
        <time>2019-06-23T07:04:09.000Z</time>
      </trkpt>
      <trkpt lat="45.68273" lon="3.05338">
        <ele>820</ele>
        <time>2019-06-23T07:04:10.000Z</time>
      </trkpt>
      <trkpt lat="45.68273" lon="3.05335">
        <ele>820</ele>
        <time>2019-06-23T07:04:11.000Z</time>
      </trkpt>
      <trkpt lat="45.68272" lon="3.05332">
        <ele>820</ele>
        <time>2019-06-23T07:04:12.000Z</time>
      </trkpt>
      <trkpt lat="45.68271" lon="3.05329">
        <ele>819</ele>
        <time>2019-06-23T07:04:13.000Z</time>
      </trkpt>
      <trkpt lat="45.6827" lon="3.05325">
        <ele>820</ele>
        <time>2019-06-23T07:04:14.000Z</time>
      </trkpt>
      <trkpt lat="45.68269" lon="3.05322">
        <ele>819</ele>
        <time>2019-06-23T07:04:15.000Z</time>
      </trkpt>
      <trkpt lat="45.68267" lon="3.05318">
        <ele>820</ele>
        <time>2019-06-23T07:04:16.000Z</time>
      </trkpt>
      <trkpt lat="45.68266" lon="3.05315">
        <ele>821</ele>
        <time>2019-06-23T07:04:17.000Z</time>
      </trkpt>
      <trkpt lat="45.68265" lon="3.05312">
        <ele>821</ele>
        <time>2019-06-23T07:04:18.000Z</time>
      </trkpt>
      <trkpt lat="45.68263" lon="3.05309">
        <ele>821</ele>
        <time>2019-06-23T07:04:19.000Z</time>
      </trkpt>
      <trkpt lat="45.68262" lon="3.05306">
        <ele>822</ele>
        <time>2019-06-23T07:04:20.000Z</time>
      </trkpt>
      <trkpt lat="45.68261" lon="3.05302">
        <ele>822</ele>
        <time>2019-06-23T07:04:21.000Z</time>
      </trkpt>
      <trkpt lat="45.68259" lon="3.05299">
        <ele>822</ele>
        <time>2019-06-23T07:04:22.000Z</time>
      </trkpt>
      <trkpt lat="45.68257" lon="3.05295">
        <ele>822</ele>
        <time>2019-06-23T07:04:23.000Z</time>
      </trkpt>
      <trkpt lat="45.68256" lon="3.05292">
        <ele>822</ele>
        <time>2019-06-23T07:04:24.000Z</time>
      </trkpt>
      <trkpt lat="45.68255" lon="3.05288">
        <ele>823</ele>
        <time>2019-06-23T07:04:25.000Z</time>
      </trkpt>
      <trkpt lat="45.68254" lon="3.05285">
        <ele>824</ele>
        <time>2019-06-23T07:04:26.000Z</time>
      </trkpt>
      <trkpt lat="45.68254" lon="3.05282">
        <ele>824</ele>
        <time>2019-06-23T07:04:27.000Z</time>
      </trkpt>
      <trkpt lat="45.68253" lon="3.05279">
        <ele>825</ele>
        <time>2019-06-23T07:04:28.000Z</time>
      </trkpt>
      <trkpt lat="45.68253" lon="3.05275">
        <ele>824</ele>
        <time>2019-06-23T07:04:29.000Z</time>
      </trkpt>
      <trkpt lat="45.68252" lon="3.05272">
        <ele>825</ele>
        <time>2019-06-23T07:04:30.000Z</time>
      </trkpt>
      <trkpt lat="45.68252" lon="3.05268">
        <ele>824</ele>
        <time>2019-06-23T07:04:31.000Z</time>
      </trkpt>
      <trkpt lat="45.68252" lon="3.05265">
        <ele>824</ele>
        <time>2019-06-23T07:04:32.000Z</time>
      </trkpt>
      <trkpt lat="45.68252" lon="3.05262">
        <ele>824</ele>
        <time>2019-06-23T07:04:33.000Z</time>
      </trkpt>
      <trkpt lat="45.68252" lon="3.05259">
        <ele>824</ele>
        <time>2019-06-23T07:04:34.000Z</time>
      </trkpt>
      <trkpt lat="45.68251" lon="3.05255">
        <ele>824</ele>
        <time>2019-06-23T07:04:35.000Z</time>
      </trkpt>
      <trkpt lat="45.68251" lon="3.05253">
        <ele>825</ele>
        <time>2019-06-23T07:04:36.000Z</time>
      </trkpt>
      <trkpt lat="45.68251" lon="3.0525">
        <ele>825</ele>
        <time>2019-06-23T07:04:37.000Z</time>
      </trkpt>
      <trkpt lat="45.68251" lon="3.05247">
        <ele>825</ele>
        <time>2019-06-23T07:04:38.000Z</time>
      </trkpt>
      <trkpt lat="45.68251" lon="3.05244">
        <ele>826</ele>
        <time>2019-06-23T07:04:39.000Z</time>
      </trkpt>
      <trkpt lat="45.68251" lon="3.0524">
        <ele>826</ele>
        <time>2019-06-23T07:04:40.000Z</time>
      </trkpt>
      <trkpt lat="45.6825" lon="3.05237">
        <ele>827</ele>
        <time>2019-06-23T07:04:41.000Z</time>
      </trkpt>
      <trkpt lat="45.6825" lon="3.05233">
        <ele>827</ele>
        <time>2019-06-23T07:04:42.000Z</time>
      </trkpt>
      <trkpt lat="45.68249" lon="3.0523">
        <ele>827</ele>
        <time>2019-06-23T07:04:43.000Z</time>
      </trkpt>
      <trkpt lat="45.68249" lon="3.05227">
        <ele>828</ele>
        <time>2019-06-23T07:04:44.000Z</time>
      </trkpt>
      <trkpt lat="45.68249" lon="3.05223">
        <ele>829</ele>
        <time>2019-06-23T07:04:45.000Z</time>
      </trkpt>
      <trkpt lat="45.68248" lon="3.0522">
        <ele>829</ele>
        <time>2019-06-23T07:04:46.000Z</time>
      </trkpt>
      <trkpt lat="45.68248" lon="3.05216">
        <ele>830</ele>
        <time>2019-06-23T07:04:47.000Z</time>
      </trkpt>
      <trkpt lat="45.68247" lon="3.05213">
        <ele>830</ele>
        <time>2019-06-23T07:04:48.000Z</time>
      </trkpt>
      <trkpt lat="45.68246" lon="3.0521">
        <ele>831</ele>
        <time>2019-06-23T07:04:49.000Z</time>
      </trkpt>
      <trkpt lat="45.68245" lon="3.05207">
        <ele>831</ele>
        <time>2019-06-23T07:04:50.000Z</time>
      </trkpt>
      <trkpt lat="45.68244" lon="3.05204">
        <ele>831</ele>
        <time>2019-06-23T07:04:51.000Z</time>
      </trkpt>
      <trkpt lat="45.68243" lon="3.05201">
        <ele>831</ele>
        <time>2019-06-23T07:04:52.000Z</time>
      </trkpt>
      <trkpt lat="45.68242" lon="3.05199">
        <ele>832</ele>
        <time>2019-06-23T07:04:53.000Z</time>
      </trkpt>
      <trkpt lat="45.68242" lon="3.05196">
        <ele>832</ele>
        <time>2019-06-23T07:04:54.000Z</time>
      </trkpt>
      <trkpt lat="45.68241" lon="3.05193">
        <ele>832</ele>
        <time>2019-06-23T07:04:55.000Z</time>
      </trkpt>
      <trkpt lat="45.68241" lon="3.0519">
        <ele>833</ele>
        <time>2019-06-23T07:04:56.000Z</time>
      </trkpt>
      <trkpt lat="45.6824" lon="3.05187">
        <ele>833</ele>
        <time>2019-06-23T07:04:57.000Z</time>
      </trkpt>
      <trkpt lat="45.68239" lon="3.05184">
        <ele>834</ele>
        <time>2019-06-23T07:04:58.000Z</time>
      </trkpt>
      <trkpt lat="45.68238" lon="3.05181">
        <ele>834</ele>
        <time>2019-06-23T07:04:59.000Z</time>
      </trkpt>
      <trkpt lat="45.68237" lon="3.05178">
        <ele>835</ele>
        <time>2019-06-23T07:05:00.000Z</time>
      </trkpt>
      <trkpt lat="45.68235" lon="3.05175">
        <ele>836</ele>
        <time>2019-06-23T07:05:01.000Z</time>
      </trkpt>
      <trkpt lat="45.68234" lon="3.05172">
        <ele>836</ele>
        <time>2019-06-23T07:05:02.000Z</time>
      </trkpt>
      <trkpt lat="45.68234" lon="3.05169">
        <ele>834</ele>
        <time>2019-06-23T07:05:03.000Z</time>
      </trkpt>
      <trkpt lat="45.68233" lon="3.05167">
        <ele>835</ele>
        <time>2019-06-23T07:05:04.000Z</time>
      </trkpt>
      <trkpt lat="45.68232" lon="3.05164">
        <ele>835</ele>
        <time>2019-06-23T07:05:05.000Z</time>
      </trkpt>
      <trkpt lat="45.6823" lon="3.05161">
        <ele>835</ele>
        <time>2019-06-23T07:05:06.000Z</time>
      </trkpt>
      <trkpt lat="45.68229" lon="3.05159">
        <ele>836</ele>
        <time>2019-06-23T07:05:07.000Z</time>
      </trkpt>
      <trkpt lat="45.68227" lon="3.05156">
        <ele>836</ele>
        <time>2019-06-23T07:05:08.000Z</time>
      </trkpt>
      <trkpt lat="45.68226" lon="3.05154">
        <ele>836</ele>
        <time>2019-06-23T07:05:09.000Z</time>
      </trkpt>
      <trkpt lat="45.68225" lon="3.05151">
        <ele>836</ele>
        <time>2019-06-23T07:05:10.000Z</time>
      </trkpt>
      <trkpt lat="45.68223" lon="3.05149">
        <ele>836</ele>
        <time>2019-06-23T07:05:11.000Z</time>
      </trkpt>
      <trkpt lat="45.68221" lon="3.05146">
        <ele>836</ele>
        <time>2019-06-23T07:05:12.000Z</time>
      </trkpt>
      <trkpt lat="45.68219" lon="3.05144">
        <ele>836</ele>
        <time>2019-06-23T07:05:13.000Z</time>
      </trkpt>
      <trkpt lat="45.68217" lon="3.05142">
        <ele>837</ele>
        <time>2019-06-23T07:05:14.000Z</time>
      </trkpt>
      <trkpt lat="45.68214" lon="3.05139">
        <ele>837</ele>
        <time>2019-06-23T07:05:15.000Z</time>
      </trkpt>
      <trkpt lat="45.68212" lon="3.05137">
        <ele>838</ele>
        <time>2019-06-23T07:05:16.000Z</time>
      </trkpt>
      <trkpt lat="45.6821" lon="3.05135">
        <ele>838</ele>
        <time>2019-06-23T07:05:17.000Z</time>
      </trkpt>
      <trkpt lat="45.68208" lon="3.05133">
        <ele>838</ele>
        <time>2019-06-23T07:05:18.000Z</time>
      </trkpt>
      <trkpt lat="45.68206" lon="3.0513">
        <ele>839</ele>
        <time>2019-06-23T07:05:19.000Z</time>
      </trkpt>
      <trkpt lat="45.68204" lon="3.05129">
        <ele>839</ele>
        <time>2019-06-23T07:05:20.000Z</time>
      </trkpt>
      <trkpt lat="45.68201" lon="3.05127">
        <ele>840</ele>
        <time>2019-06-23T07:05:21.000Z</time>
      </trkpt>
      <trkpt lat="45.68199" lon="3.05125">
        <ele>840</ele>
        <time>2019-06-23T07:05:22.000Z</time>
      </trkpt>
      <trkpt lat="45.68197" lon="3.05123">
        <ele>840</ele>
        <time>2019-06-23T07:05:23.000Z</time>
      </trkpt>
      <trkpt lat="45.68195" lon="3.0512">
        <ele>840</ele>
        <time>2019-06-23T07:05:24.000Z</time>
      </trkpt>
      <trkpt lat="45.68192" lon="3.05118">
        <ele>840</ele>
        <time>2019-06-23T07:05:25.000Z</time>
      </trkpt>
      <trkpt lat="45.6819" lon="3.05115">
        <ele>840</ele>
        <time>2019-06-23T07:05:26.000Z</time>
      </trkpt>
      <trkpt lat="45.68188" lon="3.05113">
        <ele>841</ele>
        <time>2019-06-23T07:05:27.000Z</time>
      </trkpt>
      <trkpt lat="45.68185" lon="3.05111">
        <ele>841</ele>
        <time>2019-06-23T07:05:28.000Z</time>
      </trkpt>
      <trkpt lat="45.68183" lon="3.05109">
        <ele>841</ele>
        <time>2019-06-23T07:05:29.000Z</time>
      </trkpt>
      <trkpt lat="45.68181" lon="3.05107">
        <ele>841</ele>
        <time>2019-06-23T07:05:30.000Z</time>
      </trkpt>
      <trkpt lat="45.68178" lon="3.05106">
        <ele>841</ele>
        <time>2019-06-23T07:05:31.000Z</time>
      </trkpt>
      <trkpt lat="45.68176" lon="3.05104">
        <ele>841</ele>
        <time>2019-06-23T07:05:32.000Z</time>
      </trkpt>
      <trkpt lat="45.68173" lon="3.05102">
        <ele>841</ele>
        <time>2019-06-23T07:05:33.000Z</time>
      </trkpt>
      <trkpt lat="45.6817" lon="3.05101">
        <ele>841</ele>
        <time>2019-06-23T07:05:34.000Z</time>
      </trkpt>
      <trkpt lat="45.68168" lon="3.05099">
        <ele>842</ele>
        <time>2019-06-23T07:05:35.000Z</time>
      </trkpt>
      <trkpt lat="45.68165" lon="3.05098">
        <ele>842</ele>
        <time>2019-06-23T07:05:36.000Z</time>
      </trkpt>
      <trkpt lat="45.68163" lon="3.05096">
        <ele>842</ele>
        <time>2019-06-23T07:05:37.000Z</time>
      </trkpt>
      <trkpt lat="45.68161" lon="3.05093">
        <ele>842</ele>
        <time>2019-06-23T07:05:38.000Z</time>
      </trkpt>
      <trkpt lat="45.68159" lon="3.05091">
        <ele>842</ele>
        <time>2019-06-23T07:05:39.000Z</time>
      </trkpt>
      <trkpt lat="45.68157" lon="3.05089">
        <ele>842</ele>
        <time>2019-06-23T07:05:40.000Z</time>
      </trkpt>
      <trkpt lat="45.68155" lon="3.05087">
        <ele>843</ele>
        <time>2019-06-23T07:05:41.000Z</time>
      </trkpt>
      <trkpt lat="45.68153" lon="3.05085">
        <ele>843</ele>
        <time>2019-06-23T07:05:42.000Z</time>
      </trkpt>
      <trkpt lat="45.6815" lon="3.05084">
        <ele>842</ele>
        <time>2019-06-23T07:05:43.000Z</time>
      </trkpt>
      <trkpt lat="45.68147" lon="3.05083">
        <ele>843</ele>
        <time>2019-06-23T07:05:44.000Z</time>
      </trkpt>
      <trkpt lat="45.68145" lon="3.05083">
        <ele>843</ele>
        <time>2019-06-23T07:05:45.000Z</time>
      </trkpt>
      <trkpt lat="45.68142" lon="3.05081">
        <ele>843</ele>
        <time>2019-06-23T07:05:46.000Z</time>
      </trkpt>
      <trkpt lat="45.68139" lon="3.0508">
        <ele>843</ele>
        <time>2019-06-23T07:05:47.000Z</time>
      </trkpt>
      <trkpt lat="45.68137" lon="3.05078">
        <ele>843</ele>
        <time>2019-06-23T07:05:48.000Z</time>
      </trkpt>
      <trkpt lat="45.68134" lon="3.05077">
        <ele>843</ele>
        <time>2019-06-23T07:05:49.000Z</time>
      </trkpt>
      <trkpt lat="45.68131" lon="3.05074">
        <ele>843</ele>
        <time>2019-06-23T07:05:50.000Z</time>
      </trkpt>
      <trkpt lat="45.68129" lon="3.05073">
        <ele>843</ele>
        <time>2019-06-23T07:05:51.000Z</time>
      </trkpt>
      <trkpt lat="45.68127" lon="3.05071">
        <ele>843</ele>
        <time>2019-06-23T07:05:52.000Z</time>
      </trkpt>
      <trkpt lat="45.68124" lon="3.05069">
        <ele>843</ele>
        <time>2019-06-23T07:05:53.000Z</time>
      </trkpt>
      <trkpt lat="45.68122" lon="3.05068">
        <ele>842</ele>
        <time>2019-06-23T07:05:54.000Z</time>
      </trkpt>
      <trkpt lat="45.6812" lon="3.05066">
        <ele>842</ele>
        <time>2019-06-23T07:05:55.000Z</time>
      </trkpt>
      <trkpt lat="45.68118" lon="3.05064">
        <ele>842</ele>
        <time>2019-06-23T07:05:56.000Z</time>
      </trkpt>
      <trkpt lat="45.68115" lon="3.05063">
        <ele>842</ele>
        <time>2019-06-23T07:05:57.000Z</time>
      </trkpt>
      <trkpt lat="45.68113" lon="3.05061">
        <ele>842</ele>
        <time>2019-06-23T07:05:58.000Z</time>
      </trkpt>
      <trkpt lat="45.68111" lon="3.05059">
        <ele>842</ele>
        <time>2019-06-23T07:05:59.000Z</time>
      </trkpt>
      <trkpt lat="45.68108" lon="3.05056">
        <ele>842</ele>
        <time>2019-06-23T07:06:00.000Z</time>
      </trkpt>
      <trkpt lat="45.68105" lon="3.05054">
        <ele>843</ele>
        <time>2019-06-23T07:06:01.000Z</time>
      </trkpt>
      <trkpt lat="45.68103" lon="3.05052">
        <ele>843</ele>
        <time>2019-06-23T07:06:02.000Z</time>
      </trkpt>
      <trkpt lat="45.68101" lon="3.05049">
        <ele>843</ele>
        <time>2019-06-23T07:06:03.000Z</time>
      </trkpt>
      <trkpt lat="45.68098" lon="3.05047">
        <ele>843</ele>
        <time>2019-06-23T07:06:04.000Z</time>
      </trkpt>
      <trkpt lat="45.68096" lon="3.05044">
        <ele>844</ele>
        <time>2019-06-23T07:06:05.000Z</time>
      </trkpt>
      <trkpt lat="45.68094" lon="3.05041">
        <ele>844</ele>
        <time>2019-06-23T07:06:06.000Z</time>
      </trkpt>
      <trkpt lat="45.68092" lon="3.05038">
        <ele>844</ele>
        <time>2019-06-23T07:06:07.000Z</time>
      </trkpt>
      <trkpt lat="45.6809" lon="3.05035">
        <ele>844</ele>
        <time>2019-06-23T07:06:08.000Z</time>
      </trkpt>
      <trkpt lat="45.68088" lon="3.05032">
        <ele>844</ele>
        <time>2019-06-23T07:06:09.000Z</time>
      </trkpt>
      <trkpt lat="45.68086" lon="3.05029">
        <ele>844</ele>
        <time>2019-06-23T07:06:10.000Z</time>
      </trkpt>
      <trkpt lat="45.68083" lon="3.05025">
        <ele>844</ele>
        <time>2019-06-23T07:06:11.000Z</time>
      </trkpt>
      <trkpt lat="45.6808" lon="3.05022">
        <ele>844</ele>
        <time>2019-06-23T07:06:12.000Z</time>
      </trkpt>
      <trkpt lat="45.68078" lon="3.05019">
        <ele>843</ele>
        <time>2019-06-23T07:06:13.000Z</time>
      </trkpt>
      <trkpt lat="45.68075" lon="3.05015">
        <ele>843</ele>
        <time>2019-06-23T07:06:14.000Z</time>
      </trkpt>
      <trkpt lat="45.68073" lon="3.05012">
        <ele>843</ele>
        <time>2019-06-23T07:06:15.000Z</time>
      </trkpt>
      <trkpt lat="45.6807" lon="3.05009">
        <ele>843</ele>
        <time>2019-06-23T07:06:16.000Z</time>
      </trkpt>
      <trkpt lat="45.68068" lon="3.05006">
        <ele>843</ele>
        <time>2019-06-23T07:06:17.000Z</time>
      </trkpt>
      <trkpt lat="45.68065" lon="3.05003">
        <ele>843</ele>
        <time>2019-06-23T07:06:18.000Z</time>
      </trkpt>
      <trkpt lat="45.68063" lon="3.05">
        <ele>844</ele>
        <time>2019-06-23T07:06:19.000Z</time>
      </trkpt>
      <trkpt lat="45.68061" lon="3.04997">
        <ele>844</ele>
        <time>2019-06-23T07:06:20.000Z</time>
      </trkpt>
      <trkpt lat="45.68059" lon="3.04994">
        <ele>845</ele>
        <time>2019-06-23T07:06:21.000Z</time>
      </trkpt>
      <trkpt lat="45.68057" lon="3.0499">
        <ele>845</ele>
        <time>2019-06-23T07:06:22.000Z</time>
      </trkpt>
      <trkpt lat="45.68054" lon="3.04987">
        <ele>845</ele>
        <time>2019-06-23T07:06:23.000Z</time>
      </trkpt>
      <trkpt lat="45.68052" lon="3.04983">
        <ele>846</ele>
        <time>2019-06-23T07:06:24.000Z</time>
      </trkpt>
      <trkpt lat="45.68049" lon="3.0498">
        <ele>846</ele>
        <time>2019-06-23T07:06:25.000Z</time>
      </trkpt>
      <trkpt lat="45.68047" lon="3.04978">
        <ele>846</ele>
        <time>2019-06-23T07:06:26.000Z</time>
      </trkpt>
      <trkpt lat="45.68044" lon="3.04975">
        <ele>846</ele>
        <time>2019-06-23T07:06:27.000Z</time>
      </trkpt>
      <trkpt lat="45.68041" lon="3.04973">
        <ele>847</ele>
        <time>2019-06-23T07:06:28.000Z</time>
      </trkpt>
      <trkpt lat="45.68038" lon="3.04971">
        <ele>847</ele>
        <time>2019-06-23T07:06:29.000Z</time>
      </trkpt>
      <trkpt lat="45.68036" lon="3.04968">
        <ele>847</ele>
        <time>2019-06-23T07:06:30.000Z</time>
      </trkpt>
      <trkpt lat="45.68033" lon="3.04966">
        <ele>847</ele>
        <time>2019-06-23T07:06:31.000Z</time>
      </trkpt>
      <trkpt lat="45.6803" lon="3.04963">
        <ele>848</ele>
        <time>2019-06-23T07:06:32.000Z</time>
      </trkpt>
      <trkpt lat="45.68028" lon="3.04961">
        <ele>848</ele>
        <time>2019-06-23T07:06:33.000Z</time>
      </trkpt>
      <trkpt lat="45.68025" lon="3.04958">
        <ele>848</ele>
        <time>2019-06-23T07:06:34.000Z</time>
      </trkpt>
      <trkpt lat="45.68023" lon="3.04956">
        <ele>848</ele>
        <time>2019-06-23T07:06:35.000Z</time>
      </trkpt>
      <trkpt lat="45.6802" lon="3.04953">
        <ele>849</ele>
        <time>2019-06-23T07:06:36.000Z</time>
      </trkpt>
      <trkpt lat="45.68017" lon="3.04951">
        <ele>849</ele>
        <time>2019-06-23T07:06:37.000Z</time>
      </trkpt>
      <trkpt lat="45.68015" lon="3.04949">
        <ele>849</ele>
        <time>2019-06-23T07:06:38.000Z</time>
      </trkpt>
      <trkpt lat="45.68012" lon="3.04946">
        <ele>850</ele>
        <time>2019-06-23T07:06:39.000Z</time>
      </trkpt>
      <trkpt lat="45.6801" lon="3.04943">
        <ele>850</ele>
        <time>2019-06-23T07:06:40.000Z</time>
      </trkpt>
      <trkpt lat="45.68009" lon="3.04941">
        <ele>849</ele>
        <time>2019-06-23T07:06:41.000Z</time>
      </trkpt>
      <trkpt lat="45.68007" lon="3.04937">
        <ele>849</ele>
        <time>2019-06-23T07:06:42.000Z</time>
      </trkpt>
      <trkpt lat="45.68006" lon="3.04933">
        <ele>849</ele>
        <time>2019-06-23T07:06:43.000Z</time>
      </trkpt>
      <trkpt lat="45.68006" lon="3.04928">
        <ele>849</ele>
        <time>2019-06-23T07:06:44.000Z</time>
      </trkpt>
      <trkpt lat="45.68005" lon="3.04924">
        <ele>850</ele>
        <time>2019-06-23T07:06:45.000Z</time>
      </trkpt>
      <trkpt lat="45.68005" lon="3.0492">
        <ele>850</ele>
        <time>2019-06-23T07:06:46.000Z</time>
      </trkpt>
      <trkpt lat="45.68005" lon="3.04917">
        <ele>850</ele>
        <time>2019-06-23T07:06:47.000Z</time>
      </trkpt>
      <trkpt lat="45.68004" lon="3.04914">
        <ele>851</ele>
        <time>2019-06-23T07:06:48.000Z</time>
      </trkpt>
      <trkpt lat="45.68004" lon="3.04911">
        <ele>851</ele>
        <time>2019-06-23T07:06:49.000Z</time>
      </trkpt>
      <trkpt lat="45.68005" lon="3.04907">
        <ele>850</ele>
        <time>2019-06-23T07:06:50.000Z</time>
      </trkpt>
      <trkpt lat="45.68005" lon="3.04904">
        <ele>849</ele>
        <time>2019-06-23T07:06:51.000Z</time>
      </trkpt>
      <trkpt lat="45.68006" lon="3.04901">
        <ele>849</ele>
        <time>2019-06-23T07:06:52.000Z</time>
      </trkpt>
      <trkpt lat="45.68007" lon="3.04898">
        <ele>849</ele>
        <time>2019-06-23T07:06:53.000Z</time>
      </trkpt>
      <trkpt lat="45.68007" lon="3.04894">
        <ele>849</ele>
        <time>2019-06-23T07:06:54.000Z</time>
      </trkpt>
      <trkpt lat="45.68008" lon="3.0489">
        <ele>849</ele>
        <time>2019-06-23T07:06:55.000Z</time>
      </trkpt>
      <trkpt lat="45.68009" lon="3.04887">
        <ele>850</ele>
        <time>2019-06-23T07:06:56.000Z</time>
      </trkpt>
      <trkpt lat="45.6801" lon="3.04884">
        <ele>850</ele>
        <time>2019-06-23T07:06:57.000Z</time>
      </trkpt>
      <trkpt lat="45.68011" lon="3.04881">
        <ele>850</ele>
        <time>2019-06-23T07:06:58.000Z</time>
      </trkpt>
      <trkpt lat="45.68012" lon="3.04878">
        <ele>850</ele>
        <time>2019-06-23T07:06:59.000Z</time>
      </trkpt>
      <trkpt lat="45.68013" lon="3.04874">
        <ele>850</ele>
        <time>2019-06-23T07:07:00.000Z</time>
      </trkpt>
      <trkpt lat="45.68013" lon="3.04872">
        <ele>849</ele>
        <time>2019-06-23T07:07:01.000Z</time>
      </trkpt>
      <trkpt lat="45.68015" lon="3.04868">
        <ele>849</ele>
        <time>2019-06-23T07:07:02.000Z</time>
      </trkpt>
      <trkpt lat="45.68015" lon="3.04864">
        <ele>849</ele>
        <time>2019-06-23T07:07:03.000Z</time>
      </trkpt>
      <trkpt lat="45.68016" lon="3.0486">
        <ele>850</ele>
        <time>2019-06-23T07:07:04.000Z</time>
      </trkpt>
      <trkpt lat="45.68016" lon="3.04857">
        <ele>850</ele>
        <time>2019-06-23T07:07:05.000Z</time>
      </trkpt>
      <trkpt lat="45.68018" lon="3.04854">
        <ele>851</ele>
        <time>2019-06-23T07:07:06.000Z</time>
      </trkpt>
      <trkpt lat="45.6802" lon="3.0485">
        <ele>850</ele>
        <time>2019-06-23T07:07:07.000Z</time>
      </trkpt>
      <trkpt lat="45.68023" lon="3.04847">
        <ele>851</ele>
        <time>2019-06-23T07:07:08.000Z</time>
      </trkpt>
      <trkpt lat="45.68025" lon="3.04843">
        <ele>852</ele>
        <time>2019-06-23T07:07:09.000Z</time>
      </trkpt>
      <trkpt lat="45.68027" lon="3.0484">
        <ele>852</ele>
        <time>2019-06-23T07:07:10.000Z</time>
      </trkpt>
      <trkpt lat="45.68029" lon="3.04836">
        <ele>852</ele>
        <time>2019-06-23T07:07:11.000Z</time>
      </trkpt>
      <trkpt lat="45.68031" lon="3.04833">
        <ele>852</ele>
        <time>2019-06-23T07:07:12.000Z</time>
      </trkpt>
      <trkpt lat="45.68033" lon="3.0483">
        <ele>853</ele>
        <time>2019-06-23T07:07:13.000Z</time>
      </trkpt>
      <trkpt lat="45.68034" lon="3.04827">
        <ele>853</ele>
        <time>2019-06-23T07:07:14.000Z</time>
      </trkpt>
      <trkpt lat="45.68036" lon="3.04824">
        <ele>854</ele>
        <time>2019-06-23T07:07:15.000Z</time>
      </trkpt>
      <trkpt lat="45.68037" lon="3.04821">
        <ele>855</ele>
        <time>2019-06-23T07:07:16.000Z</time>
      </trkpt>
      <trkpt lat="45.68038" lon="3.04818">
        <ele>855</ele>
        <time>2019-06-23T07:07:17.000Z</time>
      </trkpt>
      <trkpt lat="45.68038" lon="3.04815">
        <ele>856</ele>
        <time>2019-06-23T07:07:18.000Z</time>
      </trkpt>
      <trkpt lat="45.68038" lon="3.04812">
        <ele>858</ele>
        <time>2019-06-23T07:07:19.000Z</time>
      </trkpt>
      <trkpt lat="45.6804" lon="3.04809">
        <ele>858</ele>
        <time>2019-06-23T07:07:20.000Z</time>
      </trkpt>
      <trkpt lat="45.6804" lon="3.04807">
        <ele>859</ele>
        <time>2019-06-23T07:07:21.000Z</time>
      </trkpt>
      <trkpt lat="45.68041" lon="3.04805">
        <ele>860</ele>
        <time>2019-06-23T07:07:22.000Z</time>
      </trkpt>
      <trkpt lat="45.68043" lon="3.04804">
        <ele>861</ele>
        <time>2019-06-23T07:07:23.000Z</time>
      </trkpt>
      <trkpt lat="45.68043" lon="3.04803">
        <ele>862</ele>
        <time>2019-06-23T07:07:24.000Z</time>
      </trkpt>
      <trkpt lat="45.68045" lon="3.04801">
        <ele>863</ele>
        <time>2019-06-23T07:07:25.000Z</time>
      </trkpt>
      <trkpt lat="45.68047" lon="3.04799">
        <ele>864</ele>
        <time>2019-06-23T07:07:26.000Z</time>
      </trkpt>
      <trkpt lat="45.68048" lon="3.04797">
        <ele>865</ele>
        <time>2019-06-23T07:07:27.000Z</time>
      </trkpt>
      <trkpt lat="45.68049" lon="3.04795">
        <ele>866</ele>
        <time>2019-06-23T07:07:28.000Z</time>
      </trkpt>
      <trkpt lat="45.68048" lon="3.04792">
        <ele>866</ele>
        <time>2019-06-23T07:07:29.000Z</time>
      </trkpt>
      <trkpt lat="45.68048" lon="3.04789">
        <ele>867</ele>
        <time>2019-06-23T07:07:30.000Z</time>
      </trkpt>
      <trkpt lat="45.68047" lon="3.04785">
        <ele>866</ele>
        <time>2019-06-23T07:07:31.000Z</time>
      </trkpt>
      <trkpt lat="45.68045" lon="3.04781">
        <ele>865</ele>
        <time>2019-06-23T07:07:32.000Z</time>
      </trkpt>
      <trkpt lat="45.68043" lon="3.04778">
        <ele>865</ele>
        <time>2019-06-23T07:07:33.000Z</time>
      </trkpt>
      <trkpt lat="45.68042" lon="3.04775">
        <ele>865</ele>
        <time>2019-06-23T07:07:34.000Z</time>
      </trkpt>
      <trkpt lat="45.68042" lon="3.0477">
        <ele>865</ele>
        <time>2019-06-23T07:07:35.000Z</time>
      </trkpt>
      <trkpt lat="45.68042" lon="3.04765">
        <ele>863</ele>
        <time>2019-06-23T07:07:36.000Z</time>
      </trkpt>
      <trkpt lat="45.68042" lon="3.04761">
        <ele>862</ele>
        <time>2019-06-23T07:07:37.000Z</time>
      </trkpt>
      <trkpt lat="45.68043" lon="3.04757">
        <ele>863</ele>
        <time>2019-06-23T07:07:38.000Z</time>
      </trkpt>
      <trkpt lat="45.68044" lon="3.04754">
        <ele>862</ele>
        <time>2019-06-23T07:07:39.000Z</time>
      </trkpt>
      <trkpt lat="45.68045" lon="3.04751">
        <ele>862</ele>
        <time>2019-06-23T07:07:40.000Z</time>
      </trkpt>
      <trkpt lat="45.68046" lon="3.04747">
        <ele>862</ele>
        <time>2019-06-23T07:07:41.000Z</time>
      </trkpt>
      <trkpt lat="45.68047" lon="3.04745">
        <ele>863</ele>
        <time>2019-06-23T07:07:42.000Z</time>
      </trkpt>
      <trkpt lat="45.68048" lon="3.04741">
        <ele>863</ele>
        <time>2019-06-23T07:07:43.000Z</time>
      </trkpt>
      <trkpt lat="45.68049" lon="3.04738">
        <ele>863</ele>
        <time>2019-06-23T07:07:44.000Z</time>
      </trkpt>
      <trkpt lat="45.68049" lon="3.04735">
        <ele>864</ele>
        <time>2019-06-23T07:07:45.000Z</time>
      </trkpt>
      <trkpt lat="45.6805" lon="3.04732">
        <ele>865</ele>
        <time>2019-06-23T07:07:46.000Z</time>
      </trkpt>
      <trkpt lat="45.68051" lon="3.04729">
        <ele>864</ele>
        <time>2019-06-23T07:07:47.000Z</time>
      </trkpt>
      <trkpt lat="45.68053" lon="3.04726">
        <ele>864</ele>
        <time>2019-06-23T07:07:48.000Z</time>
      </trkpt>
      <trkpt lat="45.68054" lon="3.04723">
        <ele>864</ele>
        <time>2019-06-23T07:07:49.000Z</time>
      </trkpt>
      <trkpt lat="45.68054" lon="3.0472">
        <ele>865</ele>
        <time>2019-06-23T07:07:50.000Z</time>
      </trkpt>
      <trkpt lat="45.68055" lon="3.04717">
        <ele>865</ele>
        <time>2019-06-23T07:07:51.000Z</time>
      </trkpt>
      <trkpt lat="45.68056" lon="3.04714">
        <ele>866</ele>
        <time>2019-06-23T07:07:52.000Z</time>
      </trkpt>
      <trkpt lat="45.68056" lon="3.04711">
        <ele>866</ele>
        <time>2019-06-23T07:07:53.000Z</time>
      </trkpt>
      <trkpt lat="45.68057" lon="3.04709">
        <ele>866</ele>
        <time>2019-06-23T07:07:54.000Z</time>
      </trkpt>
      <trkpt lat="45.68058" lon="3.04706">
        <ele>866</ele>
        <time>2019-06-23T07:07:55.000Z</time>
      </trkpt>
      <trkpt lat="45.68059" lon="3.04702">
        <ele>867</ele>
        <time>2019-06-23T07:07:56.000Z</time>
      </trkpt>
      <trkpt lat="45.6806" lon="3.047">
        <ele>866</ele>
        <time>2019-06-23T07:07:57.000Z</time>
      </trkpt>
      <trkpt lat="45.6806" lon="3.04697">
        <ele>867</ele>
        <time>2019-06-23T07:07:58.000Z</time>
      </trkpt>
      <trkpt lat="45.68061" lon="3.04694">
        <ele>866</ele>
        <time>2019-06-23T07:07:59.000Z</time>
      </trkpt>
      <trkpt lat="45.68062" lon="3.04691">
        <ele>866</ele>
        <time>2019-06-23T07:08:00.000Z</time>
      </trkpt>
      <trkpt lat="45.68063" lon="3.04688">
        <ele>865</ele>
        <time>2019-06-23T07:08:01.000Z</time>
      </trkpt>
      <trkpt lat="45.68064" lon="3.04684">
        <ele>865</ele>
        <time>2019-06-23T07:08:02.000Z</time>
      </trkpt>
      <trkpt lat="45.68065" lon="3.04681">
        <ele>866</ele>
        <time>2019-06-23T07:08:03.000Z</time>
      </trkpt>
      <trkpt lat="45.68066" lon="3.04677">
        <ele>866</ele>
        <time>2019-06-23T07:08:04.000Z</time>
      </trkpt>
      <trkpt lat="45.68067" lon="3.04674">
        <ele>866</ele>
        <time>2019-06-23T07:08:05.000Z</time>
      </trkpt>
      <trkpt lat="45.68068" lon="3.04671">
        <ele>865</ele>
        <time>2019-06-23T07:08:06.000Z</time>
      </trkpt>
      <trkpt lat="45.68069" lon="3.04668">
        <ele>866</ele>
        <time>2019-06-23T07:08:07.000Z</time>
      </trkpt>
      <trkpt lat="45.6807" lon="3.04664">
        <ele>867</ele>
        <time>2019-06-23T07:08:08.000Z</time>
      </trkpt>
      <trkpt lat="45.6807" lon="3.04662">
        <ele>867</ele>
        <time>2019-06-23T07:08:09.000Z</time>
      </trkpt>
      <trkpt lat="45.68071" lon="3.04659">
        <ele>867</ele>
        <time>2019-06-23T07:08:10.000Z</time>
      </trkpt>
      <trkpt lat="45.68072" lon="3.04656">
        <ele>866</ele>
        <time>2019-06-23T07:08:11.000Z</time>
      </trkpt>
      <trkpt lat="45.68073" lon="3.04653">
        <ele>866</ele>
        <time>2019-06-23T07:08:12.000Z</time>
      </trkpt>
      <trkpt lat="45.68073" lon="3.04649">
        <ele>867</ele>
        <time>2019-06-23T07:08:13.000Z</time>
      </trkpt>
      <trkpt lat="45.68074" lon="3.04646">
        <ele>868</ele>
        <time>2019-06-23T07:08:14.000Z</time>
      </trkpt>
      <trkpt lat="45.68075" lon="3.04643">
        <ele>868</ele>
        <time>2019-06-23T07:08:15.000Z</time>
      </trkpt>
      <trkpt lat="45.68077" lon="3.0464">
        <ele>869</ele>
        <time>2019-06-23T07:08:16.000Z</time>
      </trkpt>
      <trkpt lat="45.68078" lon="3.04637">
        <ele>869</ele>
        <time>2019-06-23T07:08:17.000Z</time>
      </trkpt>
      <trkpt lat="45.68079" lon="3.04634">
        <ele>869</ele>
        <time>2019-06-23T07:08:18.000Z</time>
      </trkpt>
      <trkpt lat="45.6808" lon="3.04632">
        <ele>870</ele>
        <time>2019-06-23T07:08:19.000Z</time>
      </trkpt>
      <trkpt lat="45.68082" lon="3.0463">
        <ele>870</ele>
        <time>2019-06-23T07:08:20.000Z</time>
      </trkpt>
      <trkpt lat="45.68084" lon="3.04628">
        <ele>870</ele>
        <time>2019-06-23T07:08:21.000Z</time>
      </trkpt>
      <trkpt lat="45.68085" lon="3.04626">
        <ele>871</ele>
        <time>2019-06-23T07:08:22.000Z</time>
      </trkpt>
      <trkpt lat="45.68086" lon="3.04624">
        <ele>871</ele>
        <time>2019-06-23T07:08:23.000Z</time>
      </trkpt>
      <trkpt lat="45.68088" lon="3.04622">
        <ele>872</ele>
        <time>2019-06-23T07:08:24.000Z</time>
      </trkpt>
      <trkpt lat="45.68089" lon="3.0462">
        <ele>872</ele>
        <time>2019-06-23T07:08:25.000Z</time>
      </trkpt>
      <trkpt lat="45.6809" lon="3.04618">
        <ele>872</ele>
        <time>2019-06-23T07:08:26.000Z</time>
      </trkpt>
      <trkpt lat="45.68092" lon="3.04616">
        <ele>872</ele>
        <time>2019-06-23T07:08:27.000Z</time>
      </trkpt>
      <trkpt lat="45.68093" lon="3.04613">
        <ele>872</ele>
        <time>2019-06-23T07:08:28.000Z</time>
      </trkpt>
      <trkpt lat="45.68094" lon="3.04611">
        <ele>872</ele>
        <time>2019-06-23T07:08:29.000Z</time>
      </trkpt>
      <trkpt lat="45.68096" lon="3.04608">
        <ele>872</ele>
        <time>2019-06-23T07:08:30.000Z</time>
      </trkpt>
      <trkpt lat="45.68097" lon="3.04606">
        <ele>873</ele>
        <time>2019-06-23T07:08:31.000Z</time>
      </trkpt>
      <trkpt lat="45.68098" lon="3.04603">
        <ele>873</ele>
        <time>2019-06-23T07:08:32.000Z</time>
      </trkpt>
      <trkpt lat="45.68099" lon="3.04601">
        <ele>873</ele>
        <time>2019-06-23T07:08:33.000Z</time>
      </trkpt>
      <trkpt lat="45.681" lon="3.04598">
        <ele>872</ele>
        <time>2019-06-23T07:08:34.000Z</time>
      </trkpt>
      <trkpt lat="45.68101" lon="3.04595">
        <ele>873</ele>
        <time>2019-06-23T07:08:35.000Z</time>
      </trkpt>
      <trkpt lat="45.68101" lon="3.04593">
        <ele>873</ele>
        <time>2019-06-23T07:08:36.000Z</time>
      </trkpt>
      <trkpt lat="45.68102" lon="3.0459">
        <ele>873</ele>
        <time>2019-06-23T07:08:37.000Z</time>
      </trkpt>
      <trkpt lat="45.68103" lon="3.04588">
        <ele>873</ele>
        <time>2019-06-23T07:08:38.000Z</time>
      </trkpt>
      <trkpt lat="45.68104" lon="3.04586">
        <ele>873</ele>
        <time>2019-06-23T07:08:39.000Z</time>
      </trkpt>
      <trkpt lat="45.68105" lon="3.04584">
        <ele>874</ele>
        <time>2019-06-23T07:08:40.000Z</time>
      </trkpt>
      <trkpt lat="45.68105" lon="3.04583">
        <ele>874</ele>
        <time>2019-06-23T07:08:41.000Z</time>
      </trkpt>
      <trkpt lat="45.68106" lon="3.0458">
        <ele>874</ele>
        <time>2019-06-23T07:08:42.000Z</time>
      </trkpt>
      <trkpt lat="45.68107" lon="3.04577">
        <ele>874</ele>
        <time>2019-06-23T07:08:43.000Z</time>
      </trkpt>
      <trkpt lat="45.68108" lon="3.04575">
        <ele>874</ele>
        <time>2019-06-23T07:08:44.000Z</time>
      </trkpt>
      <trkpt lat="45.68109" lon="3.04573">
        <ele>875</ele>
        <time>2019-06-23T07:08:45.000Z</time>
      </trkpt>
      <trkpt lat="45.6811" lon="3.04571">
        <ele>875</ele>
        <time>2019-06-23T07:08:46.000Z</time>
      </trkpt>
      <trkpt lat="45.6811" lon="3.04567">
        <ele>875</ele>
        <time>2019-06-23T07:08:47.000Z</time>
      </trkpt>
      <trkpt lat="45.6811" lon="3.04564">
        <ele>876</ele>
        <time>2019-06-23T07:08:48.000Z</time>
      </trkpt>
      <trkpt lat="45.68111" lon="3.04562">
        <ele>877</ele>
        <time>2019-06-23T07:08:49.000Z</time>
      </trkpt>
      <trkpt lat="45.68111" lon="3.04559">
        <ele>876</ele>
        <time>2019-06-23T07:08:50.000Z</time>
      </trkpt>
      <trkpt lat="45.68112" lon="3.04556">
        <ele>876</ele>
        <time>2019-06-23T07:08:51.000Z</time>
      </trkpt>
      <trkpt lat="45.68112" lon="3.04554">
        <ele>877</ele>
        <time>2019-06-23T07:08:52.000Z</time>
      </trkpt>
      <trkpt lat="45.68113" lon="3.0455">
        <ele>879</ele>
        <time>2019-06-23T07:08:53.000Z</time>
      </trkpt>
      <trkpt lat="45.68114" lon="3.04547">
        <ele>880</ele>
        <time>2019-06-23T07:08:54.000Z</time>
      </trkpt>
      <trkpt lat="45.68114" lon="3.04544">
        <ele>880</ele>
        <time>2019-06-23T07:08:55.000Z</time>
      </trkpt>
      <trkpt lat="45.68115" lon="3.04542">
        <ele>880</ele>
        <time>2019-06-23T07:08:56.000Z</time>
      </trkpt>
      <trkpt lat="45.68115" lon="3.04539">
        <ele>880</ele>
        <time>2019-06-23T07:08:57.000Z</time>
      </trkpt>
      <trkpt lat="45.68116" lon="3.04535">
        <ele>881</ele>
        <time>2019-06-23T07:08:58.000Z</time>
      </trkpt>
      <trkpt lat="45.68117" lon="3.04532">
        <ele>880</ele>
        <time>2019-06-23T07:08:59.000Z</time>
      </trkpt>
      <trkpt lat="45.68118" lon="3.04529">
        <ele>880</ele>
        <time>2019-06-23T07:09:00.000Z</time>
      </trkpt>
      <trkpt lat="45.68119" lon="3.04526">
        <ele>880</ele>
        <time>2019-06-23T07:09:01.000Z</time>
      </trkpt>
      <trkpt lat="45.6812" lon="3.04522">
        <ele>880</ele>
        <time>2019-06-23T07:09:02.000Z</time>
      </trkpt>
      <trkpt lat="45.6812" lon="3.04519">
        <ele>880</ele>
        <time>2019-06-23T07:09:03.000Z</time>
      </trkpt>
      <trkpt lat="45.68121" lon="3.04516">
        <ele>880</ele>
        <time>2019-06-23T07:09:04.000Z</time>
      </trkpt>
      <trkpt lat="45.68121" lon="3.04513">
        <ele>880</ele>
        <time>2019-06-23T07:09:05.000Z</time>
      </trkpt>
      <trkpt lat="45.68121" lon="3.0451">
        <ele>881</ele>
        <time>2019-06-23T07:09:06.000Z</time>
      </trkpt>
      <trkpt lat="45.68121" lon="3.04507">
        <ele>881</ele>
        <time>2019-06-23T07:09:07.000Z</time>
      </trkpt>
      <trkpt lat="45.68121" lon="3.04504">
        <ele>882</ele>
        <time>2019-06-23T07:09:08.000Z</time>
      </trkpt>
      <trkpt lat="45.68121" lon="3.04501">
        <ele>882</ele>
        <time>2019-06-23T07:09:09.000Z</time>
      </trkpt>
      <trkpt lat="45.6812" lon="3.04497">
        <ele>882</ele>
        <time>2019-06-23T07:09:10.000Z</time>
      </trkpt>
      <trkpt lat="45.6812" lon="3.04494">
        <ele>881</ele>
        <time>2019-06-23T07:09:11.000Z</time>
      </trkpt>
      <trkpt lat="45.68119" lon="3.04491">
        <ele>881</ele>
        <time>2019-06-23T07:09:12.000Z</time>
      </trkpt>
      <trkpt lat="45.68119" lon="3.04489">
        <ele>882</ele>
        <time>2019-06-23T07:09:13.000Z</time>
      </trkpt>
      <trkpt lat="45.68118" lon="3.04486">
        <ele>882</ele>
        <time>2019-06-23T07:09:14.000Z</time>
      </trkpt>
      <trkpt lat="45.68117" lon="3.04483">
        <ele>883</ele>
        <time>2019-06-23T07:09:15.000Z</time>
      </trkpt>
      <trkpt lat="45.68116" lon="3.0448">
        <ele>883</ele>
        <time>2019-06-23T07:09:16.000Z</time>
      </trkpt>
      <trkpt lat="45.68115" lon="3.04477">
        <ele>883</ele>
        <time>2019-06-23T07:09:17.000Z</time>
      </trkpt>
      <trkpt lat="45.68115" lon="3.04474">
        <ele>883</ele>
        <time>2019-06-23T07:09:18.000Z</time>
      </trkpt>
      <trkpt lat="45.68114" lon="3.04471">
        <ele>884</ele>
        <time>2019-06-23T07:09:19.000Z</time>
      </trkpt>
      <trkpt lat="45.68114" lon="3.04468">
        <ele>884</ele>
        <time>2019-06-23T07:09:20.000Z</time>
      </trkpt>
      <trkpt lat="45.68113" lon="3.04465">
        <ele>884</ele>
        <time>2019-06-23T07:09:21.000Z</time>
      </trkpt>
      <trkpt lat="45.68113" lon="3.04462">
        <ele>883</ele>
        <time>2019-06-23T07:09:22.000Z</time>
      </trkpt>
      <trkpt lat="45.68112" lon="3.04459">
        <ele>884</ele>
        <time>2019-06-23T07:09:23.000Z</time>
      </trkpt>
      <trkpt lat="45.68111" lon="3.04456">
        <ele>884</ele>
        <time>2019-06-23T07:09:24.000Z</time>
      </trkpt>
      <trkpt lat="45.6811" lon="3.04453">
        <ele>884</ele>
        <time>2019-06-23T07:09:25.000Z</time>
      </trkpt>
      <trkpt lat="45.68109" lon="3.0445">
        <ele>884</ele>
        <time>2019-06-23T07:09:26.000Z</time>
      </trkpt>
      <trkpt lat="45.68108" lon="3.04447">
        <ele>885</ele>
        <time>2019-06-23T07:09:27.000Z</time>
      </trkpt>
      <trkpt lat="45.68108" lon="3.04444">
        <ele>885</ele>
        <time>2019-06-23T07:09:28.000Z</time>
      </trkpt>
      <trkpt lat="45.68107" lon="3.04442">
        <ele>886</ele>
        <time>2019-06-23T07:09:29.000Z</time>
      </trkpt>
      <trkpt lat="45.68107" lon="3.04439">
        <ele>886</ele>
        <time>2019-06-23T07:09:30.000Z</time>
      </trkpt>
      <trkpt lat="45.68106" lon="3.04437">
        <ele>886</ele>
        <time>2019-06-23T07:09:31.000Z</time>
      </trkpt>
      <trkpt lat="45.68106" lon="3.04434">
        <ele>886</ele>
        <time>2019-06-23T07:09:32.000Z</time>
      </trkpt>
      <trkpt lat="45.68105" lon="3.04431">
        <ele>886</ele>
        <time>2019-06-23T07:09:33.000Z</time>
      </trkpt>
      <trkpt lat="45.68105" lon="3.04428">
        <ele>886</ele>
        <time>2019-06-23T07:09:34.000Z</time>
      </trkpt>
      <trkpt lat="45.68105" lon="3.04425">
        <ele>887</ele>
        <time>2019-06-23T07:09:35.000Z</time>
      </trkpt>
      <trkpt lat="45.68104" lon="3.04422">
        <ele>887</ele>
        <time>2019-06-23T07:09:36.000Z</time>
      </trkpt>
      <trkpt lat="45.68104" lon="3.0442">
        <ele>887</ele>
        <time>2019-06-23T07:09:37.000Z</time>
      </trkpt>
      <trkpt lat="45.68103" lon="3.04416">
        <ele>888</ele>
        <time>2019-06-23T07:09:38.000Z</time>
      </trkpt>
      <trkpt lat="45.68102" lon="3.04413">
        <ele>888</ele>
        <time>2019-06-23T07:09:39.000Z</time>
      </trkpt>
      <trkpt lat="45.68102" lon="3.04411">
        <ele>889</ele>
        <time>2019-06-23T07:09:40.000Z</time>
      </trkpt>
      <trkpt lat="45.68101" lon="3.04408">
        <ele>889</ele>
        <time>2019-06-23T07:09:41.000Z</time>
      </trkpt>
      <trkpt lat="45.68101" lon="3.04405">
        <ele>889</ele>
        <time>2019-06-23T07:09:42.000Z</time>
      </trkpt>
      <trkpt lat="45.681" lon="3.04402">
        <ele>890</ele>
        <time>2019-06-23T07:09:43.000Z</time>
      </trkpt>
      <trkpt lat="45.681" lon="3.044">
        <ele>890</ele>
        <time>2019-06-23T07:09:44.000Z</time>
      </trkpt>
      <trkpt lat="45.681" lon="3.04397">
        <ele>890</ele>
        <time>2019-06-23T07:09:45.000Z</time>
      </trkpt>
      <trkpt lat="45.681" lon="3.04394">
        <ele>890</ele>
        <time>2019-06-23T07:09:46.000Z</time>
      </trkpt>
      <trkpt lat="45.68099" lon="3.04391">
        <ele>890</ele>
        <time>2019-06-23T07:09:47.000Z</time>
      </trkpt>
      <trkpt lat="45.68099" lon="3.04388">
        <ele>890</ele>
        <time>2019-06-23T07:09:48.000Z</time>
      </trkpt>
      <trkpt lat="45.68099" lon="3.04385">
        <ele>890</ele>
        <time>2019-06-23T07:09:49.000Z</time>
      </trkpt>
      <trkpt lat="45.68098" lon="3.04383">
        <ele>890</ele>
        <time>2019-06-23T07:09:50.000Z</time>
      </trkpt>
      <trkpt lat="45.68098" lon="3.0438">
        <ele>891</ele>
        <time>2019-06-23T07:09:51.000Z</time>
      </trkpt>
      <trkpt lat="45.68097" lon="3.04377">
        <ele>891</ele>
        <time>2019-06-23T07:09:52.000Z</time>
      </trkpt>
      <trkpt lat="45.68097" lon="3.04374">
        <ele>890</ele>
        <time>2019-06-23T07:09:53.000Z</time>
      </trkpt>
      <trkpt lat="45.68096" lon="3.0437">
        <ele>890</ele>
        <time>2019-06-23T07:09:54.000Z</time>
      </trkpt>
      <trkpt lat="45.68095" lon="3.04367">
        <ele>890</ele>
        <time>2019-06-23T07:09:55.000Z</time>
      </trkpt>
      <trkpt lat="45.68094" lon="3.04364">
        <ele>890</ele>
        <time>2019-06-23T07:09:56.000Z</time>
      </trkpt>
      <trkpt lat="45.68093" lon="3.04361">
        <ele>891</ele>
        <time>2019-06-23T07:09:57.000Z</time>
      </trkpt>
      <trkpt lat="45.68093" lon="3.04358">
        <ele>891</ele>
        <time>2019-06-23T07:09:58.000Z</time>
      </trkpt>
      <trkpt lat="45.68092" lon="3.04355">
        <ele>892</ele>
        <time>2019-06-23T07:09:59.000Z</time>
      </trkpt>
      <trkpt lat="45.68091" lon="3.04352">
        <ele>893</ele>
        <time>2019-06-23T07:10:00.000Z</time>
      </trkpt>
      <trkpt lat="45.6809" lon="3.04348">
        <ele>893</ele>
        <time>2019-06-23T07:10:01.000Z</time>
      </trkpt>
      <trkpt lat="45.68089" lon="3.04345">
        <ele>893</ele>
        <time>2019-06-23T07:10:02.000Z</time>
      </trkpt>
      <trkpt lat="45.68089" lon="3.04342">
        <ele>893</ele>
        <time>2019-06-23T07:10:03.000Z</time>
      </trkpt>
      <trkpt lat="45.68088" lon="3.04339">
        <ele>894</ele>
        <time>2019-06-23T07:10:04.000Z</time>
      </trkpt>
      <trkpt lat="45.68087" lon="3.04335">
        <ele>895</ele>
        <time>2019-06-23T07:10:05.000Z</time>
      </trkpt>
      <trkpt lat="45.68086" lon="3.04332">
        <ele>895</ele>
        <time>2019-06-23T07:10:06.000Z</time>
      </trkpt>
      <trkpt lat="45.68085" lon="3.04329">
        <ele>895</ele>
        <time>2019-06-23T07:10:07.000Z</time>
      </trkpt>
      <trkpt lat="45.68085" lon="3.04326">
        <ele>895</ele>
        <time>2019-06-23T07:10:08.000Z</time>
      </trkpt>
      <trkpt lat="45.68084" lon="3.04323">
        <ele>895</ele>
        <time>2019-06-23T07:10:09.000Z</time>
      </trkpt>
      <trkpt lat="45.68084" lon="3.0432">
        <ele>895</ele>
        <time>2019-06-23T07:10:10.000Z</time>
      </trkpt>
      <trkpt lat="45.68084" lon="3.04317">
        <ele>895</ele>
        <time>2019-06-23T07:10:11.000Z</time>
      </trkpt>
      <trkpt lat="45.68083" lon="3.04314">
        <ele>895</ele>
        <time>2019-06-23T07:10:12.000Z</time>
      </trkpt>
      <trkpt lat="45.68083" lon="3.04311">
        <ele>895</ele>
        <time>2019-06-23T07:10:13.000Z</time>
      </trkpt>
      <trkpt lat="45.68083" lon="3.04309">
        <ele>896</ele>
        <time>2019-06-23T07:10:14.000Z</time>
      </trkpt>
      <trkpt lat="45.68082" lon="3.04306">
        <ele>895</ele>
        <time>2019-06-23T07:10:15.000Z</time>
      </trkpt>
      <trkpt lat="45.68082" lon="3.04303">
        <ele>896</ele>
        <time>2019-06-23T07:10:16.000Z</time>
      </trkpt>
      <trkpt lat="45.68081" lon="3.043">
        <ele>896</ele>
        <time>2019-06-23T07:10:17.000Z</time>
      </trkpt>
      <trkpt lat="45.6808" lon="3.04297">
        <ele>896</ele>
        <time>2019-06-23T07:10:18.000Z</time>
      </trkpt>
      <trkpt lat="45.68079" lon="3.04295">
        <ele>897</ele>
        <time>2019-06-23T07:10:19.000Z</time>
      </trkpt>
      <trkpt lat="45.68078" lon="3.04293">
        <ele>897</ele>
        <time>2019-06-23T07:10:20.000Z</time>
      </trkpt>
      <trkpt lat="45.68077" lon="3.04291">
        <ele>897</ele>
        <time>2019-06-23T07:10:21.000Z</time>
      </trkpt>
      <trkpt lat="45.68076" lon="3.04289">
        <ele>898</ele>
        <time>2019-06-23T07:10:22.000Z</time>
      </trkpt>
      <trkpt lat="45.68074" lon="3.04287">
        <ele>897</ele>
        <time>2019-06-23T07:10:23.000Z</time>
      </trkpt>
      <trkpt lat="45.68073" lon="3.04285">
        <ele>898</ele>
        <time>2019-06-23T07:10:24.000Z</time>
      </trkpt>
      <trkpt lat="45.68071" lon="3.04283">
        <ele>898</ele>
        <time>2019-06-23T07:10:25.000Z</time>
      </trkpt>
      <trkpt lat="45.68069" lon="3.04281">
        <ele>899</ele>
        <time>2019-06-23T07:10:26.000Z</time>
      </trkpt>
      <trkpt lat="45.68067" lon="3.04279">
        <ele>899</ele>
        <time>2019-06-23T07:10:27.000Z</time>
      </trkpt>
      <trkpt lat="45.68065" lon="3.04277">
        <ele>899</ele>
        <time>2019-06-23T07:10:28.000Z</time>
      </trkpt>
      <trkpt lat="45.68063" lon="3.04275">
        <ele>899</ele>
        <time>2019-06-23T07:10:29.000Z</time>
      </trkpt>
      <trkpt lat="45.68061" lon="3.04273">
        <ele>899</ele>
        <time>2019-06-23T07:10:30.000Z</time>
      </trkpt>
      <trkpt lat="45.68059" lon="3.04271">
        <ele>899</ele>
        <time>2019-06-23T07:10:31.000Z</time>
      </trkpt>
      <trkpt lat="45.68057" lon="3.04268">
        <ele>900</ele>
        <time>2019-06-23T07:10:32.000Z</time>
      </trkpt>
      <trkpt lat="45.68055" lon="3.04266">
        <ele>900</ele>
        <time>2019-06-23T07:10:33.000Z</time>
      </trkpt>
      <trkpt lat="45.68053" lon="3.04264">
        <ele>900</ele>
        <time>2019-06-23T07:10:34.000Z</time>
      </trkpt>
      <trkpt lat="45.6805" lon="3.04261">
        <ele>900</ele>
        <time>2019-06-23T07:10:35.000Z</time>
      </trkpt>
      <trkpt lat="45.68048" lon="3.04259">
        <ele>900</ele>
        <time>2019-06-23T07:10:36.000Z</time>
      </trkpt>
      <trkpt lat="45.68046" lon="3.04256">
        <ele>900</ele>
        <time>2019-06-23T07:10:37.000Z</time>
      </trkpt>
      <trkpt lat="45.68043" lon="3.04254">
        <ele>900</ele>
        <time>2019-06-23T07:10:38.000Z</time>
      </trkpt>
      <trkpt lat="45.68041" lon="3.04251">
        <ele>900</ele>
        <time>2019-06-23T07:10:39.000Z</time>
      </trkpt>
      <trkpt lat="45.68038" lon="3.04248">
        <ele>900</ele>
        <time>2019-06-23T07:10:40.000Z</time>
      </trkpt>
      <trkpt lat="45.68036" lon="3.04246">
        <ele>900</ele>
        <time>2019-06-23T07:10:41.000Z</time>
      </trkpt>
      <trkpt lat="45.68034" lon="3.04243">
        <ele>900</ele>
        <time>2019-06-23T07:10:42.000Z</time>
      </trkpt>
      <trkpt lat="45.68032" lon="3.04241">
        <ele>900</ele>
        <time>2019-06-23T07:10:43.000Z</time>
      </trkpt>
      <trkpt lat="45.6803" lon="3.04237">
        <ele>900</ele>
        <time>2019-06-23T07:10:44.000Z</time>
      </trkpt>
      <trkpt lat="45.68029" lon="3.04234">
        <ele>900</ele>
        <time>2019-06-23T07:10:45.000Z</time>
      </trkpt>
      <trkpt lat="45.68029" lon="3.04229">
        <ele>900</ele>
        <time>2019-06-23T07:10:46.000Z</time>
      </trkpt>
      <trkpt lat="45.68029" lon="3.04225">
        <ele>900</ele>
        <time>2019-06-23T07:10:47.000Z</time>
      </trkpt>
      <trkpt lat="45.68029" lon="3.04221">
        <ele>901</ele>
        <time>2019-06-23T07:10:48.000Z</time>
      </trkpt>
      <trkpt lat="45.68028" lon="3.04218">
        <ele>901</ele>
        <time>2019-06-23T07:10:49.000Z</time>
      </trkpt>
      <trkpt lat="45.68028" lon="3.04214">
        <ele>901</ele>
        <time>2019-06-23T07:10:50.000Z</time>
      </trkpt>
      <trkpt lat="45.68028" lon="3.0421">
        <ele>901</ele>
        <time>2019-06-23T07:10:51.000Z</time>
      </trkpt>
      <trkpt lat="45.68027" lon="3.04206">
        <ele>901</ele>
        <time>2019-06-23T07:10:52.000Z</time>
      </trkpt>
      <trkpt lat="45.68027" lon="3.04202">
        <ele>902</ele>
        <time>2019-06-23T07:10:53.000Z</time>
      </trkpt>
      <trkpt lat="45.68027" lon="3.04198">
        <ele>902</ele>
        <time>2019-06-23T07:10:54.000Z</time>
      </trkpt>
      <trkpt lat="45.68027" lon="3.04194">
        <ele>902</ele>
        <time>2019-06-23T07:10:55.000Z</time>
      </trkpt>
      <trkpt lat="45.68027" lon="3.04191">
        <ele>902</ele>
        <time>2019-06-23T07:10:56.000Z</time>
      </trkpt>
      <trkpt lat="45.68027" lon="3.04187">
        <ele>902</ele>
        <time>2019-06-23T07:10:57.000Z</time>
      </trkpt>
      <trkpt lat="45.68028" lon="3.04183">
        <ele>901</ele>
        <time>2019-06-23T07:10:58.000Z</time>
      </trkpt>
      <trkpt lat="45.68028" lon="3.04179">
        <ele>901</ele>
        <time>2019-06-23T07:10:59.000Z</time>
      </trkpt>
      <trkpt lat="45.68028" lon="3.04176">
        <ele>902</ele>
        <time>2019-06-23T07:11:00.000Z</time>
      </trkpt>
      <trkpt lat="45.68028" lon="3.04172">
        <ele>902</ele>
        <time>2019-06-23T07:11:01.000Z</time>
      </trkpt>
      <trkpt lat="45.68028" lon="3.04168">
        <ele>902</ele>
        <time>2019-06-23T07:11:02.000Z</time>
      </trkpt>
      <trkpt lat="45.68028" lon="3.04164">
        <ele>901</ele>
        <time>2019-06-23T07:11:03.000Z</time>
      </trkpt>
      <trkpt lat="45.68028" lon="3.0416">
        <ele>902</ele>
        <time>2019-06-23T07:11:04.000Z</time>
      </trkpt>
      <trkpt lat="45.68028" lon="3.04156">
        <ele>902</ele>
        <time>2019-06-23T07:11:05.000Z</time>
      </trkpt>
      <trkpt lat="45.68027" lon="3.04152">
        <ele>902</ele>
        <time>2019-06-23T07:11:06.000Z</time>
      </trkpt>
      <trkpt lat="45.68027" lon="3.04147">
        <ele>902</ele>
        <time>2019-06-23T07:11:07.000Z</time>
      </trkpt>
      <trkpt lat="45.68027" lon="3.04143">
        <ele>902</ele>
        <time>2019-06-23T07:11:08.000Z</time>
      </trkpt>
      <trkpt lat="45.68027" lon="3.04139">
        <ele>902</ele>
        <time>2019-06-23T07:11:09.000Z</time>
      </trkpt>
      <trkpt lat="45.68026" lon="3.04135">
        <ele>902</ele>
        <time>2019-06-23T07:11:10.000Z</time>
      </trkpt>
      <trkpt lat="45.68026" lon="3.04132">
        <ele>902</ele>
        <time>2019-06-23T07:11:11.000Z</time>
      </trkpt>
      <trkpt lat="45.68026" lon="3.04127">
        <ele>902</ele>
        <time>2019-06-23T07:11:12.000Z</time>
      </trkpt>
      <trkpt lat="45.68026" lon="3.04123">
        <ele>903</ele>
        <time>2019-06-23T07:11:13.000Z</time>
      </trkpt>
      <trkpt lat="45.68026" lon="3.04119">
        <ele>902</ele>
        <time>2019-06-23T07:11:14.000Z</time>
      </trkpt>
      <trkpt lat="45.68025" lon="3.04114">
        <ele>902</ele>
        <time>2019-06-23T07:11:15.000Z</time>
      </trkpt>
      <trkpt lat="45.68026" lon="3.04109">
        <ele>902</ele>
        <time>2019-06-23T07:11:16.000Z</time>
      </trkpt>
      <trkpt lat="45.68026" lon="3.04105">
        <ele>902</ele>
        <time>2019-06-23T07:11:17.000Z</time>
      </trkpt>
      <trkpt lat="45.68026" lon="3.041">
        <ele>901</ele>
        <time>2019-06-23T07:11:18.000Z</time>
      </trkpt>
      <trkpt lat="45.68026" lon="3.04095">
        <ele>901</ele>
        <time>2019-06-23T07:11:19.000Z</time>
      </trkpt>
      <trkpt lat="45.68026" lon="3.0409">
        <ele>901</ele>
        <time>2019-06-23T07:11:20.000Z</time>
      </trkpt>
      <trkpt lat="45.68026" lon="3.04085">
        <ele>902</ele>
        <time>2019-06-23T07:11:21.000Z</time>
      </trkpt>
      <trkpt lat="45.68027" lon="3.0408">
        <ele>902</ele>
        <time>2019-06-23T07:11:22.000Z</time>
      </trkpt>
      <trkpt lat="45.68027" lon="3.04075">
        <ele>902</ele>
        <time>2019-06-23T07:11:23.000Z</time>
      </trkpt>
      <trkpt lat="45.68027" lon="3.0407">
        <ele>903</ele>
        <time>2019-06-23T07:11:24.000Z</time>
      </trkpt>
      <trkpt lat="45.68027" lon="3.04065">
        <ele>903</ele>
        <time>2019-06-23T07:11:25.000Z</time>
      </trkpt>
      <trkpt lat="45.68027" lon="3.0406">
        <ele>903</ele>
        <time>2019-06-23T07:11:26.000Z</time>
      </trkpt>
      <trkpt lat="45.68027" lon="3.04056">
        <ele>903</ele>
        <time>2019-06-23T07:11:27.000Z</time>
      </trkpt>
      <trkpt lat="45.68028" lon="3.04051">
        <ele>903</ele>
        <time>2019-06-23T07:11:28.000Z</time>
      </trkpt>
      <trkpt lat="45.68028" lon="3.04046">
        <ele>903</ele>
        <time>2019-06-23T07:11:29.000Z</time>
      </trkpt>
      <trkpt lat="45.68028" lon="3.04041">
        <ele>903</ele>
        <time>2019-06-23T07:11:30.000Z</time>
      </trkpt>
      <trkpt lat="45.68028" lon="3.04036">
        <ele>903</ele>
        <time>2019-06-23T07:11:31.000Z</time>
      </trkpt>
      <trkpt lat="45.68029" lon="3.04031">
        <ele>904</ele>
        <time>2019-06-23T07:11:32.000Z</time>
      </trkpt>
      <trkpt lat="45.68029" lon="3.04026">
        <ele>904</ele>
        <time>2019-06-23T07:11:33.000Z</time>
      </trkpt>
      <trkpt lat="45.68029" lon="3.04021">
        <ele>904</ele>
        <time>2019-06-23T07:11:34.000Z</time>
      </trkpt>
      <trkpt lat="45.68029" lon="3.04016">
        <ele>904</ele>
        <time>2019-06-23T07:11:35.000Z</time>
      </trkpt>
      <trkpt lat="45.68029" lon="3.04012">
        <ele>904</ele>
        <time>2019-06-23T07:11:36.000Z</time>
      </trkpt>
      <trkpt lat="45.68029" lon="3.04007">
        <ele>905</ele>
        <time>2019-06-23T07:11:37.000Z</time>
      </trkpt>
      <trkpt lat="45.68029" lon="3.04003">
        <ele>905</ele>
        <time>2019-06-23T07:11:38.000Z</time>
      </trkpt>
      <trkpt lat="45.6803" lon="3.03998">
        <ele>905</ele>
        <time>2019-06-23T07:11:39.000Z</time>
      </trkpt>
      <trkpt lat="45.6803" lon="3.03994">
        <ele>905</ele>
        <time>2019-06-23T07:11:40.000Z</time>
      </trkpt>
      <trkpt lat="45.6803" lon="3.0399">
        <ele>905</ele>
        <time>2019-06-23T07:11:41.000Z</time>
      </trkpt>
      <trkpt lat="45.6803" lon="3.03985">
        <ele>905</ele>
        <time>2019-06-23T07:11:42.000Z</time>
      </trkpt>
      <trkpt lat="45.6803" lon="3.0398">
        <ele>905</ele>
        <time>2019-06-23T07:11:43.000Z</time>
      </trkpt>
      <trkpt lat="45.68031" lon="3.03975">
        <ele>906</ele>
        <time>2019-06-23T07:11:44.000Z</time>
      </trkpt>
      <trkpt lat="45.68031" lon="3.0397">
        <ele>905</ele>
        <time>2019-06-23T07:11:45.000Z</time>
      </trkpt>
      <trkpt lat="45.68031" lon="3.03965">
        <ele>905</ele>
        <time>2019-06-23T07:11:46.000Z</time>
      </trkpt>
      <trkpt lat="45.68032" lon="3.0396">
        <ele>906</ele>
        <time>2019-06-23T07:11:47.000Z</time>
      </trkpt>
      <trkpt lat="45.68032" lon="3.03956">
        <ele>906</ele>
        <time>2019-06-23T07:11:48.000Z</time>
      </trkpt>
      <trkpt lat="45.68032" lon="3.03952">
        <ele>906</ele>
        <time>2019-06-23T07:11:49.000Z</time>
      </trkpt>
      <trkpt lat="45.68032" lon="3.03947">
        <ele>906</ele>
        <time>2019-06-23T07:11:50.000Z</time>
      </trkpt>
      <trkpt lat="45.68032" lon="3.03943">
        <ele>906</ele>
        <time>2019-06-23T07:11:51.000Z</time>
      </trkpt>
      <trkpt lat="45.68033" lon="3.03939">
        <ele>906</ele>
        <time>2019-06-23T07:11:52.000Z</time>
      </trkpt>
      <trkpt lat="45.68033" lon="3.03935">
        <ele>906</ele>
        <time>2019-06-23T07:11:53.000Z</time>
      </trkpt>
      <trkpt lat="45.68033" lon="3.03931">
        <ele>906</ele>
        <time>2019-06-23T07:11:54.000Z</time>
      </trkpt>
      <trkpt lat="45.68034" lon="3.03927">
        <ele>906</ele>
        <time>2019-06-23T07:11:55.000Z</time>
      </trkpt>
      <trkpt lat="45.68034" lon="3.03923">
        <ele>907</ele>
        <time>2019-06-23T07:11:56.000Z</time>
      </trkpt>
      <trkpt lat="45.68035" lon="3.03919">
        <ele>907</ele>
        <time>2019-06-23T07:11:57.000Z</time>
      </trkpt>
      <trkpt lat="45.68036" lon="3.03916">
        <ele>907</ele>
        <time>2019-06-23T07:11:58.000Z</time>
      </trkpt>
      <trkpt lat="45.68037" lon="3.03912">
        <ele>907</ele>
        <time>2019-06-23T07:11:59.000Z</time>
      </trkpt>
      <trkpt lat="45.68038" lon="3.03909">
        <ele>908</ele>
        <time>2019-06-23T07:12:00.000Z</time>
      </trkpt>
      <trkpt lat="45.6804" lon="3.03906">
        <ele>908</ele>
        <time>2019-06-23T07:12:01.000Z</time>
      </trkpt>
      <trkpt lat="45.68041" lon="3.03903">
        <ele>909</ele>
        <time>2019-06-23T07:12:02.000Z</time>
      </trkpt>
      <trkpt lat="45.68043" lon="3.039">
        <ele>909</ele>
        <time>2019-06-23T07:12:03.000Z</time>
      </trkpt>
      <trkpt lat="45.68045" lon="3.03897">
        <ele>910</ele>
        <time>2019-06-23T07:12:04.000Z</time>
      </trkpt>
      <trkpt lat="45.68047" lon="3.03894">
        <ele>910</ele>
        <time>2019-06-23T07:12:05.000Z</time>
      </trkpt>
      <trkpt lat="45.68048" lon="3.03891">
        <ele>910</ele>
        <time>2019-06-23T07:12:06.000Z</time>
      </trkpt>
      <trkpt lat="45.6805" lon="3.03888">
        <ele>910</ele>
        <time>2019-06-23T07:12:07.000Z</time>
      </trkpt>
      <trkpt lat="45.68052" lon="3.03885">
        <ele>910</ele>
        <time>2019-06-23T07:12:08.000Z</time>
      </trkpt>
      <trkpt lat="45.68053" lon="3.03882">
        <ele>910</ele>
        <time>2019-06-23T07:12:09.000Z</time>
      </trkpt>
      <trkpt lat="45.68054" lon="3.03878">
        <ele>911</ele>
        <time>2019-06-23T07:12:10.000Z</time>
      </trkpt>
      <trkpt lat="45.68054" lon="3.03874">
        <ele>911</ele>
        <time>2019-06-23T07:12:11.000Z</time>
      </trkpt>
      <trkpt lat="45.68053" lon="3.03871">
        <ele>911</ele>
        <time>2019-06-23T07:12:12.000Z</time>
      </trkpt>
      <trkpt lat="45.68053" lon="3.03867">
        <ele>911</ele>
        <time>2019-06-23T07:12:13.000Z</time>
      </trkpt>
      <trkpt lat="45.68053" lon="3.03863">
        <ele>911</ele>
        <time>2019-06-23T07:12:14.000Z</time>
      </trkpt>
      <trkpt lat="45.68052" lon="3.03859">
        <ele>911</ele>
        <time>2019-06-23T07:12:15.000Z</time>
      </trkpt>
      <trkpt lat="45.68052" lon="3.03855">
        <ele>911</ele>
        <time>2019-06-23T07:12:16.000Z</time>
      </trkpt>
      <trkpt lat="45.68051" lon="3.03851">
        <ele>912</ele>
        <time>2019-06-23T07:12:17.000Z</time>
      </trkpt>
      <trkpt lat="45.68051" lon="3.03847">
        <ele>911</ele>
        <time>2019-06-23T07:12:18.000Z</time>
      </trkpt>
      <trkpt lat="45.6805" lon="3.03843">
        <ele>912</ele>
        <time>2019-06-23T07:12:19.000Z</time>
      </trkpt>
      <trkpt lat="45.6805" lon="3.03839">
        <ele>912</ele>
        <time>2019-06-23T07:12:20.000Z</time>
      </trkpt>
      <trkpt lat="45.6805" lon="3.03835">
        <ele>912</ele>
        <time>2019-06-23T07:12:21.000Z</time>
      </trkpt>
      <trkpt lat="45.6805" lon="3.03831">
        <ele>912</ele>
        <time>2019-06-23T07:12:22.000Z</time>
      </trkpt>
      <trkpt lat="45.6805" lon="3.03827">
        <ele>912</ele>
        <time>2019-06-23T07:12:23.000Z</time>
      </trkpt>
      <trkpt lat="45.6805" lon="3.03823">
        <ele>912</ele>
        <time>2019-06-23T07:12:24.000Z</time>
      </trkpt>
      <trkpt lat="45.68051" lon="3.03819">
        <ele>912</ele>
        <time>2019-06-23T07:12:25.000Z</time>
      </trkpt>
      <trkpt lat="45.68051" lon="3.03814">
        <ele>912</ele>
        <time>2019-06-23T07:12:26.000Z</time>
      </trkpt>
      <trkpt lat="45.68051" lon="3.0381">
        <ele>913</ele>
        <time>2019-06-23T07:12:27.000Z</time>
      </trkpt>
      <trkpt lat="45.68052" lon="3.03806">
        <ele>913</ele>
        <time>2019-06-23T07:12:28.000Z</time>
      </trkpt>
      <trkpt lat="45.68053" lon="3.03802">
        <ele>913</ele>
        <time>2019-06-23T07:12:29.000Z</time>
      </trkpt>
      <trkpt lat="45.68053" lon="3.03798">
        <ele>913</ele>
        <time>2019-06-23T07:12:30.000Z</time>
      </trkpt>
      <trkpt lat="45.68054" lon="3.03793">
        <ele>913</ele>
        <time>2019-06-23T07:12:31.000Z</time>
      </trkpt>
      <trkpt lat="45.68054" lon="3.03789">
        <ele>913</ele>
        <time>2019-06-23T07:12:32.000Z</time>
      </trkpt>
      <trkpt lat="45.68055" lon="3.03785">
        <ele>913</ele>
        <time>2019-06-23T07:12:33.000Z</time>
      </trkpt>
      <trkpt lat="45.68055" lon="3.03781">
        <ele>913</ele>
        <time>2019-06-23T07:12:34.000Z</time>
      </trkpt>
      <trkpt lat="45.68055" lon="3.03776">
        <ele>914</ele>
        <time>2019-06-23T07:12:35.000Z</time>
      </trkpt>
      <trkpt lat="45.68056" lon="3.03772">
        <ele>913</ele>
        <time>2019-06-23T07:12:36.000Z</time>
      </trkpt>
      <trkpt lat="45.68056" lon="3.03768">
        <ele>914</ele>
        <time>2019-06-23T07:12:37.000Z</time>
      </trkpt>
      <trkpt lat="45.68056" lon="3.03764">
        <ele>915</ele>
        <time>2019-06-23T07:12:38.000Z</time>
      </trkpt>
      <trkpt lat="45.68056" lon="3.03759">
        <ele>915</ele>
        <time>2019-06-23T07:12:39.000Z</time>
      </trkpt>
      <trkpt lat="45.68056" lon="3.03755">
        <ele>915</ele>
        <time>2019-06-23T07:12:40.000Z</time>
      </trkpt>
      <trkpt lat="45.68056" lon="3.03751">
        <ele>915</ele>
        <time>2019-06-23T07:12:41.000Z</time>
      </trkpt>
      <trkpt lat="45.68056" lon="3.03746">
        <ele>915</ele>
        <time>2019-06-23T07:12:42.000Z</time>
      </trkpt>
      <trkpt lat="45.68056" lon="3.03742">
        <ele>915</ele>
        <time>2019-06-23T07:12:43.000Z</time>
      </trkpt>
      <trkpt lat="45.68056" lon="3.03737">
        <ele>915</ele>
        <time>2019-06-23T07:12:44.000Z</time>
      </trkpt>
      <trkpt lat="45.68056" lon="3.03732">
        <ele>915</ele>
        <time>2019-06-23T07:12:45.000Z</time>
      </trkpt>
      <trkpt lat="45.68056" lon="3.03728">
        <ele>915</ele>
        <time>2019-06-23T07:12:46.000Z</time>
      </trkpt>
      <trkpt lat="45.68056" lon="3.03723">
        <ele>915</ele>
        <time>2019-06-23T07:12:47.000Z</time>
      </trkpt>
      <trkpt lat="45.68057" lon="3.03718">
        <ele>915</ele>
        <time>2019-06-23T07:12:48.000Z</time>
      </trkpt>
      <trkpt lat="45.68057" lon="3.03713">
        <ele>915</ele>
        <time>2019-06-23T07:12:49.000Z</time>
      </trkpt>
      <trkpt lat="45.68057" lon="3.03708">
        <ele>915</ele>
        <time>2019-06-23T07:12:50.000Z</time>
      </trkpt>
      <trkpt lat="45.68057" lon="3.03703">
        <ele>915</ele>
        <time>2019-06-23T07:12:51.000Z</time>
      </trkpt>
      <trkpt lat="45.68057" lon="3.03699">
        <ele>915</ele>
        <time>2019-06-23T07:12:52.000Z</time>
      </trkpt>
      <trkpt lat="45.68057" lon="3.03694">
        <ele>915</ele>
        <time>2019-06-23T07:12:53.000Z</time>
      </trkpt>
      <trkpt lat="45.68057" lon="3.03689">
        <ele>915</ele>
        <time>2019-06-23T07:12:54.000Z</time>
      </trkpt>
      <trkpt lat="45.68058" lon="3.03685">
        <ele>915</ele>
        <time>2019-06-23T07:12:55.000Z</time>
      </trkpt>
      <trkpt lat="45.68058" lon="3.0368">
        <ele>915</ele>
        <time>2019-06-23T07:12:56.000Z</time>
      </trkpt>
      <trkpt lat="45.68058" lon="3.03675">
        <ele>915</ele>
        <time>2019-06-23T07:12:57.000Z</time>
      </trkpt>
      <trkpt lat="45.6806" lon="3.03671">
        <ele>916</ele>
        <time>2019-06-23T07:12:58.000Z</time>
      </trkpt>
      <trkpt lat="45.68061" lon="3.03667">
        <ele>916</ele>
        <time>2019-06-23T07:12:59.000Z</time>
      </trkpt>
      <trkpt lat="45.68062" lon="3.03663">
        <ele>916</ele>
        <time>2019-06-23T07:13:00.000Z</time>
      </trkpt>
      <trkpt lat="45.68062" lon="3.03658">
        <ele>916</ele>
        <time>2019-06-23T07:13:01.000Z</time>
      </trkpt>
      <trkpt lat="45.68063" lon="3.03654">
        <ele>916</ele>
        <time>2019-06-23T07:13:02.000Z</time>
      </trkpt>
      <trkpt lat="45.68064" lon="3.0365">
        <ele>916</ele>
        <time>2019-06-23T07:13:03.000Z</time>
      </trkpt>
      <trkpt lat="45.68065" lon="3.03645">
        <ele>917</ele>
        <time>2019-06-23T07:13:04.000Z</time>
      </trkpt>
      <trkpt lat="45.68066" lon="3.03641">
        <ele>917</ele>
        <time>2019-06-23T07:13:05.000Z</time>
      </trkpt>
      <trkpt lat="45.68067" lon="3.03636">
        <ele>917</ele>
        <time>2019-06-23T07:13:06.000Z</time>
      </trkpt>
      <trkpt lat="45.68068" lon="3.03632">
        <ele>917</ele>
        <time>2019-06-23T07:13:07.000Z</time>
      </trkpt>
      <trkpt lat="45.68068" lon="3.03628">
        <ele>917</ele>
        <time>2019-06-23T07:13:08.000Z</time>
      </trkpt>
      <trkpt lat="45.68069" lon="3.03624">
        <ele>917</ele>
        <time>2019-06-23T07:13:09.000Z</time>
      </trkpt>
      <trkpt lat="45.6807" lon="3.0362">
        <ele>917</ele>
        <time>2019-06-23T07:13:10.000Z</time>
      </trkpt>
      <trkpt lat="45.6807" lon="3.03615">
        <ele>917</ele>
        <time>2019-06-23T07:13:11.000Z</time>
      </trkpt>
      <trkpt lat="45.68071" lon="3.0361">
        <ele>918</ele>
        <time>2019-06-23T07:13:12.000Z</time>
      </trkpt>
      <trkpt lat="45.68071" lon="3.03606">
        <ele>918</ele>
        <time>2019-06-23T07:13:13.000Z</time>
      </trkpt>
      <trkpt lat="45.68072" lon="3.03601">
        <ele>918</ele>
        <time>2019-06-23T07:13:14.000Z</time>
      </trkpt>
      <trkpt lat="45.68073" lon="3.03597">
        <ele>918</ele>
        <time>2019-06-23T07:13:15.000Z</time>
      </trkpt>
      <trkpt lat="45.68073" lon="3.03592">
        <ele>918</ele>
        <time>2019-06-23T07:13:16.000Z</time>
      </trkpt>
      <trkpt lat="45.68073" lon="3.03587">
        <ele>918</ele>
        <time>2019-06-23T07:13:17.000Z</time>
      </trkpt>
      <trkpt lat="45.68074" lon="3.03583">
        <ele>919</ele>
        <time>2019-06-23T07:13:18.000Z</time>
      </trkpt>
      <trkpt lat="45.68074" lon="3.03579">
        <ele>919</ele>
        <time>2019-06-23T07:13:19.000Z</time>
      </trkpt>
      <trkpt lat="45.68075" lon="3.03574">
        <ele>919</ele>
        <time>2019-06-23T07:13:20.000Z</time>
      </trkpt>
      <trkpt lat="45.68075" lon="3.0357">
        <ele>919</ele>
        <time>2019-06-23T07:13:21.000Z</time>
      </trkpt>
      <trkpt lat="45.68075" lon="3.03565">
        <ele>919</ele>
        <time>2019-06-23T07:13:22.000Z</time>
      </trkpt>
      <trkpt lat="45.68075" lon="3.0356">
        <ele>920</ele>
        <time>2019-06-23T07:13:23.000Z</time>
      </trkpt>
      <trkpt lat="45.68076" lon="3.03555">
        <ele>920</ele>
        <time>2019-06-23T07:13:24.000Z</time>
      </trkpt>
      <trkpt lat="45.68076" lon="3.03551">
        <ele>920</ele>
        <time>2019-06-23T07:13:25.000Z</time>
      </trkpt>
      <trkpt lat="45.68076" lon="3.03546">
        <ele>921</ele>
        <time>2019-06-23T07:13:26.000Z</time>
      </trkpt>
      <trkpt lat="45.68077" lon="3.03542">
        <ele>921</ele>
        <time>2019-06-23T07:13:27.000Z</time>
      </trkpt>
      <trkpt lat="45.68077" lon="3.03538">
        <ele>921</ele>
        <time>2019-06-23T07:13:28.000Z</time>
      </trkpt>
      <trkpt lat="45.68078" lon="3.03534">
        <ele>921</ele>
        <time>2019-06-23T07:13:29.000Z</time>
      </trkpt>
      <trkpt lat="45.68078" lon="3.03529">
        <ele>921</ele>
        <time>2019-06-23T07:13:30.000Z</time>
      </trkpt>
      <trkpt lat="45.68078" lon="3.03525">
        <ele>922</ele>
        <time>2019-06-23T07:13:31.000Z</time>
      </trkpt>
      <trkpt lat="45.68079" lon="3.03521">
        <ele>922</ele>
        <time>2019-06-23T07:13:32.000Z</time>
      </trkpt>
      <trkpt lat="45.68078" lon="3.03516">
        <ele>922</ele>
        <time>2019-06-23T07:13:33.000Z</time>
      </trkpt>
      <trkpt lat="45.68078" lon="3.03512">
        <ele>922</ele>
        <time>2019-06-23T07:13:34.000Z</time>
      </trkpt>
      <trkpt lat="45.68077" lon="3.03507">
        <ele>922</ele>
        <time>2019-06-23T07:13:35.000Z</time>
      </trkpt>
      <trkpt lat="45.68076" lon="3.03503">
        <ele>922</ele>
        <time>2019-06-23T07:13:36.000Z</time>
      </trkpt>
      <trkpt lat="45.68075" lon="3.03498">
        <ele>922</ele>
        <time>2019-06-23T07:13:37.000Z</time>
      </trkpt>
      <trkpt lat="45.68074" lon="3.03494">
        <ele>922</ele>
        <time>2019-06-23T07:13:38.000Z</time>
      </trkpt>
      <trkpt lat="45.68073" lon="3.0349">
        <ele>922</ele>
        <time>2019-06-23T07:13:39.000Z</time>
      </trkpt>
      <trkpt lat="45.68072" lon="3.03486">
        <ele>922</ele>
        <time>2019-06-23T07:13:40.000Z</time>
      </trkpt>
      <trkpt lat="45.68071" lon="3.03481">
        <ele>923</ele>
        <time>2019-06-23T07:13:41.000Z</time>
      </trkpt>
      <trkpt lat="45.68071" lon="3.03477">
        <ele>923</ele>
        <time>2019-06-23T07:13:42.000Z</time>
      </trkpt>
      <trkpt lat="45.68071" lon="3.03472">
        <ele>923</ele>
        <time>2019-06-23T07:13:43.000Z</time>
      </trkpt>
      <trkpt lat="45.6807" lon="3.03468">
        <ele>923</ele>
        <time>2019-06-23T07:13:44.000Z</time>
      </trkpt>
      <trkpt lat="45.6807" lon="3.03463">
        <ele>923</ele>
        <time>2019-06-23T07:13:45.000Z</time>
      </trkpt>
      <trkpt lat="45.6807" lon="3.03458">
        <ele>923</ele>
        <time>2019-06-23T07:13:46.000Z</time>
      </trkpt>
      <trkpt lat="45.68069" lon="3.03454">
        <ele>923</ele>
        <time>2019-06-23T07:13:47.000Z</time>
      </trkpt>
      <trkpt lat="45.6807" lon="3.03449">
        <ele>923</ele>
        <time>2019-06-23T07:13:48.000Z</time>
      </trkpt>
      <trkpt lat="45.6807" lon="3.03445">
        <ele>923</ele>
        <time>2019-06-23T07:13:49.000Z</time>
      </trkpt>
      <trkpt lat="45.6807" lon="3.0344">
        <ele>923</ele>
        <time>2019-06-23T07:13:50.000Z</time>
      </trkpt>
      <trkpt lat="45.68071" lon="3.03436">
        <ele>924</ele>
        <time>2019-06-23T07:13:51.000Z</time>
      </trkpt>
      <trkpt lat="45.68071" lon="3.03432">
        <ele>924</ele>
        <time>2019-06-23T07:13:52.000Z</time>
      </trkpt>
      <trkpt lat="45.68072" lon="3.03428">
        <ele>924</ele>
        <time>2019-06-23T07:13:53.000Z</time>
      </trkpt>
      <trkpt lat="45.68073" lon="3.03425">
        <ele>924</ele>
        <time>2019-06-23T07:13:54.000Z</time>
      </trkpt>
      <trkpt lat="45.68074" lon="3.03422">
        <ele>925</ele>
        <time>2019-06-23T07:13:55.000Z</time>
      </trkpt>
      <trkpt lat="45.68076" lon="3.03419">
        <ele>925</ele>
        <time>2019-06-23T07:13:56.000Z</time>
      </trkpt>
      <trkpt lat="45.68078" lon="3.03416">
        <ele>926</ele>
        <time>2019-06-23T07:13:57.000Z</time>
      </trkpt>
      <trkpt lat="45.6808" lon="3.03415">
        <ele>926</ele>
        <time>2019-06-23T07:13:58.000Z</time>
      </trkpt>
      <trkpt lat="45.68083" lon="3.03414">
        <ele>926</ele>
        <time>2019-06-23T07:13:59.000Z</time>
      </trkpt>
      <trkpt lat="45.68085" lon="3.03413">
        <ele>927</ele>
        <time>2019-06-23T07:14:00.000Z</time>
      </trkpt>
      <trkpt lat="45.68088" lon="3.03412">
        <ele>927</ele>
        <time>2019-06-23T07:14:01.000Z</time>
      </trkpt>
      <trkpt lat="45.68091" lon="3.03411">
        <ele>927</ele>
        <time>2019-06-23T07:14:02.000Z</time>
      </trkpt>
      <trkpt lat="45.68093" lon="3.03411">
        <ele>927</ele>
        <time>2019-06-23T07:14:03.000Z</time>
      </trkpt>
      <trkpt lat="45.68096" lon="3.0341">
        <ele>928</ele>
        <time>2019-06-23T07:14:04.000Z</time>
      </trkpt>
      <trkpt lat="45.68098" lon="3.0341">
        <ele>928</ele>
        <time>2019-06-23T07:14:05.000Z</time>
      </trkpt>
      <trkpt lat="45.68101" lon="3.03409">
        <ele>928</ele>
        <time>2019-06-23T07:14:06.000Z</time>
      </trkpt>
      <trkpt lat="45.68104" lon="3.03409">
        <ele>928</ele>
        <time>2019-06-23T07:14:07.000Z</time>
      </trkpt>
      <trkpt lat="45.68106" lon="3.03409">
        <ele>928</ele>
        <time>2019-06-23T07:14:08.000Z</time>
      </trkpt>
      <trkpt lat="45.68109" lon="3.03408">
        <ele>928</ele>
        <time>2019-06-23T07:14:09.000Z</time>
      </trkpt>
      <trkpt lat="45.68112" lon="3.03407">
        <ele>929</ele>
        <time>2019-06-23T07:14:10.000Z</time>
      </trkpt>
      <trkpt lat="45.68114" lon="3.03406">
        <ele>929</ele>
        <time>2019-06-23T07:14:11.000Z</time>
      </trkpt>
      <trkpt lat="45.68117" lon="3.03406">
        <ele>929</ele>
        <time>2019-06-23T07:14:12.000Z</time>
      </trkpt>
      <trkpt lat="45.68119" lon="3.03406">
        <ele>929</ele>
        <time>2019-06-23T07:14:13.000Z</time>
      </trkpt>
      <trkpt lat="45.68122" lon="3.03405">
        <ele>930</ele>
        <time>2019-06-23T07:14:14.000Z</time>
      </trkpt>
      <trkpt lat="45.68124" lon="3.03405">
        <ele>930</ele>
        <time>2019-06-23T07:14:15.000Z</time>
      </trkpt>
      <trkpt lat="45.68127" lon="3.03405">
        <ele>931</ele>
        <time>2019-06-23T07:14:16.000Z</time>
      </trkpt>
      <trkpt lat="45.6813" lon="3.03404">
        <ele>931</ele>
        <time>2019-06-23T07:14:17.000Z</time>
      </trkpt>
      <trkpt lat="45.68132" lon="3.03404">
        <ele>932</ele>
        <time>2019-06-23T07:14:18.000Z</time>
      </trkpt>
      <trkpt lat="45.68135" lon="3.03404">
        <ele>933</ele>
        <time>2019-06-23T07:14:19.000Z</time>
      </trkpt>
      <trkpt lat="45.68138" lon="3.03404">
        <ele>933</ele>
        <time>2019-06-23T07:14:20.000Z</time>
      </trkpt>
      <trkpt lat="45.6814" lon="3.03403">
        <ele>934</ele>
        <time>2019-06-23T07:14:21.000Z</time>
      </trkpt>
      <trkpt lat="45.68143" lon="3.03403">
        <ele>934</ele>
        <time>2019-06-23T07:14:22.000Z</time>
      </trkpt>
      <trkpt lat="45.68146" lon="3.03403">
        <ele>934</ele>
        <time>2019-06-23T07:14:23.000Z</time>
      </trkpt>
      <trkpt lat="45.68148" lon="3.03402">
        <ele>934</ele>
        <time>2019-06-23T07:14:24.000Z</time>
      </trkpt>
      <trkpt lat="45.6815" lon="3.03401">
        <ele>934</ele>
        <time>2019-06-23T07:14:25.000Z</time>
      </trkpt>
      <trkpt lat="45.68152" lon="3.034">
        <ele>934</ele>
        <time>2019-06-23T07:14:26.000Z</time>
      </trkpt>
      <trkpt lat="45.68155" lon="3.03399">
        <ele>934</ele>
        <time>2019-06-23T07:14:27.000Z</time>
      </trkpt>
      <trkpt lat="45.68157" lon="3.03398">
        <ele>934</ele>
        <time>2019-06-23T07:14:28.000Z</time>
      </trkpt>
      <trkpt lat="45.68159" lon="3.03396">
        <ele>934</ele>
        <time>2019-06-23T07:14:29.000Z</time>
      </trkpt>
      <trkpt lat="45.68162" lon="3.03396">
        <ele>934</ele>
        <time>2019-06-23T07:14:30.000Z</time>
      </trkpt>
      <trkpt lat="45.68164" lon="3.03394">
        <ele>934</ele>
        <time>2019-06-23T07:14:31.000Z</time>
      </trkpt>
      <trkpt lat="45.68166" lon="3.03393">
        <ele>935</ele>
        <time>2019-06-23T07:14:32.000Z</time>
      </trkpt>
      <trkpt lat="45.68168" lon="3.03392">
        <ele>935</ele>
        <time>2019-06-23T07:14:33.000Z</time>
      </trkpt>
      <trkpt lat="45.6817" lon="3.0339">
        <ele>935</ele>
        <time>2019-06-23T07:14:34.000Z</time>
      </trkpt>
      <trkpt lat="45.68172" lon="3.03388">
        <ele>936</ele>
        <time>2019-06-23T07:14:35.000Z</time>
      </trkpt>
      <trkpt lat="45.68174" lon="3.03386">
        <ele>936</ele>
        <time>2019-06-23T07:14:36.000Z</time>
      </trkpt>
      <trkpt lat="45.68176" lon="3.03383">
        <ele>936</ele>
        <time>2019-06-23T07:14:37.000Z</time>
      </trkpt>
      <trkpt lat="45.68177" lon="3.0338">
        <ele>936</ele>
        <time>2019-06-23T07:14:38.000Z</time>
      </trkpt>
      <trkpt lat="45.68179" lon="3.03377">
        <ele>937</ele>
        <time>2019-06-23T07:14:39.000Z</time>
      </trkpt>
      <trkpt lat="45.6818" lon="3.03374">
        <ele>937</ele>
        <time>2019-06-23T07:14:40.000Z</time>
      </trkpt>
      <trkpt lat="45.68181" lon="3.03371">
        <ele>937</ele>
        <time>2019-06-23T07:14:41.000Z</time>
      </trkpt>
      <trkpt lat="45.68183" lon="3.03368">
        <ele>937</ele>
        <time>2019-06-23T07:14:42.000Z</time>
      </trkpt>
      <trkpt lat="45.68185" lon="3.03365">
        <ele>937</ele>
        <time>2019-06-23T07:14:43.000Z</time>
      </trkpt>
      <trkpt lat="45.68186" lon="3.03363">
        <ele>937</ele>
        <time>2019-06-23T07:14:44.000Z</time>
      </trkpt>
      <trkpt lat="45.68188" lon="3.0336">
        <ele>938</ele>
        <time>2019-06-23T07:14:45.000Z</time>
      </trkpt>
      <trkpt lat="45.68189" lon="3.03357">
        <ele>938</ele>
        <time>2019-06-23T07:14:46.000Z</time>
      </trkpt>
      <trkpt lat="45.68191" lon="3.03354">
        <ele>938</ele>
        <time>2019-06-23T07:14:47.000Z</time>
      </trkpt>
      <trkpt lat="45.68192" lon="3.03351">
        <ele>938</ele>
        <time>2019-06-23T07:14:48.000Z</time>
      </trkpt>
      <trkpt lat="45.68193" lon="3.03348">
        <ele>938</ele>
        <time>2019-06-23T07:14:49.000Z</time>
      </trkpt>
      <trkpt lat="45.68193" lon="3.03344">
        <ele>938</ele>
        <time>2019-06-23T07:14:50.000Z</time>
      </trkpt>
      <trkpt lat="45.68193" lon="3.03341">
        <ele>938</ele>
        <time>2019-06-23T07:14:51.000Z</time>
      </trkpt>
      <trkpt lat="45.68192" lon="3.03338">
        <ele>938</ele>
        <time>2019-06-23T07:14:52.000Z</time>
      </trkpt>
      <trkpt lat="45.68191" lon="3.03334">
        <ele>939</ele>
        <time>2019-06-23T07:14:53.000Z</time>
      </trkpt>
      <trkpt lat="45.68189" lon="3.03332">
        <ele>939</ele>
        <time>2019-06-23T07:14:54.000Z</time>
      </trkpt>
      <trkpt lat="45.68188" lon="3.03329">
        <ele>939</ele>
        <time>2019-06-23T07:14:55.000Z</time>
      </trkpt>
      <trkpt lat="45.68187" lon="3.03325">
        <ele>940</ele>
        <time>2019-06-23T07:14:56.000Z</time>
      </trkpt>
      <trkpt lat="45.68186" lon="3.03321">
        <ele>940</ele>
        <time>2019-06-23T07:14:57.000Z</time>
      </trkpt>
      <trkpt lat="45.68185" lon="3.03317">
        <ele>940</ele>
        <time>2019-06-23T07:14:58.000Z</time>
      </trkpt>
      <trkpt lat="45.68184" lon="3.03314">
        <ele>941</ele>
        <time>2019-06-23T07:14:59.000Z</time>
      </trkpt>
      <trkpt lat="45.68183" lon="3.0331">
        <ele>941</ele>
        <time>2019-06-23T07:15:00.000Z</time>
      </trkpt>
      <trkpt lat="45.68182" lon="3.03306">
        <ele>942</ele>
        <time>2019-06-23T07:15:01.000Z</time>
      </trkpt>
      <trkpt lat="45.68181" lon="3.03303">
        <ele>942</ele>
        <time>2019-06-23T07:15:02.000Z</time>
      </trkpt>
      <trkpt lat="45.6818" lon="3.03299">
        <ele>942</ele>
        <time>2019-06-23T07:15:03.000Z</time>
      </trkpt>
      <trkpt lat="45.68179" lon="3.03296">
        <ele>942</ele>
        <time>2019-06-23T07:15:04.000Z</time>
      </trkpt>
      <trkpt lat="45.68178" lon="3.03293">
        <ele>943</ele>
        <time>2019-06-23T07:15:05.000Z</time>
      </trkpt>
      <trkpt lat="45.68176" lon="3.0329">
        <ele>943</ele>
        <time>2019-06-23T07:15:06.000Z</time>
      </trkpt>
      <trkpt lat="45.68175" lon="3.03288">
        <ele>943</ele>
        <time>2019-06-23T07:15:07.000Z</time>
      </trkpt>
      <trkpt lat="45.68173" lon="3.03287">
        <ele>944</ele>
        <time>2019-06-23T07:15:08.000Z</time>
      </trkpt>
      <trkpt lat="45.68171" lon="3.03284">
        <ele>943</ele>
        <time>2019-06-23T07:15:09.000Z</time>
      </trkpt>
      <trkpt lat="45.68171" lon="3.03281">
        <ele>944</ele>
        <time>2019-06-23T07:15:10.000Z</time>
      </trkpt>
      <trkpt lat="45.68169" lon="3.03279">
        <ele>944</ele>
        <time>2019-06-23T07:15:11.000Z</time>
      </trkpt>
      <trkpt lat="45.68168" lon="3.03276">
        <ele>944</ele>
        <time>2019-06-23T07:15:12.000Z</time>
      </trkpt>
      <trkpt lat="45.68167" lon="3.03273">
        <ele>945</ele>
        <time>2019-06-23T07:15:13.000Z</time>
      </trkpt>
      <trkpt lat="45.68166" lon="3.0327">
        <ele>946</ele>
        <time>2019-06-23T07:15:14.000Z</time>
      </trkpt>
      <trkpt lat="45.68166" lon="3.03267">
        <ele>946</ele>
        <time>2019-06-23T07:15:15.000Z</time>
      </trkpt>
      <trkpt lat="45.68165" lon="3.03264">
        <ele>946</ele>
        <time>2019-06-23T07:15:16.000Z</time>
      </trkpt>
      <trkpt lat="45.68166" lon="3.0326">
        <ele>946</ele>
        <time>2019-06-23T07:15:17.000Z</time>
      </trkpt>
      <trkpt lat="45.68166" lon="3.03257">
        <ele>946</ele>
        <time>2019-06-23T07:15:18.000Z</time>
      </trkpt>
      <trkpt lat="45.68166" lon="3.03253">
        <ele>946</ele>
        <time>2019-06-23T07:15:19.000Z</time>
      </trkpt>
      <trkpt lat="45.68166" lon="3.0325">
        <ele>946</ele>
        <time>2019-06-23T07:15:20.000Z</time>
      </trkpt>
      <trkpt lat="45.68167" lon="3.03247">
        <ele>946</ele>
        <time>2019-06-23T07:15:21.000Z</time>
      </trkpt>
      <trkpt lat="45.68168" lon="3.03243">
        <ele>947</ele>
        <time>2019-06-23T07:15:22.000Z</time>
      </trkpt>
      <trkpt lat="45.68168" lon="3.0324">
        <ele>947</ele>
        <time>2019-06-23T07:15:23.000Z</time>
      </trkpt>
      <trkpt lat="45.68168" lon="3.03236">
        <ele>948</ele>
        <time>2019-06-23T07:15:24.000Z</time>
      </trkpt>
      <trkpt lat="45.68168" lon="3.03233">
        <ele>948</ele>
        <time>2019-06-23T07:15:25.000Z</time>
      </trkpt>
      <trkpt lat="45.68168" lon="3.03229">
        <ele>948</ele>
        <time>2019-06-23T07:15:26.000Z</time>
      </trkpt>
      <trkpt lat="45.68168" lon="3.03226">
        <ele>949</ele>
        <time>2019-06-23T07:15:27.000Z</time>
      </trkpt>
      <trkpt lat="45.68168" lon="3.03222">
        <ele>949</ele>
        <time>2019-06-23T07:15:28.000Z</time>
      </trkpt>
      <trkpt lat="45.68168" lon="3.03218">
        <ele>949</ele>
        <time>2019-06-23T07:15:29.000Z</time>
      </trkpt>
      <trkpt lat="45.68168" lon="3.03215">
        <ele>949</ele>
        <time>2019-06-23T07:15:30.000Z</time>
      </trkpt>
      <trkpt lat="45.68167" lon="3.03211">
        <ele>949</ele>
        <time>2019-06-23T07:15:31.000Z</time>
      </trkpt>
      <trkpt lat="45.68168" lon="3.03208">
        <ele>949</ele>
        <time>2019-06-23T07:15:32.000Z</time>
      </trkpt>
      <trkpt lat="45.68168" lon="3.03205">
        <ele>949</ele>
        <time>2019-06-23T07:15:33.000Z</time>
      </trkpt>
      <trkpt lat="45.68169" lon="3.03202">
        <ele>950</ele>
        <time>2019-06-23T07:15:34.000Z</time>
      </trkpt>
      <trkpt lat="45.68169" lon="3.03198">
        <ele>950</ele>
        <time>2019-06-23T07:15:35.000Z</time>
      </trkpt>
      <trkpt lat="45.68169" lon="3.03195">
        <ele>950</ele>
        <time>2019-06-23T07:15:36.000Z</time>
      </trkpt>
      <trkpt lat="45.68169" lon="3.03191">
        <ele>950</ele>
        <time>2019-06-23T07:15:37.000Z</time>
      </trkpt>
      <trkpt lat="45.68169" lon="3.03188">
        <ele>951</ele>
        <time>2019-06-23T07:15:38.000Z</time>
      </trkpt>
      <trkpt lat="45.68168" lon="3.03184">
        <ele>951</ele>
        <time>2019-06-23T07:15:39.000Z</time>
      </trkpt>
      <trkpt lat="45.68168" lon="3.03181">
        <ele>951</ele>
        <time>2019-06-23T07:15:40.000Z</time>
      </trkpt>
      <trkpt lat="45.68168" lon="3.03177">
        <ele>951</ele>
        <time>2019-06-23T07:15:41.000Z</time>
      </trkpt>
      <trkpt lat="45.68167" lon="3.03173">
        <ele>951</ele>
        <time>2019-06-23T07:15:42.000Z</time>
      </trkpt>
      <trkpt lat="45.68167" lon="3.03169">
        <ele>951</ele>
        <time>2019-06-23T07:15:43.000Z</time>
      </trkpt>
      <trkpt lat="45.68167" lon="3.03166">
        <ele>951</ele>
        <time>2019-06-23T07:15:44.000Z</time>
      </trkpt>
      <trkpt lat="45.68166" lon="3.03162">
        <ele>951</ele>
        <time>2019-06-23T07:15:45.000Z</time>
      </trkpt>
      <trkpt lat="45.68165" lon="3.03159">
        <ele>951</ele>
        <time>2019-06-23T07:15:46.000Z</time>
      </trkpt>
      <trkpt lat="45.68163" lon="3.03156">
        <ele>951</ele>
        <time>2019-06-23T07:15:47.000Z</time>
      </trkpt>
      <trkpt lat="45.68163" lon="3.03152">
        <ele>951</ele>
        <time>2019-06-23T07:15:48.000Z</time>
      </trkpt>
      <trkpt lat="45.68162" lon="3.03148">
        <ele>951</ele>
        <time>2019-06-23T07:15:49.000Z</time>
      </trkpt>
      <trkpt lat="45.68163" lon="3.03145">
        <ele>951</ele>
        <time>2019-06-23T07:15:50.000Z</time>
      </trkpt>
      <trkpt lat="45.68163" lon="3.03141">
        <ele>951</ele>
        <time>2019-06-23T07:15:51.000Z</time>
      </trkpt>
      <trkpt lat="45.68163" lon="3.03137">
        <ele>951</ele>
        <time>2019-06-23T07:15:52.000Z</time>
      </trkpt>
      <trkpt lat="45.68163" lon="3.03133">
        <ele>951</ele>
        <time>2019-06-23T07:15:53.000Z</time>
      </trkpt>
      <trkpt lat="45.68163" lon="3.03129">
        <ele>951</ele>
        <time>2019-06-23T07:15:54.000Z</time>
      </trkpt>
      <trkpt lat="45.68164" lon="3.03125">
        <ele>952</ele>
        <time>2019-06-23T07:15:55.000Z</time>
      </trkpt>
      <trkpt lat="45.68164" lon="3.03121">
        <ele>952</ele>
        <time>2019-06-23T07:15:56.000Z</time>
      </trkpt>
      <trkpt lat="45.68165" lon="3.03117">
        <ele>952</ele>
        <time>2019-06-23T07:15:57.000Z</time>
      </trkpt>
      <trkpt lat="45.68166" lon="3.03113">
        <ele>952</ele>
        <time>2019-06-23T07:15:58.000Z</time>
      </trkpt>
      <trkpt lat="45.68166" lon="3.03108">
        <ele>952</ele>
        <time>2019-06-23T07:15:59.000Z</time>
      </trkpt>
      <trkpt lat="45.68167" lon="3.03104">
        <ele>952</ele>
        <time>2019-06-23T07:16:00.000Z</time>
      </trkpt>
      <trkpt lat="45.68167" lon="3.031">
        <ele>952</ele>
        <time>2019-06-23T07:16:01.000Z</time>
      </trkpt>
      <trkpt lat="45.68168" lon="3.03096">
        <ele>952</ele>
        <time>2019-06-23T07:16:02.000Z</time>
      </trkpt>
      <trkpt lat="45.68168" lon="3.03092">
        <ele>952</ele>
        <time>2019-06-23T07:16:03.000Z</time>
      </trkpt>
      <trkpt lat="45.68169" lon="3.03088">
        <ele>953</ele>
        <time>2019-06-23T07:16:04.000Z</time>
      </trkpt>
      <trkpt lat="45.68169" lon="3.03083">
        <ele>953</ele>
        <time>2019-06-23T07:16:05.000Z</time>
      </trkpt>
      <trkpt lat="45.68169" lon="3.03079">
        <ele>953</ele>
        <time>2019-06-23T07:16:06.000Z</time>
      </trkpt>
      <trkpt lat="45.68169" lon="3.03075">
        <ele>953</ele>
        <time>2019-06-23T07:16:07.000Z</time>
      </trkpt>
      <trkpt lat="45.68169" lon="3.03071">
        <ele>953</ele>
        <time>2019-06-23T07:16:08.000Z</time>
      </trkpt>
      <trkpt lat="45.68169" lon="3.03067">
        <ele>953</ele>
        <time>2019-06-23T07:16:09.000Z</time>
      </trkpt>
      <trkpt lat="45.68169" lon="3.03063">
        <ele>953</ele>
        <time>2019-06-23T07:16:10.000Z</time>
      </trkpt>
      <trkpt lat="45.68169" lon="3.03058">
        <ele>954</ele>
        <time>2019-06-23T07:16:11.000Z</time>
      </trkpt>
      <trkpt lat="45.6817" lon="3.03055">
        <ele>954</ele>
        <time>2019-06-23T07:16:12.000Z</time>
      </trkpt>
      <trkpt lat="45.6817" lon="3.03051">
        <ele>954</ele>
        <time>2019-06-23T07:16:13.000Z</time>
      </trkpt>
      <trkpt lat="45.68171" lon="3.03046">
        <ele>954</ele>
        <time>2019-06-23T07:16:14.000Z</time>
      </trkpt>
      <trkpt lat="45.68171" lon="3.03042">
        <ele>954</ele>
        <time>2019-06-23T07:16:15.000Z</time>
      </trkpt>
      <trkpt lat="45.68172" lon="3.03038">
        <ele>954</ele>
        <time>2019-06-23T07:16:16.000Z</time>
      </trkpt>
      <trkpt lat="45.68172" lon="3.03034">
        <ele>954</ele>
        <time>2019-06-23T07:16:17.000Z</time>
      </trkpt>
      <trkpt lat="45.68172" lon="3.0303">
        <ele>954</ele>
        <time>2019-06-23T07:16:18.000Z</time>
      </trkpt>
      <trkpt lat="45.68172" lon="3.03025">
        <ele>954</ele>
        <time>2019-06-23T07:16:19.000Z</time>
      </trkpt>
      <trkpt lat="45.68172" lon="3.03021">
        <ele>954</ele>
        <time>2019-06-23T07:16:20.000Z</time>
      </trkpt>
      <trkpt lat="45.68172" lon="3.03016">
        <ele>954</ele>
        <time>2019-06-23T07:16:21.000Z</time>
      </trkpt>
      <trkpt lat="45.68172" lon="3.03012">
        <ele>954</ele>
        <time>2019-06-23T07:16:22.000Z</time>
      </trkpt>
      <trkpt lat="45.68172" lon="3.03007">
        <ele>954</ele>
        <time>2019-06-23T07:16:23.000Z</time>
      </trkpt>
      <trkpt lat="45.68172" lon="3.03002">
        <ele>954</ele>
        <time>2019-06-23T07:16:24.000Z</time>
      </trkpt>
      <trkpt lat="45.68172" lon="3.02998">
        <ele>954</ele>
        <time>2019-06-23T07:16:25.000Z</time>
      </trkpt>
      <trkpt lat="45.68172" lon="3.02993">
        <ele>955</ele>
        <time>2019-06-23T07:16:26.000Z</time>
      </trkpt>
      <trkpt lat="45.68172" lon="3.02988">
        <ele>955</ele>
        <time>2019-06-23T07:16:27.000Z</time>
      </trkpt>
      <trkpt lat="45.68173" lon="3.02983">
        <ele>955</ele>
        <time>2019-06-23T07:16:28.000Z</time>
      </trkpt>
      <trkpt lat="45.68172" lon="3.02978">
        <ele>955</ele>
        <time>2019-06-23T07:16:29.000Z</time>
      </trkpt>
      <trkpt lat="45.68172" lon="3.02974">
        <ele>955</ele>
        <time>2019-06-23T07:16:30.000Z</time>
      </trkpt>
      <trkpt lat="45.68171" lon="3.02969">
        <ele>955</ele>
        <time>2019-06-23T07:16:31.000Z</time>
      </trkpt>
      <trkpt lat="45.6817" lon="3.02965">
        <ele>956</ele>
        <time>2019-06-23T07:16:32.000Z</time>
      </trkpt>
      <trkpt lat="45.6817" lon="3.02961">
        <ele>956</ele>
        <time>2019-06-23T07:16:33.000Z</time>
      </trkpt>
      <trkpt lat="45.68169" lon="3.02956">
        <ele>956</ele>
        <time>2019-06-23T07:16:34.000Z</time>
      </trkpt>
      <trkpt lat="45.68168" lon="3.02952">
        <ele>956</ele>
        <time>2019-06-23T07:16:35.000Z</time>
      </trkpt>
      <trkpt lat="45.68167" lon="3.02947">
        <ele>956</ele>
        <time>2019-06-23T07:16:36.000Z</time>
      </trkpt>
      <trkpt lat="45.68166" lon="3.02942">
        <ele>956</ele>
        <time>2019-06-23T07:16:37.000Z</time>
      </trkpt>
      <trkpt lat="45.68166" lon="3.02937">
        <ele>956</ele>
        <time>2019-06-23T07:16:38.000Z</time>
      </trkpt>
      <trkpt lat="45.68165" lon="3.02932">
        <ele>956</ele>
        <time>2019-06-23T07:16:39.000Z</time>
      </trkpt>
      <trkpt lat="45.68164" lon="3.02927">
        <ele>956</ele>
        <time>2019-06-23T07:16:40.000Z</time>
      </trkpt>
      <trkpt lat="45.68163" lon="3.02922">
        <ele>956</ele>
        <time>2019-06-23T07:16:41.000Z</time>
      </trkpt>
      <trkpt lat="45.68163" lon="3.02918">
        <ele>956</ele>
        <time>2019-06-23T07:16:42.000Z</time>
      </trkpt>
      <trkpt lat="45.68161" lon="3.02913">
        <ele>956</ele>
        <time>2019-06-23T07:16:43.000Z</time>
      </trkpt>
      <trkpt lat="45.6816" lon="3.02909">
        <ele>956</ele>
        <time>2019-06-23T07:16:44.000Z</time>
      </trkpt>
      <trkpt lat="45.68158" lon="3.02904">
        <ele>956</ele>
        <time>2019-06-23T07:16:45.000Z</time>
      </trkpt>
      <trkpt lat="45.68157" lon="3.02899">
        <ele>957</ele>
        <time>2019-06-23T07:16:46.000Z</time>
      </trkpt>
      <trkpt lat="45.68157" lon="3.02894">
        <ele>956</ele>
        <time>2019-06-23T07:16:47.000Z</time>
      </trkpt>
      <trkpt lat="45.68157" lon="3.02889">
        <ele>956</ele>
        <time>2019-06-23T07:16:48.000Z</time>
      </trkpt>
      <trkpt lat="45.68157" lon="3.02885">
        <ele>956</ele>
        <time>2019-06-23T07:16:49.000Z</time>
      </trkpt>
      <trkpt lat="45.68157" lon="3.0288">
        <ele>956</ele>
        <time>2019-06-23T07:16:50.000Z</time>
      </trkpt>
      <trkpt lat="45.68156" lon="3.02875">
        <ele>956</ele>
        <time>2019-06-23T07:16:51.000Z</time>
      </trkpt>
      <trkpt lat="45.68156" lon="3.02871">
        <ele>957</ele>
        <time>2019-06-23T07:16:52.000Z</time>
      </trkpt>
      <trkpt lat="45.68155" lon="3.02866">
        <ele>957</ele>
        <time>2019-06-23T07:16:53.000Z</time>
      </trkpt>
      <trkpt lat="45.68154" lon="3.02862">
        <ele>957</ele>
        <time>2019-06-23T07:16:54.000Z</time>
      </trkpt>
      <trkpt lat="45.68154" lon="3.02857">
        <ele>957</ele>
        <time>2019-06-23T07:16:55.000Z</time>
      </trkpt>
      <trkpt lat="45.68153" lon="3.02852">
        <ele>957</ele>
        <time>2019-06-23T07:16:56.000Z</time>
      </trkpt>
      <trkpt lat="45.68153" lon="3.02848">
        <ele>958</ele>
        <time>2019-06-23T07:16:57.000Z</time>
      </trkpt>
      <trkpt lat="45.68152" lon="3.02843">
        <ele>958</ele>
        <time>2019-06-23T07:16:58.000Z</time>
      </trkpt>
      <trkpt lat="45.68151" lon="3.02838">
        <ele>958</ele>
        <time>2019-06-23T07:16:59.000Z</time>
      </trkpt>
      <trkpt lat="45.6815" lon="3.02834">
        <ele>958</ele>
        <time>2019-06-23T07:17:00.000Z</time>
      </trkpt>
      <trkpt lat="45.68149" lon="3.02829">
        <ele>958</ele>
        <time>2019-06-23T07:17:01.000Z</time>
      </trkpt>
      <trkpt lat="45.68149" lon="3.02824">
        <ele>958</ele>
        <time>2019-06-23T07:17:02.000Z</time>
      </trkpt>
      <trkpt lat="45.68149" lon="3.02819">
        <ele>958</ele>
        <time>2019-06-23T07:17:03.000Z</time>
      </trkpt>
      <trkpt lat="45.68148" lon="3.02815">
        <ele>958</ele>
        <time>2019-06-23T07:17:04.000Z</time>
      </trkpt>
      <trkpt lat="45.68149" lon="3.0281">
        <ele>958</ele>
        <time>2019-06-23T07:17:05.000Z</time>
      </trkpt>
      <trkpt lat="45.68149" lon="3.02805">
        <ele>959</ele>
        <time>2019-06-23T07:17:06.000Z</time>
      </trkpt>
      <trkpt lat="45.68149" lon="3.02801">
        <ele>959</ele>
        <time>2019-06-23T07:17:07.000Z</time>
      </trkpt>
      <trkpt lat="45.6815" lon="3.02796">
        <ele>959</ele>
        <time>2019-06-23T07:17:08.000Z</time>
      </trkpt>
      <trkpt lat="45.68151" lon="3.02791">
        <ele>959</ele>
        <time>2019-06-23T07:17:09.000Z</time>
      </trkpt>
      <trkpt lat="45.68152" lon="3.02787">
        <ele>959</ele>
        <time>2019-06-23T07:17:10.000Z</time>
      </trkpt>
      <trkpt lat="45.68153" lon="3.02782">
        <ele>959</ele>
        <time>2019-06-23T07:17:11.000Z</time>
      </trkpt>
      <trkpt lat="45.68153" lon="3.02777">
        <ele>959</ele>
        <time>2019-06-23T07:17:12.000Z</time>
      </trkpt>
      <trkpt lat="45.68153" lon="3.02772">
        <ele>959</ele>
        <time>2019-06-23T07:17:13.000Z</time>
      </trkpt>
      <trkpt lat="45.68153" lon="3.02767">
        <ele>959</ele>
        <time>2019-06-23T07:17:14.000Z</time>
      </trkpt>
      <trkpt lat="45.68153" lon="3.02763">
        <ele>959</ele>
        <time>2019-06-23T07:17:15.000Z</time>
      </trkpt>
      <trkpt lat="45.68153" lon="3.02759">
        <ele>959</ele>
        <time>2019-06-23T07:17:16.000Z</time>
      </trkpt>
      <trkpt lat="45.68154" lon="3.02756">
        <ele>960</ele>
        <time>2019-06-23T07:17:17.000Z</time>
      </trkpt>
      <trkpt lat="45.68156" lon="3.02754">
        <ele>960</ele>
        <time>2019-06-23T07:17:18.000Z</time>
      </trkpt>
      <trkpt lat="45.68157" lon="3.02753">
        <ele>959</ele>
        <time>2019-06-23T07:17:19.000Z</time>
      </trkpt>
      <trkpt lat="45.68152" lon="3.0275">
        <ele>960</ele>
        <time>2019-06-23T07:17:20.000Z</time>
      </trkpt>
      <trkpt lat="45.68152" lon="3.02748">
        <ele>961</ele>
        <time>2019-06-23T07:17:21.000Z</time>
      </trkpt>
      <trkpt lat="45.68153" lon="3.02745">
        <ele>961</ele>
        <time>2019-06-23T07:17:22.000Z</time>
      </trkpt>
      <trkpt lat="45.68153" lon="3.02741">
        <ele>961</ele>
        <time>2019-06-23T07:17:23.000Z</time>
      </trkpt>
      <trkpt lat="45.68153" lon="3.02737">
        <ele>960</ele>
        <time>2019-06-23T07:17:24.000Z</time>
      </trkpt>
      <trkpt lat="45.68153" lon="3.02733">
        <ele>960</ele>
        <time>2019-06-23T07:17:25.000Z</time>
      </trkpt>
      <trkpt lat="45.68153" lon="3.02727">
        <ele>960</ele>
        <time>2019-06-23T07:17:26.000Z</time>
      </trkpt>
      <trkpt lat="45.68153" lon="3.02721">
        <ele>960</ele>
        <time>2019-06-23T07:17:27.000Z</time>
      </trkpt>
      <trkpt lat="45.68154" lon="3.02715">
        <ele>960</ele>
        <time>2019-06-23T07:17:28.000Z</time>
      </trkpt>
      <trkpt lat="45.68154" lon="3.02709">
        <ele>959</ele>
        <time>2019-06-23T07:17:29.000Z</time>
      </trkpt>
      <trkpt lat="45.68155" lon="3.02702">
        <ele>959</ele>
        <time>2019-06-23T07:17:30.000Z</time>
      </trkpt>
      <trkpt lat="45.68157" lon="3.02696">
        <ele>959</ele>
        <time>2019-06-23T07:17:31.000Z</time>
      </trkpt>
      <trkpt lat="45.68158" lon="3.02689">
        <ele>958</ele>
        <time>2019-06-23T07:17:32.000Z</time>
      </trkpt>
      <trkpt lat="45.6816" lon="3.02681">
        <ele>958</ele>
        <time>2019-06-23T07:17:33.000Z</time>
      </trkpt>
      <trkpt lat="45.68162" lon="3.02674">
        <ele>958</ele>
        <time>2019-06-23T07:17:34.000Z</time>
      </trkpt>
      <trkpt lat="45.68164" lon="3.02666">
        <ele>957</ele>
        <time>2019-06-23T07:17:35.000Z</time>
      </trkpt>
      <trkpt lat="45.68168" lon="3.02658">
        <ele>957</ele>
        <time>2019-06-23T07:17:36.000Z</time>
      </trkpt>
      <trkpt lat="45.68172" lon="3.02649">
        <ele>957</ele>
        <time>2019-06-23T07:17:37.000Z</time>
      </trkpt>
      <trkpt lat="45.68175" lon="3.0264">
        <ele>957</ele>
        <time>2019-06-23T07:17:38.000Z</time>
      </trkpt>
      <trkpt lat="45.68178" lon="3.02631">
        <ele>956</ele>
        <time>2019-06-23T07:17:39.000Z</time>
      </trkpt>
      <trkpt lat="45.68181" lon="3.02621">
        <ele>956</ele>
        <time>2019-06-23T07:17:40.000Z</time>
      </trkpt>
      <trkpt lat="45.68183" lon="3.02612">
        <ele>956</ele>
        <time>2019-06-23T07:17:41.000Z</time>
      </trkpt>
      <trkpt lat="45.68185" lon="3.02603">
        <ele>956</ele>
        <time>2019-06-23T07:17:42.000Z</time>
      </trkpt>
      <trkpt lat="45.68187" lon="3.02594">
        <ele>956</ele>
        <time>2019-06-23T07:17:43.000Z</time>
      </trkpt>
      <trkpt lat="45.68189" lon="3.02585">
        <ele>956</ele>
        <time>2019-06-23T07:17:44.000Z</time>
      </trkpt>
      <trkpt lat="45.6819" lon="3.02577">
        <ele>957</ele>
        <time>2019-06-23T07:17:45.000Z</time>
      </trkpt>
      <trkpt lat="45.68192" lon="3.0257">
        <ele>957</ele>
        <time>2019-06-23T07:17:46.000Z</time>
      </trkpt>
      <trkpt lat="45.68194" lon="3.02562">
        <ele>956</ele>
        <time>2019-06-23T07:17:47.000Z</time>
      </trkpt>
      <trkpt lat="45.68196" lon="3.02556">
        <ele>957</ele>
        <time>2019-06-23T07:17:48.000Z</time>
      </trkpt>
      <trkpt lat="45.68198" lon="3.02552">
        <ele>957</ele>
        <time>2019-06-23T07:17:49.000Z</time>
      </trkpt>
      <trkpt lat="45.682" lon="3.02551">
        <ele>956</ele>
        <time>2019-06-23T07:17:50.000Z</time>
      </trkpt>
      <trkpt lat="45.68202" lon="3.02554">
        <ele>956</ele>
        <time>2019-06-23T07:17:51.000Z</time>
      </trkpt>
      <trkpt lat="45.68203" lon="3.02558">
        <ele>957</ele>
        <time>2019-06-23T07:17:52.000Z</time>
      </trkpt>
      <trkpt lat="45.68204" lon="3.02561">
        <ele>957</ele>
        <time>2019-06-23T07:17:53.000Z</time>
      </trkpt>
      <trkpt lat="45.68206" lon="3.02564">
        <ele>957</ele>
        <time>2019-06-23T07:17:54.000Z</time>
      </trkpt>
      <trkpt lat="45.68207" lon="3.02566">
        <ele>957</ele>
        <time>2019-06-23T07:17:55.000Z</time>
      </trkpt>
      <trkpt lat="45.68209" lon="3.02569">
        <ele>957</ele>
        <time>2019-06-23T07:17:56.000Z</time>
      </trkpt>
      <trkpt lat="45.68211" lon="3.02574">
        <ele>958</ele>
        <time>2019-06-23T07:17:57.000Z</time>
      </trkpt>
      <trkpt lat="45.68214" lon="3.02577">
        <ele>958</ele>
        <time>2019-06-23T07:17:58.000Z</time>
      </trkpt>
      <trkpt lat="45.68216" lon="3.02581">
        <ele>957</ele>
        <time>2019-06-23T07:17:59.000Z</time>
      </trkpt>
      <trkpt lat="45.68219" lon="3.02585">
        <ele>957</ele>
        <time>2019-06-23T07:18:00.000Z</time>
      </trkpt>
      <trkpt lat="45.68221" lon="3.02588">
        <ele>957</ele>
        <time>2019-06-23T07:18:01.000Z</time>
      </trkpt>
      <trkpt lat="45.68223" lon="3.02592">
        <ele>957</ele>
        <time>2019-06-23T07:18:02.000Z</time>
      </trkpt>
      <trkpt lat="45.68226" lon="3.02597">
        <ele>957</ele>
        <time>2019-06-23T07:18:03.000Z</time>
      </trkpt>
      <trkpt lat="45.68229" lon="3.02601">
        <ele>957</ele>
        <time>2019-06-23T07:18:04.000Z</time>
      </trkpt>
      <trkpt lat="45.68231" lon="3.02605">
        <ele>957</ele>
        <time>2019-06-23T07:18:05.000Z</time>
      </trkpt>
      <trkpt lat="45.68234" lon="3.0261">
        <ele>957</ele>
        <time>2019-06-23T07:18:06.000Z</time>
      </trkpt>
      <trkpt lat="45.68236" lon="3.02614">
        <ele>957</ele>
        <time>2019-06-23T07:18:07.000Z</time>
      </trkpt>
      <trkpt lat="45.68239" lon="3.02618">
        <ele>957</ele>
        <time>2019-06-23T07:18:08.000Z</time>
      </trkpt>
      <trkpt lat="45.68241" lon="3.02622">
        <ele>957</ele>
        <time>2019-06-23T07:18:09.000Z</time>
      </trkpt>
      <trkpt lat="45.68244" lon="3.02627">
        <ele>957</ele>
        <time>2019-06-23T07:18:10.000Z</time>
      </trkpt>
      <trkpt lat="45.68246" lon="3.02631">
        <ele>957</ele>
        <time>2019-06-23T07:18:11.000Z</time>
      </trkpt>
      <trkpt lat="45.68249" lon="3.02636">
        <ele>957</ele>
        <time>2019-06-23T07:18:12.000Z</time>
      </trkpt>
      <trkpt lat="45.68251" lon="3.02641">
        <ele>957</ele>
        <time>2019-06-23T07:18:13.000Z</time>
      </trkpt>
      <trkpt lat="45.68254" lon="3.02646">
        <ele>957</ele>
        <time>2019-06-23T07:18:14.000Z</time>
      </trkpt>
      <trkpt lat="45.68256" lon="3.02651">
        <ele>957</ele>
        <time>2019-06-23T07:18:15.000Z</time>
      </trkpt>
      <trkpt lat="45.68258" lon="3.02656">
        <ele>956</ele>
        <time>2019-06-23T07:18:16.000Z</time>
      </trkpt>
      <trkpt lat="45.6826" lon="3.02661">
        <ele>956</ele>
        <time>2019-06-23T07:18:17.000Z</time>
      </trkpt>
      <trkpt lat="45.68262" lon="3.02666">
        <ele>956</ele>
        <time>2019-06-23T07:18:18.000Z</time>
      </trkpt>
      <trkpt lat="45.68264" lon="3.02671">
        <ele>956</ele>
        <time>2019-06-23T07:18:19.000Z</time>
      </trkpt>
      <trkpt lat="45.68266" lon="3.02677">
        <ele>956</ele>
        <time>2019-06-23T07:18:20.000Z</time>
      </trkpt>
      <trkpt lat="45.68268" lon="3.02683">
        <ele>956</ele>
        <time>2019-06-23T07:18:21.000Z</time>
      </trkpt>
      <trkpt lat="45.6827" lon="3.02689">
        <ele>956</ele>
        <time>2019-06-23T07:18:22.000Z</time>
      </trkpt>
      <trkpt lat="45.68273" lon="3.02694">
        <ele>956</ele>
        <time>2019-06-23T07:18:23.000Z</time>
      </trkpt>
      <trkpt lat="45.68275" lon="3.027">
        <ele>956</ele>
        <time>2019-06-23T07:18:24.000Z</time>
      </trkpt>
      <trkpt lat="45.68277" lon="3.02706">
        <ele>956</ele>
        <time>2019-06-23T07:18:25.000Z</time>
      </trkpt>
      <trkpt lat="45.68279" lon="3.02712">
        <ele>956</ele>
        <time>2019-06-23T07:18:26.000Z</time>
      </trkpt>
      <trkpt lat="45.68281" lon="3.02718">
        <ele>956</ele>
        <time>2019-06-23T07:18:27.000Z</time>
      </trkpt>
      <trkpt lat="45.68283" lon="3.02724">
        <ele>956</ele>
        <time>2019-06-23T07:18:28.000Z</time>
      </trkpt>
      <trkpt lat="45.68286" lon="3.0273">
        <ele>956</ele>
        <time>2019-06-23T07:18:29.000Z</time>
      </trkpt>
      <trkpt lat="45.68288" lon="3.02736">
        <ele>956</ele>
        <time>2019-06-23T07:18:30.000Z</time>
      </trkpt>
      <trkpt lat="45.6829" lon="3.02741">
        <ele>955</ele>
        <time>2019-06-23T07:18:31.000Z</time>
      </trkpt>
      <trkpt lat="45.68292" lon="3.02747">
        <ele>955</ele>
        <time>2019-06-23T07:18:32.000Z</time>
      </trkpt>
      <trkpt lat="45.68294" lon="3.02753">
        <ele>955</ele>
        <time>2019-06-23T07:18:33.000Z</time>
      </trkpt>
      <trkpt lat="45.68296" lon="3.02759">
        <ele>955</ele>
        <time>2019-06-23T07:18:34.000Z</time>
      </trkpt>
      <trkpt lat="45.68298" lon="3.02766">
        <ele>955</ele>
        <time>2019-06-23T07:18:35.000Z</time>
      </trkpt>
      <trkpt lat="45.68301" lon="3.02772">
        <ele>955</ele>
        <time>2019-06-23T07:18:36.000Z</time>
      </trkpt>
      <trkpt lat="45.68304" lon="3.02778">
        <ele>955</ele>
        <time>2019-06-23T07:18:37.000Z</time>
      </trkpt>
      <trkpt lat="45.68307" lon="3.02784">
        <ele>955</ele>
        <time>2019-06-23T07:18:38.000Z</time>
      </trkpt>
      <trkpt lat="45.6831" lon="3.02789">
        <ele>955</ele>
        <time>2019-06-23T07:18:39.000Z</time>
      </trkpt>
      <trkpt lat="45.68312" lon="3.02795">
        <ele>955</ele>
        <time>2019-06-23T07:18:40.000Z</time>
      </trkpt>
      <trkpt lat="45.68316" lon="3.028">
        <ele>955</ele>
        <time>2019-06-23T07:18:41.000Z</time>
      </trkpt>
      <trkpt lat="45.68319" lon="3.02806">
        <ele>955</ele>
        <time>2019-06-23T07:18:42.000Z</time>
      </trkpt>
      <trkpt lat="45.68322" lon="3.02811">
        <ele>955</ele>
        <time>2019-06-23T07:18:43.000Z</time>
      </trkpt>
      <trkpt lat="45.68325" lon="3.02817">
        <ele>955</ele>
        <time>2019-06-23T07:18:44.000Z</time>
      </trkpt>
      <trkpt lat="45.68327" lon="3.02822">
        <ele>955</ele>
        <time>2019-06-23T07:18:45.000Z</time>
      </trkpt>
      <trkpt lat="45.6833" lon="3.02827">
        <ele>955</ele>
        <time>2019-06-23T07:18:46.000Z</time>
      </trkpt>
      <trkpt lat="45.68333" lon="3.02832">
        <ele>955</ele>
        <time>2019-06-23T07:18:47.000Z</time>
      </trkpt>
      <trkpt lat="45.68336" lon="3.02837">
        <ele>955</ele>
        <time>2019-06-23T07:18:48.000Z</time>
      </trkpt>
      <trkpt lat="45.6834" lon="3.02842">
        <ele>955</ele>
        <time>2019-06-23T07:18:49.000Z</time>
      </trkpt>
      <trkpt lat="45.68342" lon="3.02847">
        <ele>955</ele>
        <time>2019-06-23T07:18:50.000Z</time>
      </trkpt>
      <trkpt lat="45.68345" lon="3.02852">
        <ele>955</ele>
        <time>2019-06-23T07:18:51.000Z</time>
      </trkpt>
      <trkpt lat="45.68347" lon="3.02858">
        <ele>955</ele>
        <time>2019-06-23T07:18:52.000Z</time>
      </trkpt>
      <trkpt lat="45.6835" lon="3.02863">
        <ele>955</ele>
        <time>2019-06-23T07:18:53.000Z</time>
      </trkpt>
      <trkpt lat="45.68352" lon="3.02868">
        <ele>955</ele>
        <time>2019-06-23T07:18:54.000Z</time>
      </trkpt>
      <trkpt lat="45.68355" lon="3.02873">
        <ele>955</ele>
        <time>2019-06-23T07:18:55.000Z</time>
      </trkpt>
      <trkpt lat="45.68357" lon="3.02878">
        <ele>955</ele>
        <time>2019-06-23T07:18:56.000Z</time>
      </trkpt>
      <trkpt lat="45.6836" lon="3.02882">
        <ele>955</ele>
        <time>2019-06-23T07:18:57.000Z</time>
      </trkpt>
      <trkpt lat="45.68362" lon="3.02886">
        <ele>955</ele>
        <time>2019-06-23T07:18:58.000Z</time>
      </trkpt>
      <trkpt lat="45.68365" lon="3.0289">
        <ele>955</ele>
        <time>2019-06-23T07:18:59.000Z</time>
      </trkpt>
      <trkpt lat="45.68367" lon="3.02894">
        <ele>955</ele>
        <time>2019-06-23T07:19:00.000Z</time>
      </trkpt>
      <trkpt lat="45.6837" lon="3.02899">
        <ele>955</ele>
        <time>2019-06-23T07:19:01.000Z</time>
      </trkpt>
      <trkpt lat="45.68372" lon="3.02903">
        <ele>955</ele>
        <time>2019-06-23T07:19:02.000Z</time>
      </trkpt>
      <trkpt lat="45.68374" lon="3.02908">
        <ele>955</ele>
        <time>2019-06-23T07:19:03.000Z</time>
      </trkpt>
      <trkpt lat="45.68377" lon="3.02912">
        <ele>955</ele>
        <time>2019-06-23T07:19:04.000Z</time>
      </trkpt>
      <trkpt lat="45.6838" lon="3.02916">
        <ele>955</ele>
        <time>2019-06-23T07:19:05.000Z</time>
      </trkpt>
      <trkpt lat="45.68383" lon="3.02919">
        <ele>955</ele>
        <time>2019-06-23T07:19:06.000Z</time>
      </trkpt>
      <trkpt lat="45.68387" lon="3.02921">
        <ele>955</ele>
        <time>2019-06-23T07:19:07.000Z</time>
      </trkpt>
      <trkpt lat="45.6839" lon="3.02924">
        <ele>955</ele>
        <time>2019-06-23T07:19:08.000Z</time>
      </trkpt>
      <trkpt lat="45.68394" lon="3.02926">
        <ele>955</ele>
        <time>2019-06-23T07:19:09.000Z</time>
      </trkpt>
      <trkpt lat="45.68398" lon="3.02929">
        <ele>954</ele>
        <time>2019-06-23T07:19:10.000Z</time>
      </trkpt>
      <trkpt lat="45.68402" lon="3.02932">
        <ele>954</ele>
        <time>2019-06-23T07:19:11.000Z</time>
      </trkpt>
      <trkpt lat="45.68406" lon="3.02934">
        <ele>954</ele>
        <time>2019-06-23T07:19:12.000Z</time>
      </trkpt>
      <trkpt lat="45.68411" lon="3.02936">
        <ele>953</ele>
        <time>2019-06-23T07:19:13.000Z</time>
      </trkpt>
      <trkpt lat="45.68416" lon="3.02938">
        <ele>953</ele>
        <time>2019-06-23T07:19:14.000Z</time>
      </trkpt>
      <trkpt lat="45.68421" lon="3.02941">
        <ele>952</ele>
        <time>2019-06-23T07:19:15.000Z</time>
      </trkpt>
      <trkpt lat="45.68427" lon="3.02942">
        <ele>951</ele>
        <time>2019-06-23T07:19:16.000Z</time>
      </trkpt>
      <trkpt lat="45.68432" lon="3.02944">
        <ele>951</ele>
        <time>2019-06-23T07:19:17.000Z</time>
      </trkpt>
      <trkpt lat="45.68438" lon="3.02946">
        <ele>951</ele>
        <time>2019-06-23T07:19:18.000Z</time>
      </trkpt>
      <trkpt lat="45.68443" lon="3.02948">
        <ele>951</ele>
        <time>2019-06-23T07:19:19.000Z</time>
      </trkpt>
      <trkpt lat="45.68449" lon="3.02951">
        <ele>951</ele>
        <time>2019-06-23T07:19:20.000Z</time>
      </trkpt>
      <trkpt lat="45.68454" lon="3.02954">
        <ele>950</ele>
        <time>2019-06-23T07:19:21.000Z</time>
      </trkpt>
      <trkpt lat="45.6846" lon="3.02957">
        <ele>950</ele>
        <time>2019-06-23T07:19:22.000Z</time>
      </trkpt>
      <trkpt lat="45.68466" lon="3.0296">
        <ele>950</ele>
        <time>2019-06-23T07:19:23.000Z</time>
      </trkpt>
      <trkpt lat="45.68472" lon="3.02963">
        <ele>949</ele>
        <time>2019-06-23T07:19:24.000Z</time>
      </trkpt>
      <trkpt lat="45.68478" lon="3.02966">
        <ele>948</ele>
        <time>2019-06-23T07:19:25.000Z</time>
      </trkpt>
      <trkpt lat="45.68484" lon="3.02969">
        <ele>948</ele>
        <time>2019-06-23T07:19:26.000Z</time>
      </trkpt>
      <trkpt lat="45.68491" lon="3.02972">
        <ele>948</ele>
        <time>2019-06-23T07:19:27.000Z</time>
      </trkpt>
      <trkpt lat="45.68497" lon="3.02974">
        <ele>947</ele>
        <time>2019-06-23T07:19:28.000Z</time>
      </trkpt>
      <trkpt lat="45.68503" lon="3.02977">
        <ele>947</ele>
        <time>2019-06-23T07:19:29.000Z</time>
      </trkpt>
      <trkpt lat="45.68509" lon="3.02979">
        <ele>947</ele>
        <time>2019-06-23T07:19:30.000Z</time>
      </trkpt>
      <trkpt lat="45.68515" lon="3.02981">
        <ele>947</ele>
        <time>2019-06-23T07:19:31.000Z</time>
      </trkpt>
      <trkpt lat="45.6852" lon="3.02984">
        <ele>947</ele>
        <time>2019-06-23T07:19:32.000Z</time>
      </trkpt>
      <trkpt lat="45.68525" lon="3.02986">
        <ele>946</ele>
        <time>2019-06-23T07:19:33.000Z</time>
      </trkpt>
      <trkpt lat="45.68529" lon="3.02987">
        <ele>946</ele>
        <time>2019-06-23T07:19:34.000Z</time>
      </trkpt>
      <trkpt lat="45.68533" lon="3.02987">
        <ele>946</ele>
        <time>2019-06-23T07:19:35.000Z</time>
      </trkpt>
      <trkpt lat="45.68536" lon="3.02985">
        <ele>946</ele>
        <time>2019-06-23T07:19:36.000Z</time>
      </trkpt>
      <trkpt lat="45.68539" lon="3.02983">
        <ele>946</ele>
        <time>2019-06-23T07:19:37.000Z</time>
      </trkpt>
      <trkpt lat="45.68541" lon="3.0298">
        <ele>946</ele>
        <time>2019-06-23T07:19:38.000Z</time>
      </trkpt>
      <trkpt lat="45.68543" lon="3.02976">
        <ele>946</ele>
        <time>2019-06-23T07:19:39.000Z</time>
      </trkpt>
      <trkpt lat="45.68544" lon="3.02972">
        <ele>946</ele>
        <time>2019-06-23T07:19:40.000Z</time>
      </trkpt>
      <trkpt lat="45.68546" lon="3.02968">
        <ele>946</ele>
        <time>2019-06-23T07:19:41.000Z</time>
      </trkpt>
      <trkpt lat="45.68547" lon="3.02964">
        <ele>946</ele>
        <time>2019-06-23T07:19:42.000Z</time>
      </trkpt>
      <trkpt lat="45.68549" lon="3.02959">
        <ele>947</ele>
        <time>2019-06-23T07:19:43.000Z</time>
      </trkpt>
      <trkpt lat="45.68551" lon="3.02955">
        <ele>947</ele>
        <time>2019-06-23T07:19:44.000Z</time>
      </trkpt>
      <trkpt lat="45.68552" lon="3.0295">
        <ele>947</ele>
        <time>2019-06-23T07:19:45.000Z</time>
      </trkpt>
      <trkpt lat="45.68554" lon="3.02946">
        <ele>947</ele>
        <time>2019-06-23T07:19:46.000Z</time>
      </trkpt>
      <trkpt lat="45.68556" lon="3.02942">
        <ele>947</ele>
        <time>2019-06-23T07:19:47.000Z</time>
      </trkpt>
      <trkpt lat="45.68559" lon="3.02938">
        <ele>947</ele>
        <time>2019-06-23T07:19:48.000Z</time>
      </trkpt>
      <trkpt lat="45.68561" lon="3.02934">
        <ele>948</ele>
        <time>2019-06-23T07:19:49.000Z</time>
      </trkpt>
      <trkpt lat="45.68563" lon="3.02929">
        <ele>948</ele>
        <time>2019-06-23T07:19:50.000Z</time>
      </trkpt>
      <trkpt lat="45.68565" lon="3.02925">
        <ele>948</ele>
        <time>2019-06-23T07:19:51.000Z</time>
      </trkpt>
      <trkpt lat="45.68567" lon="3.0292">
        <ele>948</ele>
        <time>2019-06-23T07:19:52.000Z</time>
      </trkpt>
      <trkpt lat="45.68569" lon="3.02916">
        <ele>948</ele>
        <time>2019-06-23T07:19:53.000Z</time>
      </trkpt>
      <trkpt lat="45.68571" lon="3.02912">
        <ele>948</ele>
        <time>2019-06-23T07:19:54.000Z</time>
      </trkpt>
      <trkpt lat="45.68573" lon="3.02907">
        <ele>948</ele>
        <time>2019-06-23T07:19:55.000Z</time>
      </trkpt>
      <trkpt lat="45.68575" lon="3.02903">
        <ele>948</ele>
        <time>2019-06-23T07:19:56.000Z</time>
      </trkpt>
      <trkpt lat="45.68577" lon="3.02899">
        <ele>948</ele>
        <time>2019-06-23T07:19:57.000Z</time>
      </trkpt>
      <trkpt lat="45.68579" lon="3.02895">
        <ele>948</ele>
        <time>2019-06-23T07:19:58.000Z</time>
      </trkpt>
      <trkpt lat="45.68581" lon="3.02891">
        <ele>948</ele>
        <time>2019-06-23T07:19:59.000Z</time>
      </trkpt>
      <trkpt lat="45.68584" lon="3.02887">
        <ele>949</ele>
        <time>2019-06-23T07:20:00.000Z</time>
      </trkpt>
      <trkpt lat="45.68586" lon="3.02882">
        <ele>949</ele>
        <time>2019-06-23T07:20:01.000Z</time>
      </trkpt>
      <trkpt lat="45.68588" lon="3.02878">
        <ele>949</ele>
        <time>2019-06-23T07:20:02.000Z</time>
      </trkpt>
      <trkpt lat="45.6859" lon="3.02874">
        <ele>949</ele>
        <time>2019-06-23T07:20:03.000Z</time>
      </trkpt>
      <trkpt lat="45.68593" lon="3.0287">
        <ele>949</ele>
        <time>2019-06-23T07:20:04.000Z</time>
      </trkpt>
      <trkpt lat="45.68595" lon="3.02865">
        <ele>949</ele>
        <time>2019-06-23T07:20:05.000Z</time>
      </trkpt>
      <trkpt lat="45.68597" lon="3.02861">
        <ele>949</ele>
        <time>2019-06-23T07:20:06.000Z</time>
      </trkpt>
      <trkpt lat="45.68599" lon="3.02857">
        <ele>949</ele>
        <time>2019-06-23T07:20:07.000Z</time>
      </trkpt>
      <trkpt lat="45.68601" lon="3.02852">
        <ele>950</ele>
        <time>2019-06-23T07:20:08.000Z</time>
      </trkpt>
      <trkpt lat="45.68603" lon="3.02848">
        <ele>950</ele>
        <time>2019-06-23T07:20:09.000Z</time>
      </trkpt>
      <trkpt lat="45.68605" lon="3.02843">
        <ele>950</ele>
        <time>2019-06-23T07:20:10.000Z</time>
      </trkpt>
      <trkpt lat="45.68608" lon="3.02839">
        <ele>950</ele>
        <time>2019-06-23T07:20:11.000Z</time>
      </trkpt>
      <trkpt lat="45.6861" lon="3.02835">
        <ele>950</ele>
        <time>2019-06-23T07:20:12.000Z</time>
      </trkpt>
      <trkpt lat="45.68612" lon="3.02831">
        <ele>950</ele>
        <time>2019-06-23T07:20:13.000Z</time>
      </trkpt>
      <trkpt lat="45.68614" lon="3.02827">
        <ele>951</ele>
        <time>2019-06-23T07:20:14.000Z</time>
      </trkpt>
      <trkpt lat="45.68616" lon="3.02822">
        <ele>950</ele>
        <time>2019-06-23T07:20:15.000Z</time>
      </trkpt>
      <trkpt lat="45.68618" lon="3.02818">
        <ele>950</ele>
        <time>2019-06-23T07:20:16.000Z</time>
      </trkpt>
      <trkpt lat="45.6862" lon="3.02814">
        <ele>950</ele>
        <time>2019-06-23T07:20:17.000Z</time>
      </trkpt>
      <trkpt lat="45.68622" lon="3.0281">
        <ele>950</ele>
        <time>2019-06-23T07:20:18.000Z</time>
      </trkpt>
      <trkpt lat="45.68624" lon="3.02806">
        <ele>950</ele>
        <time>2019-06-23T07:20:19.000Z</time>
      </trkpt>
      <trkpt lat="45.68626" lon="3.02801">
        <ele>951</ele>
        <time>2019-06-23T07:20:20.000Z</time>
      </trkpt>
      <trkpt lat="45.68628" lon="3.02797">
        <ele>951</ele>
        <time>2019-06-23T07:20:21.000Z</time>
      </trkpt>
      <trkpt lat="45.6863" lon="3.02793">
        <ele>951</ele>
        <time>2019-06-23T07:20:22.000Z</time>
      </trkpt>
      <trkpt lat="45.68632" lon="3.02789">
        <ele>952</ele>
        <time>2019-06-23T07:20:23.000Z</time>
      </trkpt>
      <trkpt lat="45.68635" lon="3.02786">
        <ele>952</ele>
        <time>2019-06-23T07:20:24.000Z</time>
      </trkpt>
      <trkpt lat="45.68637" lon="3.02782">
        <ele>952</ele>
        <time>2019-06-23T07:20:25.000Z</time>
      </trkpt>
      <trkpt lat="45.68639" lon="3.02779">
        <ele>952</ele>
        <time>2019-06-23T07:20:26.000Z</time>
      </trkpt>
      <trkpt lat="45.68642" lon="3.02776">
        <ele>952</ele>
        <time>2019-06-23T07:20:27.000Z</time>
      </trkpt>
      <trkpt lat="45.68645" lon="3.02773">
        <ele>953</ele>
        <time>2019-06-23T07:20:28.000Z</time>
      </trkpt>
      <trkpt lat="45.68648" lon="3.0277">
        <ele>953</ele>
        <time>2019-06-23T07:20:29.000Z</time>
      </trkpt>
      <trkpt lat="45.68651" lon="3.02767">
        <ele>953</ele>
        <time>2019-06-23T07:20:30.000Z</time>
      </trkpt>
      <trkpt lat="45.68653" lon="3.02764">
        <ele>954</ele>
        <time>2019-06-23T07:20:31.000Z</time>
      </trkpt>
      <trkpt lat="45.68656" lon="3.02761">
        <ele>954</ele>
        <time>2019-06-23T07:20:32.000Z</time>
      </trkpt>
      <trkpt lat="45.68659" lon="3.02757">
        <ele>954</ele>
        <time>2019-06-23T07:20:33.000Z</time>
      </trkpt>
      <trkpt lat="45.68661" lon="3.02753">
        <ele>954</ele>
        <time>2019-06-23T07:20:34.000Z</time>
      </trkpt>
      <trkpt lat="45.68663" lon="3.02749">
        <ele>955</ele>
        <time>2019-06-23T07:20:35.000Z</time>
      </trkpt>
      <trkpt lat="45.68665" lon="3.02745">
        <ele>955</ele>
        <time>2019-06-23T07:20:36.000Z</time>
      </trkpt>
      <trkpt lat="45.68667" lon="3.02741">
        <ele>955</ele>
        <time>2019-06-23T07:20:37.000Z</time>
      </trkpt>
      <trkpt lat="45.68669" lon="3.02737">
        <ele>955</ele>
        <time>2019-06-23T07:20:38.000Z</time>
      </trkpt>
      <trkpt lat="45.68671" lon="3.02732">
        <ele>955</ele>
        <time>2019-06-23T07:20:39.000Z</time>
      </trkpt>
      <trkpt lat="45.68672" lon="3.02728">
        <ele>955</ele>
        <time>2019-06-23T07:20:40.000Z</time>
      </trkpt>
      <trkpt lat="45.68674" lon="3.02724">
        <ele>955</ele>
        <time>2019-06-23T07:20:41.000Z</time>
      </trkpt>
      <trkpt lat="45.68676" lon="3.0272">
        <ele>956</ele>
        <time>2019-06-23T07:20:42.000Z</time>
      </trkpt>
      <trkpt lat="45.68677" lon="3.02715">
        <ele>955</ele>
        <time>2019-06-23T07:20:43.000Z</time>
      </trkpt>
      <trkpt lat="45.68679" lon="3.02711">
        <ele>956</ele>
        <time>2019-06-23T07:20:44.000Z</time>
      </trkpt>
      <trkpt lat="45.6868" lon="3.02706">
        <ele>956</ele>
        <time>2019-06-23T07:20:45.000Z</time>
      </trkpt>
      <trkpt lat="45.68681" lon="3.02702">
        <ele>956</ele>
        <time>2019-06-23T07:20:46.000Z</time>
      </trkpt>
      <trkpt lat="45.68682" lon="3.02698">
        <ele>956</ele>
        <time>2019-06-23T07:20:47.000Z</time>
      </trkpt>
      <trkpt lat="45.68683" lon="3.02693">
        <ele>956</ele>
        <time>2019-06-23T07:20:48.000Z</time>
      </trkpt>
      <trkpt lat="45.68684" lon="3.02689">
        <ele>957</ele>
        <time>2019-06-23T07:20:49.000Z</time>
      </trkpt>
      <trkpt lat="45.68685" lon="3.02685">
        <ele>957</ele>
        <time>2019-06-23T07:20:50.000Z</time>
      </trkpt>
      <trkpt lat="45.68687" lon="3.02681">
        <ele>957</ele>
        <time>2019-06-23T07:20:51.000Z</time>
      </trkpt>
      <trkpt lat="45.68688" lon="3.02677">
        <ele>957</ele>
        <time>2019-06-23T07:20:52.000Z</time>
      </trkpt>
      <trkpt lat="45.68689" lon="3.02674">
        <ele>958</ele>
        <time>2019-06-23T07:20:53.000Z</time>
      </trkpt>
      <trkpt lat="45.6869" lon="3.0267">
        <ele>958</ele>
        <time>2019-06-23T07:20:54.000Z</time>
      </trkpt>
      <trkpt lat="45.6869" lon="3.02667">
        <ele>957</ele>
        <time>2019-06-23T07:20:55.000Z</time>
      </trkpt>
      <trkpt lat="45.6869" lon="3.02662">
        <ele>957</ele>
        <time>2019-06-23T07:20:56.000Z</time>
      </trkpt>
      <trkpt lat="45.6869" lon="3.02658">
        <ele>958</ele>
        <time>2019-06-23T07:20:57.000Z</time>
      </trkpt>
      <trkpt lat="45.68691" lon="3.02653">
        <ele>958</ele>
        <time>2019-06-23T07:20:58.000Z</time>
      </trkpt>
      <trkpt lat="45.68691" lon="3.02649">
        <ele>958</ele>
        <time>2019-06-23T07:20:59.000Z</time>
      </trkpt>
      <trkpt lat="45.68691" lon="3.02645">
        <ele>958</ele>
        <time>2019-06-23T07:21:00.000Z</time>
      </trkpt>
      <trkpt lat="45.68692" lon="3.02642">
        <ele>959</ele>
        <time>2019-06-23T07:21:01.000Z</time>
      </trkpt>
      <trkpt lat="45.68692" lon="3.02638">
        <ele>959</ele>
        <time>2019-06-23T07:21:02.000Z</time>
      </trkpt>
      <trkpt lat="45.68693" lon="3.02635">
        <ele>959</ele>
        <time>2019-06-23T07:21:03.000Z</time>
      </trkpt>
      <trkpt lat="45.68694" lon="3.02631">
        <ele>959</ele>
        <time>2019-06-23T07:21:04.000Z</time>
      </trkpt>
      <trkpt lat="45.68695" lon="3.02628">
        <ele>959</ele>
        <time>2019-06-23T07:21:05.000Z</time>
      </trkpt>
      <trkpt lat="45.68696" lon="3.02624">
        <ele>959</ele>
        <time>2019-06-23T07:21:06.000Z</time>
      </trkpt>
      <trkpt lat="45.68696" lon="3.02621">
        <ele>960</ele>
        <time>2019-06-23T07:21:07.000Z</time>
      </trkpt>
      <trkpt lat="45.68697" lon="3.02618">
        <ele>960</ele>
        <time>2019-06-23T07:21:08.000Z</time>
      </trkpt>
      <trkpt lat="45.68698" lon="3.02615">
        <ele>960</ele>
        <time>2019-06-23T07:21:09.000Z</time>
      </trkpt>
      <trkpt lat="45.68699" lon="3.02611">
        <ele>960</ele>
        <time>2019-06-23T07:21:10.000Z</time>
      </trkpt>
      <trkpt lat="45.687" lon="3.02608">
        <ele>960</ele>
        <time>2019-06-23T07:21:11.000Z</time>
      </trkpt>
      <trkpt lat="45.68701" lon="3.02605">
        <ele>961</ele>
        <time>2019-06-23T07:21:12.000Z</time>
      </trkpt>
      <trkpt lat="45.68702" lon="3.02602">
        <ele>961</ele>
        <time>2019-06-23T07:21:13.000Z</time>
      </trkpt>
      <trkpt lat="45.68702" lon="3.02599">
        <ele>961</ele>
        <time>2019-06-23T07:21:14.000Z</time>
      </trkpt>
      <trkpt lat="45.68703" lon="3.02596">
        <ele>961</ele>
        <time>2019-06-23T07:21:15.000Z</time>
      </trkpt>
      <trkpt lat="45.68704" lon="3.02592">
        <ele>961</ele>
        <time>2019-06-23T07:21:16.000Z</time>
      </trkpt>
      <trkpt lat="45.68705" lon="3.02589">
        <ele>962</ele>
        <time>2019-06-23T07:21:17.000Z</time>
      </trkpt>
      <trkpt lat="45.68705" lon="3.02586">
        <ele>962</ele>
        <time>2019-06-23T07:21:18.000Z</time>
      </trkpt>
      <trkpt lat="45.68706" lon="3.02583">
        <ele>962</ele>
        <time>2019-06-23T07:21:19.000Z</time>
      </trkpt>
      <trkpt lat="45.68707" lon="3.0258">
        <ele>962</ele>
        <time>2019-06-23T07:21:20.000Z</time>
      </trkpt>
      <trkpt lat="45.68707" lon="3.02577">
        <ele>963</ele>
        <time>2019-06-23T07:21:21.000Z</time>
      </trkpt>
      <trkpt lat="45.68708" lon="3.02574">
        <ele>963</ele>
        <time>2019-06-23T07:21:22.000Z</time>
      </trkpt>
      <trkpt lat="45.68709" lon="3.02571">
        <ele>963</ele>
        <time>2019-06-23T07:21:23.000Z</time>
      </trkpt>
      <trkpt lat="45.68711" lon="3.02569">
        <ele>964</ele>
        <time>2019-06-23T07:21:24.000Z</time>
      </trkpt>
      <trkpt lat="45.68712" lon="3.02566">
        <ele>964</ele>
        <time>2019-06-23T07:21:25.000Z</time>
      </trkpt>
      <trkpt lat="45.68713" lon="3.02564">
        <ele>964</ele>
        <time>2019-06-23T07:21:26.000Z</time>
      </trkpt>
      <trkpt lat="45.68714" lon="3.02561">
        <ele>964</ele>
        <time>2019-06-23T07:21:27.000Z</time>
      </trkpt>
      <trkpt lat="45.68715" lon="3.02558">
        <ele>964</ele>
        <time>2019-06-23T07:21:28.000Z</time>
      </trkpt>
      <trkpt lat="45.68715" lon="3.02555">
        <ele>964</ele>
        <time>2019-06-23T07:21:29.000Z</time>
      </trkpt>
      <trkpt lat="45.68716" lon="3.02552">
        <ele>965</ele>
        <time>2019-06-23T07:21:30.000Z</time>
      </trkpt>
      <trkpt lat="45.68717" lon="3.02549">
        <ele>965</ele>
        <time>2019-06-23T07:21:31.000Z</time>
      </trkpt>
      <trkpt lat="45.68718" lon="3.02546">
        <ele>965</ele>
        <time>2019-06-23T07:21:32.000Z</time>
      </trkpt>
      <trkpt lat="45.68719" lon="3.02544">
        <ele>965</ele>
        <time>2019-06-23T07:21:33.000Z</time>
      </trkpt>
      <trkpt lat="45.68719" lon="3.02541">
        <ele>965</ele>
        <time>2019-06-23T07:21:34.000Z</time>
      </trkpt>
      <trkpt lat="45.6872" lon="3.02539">
        <ele>966</ele>
        <time>2019-06-23T07:21:35.000Z</time>
      </trkpt>
      <trkpt lat="45.68721" lon="3.02537">
        <ele>966</ele>
        <time>2019-06-23T07:21:36.000Z</time>
      </trkpt>
      <trkpt lat="45.68721" lon="3.02534">
        <ele>966</ele>
        <time>2019-06-23T07:21:37.000Z</time>
      </trkpt>
      <trkpt lat="45.68721" lon="3.02531">
        <ele>966</ele>
        <time>2019-06-23T07:21:38.000Z</time>
      </trkpt>
      <trkpt lat="45.68722" lon="3.02528">
        <ele>966</ele>
        <time>2019-06-23T07:21:39.000Z</time>
      </trkpt>
      <trkpt lat="45.68722" lon="3.02525">
        <ele>966</ele>
        <time>2019-06-23T07:21:40.000Z</time>
      </trkpt>
      <trkpt lat="45.68722" lon="3.02521">
        <ele>967</ele>
        <time>2019-06-23T07:21:41.000Z</time>
      </trkpt>
      <trkpt lat="45.68722" lon="3.02518">
        <ele>967</ele>
        <time>2019-06-23T07:21:42.000Z</time>
      </trkpt>
      <trkpt lat="45.68722" lon="3.02515">
        <ele>967</ele>
        <time>2019-06-23T07:21:43.000Z</time>
      </trkpt>
      <trkpt lat="45.68722" lon="3.02512">
        <ele>967</ele>
        <time>2019-06-23T07:21:44.000Z</time>
      </trkpt>
      <trkpt lat="45.68723" lon="3.02508">
        <ele>967</ele>
        <time>2019-06-23T07:21:45.000Z</time>
      </trkpt>
      <trkpt lat="45.68723" lon="3.02505">
        <ele>968</ele>
        <time>2019-06-23T07:21:46.000Z</time>
      </trkpt>
      <trkpt lat="45.68723" lon="3.02501">
        <ele>968</ele>
        <time>2019-06-23T07:21:47.000Z</time>
      </trkpt>
      <trkpt lat="45.68723" lon="3.02498">
        <ele>968</ele>
        <time>2019-06-23T07:21:48.000Z</time>
      </trkpt>
      <trkpt lat="45.68723" lon="3.02495">
        <ele>968</ele>
        <time>2019-06-23T07:21:49.000Z</time>
      </trkpt>
      <trkpt lat="45.68723" lon="3.02491">
        <ele>968</ele>
        <time>2019-06-23T07:21:50.000Z</time>
      </trkpt>
      <trkpt lat="45.68724" lon="3.02488">
        <ele>968</ele>
        <time>2019-06-23T07:21:51.000Z</time>
      </trkpt>
      <trkpt lat="45.68723" lon="3.02484">
        <ele>969</ele>
        <time>2019-06-23T07:21:52.000Z</time>
      </trkpt>
      <trkpt lat="45.68724" lon="3.02481">
        <ele>969</ele>
        <time>2019-06-23T07:21:53.000Z</time>
      </trkpt>
      <trkpt lat="45.68724" lon="3.02477">
        <ele>969</ele>
        <time>2019-06-23T07:21:54.000Z</time>
      </trkpt>
      <trkpt lat="45.68724" lon="3.02474">
        <ele>969</ele>
        <time>2019-06-23T07:21:55.000Z</time>
      </trkpt>
      <trkpt lat="45.68724" lon="3.0247">
        <ele>969</ele>
        <time>2019-06-23T07:21:56.000Z</time>
      </trkpt>
      <trkpt lat="45.68724" lon="3.02467">
        <ele>969</ele>
        <time>2019-06-23T07:21:57.000Z</time>
      </trkpt>
      <trkpt lat="45.68725" lon="3.02464">
        <ele>969</ele>
        <time>2019-06-23T07:21:58.000Z</time>
      </trkpt>
      <trkpt lat="45.68725" lon="3.0246">
        <ele>970</ele>
        <time>2019-06-23T07:21:59.000Z</time>
      </trkpt>
      <trkpt lat="45.68726" lon="3.02457">
        <ele>970</ele>
        <time>2019-06-23T07:22:00.000Z</time>
      </trkpt>
      <trkpt lat="45.68726" lon="3.02454">
        <ele>970</ele>
        <time>2019-06-23T07:22:01.000Z</time>
      </trkpt>
      <trkpt lat="45.68726" lon="3.02451">
        <ele>970</ele>
        <time>2019-06-23T07:22:02.000Z</time>
      </trkpt>
      <trkpt lat="45.68726" lon="3.02448">
        <ele>970</ele>
        <time>2019-06-23T07:22:03.000Z</time>
      </trkpt>
      <trkpt lat="45.68727" lon="3.02445">
        <ele>971</ele>
        <time>2019-06-23T07:22:04.000Z</time>
      </trkpt>
      <trkpt lat="45.68727" lon="3.02442">
        <ele>971</ele>
        <time>2019-06-23T07:22:05.000Z</time>
      </trkpt>
      <trkpt lat="45.68727" lon="3.02439">
        <ele>971</ele>
        <time>2019-06-23T07:22:06.000Z</time>
      </trkpt>
      <trkpt lat="45.68727" lon="3.02436">
        <ele>971</ele>
        <time>2019-06-23T07:22:07.000Z</time>
      </trkpt>
      <trkpt lat="45.68727" lon="3.02433">
        <ele>971</ele>
        <time>2019-06-23T07:22:08.000Z</time>
      </trkpt>
      <trkpt lat="45.68727" lon="3.02429">
        <ele>971</ele>
        <time>2019-06-23T07:22:09.000Z</time>
      </trkpt>
      <trkpt lat="45.68727" lon="3.02426">
        <ele>971</ele>
        <time>2019-06-23T07:22:10.000Z</time>
      </trkpt>
      <trkpt lat="45.68727" lon="3.02422">
        <ele>972</ele>
        <time>2019-06-23T07:22:11.000Z</time>
      </trkpt>
      <trkpt lat="45.68726" lon="3.02419">
        <ele>972</ele>
        <time>2019-06-23T07:22:12.000Z</time>
      </trkpt>
      <trkpt lat="45.68726" lon="3.02416">
        <ele>972</ele>
        <time>2019-06-23T07:22:13.000Z</time>
      </trkpt>
      <trkpt lat="45.68726" lon="3.02412">
        <ele>972</ele>
        <time>2019-06-23T07:22:14.000Z</time>
      </trkpt>
      <trkpt lat="45.68726" lon="3.02409">
        <ele>972</ele>
        <time>2019-06-23T07:22:15.000Z</time>
      </trkpt>
      <trkpt lat="45.68725" lon="3.02406">
        <ele>972</ele>
        <time>2019-06-23T07:22:16.000Z</time>
      </trkpt>
      <trkpt lat="45.68725" lon="3.02403">
        <ele>972</ele>
        <time>2019-06-23T07:22:17.000Z</time>
      </trkpt>
      <trkpt lat="45.68724" lon="3.02399">
        <ele>972</ele>
        <time>2019-06-23T07:22:18.000Z</time>
      </trkpt>
      <trkpt lat="45.68724" lon="3.02396">
        <ele>973</ele>
        <time>2019-06-23T07:22:19.000Z</time>
      </trkpt>
      <trkpt lat="45.68723" lon="3.02393">
        <ele>973</ele>
        <time>2019-06-23T07:22:20.000Z</time>
      </trkpt>
      <trkpt lat="45.68723" lon="3.02389">
        <ele>973</ele>
        <time>2019-06-23T07:22:21.000Z</time>
      </trkpt>
      <trkpt lat="45.68722" lon="3.02386">
        <ele>973</ele>
        <time>2019-06-23T07:22:22.000Z</time>
      </trkpt>
      <trkpt lat="45.68721" lon="3.02382">
        <ele>973</ele>
        <time>2019-06-23T07:22:23.000Z</time>
      </trkpt>
      <trkpt lat="45.68721" lon="3.02379">
        <ele>973</ele>
        <time>2019-06-23T07:22:24.000Z</time>
      </trkpt>
      <trkpt lat="45.6872" lon="3.02375">
        <ele>974</ele>
        <time>2019-06-23T07:22:25.000Z</time>
      </trkpt>
      <trkpt lat="45.68719" lon="3.02372">
        <ele>974</ele>
        <time>2019-06-23T07:22:26.000Z</time>
      </trkpt>
      <trkpt lat="45.68718" lon="3.02369">
        <ele>974</ele>
        <time>2019-06-23T07:22:27.000Z</time>
      </trkpt>
      <trkpt lat="45.68717" lon="3.02366">
        <ele>974</ele>
        <time>2019-06-23T07:22:28.000Z</time>
      </trkpt>
      <trkpt lat="45.68717" lon="3.02362">
        <ele>974</ele>
        <time>2019-06-23T07:22:29.000Z</time>
      </trkpt>
      <trkpt lat="45.68716" lon="3.02359">
        <ele>974</ele>
        <time>2019-06-23T07:22:30.000Z</time>
      </trkpt>
      <trkpt lat="45.68715" lon="3.02356">
        <ele>975</ele>
        <time>2019-06-23T07:22:31.000Z</time>
      </trkpt>
      <trkpt lat="45.68715" lon="3.02352">
        <ele>975</ele>
        <time>2019-06-23T07:22:32.000Z</time>
      </trkpt>
      <trkpt lat="45.68715" lon="3.02349">
        <ele>975</ele>
        <time>2019-06-23T07:22:33.000Z</time>
      </trkpt>
      <trkpt lat="45.68714" lon="3.02346">
        <ele>975</ele>
        <time>2019-06-23T07:22:34.000Z</time>
      </trkpt>
      <trkpt lat="45.68714" lon="3.02342">
        <ele>975</ele>
        <time>2019-06-23T07:22:35.000Z</time>
      </trkpt>
      <trkpt lat="45.68714" lon="3.02339">
        <ele>976</ele>
        <time>2019-06-23T07:22:36.000Z</time>
      </trkpt>
      <trkpt lat="45.68713" lon="3.02336">
        <ele>976</ele>
        <time>2019-06-23T07:22:37.000Z</time>
      </trkpt>
      <trkpt lat="45.68713" lon="3.02332">
        <ele>976</ele>
        <time>2019-06-23T07:22:38.000Z</time>
      </trkpt>
      <trkpt lat="45.68713" lon="3.02329">
        <ele>976</ele>
        <time>2019-06-23T07:22:39.000Z</time>
      </trkpt>
      <trkpt lat="45.68713" lon="3.02325">
        <ele>976</ele>
        <time>2019-06-23T07:22:40.000Z</time>
      </trkpt>
      <trkpt lat="45.68713" lon="3.02322">
        <ele>976</ele>
        <time>2019-06-23T07:22:41.000Z</time>
      </trkpt>
      <trkpt lat="45.68713" lon="3.02318">
        <ele>976</ele>
        <time>2019-06-23T07:22:42.000Z</time>
      </trkpt>
      <trkpt lat="45.68712" lon="3.02314">
        <ele>977</ele>
        <time>2019-06-23T07:22:43.000Z</time>
      </trkpt>
      <trkpt lat="45.68711" lon="3.02311">
        <ele>977</ele>
        <time>2019-06-23T07:22:44.000Z</time>
      </trkpt>
      <trkpt lat="45.68711" lon="3.02308">
        <ele>977</ele>
        <time>2019-06-23T07:22:45.000Z</time>
      </trkpt>
      <trkpt lat="45.6871" lon="3.02305">
        <ele>978</ele>
        <time>2019-06-23T07:22:46.000Z</time>
      </trkpt>
      <trkpt lat="45.6871" lon="3.02301">
        <ele>977</ele>
        <time>2019-06-23T07:22:47.000Z</time>
      </trkpt>
      <trkpt lat="45.6871" lon="3.02297">
        <ele>977</ele>
        <time>2019-06-23T07:22:48.000Z</time>
      </trkpt>
      <trkpt lat="45.68709" lon="3.02293">
        <ele>978</ele>
        <time>2019-06-23T07:22:49.000Z</time>
      </trkpt>
      <trkpt lat="45.68709" lon="3.02289">
        <ele>978</ele>
        <time>2019-06-23T07:22:50.000Z</time>
      </trkpt>
      <trkpt lat="45.68708" lon="3.02286">
        <ele>978</ele>
        <time>2019-06-23T07:22:51.000Z</time>
      </trkpt>
      <trkpt lat="45.68708" lon="3.02282">
        <ele>978</ele>
        <time>2019-06-23T07:22:52.000Z</time>
      </trkpt>
      <trkpt lat="45.68708" lon="3.02278">
        <ele>978</ele>
        <time>2019-06-23T07:22:53.000Z</time>
      </trkpt>
      <trkpt lat="45.68707" lon="3.02274">
        <ele>978</ele>
        <time>2019-06-23T07:22:54.000Z</time>
      </trkpt>
      <trkpt lat="45.68707" lon="3.0227">
        <ele>979</ele>
        <time>2019-06-23T07:22:55.000Z</time>
      </trkpt>
      <trkpt lat="45.68707" lon="3.02266">
        <ele>979</ele>
        <time>2019-06-23T07:22:56.000Z</time>
      </trkpt>
      <trkpt lat="45.68707" lon="3.02262">
        <ele>979</ele>
        <time>2019-06-23T07:22:57.000Z</time>
      </trkpt>
      <trkpt lat="45.68706" lon="3.02258">
        <ele>979</ele>
        <time>2019-06-23T07:22:58.000Z</time>
      </trkpt>
      <trkpt lat="45.68706" lon="3.02254">
        <ele>979</ele>
        <time>2019-06-23T07:22:59.000Z</time>
      </trkpt>
      <trkpt lat="45.68705" lon="3.0225">
        <ele>979</ele>
        <time>2019-06-23T07:23:00.000Z</time>
      </trkpt>
      <trkpt lat="45.68705" lon="3.02247">
        <ele>979</ele>
        <time>2019-06-23T07:23:01.000Z</time>
      </trkpt>
      <trkpt lat="45.68705" lon="3.02243">
        <ele>980</ele>
        <time>2019-06-23T07:23:02.000Z</time>
      </trkpt>
      <trkpt lat="45.68705" lon="3.02239">
        <ele>980</ele>
        <time>2019-06-23T07:23:03.000Z</time>
      </trkpt>
      <trkpt lat="45.68705" lon="3.02235">
        <ele>980</ele>
        <time>2019-06-23T07:23:04.000Z</time>
      </trkpt>
      <trkpt lat="45.68705" lon="3.02231">
        <ele>980</ele>
        <time>2019-06-23T07:23:05.000Z</time>
      </trkpt>
      <trkpt lat="45.68705" lon="3.02227">
        <ele>980</ele>
        <time>2019-06-23T07:23:06.000Z</time>
      </trkpt>
      <trkpt lat="45.68704" lon="3.02223">
        <ele>980</ele>
        <time>2019-06-23T07:23:07.000Z</time>
      </trkpt>
      <trkpt lat="45.68704" lon="3.02219">
        <ele>981</ele>
        <time>2019-06-23T07:23:08.000Z</time>
      </trkpt>
      <trkpt lat="45.68704" lon="3.02215">
        <ele>981</ele>
        <time>2019-06-23T07:23:09.000Z</time>
      </trkpt>
      <trkpt lat="45.68703" lon="3.02211">
        <ele>981</ele>
        <time>2019-06-23T07:23:10.000Z</time>
      </trkpt>
      <trkpt lat="45.68703" lon="3.02207">
        <ele>981</ele>
        <time>2019-06-23T07:23:11.000Z</time>
      </trkpt>
      <trkpt lat="45.68703" lon="3.02203">
        <ele>981</ele>
        <time>2019-06-23T07:23:12.000Z</time>
      </trkpt>
      <trkpt lat="45.68703" lon="3.02199">
        <ele>981</ele>
        <time>2019-06-23T07:23:13.000Z</time>
      </trkpt>
      <trkpt lat="45.68703" lon="3.02195">
        <ele>982</ele>
        <time>2019-06-23T07:23:14.000Z</time>
      </trkpt>
      <trkpt lat="45.68703" lon="3.02191">
        <ele>982</ele>
        <time>2019-06-23T07:23:15.000Z</time>
      </trkpt>
      <trkpt lat="45.68703" lon="3.02187">
        <ele>982</ele>
        <time>2019-06-23T07:23:16.000Z</time>
      </trkpt>
      <trkpt lat="45.68703" lon="3.02183">
        <ele>983</ele>
        <time>2019-06-23T07:23:17.000Z</time>
      </trkpt>
      <trkpt lat="45.68703" lon="3.02179">
        <ele>983</ele>
        <time>2019-06-23T07:23:18.000Z</time>
      </trkpt>
      <trkpt lat="45.68704" lon="3.02175">
        <ele>983</ele>
        <time>2019-06-23T07:23:19.000Z</time>
      </trkpt>
      <trkpt lat="45.68704" lon="3.02171">
        <ele>983</ele>
        <time>2019-06-23T07:23:20.000Z</time>
      </trkpt>
      <trkpt lat="45.68705" lon="3.02167">
        <ele>983</ele>
        <time>2019-06-23T07:23:21.000Z</time>
      </trkpt>
      <trkpt lat="45.68705" lon="3.02163">
        <ele>984</ele>
        <time>2019-06-23T07:23:22.000Z</time>
      </trkpt>
      <trkpt lat="45.68706" lon="3.02159">
        <ele>984</ele>
        <time>2019-06-23T07:23:23.000Z</time>
      </trkpt>
      <trkpt lat="45.68706" lon="3.02155">
        <ele>984</ele>
        <time>2019-06-23T07:23:24.000Z</time>
      </trkpt>
      <trkpt lat="45.68707" lon="3.02151">
        <ele>985</ele>
        <time>2019-06-23T07:23:25.000Z</time>
      </trkpt>
      <trkpt lat="45.68708" lon="3.02147">
        <ele>985</ele>
        <time>2019-06-23T07:23:26.000Z</time>
      </trkpt>
      <trkpt lat="45.68708" lon="3.02144">
        <ele>985</ele>
        <time>2019-06-23T07:23:27.000Z</time>
      </trkpt>
      <trkpt lat="45.68709" lon="3.0214">
        <ele>986</ele>
        <time>2019-06-23T07:23:28.000Z</time>
      </trkpt>
      <trkpt lat="45.68709" lon="3.02137">
        <ele>986</ele>
        <time>2019-06-23T07:23:29.000Z</time>
      </trkpt>
      <trkpt lat="45.6871" lon="3.02133">
        <ele>986</ele>
        <time>2019-06-23T07:23:30.000Z</time>
      </trkpt>
      <trkpt lat="45.68711" lon="3.0213">
        <ele>986</ele>
        <time>2019-06-23T07:23:31.000Z</time>
      </trkpt>
      <trkpt lat="45.68711" lon="3.02127">
        <ele>986</ele>
        <time>2019-06-23T07:23:32.000Z</time>
      </trkpt>
      <trkpt lat="45.68712" lon="3.02124">
        <ele>987</ele>
        <time>2019-06-23T07:23:33.000Z</time>
      </trkpt>
      <trkpt lat="45.68712" lon="3.0212">
        <ele>987</ele>
        <time>2019-06-23T07:23:34.000Z</time>
      </trkpt>
      <trkpt lat="45.68712" lon="3.02117">
        <ele>987</ele>
        <time>2019-06-23T07:23:35.000Z</time>
      </trkpt>
      <trkpt lat="45.68712" lon="3.02114">
        <ele>987</ele>
        <time>2019-06-23T07:23:36.000Z</time>
      </trkpt>
      <trkpt lat="45.68713" lon="3.0211">
        <ele>987</ele>
        <time>2019-06-23T07:23:37.000Z</time>
      </trkpt>
      <trkpt lat="45.68713" lon="3.02106">
        <ele>988</ele>
        <time>2019-06-23T07:23:38.000Z</time>
      </trkpt>
      <trkpt lat="45.68713" lon="3.02103">
        <ele>988</ele>
        <time>2019-06-23T07:23:39.000Z</time>
      </trkpt>
      <trkpt lat="45.68714" lon="3.02099">
        <ele>988</ele>
        <time>2019-06-23T07:23:40.000Z</time>
      </trkpt>
      <trkpt lat="45.68714" lon="3.02096">
        <ele>988</ele>
        <time>2019-06-23T07:23:41.000Z</time>
      </trkpt>
      <trkpt lat="45.68715" lon="3.02093">
        <ele>989</ele>
        <time>2019-06-23T07:23:42.000Z</time>
      </trkpt>
      <trkpt lat="45.68716" lon="3.0209">
        <ele>989</ele>
        <time>2019-06-23T07:23:43.000Z</time>
      </trkpt>
      <trkpt lat="45.68717" lon="3.02087">
        <ele>990</ele>
        <time>2019-06-23T07:23:44.000Z</time>
      </trkpt>
      <trkpt lat="45.68718" lon="3.02084">
        <ele>990</ele>
        <time>2019-06-23T07:23:45.000Z</time>
      </trkpt>
      <trkpt lat="45.68719" lon="3.02081">
        <ele>990</ele>
        <time>2019-06-23T07:23:46.000Z</time>
      </trkpt>
      <trkpt lat="45.6872" lon="3.02079">
        <ele>990</ele>
        <time>2019-06-23T07:23:47.000Z</time>
      </trkpt>
      <trkpt lat="45.68721" lon="3.02075">
        <ele>990</ele>
        <time>2019-06-23T07:23:48.000Z</time>
      </trkpt>
      <trkpt lat="45.68723" lon="3.02073">
        <ele>991</ele>
        <time>2019-06-23T07:23:49.000Z</time>
      </trkpt>
      <trkpt lat="45.68724" lon="3.0207">
        <ele>991</ele>
        <time>2019-06-23T07:23:50.000Z</time>
      </trkpt>
      <trkpt lat="45.68725" lon="3.02067">
        <ele>991</ele>
        <time>2019-06-23T07:23:51.000Z</time>
      </trkpt>
      <trkpt lat="45.68727" lon="3.02064">
        <ele>991</ele>
        <time>2019-06-23T07:23:52.000Z</time>
      </trkpt>
      <trkpt lat="45.68728" lon="3.02061">
        <ele>992</ele>
        <time>2019-06-23T07:23:53.000Z</time>
      </trkpt>
      <trkpt lat="45.6873" lon="3.02058">
        <ele>992</ele>
        <time>2019-06-23T07:23:54.000Z</time>
      </trkpt>
      <trkpt lat="45.68731" lon="3.02056">
        <ele>992</ele>
        <time>2019-06-23T07:23:55.000Z</time>
      </trkpt>
      <trkpt lat="45.68732" lon="3.02053">
        <ele>992</ele>
        <time>2019-06-23T07:23:56.000Z</time>
      </trkpt>
      <trkpt lat="45.68734" lon="3.0205">
        <ele>993</ele>
        <time>2019-06-23T07:23:57.000Z</time>
      </trkpt>
      <trkpt lat="45.68735" lon="3.02048">
        <ele>993</ele>
        <time>2019-06-23T07:23:58.000Z</time>
      </trkpt>
      <trkpt lat="45.68736" lon="3.02045">
        <ele>993</ele>
        <time>2019-06-23T07:23:59.000Z</time>
      </trkpt>
      <trkpt lat="45.68737" lon="3.02042">
        <ele>994</ele>
        <time>2019-06-23T07:24:00.000Z</time>
      </trkpt>
      <trkpt lat="45.68737" lon="3.0204">
        <ele>994</ele>
        <time>2019-06-23T07:24:01.000Z</time>
      </trkpt>
      <trkpt lat="45.68737" lon="3.02038">
        <ele>994</ele>
        <time>2019-06-23T07:24:02.000Z</time>
      </trkpt>
      <trkpt lat="45.68738" lon="3.02036">
        <ele>994</ele>
        <time>2019-06-23T07:24:03.000Z</time>
      </trkpt>
      <trkpt lat="45.68739" lon="3.02034">
        <ele>994</ele>
        <time>2019-06-23T07:24:04.000Z</time>
      </trkpt>
      <trkpt lat="45.68741" lon="3.02032">
        <ele>995</ele>
        <time>2019-06-23T07:24:05.000Z</time>
      </trkpt>
      <trkpt lat="45.68742" lon="3.0203">
        <ele>995</ele>
        <time>2019-06-23T07:24:06.000Z</time>
      </trkpt>
      <trkpt lat="45.68744" lon="3.02028">
        <ele>995</ele>
        <time>2019-06-23T07:24:07.000Z</time>
      </trkpt>
      <trkpt lat="45.68744" lon="3.02026">
        <ele>995</ele>
        <time>2019-06-23T07:24:08.000Z</time>
      </trkpt>
      <trkpt lat="45.68744" lon="3.02023">
        <ele>996</ele>
        <time>2019-06-23T07:24:09.000Z</time>
      </trkpt>
      <trkpt lat="45.68745" lon="3.02021">
        <ele>996</ele>
        <time>2019-06-23T07:24:10.000Z</time>
      </trkpt>
      <trkpt lat="45.68745" lon="3.02018">
        <ele>996</ele>
        <time>2019-06-23T07:24:11.000Z</time>
      </trkpt>
      <trkpt lat="45.68745" lon="3.02015">
        <ele>997</ele>
        <time>2019-06-23T07:24:12.000Z</time>
      </trkpt>
      <trkpt lat="45.68745" lon="3.02012">
        <ele>997</ele>
        <time>2019-06-23T07:24:13.000Z</time>
      </trkpt>
      <trkpt lat="45.68744" lon="3.02009">
        <ele>997</ele>
        <time>2019-06-23T07:24:14.000Z</time>
      </trkpt>
      <trkpt lat="45.68744" lon="3.02007">
        <ele>998</ele>
        <time>2019-06-23T07:24:15.000Z</time>
      </trkpt>
      <trkpt lat="45.68744" lon="3.02004">
        <ele>998</ele>
        <time>2019-06-23T07:24:16.000Z</time>
      </trkpt>
      <trkpt lat="45.68744" lon="3.02001">
        <ele>998</ele>
        <time>2019-06-23T07:24:17.000Z</time>
      </trkpt>
      <trkpt lat="45.68744" lon="3.01998">
        <ele>999</ele>
        <time>2019-06-23T07:24:18.000Z</time>
      </trkpt>
      <trkpt lat="45.68744" lon="3.01996">
        <ele>999</ele>
        <time>2019-06-23T07:24:19.000Z</time>
      </trkpt>
      <trkpt lat="45.68744" lon="3.01992">
        <ele>999</ele>
        <time>2019-06-23T07:24:20.000Z</time>
      </trkpt>
      <trkpt lat="45.68744" lon="3.01989">
        <ele>999</ele>
        <time>2019-06-23T07:24:21.000Z</time>
      </trkpt>
      <trkpt lat="45.68745" lon="3.01986">
        <ele>999</ele>
        <time>2019-06-23T07:24:22.000Z</time>
      </trkpt>
      <trkpt lat="45.68745" lon="3.01983">
        <ele>999</ele>
        <time>2019-06-23T07:24:23.000Z</time>
      </trkpt>
      <trkpt lat="45.68745" lon="3.0198">
        <ele>999</ele>
        <time>2019-06-23T07:24:24.000Z</time>
      </trkpt>
      <trkpt lat="45.68746" lon="3.01977">
        <ele>998</ele>
        <time>2019-06-23T07:24:25.000Z</time>
      </trkpt>
      <trkpt lat="45.68746" lon="3.01974">
        <ele>998</ele>
        <time>2019-06-23T07:24:26.000Z</time>
      </trkpt>
      <trkpt lat="45.68746" lon="3.0197">
        <ele>998</ele>
        <time>2019-06-23T07:24:27.000Z</time>
      </trkpt>
      <trkpt lat="45.68747" lon="3.01967">
        <ele>998</ele>
        <time>2019-06-23T07:24:28.000Z</time>
      </trkpt>
      <trkpt lat="45.68747" lon="3.01964">
        <ele>998</ele>
        <time>2019-06-23T07:24:29.000Z</time>
      </trkpt>
      <trkpt lat="45.68748" lon="3.01961">
        <ele>998</ele>
        <time>2019-06-23T07:24:30.000Z</time>
      </trkpt>
      <trkpt lat="45.68748" lon="3.01958">
        <ele>998</ele>
        <time>2019-06-23T07:24:31.000Z</time>
      </trkpt>
      <trkpt lat="45.68748" lon="3.01954">
        <ele>999</ele>
        <time>2019-06-23T07:24:32.000Z</time>
      </trkpt>
      <trkpt lat="45.68748" lon="3.0195">
        <ele>1000</ele>
        <time>2019-06-23T07:24:33.000Z</time>
      </trkpt>
      <trkpt lat="45.68747" lon="3.01947">
        <ele>1000</ele>
        <time>2019-06-23T07:24:34.000Z</time>
      </trkpt>
      <trkpt lat="45.68748" lon="3.01943">
        <ele>1000</ele>
        <time>2019-06-23T07:24:35.000Z</time>
      </trkpt>
      <trkpt lat="45.68748" lon="3.0194">
        <ele>1000</ele>
        <time>2019-06-23T07:24:36.000Z</time>
      </trkpt>
      <trkpt lat="45.68748" lon="3.01936">
        <ele>1000</ele>
        <time>2019-06-23T07:24:37.000Z</time>
      </trkpt>
      <trkpt lat="45.68749" lon="3.01933">
        <ele>1001</ele>
        <time>2019-06-23T07:24:38.000Z</time>
      </trkpt>
      <trkpt lat="45.68749" lon="3.01929">
        <ele>1001</ele>
        <time>2019-06-23T07:24:39.000Z</time>
      </trkpt>
      <trkpt lat="45.6875" lon="3.01926">
        <ele>1001</ele>
        <time>2019-06-23T07:24:40.000Z</time>
      </trkpt>
      <trkpt lat="45.6875" lon="3.01922">
        <ele>1002</ele>
        <time>2019-06-23T07:24:41.000Z</time>
      </trkpt>
      <trkpt lat="45.68751" lon="3.01919">
        <ele>1002</ele>
        <time>2019-06-23T07:24:42.000Z</time>
      </trkpt>
      <trkpt lat="45.68751" lon="3.01915">
        <ele>1002</ele>
        <time>2019-06-23T07:24:43.000Z</time>
      </trkpt>
      <trkpt lat="45.68751" lon="3.01911">
        <ele>1002</ele>
        <time>2019-06-23T07:24:44.000Z</time>
      </trkpt>
      <trkpt lat="45.68751" lon="3.01908">
        <ele>1002</ele>
        <time>2019-06-23T07:24:45.000Z</time>
      </trkpt>
      <trkpt lat="45.68751" lon="3.01905">
        <ele>1002</ele>
        <time>2019-06-23T07:24:46.000Z</time>
      </trkpt>
      <trkpt lat="45.68751" lon="3.01901">
        <ele>1003</ele>
        <time>2019-06-23T07:24:47.000Z</time>
      </trkpt>
      <trkpt lat="45.68752" lon="3.01898">
        <ele>1003</ele>
        <time>2019-06-23T07:24:48.000Z</time>
      </trkpt>
      <trkpt lat="45.68752" lon="3.01895">
        <ele>1003</ele>
        <time>2019-06-23T07:24:49.000Z</time>
      </trkpt>
      <trkpt lat="45.68752" lon="3.01891">
        <ele>1003</ele>
        <time>2019-06-23T07:24:50.000Z</time>
      </trkpt>
      <trkpt lat="45.68753" lon="3.01888">
        <ele>1003</ele>
        <time>2019-06-23T07:24:51.000Z</time>
      </trkpt>
      <trkpt lat="45.68753" lon="3.01885">
        <ele>1004</ele>
        <time>2019-06-23T07:24:52.000Z</time>
      </trkpt>
      <trkpt lat="45.68753" lon="3.01883">
        <ele>1005</ele>
        <time>2019-06-23T07:24:53.000Z</time>
      </trkpt>
      <trkpt lat="45.68754" lon="3.0188">
        <ele>1005</ele>
        <time>2019-06-23T07:24:54.000Z</time>
      </trkpt>
      <trkpt lat="45.68754" lon="3.01878">
        <ele>1006</ele>
        <time>2019-06-23T07:24:55.000Z</time>
      </trkpt>
      <trkpt lat="45.68755" lon="3.01875">
        <ele>1006</ele>
        <time>2019-06-23T07:24:56.000Z</time>
      </trkpt>
      <trkpt lat="45.68756" lon="3.01873">
        <ele>1006</ele>
        <time>2019-06-23T07:24:57.000Z</time>
      </trkpt>
      <trkpt lat="45.68756" lon="3.0187">
        <ele>1007</ele>
        <time>2019-06-23T07:24:58.000Z</time>
      </trkpt>
      <trkpt lat="45.68757" lon="3.01868">
        <ele>1007</ele>
        <time>2019-06-23T07:24:59.000Z</time>
      </trkpt>
      <trkpt lat="45.68758" lon="3.01865">
        <ele>1007</ele>
        <time>2019-06-23T07:25:00.000Z</time>
      </trkpt>
      <trkpt lat="45.68759" lon="3.01862">
        <ele>1006</ele>
        <time>2019-06-23T07:25:01.000Z</time>
      </trkpt>
      <trkpt lat="45.6876" lon="3.0186">
        <ele>1007</ele>
        <time>2019-06-23T07:25:02.000Z</time>
      </trkpt>
      <trkpt lat="45.68761" lon="3.01858">
        <ele>1007</ele>
        <time>2019-06-23T07:25:03.000Z</time>
      </trkpt>
      <trkpt lat="45.68761" lon="3.01856">
        <ele>1006</ele>
        <time>2019-06-23T07:25:04.000Z</time>
      </trkpt>
      <trkpt lat="45.68762" lon="3.01854">
        <ele>1006</ele>
        <time>2019-06-23T07:25:05.000Z</time>
      </trkpt>
      <trkpt lat="45.68762" lon="3.01851">
        <ele>1006</ele>
        <time>2019-06-23T07:25:06.000Z</time>
      </trkpt>
      <trkpt lat="45.68763" lon="3.01849">
        <ele>1006</ele>
        <time>2019-06-23T07:25:07.000Z</time>
      </trkpt>
      <trkpt lat="45.68764" lon="3.01846">
        <ele>1006</ele>
        <time>2019-06-23T07:25:08.000Z</time>
      </trkpt>
      <trkpt lat="45.68765" lon="3.01844">
        <ele>1006</ele>
        <time>2019-06-23T07:25:09.000Z</time>
      </trkpt>
      <trkpt lat="45.68765" lon="3.01842">
        <ele>1007</ele>
        <time>2019-06-23T07:25:10.000Z</time>
      </trkpt>
      <trkpt lat="45.68765" lon="3.01839">
        <ele>1007</ele>
        <time>2019-06-23T07:25:11.000Z</time>
      </trkpt>
      <trkpt lat="45.68766" lon="3.01836">
        <ele>1007</ele>
        <time>2019-06-23T07:25:12.000Z</time>
      </trkpt>
      <trkpt lat="45.68766" lon="3.01834">
        <ele>1007</ele>
        <time>2019-06-23T07:25:13.000Z</time>
      </trkpt>
      <trkpt lat="45.68766" lon="3.01831">
        <ele>1008</ele>
        <time>2019-06-23T07:25:14.000Z</time>
      </trkpt>
      <trkpt lat="45.68766" lon="3.01829">
        <ele>1008</ele>
        <time>2019-06-23T07:25:15.000Z</time>
      </trkpt>
      <trkpt lat="45.68766" lon="3.01826">
        <ele>1008</ele>
        <time>2019-06-23T07:25:16.000Z</time>
      </trkpt>
      <trkpt lat="45.68766" lon="3.01823">
        <ele>1008</ele>
        <time>2019-06-23T07:25:17.000Z</time>
      </trkpt>
      <trkpt lat="45.68766" lon="3.0182">
        <ele>1009</ele>
        <time>2019-06-23T07:25:18.000Z</time>
      </trkpt>
      <trkpt lat="45.68766" lon="3.01817">
        <ele>1009</ele>
        <time>2019-06-23T07:25:19.000Z</time>
      </trkpt>
      <trkpt lat="45.68765" lon="3.01814">
        <ele>1009</ele>
        <time>2019-06-23T07:25:20.000Z</time>
      </trkpt>
      <trkpt lat="45.68765" lon="3.0181">
        <ele>1009</ele>
        <time>2019-06-23T07:25:21.000Z</time>
      </trkpt>
      <trkpt lat="45.68765" lon="3.01807">
        <ele>1009</ele>
        <time>2019-06-23T07:25:22.000Z</time>
      </trkpt>
      <trkpt lat="45.68764" lon="3.01804">
        <ele>1009</ele>
        <time>2019-06-23T07:25:23.000Z</time>
      </trkpt>
      <trkpt lat="45.68764" lon="3.018">
        <ele>1009</ele>
        <time>2019-06-23T07:25:24.000Z</time>
      </trkpt>
      <trkpt lat="45.68764" lon="3.01797">
        <ele>1009</ele>
        <time>2019-06-23T07:25:25.000Z</time>
      </trkpt>
      <trkpt lat="45.68763" lon="3.01793">
        <ele>1009</ele>
        <time>2019-06-23T07:25:26.000Z</time>
      </trkpt>
      <trkpt lat="45.68763" lon="3.0179">
        <ele>1009</ele>
        <time>2019-06-23T07:25:27.000Z</time>
      </trkpt>
      <trkpt lat="45.68763" lon="3.01786">
        <ele>1010</ele>
        <time>2019-06-23T07:25:28.000Z</time>
      </trkpt>
      <trkpt lat="45.68763" lon="3.01783">
        <ele>1010</ele>
        <time>2019-06-23T07:25:29.000Z</time>
      </trkpt>
      <trkpt lat="45.68763" lon="3.0178">
        <ele>1010</ele>
        <time>2019-06-23T07:25:30.000Z</time>
      </trkpt>
      <trkpt lat="45.68763" lon="3.01776">
        <ele>1010</ele>
        <time>2019-06-23T07:25:31.000Z</time>
      </trkpt>
      <trkpt lat="45.68763" lon="3.01772">
        <ele>1011</ele>
        <time>2019-06-23T07:25:32.000Z</time>
      </trkpt>
      <trkpt lat="45.68763" lon="3.01768">
        <ele>1012</ele>
        <time>2019-06-23T07:25:33.000Z</time>
      </trkpt>
      <trkpt lat="45.68763" lon="3.01765">
        <ele>1012</ele>
        <time>2019-06-23T07:25:34.000Z</time>
      </trkpt>
      <trkpt lat="45.68764" lon="3.01762">
        <ele>1012</ele>
        <time>2019-06-23T07:25:35.000Z</time>
      </trkpt>
      <trkpt lat="45.68764" lon="3.01758">
        <ele>1012</ele>
        <time>2019-06-23T07:25:36.000Z</time>
      </trkpt>
      <trkpt lat="45.68765" lon="3.01755">
        <ele>1013</ele>
        <time>2019-06-23T07:25:37.000Z</time>
      </trkpt>
      <trkpt lat="45.68766" lon="3.01752">
        <ele>1013</ele>
        <time>2019-06-23T07:25:38.000Z</time>
      </trkpt>
      <trkpt lat="45.68767" lon="3.01749">
        <ele>1013</ele>
        <time>2019-06-23T07:25:39.000Z</time>
      </trkpt>
      <trkpt lat="45.68768" lon="3.01747">
        <ele>1013</ele>
        <time>2019-06-23T07:25:40.000Z</time>
      </trkpt>
      <trkpt lat="45.68769" lon="3.01744">
        <ele>1013</ele>
        <time>2019-06-23T07:25:41.000Z</time>
      </trkpt>
      <trkpt lat="45.6877" lon="3.01741">
        <ele>1013</ele>
        <time>2019-06-23T07:25:42.000Z</time>
      </trkpt>
      <trkpt lat="45.68771" lon="3.01737">
        <ele>1013</ele>
        <time>2019-06-23T07:25:43.000Z</time>
      </trkpt>
      <trkpt lat="45.68772" lon="3.01734">
        <ele>1014</ele>
        <time>2019-06-23T07:25:44.000Z</time>
      </trkpt>
      <trkpt lat="45.68772" lon="3.0173">
        <ele>1013</ele>
        <time>2019-06-23T07:25:45.000Z</time>
      </trkpt>
      <trkpt lat="45.68774" lon="3.01727">
        <ele>1014</ele>
        <time>2019-06-23T07:25:46.000Z</time>
      </trkpt>
      <trkpt lat="45.68775" lon="3.01724">
        <ele>1014</ele>
        <time>2019-06-23T07:25:47.000Z</time>
      </trkpt>
      <trkpt lat="45.68775" lon="3.01721">
        <ele>1015</ele>
        <time>2019-06-23T07:25:48.000Z</time>
      </trkpt>
      <trkpt lat="45.68777" lon="3.01718">
        <ele>1015</ele>
        <time>2019-06-23T07:25:49.000Z</time>
      </trkpt>
      <trkpt lat="45.68778" lon="3.01716">
        <ele>1015</ele>
        <time>2019-06-23T07:25:50.000Z</time>
      </trkpt>
      <trkpt lat="45.68779" lon="3.01713">
        <ele>1016</ele>
        <time>2019-06-23T07:25:51.000Z</time>
      </trkpt>
      <trkpt lat="45.6878" lon="3.01711">
        <ele>1016</ele>
        <time>2019-06-23T07:25:52.000Z</time>
      </trkpt>
      <trkpt lat="45.68781" lon="3.01708">
        <ele>1016</ele>
        <time>2019-06-23T07:25:53.000Z</time>
      </trkpt>
      <trkpt lat="45.68782" lon="3.01706">
        <ele>1017</ele>
        <time>2019-06-23T07:25:54.000Z</time>
      </trkpt>
      <trkpt lat="45.68783" lon="3.01704">
        <ele>1017</ele>
        <time>2019-06-23T07:25:55.000Z</time>
      </trkpt>
      <trkpt lat="45.68785" lon="3.01702">
        <ele>1017</ele>
        <time>2019-06-23T07:25:56.000Z</time>
      </trkpt>
      <trkpt lat="45.68786" lon="3.01699">
        <ele>1018</ele>
        <time>2019-06-23T07:25:57.000Z</time>
      </trkpt>
      <trkpt lat="45.68787" lon="3.01697">
        <ele>1018</ele>
        <time>2019-06-23T07:25:58.000Z</time>
      </trkpt>
      <trkpt lat="45.68788" lon="3.01694">
        <ele>1019</ele>
        <time>2019-06-23T07:25:59.000Z</time>
      </trkpt>
      <trkpt lat="45.68789" lon="3.01692">
        <ele>1020</ele>
        <time>2019-06-23T07:26:00.000Z</time>
      </trkpt>
      <trkpt lat="45.6879" lon="3.0169">
        <ele>1020</ele>
        <time>2019-06-23T07:26:01.000Z</time>
      </trkpt>
      <trkpt lat="45.6879" lon="3.01687">
        <ele>1021</ele>
        <time>2019-06-23T07:26:02.000Z</time>
      </trkpt>
      <trkpt lat="45.6879" lon="3.01685">
        <ele>1022</ele>
        <time>2019-06-23T07:26:03.000Z</time>
      </trkpt>
      <trkpt lat="45.68791" lon="3.01682">
        <ele>1022</ele>
        <time>2019-06-23T07:26:04.000Z</time>
      </trkpt>
      <trkpt lat="45.68792" lon="3.0168">
        <ele>1023</ele>
        <time>2019-06-23T07:26:05.000Z</time>
      </trkpt>
      <trkpt lat="45.68794" lon="3.01677">
        <ele>1023</ele>
        <time>2019-06-23T07:26:06.000Z</time>
      </trkpt>
      <trkpt lat="45.68796" lon="3.01676">
        <ele>1024</ele>
        <time>2019-06-23T07:26:07.000Z</time>
      </trkpt>
      <trkpt lat="45.68798" lon="3.01675">
        <ele>1024</ele>
        <time>2019-06-23T07:26:08.000Z</time>
      </trkpt>
      <trkpt lat="45.688" lon="3.01673">
        <ele>1024</ele>
        <time>2019-06-23T07:26:09.000Z</time>
      </trkpt>
      <trkpt lat="45.68802" lon="3.01672">
        <ele>1024</ele>
        <time>2019-06-23T07:26:10.000Z</time>
      </trkpt>
      <trkpt lat="45.68803" lon="3.0167">
        <ele>1024</ele>
        <time>2019-06-23T07:26:11.000Z</time>
      </trkpt>
      <trkpt lat="45.68804" lon="3.01668">
        <ele>1024</ele>
        <time>2019-06-23T07:26:12.000Z</time>
      </trkpt>
      <trkpt lat="45.68805" lon="3.01665">
        <ele>1024</ele>
        <time>2019-06-23T07:26:13.000Z</time>
      </trkpt>
      <trkpt lat="45.68805" lon="3.01662">
        <ele>1023</ele>
        <time>2019-06-23T07:26:14.000Z</time>
      </trkpt>
      <trkpt lat="45.68806" lon="3.01659">
        <ele>1023</ele>
        <time>2019-06-23T07:26:15.000Z</time>
      </trkpt>
      <trkpt lat="45.68807" lon="3.01657">
        <ele>1024</ele>
        <time>2019-06-23T07:26:16.000Z</time>
      </trkpt>
      <trkpt lat="45.68807" lon="3.01654">
        <ele>1024</ele>
        <time>2019-06-23T07:26:17.000Z</time>
      </trkpt>
      <trkpt lat="45.68808" lon="3.0165">
        <ele>1023</ele>
        <time>2019-06-23T07:26:18.000Z</time>
      </trkpt>
      <trkpt lat="45.68809" lon="3.01647">
        <ele>1023</ele>
        <time>2019-06-23T07:26:19.000Z</time>
      </trkpt>
      <trkpt lat="45.6881" lon="3.01642">
        <ele>1022</ele>
        <time>2019-06-23T07:26:20.000Z</time>
      </trkpt>
      <trkpt lat="45.68811" lon="3.01638">
        <ele>1022</ele>
        <time>2019-06-23T07:26:21.000Z</time>
      </trkpt>
      <trkpt lat="45.68811" lon="3.01633">
        <ele>1022</ele>
        <time>2019-06-23T07:26:22.000Z</time>
      </trkpt>
      <trkpt lat="45.68812" lon="3.01629">
        <ele>1021</ele>
        <time>2019-06-23T07:26:23.000Z</time>
      </trkpt>
      <trkpt lat="45.68812" lon="3.01625">
        <ele>1021</ele>
        <time>2019-06-23T07:26:24.000Z</time>
      </trkpt>
      <trkpt lat="45.68812" lon="3.01621">
        <ele>1021</ele>
        <time>2019-06-23T07:26:25.000Z</time>
      </trkpt>
      <trkpt lat="45.68812" lon="3.01618">
        <ele>1021</ele>
        <time>2019-06-23T07:26:26.000Z</time>
      </trkpt>
      <trkpt lat="45.68813" lon="3.01613">
        <ele>1021</ele>
        <time>2019-06-23T07:26:27.000Z</time>
      </trkpt>
      <trkpt lat="45.68813" lon="3.01609">
        <ele>1021</ele>
        <time>2019-06-23T07:26:28.000Z</time>
      </trkpt>
      <trkpt lat="45.68814" lon="3.01605">
        <ele>1022</ele>
        <time>2019-06-23T07:26:29.000Z</time>
      </trkpt>
      <trkpt lat="45.68815" lon="3.01601">
        <ele>1022</ele>
        <time>2019-06-23T07:26:30.000Z</time>
      </trkpt>
      <trkpt lat="45.68816" lon="3.01597">
        <ele>1022</ele>
        <time>2019-06-23T07:26:31.000Z</time>
      </trkpt>
      <trkpt lat="45.68816" lon="3.01593">
        <ele>1022</ele>
        <time>2019-06-23T07:26:32.000Z</time>
      </trkpt>
      <trkpt lat="45.68817" lon="3.01589">
        <ele>1022</ele>
        <time>2019-06-23T07:26:33.000Z</time>
      </trkpt>
      <trkpt lat="45.68817" lon="3.01585">
        <ele>1022</ele>
        <time>2019-06-23T07:26:34.000Z</time>
      </trkpt>
      <trkpt lat="45.68818" lon="3.0158">
        <ele>1022</ele>
        <time>2019-06-23T07:26:35.000Z</time>
      </trkpt>
      <trkpt lat="45.68818" lon="3.01577">
        <ele>1023</ele>
        <time>2019-06-23T07:26:36.000Z</time>
      </trkpt>
      <trkpt lat="45.68819" lon="3.01574">
        <ele>1023</ele>
        <time>2019-06-23T07:26:37.000Z</time>
      </trkpt>
      <trkpt lat="45.68819" lon="3.0157">
        <ele>1023</ele>
        <time>2019-06-23T07:26:38.000Z</time>
      </trkpt>
      <trkpt lat="45.68821" lon="3.01566">
        <ele>1023</ele>
        <time>2019-06-23T07:26:39.000Z</time>
      </trkpt>
      <trkpt lat="45.68822" lon="3.01562">
        <ele>1023</ele>
        <time>2019-06-23T07:26:40.000Z</time>
      </trkpt>
      <trkpt lat="45.68823" lon="3.01558">
        <ele>1023</ele>
        <time>2019-06-23T07:26:41.000Z</time>
      </trkpt>
      <trkpt lat="45.68824" lon="3.01554">
        <ele>1023</ele>
        <time>2019-06-23T07:26:42.000Z</time>
      </trkpt>
      <trkpt lat="45.68825" lon="3.0155">
        <ele>1023</ele>
        <time>2019-06-23T07:26:43.000Z</time>
      </trkpt>
      <trkpt lat="45.68826" lon="3.01545">
        <ele>1023</ele>
        <time>2019-06-23T07:26:44.000Z</time>
      </trkpt>
      <trkpt lat="45.68827" lon="3.01541">
        <ele>1023</ele>
        <time>2019-06-23T07:26:45.000Z</time>
      </trkpt>
      <trkpt lat="45.68828" lon="3.01537">
        <ele>1023</ele>
        <time>2019-06-23T07:26:46.000Z</time>
      </trkpt>
      <trkpt lat="45.68829" lon="3.01533">
        <ele>1023</ele>
        <time>2019-06-23T07:26:47.000Z</time>
      </trkpt>
      <trkpt lat="45.6883" lon="3.01529">
        <ele>1023</ele>
        <time>2019-06-23T07:26:48.000Z</time>
      </trkpt>
      <trkpt lat="45.6883" lon="3.01525">
        <ele>1023</ele>
        <time>2019-06-23T07:26:49.000Z</time>
      </trkpt>
      <trkpt lat="45.68831" lon="3.01521">
        <ele>1023</ele>
        <time>2019-06-23T07:26:50.000Z</time>
      </trkpt>
      <trkpt lat="45.68832" lon="3.01517">
        <ele>1023</ele>
        <time>2019-06-23T07:26:51.000Z</time>
      </trkpt>
      <trkpt lat="45.68833" lon="3.01513">
        <ele>1023</ele>
        <time>2019-06-23T07:26:52.000Z</time>
      </trkpt>
      <trkpt lat="45.68834" lon="3.01509">
        <ele>1023</ele>
        <time>2019-06-23T07:26:53.000Z</time>
      </trkpt>
      <trkpt lat="45.68835" lon="3.01505">
        <ele>1023</ele>
        <time>2019-06-23T07:26:54.000Z</time>
      </trkpt>
      <trkpt lat="45.68836" lon="3.015">
        <ele>1023</ele>
        <time>2019-06-23T07:26:55.000Z</time>
      </trkpt>
      <trkpt lat="45.68837" lon="3.01496">
        <ele>1023</ele>
        <time>2019-06-23T07:26:56.000Z</time>
      </trkpt>
      <trkpt lat="45.68837" lon="3.01493">
        <ele>1023</ele>
        <time>2019-06-23T07:26:57.000Z</time>
      </trkpt>
      <trkpt lat="45.68838" lon="3.01489">
        <ele>1023</ele>
        <time>2019-06-23T07:26:58.000Z</time>
      </trkpt>
      <trkpt lat="45.68838" lon="3.01486">
        <ele>1023</ele>
        <time>2019-06-23T07:26:59.000Z</time>
      </trkpt>
      <trkpt lat="45.68839" lon="3.01482">
        <ele>1024</ele>
        <time>2019-06-23T07:27:00.000Z</time>
      </trkpt>
      <trkpt lat="45.6884" lon="3.01478">
        <ele>1024</ele>
        <time>2019-06-23T07:27:01.000Z</time>
      </trkpt>
      <trkpt lat="45.68841" lon="3.01474">
        <ele>1024</ele>
        <time>2019-06-23T07:27:02.000Z</time>
      </trkpt>
      <trkpt lat="45.68842" lon="3.0147">
        <ele>1024</ele>
        <time>2019-06-23T07:27:03.000Z</time>
      </trkpt>
      <trkpt lat="45.68844" lon="3.01466">
        <ele>1025</ele>
        <time>2019-06-23T07:27:04.000Z</time>
      </trkpt>
      <trkpt lat="45.68845" lon="3.01463">
        <ele>1025</ele>
        <time>2019-06-23T07:27:05.000Z</time>
      </trkpt>
      <trkpt lat="45.68847" lon="3.0146">
        <ele>1025</ele>
        <time>2019-06-23T07:27:06.000Z</time>
      </trkpt>
      <trkpt lat="45.68848" lon="3.01456">
        <ele>1025</ele>
        <time>2019-06-23T07:27:07.000Z</time>
      </trkpt>
      <trkpt lat="45.6885" lon="3.01453">
        <ele>1026</ele>
        <time>2019-06-23T07:27:08.000Z</time>
      </trkpt>
      <trkpt lat="45.68851" lon="3.0145">
        <ele>1027</ele>
        <time>2019-06-23T07:27:09.000Z</time>
      </trkpt>
      <trkpt lat="45.68853" lon="3.01446">
        <ele>1027</ele>
        <time>2019-06-23T07:27:10.000Z</time>
      </trkpt>
      <trkpt lat="45.68854" lon="3.01443">
        <ele>1027</ele>
        <time>2019-06-23T07:27:11.000Z</time>
      </trkpt>
      <trkpt lat="45.68855" lon="3.0144">
        <ele>1028</ele>
        <time>2019-06-23T07:27:12.000Z</time>
      </trkpt>
      <trkpt lat="45.68856" lon="3.01436">
        <ele>1028</ele>
        <time>2019-06-23T07:27:13.000Z</time>
      </trkpt>
      <trkpt lat="45.68857" lon="3.01433">
        <ele>1029</ele>
        <time>2019-06-23T07:27:14.000Z</time>
      </trkpt>
      <trkpt lat="45.68858" lon="3.0143">
        <ele>1029</ele>
        <time>2019-06-23T07:27:15.000Z</time>
      </trkpt>
      <trkpt lat="45.68859" lon="3.01426">
        <ele>1029</ele>
        <time>2019-06-23T07:27:16.000Z</time>
      </trkpt>
      <trkpt lat="45.68861" lon="3.01423">
        <ele>1029</ele>
        <time>2019-06-23T07:27:17.000Z</time>
      </trkpt>
      <trkpt lat="45.68861" lon="3.01418">
        <ele>1029</ele>
        <time>2019-06-23T07:27:18.000Z</time>
      </trkpt>
      <trkpt lat="45.68863" lon="3.01414">
        <ele>1029</ele>
        <time>2019-06-23T07:27:19.000Z</time>
      </trkpt>
      <trkpt lat="45.68864" lon="3.0141">
        <ele>1029</ele>
        <time>2019-06-23T07:27:20.000Z</time>
      </trkpt>
      <trkpt lat="45.68865" lon="3.01406">
        <ele>1030</ele>
        <time>2019-06-23T07:27:21.000Z</time>
      </trkpt>
      <trkpt lat="45.68866" lon="3.01401">
        <ele>1030</ele>
        <time>2019-06-23T07:27:22.000Z</time>
      </trkpt>
      <trkpt lat="45.68867" lon="3.01397">
        <ele>1030</ele>
        <time>2019-06-23T07:27:23.000Z</time>
      </trkpt>
      <trkpt lat="45.68868" lon="3.01393">
        <ele>1029</ele>
        <time>2019-06-23T07:27:24.000Z</time>
      </trkpt>
      <trkpt lat="45.68869" lon="3.01388">
        <ele>1028</ele>
        <time>2019-06-23T07:27:25.000Z</time>
      </trkpt>
      <trkpt lat="45.6887" lon="3.01383">
        <ele>1029</ele>
        <time>2019-06-23T07:27:26.000Z</time>
      </trkpt>
      <trkpt lat="45.68871" lon="3.01378">
        <ele>1028</ele>
        <time>2019-06-23T07:27:27.000Z</time>
      </trkpt>
      <trkpt lat="45.68872" lon="3.01374">
        <ele>1028</ele>
        <time>2019-06-23T07:27:28.000Z</time>
      </trkpt>
      <trkpt lat="45.68873" lon="3.01369">
        <ele>1028</ele>
        <time>2019-06-23T07:27:29.000Z</time>
      </trkpt>
      <trkpt lat="45.68874" lon="3.01365">
        <ele>1028</ele>
        <time>2019-06-23T07:27:30.000Z</time>
      </trkpt>
      <trkpt lat="45.68874" lon="3.0136">
        <ele>1028</ele>
        <time>2019-06-23T07:27:31.000Z</time>
      </trkpt>
      <trkpt lat="45.68875" lon="3.01355">
        <ele>1028</ele>
        <time>2019-06-23T07:27:32.000Z</time>
      </trkpt>
      <trkpt lat="45.68876" lon="3.01351">
        <ele>1028</ele>
        <time>2019-06-23T07:27:33.000Z</time>
      </trkpt>
      <trkpt lat="45.68877" lon="3.01346">
        <ele>1029</ele>
        <time>2019-06-23T07:27:34.000Z</time>
      </trkpt>
      <trkpt lat="45.68877" lon="3.01341">
        <ele>1029</ele>
        <time>2019-06-23T07:27:35.000Z</time>
      </trkpt>
      <trkpt lat="45.68879" lon="3.01336">
        <ele>1029</ele>
        <time>2019-06-23T07:27:36.000Z</time>
      </trkpt>
      <trkpt lat="45.6888" lon="3.01332">
        <ele>1029</ele>
        <time>2019-06-23T07:27:37.000Z</time>
      </trkpt>
      <trkpt lat="45.68881" lon="3.01328">
        <ele>1028</ele>
        <time>2019-06-23T07:27:38.000Z</time>
      </trkpt>
      <trkpt lat="45.68882" lon="3.01323">
        <ele>1028</ele>
        <time>2019-06-23T07:27:39.000Z</time>
      </trkpt>
      <trkpt lat="45.68883" lon="3.01318">
        <ele>1028</ele>
        <time>2019-06-23T07:27:40.000Z</time>
      </trkpt>
      <trkpt lat="45.68884" lon="3.01313">
        <ele>1028</ele>
        <time>2019-06-23T07:27:41.000Z</time>
      </trkpt>
      <trkpt lat="45.68885" lon="3.01308">
        <ele>1028</ele>
        <time>2019-06-23T07:27:42.000Z</time>
      </trkpt>
      <trkpt lat="45.68885" lon="3.01303">
        <ele>1028</ele>
        <time>2019-06-23T07:27:43.000Z</time>
      </trkpt>
      <trkpt lat="45.68887" lon="3.01298">
        <ele>1028</ele>
        <time>2019-06-23T07:27:44.000Z</time>
      </trkpt>
      <trkpt lat="45.68887" lon="3.01292">
        <ele>1028</ele>
        <time>2019-06-23T07:27:45.000Z</time>
      </trkpt>
      <trkpt lat="45.68887" lon="3.01286">
        <ele>1028</ele>
        <time>2019-06-23T07:27:46.000Z</time>
      </trkpt>
      <trkpt lat="45.68888" lon="3.0128">
        <ele>1028</ele>
        <time>2019-06-23T07:27:47.000Z</time>
      </trkpt>
      <trkpt lat="45.68888" lon="3.01274">
        <ele>1028</ele>
        <time>2019-06-23T07:27:48.000Z</time>
      </trkpt>
      <trkpt lat="45.68889" lon="3.01268">
        <ele>1027</ele>
        <time>2019-06-23T07:27:49.000Z</time>
      </trkpt>
      <trkpt lat="45.68889" lon="3.01261">
        <ele>1027</ele>
        <time>2019-06-23T07:27:50.000Z</time>
      </trkpt>
      <trkpt lat="45.6889" lon="3.01255">
        <ele>1027</ele>
        <time>2019-06-23T07:27:51.000Z</time>
      </trkpt>
      <trkpt lat="45.6889" lon="3.01248">
        <ele>1027</ele>
        <time>2019-06-23T07:27:52.000Z</time>
      </trkpt>
      <trkpt lat="45.6889" lon="3.01242">
        <ele>1027</ele>
        <time>2019-06-23T07:27:53.000Z</time>
      </trkpt>
      <trkpt lat="45.6889" lon="3.01235">
        <ele>1026</ele>
        <time>2019-06-23T07:27:54.000Z</time>
      </trkpt>
      <trkpt lat="45.68891" lon="3.01228">
        <ele>1027</ele>
        <time>2019-06-23T07:27:55.000Z</time>
      </trkpt>
      <trkpt lat="45.68891" lon="3.01221">
        <ele>1027</ele>
        <time>2019-06-23T07:27:56.000Z</time>
      </trkpt>
      <trkpt lat="45.68891" lon="3.01215">
        <ele>1027</ele>
        <time>2019-06-23T07:27:57.000Z</time>
      </trkpt>
      <trkpt lat="45.68892" lon="3.01209">
        <ele>1027</ele>
        <time>2019-06-23T07:27:58.000Z</time>
      </trkpt>
      <trkpt lat="45.68892" lon="3.01203">
        <ele>1027</ele>
        <time>2019-06-23T07:27:59.000Z</time>
      </trkpt>
      <trkpt lat="45.68893" lon="3.01196">
        <ele>1027</ele>
        <time>2019-06-23T07:28:00.000Z</time>
      </trkpt>
      <trkpt lat="45.68893" lon="3.0119">
        <ele>1027</ele>
        <time>2019-06-23T07:28:01.000Z</time>
      </trkpt>
      <trkpt lat="45.68894" lon="3.01184">
        <ele>1027</ele>
        <time>2019-06-23T07:28:02.000Z</time>
      </trkpt>
      <trkpt lat="45.68894" lon="3.01178">
        <ele>1027</ele>
        <time>2019-06-23T07:28:03.000Z</time>
      </trkpt>
      <trkpt lat="45.68895" lon="3.01172">
        <ele>1027</ele>
        <time>2019-06-23T07:28:04.000Z</time>
      </trkpt>
      <trkpt lat="45.68895" lon="3.01165">
        <ele>1026</ele>
        <time>2019-06-23T07:28:05.000Z</time>
      </trkpt>
      <trkpt lat="45.68896" lon="3.01159">
        <ele>1026</ele>
        <time>2019-06-23T07:28:06.000Z</time>
      </trkpt>
      <trkpt lat="45.68896" lon="3.01153">
        <ele>1026</ele>
        <time>2019-06-23T07:28:07.000Z</time>
      </trkpt>
      <trkpt lat="45.68897" lon="3.01147">
        <ele>1026</ele>
        <time>2019-06-23T07:28:08.000Z</time>
      </trkpt>
      <trkpt lat="45.68898" lon="3.01141">
        <ele>1026</ele>
        <time>2019-06-23T07:28:09.000Z</time>
      </trkpt>
      <trkpt lat="45.68899" lon="3.01136">
        <ele>1026</ele>
        <time>2019-06-23T07:28:10.000Z</time>
      </trkpt>
      <trkpt lat="45.68901" lon="3.0113">
        <ele>1026</ele>
        <time>2019-06-23T07:28:11.000Z</time>
      </trkpt>
      <trkpt lat="45.68902" lon="3.01123">
        <ele>1026</ele>
        <time>2019-06-23T07:28:12.000Z</time>
      </trkpt>
      <trkpt lat="45.68903" lon="3.01116">
        <ele>1026</ele>
        <time>2019-06-23T07:28:13.000Z</time>
      </trkpt>
      <trkpt lat="45.68903" lon="3.0111">
        <ele>1026</ele>
        <time>2019-06-23T07:28:14.000Z</time>
      </trkpt>
      <trkpt lat="45.68904" lon="3.01103">
        <ele>1026</ele>
        <time>2019-06-23T07:28:15.000Z</time>
      </trkpt>
      <trkpt lat="45.68905" lon="3.01096">
        <ele>1026</ele>
        <time>2019-06-23T07:28:16.000Z</time>
      </trkpt>
      <trkpt lat="45.68906" lon="3.0109">
        <ele>1026</ele>
        <time>2019-06-23T07:28:17.000Z</time>
      </trkpt>
      <trkpt lat="45.68907" lon="3.01083">
        <ele>1027</ele>
        <time>2019-06-23T07:28:18.000Z</time>
      </trkpt>
      <trkpt lat="45.68908" lon="3.01077">
        <ele>1027</ele>
        <time>2019-06-23T07:28:19.000Z</time>
      </trkpt>
      <trkpt lat="45.68909" lon="3.01071">
        <ele>1027</ele>
        <time>2019-06-23T07:28:20.000Z</time>
      </trkpt>
      <trkpt lat="45.6891" lon="3.01062">
        <ele>1027</ele>
        <time>2019-06-23T07:28:21.000Z</time>
      </trkpt>
      <trkpt lat="45.68911" lon="3.01055">
        <ele>1028</ele>
        <time>2019-06-23T07:28:22.000Z</time>
      </trkpt>
      <trkpt lat="45.68912" lon="3.01047">
        <ele>1028</ele>
        <time>2019-06-23T07:28:23.000Z</time>
      </trkpt>
      <trkpt lat="45.68913" lon="3.01039">
        <ele>1028</ele>
        <time>2019-06-23T07:28:24.000Z</time>
      </trkpt>
      <trkpt lat="45.68914" lon="3.01032">
        <ele>1028</ele>
        <time>2019-06-23T07:28:25.000Z</time>
      </trkpt>
      <trkpt lat="45.68915" lon="3.01025">
        <ele>1028</ele>
        <time>2019-06-23T07:28:26.000Z</time>
      </trkpt>
      <trkpt lat="45.68916" lon="3.01018">
        <ele>1029</ele>
        <time>2019-06-23T07:28:27.000Z</time>
      </trkpt>
      <trkpt lat="45.68918" lon="3.01011">
        <ele>1028</ele>
        <time>2019-06-23T07:28:28.000Z</time>
      </trkpt>
      <trkpt lat="45.68919" lon="3.01004">
        <ele>1028</ele>
        <time>2019-06-23T07:28:29.000Z</time>
      </trkpt>
      <trkpt lat="45.68921" lon="3.00998">
        <ele>1028</ele>
        <time>2019-06-23T07:28:30.000Z</time>
      </trkpt>
      <trkpt lat="45.68923" lon="3.00992">
        <ele>1029</ele>
        <time>2019-06-23T07:28:31.000Z</time>
      </trkpt>
      <trkpt lat="45.68925" lon="3.00987">
        <ele>1029</ele>
        <time>2019-06-23T07:28:32.000Z</time>
      </trkpt>
      <trkpt lat="45.68927" lon="3.00982">
        <ele>1029</ele>
        <time>2019-06-23T07:28:33.000Z</time>
      </trkpt>
      <trkpt lat="45.68929" lon="3.00976">
        <ele>1029</ele>
        <time>2019-06-23T07:28:34.000Z</time>
      </trkpt>
      <trkpt lat="45.6893" lon="3.0097">
        <ele>1027</ele>
        <time>2019-06-23T07:28:35.000Z</time>
      </trkpt>
      <trkpt lat="45.68933" lon="3.00964">
        <ele>1027</ele>
        <time>2019-06-23T07:28:36.000Z</time>
      </trkpt>
      <trkpt lat="45.68935" lon="3.00959">
        <ele>1027</ele>
        <time>2019-06-23T07:28:37.000Z</time>
      </trkpt>
      <trkpt lat="45.68937" lon="3.00954">
        <ele>1027</ele>
        <time>2019-06-23T07:28:38.000Z</time>
      </trkpt>
      <trkpt lat="45.68939" lon="3.00949">
        <ele>1027</ele>
        <time>2019-06-23T07:28:39.000Z</time>
      </trkpt>
      <trkpt lat="45.68941" lon="3.00945">
        <ele>1027</ele>
        <time>2019-06-23T07:28:40.000Z</time>
      </trkpt>
      <trkpt lat="45.68943" lon="3.0094">
        <ele>1027</ele>
        <time>2019-06-23T07:28:41.000Z</time>
      </trkpt>
      <trkpt lat="45.68945" lon="3.00936">
        <ele>1027</ele>
        <time>2019-06-23T07:28:42.000Z</time>
      </trkpt>
      <trkpt lat="45.68949" lon="3.0093">
        <ele>1026</ele>
        <time>2019-06-23T07:28:43.000Z</time>
      </trkpt>
      <trkpt lat="45.68952" lon="3.00924">
        <ele>1026</ele>
        <time>2019-06-23T07:28:44.000Z</time>
      </trkpt>
      <trkpt lat="45.68955" lon="3.00919">
        <ele>1026</ele>
        <time>2019-06-23T07:28:45.000Z</time>
      </trkpt>
      <trkpt lat="45.68957" lon="3.00913">
        <ele>1028</ele>
        <time>2019-06-23T07:28:46.000Z</time>
      </trkpt>
      <trkpt lat="45.68959" lon="3.00907">
        <ele>1029</ele>
        <time>2019-06-23T07:28:47.000Z</time>
      </trkpt>
      <trkpt lat="45.68961" lon="3.009">
        <ele>1029</ele>
        <time>2019-06-23T07:28:48.000Z</time>
      </trkpt>
      <trkpt lat="45.68963" lon="3.00893">
        <ele>1028</ele>
        <time>2019-06-23T07:28:49.000Z</time>
      </trkpt>
      <trkpt lat="45.68965" lon="3.00886">
        <ele>1028</ele>
        <time>2019-06-23T07:28:50.000Z</time>
      </trkpt>
      <trkpt lat="45.68967" lon="3.00879">
        <ele>1025</ele>
        <time>2019-06-23T07:28:51.000Z</time>
      </trkpt>
      <trkpt lat="45.6897" lon="3.00873">
        <ele>1025</ele>
        <time>2019-06-23T07:28:52.000Z</time>
      </trkpt>
      <trkpt lat="45.68973" lon="3.00866">
        <ele>1024</ele>
        <time>2019-06-23T07:28:53.000Z</time>
      </trkpt>
      <trkpt lat="45.68976" lon="3.00861">
        <ele>1024</ele>
        <time>2019-06-23T07:28:54.000Z</time>
      </trkpt>
      <trkpt lat="45.68979" lon="3.00855">
        <ele>1024</ele>
        <time>2019-06-23T07:28:55.000Z</time>
      </trkpt>
      <trkpt lat="45.68983" lon="3.0085">
        <ele>1024</ele>
        <time>2019-06-23T07:28:56.000Z</time>
      </trkpt>
      <trkpt lat="45.68987" lon="3.00845">
        <ele>1026</ele>
        <time>2019-06-23T07:28:57.000Z</time>
      </trkpt>
      <trkpt lat="45.6899" lon="3.00841">
        <ele>1026</ele>
        <time>2019-06-23T07:28:58.000Z</time>
      </trkpt>
      <trkpt lat="45.68995" lon="3.00838">
        <ele>1026</ele>
        <time>2019-06-23T07:28:59.000Z</time>
      </trkpt>
      <trkpt lat="45.69" lon="3.00836">
        <ele>1026</ele>
        <time>2019-06-23T07:29:00.000Z</time>
      </trkpt>
      <trkpt lat="45.69003" lon="3.00832">
        <ele>1026</ele>
        <time>2019-06-23T07:29:01.000Z</time>
      </trkpt>
      <trkpt lat="45.69007" lon="3.00829">
        <ele>1026</ele>
        <time>2019-06-23T07:29:02.000Z</time>
      </trkpt>
      <trkpt lat="45.69012" lon="3.00824">
        <ele>1026</ele>
        <time>2019-06-23T07:29:03.000Z</time>
      </trkpt>
      <trkpt lat="45.69014" lon="3.00819">
        <ele>1027</ele>
        <time>2019-06-23T07:29:04.000Z</time>
      </trkpt>
      <trkpt lat="45.69018" lon="3.00814">
        <ele>1025</ele>
        <time>2019-06-23T07:29:05.000Z</time>
      </trkpt>
      <trkpt lat="45.69023" lon="3.00809">
        <ele>1024</ele>
        <time>2019-06-23T07:29:06.000Z</time>
      </trkpt>
      <trkpt lat="45.69027" lon="3.00806">
        <ele>1024</ele>
        <time>2019-06-23T07:29:07.000Z</time>
      </trkpt>
      <trkpt lat="45.69031" lon="3.00802">
        <ele>1024</ele>
        <time>2019-06-23T07:29:08.000Z</time>
      </trkpt>
      <trkpt lat="45.69034" lon="3.00799">
        <ele>1023</ele>
        <time>2019-06-23T07:29:09.000Z</time>
      </trkpt>
      <trkpt lat="45.69037" lon="3.00795">
        <ele>1023</ele>
        <time>2019-06-23T07:29:10.000Z</time>
      </trkpt>
      <trkpt lat="45.69041" lon="3.00792">
        <ele>1022</ele>
        <time>2019-06-23T07:29:11.000Z</time>
      </trkpt>
      <trkpt lat="45.69044" lon="3.00789">
        <ele>1019</ele>
        <time>2019-06-23T07:29:12.000Z</time>
      </trkpt>
      <trkpt lat="45.69048" lon="3.00785">
        <ele>1018</ele>
        <time>2019-06-23T07:29:13.000Z</time>
      </trkpt>
      <trkpt lat="45.69054" lon="3.0078">
        <ele>1017</ele>
        <time>2019-06-23T07:29:14.000Z</time>
      </trkpt>
      <trkpt lat="45.69058" lon="3.00777">
        <ele>1017</ele>
        <time>2019-06-23T07:29:15.000Z</time>
      </trkpt>
      <trkpt lat="45.69063" lon="3.00774">
        <ele>1016</ele>
        <time>2019-06-23T07:29:16.000Z</time>
      </trkpt>
      <trkpt lat="45.69067" lon="3.00771">
        <ele>1016</ele>
        <time>2019-06-23T07:29:17.000Z</time>
      </trkpt>
      <trkpt lat="45.69072" lon="3.00766">
        <ele>1017</ele>
        <time>2019-06-23T07:29:18.000Z</time>
      </trkpt>
      <trkpt lat="45.69076" lon="3.00762">
        <ele>1017</ele>
        <time>2019-06-23T07:29:19.000Z</time>
      </trkpt>
      <trkpt lat="45.69081" lon="3.00757">
        <ele>1017</ele>
        <time>2019-06-23T07:29:20.000Z</time>
      </trkpt>
      <trkpt lat="45.69085" lon="3.00749">
        <ele>1020</ele>
        <time>2019-06-23T07:29:21.000Z</time>
      </trkpt>
      <trkpt lat="45.69089" lon="3.00743">
        <ele>1018</ele>
        <time>2019-06-23T07:29:22.000Z</time>
      </trkpt>
      <trkpt lat="45.69093" lon="3.00736">
        <ele>1017</ele>
        <time>2019-06-23T07:29:23.000Z</time>
      </trkpt>
      <trkpt lat="45.69096" lon="3.00728">
        <ele>1016</ele>
        <time>2019-06-23T07:29:24.000Z</time>
      </trkpt>
      <trkpt lat="45.691" lon="3.00722">
        <ele>1016</ele>
        <time>2019-06-23T07:29:25.000Z</time>
      </trkpt>
      <trkpt lat="45.69104" lon="3.00716">
        <ele>1015</ele>
        <time>2019-06-23T07:29:26.000Z</time>
      </trkpt>
      <trkpt lat="45.69106" lon="3.00712">
        <ele>1014</ele>
        <time>2019-06-23T07:29:27.000Z</time>
      </trkpt>
      <trkpt lat="45.69107" lon="3.00707">
        <ele>1012</ele>
        <time>2019-06-23T07:29:28.000Z</time>
      </trkpt>
      <trkpt lat="45.69108" lon="3.00701">
        <ele>1010</ele>
        <time>2019-06-23T07:29:29.000Z</time>
      </trkpt>
      <trkpt lat="45.69112" lon="3.0069">
        <ele>1007</ele>
        <time>2019-06-23T07:29:30.000Z</time>
      </trkpt>
      <trkpt lat="45.69115" lon="3.00681">
        <ele>1004</ele>
        <time>2019-06-23T07:29:31.000Z</time>
      </trkpt>
      <trkpt lat="45.69121" lon="3.00673">
        <ele>1003</ele>
        <time>2019-06-23T07:29:32.000Z</time>
      </trkpt>
      <trkpt lat="45.69127" lon="3.00667">
        <ele>1001</ele>
        <time>2019-06-23T07:29:33.000Z</time>
      </trkpt>
      <trkpt lat="45.69133" lon="3.00659">
        <ele>999</ele>
        <time>2019-06-23T07:29:34.000Z</time>
      </trkpt>
      <trkpt lat="45.69139" lon="3.00651">
        <ele>998</ele>
        <time>2019-06-23T07:29:35.000Z</time>
      </trkpt>
      <trkpt lat="45.69145" lon="3.00643">
        <ele>997</ele>
        <time>2019-06-23T07:29:36.000Z</time>
      </trkpt>
      <trkpt lat="45.69151" lon="3.00636">
        <ele>996</ele>
        <time>2019-06-23T07:29:37.000Z</time>
      </trkpt>
      <trkpt lat="45.69156" lon="3.00629">
        <ele>995</ele>
        <time>2019-06-23T07:29:38.000Z</time>
      </trkpt>
      <trkpt lat="45.69161" lon="3.00625">
        <ele>995</ele>
        <time>2019-06-23T07:29:39.000Z</time>
      </trkpt>
      <trkpt lat="45.69165" lon="3.0062">
        <ele>994</ele>
        <time>2019-06-23T07:29:40.000Z</time>
      </trkpt>
      <trkpt lat="45.69169" lon="3.00616">
        <ele>992</ele>
        <time>2019-06-23T07:29:41.000Z</time>
      </trkpt>
      <trkpt lat="45.69173" lon="3.0061">
        <ele>992</ele>
        <time>2019-06-23T07:29:42.000Z</time>
      </trkpt>
      <trkpt lat="45.69176" lon="3.006">
        <ele>991</ele>
        <time>2019-06-23T07:29:43.000Z</time>
      </trkpt>
      <trkpt lat="45.6918" lon="3.00592">
        <ele>990</ele>
        <time>2019-06-23T07:29:44.000Z</time>
      </trkpt>
      <trkpt lat="45.69186" lon="3.00586">
        <ele>989</ele>
        <time>2019-06-23T07:29:45.000Z</time>
      </trkpt>
      <trkpt lat="45.69192" lon="3.00578">
        <ele>988</ele>
        <time>2019-06-23T07:29:46.000Z</time>
      </trkpt>
      <trkpt lat="45.69198" lon="3.0057">
        <ele>987</ele>
        <time>2019-06-23T07:29:47.000Z</time>
      </trkpt>
      <trkpt lat="45.69204" lon="3.00563">
        <ele>986</ele>
        <time>2019-06-23T07:29:48.000Z</time>
      </trkpt>
      <trkpt lat="45.69209" lon="3.00555">
        <ele>985</ele>
        <time>2019-06-23T07:29:49.000Z</time>
      </trkpt>
      <trkpt lat="45.69215" lon="3.00547">
        <ele>984</ele>
        <time>2019-06-23T07:29:50.000Z</time>
      </trkpt>
      <trkpt lat="45.6922" lon="3.0054">
        <ele>984</ele>
        <time>2019-06-23T07:29:51.000Z</time>
      </trkpt>
      <trkpt lat="45.69225" lon="3.00532">
        <ele>983</ele>
        <time>2019-06-23T07:29:52.000Z</time>
      </trkpt>
      <trkpt lat="45.69231" lon="3.00523">
        <ele>983</ele>
        <time>2019-06-23T07:29:53.000Z</time>
      </trkpt>
      <trkpt lat="45.69236" lon="3.00514">
        <ele>983</ele>
        <time>2019-06-23T07:29:54.000Z</time>
      </trkpt>
      <trkpt lat="45.69241" lon="3.00505">
        <ele>981</ele>
        <time>2019-06-23T07:29:55.000Z</time>
      </trkpt>
      <trkpt lat="45.69246" lon="3.00496">
        <ele>980</ele>
        <time>2019-06-23T07:29:56.000Z</time>
      </trkpt>
      <trkpt lat="45.69252" lon="3.00486">
        <ele>979</ele>
        <time>2019-06-23T07:29:57.000Z</time>
      </trkpt>
      <trkpt lat="45.69258" lon="3.00477">
        <ele>979</ele>
        <time>2019-06-23T07:29:58.000Z</time>
      </trkpt>
      <trkpt lat="45.69263" lon="3.00467">
        <ele>977</ele>
        <time>2019-06-23T07:29:59.000Z</time>
      </trkpt>
      <trkpt lat="45.69268" lon="3.0046">
        <ele>975</ele>
        <time>2019-06-23T07:30:00.000Z</time>
      </trkpt>
      <trkpt lat="45.69271" lon="3.00457">
        <ele>973</ele>
        <time>2019-06-23T07:30:01.000Z</time>
      </trkpt>
      <trkpt lat="45.69274" lon="3.00454">
        <ele>978</ele>
        <time>2019-06-23T07:30:02.000Z</time>
      </trkpt>
      <trkpt lat="45.69275" lon="3.00453">
        <ele>977</ele>
        <time>2019-06-23T07:30:03.000Z</time>
      </trkpt>
      <trkpt lat="45.69276" lon="3.00449">
        <ele>976</ele>
        <time>2019-06-23T07:30:04.000Z</time>
      </trkpt>
      <trkpt lat="45.69278" lon="3.00444">
        <ele>977</ele>
        <time>2019-06-23T07:30:05.000Z</time>
      </trkpt>
      <trkpt lat="45.6928" lon="3.00438">
        <ele>977</ele>
        <time>2019-06-23T07:30:06.000Z</time>
      </trkpt>
      <trkpt lat="45.69282" lon="3.00432">
        <ele>976</ele>
        <time>2019-06-23T07:30:07.000Z</time>
      </trkpt>
      <trkpt lat="45.69284" lon="3.00424">
        <ele>976</ele>
        <time>2019-06-23T07:30:08.000Z</time>
      </trkpt>
      <trkpt lat="45.69286" lon="3.00416">
        <ele>976</ele>
        <time>2019-06-23T07:30:09.000Z</time>
      </trkpt>
      <trkpt lat="45.69288" lon="3.00408">
        <ele>976</ele>
        <time>2019-06-23T07:30:10.000Z</time>
      </trkpt>
      <trkpt lat="45.6929" lon="3.00401">
        <ele>976</ele>
        <time>2019-06-23T07:30:11.000Z</time>
      </trkpt>
      <trkpt lat="45.69291" lon="3.00395">
        <ele>976</ele>
        <time>2019-06-23T07:30:12.000Z</time>
      </trkpt>
      <trkpt lat="45.69289" lon="3.00393">
        <ele>975</ele>
        <time>2019-06-23T07:30:13.000Z</time>
      </trkpt>
      <trkpt lat="45.69289" lon="3.00391">
        <ele>976</ele>
        <time>2019-06-23T07:30:14.000Z</time>
      </trkpt>
      <trkpt lat="45.69288" lon="3.00389">
        <ele>975</ele>
        <time>2019-06-23T07:30:15.000Z</time>
      </trkpt>
      <trkpt lat="45.69288" lon="3.00386">
        <ele>974</ele>
        <time>2019-06-23T07:30:16.000Z</time>
      </trkpt>
      <trkpt lat="45.69288" lon="3.00384">
        <ele>975</ele>
        <time>2019-06-23T07:30:17.000Z</time>
      </trkpt>
      <trkpt lat="45.69289" lon="3.00383">
        <ele>974</ele>
        <time>2019-06-23T07:30:18.000Z</time>
      </trkpt>
      <trkpt lat="45.6929" lon="3.00381">
        <ele>974</ele>
        <time>2019-06-23T07:30:19.000Z</time>
      </trkpt>
      <trkpt lat="45.69291" lon="3.0038">
        <ele>974</ele>
        <time>2019-06-23T07:30:20.000Z</time>
      </trkpt>
      <trkpt lat="45.69292" lon="3.00379">
        <ele>974</ele>
        <time>2019-06-23T07:30:21.000Z</time>
      </trkpt>
      <trkpt lat="45.69292" lon="3.00379">
        <ele>974</ele>
        <time>2019-06-23T07:30:22.000Z</time>
      </trkpt>
      <trkpt lat="45.69292" lon="3.00379">
        <ele>974</ele>
        <time>2019-06-23T07:30:23.000Z</time>
      </trkpt>
      <trkpt lat="45.69296" lon="3.00378">
        <ele>974</ele>
        <time>2019-06-23T07:30:24.000Z</time>
      </trkpt>
      <trkpt lat="45.69298" lon="3.00377">
        <ele>974</ele>
        <time>2019-06-23T07:30:25.000Z</time>
      </trkpt>
      <trkpt lat="45.693" lon="3.00375">
        <ele>973</ele>
        <time>2019-06-23T07:30:26.000Z</time>
      </trkpt>
      <trkpt lat="45.69302" lon="3.00372">
        <ele>973</ele>
        <time>2019-06-23T07:30:27.000Z</time>
      </trkpt>
      <trkpt lat="45.69304" lon="3.00368">
        <ele>973</ele>
        <time>2019-06-23T07:30:28.000Z</time>
      </trkpt>
      <trkpt lat="45.69307" lon="3.00363">
        <ele>972</ele>
        <time>2019-06-23T07:30:29.000Z</time>
      </trkpt>
      <trkpt lat="45.6931" lon="3.00358">
        <ele>972</ele>
        <time>2019-06-23T07:30:30.000Z</time>
      </trkpt>
      <trkpt lat="45.69313" lon="3.00352">
        <ele>972</ele>
        <time>2019-06-23T07:30:31.000Z</time>
      </trkpt>
      <trkpt lat="45.69316" lon="3.00345">
        <ele>972</ele>
        <time>2019-06-23T07:30:32.000Z</time>
      </trkpt>
      <trkpt lat="45.6932" lon="3.00338">
        <ele>970</ele>
        <time>2019-06-23T07:30:33.000Z</time>
      </trkpt>
      <trkpt lat="45.69322" lon="3.00329">
        <ele>970</ele>
        <time>2019-06-23T07:30:34.000Z</time>
      </trkpt>
      <trkpt lat="45.69325" lon="3.00319">
        <ele>969</ele>
        <time>2019-06-23T07:30:35.000Z</time>
      </trkpt>
      <trkpt lat="45.69328" lon="3.00309">
        <ele>968</ele>
        <time>2019-06-23T07:30:36.000Z</time>
      </trkpt>
      <trkpt lat="45.69331" lon="3.00299">
        <ele>967</ele>
        <time>2019-06-23T07:30:37.000Z</time>
      </trkpt>
      <trkpt lat="45.69333" lon="3.00285">
        <ele>966</ele>
        <time>2019-06-23T07:30:38.000Z</time>
      </trkpt>
      <trkpt lat="45.69336" lon="3.00274">
        <ele>964</ele>
        <time>2019-06-23T07:30:39.000Z</time>
      </trkpt>
      <trkpt lat="45.69339" lon="3.00261">
        <ele>963</ele>
        <time>2019-06-23T07:30:40.000Z</time>
      </trkpt>
      <trkpt lat="45.69341" lon="3.00248">
        <ele>960</ele>
        <time>2019-06-23T07:30:41.000Z</time>
      </trkpt>
      <trkpt lat="45.69343" lon="3.00233">
        <ele>961</ele>
        <time>2019-06-23T07:30:42.000Z</time>
      </trkpt>
      <trkpt lat="45.69345" lon="3.00219">
        <ele>960</ele>
        <time>2019-06-23T07:30:43.000Z</time>
      </trkpt>
      <trkpt lat="45.69348" lon="3.00206">
        <ele>958</ele>
        <time>2019-06-23T07:30:44.000Z</time>
      </trkpt>
      <trkpt lat="45.69349" lon="3.00192">
        <ele>957</ele>
        <time>2019-06-23T07:30:45.000Z</time>
      </trkpt>
      <trkpt lat="45.69351" lon="3.00179">
        <ele>956</ele>
        <time>2019-06-23T07:30:46.000Z</time>
      </trkpt>
      <trkpt lat="45.69353" lon="3.00165">
        <ele>954</ele>
        <time>2019-06-23T07:30:47.000Z</time>
      </trkpt>
      <trkpt lat="45.69356" lon="3.00152">
        <ele>952</ele>
        <time>2019-06-23T07:30:48.000Z</time>
      </trkpt>
      <trkpt lat="45.6936" lon="3.00137">
        <ele>951</ele>
        <time>2019-06-23T07:30:49.000Z</time>
      </trkpt>
      <trkpt lat="45.69363" lon="3.00124">
        <ele>950</ele>
        <time>2019-06-23T07:30:50.000Z</time>
      </trkpt>
      <trkpt lat="45.69366" lon="3.00112">
        <ele>949</ele>
        <time>2019-06-23T07:30:51.000Z</time>
      </trkpt>
      <trkpt lat="45.6937" lon="3.00099">
        <ele>949</ele>
        <time>2019-06-23T07:30:52.000Z</time>
      </trkpt>
      <trkpt lat="45.69374" lon="3.00087">
        <ele>948</ele>
        <time>2019-06-23T07:30:53.000Z</time>
      </trkpt>
      <trkpt lat="45.69381" lon="3.00075">
        <ele>948</ele>
        <time>2019-06-23T07:30:54.000Z</time>
      </trkpt>
      <trkpt lat="45.6939" lon="3.00065">
        <ele>948</ele>
        <time>2019-06-23T07:30:55.000Z</time>
      </trkpt>
      <trkpt lat="45.69396" lon="3.00053">
        <ele>947</ele>
        <time>2019-06-23T07:30:56.000Z</time>
      </trkpt>
      <trkpt lat="45.69402" lon="3.00042">
        <ele>947</ele>
        <time>2019-06-23T07:30:57.000Z</time>
      </trkpt>
      <trkpt lat="45.69408" lon="3.00031">
        <ele>946</ele>
        <time>2019-06-23T07:30:58.000Z</time>
      </trkpt>
      <trkpt lat="45.69415" lon="3.0002">
        <ele>945</ele>
        <time>2019-06-23T07:30:59.000Z</time>
      </trkpt>
      <trkpt lat="45.69421" lon="3.0001">
        <ele>944</ele>
        <time>2019-06-23T07:31:00.000Z</time>
      </trkpt>
      <trkpt lat="45.69427" lon="3">
        <ele>943</ele>
        <time>2019-06-23T07:31:01.000Z</time>
      </trkpt>
      <trkpt lat="45.69432" lon="2.9999">
        <ele>943</ele>
        <time>2019-06-23T07:31:02.000Z</time>
      </trkpt>
      <trkpt lat="45.69436" lon="2.9998">
        <ele>943</ele>
        <time>2019-06-23T07:31:03.000Z</time>
      </trkpt>
      <trkpt lat="45.69441" lon="2.99971">
        <ele>942</ele>
        <time>2019-06-23T07:31:04.000Z</time>
      </trkpt>
      <trkpt lat="45.69444" lon="2.99961">
        <ele>941</ele>
        <time>2019-06-23T07:31:05.000Z</time>
      </trkpt>
      <trkpt lat="45.69447" lon="2.99948">
        <ele>935</ele>
        <time>2019-06-23T07:31:06.000Z</time>
      </trkpt>
      <trkpt lat="45.69448" lon="2.99937">
        <ele>929</ele>
        <time>2019-06-23T07:31:07.000Z</time>
      </trkpt>
      <trkpt lat="45.69448" lon="2.99928">
        <ele>925</ele>
        <time>2019-06-23T07:31:08.000Z</time>
      </trkpt>
      <trkpt lat="45.69449" lon="2.99918">
        <ele>924</ele>
        <time>2019-06-23T07:31:09.000Z</time>
      </trkpt>
      <trkpt lat="45.69443" lon="2.99905">
        <ele>926</ele>
        <time>2019-06-23T07:31:10.000Z</time>
      </trkpt>
      <trkpt lat="45.69441" lon="2.99895">
        <ele>925</ele>
        <time>2019-06-23T07:31:11.000Z</time>
      </trkpt>
      <trkpt lat="45.69439" lon="2.99884">
        <ele>923</ele>
        <time>2019-06-23T07:31:12.000Z</time>
      </trkpt>
      <trkpt lat="45.69437" lon="2.99872">
        <ele>923</ele>
        <time>2019-06-23T07:31:13.000Z</time>
      </trkpt>
      <trkpt lat="45.69435" lon="2.9986">
        <ele>923</ele>
        <time>2019-06-23T07:31:14.000Z</time>
      </trkpt>
      <trkpt lat="45.69432" lon="2.99846">
        <ele>922</ele>
        <time>2019-06-23T07:31:15.000Z</time>
      </trkpt>
      <trkpt lat="45.6943" lon="2.99835">
        <ele>921</ele>
        <time>2019-06-23T07:31:16.000Z</time>
      </trkpt>
      <trkpt lat="45.69427" lon="2.99824">
        <ele>921</ele>
        <time>2019-06-23T07:31:17.000Z</time>
      </trkpt>
      <trkpt lat="45.69426" lon="2.99812">
        <ele>921</ele>
        <time>2019-06-23T07:31:18.000Z</time>
      </trkpt>
      <trkpt lat="45.69424" lon="2.99801">
        <ele>921</ele>
        <time>2019-06-23T07:31:19.000Z</time>
      </trkpt>
      <trkpt lat="45.69422" lon="2.99792">
        <ele>921</ele>
        <time>2019-06-23T07:31:20.000Z</time>
      </trkpt>
      <trkpt lat="45.69421" lon="2.99783">
        <ele>921</ele>
        <time>2019-06-23T07:31:21.000Z</time>
      </trkpt>
      <trkpt lat="45.69419" lon="2.99775">
        <ele>920</ele>
        <time>2019-06-23T07:31:22.000Z</time>
      </trkpt>
      <trkpt lat="45.69416" lon="2.99767">
        <ele>920</ele>
        <time>2019-06-23T07:31:23.000Z</time>
      </trkpt>
      <trkpt lat="45.69412" lon="2.99759">
        <ele>919</ele>
        <time>2019-06-23T07:31:24.000Z</time>
      </trkpt>
      <trkpt lat="45.69408" lon="2.99753">
        <ele>919</ele>
        <time>2019-06-23T07:31:25.000Z</time>
      </trkpt>
      <trkpt lat="45.69403" lon="2.99747">
        <ele>919</ele>
        <time>2019-06-23T07:31:26.000Z</time>
      </trkpt>
      <trkpt lat="45.69397" lon="2.99743">
        <ele>919</ele>
        <time>2019-06-23T07:31:27.000Z</time>
      </trkpt>
      <trkpt lat="45.6939" lon="2.99739">
        <ele>920</ele>
        <time>2019-06-23T07:31:28.000Z</time>
      </trkpt>
      <trkpt lat="45.69381" lon="2.99734">
        <ele>917</ele>
        <time>2019-06-23T07:31:29.000Z</time>
      </trkpt>
      <trkpt lat="45.69373" lon="2.99729">
        <ele>916</ele>
        <time>2019-06-23T07:31:30.000Z</time>
      </trkpt>
      <trkpt lat="45.69366" lon="2.99725">
        <ele>914</ele>
        <time>2019-06-23T07:31:31.000Z</time>
      </trkpt>
      <trkpt lat="45.69361" lon="2.99723">
        <ele>914</ele>
        <time>2019-06-23T07:31:32.000Z</time>
      </trkpt>
      <trkpt lat="45.69361" lon="2.99718">
        <ele>916</ele>
        <time>2019-06-23T07:31:33.000Z</time>
      </trkpt>
      <trkpt lat="45.6936" lon="2.99715">
        <ele>917</ele>
        <time>2019-06-23T07:31:34.000Z</time>
      </trkpt>
      <trkpt lat="45.69363" lon="2.99712">
        <ele>917</ele>
        <time>2019-06-23T07:31:35.000Z</time>
      </trkpt>
      <trkpt lat="45.69366" lon="2.99712">
        <ele>917</ele>
        <time>2019-06-23T07:31:36.000Z</time>
      </trkpt>
      <trkpt lat="45.69369" lon="2.99712">
        <ele>917</ele>
        <time>2019-06-23T07:31:37.000Z</time>
      </trkpt>
      <trkpt lat="45.69373" lon="2.99712">
        <ele>917</ele>
        <time>2019-06-23T07:31:38.000Z</time>
      </trkpt>
      <trkpt lat="45.69378" lon="2.99712">
        <ele>918</ele>
        <time>2019-06-23T07:31:39.000Z</time>
      </trkpt>
      <trkpt lat="45.69383" lon="2.99712">
        <ele>918</ele>
        <time>2019-06-23T07:31:40.000Z</time>
      </trkpt>
      <trkpt lat="45.69389" lon="2.99709">
        <ele>917</ele>
        <time>2019-06-23T07:31:41.000Z</time>
      </trkpt>
      <trkpt lat="45.69395" lon="2.99706">
        <ele>917</ele>
        <time>2019-06-23T07:31:42.000Z</time>
      </trkpt>
      <trkpt lat="45.694" lon="2.99703">
        <ele>917</ele>
        <time>2019-06-23T07:31:43.000Z</time>
      </trkpt>
      <trkpt lat="45.69404" lon="2.99698">
        <ele>916</ele>
        <time>2019-06-23T07:31:44.000Z</time>
      </trkpt>
      <trkpt lat="45.69408" lon="2.99692">
        <ele>915</ele>
        <time>2019-06-23T07:31:45.000Z</time>
      </trkpt>
      <trkpt lat="45.69412" lon="2.99685">
        <ele>915</ele>
        <time>2019-06-23T07:31:46.000Z</time>
      </trkpt>
      <trkpt lat="45.69416" lon="2.99678">
        <ele>914</ele>
        <time>2019-06-23T07:31:47.000Z</time>
      </trkpt>
      <trkpt lat="45.6942" lon="2.99671">
        <ele>914</ele>
        <time>2019-06-23T07:31:48.000Z</time>
      </trkpt>
      <trkpt lat="45.69425" lon="2.99664">
        <ele>914</ele>
        <time>2019-06-23T07:31:49.000Z</time>
      </trkpt>
      <trkpt lat="45.69429" lon="2.99657">
        <ele>913</ele>
        <time>2019-06-23T07:31:50.000Z</time>
      </trkpt>
      <trkpt lat="45.69434" lon="2.99649">
        <ele>913</ele>
        <time>2019-06-23T07:31:51.000Z</time>
      </trkpt>
      <trkpt lat="45.69439" lon="2.99641">
        <ele>911</ele>
        <time>2019-06-23T07:31:52.000Z</time>
      </trkpt>
      <trkpt lat="45.69445" lon="2.99633">
        <ele>911</ele>
        <time>2019-06-23T07:31:53.000Z</time>
      </trkpt>
      <trkpt lat="45.69454" lon="2.99627">
        <ele>911</ele>
        <time>2019-06-23T07:31:54.000Z</time>
      </trkpt>
      <trkpt lat="45.69461" lon="2.99621">
        <ele>910</ele>
        <time>2019-06-23T07:31:55.000Z</time>
      </trkpt>
      <trkpt lat="45.69469" lon="2.99617">
        <ele>911</ele>
        <time>2019-06-23T07:31:56.000Z</time>
      </trkpt>
      <trkpt lat="45.69476" lon="2.99613">
        <ele>911</ele>
        <time>2019-06-23T07:31:57.000Z</time>
      </trkpt>
      <trkpt lat="45.69481" lon="2.99608">
        <ele>911</ele>
        <time>2019-06-23T07:31:58.000Z</time>
      </trkpt>
      <trkpt lat="45.69483" lon="2.996">
        <ele>912</ele>
        <time>2019-06-23T07:31:59.000Z</time>
      </trkpt>
      <trkpt lat="45.69483" lon="2.99591">
        <ele>912</ele>
        <time>2019-06-23T07:32:00.000Z</time>
      </trkpt>
      <trkpt lat="45.69482" lon="2.99582">
        <ele>911</ele>
        <time>2019-06-23T07:32:01.000Z</time>
      </trkpt>
      <trkpt lat="45.6948" lon="2.99575">
        <ele>911</ele>
        <time>2019-06-23T07:32:02.000Z</time>
      </trkpt>
      <trkpt lat="45.69476" lon="2.99569">
        <ele>911</ele>
        <time>2019-06-23T07:32:03.000Z</time>
      </trkpt>
      <trkpt lat="45.69473" lon="2.99564">
        <ele>912</ele>
        <time>2019-06-23T07:32:04.000Z</time>
      </trkpt>
      <trkpt lat="45.69468" lon="2.9956">
        <ele>913</ele>
        <time>2019-06-23T07:32:05.000Z</time>
      </trkpt>
      <trkpt lat="45.69463" lon="2.99558">
        <ele>914</ele>
        <time>2019-06-23T07:32:06.000Z</time>
      </trkpt>
      <trkpt lat="45.69459" lon="2.99557">
        <ele>914</ele>
        <time>2019-06-23T07:32:07.000Z</time>
      </trkpt>
      <trkpt lat="45.69454" lon="2.99557">
        <ele>915</ele>
        <time>2019-06-23T07:32:08.000Z</time>
      </trkpt>
      <trkpt lat="45.6945" lon="2.99557">
        <ele>915</ele>
        <time>2019-06-23T07:32:09.000Z</time>
      </trkpt>
      <trkpt lat="45.69446" lon="2.99556">
        <ele>915</ele>
        <time>2019-06-23T07:32:10.000Z</time>
      </trkpt>
      <trkpt lat="45.69442" lon="2.99557">
        <ele>915</ele>
        <time>2019-06-23T07:32:11.000Z</time>
      </trkpt>
      <trkpt lat="45.69438" lon="2.99558">
        <ele>916</ele>
        <time>2019-06-23T07:32:12.000Z</time>
      </trkpt>
      <trkpt lat="45.69435" lon="2.99558">
        <ele>916</ele>
        <time>2019-06-23T07:32:13.000Z</time>
      </trkpt>
      <trkpt lat="45.69431" lon="2.99559">
        <ele>916</ele>
        <time>2019-06-23T07:32:14.000Z</time>
      </trkpt>
      <trkpt lat="45.69428" lon="2.99559">
        <ele>917</ele>
        <time>2019-06-23T07:32:15.000Z</time>
      </trkpt>
      <trkpt lat="45.69424" lon="2.99559">
        <ele>917</ele>
        <time>2019-06-23T07:32:16.000Z</time>
      </trkpt>
      <trkpt lat="45.69421" lon="2.9956">
        <ele>917</ele>
        <time>2019-06-23T07:32:17.000Z</time>
      </trkpt>
      <trkpt lat="45.69418" lon="2.99559">
        <ele>917</ele>
        <time>2019-06-23T07:32:18.000Z</time>
      </trkpt>
      <trkpt lat="45.69415" lon="2.99559">
        <ele>918</ele>
        <time>2019-06-23T07:32:19.000Z</time>
      </trkpt>
      <trkpt lat="45.69412" lon="2.99559">
        <ele>918</ele>
        <time>2019-06-23T07:32:20.000Z</time>
      </trkpt>
      <trkpt lat="45.6941" lon="2.9956">
        <ele>918</ele>
        <time>2019-06-23T07:32:21.000Z</time>
      </trkpt>
      <trkpt lat="45.69408" lon="2.9956">
        <ele>918</ele>
        <time>2019-06-23T07:32:22.000Z</time>
      </trkpt>
      <trkpt lat="45.69406" lon="2.99561">
        <ele>918</ele>
        <time>2019-06-23T07:32:23.000Z</time>
      </trkpt>
      <trkpt lat="45.69404" lon="2.99563">
        <ele>918</ele>
        <time>2019-06-23T07:32:24.000Z</time>
      </trkpt>
      <trkpt lat="45.69403" lon="2.99566">
        <ele>918</ele>
        <time>2019-06-23T07:32:25.000Z</time>
      </trkpt>
      <trkpt lat="45.69402" lon="2.99568">
        <ele>918</ele>
        <time>2019-06-23T07:32:26.000Z</time>
      </trkpt>
      <trkpt lat="45.69401" lon="2.9957">
        <ele>918</ele>
        <time>2019-06-23T07:32:27.000Z</time>
      </trkpt>
      <trkpt lat="45.69399" lon="2.99572">
        <ele>918</ele>
        <time>2019-06-23T07:32:28.000Z</time>
      </trkpt>
      <trkpt lat="45.69398" lon="2.99574">
        <ele>918</ele>
        <time>2019-06-23T07:32:29.000Z</time>
      </trkpt>
      <trkpt lat="45.69396" lon="2.99576">
        <ele>919</ele>
        <time>2019-06-23T07:32:30.000Z</time>
      </trkpt>
      <trkpt lat="45.69394" lon="2.99576">
        <ele>919</ele>
        <time>2019-06-23T07:32:31.000Z</time>
      </trkpt>
      <trkpt lat="45.69393" lon="2.99575">
        <ele>919</ele>
        <time>2019-06-23T07:32:32.000Z</time>
      </trkpt>
      <trkpt lat="45.69393" lon="2.99573">
        <ele>919</ele>
        <time>2019-06-23T07:32:33.000Z</time>
      </trkpt>
      <trkpt lat="45.69392" lon="2.99572">
        <ele>919</ele>
        <time>2019-06-23T07:32:34.000Z</time>
      </trkpt>
      <trkpt lat="45.69392" lon="2.99572">
        <ele>919</ele>
        <time>2019-06-23T07:32:35.000Z</time>
      </trkpt>
      <trkpt lat="45.69393" lon="2.99574">
        <ele>918</ele>
        <time>2019-06-23T07:32:37.000Z</time>
      </trkpt>
      <trkpt lat="45.69394" lon="2.99574">
        <ele>918</ele>
        <time>2019-06-23T07:32:38.000Z</time>
      </trkpt>
      <trkpt lat="45.69395" lon="2.99574">
        <ele>918</ele>
        <time>2019-06-23T07:32:39.000Z</time>
      </trkpt>
      <trkpt lat="45.69395" lon="2.99574">
        <ele>918</ele>
        <time>2019-06-23T07:32:40.000Z</time>
      </trkpt>
      <trkpt lat="45.69395" lon="2.99574">
        <ele>918</ele>
        <time>2019-06-23T07:32:41.000Z</time>
      </trkpt>
      <trkpt lat="45.69396" lon="2.99573">
        <ele>918</ele>
        <time>2019-06-23T07:32:42.000Z</time>
      </trkpt>
      <trkpt lat="45.69398" lon="2.99572">
        <ele>918</ele>
        <time>2019-06-23T07:32:43.000Z</time>
      </trkpt>
      <trkpt lat="45.69399" lon="2.99571">
        <ele>918</ele>
        <time>2019-06-23T07:32:44.000Z</time>
      </trkpt>
      <trkpt lat="45.694" lon="2.99569">
        <ele>918</ele>
        <time>2019-06-23T07:32:45.000Z</time>
      </trkpt>
      <trkpt lat="45.69401" lon="2.99566">
        <ele>918</ele>
        <time>2019-06-23T07:32:46.000Z</time>
      </trkpt>
      <trkpt lat="45.694" lon="2.99563">
        <ele>918</ele>
        <time>2019-06-23T07:32:47.000Z</time>
      </trkpt>
      <trkpt lat="45.694" lon="2.99561">
        <ele>919</ele>
        <time>2019-06-23T07:32:48.000Z</time>
      </trkpt>
      <trkpt lat="45.69398" lon="2.9956">
        <ele>919</ele>
        <time>2019-06-23T07:32:49.000Z</time>
      </trkpt>
      <trkpt lat="45.69397" lon="2.99558">
        <ele>919</ele>
        <time>2019-06-23T07:32:50.000Z</time>
      </trkpt>
      <trkpt lat="45.69395" lon="2.99555">
        <ele>919</ele>
        <time>2019-06-23T07:32:51.000Z</time>
      </trkpt>
      <trkpt lat="45.69393" lon="2.99553">
        <ele>919</ele>
        <time>2019-06-23T07:32:52.000Z</time>
      </trkpt>
      <trkpt lat="45.69392" lon="2.99552">
        <ele>919</ele>
        <time>2019-06-23T07:32:53.000Z</time>
      </trkpt>
      <trkpt lat="45.6939" lon="2.99549">
        <ele>919</ele>
        <time>2019-06-23T07:32:54.000Z</time>
      </trkpt>
      <trkpt lat="45.69388" lon="2.99546">
        <ele>919</ele>
        <time>2019-06-23T07:32:55.000Z</time>
      </trkpt>
      <trkpt lat="45.69386" lon="2.99543">
        <ele>919</ele>
        <time>2019-06-23T07:32:56.000Z</time>
      </trkpt>
      <trkpt lat="45.69384" lon="2.9954">
        <ele>919</ele>
        <time>2019-06-23T07:32:57.000Z</time>
      </trkpt>
      <trkpt lat="45.69382" lon="2.99537">
        <ele>919</ele>
        <time>2019-06-23T07:32:58.000Z</time>
      </trkpt>
      <trkpt lat="45.69381" lon="2.99533">
        <ele>920</ele>
        <time>2019-06-23T07:32:59.000Z</time>
      </trkpt>
      <trkpt lat="45.69379" lon="2.9953">
        <ele>920</ele>
        <time>2019-06-23T07:33:00.000Z</time>
      </trkpt>
      <trkpt lat="45.69377" lon="2.99526">
        <ele>920</ele>
        <time>2019-06-23T07:33:01.000Z</time>
      </trkpt>
      <trkpt lat="45.69375" lon="2.99522">
        <ele>920</ele>
        <time>2019-06-23T07:33:02.000Z</time>
      </trkpt>
      <trkpt lat="45.69373" lon="2.99518">
        <ele>920</ele>
        <time>2019-06-23T07:33:03.000Z</time>
      </trkpt>
      <trkpt lat="45.69372" lon="2.99514">
        <ele>920</ele>
        <time>2019-06-23T07:33:04.000Z</time>
      </trkpt>
      <trkpt lat="45.6937" lon="2.9951">
        <ele>920</ele>
        <time>2019-06-23T07:33:05.000Z</time>
      </trkpt>
      <trkpt lat="45.69368" lon="2.99506">
        <ele>920</ele>
        <time>2019-06-23T07:33:06.000Z</time>
      </trkpt>
      <trkpt lat="45.69366" lon="2.99502">
        <ele>920</ele>
        <time>2019-06-23T07:33:07.000Z</time>
      </trkpt>
      <trkpt lat="45.69363" lon="2.99498">
        <ele>920</ele>
        <time>2019-06-23T07:33:08.000Z</time>
      </trkpt>
      <trkpt lat="45.69361" lon="2.99494">
        <ele>920</ele>
        <time>2019-06-23T07:33:09.000Z</time>
      </trkpt>
      <trkpt lat="45.69359" lon="2.99489">
        <ele>920</ele>
        <time>2019-06-23T07:33:10.000Z</time>
      </trkpt>
      <trkpt lat="45.69357" lon="2.99485">
        <ele>920</ele>
        <time>2019-06-23T07:33:11.000Z</time>
      </trkpt>
      <trkpt lat="45.69354" lon="2.99481">
        <ele>920</ele>
        <time>2019-06-23T07:33:12.000Z</time>
      </trkpt>
      <trkpt lat="45.69352" lon="2.99478">
        <ele>920</ele>
        <time>2019-06-23T07:33:13.000Z</time>
      </trkpt>
      <trkpt lat="45.69349" lon="2.99474">
        <ele>920</ele>
        <time>2019-06-23T07:33:14.000Z</time>
      </trkpt>
      <trkpt lat="45.69347" lon="2.99471">
        <ele>921</ele>
        <time>2019-06-23T07:33:15.000Z</time>
      </trkpt>
      <trkpt lat="45.69343" lon="2.99469">
        <ele>921</ele>
        <time>2019-06-23T07:33:16.000Z</time>
      </trkpt>
      <trkpt lat="45.6934" lon="2.99467">
        <ele>920</ele>
        <time>2019-06-23T07:33:17.000Z</time>
      </trkpt>
      <trkpt lat="45.69336" lon="2.99464">
        <ele>921</ele>
        <time>2019-06-23T07:33:18.000Z</time>
      </trkpt>
      <trkpt lat="45.69333" lon="2.99462">
        <ele>921</ele>
        <time>2019-06-23T07:33:19.000Z</time>
      </trkpt>
      <trkpt lat="45.69329" lon="2.9946">
        <ele>921</ele>
        <time>2019-06-23T07:33:20.000Z</time>
      </trkpt>
      <trkpt lat="45.69326" lon="2.99458">
        <ele>921</ele>
        <time>2019-06-23T07:33:21.000Z</time>
      </trkpt>
      <trkpt lat="45.69322" lon="2.99456">
        <ele>921</ele>
        <time>2019-06-23T07:33:22.000Z</time>
      </trkpt>
      <trkpt lat="45.69318" lon="2.99454">
        <ele>921</ele>
        <time>2019-06-23T07:33:23.000Z</time>
      </trkpt>
      <trkpt lat="45.69315" lon="2.99451">
        <ele>921</ele>
        <time>2019-06-23T07:33:24.000Z</time>
      </trkpt>
      <trkpt lat="45.69311" lon="2.99448">
        <ele>921</ele>
        <time>2019-06-23T07:33:25.000Z</time>
      </trkpt>
      <trkpt lat="45.69308" lon="2.99445">
        <ele>921</ele>
        <time>2019-06-23T07:33:26.000Z</time>
      </trkpt>
      <trkpt lat="45.69304" lon="2.99442">
        <ele>921</ele>
        <time>2019-06-23T07:33:27.000Z</time>
      </trkpt>
      <trkpt lat="45.69301" lon="2.99438">
        <ele>921</ele>
        <time>2019-06-23T07:33:28.000Z</time>
      </trkpt>
      <trkpt lat="45.69298" lon="2.99434">
        <ele>922</ele>
        <time>2019-06-23T07:33:29.000Z</time>
      </trkpt>
      <trkpt lat="45.69296" lon="2.9943">
        <ele>922</ele>
        <time>2019-06-23T07:33:30.000Z</time>
      </trkpt>
      <trkpt lat="45.69293" lon="2.99426">
        <ele>922</ele>
        <time>2019-06-23T07:33:31.000Z</time>
      </trkpt>
      <trkpt lat="45.6929" lon="2.99422">
        <ele>922</ele>
        <time>2019-06-23T07:33:32.000Z</time>
      </trkpt>
      <trkpt lat="45.69287" lon="2.99418">
        <ele>922</ele>
        <time>2019-06-23T07:33:33.000Z</time>
      </trkpt>
      <trkpt lat="45.69284" lon="2.99414">
        <ele>922</ele>
        <time>2019-06-23T07:33:34.000Z</time>
      </trkpt>
      <trkpt lat="45.69281" lon="2.9941">
        <ele>923</ele>
        <time>2019-06-23T07:33:35.000Z</time>
      </trkpt>
      <trkpt lat="45.69278" lon="2.99406">
        <ele>923</ele>
        <time>2019-06-23T07:33:36.000Z</time>
      </trkpt>
      <trkpt lat="45.69275" lon="2.994">
        <ele>923</ele>
        <time>2019-06-23T07:33:37.000Z</time>
      </trkpt>
      <trkpt lat="45.69273" lon="2.99395">
        <ele>923</ele>
        <time>2019-06-23T07:33:38.000Z</time>
      </trkpt>
      <trkpt lat="45.6927" lon="2.9939">
        <ele>923</ele>
        <time>2019-06-23T07:33:39.000Z</time>
      </trkpt>
      <trkpt lat="45.69267" lon="2.99385">
        <ele>924</ele>
        <time>2019-06-23T07:33:40.000Z</time>
      </trkpt>
      <trkpt lat="45.69265" lon="2.99381">
        <ele>924</ele>
        <time>2019-06-23T07:33:41.000Z</time>
      </trkpt>
      <trkpt lat="45.69262" lon="2.99376">
        <ele>924</ele>
        <time>2019-06-23T07:33:42.000Z</time>
      </trkpt>
      <trkpt lat="45.6926" lon="2.99371">
        <ele>924</ele>
        <time>2019-06-23T07:33:43.000Z</time>
      </trkpt>
      <trkpt lat="45.69257" lon="2.99367">
        <ele>924</ele>
        <time>2019-06-23T07:33:44.000Z</time>
      </trkpt>
      <trkpt lat="45.69255" lon="2.99362">
        <ele>924</ele>
        <time>2019-06-23T07:33:45.000Z</time>
      </trkpt>
      <trkpt lat="45.69253" lon="2.99357">
        <ele>925</ele>
        <time>2019-06-23T07:33:46.000Z</time>
      </trkpt>
      <trkpt lat="45.6925" lon="2.99352">
        <ele>925</ele>
        <time>2019-06-23T07:33:47.000Z</time>
      </trkpt>
      <trkpt lat="45.69248" lon="2.99347">
        <ele>925</ele>
        <time>2019-06-23T07:33:48.000Z</time>
      </trkpt>
      <trkpt lat="45.69246" lon="2.99341">
        <ele>925</ele>
        <time>2019-06-23T07:33:49.000Z</time>
      </trkpt>
      <trkpt lat="45.69244" lon="2.99336">
        <ele>925</ele>
        <time>2019-06-23T07:33:50.000Z</time>
      </trkpt>
      <trkpt lat="45.69242" lon="2.99331">
        <ele>925</ele>
        <time>2019-06-23T07:33:51.000Z</time>
      </trkpt>
      <trkpt lat="45.69239" lon="2.99326">
        <ele>925</ele>
        <time>2019-06-23T07:33:52.000Z</time>
      </trkpt>
      <trkpt lat="45.69237" lon="2.9932">
        <ele>925</ele>
        <time>2019-06-23T07:33:53.000Z</time>
      </trkpt>
      <trkpt lat="45.69235" lon="2.99314">
        <ele>925</ele>
        <time>2019-06-23T07:33:54.000Z</time>
      </trkpt>
      <trkpt lat="45.69233" lon="2.99309">
        <ele>925</ele>
        <time>2019-06-23T07:33:55.000Z</time>
      </trkpt>
      <trkpt lat="45.6923" lon="2.99303">
        <ele>925</ele>
        <time>2019-06-23T07:33:56.000Z</time>
      </trkpt>
      <trkpt lat="45.69228" lon="2.99297">
        <ele>925</ele>
        <time>2019-06-23T07:33:57.000Z</time>
      </trkpt>
      <trkpt lat="45.69225" lon="2.99291">
        <ele>925</ele>
        <time>2019-06-23T07:33:58.000Z</time>
      </trkpt>
      <trkpt lat="45.69223" lon="2.99286">
        <ele>925</ele>
        <time>2019-06-23T07:33:59.000Z</time>
      </trkpt>
      <trkpt lat="45.69221" lon="2.9928">
        <ele>924</ele>
        <time>2019-06-23T07:34:00.000Z</time>
      </trkpt>
      <trkpt lat="45.69218" lon="2.99273">
        <ele>924</ele>
        <time>2019-06-23T07:34:01.000Z</time>
      </trkpt>
      <trkpt lat="45.69215" lon="2.99267">
        <ele>924</ele>
        <time>2019-06-23T07:34:02.000Z</time>
      </trkpt>
      <trkpt lat="45.69213" lon="2.99261">
        <ele>924</ele>
        <time>2019-06-23T07:34:03.000Z</time>
      </trkpt>
      <trkpt lat="45.69211" lon="2.99254">
        <ele>924</ele>
        <time>2019-06-23T07:34:04.000Z</time>
      </trkpt>
      <trkpt lat="45.69208" lon="2.99247">
        <ele>923</ele>
        <time>2019-06-23T07:34:05.000Z</time>
      </trkpt>
      <trkpt lat="45.69206" lon="2.99239">
        <ele>923</ele>
        <time>2019-06-23T07:34:06.000Z</time>
      </trkpt>
      <trkpt lat="45.69205" lon="2.99232">
        <ele>923</ele>
        <time>2019-06-23T07:34:07.000Z</time>
      </trkpt>
      <trkpt lat="45.69203" lon="2.99224">
        <ele>923</ele>
        <time>2019-06-23T07:34:08.000Z</time>
      </trkpt>
      <trkpt lat="45.69202" lon="2.99216">
        <ele>923</ele>
        <time>2019-06-23T07:34:09.000Z</time>
      </trkpt>
      <trkpt lat="45.69201" lon="2.99209">
        <ele>923</ele>
        <time>2019-06-23T07:34:10.000Z</time>
      </trkpt>
      <trkpt lat="45.692" lon="2.99201">
        <ele>922</ele>
        <time>2019-06-23T07:34:11.000Z</time>
      </trkpt>
      <trkpt lat="45.692" lon="2.99193">
        <ele>922</ele>
        <time>2019-06-23T07:34:12.000Z</time>
      </trkpt>
      <trkpt lat="45.69199" lon="2.99185">
        <ele>922</ele>
        <time>2019-06-23T07:34:13.000Z</time>
      </trkpt>
      <trkpt lat="45.69199" lon="2.99177">
        <ele>922</ele>
        <time>2019-06-23T07:34:14.000Z</time>
      </trkpt>
      <trkpt lat="45.69198" lon="2.99169">
        <ele>921</ele>
        <time>2019-06-23T07:34:15.000Z</time>
      </trkpt>
      <trkpt lat="45.69198" lon="2.99162">
        <ele>921</ele>
        <time>2019-06-23T07:34:16.000Z</time>
      </trkpt>
      <trkpt lat="45.69198" lon="2.99154">
        <ele>921</ele>
        <time>2019-06-23T07:34:17.000Z</time>
      </trkpt>
      <trkpt lat="45.69197" lon="2.99146">
        <ele>921</ele>
        <time>2019-06-23T07:34:18.000Z</time>
      </trkpt>
      <trkpt lat="45.69197" lon="2.99139">
        <ele>921</ele>
        <time>2019-06-23T07:34:19.000Z</time>
      </trkpt>
      <trkpt lat="45.69196" lon="2.99131">
        <ele>921</ele>
        <time>2019-06-23T07:34:20.000Z</time>
      </trkpt>
      <trkpt lat="45.69195" lon="2.99123">
        <ele>921</ele>
        <time>2019-06-23T07:34:21.000Z</time>
      </trkpt>
      <trkpt lat="45.69194" lon="2.99116">
        <ele>921</ele>
        <time>2019-06-23T07:34:22.000Z</time>
      </trkpt>
      <trkpt lat="45.69192" lon="2.99108">
        <ele>921</ele>
        <time>2019-06-23T07:34:23.000Z</time>
      </trkpt>
      <trkpt lat="45.6919" lon="2.99101">
        <ele>921</ele>
        <time>2019-06-23T07:34:24.000Z</time>
      </trkpt>
      <trkpt lat="45.69188" lon="2.99094">
        <ele>920</ele>
        <time>2019-06-23T07:34:25.000Z</time>
      </trkpt>
      <trkpt lat="45.69185" lon="2.99087">
        <ele>920</ele>
        <time>2019-06-23T07:34:26.000Z</time>
      </trkpt>
      <trkpt lat="45.69182" lon="2.9908">
        <ele>920</ele>
        <time>2019-06-23T07:34:27.000Z</time>
      </trkpt>
      <trkpt lat="45.69179" lon="2.99074">
        <ele>920</ele>
        <time>2019-06-23T07:34:28.000Z</time>
      </trkpt>
      <trkpt lat="45.69176" lon="2.99067">
        <ele>920</ele>
        <time>2019-06-23T07:34:29.000Z</time>
      </trkpt>
      <trkpt lat="45.69175" lon="2.99061">
        <ele>920</ele>
        <time>2019-06-23T07:34:30.000Z</time>
      </trkpt>
      <trkpt lat="45.69176" lon="2.99055">
        <ele>920</ele>
        <time>2019-06-23T07:34:31.000Z</time>
      </trkpt>
      <trkpt lat="45.69178" lon="2.99052">
        <ele>921</ele>
        <time>2019-06-23T07:34:32.000Z</time>
      </trkpt>
      <trkpt lat="45.6918" lon="2.99049">
        <ele>921</ele>
        <time>2019-06-23T07:34:33.000Z</time>
      </trkpt>
      <trkpt lat="45.69183" lon="2.99046">
        <ele>922</ele>
        <time>2019-06-23T07:34:34.000Z</time>
      </trkpt>
      <trkpt lat="45.69186" lon="2.99044">
        <ele>922</ele>
        <time>2019-06-23T07:34:35.000Z</time>
      </trkpt>
      <trkpt lat="45.69188" lon="2.99041">
        <ele>923</ele>
        <time>2019-06-23T07:34:36.000Z</time>
      </trkpt>
      <trkpt lat="45.69191" lon="2.99038">
        <ele>923</ele>
        <time>2019-06-23T07:34:37.000Z</time>
      </trkpt>
      <trkpt lat="45.69194" lon="2.99036">
        <ele>923</ele>
        <time>2019-06-23T07:34:38.000Z</time>
      </trkpt>
      <trkpt lat="45.69197" lon="2.99034">
        <ele>924</ele>
        <time>2019-06-23T07:34:39.000Z</time>
      </trkpt>
      <trkpt lat="45.692" lon="2.99031">
        <ele>925</ele>
        <time>2019-06-23T07:34:40.000Z</time>
      </trkpt>
      <trkpt lat="45.69202" lon="2.99027">
        <ele>925</ele>
        <time>2019-06-23T07:34:41.000Z</time>
      </trkpt>
      <trkpt lat="45.69204" lon="2.99023">
        <ele>926</ele>
        <time>2019-06-23T07:34:42.000Z</time>
      </trkpt>
      <trkpt lat="45.69205" lon="2.99019">
        <ele>926</ele>
        <time>2019-06-23T07:34:43.000Z</time>
      </trkpt>
      <trkpt lat="45.69206" lon="2.99015">
        <ele>926</ele>
        <time>2019-06-23T07:34:44.000Z</time>
      </trkpt>
      <trkpt lat="45.69207" lon="2.99011">
        <ele>926</ele>
        <time>2019-06-23T07:34:45.000Z</time>
      </trkpt>
      <trkpt lat="45.69208" lon="2.99007">
        <ele>927</ele>
        <time>2019-06-23T07:34:46.000Z</time>
      </trkpt>
      <trkpt lat="45.69208" lon="2.99001">
        <ele>927</ele>
        <time>2019-06-23T07:34:47.000Z</time>
      </trkpt>
      <trkpt lat="45.69209" lon="2.98997">
        <ele>927</ele>
        <time>2019-06-23T07:34:48.000Z</time>
      </trkpt>
      <trkpt lat="45.6921" lon="2.98992">
        <ele>927</ele>
        <time>2019-06-23T07:34:49.000Z</time>
      </trkpt>
      <trkpt lat="45.69211" lon="2.98987">
        <ele>927</ele>
        <time>2019-06-23T07:34:50.000Z</time>
      </trkpt>
      <trkpt lat="45.69213" lon="2.98982">
        <ele>927</ele>
        <time>2019-06-23T07:34:51.000Z</time>
      </trkpt>
      <trkpt lat="45.69215" lon="2.98977">
        <ele>926</ele>
        <time>2019-06-23T07:34:52.000Z</time>
      </trkpt>
      <trkpt lat="45.69217" lon="2.98972">
        <ele>926</ele>
        <time>2019-06-23T07:34:53.000Z</time>
      </trkpt>
      <trkpt lat="45.69219" lon="2.98968">
        <ele>927</ele>
        <time>2019-06-23T07:34:54.000Z</time>
      </trkpt>
      <trkpt lat="45.69222" lon="2.98963">
        <ele>927</ele>
        <time>2019-06-23T07:34:55.000Z</time>
      </trkpt>
      <trkpt lat="45.69225" lon="2.98959">
        <ele>927</ele>
        <time>2019-06-23T07:34:56.000Z</time>
      </trkpt>
      <trkpt lat="45.69228" lon="2.98956">
        <ele>928</ele>
        <time>2019-06-23T07:34:57.000Z</time>
      </trkpt>
      <trkpt lat="45.69232" lon="2.98953">
        <ele>928</ele>
        <time>2019-06-23T07:34:58.000Z</time>
      </trkpt>
      <trkpt lat="45.69235" lon="2.9895">
        <ele>928</ele>
        <time>2019-06-23T07:34:59.000Z</time>
      </trkpt>
      <trkpt lat="45.69238" lon="2.98947">
        <ele>928</ele>
        <time>2019-06-23T07:35:00.000Z</time>
      </trkpt>
      <trkpt lat="45.69242" lon="2.98945">
        <ele>929</ele>
        <time>2019-06-23T07:35:01.000Z</time>
      </trkpt>
      <trkpt lat="45.69245" lon="2.98942">
        <ele>929</ele>
        <time>2019-06-23T07:35:02.000Z</time>
      </trkpt>
      <trkpt lat="45.69248" lon="2.98939">
        <ele>929</ele>
        <time>2019-06-23T07:35:03.000Z</time>
      </trkpt>
      <trkpt lat="45.69251" lon="2.98935">
        <ele>929</ele>
        <time>2019-06-23T07:35:04.000Z</time>
      </trkpt>
      <trkpt lat="45.69252" lon="2.9893">
        <ele>929</ele>
        <time>2019-06-23T07:35:05.000Z</time>
      </trkpt>
      <trkpt lat="45.69249" lon="2.98924">
        <ele>929</ele>
        <time>2019-06-23T07:35:06.000Z</time>
      </trkpt>
      <trkpt lat="45.69247" lon="2.98918">
        <ele>928</ele>
        <time>2019-06-23T07:35:07.000Z</time>
      </trkpt>
      <trkpt lat="45.69244" lon="2.98911">
        <ele>929</ele>
        <time>2019-06-23T07:35:08.000Z</time>
      </trkpt>
      <trkpt lat="45.69238" lon="2.98905">
        <ele>929</ele>
        <time>2019-06-23T07:35:09.000Z</time>
      </trkpt>
      <trkpt lat="45.69233" lon="2.98896">
        <ele>929</ele>
        <time>2019-06-23T07:35:10.000Z</time>
      </trkpt>
      <trkpt lat="45.69228" lon="2.98887">
        <ele>927</ele>
        <time>2019-06-23T07:35:11.000Z</time>
      </trkpt>
      <trkpt lat="45.69223" lon="2.98877">
        <ele>926</ele>
        <time>2019-06-23T07:35:12.000Z</time>
      </trkpt>
      <trkpt lat="45.69218" lon="2.98868">
        <ele>926</ele>
        <time>2019-06-23T07:35:13.000Z</time>
      </trkpt>
      <trkpt lat="45.69213" lon="2.98858">
        <ele>925</ele>
        <time>2019-06-23T07:35:14.000Z</time>
      </trkpt>
      <trkpt lat="45.69208" lon="2.98848">
        <ele>924</ele>
        <time>2019-06-23T07:35:15.000Z</time>
      </trkpt>
      <trkpt lat="45.69203" lon="2.98838">
        <ele>923</ele>
        <time>2019-06-23T07:35:16.000Z</time>
      </trkpt>
      <trkpt lat="45.69198" lon="2.98828">
        <ele>923</ele>
        <time>2019-06-23T07:35:17.000Z</time>
      </trkpt>
      <trkpt lat="45.69193" lon="2.98818">
        <ele>922</ele>
        <time>2019-06-23T07:35:18.000Z</time>
      </trkpt>
      <trkpt lat="45.69188" lon="2.98808">
        <ele>922</ele>
        <time>2019-06-23T07:35:19.000Z</time>
      </trkpt>
      <trkpt lat="45.69183" lon="2.98799">
        <ele>921</ele>
        <time>2019-06-23T07:35:20.000Z</time>
      </trkpt>
      <trkpt lat="45.69179" lon="2.98791">
        <ele>921</ele>
        <time>2019-06-23T07:35:21.000Z</time>
      </trkpt>
      <trkpt lat="45.69175" lon="2.98784">
        <ele>921</ele>
        <time>2019-06-23T07:35:22.000Z</time>
      </trkpt>
      <trkpt lat="45.69172" lon="2.98779">
        <ele>921</ele>
        <time>2019-06-23T07:35:23.000Z</time>
      </trkpt>
      <trkpt lat="45.69169" lon="2.98774">
        <ele>920</ele>
        <time>2019-06-23T07:35:24.000Z</time>
      </trkpt>
      <trkpt lat="45.69167" lon="2.98768">
        <ele>921</ele>
        <time>2019-06-23T07:35:25.000Z</time>
      </trkpt>
      <trkpt lat="45.69165" lon="2.98764">
        <ele>921</ele>
        <time>2019-06-23T07:35:26.000Z</time>
      </trkpt>
      <trkpt lat="45.69161" lon="2.98762">
        <ele>921</ele>
        <time>2019-06-23T07:35:27.000Z</time>
      </trkpt>
      <trkpt lat="45.69156" lon="2.98762">
        <ele>922</ele>
        <time>2019-06-23T07:35:28.000Z</time>
      </trkpt>
      <trkpt lat="45.69151" lon="2.98764">
        <ele>922</ele>
        <time>2019-06-23T07:35:29.000Z</time>
      </trkpt>
      <trkpt lat="45.69146" lon="2.98766">
        <ele>921</ele>
        <time>2019-06-23T07:35:30.000Z</time>
      </trkpt>
      <trkpt lat="45.6914" lon="2.98768">
        <ele>921</ele>
        <time>2019-06-23T07:35:31.000Z</time>
      </trkpt>
      <trkpt lat="45.69134" lon="2.98769">
        <ele>921</ele>
        <time>2019-06-23T07:35:32.000Z</time>
      </trkpt>
      <trkpt lat="45.69128" lon="2.98768">
        <ele>920</ele>
        <time>2019-06-23T07:35:33.000Z</time>
      </trkpt>
      <trkpt lat="45.69123" lon="2.98767">
        <ele>920</ele>
        <time>2019-06-23T07:35:34.000Z</time>
      </trkpt>
      <trkpt lat="45.69117" lon="2.98766">
        <ele>920</ele>
        <time>2019-06-23T07:35:35.000Z</time>
      </trkpt>
      <trkpt lat="45.69111" lon="2.98764">
        <ele>920</ele>
        <time>2019-06-23T07:35:36.000Z</time>
      </trkpt>
      <trkpt lat="45.69106" lon="2.98762">
        <ele>920</ele>
        <time>2019-06-23T07:35:37.000Z</time>
      </trkpt>
      <trkpt lat="45.691" lon="2.9876">
        <ele>920</ele>
        <time>2019-06-23T07:35:38.000Z</time>
      </trkpt>
      <trkpt lat="45.69094" lon="2.98759">
        <ele>920</ele>
        <time>2019-06-23T07:35:39.000Z</time>
      </trkpt>
      <trkpt lat="45.69089" lon="2.98757">
        <ele>920</ele>
        <time>2019-06-23T07:35:40.000Z</time>
      </trkpt>
      <trkpt lat="45.69084" lon="2.98756">
        <ele>920</ele>
        <time>2019-06-23T07:35:41.000Z</time>
      </trkpt>
      <trkpt lat="45.69078" lon="2.98755">
        <ele>919</ele>
        <time>2019-06-23T07:35:42.000Z</time>
      </trkpt>
      <trkpt lat="45.69072" lon="2.98754">
        <ele>919</ele>
        <time>2019-06-23T07:35:43.000Z</time>
      </trkpt>
      <trkpt lat="45.69067" lon="2.98755">
        <ele>920</ele>
        <time>2019-06-23T07:35:44.000Z</time>
      </trkpt>
      <trkpt lat="45.69062" lon="2.98756">
        <ele>920</ele>
        <time>2019-06-23T07:35:45.000Z</time>
      </trkpt>
      <trkpt lat="45.69057" lon="2.98759">
        <ele>921</ele>
        <time>2019-06-23T07:35:46.000Z</time>
      </trkpt>
      <trkpt lat="45.69052" lon="2.98764">
        <ele>923</ele>
        <time>2019-06-23T07:35:47.000Z</time>
      </trkpt>
      <trkpt lat="45.69049" lon="2.98768">
        <ele>923</ele>
        <time>2019-06-23T07:35:48.000Z</time>
      </trkpt>
      <trkpt lat="45.69046" lon="2.98773">
        <ele>922</ele>
        <time>2019-06-23T07:35:49.000Z</time>
      </trkpt>
      <trkpt lat="45.69043" lon="2.98778">
        <ele>923</ele>
        <time>2019-06-23T07:35:50.000Z</time>
      </trkpt>
      <trkpt lat="45.69041" lon="2.98784">
        <ele>923</ele>
        <time>2019-06-23T07:35:51.000Z</time>
      </trkpt>
      <trkpt lat="45.69039" lon="2.98789">
        <ele>923</ele>
        <time>2019-06-23T07:35:52.000Z</time>
      </trkpt>
      <trkpt lat="45.69038" lon="2.98795">
        <ele>922</ele>
        <time>2019-06-23T07:35:53.000Z</time>
      </trkpt>
      <trkpt lat="45.69035" lon="2.988">
        <ele>922</ele>
        <time>2019-06-23T07:35:54.000Z</time>
      </trkpt>
      <trkpt lat="45.69032" lon="2.98803">
        <ele>922</ele>
        <time>2019-06-23T07:35:55.000Z</time>
      </trkpt>
      <trkpt lat="45.69029" lon="2.98807">
        <ele>922</ele>
        <time>2019-06-23T07:35:56.000Z</time>
      </trkpt>
      <trkpt lat="45.69026" lon="2.98811">
        <ele>922</ele>
        <time>2019-06-23T07:35:57.000Z</time>
      </trkpt>
      <trkpt lat="45.69024" lon="2.98816">
        <ele>922</ele>
        <time>2019-06-23T07:35:58.000Z</time>
      </trkpt>
      <trkpt lat="45.69022" lon="2.98821">
        <ele>921</ele>
        <time>2019-06-23T07:35:59.000Z</time>
      </trkpt>
      <trkpt lat="45.69021" lon="2.98828">
        <ele>920</ele>
        <time>2019-06-23T07:36:00.000Z</time>
      </trkpt>
      <trkpt lat="45.69021" lon="2.98835">
        <ele>920</ele>
        <time>2019-06-23T07:36:01.000Z</time>
      </trkpt>
      <trkpt lat="45.6902" lon="2.98842">
        <ele>920</ele>
        <time>2019-06-23T07:36:02.000Z</time>
      </trkpt>
      <trkpt lat="45.69019" lon="2.9885">
        <ele>919</ele>
        <time>2019-06-23T07:36:03.000Z</time>
      </trkpt>
      <trkpt lat="45.69017" lon="2.98859">
        <ele>919</ele>
        <time>2019-06-23T07:36:04.000Z</time>
      </trkpt>
      <trkpt lat="45.69016" lon="2.98867">
        <ele>919</ele>
        <time>2019-06-23T07:36:05.000Z</time>
      </trkpt>
      <trkpt lat="45.69012" lon="2.98874">
        <ele>919</ele>
        <time>2019-06-23T07:36:06.000Z</time>
      </trkpt>
      <trkpt lat="45.69007" lon="2.98881">
        <ele>918</ele>
        <time>2019-06-23T07:36:07.000Z</time>
      </trkpt>
      <trkpt lat="45.69002" lon="2.98887">
        <ele>918</ele>
        <time>2019-06-23T07:36:08.000Z</time>
      </trkpt>
      <trkpt lat="45.68997" lon="2.98892">
        <ele>918</ele>
        <time>2019-06-23T07:36:09.000Z</time>
      </trkpt>
      <trkpt lat="45.68991" lon="2.98896">
        <ele>917</ele>
        <time>2019-06-23T07:36:10.000Z</time>
      </trkpt>
      <trkpt lat="45.68985" lon="2.989">
        <ele>917</ele>
        <time>2019-06-23T07:36:11.000Z</time>
      </trkpt>
      <trkpt lat="45.68979" lon="2.98902">
        <ele>917</ele>
        <time>2019-06-23T07:36:12.000Z</time>
      </trkpt>
      <trkpt lat="45.68972" lon="2.98904">
        <ele>916</ele>
        <time>2019-06-23T07:36:13.000Z</time>
      </trkpt>
      <trkpt lat="45.68966" lon="2.98904">
        <ele>916</ele>
        <time>2019-06-23T07:36:14.000Z</time>
      </trkpt>
      <trkpt lat="45.68959" lon="2.98906">
        <ele>916</ele>
        <time>2019-06-23T07:36:15.000Z</time>
      </trkpt>
      <trkpt lat="45.68952" lon="2.98907">
        <ele>915</ele>
        <time>2019-06-23T07:36:16.000Z</time>
      </trkpt>
      <trkpt lat="45.68945" lon="2.98908">
        <ele>915</ele>
        <time>2019-06-23T07:36:17.000Z</time>
      </trkpt>
      <trkpt lat="45.68938" lon="2.98909">
        <ele>915</ele>
        <time>2019-06-23T07:36:18.000Z</time>
      </trkpt>
      <trkpt lat="45.68931" lon="2.9891">
        <ele>915</ele>
        <time>2019-06-23T07:36:19.000Z</time>
      </trkpt>
      <trkpt lat="45.68923" lon="2.9891">
        <ele>914</ele>
        <time>2019-06-23T07:36:20.000Z</time>
      </trkpt>
      <trkpt lat="45.68915" lon="2.98911">
        <ele>914</ele>
        <time>2019-06-23T07:36:21.000Z</time>
      </trkpt>
      <trkpt lat="45.68907" lon="2.98912">
        <ele>913</ele>
        <time>2019-06-23T07:36:22.000Z</time>
      </trkpt>
      <trkpt lat="45.68899" lon="2.98913">
        <ele>913</ele>
        <time>2019-06-23T07:36:23.000Z</time>
      </trkpt>
      <trkpt lat="45.68891" lon="2.98916">
        <ele>912</ele>
        <time>2019-06-23T07:36:24.000Z</time>
      </trkpt>
      <trkpt lat="45.68883" lon="2.98919">
        <ele>912</ele>
        <time>2019-06-23T07:36:25.000Z</time>
      </trkpt>
      <trkpt lat="45.68876" lon="2.98922">
        <ele>912</ele>
        <time>2019-06-23T07:36:26.000Z</time>
      </trkpt>
      <trkpt lat="45.68868" lon="2.98925">
        <ele>911</ele>
        <time>2019-06-23T07:36:27.000Z</time>
      </trkpt>
      <trkpt lat="45.68862" lon="2.98927">
        <ele>911</ele>
        <time>2019-06-23T07:36:28.000Z</time>
      </trkpt>
      <trkpt lat="45.68855" lon="2.9893">
        <ele>911</ele>
        <time>2019-06-23T07:36:29.000Z</time>
      </trkpt>
      <trkpt lat="45.68848" lon="2.98933">
        <ele>911</ele>
        <time>2019-06-23T07:36:30.000Z</time>
      </trkpt>
      <trkpt lat="45.68842" lon="2.98935">
        <ele>911</ele>
        <time>2019-06-23T07:36:31.000Z</time>
      </trkpt>
      <trkpt lat="45.68836" lon="2.98937">
        <ele>911</ele>
        <time>2019-06-23T07:36:32.000Z</time>
      </trkpt>
      <trkpt lat="45.68831" lon="2.98939">
        <ele>911</ele>
        <time>2019-06-23T07:36:33.000Z</time>
      </trkpt>
      <trkpt lat="45.68826" lon="2.98941">
        <ele>910</ele>
        <time>2019-06-23T07:36:34.000Z</time>
      </trkpt>
      <trkpt lat="45.68821" lon="2.98943">
        <ele>910</ele>
        <time>2019-06-23T07:36:35.000Z</time>
      </trkpt>
      <trkpt lat="45.68816" lon="2.98945">
        <ele>910</ele>
        <time>2019-06-23T07:36:36.000Z</time>
      </trkpt>
      <trkpt lat="45.68812" lon="2.98946">
        <ele>910</ele>
        <time>2019-06-23T07:36:37.000Z</time>
      </trkpt>
      <trkpt lat="45.68808" lon="2.98948">
        <ele>910</ele>
        <time>2019-06-23T07:36:38.000Z</time>
      </trkpt>
      <trkpt lat="45.68803" lon="2.9895">
        <ele>910</ele>
        <time>2019-06-23T07:36:39.000Z</time>
      </trkpt>
      <trkpt lat="45.68799" lon="2.98952">
        <ele>910</ele>
        <time>2019-06-23T07:36:40.000Z</time>
      </trkpt>
      <trkpt lat="45.68794" lon="2.98953">
        <ele>910</ele>
        <time>2019-06-23T07:36:41.000Z</time>
      </trkpt>
      <trkpt lat="45.68789" lon="2.98954">
        <ele>910</ele>
        <time>2019-06-23T07:36:42.000Z</time>
      </trkpt>
      <trkpt lat="45.68784" lon="2.98956">
        <ele>910</ele>
        <time>2019-06-23T07:36:43.000Z</time>
      </trkpt>
      <trkpt lat="45.68778" lon="2.98957">
        <ele>910</ele>
        <time>2019-06-23T07:36:44.000Z</time>
      </trkpt>
      <trkpt lat="45.68773" lon="2.98958">
        <ele>910</ele>
        <time>2019-06-23T07:36:45.000Z</time>
      </trkpt>
      <trkpt lat="45.68767" lon="2.98959">
        <ele>910</ele>
        <time>2019-06-23T07:36:46.000Z</time>
      </trkpt>
      <trkpt lat="45.68761" lon="2.9896">
        <ele>910</ele>
        <time>2019-06-23T07:36:47.000Z</time>
      </trkpt>
      <trkpt lat="45.68756" lon="2.98962">
        <ele>910</ele>
        <time>2019-06-23T07:36:48.000Z</time>
      </trkpt>
      <trkpt lat="45.68751" lon="2.98963">
        <ele>910</ele>
        <time>2019-06-23T07:36:49.000Z</time>
      </trkpt>
      <trkpt lat="45.68745" lon="2.98964">
        <ele>911</ele>
        <time>2019-06-23T07:36:50.000Z</time>
      </trkpt>
      <trkpt lat="45.6874" lon="2.98966">
        <ele>911</ele>
        <time>2019-06-23T07:36:51.000Z</time>
      </trkpt>
      <trkpt lat="45.68735" lon="2.98967">
        <ele>911</ele>
        <time>2019-06-23T07:36:52.000Z</time>
      </trkpt>
      <trkpt lat="45.6873" lon="2.98968">
        <ele>911</ele>
        <time>2019-06-23T07:36:53.000Z</time>
      </trkpt>
      <trkpt lat="45.68725" lon="2.98969">
        <ele>912</ele>
        <time>2019-06-23T07:36:54.000Z</time>
      </trkpt>
      <trkpt lat="45.6872" lon="2.98971">
        <ele>912</ele>
        <time>2019-06-23T07:36:55.000Z</time>
      </trkpt>
      <trkpt lat="45.68715" lon="2.98973">
        <ele>912</ele>
        <time>2019-06-23T07:36:56.000Z</time>
      </trkpt>
      <trkpt lat="45.6871" lon="2.98975">
        <ele>912</ele>
        <time>2019-06-23T07:36:57.000Z</time>
      </trkpt>
      <trkpt lat="45.68705" lon="2.98978">
        <ele>913</ele>
        <time>2019-06-23T07:36:58.000Z</time>
      </trkpt>
      <trkpt lat="45.687" lon="2.9898">
        <ele>913</ele>
        <time>2019-06-23T07:36:59.000Z</time>
      </trkpt>
      <trkpt lat="45.68696" lon="2.98983">
        <ele>913</ele>
        <time>2019-06-23T07:37:00.000Z</time>
      </trkpt>
      <trkpt lat="45.68692" lon="2.98987">
        <ele>913</ele>
        <time>2019-06-23T07:37:01.000Z</time>
      </trkpt>
      <trkpt lat="45.68687" lon="2.9899">
        <ele>912</ele>
        <time>2019-06-23T07:37:02.000Z</time>
      </trkpt>
      <trkpt lat="45.68681" lon="2.98994">
        <ele>913</ele>
        <time>2019-06-23T07:37:03.000Z</time>
      </trkpt>
      <trkpt lat="45.68676" lon="2.98998">
        <ele>913</ele>
        <time>2019-06-23T07:37:04.000Z</time>
      </trkpt>
      <trkpt lat="45.68671" lon="2.99001">
        <ele>914</ele>
        <time>2019-06-23T07:37:05.000Z</time>
      </trkpt>
      <trkpt lat="45.68666" lon="2.99004">
        <ele>914</ele>
        <time>2019-06-23T07:37:06.000Z</time>
      </trkpt>
      <trkpt lat="45.68661" lon="2.99007">
        <ele>914</ele>
        <time>2019-06-23T07:37:07.000Z</time>
      </trkpt>
      <trkpt lat="45.68655" lon="2.9901">
        <ele>913</ele>
        <time>2019-06-23T07:37:08.000Z</time>
      </trkpt>
      <trkpt lat="45.68649" lon="2.99013">
        <ele>911</ele>
        <time>2019-06-23T07:37:09.000Z</time>
      </trkpt>
      <trkpt lat="45.68642" lon="2.99017">
        <ele>911</ele>
        <time>2019-06-23T07:37:10.000Z</time>
      </trkpt>
      <trkpt lat="45.68635" lon="2.9902">
        <ele>911</ele>
        <time>2019-06-23T07:37:11.000Z</time>
      </trkpt>
      <trkpt lat="45.68629" lon="2.99024">
        <ele>911</ele>
        <time>2019-06-23T07:37:12.000Z</time>
      </trkpt>
      <trkpt lat="45.68622" lon="2.99028">
        <ele>910</ele>
        <time>2019-06-23T07:37:13.000Z</time>
      </trkpt>
      <trkpt lat="45.68616" lon="2.99033">
        <ele>910</ele>
        <time>2019-06-23T07:37:14.000Z</time>
      </trkpt>
      <trkpt lat="45.68609" lon="2.99038">
        <ele>909</ele>
        <time>2019-06-23T07:37:15.000Z</time>
      </trkpt>
      <trkpt lat="45.68603" lon="2.99042">
        <ele>909</ele>
        <time>2019-06-23T07:37:16.000Z</time>
      </trkpt>
      <trkpt lat="45.68597" lon="2.99045">
        <ele>908</ele>
        <time>2019-06-23T07:37:17.000Z</time>
      </trkpt>
      <trkpt lat="45.6859" lon="2.99048">
        <ele>908</ele>
        <time>2019-06-23T07:37:18.000Z</time>
      </trkpt>
      <trkpt lat="45.68584" lon="2.9905">
        <ele>908</ele>
        <time>2019-06-23T07:37:19.000Z</time>
      </trkpt>
      <trkpt lat="45.68577" lon="2.99052">
        <ele>908</ele>
        <time>2019-06-23T07:37:20.000Z</time>
      </trkpt>
      <trkpt lat="45.68571" lon="2.99053">
        <ele>908</ele>
        <time>2019-06-23T07:37:21.000Z</time>
      </trkpt>
      <trkpt lat="45.68565" lon="2.99055">
        <ele>908</ele>
        <time>2019-06-23T07:37:22.000Z</time>
      </trkpt>
      <trkpt lat="45.68558" lon="2.99063">
        <ele>910</ele>
        <time>2019-06-23T07:37:23.000Z</time>
      </trkpt>
      <trkpt lat="45.68553" lon="2.99069">
        <ele>910</ele>
        <time>2019-06-23T07:37:24.000Z</time>
      </trkpt>
      <trkpt lat="45.6855" lon="2.99076">
        <ele>911</ele>
        <time>2019-06-23T07:37:25.000Z</time>
      </trkpt>
      <trkpt lat="45.68546" lon="2.99086">
        <ele>909</ele>
        <time>2019-06-23T07:37:26.000Z</time>
      </trkpt>
      <trkpt lat="45.68541" lon="2.99094">
        <ele>910</ele>
        <time>2019-06-23T07:37:27.000Z</time>
      </trkpt>
      <trkpt lat="45.68538" lon="2.99102">
        <ele>911</ele>
        <time>2019-06-23T07:37:28.000Z</time>
      </trkpt>
      <trkpt lat="45.68535" lon="2.9911">
        <ele>911</ele>
        <time>2019-06-23T07:37:29.000Z</time>
      </trkpt>
      <trkpt lat="45.68531" lon="2.99119">
        <ele>911</ele>
        <time>2019-06-23T07:37:30.000Z</time>
      </trkpt>
      <trkpt lat="45.68524" lon="2.99126">
        <ele>911</ele>
        <time>2019-06-23T07:37:31.000Z</time>
      </trkpt>
      <trkpt lat="45.68518" lon="2.99132">
        <ele>911</ele>
        <time>2019-06-23T07:37:32.000Z</time>
      </trkpt>
      <trkpt lat="45.68514" lon="2.99139">
        <ele>910</ele>
        <time>2019-06-23T07:37:33.000Z</time>
      </trkpt>
      <trkpt lat="45.68508" lon="2.99145">
        <ele>908</ele>
        <time>2019-06-23T07:37:34.000Z</time>
      </trkpt>
      <trkpt lat="45.68501" lon="2.9915">
        <ele>906</ele>
        <time>2019-06-23T07:37:35.000Z</time>
      </trkpt>
      <trkpt lat="45.68494" lon="2.99155">
        <ele>905</ele>
        <time>2019-06-23T07:37:36.000Z</time>
      </trkpt>
      <trkpt lat="45.68486" lon="2.99161">
        <ele>904</ele>
        <time>2019-06-23T07:37:37.000Z</time>
      </trkpt>
      <trkpt lat="45.6848" lon="2.99166">
        <ele>904</ele>
        <time>2019-06-23T07:37:38.000Z</time>
      </trkpt>
      <trkpt lat="45.68473" lon="2.9917">
        <ele>902</ele>
        <time>2019-06-23T07:37:39.000Z</time>
      </trkpt>
      <trkpt lat="45.68467" lon="2.99174">
        <ele>901</ele>
        <time>2019-06-23T07:37:40.000Z</time>
      </trkpt>
      <trkpt lat="45.68461" lon="2.9918">
        <ele>901</ele>
        <time>2019-06-23T07:37:41.000Z</time>
      </trkpt>
      <trkpt lat="45.68455" lon="2.99186">
        <ele>901</ele>
        <time>2019-06-23T07:37:42.000Z</time>
      </trkpt>
      <trkpt lat="45.68451" lon="2.99195">
        <ele>900</ele>
        <time>2019-06-23T07:37:43.000Z</time>
      </trkpt>
      <trkpt lat="45.68448" lon="2.99209">
        <ele>895</ele>
        <time>2019-06-23T07:37:44.000Z</time>
      </trkpt>
      <trkpt lat="45.68444" lon="2.99218">
        <ele>891</ele>
        <time>2019-06-23T07:37:45.000Z</time>
      </trkpt>
      <trkpt lat="45.68439" lon="2.99226">
        <ele>891</ele>
        <time>2019-06-23T07:37:46.000Z</time>
      </trkpt>
      <trkpt lat="45.68434" lon="2.99235">
        <ele>890</ele>
        <time>2019-06-23T07:37:47.000Z</time>
      </trkpt>
      <trkpt lat="45.68429" lon="2.99245">
        <ele>889</ele>
        <time>2019-06-23T07:37:48.000Z</time>
      </trkpt>
      <trkpt lat="45.68423" lon="2.99254">
        <ele>888</ele>
        <time>2019-06-23T07:37:49.000Z</time>
      </trkpt>
      <trkpt lat="45.68418" lon="2.99261">
        <ele>888</ele>
        <time>2019-06-23T07:37:50.000Z</time>
      </trkpt>
      <trkpt lat="45.68412" lon="2.99267">
        <ele>887</ele>
        <time>2019-06-23T07:37:51.000Z</time>
      </trkpt>
      <trkpt lat="45.68407" lon="2.99272">
        <ele>886</ele>
        <time>2019-06-23T07:37:52.000Z</time>
      </trkpt>
      <trkpt lat="45.68402" lon="2.99276">
        <ele>883</ele>
        <time>2019-06-23T07:37:53.000Z</time>
      </trkpt>
      <trkpt lat="45.68398" lon="2.99282">
        <ele>883</ele>
        <time>2019-06-23T07:37:54.000Z</time>
      </trkpt>
      <trkpt lat="45.68394" lon="2.99289">
        <ele>883</ele>
        <time>2019-06-23T07:37:55.000Z</time>
      </trkpt>
      <trkpt lat="45.68389" lon="2.99298">
        <ele>887</ele>
        <time>2019-06-23T07:37:56.000Z</time>
      </trkpt>
      <trkpt lat="45.68384" lon="2.99305">
        <ele>888</ele>
        <time>2019-06-23T07:37:57.000Z</time>
      </trkpt>
      <trkpt lat="45.6838" lon="2.99313">
        <ele>889</ele>
        <time>2019-06-23T07:37:58.000Z</time>
      </trkpt>
      <trkpt lat="45.68376" lon="2.9932">
        <ele>890</ele>
        <time>2019-06-23T07:37:59.000Z</time>
      </trkpt>
      <trkpt lat="45.68373" lon="2.99328">
        <ele>890</ele>
        <time>2019-06-23T07:38:00.000Z</time>
      </trkpt>
      <trkpt lat="45.6837" lon="2.9934">
        <ele>893</ele>
        <time>2019-06-23T07:38:01.000Z</time>
      </trkpt>
      <trkpt lat="45.6837" lon="2.99351">
        <ele>894</ele>
        <time>2019-06-23T07:38:02.000Z</time>
      </trkpt>
      <trkpt lat="45.68369" lon="2.9936">
        <ele>893</ele>
        <time>2019-06-23T07:38:03.000Z</time>
      </trkpt>
      <trkpt lat="45.68371" lon="2.99369">
        <ele>894</ele>
        <time>2019-06-23T07:38:04.000Z</time>
      </trkpt>
      <trkpt lat="45.68376" lon="2.99378">
        <ele>898</ele>
        <time>2019-06-23T07:38:05.000Z</time>
      </trkpt>
      <trkpt lat="45.68376" lon="2.99386">
        <ele>898</ele>
        <time>2019-06-23T07:38:06.000Z</time>
      </trkpt>
      <trkpt lat="45.68377" lon="2.99395">
        <ele>899</ele>
        <time>2019-06-23T07:38:07.000Z</time>
      </trkpt>
      <trkpt lat="45.68378" lon="2.99401">
        <ele>901</ele>
        <time>2019-06-23T07:38:08.000Z</time>
      </trkpt>
      <trkpt lat="45.6838" lon="2.99408">
        <ele>901</ele>
        <time>2019-06-23T07:38:09.000Z</time>
      </trkpt>
      <trkpt lat="45.68379" lon="2.99414">
        <ele>902</ele>
        <time>2019-06-23T07:38:10.000Z</time>
      </trkpt>
      <trkpt lat="45.68375" lon="2.99418">
        <ele>901</ele>
        <time>2019-06-23T07:38:11.000Z</time>
      </trkpt>
      <trkpt lat="45.68376" lon="2.99427">
        <ele>900</ele>
        <time>2019-06-23T07:38:12.000Z</time>
      </trkpt>
      <trkpt lat="45.68375" lon="2.99433">
        <ele>900</ele>
        <time>2019-06-23T07:38:13.000Z</time>
      </trkpt>
      <trkpt lat="45.68376" lon="2.99439">
        <ele>900</ele>
        <time>2019-06-23T07:38:14.000Z</time>
      </trkpt>
      <trkpt lat="45.68377" lon="2.99446">
        <ele>900</ele>
        <time>2019-06-23T07:38:15.000Z</time>
      </trkpt>
      <trkpt lat="45.68379" lon="2.99454">
        <ele>900</ele>
        <time>2019-06-23T07:38:16.000Z</time>
      </trkpt>
      <trkpt lat="45.6838" lon="2.99461">
        <ele>900</ele>
        <time>2019-06-23T07:38:17.000Z</time>
      </trkpt>
      <trkpt lat="45.68381" lon="2.99467">
        <ele>900</ele>
        <time>2019-06-23T07:38:18.000Z</time>
      </trkpt>
      <trkpt lat="45.68384" lon="2.99474">
        <ele>902</ele>
        <time>2019-06-23T07:38:19.000Z</time>
      </trkpt>
      <trkpt lat="45.68386" lon="2.9948">
        <ele>906</ele>
        <time>2019-06-23T07:38:20.000Z</time>
      </trkpt>
      <trkpt lat="45.68388" lon="2.99486">
        <ele>905</ele>
        <time>2019-06-23T07:38:21.000Z</time>
      </trkpt>
      <trkpt lat="45.6839" lon="2.99494">
        <ele>905</ele>
        <time>2019-06-23T07:38:22.000Z</time>
      </trkpt>
      <trkpt lat="45.68392" lon="2.99502">
        <ele>905</ele>
        <time>2019-06-23T07:38:23.000Z</time>
      </trkpt>
      <trkpt lat="45.68393" lon="2.99508">
        <ele>906</ele>
        <time>2019-06-23T07:38:24.000Z</time>
      </trkpt>
      <trkpt lat="45.68393" lon="2.99515">
        <ele>906</ele>
        <time>2019-06-23T07:38:25.000Z</time>
      </trkpt>
      <trkpt lat="45.68394" lon="2.99523">
        <ele>905</ele>
        <time>2019-06-23T07:38:26.000Z</time>
      </trkpt>
      <trkpt lat="45.68395" lon="2.99534">
        <ele>904</ele>
        <time>2019-06-23T07:38:27.000Z</time>
      </trkpt>
      <trkpt lat="45.68396" lon="2.99543">
        <ele>903</ele>
        <time>2019-06-23T07:38:28.000Z</time>
      </trkpt>
      <trkpt lat="45.68397" lon="2.99553">
        <ele>903</ele>
        <time>2019-06-23T07:38:29.000Z</time>
      </trkpt>
      <trkpt lat="45.68399" lon="2.99564">
        <ele>904</ele>
        <time>2019-06-23T07:38:30.000Z</time>
      </trkpt>
      <trkpt lat="45.68405" lon="2.99575">
        <ele>904</ele>
        <time>2019-06-23T07:38:31.000Z</time>
      </trkpt>
      <trkpt lat="45.68407" lon="2.99583">
        <ele>904</ele>
        <time>2019-06-23T07:38:32.000Z</time>
      </trkpt>
      <trkpt lat="45.68408" lon="2.99591">
        <ele>903</ele>
        <time>2019-06-23T07:38:33.000Z</time>
      </trkpt>
      <trkpt lat="45.6841" lon="2.99599">
        <ele>901</ele>
        <time>2019-06-23T07:38:34.000Z</time>
      </trkpt>
      <trkpt lat="45.68411" lon="2.99608">
        <ele>899</ele>
        <time>2019-06-23T07:38:35.000Z</time>
      </trkpt>
      <trkpt lat="45.68412" lon="2.99618">
        <ele>899</ele>
        <time>2019-06-23T07:38:36.000Z</time>
      </trkpt>
      <trkpt lat="45.68412" lon="2.99629">
        <ele>897</ele>
        <time>2019-06-23T07:38:37.000Z</time>
      </trkpt>
      <trkpt lat="45.68413" lon="2.99639">
        <ele>896</ele>
        <time>2019-06-23T07:38:38.000Z</time>
      </trkpt>
      <trkpt lat="45.68414" lon="2.99648">
        <ele>894</ele>
        <time>2019-06-23T07:38:39.000Z</time>
      </trkpt>
      <trkpt lat="45.68414" lon="2.99658">
        <ele>891</ele>
        <time>2019-06-23T07:38:40.000Z</time>
      </trkpt>
      <trkpt lat="45.68413" lon="2.99665">
        <ele>891</ele>
        <time>2019-06-23T07:38:41.000Z</time>
      </trkpt>
      <trkpt lat="45.68409" lon="2.99674">
        <ele>888</ele>
        <time>2019-06-23T07:38:42.000Z</time>
      </trkpt>
      <trkpt lat="45.68405" lon="2.9968">
        <ele>888</ele>
        <time>2019-06-23T07:38:43.000Z</time>
      </trkpt>
      <trkpt lat="45.68394" lon="2.99688">
        <ele>884</ele>
        <time>2019-06-23T07:38:44.000Z</time>
      </trkpt>
      <trkpt lat="45.6839" lon="2.99694">
        <ele>885</ele>
        <time>2019-06-23T07:38:45.000Z</time>
      </trkpt>
      <trkpt lat="45.68385" lon="2.99702">
        <ele>887</ele>
        <time>2019-06-23T07:38:46.000Z</time>
      </trkpt>
      <trkpt lat="45.68381" lon="2.99707">
        <ele>887</ele>
        <time>2019-06-23T07:38:47.000Z</time>
      </trkpt>
      <trkpt lat="45.68377" lon="2.99712">
        <ele>888</ele>
        <time>2019-06-23T07:38:48.000Z</time>
      </trkpt>
      <trkpt lat="45.68374" lon="2.99716">
        <ele>887</ele>
        <time>2019-06-23T07:38:49.000Z</time>
      </trkpt>
      <trkpt lat="45.6837" lon="2.9972">
        <ele>888</ele>
        <time>2019-06-23T07:38:50.000Z</time>
      </trkpt>
      <trkpt lat="45.68367" lon="2.99723">
        <ele>888</ele>
        <time>2019-06-23T07:38:51.000Z</time>
      </trkpt>
      <trkpt lat="45.68361" lon="2.99725">
        <ele>888</ele>
        <time>2019-06-23T07:38:52.000Z</time>
      </trkpt>
      <trkpt lat="45.68357" lon="2.99727">
        <ele>887</ele>
        <time>2019-06-23T07:38:53.000Z</time>
      </trkpt>
      <trkpt lat="45.68351" lon="2.99729">
        <ele>888</ele>
        <time>2019-06-23T07:38:54.000Z</time>
      </trkpt>
      <trkpt lat="45.68346" lon="2.99732">
        <ele>888</ele>
        <time>2019-06-23T07:38:55.000Z</time>
      </trkpt>
      <trkpt lat="45.6834" lon="2.99735">
        <ele>888</ele>
        <time>2019-06-23T07:38:56.000Z</time>
      </trkpt>
      <trkpt lat="45.68336" lon="2.99737">
        <ele>888</ele>
        <time>2019-06-23T07:38:57.000Z</time>
      </trkpt>
      <trkpt lat="45.68332" lon="2.9974">
        <ele>888</ele>
        <time>2019-06-23T07:38:58.000Z</time>
      </trkpt>
      <trkpt lat="45.68328" lon="2.99743">
        <ele>888</ele>
        <time>2019-06-23T07:38:59.000Z</time>
      </trkpt>
      <trkpt lat="45.68323" lon="2.99746">
        <ele>887</ele>
        <time>2019-06-23T07:39:00.000Z</time>
      </trkpt>
      <trkpt lat="45.68319" lon="2.99749">
        <ele>886</ele>
        <time>2019-06-23T07:39:01.000Z</time>
      </trkpt>
      <trkpt lat="45.68313" lon="2.99754">
        <ele>883</ele>
        <time>2019-06-23T07:39:02.000Z</time>
      </trkpt>
      <trkpt lat="45.68306" lon="2.99759">
        <ele>881</ele>
        <time>2019-06-23T07:39:03.000Z</time>
      </trkpt>
      <trkpt lat="45.68302" lon="2.99763">
        <ele>880</ele>
        <time>2019-06-23T07:39:04.000Z</time>
      </trkpt>
      <trkpt lat="45.68299" lon="2.99768">
        <ele>880</ele>
        <time>2019-06-23T07:39:05.000Z</time>
      </trkpt>
      <trkpt lat="45.68295" lon="2.99771">
        <ele>879</ele>
        <time>2019-06-23T07:39:06.000Z</time>
      </trkpt>
      <trkpt lat="45.68292" lon="2.99775">
        <ele>879</ele>
        <time>2019-06-23T07:39:07.000Z</time>
      </trkpt>
      <trkpt lat="45.68289" lon="2.99779">
        <ele>879</ele>
        <time>2019-06-23T07:39:08.000Z</time>
      </trkpt>
      <trkpt lat="45.68285" lon="2.99783">
        <ele>879</ele>
        <time>2019-06-23T07:39:09.000Z</time>
      </trkpt>
      <trkpt lat="45.68282" lon="2.99787">
        <ele>878</ele>
        <time>2019-06-23T07:39:10.000Z</time>
      </trkpt>
      <trkpt lat="45.68279" lon="2.99791">
        <ele>877</ele>
        <time>2019-06-23T07:39:11.000Z</time>
      </trkpt>
      <trkpt lat="45.68275" lon="2.99795">
        <ele>878</ele>
        <time>2019-06-23T07:39:12.000Z</time>
      </trkpt>
      <trkpt lat="45.6827" lon="2.99797">
        <ele>878</ele>
        <time>2019-06-23T07:39:13.000Z</time>
      </trkpt>
      <trkpt lat="45.68266" lon="2.99799">
        <ele>880</ele>
        <time>2019-06-23T07:39:14.000Z</time>
      </trkpt>
      <trkpt lat="45.68263" lon="2.99802">
        <ele>881</ele>
        <time>2019-06-23T07:39:15.000Z</time>
      </trkpt>
      <trkpt lat="45.68259" lon="2.99804">
        <ele>881</ele>
        <time>2019-06-23T07:39:16.000Z</time>
      </trkpt>
      <trkpt lat="45.68256" lon="2.99806">
        <ele>882</ele>
        <time>2019-06-23T07:39:17.000Z</time>
      </trkpt>
      <trkpt lat="45.68253" lon="2.99808">
        <ele>882</ele>
        <time>2019-06-23T07:39:18.000Z</time>
      </trkpt>
      <trkpt lat="45.68249" lon="2.9981">
        <ele>882</ele>
        <time>2019-06-23T07:39:19.000Z</time>
      </trkpt>
      <trkpt lat="45.68246" lon="2.99811">
        <ele>882</ele>
        <time>2019-06-23T07:39:20.000Z</time>
      </trkpt>
      <trkpt lat="45.68244" lon="2.99813">
        <ele>883</ele>
        <time>2019-06-23T07:39:21.000Z</time>
      </trkpt>
      <trkpt lat="45.6824" lon="2.99814">
        <ele>883</ele>
        <time>2019-06-23T07:39:22.000Z</time>
      </trkpt>
      <trkpt lat="45.68237" lon="2.99816">
        <ele>883</ele>
        <time>2019-06-23T07:39:23.000Z</time>
      </trkpt>
      <trkpt lat="45.68233" lon="2.99818">
        <ele>883</ele>
        <time>2019-06-23T07:39:24.000Z</time>
      </trkpt>
      <trkpt lat="45.68231" lon="2.99819">
        <ele>883</ele>
        <time>2019-06-23T07:39:25.000Z</time>
      </trkpt>
      <trkpt lat="45.68228" lon="2.99822">
        <ele>882</ele>
        <time>2019-06-23T07:39:26.000Z</time>
      </trkpt>
      <trkpt lat="45.68226" lon="2.99825">
        <ele>883</ele>
        <time>2019-06-23T07:39:27.000Z</time>
      </trkpt>
      <trkpt lat="45.68222" lon="2.99829">
        <ele>883</ele>
        <time>2019-06-23T07:39:28.000Z</time>
      </trkpt>
      <trkpt lat="45.68219" lon="2.99832">
        <ele>884</ele>
        <time>2019-06-23T07:39:29.000Z</time>
      </trkpt>
      <trkpt lat="45.68215" lon="2.99833">
        <ele>885</ele>
        <time>2019-06-23T07:39:30.000Z</time>
      </trkpt>
      <trkpt lat="45.68213" lon="2.99834">
        <ele>885</ele>
        <time>2019-06-23T07:39:31.000Z</time>
      </trkpt>
      <trkpt lat="45.68211" lon="2.99836">
        <ele>885</ele>
        <time>2019-06-23T07:39:32.000Z</time>
      </trkpt>
      <trkpt lat="45.6821" lon="2.99838">
        <ele>885</ele>
        <time>2019-06-23T07:39:33.000Z</time>
      </trkpt>
      <trkpt lat="45.68211" lon="2.9984">
        <ele>886</ele>
        <time>2019-06-23T07:39:34.000Z</time>
      </trkpt>
      <trkpt lat="45.68211" lon="2.99841">
        <ele>883</ele>
        <time>2019-06-23T07:39:35.000Z</time>
      </trkpt>
      <trkpt lat="45.68212" lon="2.99842">
        <ele>882</ele>
        <time>2019-06-23T07:39:36.000Z</time>
      </trkpt>
      <trkpt lat="45.68213" lon="2.99843">
        <ele>883</ele>
        <time>2019-06-23T07:39:37.000Z</time>
      </trkpt>
      <trkpt lat="45.68213" lon="2.99845">
        <ele>882</ele>
        <time>2019-06-23T07:39:38.000Z</time>
      </trkpt>
      <trkpt lat="45.68212" lon="2.99846">
        <ele>882</ele>
        <time>2019-06-23T07:39:39.000Z</time>
      </trkpt>
      <trkpt lat="45.68212" lon="2.99848">
        <ele>882</ele>
        <time>2019-06-23T07:39:40.000Z</time>
      </trkpt>
      <trkpt lat="45.68212" lon="2.99849">
        <ele>883</ele>
        <time>2019-06-23T07:39:41.000Z</time>
      </trkpt>
      <trkpt lat="45.68211" lon="2.99849">
        <ele>883</ele>
        <time>2019-06-23T07:39:42.000Z</time>
      </trkpt>
      <trkpt lat="45.68208" lon="2.99855">
        <ele>883</ele>
        <time>2019-06-23T07:39:43.000Z</time>
      </trkpt>
      <trkpt lat="45.68206" lon="2.99857">
        <ele>883</ele>
        <time>2019-06-23T07:39:44.000Z</time>
      </trkpt>
      <trkpt lat="45.68203" lon="2.9986">
        <ele>883</ele>
        <time>2019-06-23T07:39:45.000Z</time>
      </trkpt>
      <trkpt lat="45.68201" lon="2.99863">
        <ele>883</ele>
        <time>2019-06-23T07:39:46.000Z</time>
      </trkpt>
      <trkpt lat="45.68199" lon="2.99866">
        <ele>883</ele>
        <time>2019-06-23T07:39:47.000Z</time>
      </trkpt>
      <trkpt lat="45.68198" lon="2.99867">
        <ele>883</ele>
        <time>2019-06-23T07:39:48.000Z</time>
      </trkpt>
      <trkpt lat="45.68197" lon="2.99867">
        <ele>883</ele>
        <time>2019-06-23T07:39:49.000Z</time>
      </trkpt>
      <trkpt lat="45.68196" lon="2.99868">
        <ele>883</ele>
        <time>2019-06-23T07:39:50.000Z</time>
      </trkpt>
      <trkpt lat="45.68195" lon="2.99869">
        <ele>883</ele>
        <time>2019-06-23T07:39:51.000Z</time>
      </trkpt>
      <trkpt lat="45.68196" lon="2.9987">
        <ele>883</ele>
        <time>2019-06-23T07:39:52.000Z</time>
      </trkpt>
      <trkpt lat="45.68199" lon="2.99871">
        <ele>884</ele>
        <time>2019-06-23T07:39:53.000Z</time>
      </trkpt>
      <trkpt lat="45.682" lon="2.9987">
        <ele>883</ele>
        <time>2019-06-23T07:39:54.000Z</time>
      </trkpt>
      <trkpt lat="45.68201" lon="2.99869">
        <ele>884</ele>
        <time>2019-06-23T07:39:55.000Z</time>
      </trkpt>
      <trkpt lat="45.68203" lon="2.99868">
        <ele>884</ele>
        <time>2019-06-23T07:39:56.000Z</time>
      </trkpt>
      <trkpt lat="45.68207" lon="2.9987">
        <ele>885</ele>
        <time>2019-06-23T07:39:57.000Z</time>
      </trkpt>
      <trkpt lat="45.68208" lon="2.99871">
        <ele>885</ele>
        <time>2019-06-23T07:39:58.000Z</time>
      </trkpt>
      <trkpt lat="45.68209" lon="2.9987">
        <ele>885</ele>
        <time>2019-06-23T07:39:59.000Z</time>
      </trkpt>
      <trkpt lat="45.68209" lon="2.99868">
        <ele>885</ele>
        <time>2019-06-23T07:40:00.000Z</time>
      </trkpt>
      <trkpt lat="45.68206" lon="2.99866">
        <ele>883</ele>
        <time>2019-06-23T07:40:02.000Z</time>
      </trkpt>
      <trkpt lat="45.68205" lon="2.99866">
        <ele>883</ele>
        <time>2019-06-23T07:40:03.000Z</time>
      </trkpt>
      <trkpt lat="45.68204" lon="2.99866">
        <ele>883</ele>
        <time>2019-06-23T07:40:04.000Z</time>
      </trkpt>
      <trkpt lat="45.68203" lon="2.99866">
        <ele>883</ele>
        <time>2019-06-23T07:40:05.000Z</time>
      </trkpt>
      <trkpt lat="45.68202" lon="2.99866">
        <ele>883</ele>
        <time>2019-06-23T07:40:06.000Z</time>
      </trkpt>
      <trkpt lat="45.68201" lon="2.99866">
        <ele>883</ele>
        <time>2019-06-23T07:40:07.000Z</time>
      </trkpt>
      <trkpt lat="45.682" lon="2.99866">
        <ele>883</ele>
        <time>2019-06-23T07:40:08.000Z</time>
      </trkpt>
      <trkpt lat="45.68201" lon="2.99865">
        <ele>883</ele>
        <time>2019-06-23T07:40:09.000Z</time>
      </trkpt>
      <trkpt lat="45.68203" lon="2.99865">
        <ele>882</ele>
        <time>2019-06-23T07:40:10.000Z</time>
      </trkpt>
      <trkpt lat="45.68204" lon="2.99866">
        <ele>882</ele>
        <time>2019-06-23T07:40:11.000Z</time>
      </trkpt>
      <trkpt lat="45.68205" lon="2.99865">
        <ele>882</ele>
        <time>2019-06-23T07:40:12.000Z</time>
      </trkpt>
      <trkpt lat="45.68206" lon="2.99864">
        <ele>882</ele>
        <time>2019-06-23T07:40:13.000Z</time>
      </trkpt>
      <trkpt lat="45.68207" lon="2.99862">
        <ele>882</ele>
        <time>2019-06-23T07:40:14.000Z</time>
      </trkpt>
      <trkpt lat="45.68209" lon="2.99859">
        <ele>882</ele>
        <time>2019-06-23T07:40:15.000Z</time>
      </trkpt>
      <trkpt lat="45.6821" lon="2.99854">
        <ele>882</ele>
        <time>2019-06-23T07:40:16.000Z</time>
      </trkpt>
      <trkpt lat="45.68211" lon="2.9985">
        <ele>881</ele>
        <time>2019-06-23T07:40:17.000Z</time>
      </trkpt>
      <trkpt lat="45.68212" lon="2.99844">
        <ele>881</ele>
        <time>2019-06-23T07:40:18.000Z</time>
      </trkpt>
      <trkpt lat="45.68215" lon="2.9984">
        <ele>881</ele>
        <time>2019-06-23T07:40:19.000Z</time>
      </trkpt>
      <trkpt lat="45.68218" lon="2.99835">
        <ele>881</ele>
        <time>2019-06-23T07:40:20.000Z</time>
      </trkpt>
      <trkpt lat="45.6822" lon="2.99831">
        <ele>882</ele>
        <time>2019-06-23T07:40:21.000Z</time>
      </trkpt>
      <trkpt lat="45.68223" lon="2.99828">
        <ele>882</ele>
        <time>2019-06-23T07:40:22.000Z</time>
      </trkpt>
      <trkpt lat="45.68226" lon="2.99825">
        <ele>883</ele>
        <time>2019-06-23T07:40:23.000Z</time>
      </trkpt>
      <trkpt lat="45.6823" lon="2.99822">
        <ele>883</ele>
        <time>2019-06-23T07:40:24.000Z</time>
      </trkpt>
      <trkpt lat="45.68233" lon="2.99821">
        <ele>884</ele>
        <time>2019-06-23T07:40:25.000Z</time>
      </trkpt>
      <trkpt lat="45.68236" lon="2.9982">
        <ele>885</ele>
        <time>2019-06-23T07:40:26.000Z</time>
      </trkpt>
      <trkpt lat="45.68239" lon="2.99817">
        <ele>885</ele>
        <time>2019-06-23T07:40:27.000Z</time>
      </trkpt>
      <trkpt lat="45.68243" lon="2.99814">
        <ele>885</ele>
        <time>2019-06-23T07:40:28.000Z</time>
      </trkpt>
      <trkpt lat="45.68246" lon="2.99811">
        <ele>886</ele>
        <time>2019-06-23T07:40:29.000Z</time>
      </trkpt>
      <trkpt lat="45.68251" lon="2.99808">
        <ele>886</ele>
        <time>2019-06-23T07:40:30.000Z</time>
      </trkpt>
      <trkpt lat="45.68256" lon="2.99804">
        <ele>887</ele>
        <time>2019-06-23T07:40:31.000Z</time>
      </trkpt>
      <trkpt lat="45.68262" lon="2.998">
        <ele>888</ele>
        <time>2019-06-23T07:40:32.000Z</time>
      </trkpt>
      <trkpt lat="45.68266" lon="2.99796">
        <ele>890</ele>
        <time>2019-06-23T07:40:33.000Z</time>
      </trkpt>
      <trkpt lat="45.6827" lon="2.99789">
        <ele>888</ele>
        <time>2019-06-23T07:40:34.000Z</time>
      </trkpt>
      <trkpt lat="45.68273" lon="2.99786">
        <ele>889</ele>
        <time>2019-06-23T07:40:35.000Z</time>
      </trkpt>
      <trkpt lat="45.68279" lon="2.99786">
        <ele>888</ele>
        <time>2019-06-23T07:40:36.000Z</time>
      </trkpt>
      <trkpt lat="45.68282" lon="2.99783">
        <ele>889</ele>
        <time>2019-06-23T07:40:37.000Z</time>
      </trkpt>
      <trkpt lat="45.68286" lon="2.99778">
        <ele>887</ele>
        <time>2019-06-23T07:40:38.000Z</time>
      </trkpt>
      <trkpt lat="45.68291" lon="2.99773">
        <ele>887</ele>
        <time>2019-06-23T07:40:39.000Z</time>
      </trkpt>
      <trkpt lat="45.68295" lon="2.99769">
        <ele>887</ele>
        <time>2019-06-23T07:40:40.000Z</time>
      </trkpt>
      <trkpt lat="45.68299" lon="2.99765">
        <ele>886</ele>
        <time>2019-06-23T07:40:41.000Z</time>
      </trkpt>
      <trkpt lat="45.68302" lon="2.99762">
        <ele>886</ele>
        <time>2019-06-23T07:40:42.000Z</time>
      </trkpt>
      <trkpt lat="45.68306" lon="2.9976">
        <ele>886</ele>
        <time>2019-06-23T07:40:43.000Z</time>
      </trkpt>
      <trkpt lat="45.6831" lon="2.99757">
        <ele>886</ele>
        <time>2019-06-23T07:40:44.000Z</time>
      </trkpt>
      <trkpt lat="45.68313" lon="2.99755">
        <ele>886</ele>
        <time>2019-06-23T07:40:45.000Z</time>
      </trkpt>
      <trkpt lat="45.68317" lon="2.99753">
        <ele>886</ele>
        <time>2019-06-23T07:40:46.000Z</time>
      </trkpt>
      <trkpt lat="45.6832" lon="2.99751">
        <ele>886</ele>
        <time>2019-06-23T07:40:47.000Z</time>
      </trkpt>
      <trkpt lat="45.68323" lon="2.9975">
        <ele>886</ele>
        <time>2019-06-23T07:40:48.000Z</time>
      </trkpt>
      <trkpt lat="45.68327" lon="2.99748">
        <ele>886</ele>
        <time>2019-06-23T07:40:49.000Z</time>
      </trkpt>
      <trkpt lat="45.68331" lon="2.99745">
        <ele>885</ele>
        <time>2019-06-23T07:40:50.000Z</time>
      </trkpt>
      <trkpt lat="45.68335" lon="2.99743">
        <ele>884</ele>
        <time>2019-06-23T07:40:51.000Z</time>
      </trkpt>
      <trkpt lat="45.68339" lon="2.99742">
        <ele>883</ele>
        <time>2019-06-23T07:40:52.000Z</time>
      </trkpt>
      <trkpt lat="45.68343" lon="2.9974">
        <ele>883</ele>
        <time>2019-06-23T07:40:53.000Z</time>
      </trkpt>
      <trkpt lat="45.68347" lon="2.99738">
        <ele>883</ele>
        <time>2019-06-23T07:40:54.000Z</time>
      </trkpt>
      <trkpt lat="45.68351" lon="2.99738">
        <ele>884</ele>
        <time>2019-06-23T07:40:55.000Z</time>
      </trkpt>
      <trkpt lat="45.68355" lon="2.99737">
        <ele>885</ele>
        <time>2019-06-23T07:40:56.000Z</time>
      </trkpt>
      <trkpt lat="45.68359" lon="2.99735">
        <ele>887</ele>
        <time>2019-06-23T07:40:57.000Z</time>
      </trkpt>
      <trkpt lat="45.68364" lon="2.99731">
        <ele>888</ele>
        <time>2019-06-23T07:40:58.000Z</time>
      </trkpt>
      <trkpt lat="45.68368" lon="2.99725">
        <ele>885</ele>
        <time>2019-06-23T07:40:59.000Z</time>
      </trkpt>
      <trkpt lat="45.68373" lon="2.99721">
        <ele>883</ele>
        <time>2019-06-23T07:41:00.000Z</time>
      </trkpt>
      <trkpt lat="45.68378" lon="2.99717">
        <ele>882</ele>
        <time>2019-06-23T07:41:01.000Z</time>
      </trkpt>
      <trkpt lat="45.68383" lon="2.99712">
        <ele>883</ele>
        <time>2019-06-23T07:41:02.000Z</time>
      </trkpt>
      <trkpt lat="45.68387" lon="2.99708">
        <ele>884</ele>
        <time>2019-06-23T07:41:03.000Z</time>
      </trkpt>
      <trkpt lat="45.68391" lon="2.99701">
        <ele>888</ele>
        <time>2019-06-23T07:41:04.000Z</time>
      </trkpt>
      <trkpt lat="45.68394" lon="2.99696">
        <ele>888</ele>
        <time>2019-06-23T07:41:05.000Z</time>
      </trkpt>
      <trkpt lat="45.68398" lon="2.9969">
        <ele>888</ele>
        <time>2019-06-23T07:41:06.000Z</time>
      </trkpt>
      <trkpt lat="45.68401" lon="2.99685">
        <ele>887</ele>
        <time>2019-06-23T07:41:07.000Z</time>
      </trkpt>
      <trkpt lat="45.68404" lon="2.9968">
        <ele>888</ele>
        <time>2019-06-23T07:41:08.000Z</time>
      </trkpt>
      <trkpt lat="45.68405" lon="2.99675">
        <ele>889</ele>
        <time>2019-06-23T07:41:09.000Z</time>
      </trkpt>
      <trkpt lat="45.68406" lon="2.99671">
        <ele>889</ele>
        <time>2019-06-23T07:41:10.000Z</time>
      </trkpt>
      <trkpt lat="45.68406" lon="2.99665">
        <ele>889</ele>
        <time>2019-06-23T07:41:11.000Z</time>
      </trkpt>
      <trkpt lat="45.68407" lon="2.99661">
        <ele>890</ele>
        <time>2019-06-23T07:41:12.000Z</time>
      </trkpt>
      <trkpt lat="45.68407" lon="2.99657">
        <ele>891</ele>
        <time>2019-06-23T07:41:13.000Z</time>
      </trkpt>
      <trkpt lat="45.68408" lon="2.99652">
        <ele>891</ele>
        <time>2019-06-23T07:41:14.000Z</time>
      </trkpt>
      <trkpt lat="45.68409" lon="2.99648">
        <ele>891</ele>
        <time>2019-06-23T07:41:15.000Z</time>
      </trkpt>
      <trkpt lat="45.68408" lon="2.99643">
        <ele>892</ele>
        <time>2019-06-23T07:41:16.000Z</time>
      </trkpt>
      <trkpt lat="45.68408" lon="2.99638">
        <ele>891</ele>
        <time>2019-06-23T07:41:17.000Z</time>
      </trkpt>
      <trkpt lat="45.68409" lon="2.99634">
        <ele>892</ele>
        <time>2019-06-23T07:41:18.000Z</time>
      </trkpt>
      <trkpt lat="45.6841" lon="2.9963">
        <ele>891</ele>
        <time>2019-06-23T07:41:19.000Z</time>
      </trkpt>
      <trkpt lat="45.6841" lon="2.99627">
        <ele>890</ele>
        <time>2019-06-23T07:41:20.000Z</time>
      </trkpt>
      <trkpt lat="45.68408" lon="2.99623">
        <ele>890</ele>
        <time>2019-06-23T07:41:21.000Z</time>
      </trkpt>
      <trkpt lat="45.68407" lon="2.99619">
        <ele>892</ele>
        <time>2019-06-23T07:41:22.000Z</time>
      </trkpt>
      <trkpt lat="45.68404" lon="2.99616">
        <ele>892</ele>
        <time>2019-06-23T07:41:23.000Z</time>
      </trkpt>
      <trkpt lat="45.68403" lon="2.99613">
        <ele>891</ele>
        <time>2019-06-23T07:41:24.000Z</time>
      </trkpt>
      <trkpt lat="45.68402" lon="2.99608">
        <ele>891</ele>
        <time>2019-06-23T07:41:25.000Z</time>
      </trkpt>
      <trkpt lat="45.684" lon="2.99603">
        <ele>891</ele>
        <time>2019-06-23T07:41:26.000Z</time>
      </trkpt>
      <trkpt lat="45.68398" lon="2.996">
        <ele>891</ele>
        <time>2019-06-23T07:41:27.000Z</time>
      </trkpt>
      <trkpt lat="45.68398" lon="2.99596">
        <ele>891</ele>
        <time>2019-06-23T07:41:28.000Z</time>
      </trkpt>
      <trkpt lat="45.68397" lon="2.99592">
        <ele>891</ele>
        <time>2019-06-23T07:41:29.000Z</time>
      </trkpt>
      <trkpt lat="45.68396" lon="2.99588">
        <ele>892</ele>
        <time>2019-06-23T07:41:30.000Z</time>
      </trkpt>
      <trkpt lat="45.68397" lon="2.99583">
        <ele>894</ele>
        <time>2019-06-23T07:41:31.000Z</time>
      </trkpt>
      <trkpt lat="45.68397" lon="2.99578">
        <ele>894</ele>
        <time>2019-06-23T07:41:32.000Z</time>
      </trkpt>
      <trkpt lat="45.68397" lon="2.99572">
        <ele>893</ele>
        <time>2019-06-23T07:41:33.000Z</time>
      </trkpt>
      <trkpt lat="45.68398" lon="2.99568">
        <ele>892</ele>
        <time>2019-06-23T07:41:34.000Z</time>
      </trkpt>
      <trkpt lat="45.68398" lon="2.99564">
        <ele>889</ele>
        <time>2019-06-23T07:41:35.000Z</time>
      </trkpt>
      <trkpt lat="45.68398" lon="2.9956">
        <ele>889</ele>
        <time>2019-06-23T07:41:36.000Z</time>
      </trkpt>
      <trkpt lat="45.68398" lon="2.99555">
        <ele>889</ele>
        <time>2019-06-23T07:41:37.000Z</time>
      </trkpt>
      <trkpt lat="45.68399" lon="2.99551">
        <ele>889</ele>
        <time>2019-06-23T07:41:38.000Z</time>
      </trkpt>
      <trkpt lat="45.68398" lon="2.99547">
        <ele>889</ele>
        <time>2019-06-23T07:41:39.000Z</time>
      </trkpt>
      <trkpt lat="45.68397" lon="2.99542">
        <ele>890</ele>
        <time>2019-06-23T07:41:40.000Z</time>
      </trkpt>
      <trkpt lat="45.68397" lon="2.99536">
        <ele>889</ele>
        <time>2019-06-23T07:41:41.000Z</time>
      </trkpt>
      <trkpt lat="45.68397" lon="2.99529">
        <ele>887</ele>
        <time>2019-06-23T07:41:42.000Z</time>
      </trkpt>
      <trkpt lat="45.68397" lon="2.99523">
        <ele>885</ele>
        <time>2019-06-23T07:41:43.000Z</time>
      </trkpt>
      <trkpt lat="45.68396" lon="2.99519">
        <ele>885</ele>
        <time>2019-06-23T07:41:44.000Z</time>
      </trkpt>
      <trkpt lat="45.68394" lon="2.99514">
        <ele>884</ele>
        <time>2019-06-23T07:41:45.000Z</time>
      </trkpt>
      <trkpt lat="45.68392" lon="2.99509">
        <ele>886</ele>
        <time>2019-06-23T07:41:46.000Z</time>
      </trkpt>
      <trkpt lat="45.68389" lon="2.99504">
        <ele>884</ele>
        <time>2019-06-23T07:41:47.000Z</time>
      </trkpt>
      <trkpt lat="45.68387" lon="2.995">
        <ele>885</ele>
        <time>2019-06-23T07:41:48.000Z</time>
      </trkpt>
      <trkpt lat="45.68385" lon="2.99496">
        <ele>884</ele>
        <time>2019-06-23T07:41:49.000Z</time>
      </trkpt>
      <trkpt lat="45.68382" lon="2.99489">
        <ele>883</ele>
        <time>2019-06-23T07:41:50.000Z</time>
      </trkpt>
      <trkpt lat="45.6838" lon="2.99485">
        <ele>883</ele>
        <time>2019-06-23T07:41:51.000Z</time>
      </trkpt>
      <trkpt lat="45.68378" lon="2.9948">
        <ele>884</ele>
        <time>2019-06-23T07:41:52.000Z</time>
      </trkpt>
      <trkpt lat="45.68376" lon="2.99475">
        <ele>885</ele>
        <time>2019-06-23T07:41:53.000Z</time>
      </trkpt>
      <trkpt lat="45.68376" lon="2.9947">
        <ele>887</ele>
        <time>2019-06-23T07:41:54.000Z</time>
      </trkpt>
      <trkpt lat="45.68376" lon="2.99466">
        <ele>889</ele>
        <time>2019-06-23T07:41:55.000Z</time>
      </trkpt>
      <trkpt lat="45.68376" lon="2.99462">
        <ele>890</ele>
        <time>2019-06-23T07:41:56.000Z</time>
      </trkpt>
      <trkpt lat="45.68377" lon="2.99456">
        <ele>889</ele>
        <time>2019-06-23T07:41:57.000Z</time>
      </trkpt>
      <trkpt lat="45.68377" lon="2.99452">
        <ele>889</ele>
        <time>2019-06-23T07:41:58.000Z</time>
      </trkpt>
      <trkpt lat="45.68378" lon="2.99445">
        <ele>888</ele>
        <time>2019-06-23T07:41:59.000Z</time>
      </trkpt>
      <trkpt lat="45.68376" lon="2.99439">
        <ele>886</ele>
        <time>2019-06-23T07:42:00.000Z</time>
      </trkpt>
      <trkpt lat="45.68374" lon="2.99433">
        <ele>884</ele>
        <time>2019-06-23T07:42:01.000Z</time>
      </trkpt>
      <trkpt lat="45.68373" lon="2.99428">
        <ele>884</ele>
        <time>2019-06-23T07:42:02.000Z</time>
      </trkpt>
      <trkpt lat="45.68372" lon="2.99423">
        <ele>883</ele>
        <time>2019-06-23T07:42:03.000Z</time>
      </trkpt>
      <trkpt lat="45.68371" lon="2.99417">
        <ele>884</ele>
        <time>2019-06-23T07:42:04.000Z</time>
      </trkpt>
      <trkpt lat="45.68369" lon="2.99412">
        <ele>885</ele>
        <time>2019-06-23T07:42:05.000Z</time>
      </trkpt>
      <trkpt lat="45.68368" lon="2.99406">
        <ele>886</ele>
        <time>2019-06-23T07:42:06.000Z</time>
      </trkpt>
      <trkpt lat="45.68367" lon="2.994">
        <ele>887</ele>
        <time>2019-06-23T07:42:07.000Z</time>
      </trkpt>
      <trkpt lat="45.68367" lon="2.99395">
        <ele>887</ele>
        <time>2019-06-23T07:42:08.000Z</time>
      </trkpt>
      <trkpt lat="45.68366" lon="2.99391">
        <ele>887</ele>
        <time>2019-06-23T07:42:09.000Z</time>
      </trkpt>
      <trkpt lat="45.68365" lon="2.99388">
        <ele>887</ele>
        <time>2019-06-23T07:42:10.000Z</time>
      </trkpt>
      <trkpt lat="45.68365" lon="2.99384">
        <ele>887</ele>
        <time>2019-06-23T07:42:11.000Z</time>
      </trkpt>
      <trkpt lat="45.68366" lon="2.99379">
        <ele>888</ele>
        <time>2019-06-23T07:42:12.000Z</time>
      </trkpt>
      <trkpt lat="45.68367" lon="2.99375">
        <ele>889</ele>
        <time>2019-06-23T07:42:13.000Z</time>
      </trkpt>
      <trkpt lat="45.68367" lon="2.9937">
        <ele>889</ele>
        <time>2019-06-23T07:42:14.000Z</time>
      </trkpt>
      <trkpt lat="45.68367" lon="2.99367">
        <ele>890</ele>
        <time>2019-06-23T07:42:15.000Z</time>
      </trkpt>
      <trkpt lat="45.68368" lon="2.99362">
        <ele>891</ele>
        <time>2019-06-23T07:42:16.000Z</time>
      </trkpt>
      <trkpt lat="45.68369" lon="2.99357">
        <ele>891</ele>
        <time>2019-06-23T07:42:17.000Z</time>
      </trkpt>
      <trkpt lat="45.68369" lon="2.99354">
        <ele>893</ele>
        <time>2019-06-23T07:42:18.000Z</time>
      </trkpt>
      <trkpt lat="45.68369" lon="2.9935">
        <ele>893</ele>
        <time>2019-06-23T07:42:19.000Z</time>
      </trkpt>
      <trkpt lat="45.68371" lon="2.99346">
        <ele>892</ele>
        <time>2019-06-23T07:42:20.000Z</time>
      </trkpt>
      <trkpt lat="45.68373" lon="2.99341">
        <ele>890</ele>
        <time>2019-06-23T07:42:21.000Z</time>
      </trkpt>
      <trkpt lat="45.68374" lon="2.99337">
        <ele>889</ele>
        <time>2019-06-23T07:42:22.000Z</time>
      </trkpt>
      <trkpt lat="45.68376" lon="2.9933">
        <ele>888</ele>
        <time>2019-06-23T07:42:23.000Z</time>
      </trkpt>
      <trkpt lat="45.68378" lon="2.99325">
        <ele>888</ele>
        <time>2019-06-23T07:42:24.000Z</time>
      </trkpt>
      <trkpt lat="45.68383" lon="2.99321">
        <ele>890</ele>
        <time>2019-06-23T07:42:25.000Z</time>
      </trkpt>
      <trkpt lat="45.68387" lon="2.99316">
        <ele>890</ele>
        <time>2019-06-23T07:42:26.000Z</time>
      </trkpt>
      <trkpt lat="45.6839" lon="2.99311">
        <ele>890</ele>
        <time>2019-06-23T07:42:27.000Z</time>
      </trkpt>
      <trkpt lat="45.68392" lon="2.99305">
        <ele>891</ele>
        <time>2019-06-23T07:42:28.000Z</time>
      </trkpt>
      <trkpt lat="45.68394" lon="2.99302">
        <ele>892</ele>
        <time>2019-06-23T07:42:29.000Z</time>
      </trkpt>
      <trkpt lat="45.68397" lon="2.99299">
        <ele>893</ele>
        <time>2019-06-23T07:42:30.000Z</time>
      </trkpt>
      <trkpt lat="45.68398" lon="2.99298">
        <ele>895</ele>
        <time>2019-06-23T07:42:31.000Z</time>
      </trkpt>
      <trkpt lat="45.68399" lon="2.99296">
        <ele>896</ele>
        <time>2019-06-23T07:42:32.000Z</time>
      </trkpt>
      <trkpt lat="45.68401" lon="2.99294">
        <ele>896</ele>
        <time>2019-06-23T07:42:33.000Z</time>
      </trkpt>
      <trkpt lat="45.68403" lon="2.99291">
        <ele>894</ele>
        <time>2019-06-23T07:42:34.000Z</time>
      </trkpt>
      <trkpt lat="45.68404" lon="2.99289">
        <ele>894</ele>
        <time>2019-06-23T07:42:35.000Z</time>
      </trkpt>
      <trkpt lat="45.68404" lon="2.99288">
        <ele>893</ele>
        <time>2019-06-23T07:42:36.000Z</time>
      </trkpt>
      <trkpt lat="45.68405" lon="2.99287">
        <ele>894</ele>
        <time>2019-06-23T07:42:37.000Z</time>
      </trkpt>
      <trkpt lat="45.68403" lon="2.99286">
        <ele>894</ele>
        <time>2019-06-23T07:42:38.000Z</time>
      </trkpt>
      <trkpt lat="45.68402" lon="2.99288">
        <ele>894</ele>
        <time>2019-06-23T07:42:39.000Z</time>
      </trkpt>
      <trkpt lat="45.68401" lon="2.99289">
        <ele>893</ele>
        <time>2019-06-23T07:42:40.000Z</time>
      </trkpt>
      <trkpt lat="45.68399" lon="2.9929">
        <ele>893</ele>
        <time>2019-06-23T07:42:41.000Z</time>
      </trkpt>
      <trkpt lat="45.68396" lon="2.99291">
        <ele>893</ele>
        <time>2019-06-23T07:42:42.000Z</time>
      </trkpt>
      <trkpt lat="45.68394" lon="2.99292">
        <ele>893</ele>
        <time>2019-06-23T07:42:43.000Z</time>
      </trkpt>
      <trkpt lat="45.68393" lon="2.99293">
        <ele>894</ele>
        <time>2019-06-23T07:42:44.000Z</time>
      </trkpt>
      <trkpt lat="45.68391" lon="2.99295">
        <ele>893</ele>
        <time>2019-06-23T07:42:45.000Z</time>
      </trkpt>
      <trkpt lat="45.68389" lon="2.99296">
        <ele>893</ele>
        <time>2019-06-23T07:42:46.000Z</time>
      </trkpt>
      <trkpt lat="45.68388" lon="2.99298">
        <ele>893</ele>
        <time>2019-06-23T07:42:47.000Z</time>
      </trkpt>
      <trkpt lat="45.68387" lon="2.99299">
        <ele>893</ele>
        <time>2019-06-23T07:42:48.000Z</time>
      </trkpt>
      <trkpt lat="45.68386" lon="2.99301">
        <ele>893</ele>
        <time>2019-06-23T07:42:49.000Z</time>
      </trkpt>
      <trkpt lat="45.68386" lon="2.99303">
        <ele>893</ele>
        <time>2019-06-23T07:42:50.000Z</time>
      </trkpt>
      <trkpt lat="45.68384" lon="2.99306">
        <ele>894</ele>
        <time>2019-06-23T07:42:51.000Z</time>
      </trkpt>
      <trkpt lat="45.68383" lon="2.9931">
        <ele>895</ele>
        <time>2019-06-23T07:42:52.000Z</time>
      </trkpt>
      <trkpt lat="45.68382" lon="2.99312">
        <ele>896</ele>
        <time>2019-06-23T07:42:53.000Z</time>
      </trkpt>
      <trkpt lat="45.68381" lon="2.99315">
        <ele>895</ele>
        <time>2019-06-23T07:42:54.000Z</time>
      </trkpt>
      <trkpt lat="45.6838" lon="2.99318">
        <ele>895</ele>
        <time>2019-06-23T07:42:55.000Z</time>
      </trkpt>
      <trkpt lat="45.68378" lon="2.99321">
        <ele>895</ele>
        <time>2019-06-23T07:42:56.000Z</time>
      </trkpt>
      <trkpt lat="45.68377" lon="2.99323">
        <ele>895</ele>
        <time>2019-06-23T07:42:57.000Z</time>
      </trkpt>
      <trkpt lat="45.68376" lon="2.99326">
        <ele>896</ele>
        <time>2019-06-23T07:42:58.000Z</time>
      </trkpt>
      <trkpt lat="45.68375" lon="2.99328">
        <ele>896</ele>
        <time>2019-06-23T07:42:59.000Z</time>
      </trkpt>
      <trkpt lat="45.68374" lon="2.99331">
        <ele>897</ele>
        <time>2019-06-23T07:43:00.000Z</time>
      </trkpt>
      <trkpt lat="45.68374" lon="2.99333">
        <ele>897</ele>
        <time>2019-06-23T07:43:01.000Z</time>
      </trkpt>
      <trkpt lat="45.68373" lon="2.99337">
        <ele>898</ele>
        <time>2019-06-23T07:43:02.000Z</time>
      </trkpt>
      <trkpt lat="45.68372" lon="2.99339">
        <ele>897</ele>
        <time>2019-06-23T07:43:03.000Z</time>
      </trkpt>
      <trkpt lat="45.68372" lon="2.99344">
        <ele>898</ele>
        <time>2019-06-23T07:43:04.000Z</time>
      </trkpt>
      <trkpt lat="45.68371" lon="2.99353">
        <ele>900</ele>
        <time>2019-06-23T07:43:05.000Z</time>
      </trkpt>
      <trkpt lat="45.6837" lon="2.99359">
        <ele>900</ele>
        <time>2019-06-23T07:43:06.000Z</time>
      </trkpt>
      <trkpt lat="45.68369" lon="2.99365">
        <ele>900</ele>
        <time>2019-06-23T07:43:07.000Z</time>
      </trkpt>
      <trkpt lat="45.68371" lon="2.99371">
        <ele>901</ele>
        <time>2019-06-23T07:43:08.000Z</time>
      </trkpt>
      <trkpt lat="45.68371" lon="2.99377">
        <ele>902</ele>
        <time>2019-06-23T07:43:09.000Z</time>
      </trkpt>
      <trkpt lat="45.68373" lon="2.9938">
        <ele>901</ele>
        <time>2019-06-23T07:43:10.000Z</time>
      </trkpt>
      <trkpt lat="45.68374" lon="2.99385">
        <ele>901</ele>
        <time>2019-06-23T07:43:11.000Z</time>
      </trkpt>
      <trkpt lat="45.68375" lon="2.99388">
        <ele>902</ele>
        <time>2019-06-23T07:43:12.000Z</time>
      </trkpt>
      <trkpt lat="45.68375" lon="2.99391">
        <ele>901</ele>
        <time>2019-06-23T07:43:13.000Z</time>
      </trkpt>
      <trkpt lat="45.68374" lon="2.99393">
        <ele>899</ele>
        <time>2019-06-23T07:43:14.000Z</time>
      </trkpt>
      <trkpt lat="45.68374" lon="2.99394">
        <ele>899</ele>
        <time>2019-06-23T07:43:15.000Z</time>
      </trkpt>
      <trkpt lat="45.68374" lon="2.99393">
        <ele>899</ele>
        <time>2019-06-23T07:43:16.000Z</time>
      </trkpt>
      <trkpt lat="45.68374" lon="2.99395">
        <ele>898</ele>
        <time>2019-06-23T07:43:17.000Z</time>
      </trkpt>
      <trkpt lat="45.6837" lon="2.99402">
        <ele>886</ele>
        <time>2019-06-23T07:43:18.000Z</time>
      </trkpt>
      <trkpt lat="45.68369" lon="2.99401">
        <ele>886</ele>
        <time>2019-06-23T07:43:19.000Z</time>
      </trkpt>
      <trkpt lat="45.68368" lon="2.99399">
        <ele>886</ele>
        <time>2019-06-23T07:43:20.000Z</time>
      </trkpt>
      <trkpt lat="45.68367" lon="2.99397">
        <ele>886</ele>
        <time>2019-06-23T07:43:21.000Z</time>
      </trkpt>
      <trkpt lat="45.68367" lon="2.99394">
        <ele>887</ele>
        <time>2019-06-23T07:43:22.000Z</time>
      </trkpt>
      <trkpt lat="45.68366" lon="2.9939">
        <ele>888</ele>
        <time>2019-06-23T07:43:23.000Z</time>
      </trkpt>
      <trkpt lat="45.68365" lon="2.99386">
        <ele>889</ele>
        <time>2019-06-23T07:43:24.000Z</time>
      </trkpt>
      <trkpt lat="45.68365" lon="2.99383">
        <ele>890</ele>
        <time>2019-06-23T07:43:25.000Z</time>
      </trkpt>
      <trkpt lat="45.68366" lon="2.99379">
        <ele>891</ele>
        <time>2019-06-23T07:43:26.000Z</time>
      </trkpt>
      <trkpt lat="45.68366" lon="2.99376">
        <ele>892</ele>
        <time>2019-06-23T07:43:27.000Z</time>
      </trkpt>
      <trkpt lat="45.68366" lon="2.99372">
        <ele>892</ele>
        <time>2019-06-23T07:43:28.000Z</time>
      </trkpt>
      <trkpt lat="45.68366" lon="2.99369">
        <ele>892</ele>
        <time>2019-06-23T07:43:29.000Z</time>
      </trkpt>
      <trkpt lat="45.68367" lon="2.99367">
        <ele>892</ele>
        <time>2019-06-23T07:43:30.000Z</time>
      </trkpt>
      <trkpt lat="45.68367" lon="2.99364">
        <ele>892</ele>
        <time>2019-06-23T07:43:31.000Z</time>
      </trkpt>
      <trkpt lat="45.68368" lon="2.99362">
        <ele>893</ele>
        <time>2019-06-23T07:43:32.000Z</time>
      </trkpt>
      <trkpt lat="45.68368" lon="2.99359">
        <ele>894</ele>
        <time>2019-06-23T07:43:33.000Z</time>
      </trkpt>
      <trkpt lat="45.68369" lon="2.99354">
        <ele>896</ele>
        <time>2019-06-23T07:43:34.000Z</time>
      </trkpt>
      <trkpt lat="45.6837" lon="2.9935">
        <ele>897</ele>
        <time>2019-06-23T07:43:35.000Z</time>
      </trkpt>
      <trkpt lat="45.6837" lon="2.99346">
        <ele>896</ele>
        <time>2019-06-23T07:43:36.000Z</time>
      </trkpt>
      <trkpt lat="45.68371" lon="2.99343">
        <ele>896</ele>
        <time>2019-06-23T07:43:37.000Z</time>
      </trkpt>
      <trkpt lat="45.68373" lon="2.9934">
        <ele>895</ele>
        <time>2019-06-23T07:43:38.000Z</time>
      </trkpt>
      <trkpt lat="45.68375" lon="2.99335">
        <ele>894</ele>
        <time>2019-06-23T07:43:39.000Z</time>
      </trkpt>
      <trkpt lat="45.68377" lon="2.9933">
        <ele>893</ele>
        <time>2019-06-23T07:43:40.000Z</time>
      </trkpt>
      <trkpt lat="45.68379" lon="2.99325">
        <ele>892</ele>
        <time>2019-06-23T07:43:41.000Z</time>
      </trkpt>
      <trkpt lat="45.68381" lon="2.9932">
        <ele>892</ele>
        <time>2019-06-23T07:43:42.000Z</time>
      </trkpt>
      <trkpt lat="45.68385" lon="2.99314">
        <ele>889</ele>
        <time>2019-06-23T07:43:43.000Z</time>
      </trkpt>
      <trkpt lat="45.68387" lon="2.9931">
        <ele>889</ele>
        <time>2019-06-23T07:43:44.000Z</time>
      </trkpt>
      <trkpt lat="45.68391" lon="2.99305">
        <ele>890</ele>
        <time>2019-06-23T07:43:45.000Z</time>
      </trkpt>
      <trkpt lat="45.68394" lon="2.993">
        <ele>892</ele>
        <time>2019-06-23T07:43:46.000Z</time>
      </trkpt>
      <trkpt lat="45.68397" lon="2.99297">
        <ele>893</ele>
        <time>2019-06-23T07:43:47.000Z</time>
      </trkpt>
      <trkpt lat="45.684" lon="2.99294">
        <ele>894</ele>
        <time>2019-06-23T07:43:48.000Z</time>
      </trkpt>
      <trkpt lat="45.68403" lon="2.99291">
        <ele>895</ele>
        <time>2019-06-23T07:43:49.000Z</time>
      </trkpt>
      <trkpt lat="45.68406" lon="2.99288">
        <ele>895</ele>
        <time>2019-06-23T07:43:50.000Z</time>
      </trkpt>
      <trkpt lat="45.68409" lon="2.99285">
        <ele>894</ele>
        <time>2019-06-23T07:43:51.000Z</time>
      </trkpt>
      <trkpt lat="45.68411" lon="2.9928">
        <ele>895</ele>
        <time>2019-06-23T07:43:52.000Z</time>
      </trkpt>
      <trkpt lat="45.68414" lon="2.99276">
        <ele>895</ele>
        <time>2019-06-23T07:43:53.000Z</time>
      </trkpt>
      <trkpt lat="45.68417" lon="2.99272">
        <ele>894</ele>
        <time>2019-06-23T07:43:54.000Z</time>
      </trkpt>
      <trkpt lat="45.68419" lon="2.99268">
        <ele>893</ele>
        <time>2019-06-23T07:43:55.000Z</time>
      </trkpt>
      <trkpt lat="45.68421" lon="2.99263">
        <ele>893</ele>
        <time>2019-06-23T07:43:56.000Z</time>
      </trkpt>
      <trkpt lat="45.68423" lon="2.99259">
        <ele>893</ele>
        <time>2019-06-23T07:43:57.000Z</time>
      </trkpt>
      <trkpt lat="45.68425" lon="2.99256">
        <ele>893</ele>
        <time>2019-06-23T07:43:58.000Z</time>
      </trkpt>
      <trkpt lat="45.68426" lon="2.99254">
        <ele>893</ele>
        <time>2019-06-23T07:43:59.000Z</time>
      </trkpt>
      <trkpt lat="45.68428" lon="2.99251">
        <ele>894</ele>
        <time>2019-06-23T07:44:00.000Z</time>
      </trkpt>
      <trkpt lat="45.68429" lon="2.99248">
        <ele>894</ele>
        <time>2019-06-23T07:44:01.000Z</time>
      </trkpt>
      <trkpt lat="45.6843" lon="2.99246">
        <ele>895</ele>
        <time>2019-06-23T07:44:02.000Z</time>
      </trkpt>
      <trkpt lat="45.68432" lon="2.99244">
        <ele>895</ele>
        <time>2019-06-23T07:44:03.000Z</time>
      </trkpt>
      <trkpt lat="45.68433" lon="2.99241">
        <ele>896</ele>
        <time>2019-06-23T07:44:04.000Z</time>
      </trkpt>
      <trkpt lat="45.68434" lon="2.99239">
        <ele>896</ele>
        <time>2019-06-23T07:44:05.000Z</time>
      </trkpt>
      <trkpt lat="45.68435" lon="2.99236">
        <ele>897</ele>
        <time>2019-06-23T07:44:06.000Z</time>
      </trkpt>
      <trkpt lat="45.68437" lon="2.99233">
        <ele>896</ele>
        <time>2019-06-23T07:44:07.000Z</time>
      </trkpt>
      <trkpt lat="45.68438" lon="2.99229">
        <ele>896</ele>
        <time>2019-06-23T07:44:08.000Z</time>
      </trkpt>
      <trkpt lat="45.68439" lon="2.99225">
        <ele>897</ele>
        <time>2019-06-23T07:44:09.000Z</time>
      </trkpt>
      <trkpt lat="45.68441" lon="2.99222">
        <ele>899</ele>
        <time>2019-06-23T07:44:10.000Z</time>
      </trkpt>
      <trkpt lat="45.68442" lon="2.9922">
        <ele>900</ele>
        <time>2019-06-23T07:44:11.000Z</time>
      </trkpt>
      <trkpt lat="45.68443" lon="2.99217">
        <ele>900</ele>
        <time>2019-06-23T07:44:12.000Z</time>
      </trkpt>
      <trkpt lat="45.68445" lon="2.99214">
        <ele>901</ele>
        <time>2019-06-23T07:44:13.000Z</time>
      </trkpt>
      <trkpt lat="45.68446" lon="2.99211">
        <ele>901</ele>
        <time>2019-06-23T07:44:14.000Z</time>
      </trkpt>
      <trkpt lat="45.68447" lon="2.99208">
        <ele>901</ele>
        <time>2019-06-23T07:44:15.000Z</time>
      </trkpt>
      <trkpt lat="45.68449" lon="2.99205">
        <ele>901</ele>
        <time>2019-06-23T07:44:16.000Z</time>
      </trkpt>
      <trkpt lat="45.6845" lon="2.99202">
        <ele>901</ele>
        <time>2019-06-23T07:44:17.000Z</time>
      </trkpt>
      <trkpt lat="45.68451" lon="2.99199">
        <ele>901</ele>
        <time>2019-06-23T07:44:18.000Z</time>
      </trkpt>
      <trkpt lat="45.68451" lon="2.99197">
        <ele>902</ele>
        <time>2019-06-23T07:44:19.000Z</time>
      </trkpt>
      <trkpt lat="45.68452" lon="2.99195">
        <ele>904</ele>
        <time>2019-06-23T07:44:20.000Z</time>
      </trkpt>
      <trkpt lat="45.68453" lon="2.99194">
        <ele>905</ele>
        <time>2019-06-23T07:44:21.000Z</time>
      </trkpt>
      <trkpt lat="45.68454" lon="2.99192">
        <ele>905</ele>
        <time>2019-06-23T07:44:22.000Z</time>
      </trkpt>
      <trkpt lat="45.68456" lon="2.9919">
        <ele>906</ele>
        <time>2019-06-23T07:44:23.000Z</time>
      </trkpt>
      <trkpt lat="45.68457" lon="2.99189">
        <ele>907</ele>
        <time>2019-06-23T07:44:24.000Z</time>
      </trkpt>
      <trkpt lat="45.68459" lon="2.99187">
        <ele>907</ele>
        <time>2019-06-23T07:44:25.000Z</time>
      </trkpt>
      <trkpt lat="45.68463" lon="2.99186">
        <ele>907</ele>
        <time>2019-06-23T07:44:26.000Z</time>
      </trkpt>
      <trkpt lat="45.68465" lon="2.99185">
        <ele>907</ele>
        <time>2019-06-23T07:44:27.000Z</time>
      </trkpt>
      <trkpt lat="45.68468" lon="2.99184">
        <ele>907</ele>
        <time>2019-06-23T07:44:28.000Z</time>
      </trkpt>
      <trkpt lat="45.6847" lon="2.99183">
        <ele>908</ele>
        <time>2019-06-23T07:44:29.000Z</time>
      </trkpt>
      <trkpt lat="45.68472" lon="2.99182">
        <ele>909</ele>
        <time>2019-06-23T07:44:30.000Z</time>
      </trkpt>
      <trkpt lat="45.68474" lon="2.9918">
        <ele>909</ele>
        <time>2019-06-23T07:44:31.000Z</time>
      </trkpt>
      <trkpt lat="45.68476" lon="2.99179">
        <ele>909</ele>
        <time>2019-06-23T07:44:32.000Z</time>
      </trkpt>
      <trkpt lat="45.68478" lon="2.99177">
        <ele>910</ele>
        <time>2019-06-23T07:44:33.000Z</time>
      </trkpt>
      <trkpt lat="45.6848" lon="2.99175">
        <ele>912</ele>
        <time>2019-06-23T07:44:34.000Z</time>
      </trkpt>
      <trkpt lat="45.68482" lon="2.99174">
        <ele>913</ele>
        <time>2019-06-23T07:44:35.000Z</time>
      </trkpt>
      <trkpt lat="45.68484" lon="2.99172">
        <ele>914</ele>
        <time>2019-06-23T07:44:36.000Z</time>
      </trkpt>
      <trkpt lat="45.68486" lon="2.99171">
        <ele>914</ele>
        <time>2019-06-23T07:44:37.000Z</time>
      </trkpt>
      <trkpt lat="45.68489" lon="2.99168">
        <ele>912</ele>
        <time>2019-06-23T07:44:38.000Z</time>
      </trkpt>
      <trkpt lat="45.68492" lon="2.99166">
        <ele>913</ele>
        <time>2019-06-23T07:44:39.000Z</time>
      </trkpt>
      <trkpt lat="45.68494" lon="2.99165">
        <ele>913</ele>
        <time>2019-06-23T07:44:40.000Z</time>
      </trkpt>
      <trkpt lat="45.68496" lon="2.99164">
        <ele>913</ele>
        <time>2019-06-23T07:44:41.000Z</time>
      </trkpt>
      <trkpt lat="45.68498" lon="2.99162">
        <ele>911</ele>
        <time>2019-06-23T07:44:42.000Z</time>
      </trkpt>
      <trkpt lat="45.685" lon="2.9916">
        <ele>911</ele>
        <time>2019-06-23T07:44:43.000Z</time>
      </trkpt>
      <trkpt lat="45.68503" lon="2.99157">
        <ele>909</ele>
        <time>2019-06-23T07:44:44.000Z</time>
      </trkpt>
      <trkpt lat="45.68505" lon="2.99154">
        <ele>908</ele>
        <time>2019-06-23T07:44:45.000Z</time>
      </trkpt>
      <trkpt lat="45.68507" lon="2.99152">
        <ele>909</ele>
        <time>2019-06-23T07:44:46.000Z</time>
      </trkpt>
      <trkpt lat="45.68509" lon="2.9915">
        <ele>909</ele>
        <time>2019-06-23T07:44:47.000Z</time>
      </trkpt>
      <trkpt lat="45.68511" lon="2.99148">
        <ele>910</ele>
        <time>2019-06-23T07:44:48.000Z</time>
      </trkpt>
      <trkpt lat="45.68512" lon="2.99146">
        <ele>910</ele>
        <time>2019-06-23T07:44:49.000Z</time>
      </trkpt>
      <trkpt lat="45.68513" lon="2.99144">
        <ele>911</ele>
        <time>2019-06-23T07:44:50.000Z</time>
      </trkpt>
      <trkpt lat="45.68514" lon="2.99142">
        <ele>912</ele>
        <time>2019-06-23T07:44:51.000Z</time>
      </trkpt>
      <trkpt lat="45.68516" lon="2.9914">
        <ele>912</ele>
        <time>2019-06-23T07:44:52.000Z</time>
      </trkpt>
      <trkpt lat="45.68518" lon="2.99138">
        <ele>913</ele>
        <time>2019-06-23T07:44:53.000Z</time>
      </trkpt>
      <trkpt lat="45.6852" lon="2.99136">
        <ele>914</ele>
        <time>2019-06-23T07:44:54.000Z</time>
      </trkpt>
      <trkpt lat="45.68522" lon="2.99134">
        <ele>914</ele>
        <time>2019-06-23T07:44:55.000Z</time>
      </trkpt>
      <trkpt lat="45.68525" lon="2.9913">
        <ele>914</ele>
        <time>2019-06-23T07:44:56.000Z</time>
      </trkpt>
      <trkpt lat="45.68526" lon="2.99128">
        <ele>915</ele>
        <time>2019-06-23T07:44:57.000Z</time>
      </trkpt>
      <trkpt lat="45.68528" lon="2.99125">
        <ele>914</ele>
        <time>2019-06-23T07:44:58.000Z</time>
      </trkpt>
      <trkpt lat="45.68529" lon="2.99122">
        <ele>915</ele>
        <time>2019-06-23T07:44:59.000Z</time>
      </trkpt>
      <trkpt lat="45.6853" lon="2.99119">
        <ele>915</ele>
        <time>2019-06-23T07:45:00.000Z</time>
      </trkpt>
      <trkpt lat="45.68531" lon="2.99115">
        <ele>915</ele>
        <time>2019-06-23T07:45:01.000Z</time>
      </trkpt>
      <trkpt lat="45.68532" lon="2.99112">
        <ele>915</ele>
        <time>2019-06-23T07:45:02.000Z</time>
      </trkpt>
      <trkpt lat="45.68533" lon="2.99109">
        <ele>915</ele>
        <time>2019-06-23T07:45:03.000Z</time>
      </trkpt>
      <trkpt lat="45.68535" lon="2.99104">
        <ele>913</ele>
        <time>2019-06-23T07:45:04.000Z</time>
      </trkpt>
      <trkpt lat="45.68536" lon="2.99101">
        <ele>913</ele>
        <time>2019-06-23T07:45:05.000Z</time>
      </trkpt>
      <trkpt lat="45.68537" lon="2.99097">
        <ele>913</ele>
        <time>2019-06-23T07:45:06.000Z</time>
      </trkpt>
      <trkpt lat="45.68538" lon="2.99094">
        <ele>913</ele>
        <time>2019-06-23T07:45:07.000Z</time>
      </trkpt>
      <trkpt lat="45.68541" lon="2.99089">
        <ele>911</ele>
        <time>2019-06-23T07:45:08.000Z</time>
      </trkpt>
      <trkpt lat="45.68542" lon="2.99085">
        <ele>909</ele>
        <time>2019-06-23T07:45:09.000Z</time>
      </trkpt>
      <trkpt lat="45.68543" lon="2.99081">
        <ele>909</ele>
        <time>2019-06-23T07:45:10.000Z</time>
      </trkpt>
      <trkpt lat="45.68545" lon="2.99077">
        <ele>908</ele>
        <time>2019-06-23T07:45:11.000Z</time>
      </trkpt>
      <trkpt lat="45.68546" lon="2.99073">
        <ele>908</ele>
        <time>2019-06-23T07:45:12.000Z</time>
      </trkpt>
      <trkpt lat="45.68548" lon="2.9907">
        <ele>907</ele>
        <time>2019-06-23T07:45:13.000Z</time>
      </trkpt>
      <trkpt lat="45.6855" lon="2.99067">
        <ele>907</ele>
        <time>2019-06-23T07:45:14.000Z</time>
      </trkpt>
      <trkpt lat="45.68552" lon="2.99064">
        <ele>907</ele>
        <time>2019-06-23T07:45:15.000Z</time>
      </trkpt>
      <trkpt lat="45.68554" lon="2.99062">
        <ele>908</ele>
        <time>2019-06-23T07:45:16.000Z</time>
      </trkpt>
      <trkpt lat="45.68556" lon="2.99059">
        <ele>908</ele>
        <time>2019-06-23T07:45:17.000Z</time>
      </trkpt>
      <trkpt lat="45.68558" lon="2.99058">
        <ele>908</ele>
        <time>2019-06-23T07:45:18.000Z</time>
      </trkpt>
      <trkpt lat="45.6856" lon="2.99056">
        <ele>909</ele>
        <time>2019-06-23T07:45:19.000Z</time>
      </trkpt>
      <trkpt lat="45.68562" lon="2.99055">
        <ele>909</ele>
        <time>2019-06-23T07:45:20.000Z</time>
      </trkpt>
      <trkpt lat="45.68565" lon="2.99055">
        <ele>909</ele>
        <time>2019-06-23T07:45:21.000Z</time>
      </trkpt>
      <trkpt lat="45.68566" lon="2.99054">
        <ele>910</ele>
        <time>2019-06-23T07:45:22.000Z</time>
      </trkpt>
      <trkpt lat="45.68568" lon="2.99054">
        <ele>910</ele>
        <time>2019-06-23T07:45:23.000Z</time>
      </trkpt>
      <trkpt lat="45.6857" lon="2.99053">
        <ele>911</ele>
        <time>2019-06-23T07:45:24.000Z</time>
      </trkpt>
      <trkpt lat="45.68572" lon="2.99052">
        <ele>912</ele>
        <time>2019-06-23T07:45:25.000Z</time>
      </trkpt>
      <trkpt lat="45.68574" lon="2.99052">
        <ele>912</ele>
        <time>2019-06-23T07:45:26.000Z</time>
      </trkpt>
      <trkpt lat="45.68575" lon="2.99052">
        <ele>913</ele>
        <time>2019-06-23T07:45:27.000Z</time>
      </trkpt>
      <trkpt lat="45.68578" lon="2.9905">
        <ele>913</ele>
        <time>2019-06-23T07:45:28.000Z</time>
      </trkpt>
      <trkpt lat="45.68582" lon="2.9905">
        <ele>913</ele>
        <time>2019-06-23T07:45:29.000Z</time>
      </trkpt>
      <trkpt lat="45.68586" lon="2.9905">
        <ele>914</ele>
        <time>2019-06-23T07:45:30.000Z</time>
      </trkpt>
      <trkpt lat="45.6859" lon="2.99049">
        <ele>911</ele>
        <time>2019-06-23T07:45:31.000Z</time>
      </trkpt>
      <trkpt lat="45.68593" lon="2.99047">
        <ele>910</ele>
        <time>2019-06-23T07:45:32.000Z</time>
      </trkpt>
      <trkpt lat="45.68596" lon="2.99046">
        <ele>910</ele>
        <time>2019-06-23T07:45:33.000Z</time>
      </trkpt>
      <trkpt lat="45.68599" lon="2.99043">
        <ele>911</ele>
        <time>2019-06-23T07:45:34.000Z</time>
      </trkpt>
      <trkpt lat="45.68602" lon="2.99042">
        <ele>911</ele>
        <time>2019-06-23T07:45:35.000Z</time>
      </trkpt>
      <trkpt lat="45.68604" lon="2.9904">
        <ele>911</ele>
        <time>2019-06-23T07:45:36.000Z</time>
      </trkpt>
      <trkpt lat="45.68607" lon="2.99038">
        <ele>912</ele>
        <time>2019-06-23T07:45:37.000Z</time>
      </trkpt>
      <trkpt lat="45.6861" lon="2.99036">
        <ele>912</ele>
        <time>2019-06-23T07:45:38.000Z</time>
      </trkpt>
      <trkpt lat="45.68613" lon="2.99034">
        <ele>911</ele>
        <time>2019-06-23T07:45:39.000Z</time>
      </trkpt>
      <trkpt lat="45.68615" lon="2.99032">
        <ele>911</ele>
        <time>2019-06-23T07:45:40.000Z</time>
      </trkpt>
      <trkpt lat="45.68618" lon="2.9903">
        <ele>911</ele>
        <time>2019-06-23T07:45:41.000Z</time>
      </trkpt>
      <trkpt lat="45.68621" lon="2.99028">
        <ele>911</ele>
        <time>2019-06-23T07:45:42.000Z</time>
      </trkpt>
      <trkpt lat="45.68624" lon="2.99027">
        <ele>912</ele>
        <time>2019-06-23T07:45:43.000Z</time>
      </trkpt>
      <trkpt lat="45.68627" lon="2.99025">
        <ele>912</ele>
        <time>2019-06-23T07:45:44.000Z</time>
      </trkpt>
      <trkpt lat="45.6863" lon="2.99023">
        <ele>913</ele>
        <time>2019-06-23T07:45:45.000Z</time>
      </trkpt>
      <trkpt lat="45.68632" lon="2.99021">
        <ele>913</ele>
        <time>2019-06-23T07:45:46.000Z</time>
      </trkpt>
      <trkpt lat="45.68635" lon="2.9902">
        <ele>912</ele>
        <time>2019-06-23T07:45:47.000Z</time>
      </trkpt>
      <trkpt lat="45.68638" lon="2.99019">
        <ele>912</ele>
        <time>2019-06-23T07:45:48.000Z</time>
      </trkpt>
      <trkpt lat="45.68641" lon="2.99017">
        <ele>912</ele>
        <time>2019-06-23T07:45:49.000Z</time>
      </trkpt>
      <trkpt lat="45.68644" lon="2.99016">
        <ele>912</ele>
        <time>2019-06-23T07:45:50.000Z</time>
      </trkpt>
      <trkpt lat="45.68646" lon="2.99014">
        <ele>912</ele>
        <time>2019-06-23T07:45:51.000Z</time>
      </trkpt>
      <trkpt lat="45.68649" lon="2.99013">
        <ele>912</ele>
        <time>2019-06-23T07:45:52.000Z</time>
      </trkpt>
      <trkpt lat="45.68652" lon="2.99012">
        <ele>912</ele>
        <time>2019-06-23T07:45:53.000Z</time>
      </trkpt>
      <trkpt lat="45.68655" lon="2.9901">
        <ele>912</ele>
        <time>2019-06-23T07:45:54.000Z</time>
      </trkpt>
      <trkpt lat="45.68657" lon="2.99009">
        <ele>912</ele>
        <time>2019-06-23T07:45:55.000Z</time>
      </trkpt>
      <trkpt lat="45.6866" lon="2.99008">
        <ele>913</ele>
        <time>2019-06-23T07:45:56.000Z</time>
      </trkpt>
      <trkpt lat="45.68663" lon="2.99006">
        <ele>913</ele>
        <time>2019-06-23T07:45:57.000Z</time>
      </trkpt>
      <trkpt lat="45.68666" lon="2.99005">
        <ele>913</ele>
        <time>2019-06-23T07:45:58.000Z</time>
      </trkpt>
      <trkpt lat="45.68668" lon="2.99003">
        <ele>913</ele>
        <time>2019-06-23T07:45:59.000Z</time>
      </trkpt>
      <trkpt lat="45.68671" lon="2.99001">
        <ele>913</ele>
        <time>2019-06-23T07:46:00.000Z</time>
      </trkpt>
      <trkpt lat="45.68674" lon="2.98999">
        <ele>913</ele>
        <time>2019-06-23T07:46:01.000Z</time>
      </trkpt>
      <trkpt lat="45.68676" lon="2.98998">
        <ele>913</ele>
        <time>2019-06-23T07:46:02.000Z</time>
      </trkpt>
      <trkpt lat="45.68679" lon="2.98996">
        <ele>913</ele>
        <time>2019-06-23T07:46:03.000Z</time>
      </trkpt>
      <trkpt lat="45.68681" lon="2.98994">
        <ele>913</ele>
        <time>2019-06-23T07:46:04.000Z</time>
      </trkpt>
      <trkpt lat="45.68684" lon="2.98993">
        <ele>913</ele>
        <time>2019-06-23T07:46:05.000Z</time>
      </trkpt>
      <trkpt lat="45.68686" lon="2.98991">
        <ele>913</ele>
        <time>2019-06-23T07:46:06.000Z</time>
      </trkpt>
      <trkpt lat="45.68688" lon="2.9899">
        <ele>913</ele>
        <time>2019-06-23T07:46:07.000Z</time>
      </trkpt>
      <trkpt lat="45.68691" lon="2.98988">
        <ele>913</ele>
        <time>2019-06-23T07:46:08.000Z</time>
      </trkpt>
      <trkpt lat="45.68693" lon="2.98985">
        <ele>913</ele>
        <time>2019-06-23T07:46:09.000Z</time>
      </trkpt>
      <trkpt lat="45.68695" lon="2.98983">
        <ele>913</ele>
        <time>2019-06-23T07:46:10.000Z</time>
      </trkpt>
      <trkpt lat="45.68698" lon="2.98981">
        <ele>913</ele>
        <time>2019-06-23T07:46:11.000Z</time>
      </trkpt>
      <trkpt lat="45.68701" lon="2.98979">
        <ele>913</ele>
        <time>2019-06-23T07:46:12.000Z</time>
      </trkpt>
      <trkpt lat="45.68704" lon="2.98977">
        <ele>913</ele>
        <time>2019-06-23T07:46:13.000Z</time>
      </trkpt>
      <trkpt lat="45.68706" lon="2.98976">
        <ele>913</ele>
        <time>2019-06-23T07:46:14.000Z</time>
      </trkpt>
      <trkpt lat="45.68709" lon="2.98975">
        <ele>913</ele>
        <time>2019-06-23T07:46:15.000Z</time>
      </trkpt>
      <trkpt lat="45.68713" lon="2.98973">
        <ele>913</ele>
        <time>2019-06-23T07:46:16.000Z</time>
      </trkpt>
      <trkpt lat="45.68716" lon="2.98972">
        <ele>913</ele>
        <time>2019-06-23T07:46:17.000Z</time>
      </trkpt>
      <trkpt lat="45.6872" lon="2.98971">
        <ele>913</ele>
        <time>2019-06-23T07:46:18.000Z</time>
      </trkpt>
      <trkpt lat="45.68723" lon="2.9897">
        <ele>913</ele>
        <time>2019-06-23T07:46:19.000Z</time>
      </trkpt>
      <trkpt lat="45.68727" lon="2.98969">
        <ele>912</ele>
        <time>2019-06-23T07:46:20.000Z</time>
      </trkpt>
      <trkpt lat="45.6873" lon="2.98968">
        <ele>911</ele>
        <time>2019-06-23T07:46:21.000Z</time>
      </trkpt>
      <trkpt lat="45.68734" lon="2.98967">
        <ele>911</ele>
        <time>2019-06-23T07:46:22.000Z</time>
      </trkpt>
      <trkpt lat="45.68738" lon="2.98966">
        <ele>912</ele>
        <time>2019-06-23T07:46:23.000Z</time>
      </trkpt>
      <trkpt lat="45.68742" lon="2.98964">
        <ele>912</ele>
        <time>2019-06-23T07:46:24.000Z</time>
      </trkpt>
      <trkpt lat="45.68746" lon="2.98964">
        <ele>912</ele>
        <time>2019-06-23T07:46:25.000Z</time>
      </trkpt>
      <trkpt lat="45.68751" lon="2.98963">
        <ele>911</ele>
        <time>2019-06-23T07:46:26.000Z</time>
      </trkpt>
      <trkpt lat="45.68755" lon="2.98962">
        <ele>911</ele>
        <time>2019-06-23T07:46:27.000Z</time>
      </trkpt>
      <trkpt lat="45.6876" lon="2.98961">
        <ele>911</ele>
        <time>2019-06-23T07:46:28.000Z</time>
      </trkpt>
      <trkpt lat="45.68765" lon="2.98959">
        <ele>911</ele>
        <time>2019-06-23T07:46:29.000Z</time>
      </trkpt>
      <trkpt lat="45.68769" lon="2.98958">
        <ele>911</ele>
        <time>2019-06-23T07:46:30.000Z</time>
      </trkpt>
      <trkpt lat="45.68774" lon="2.98956">
        <ele>913</ele>
        <time>2019-06-23T07:46:31.000Z</time>
      </trkpt>
      <trkpt lat="45.68778" lon="2.98956">
        <ele>911</ele>
        <time>2019-06-23T07:46:32.000Z</time>
      </trkpt>
      <trkpt lat="45.68782" lon="2.98956">
        <ele>911</ele>
        <time>2019-06-23T07:46:33.000Z</time>
      </trkpt>
      <trkpt lat="45.68786" lon="2.98954">
        <ele>911</ele>
        <time>2019-06-23T07:46:34.000Z</time>
      </trkpt>
      <trkpt lat="45.6879" lon="2.98954">
        <ele>911</ele>
        <time>2019-06-23T07:46:35.000Z</time>
      </trkpt>
      <trkpt lat="45.68795" lon="2.98952">
        <ele>911</ele>
        <time>2019-06-23T07:46:36.000Z</time>
      </trkpt>
      <trkpt lat="45.68799" lon="2.98951">
        <ele>911</ele>
        <time>2019-06-23T07:46:37.000Z</time>
      </trkpt>
      <trkpt lat="45.68803" lon="2.9895">
        <ele>911</ele>
        <time>2019-06-23T07:46:38.000Z</time>
      </trkpt>
      <trkpt lat="45.68807" lon="2.98949">
        <ele>911</ele>
        <time>2019-06-23T07:46:39.000Z</time>
      </trkpt>
      <trkpt lat="45.68811" lon="2.98947">
        <ele>911</ele>
        <time>2019-06-23T07:46:40.000Z</time>
      </trkpt>
      <trkpt lat="45.68815" lon="2.98946">
        <ele>911</ele>
        <time>2019-06-23T07:46:41.000Z</time>
      </trkpt>
      <trkpt lat="45.68819" lon="2.98945">
        <ele>909</ele>
        <time>2019-06-23T07:46:42.000Z</time>
      </trkpt>
      <trkpt lat="45.68823" lon="2.98944">
        <ele>910</ele>
        <time>2019-06-23T07:46:43.000Z</time>
      </trkpt>
      <trkpt lat="45.68827" lon="2.98942">
        <ele>910</ele>
        <time>2019-06-23T07:46:44.000Z</time>
      </trkpt>
      <trkpt lat="45.68831" lon="2.98941">
        <ele>910</ele>
        <time>2019-06-23T07:46:45.000Z</time>
      </trkpt>
      <trkpt lat="45.68835" lon="2.9894">
        <ele>910</ele>
        <time>2019-06-23T07:46:46.000Z</time>
      </trkpt>
      <trkpt lat="45.68838" lon="2.98938">
        <ele>910</ele>
        <time>2019-06-23T07:46:47.000Z</time>
      </trkpt>
      <trkpt lat="45.68842" lon="2.98937">
        <ele>910</ele>
        <time>2019-06-23T07:46:48.000Z</time>
      </trkpt>
      <trkpt lat="45.68846" lon="2.98936">
        <ele>910</ele>
        <time>2019-06-23T07:46:49.000Z</time>
      </trkpt>
      <trkpt lat="45.68849" lon="2.98935">
        <ele>910</ele>
        <time>2019-06-23T07:46:50.000Z</time>
      </trkpt>
      <trkpt lat="45.68853" lon="2.98933">
        <ele>910</ele>
        <time>2019-06-23T07:46:51.000Z</time>
      </trkpt>
      <trkpt lat="45.68856" lon="2.98931">
        <ele>911</ele>
        <time>2019-06-23T07:46:52.000Z</time>
      </trkpt>
      <trkpt lat="45.6886" lon="2.9893">
        <ele>911</ele>
        <time>2019-06-23T07:46:53.000Z</time>
      </trkpt>
      <trkpt lat="45.68864" lon="2.98928">
        <ele>911</ele>
        <time>2019-06-23T07:46:54.000Z</time>
      </trkpt>
      <trkpt lat="45.68867" lon="2.98927">
        <ele>911</ele>
        <time>2019-06-23T07:46:55.000Z</time>
      </trkpt>
      <trkpt lat="45.68871" lon="2.98926">
        <ele>911</ele>
        <time>2019-06-23T07:46:56.000Z</time>
      </trkpt>
      <trkpt lat="45.68874" lon="2.98924">
        <ele>911</ele>
        <time>2019-06-23T07:46:57.000Z</time>
      </trkpt>
      <trkpt lat="45.68878" lon="2.98923">
        <ele>911</ele>
        <time>2019-06-23T07:46:58.000Z</time>
      </trkpt>
      <trkpt lat="45.68881" lon="2.98922">
        <ele>911</ele>
        <time>2019-06-23T07:46:59.000Z</time>
      </trkpt>
      <trkpt lat="45.68885" lon="2.9892">
        <ele>911</ele>
        <time>2019-06-23T07:47:00.000Z</time>
      </trkpt>
      <trkpt lat="45.68888" lon="2.98919">
        <ele>911</ele>
        <time>2019-06-23T07:47:01.000Z</time>
      </trkpt>
      <trkpt lat="45.68892" lon="2.98918">
        <ele>911</ele>
        <time>2019-06-23T07:47:02.000Z</time>
      </trkpt>
      <trkpt lat="45.68895" lon="2.98917">
        <ele>911</ele>
        <time>2019-06-23T07:47:03.000Z</time>
      </trkpt>
      <trkpt lat="45.68899" lon="2.98916">
        <ele>912</ele>
        <time>2019-06-23T07:47:04.000Z</time>
      </trkpt>
      <trkpt lat="45.68902" lon="2.98915">
        <ele>912</ele>
        <time>2019-06-23T07:47:05.000Z</time>
      </trkpt>
      <trkpt lat="45.68906" lon="2.98913">
        <ele>912</ele>
        <time>2019-06-23T07:47:06.000Z</time>
      </trkpt>
      <trkpt lat="45.68909" lon="2.98912">
        <ele>913</ele>
        <time>2019-06-23T07:47:07.000Z</time>
      </trkpt>
      <trkpt lat="45.68912" lon="2.98911">
        <ele>913</ele>
        <time>2019-06-23T07:47:08.000Z</time>
      </trkpt>
      <trkpt lat="45.68916" lon="2.98911">
        <ele>913</ele>
        <time>2019-06-23T07:47:09.000Z</time>
      </trkpt>
      <trkpt lat="45.68919" lon="2.98911">
        <ele>913</ele>
        <time>2019-06-23T07:47:10.000Z</time>
      </trkpt>
      <trkpt lat="45.68922" lon="2.98911">
        <ele>913</ele>
        <time>2019-06-23T07:47:11.000Z</time>
      </trkpt>
      <trkpt lat="45.68926" lon="2.98911">
        <ele>914</ele>
        <time>2019-06-23T07:47:12.000Z</time>
      </trkpt>
      <trkpt lat="45.68929" lon="2.9891">
        <ele>914</ele>
        <time>2019-06-23T07:47:13.000Z</time>
      </trkpt>
      <trkpt lat="45.68932" lon="2.9891">
        <ele>914</ele>
        <time>2019-06-23T07:47:14.000Z</time>
      </trkpt>
      <trkpt lat="45.68935" lon="2.9891">
        <ele>914</ele>
        <time>2019-06-23T07:47:15.000Z</time>
      </trkpt>
      <trkpt lat="45.68938" lon="2.98909">
        <ele>914</ele>
        <time>2019-06-23T07:47:16.000Z</time>
      </trkpt>
      <trkpt lat="45.68941" lon="2.98909">
        <ele>915</ele>
        <time>2019-06-23T07:47:17.000Z</time>
      </trkpt>
      <trkpt lat="45.68944" lon="2.98909">
        <ele>915</ele>
        <time>2019-06-23T07:47:18.000Z</time>
      </trkpt>
      <trkpt lat="45.68948" lon="2.98908">
        <ele>915</ele>
        <time>2019-06-23T07:47:19.000Z</time>
      </trkpt>
      <trkpt lat="45.68951" lon="2.98907">
        <ele>915</ele>
        <time>2019-06-23T07:47:20.000Z</time>
      </trkpt>
      <trkpt lat="45.68954" lon="2.98907">
        <ele>915</ele>
        <time>2019-06-23T07:47:21.000Z</time>
      </trkpt>
      <trkpt lat="45.68957" lon="2.98907">
        <ele>915</ele>
        <time>2019-06-23T07:47:22.000Z</time>
      </trkpt>
      <trkpt lat="45.6896" lon="2.98906">
        <ele>915</ele>
        <time>2019-06-23T07:47:23.000Z</time>
      </trkpt>
      <trkpt lat="45.68963" lon="2.98906">
        <ele>916</ele>
        <time>2019-06-23T07:47:24.000Z</time>
      </trkpt>
      <trkpt lat="45.68967" lon="2.98905">
        <ele>916</ele>
        <time>2019-06-23T07:47:25.000Z</time>
      </trkpt>
      <trkpt lat="45.6897" lon="2.98905">
        <ele>916</ele>
        <time>2019-06-23T07:47:26.000Z</time>
      </trkpt>
      <trkpt lat="45.68973" lon="2.98904">
        <ele>916</ele>
        <time>2019-06-23T07:47:27.000Z</time>
      </trkpt>
      <trkpt lat="45.68976" lon="2.98903">
        <ele>916</ele>
        <time>2019-06-23T07:47:28.000Z</time>
      </trkpt>
      <trkpt lat="45.6898" lon="2.98902">
        <ele>916</ele>
        <time>2019-06-23T07:47:29.000Z</time>
      </trkpt>
      <trkpt lat="45.68983" lon="2.98901">
        <ele>916</ele>
        <time>2019-06-23T07:47:30.000Z</time>
      </trkpt>
      <trkpt lat="45.68987" lon="2.989">
        <ele>916</ele>
        <time>2019-06-23T07:47:31.000Z</time>
      </trkpt>
      <trkpt lat="45.6899" lon="2.98898">
        <ele>916</ele>
        <time>2019-06-23T07:47:32.000Z</time>
      </trkpt>
      <trkpt lat="45.68993" lon="2.98896">
        <ele>917</ele>
        <time>2019-06-23T07:47:33.000Z</time>
      </trkpt>
      <trkpt lat="45.68996" lon="2.98894">
        <ele>917</ele>
        <time>2019-06-23T07:47:34.000Z</time>
      </trkpt>
      <trkpt lat="45.68999" lon="2.98891">
        <ele>917</ele>
        <time>2019-06-23T07:47:35.000Z</time>
      </trkpt>
      <trkpt lat="45.69001" lon="2.98887">
        <ele>917</ele>
        <time>2019-06-23T07:47:36.000Z</time>
      </trkpt>
      <trkpt lat="45.69003" lon="2.98884">
        <ele>917</ele>
        <time>2019-06-23T07:47:37.000Z</time>
      </trkpt>
      <trkpt lat="45.69006" lon="2.98881">
        <ele>918</ele>
        <time>2019-06-23T07:47:38.000Z</time>
      </trkpt>
      <trkpt lat="45.69009" lon="2.98877">
        <ele>918</ele>
        <time>2019-06-23T07:47:39.000Z</time>
      </trkpt>
      <trkpt lat="45.69011" lon="2.98874">
        <ele>918</ele>
        <time>2019-06-23T07:47:40.000Z</time>
      </trkpt>
      <trkpt lat="45.69013" lon="2.9887">
        <ele>918</ele>
        <time>2019-06-23T07:47:41.000Z</time>
      </trkpt>
      <trkpt lat="45.69014" lon="2.98866">
        <ele>918</ele>
        <time>2019-06-23T07:47:42.000Z</time>
      </trkpt>
      <trkpt lat="45.69016" lon="2.98862">
        <ele>919</ele>
        <time>2019-06-23T07:47:43.000Z</time>
      </trkpt>
      <trkpt lat="45.69017" lon="2.98858">
        <ele>919</ele>
        <time>2019-06-23T07:47:44.000Z</time>
      </trkpt>
      <trkpt lat="45.69018" lon="2.98853">
        <ele>919</ele>
        <time>2019-06-23T07:47:45.000Z</time>
      </trkpt>
      <trkpt lat="45.69019" lon="2.98848">
        <ele>920</ele>
        <time>2019-06-23T07:47:46.000Z</time>
      </trkpt>
      <trkpt lat="45.69019" lon="2.98844">
        <ele>920</ele>
        <time>2019-06-23T07:47:47.000Z</time>
      </trkpt>
      <trkpt lat="45.6902" lon="2.98839">
        <ele>920</ele>
        <time>2019-06-23T07:47:48.000Z</time>
      </trkpt>
      <trkpt lat="45.6902" lon="2.98835">
        <ele>920</ele>
        <time>2019-06-23T07:47:49.000Z</time>
      </trkpt>
      <trkpt lat="45.69021" lon="2.9883">
        <ele>921</ele>
        <time>2019-06-23T07:47:50.000Z</time>
      </trkpt>
      <trkpt lat="45.69021" lon="2.98826">
        <ele>921</ele>
        <time>2019-06-23T07:47:51.000Z</time>
      </trkpt>
      <trkpt lat="45.69022" lon="2.98822">
        <ele>921</ele>
        <time>2019-06-23T07:47:52.000Z</time>
      </trkpt>
      <trkpt lat="45.69023" lon="2.98817">
        <ele>921</ele>
        <time>2019-06-23T07:47:53.000Z</time>
      </trkpt>
      <trkpt lat="45.69024" lon="2.98814">
        <ele>921</ele>
        <time>2019-06-23T07:47:54.000Z</time>
      </trkpt>
      <trkpt lat="45.69026" lon="2.9881">
        <ele>921</ele>
        <time>2019-06-23T07:47:55.000Z</time>
      </trkpt>
      <trkpt lat="45.69028" lon="2.98808">
        <ele>921</ele>
        <time>2019-06-23T07:47:56.000Z</time>
      </trkpt>
      <trkpt lat="45.69031" lon="2.98806">
        <ele>921</ele>
        <time>2019-06-23T07:47:57.000Z</time>
      </trkpt>
      <trkpt lat="45.69034" lon="2.98804">
        <ele>921</ele>
        <time>2019-06-23T07:47:58.000Z</time>
      </trkpt>
      <trkpt lat="45.69036" lon="2.988">
        <ele>921</ele>
        <time>2019-06-23T07:47:59.000Z</time>
      </trkpt>
      <trkpt lat="45.69037" lon="2.98796">
        <ele>921</ele>
        <time>2019-06-23T07:48:00.000Z</time>
      </trkpt>
      <trkpt lat="45.69038" lon="2.98791">
        <ele>922</ele>
        <time>2019-06-23T07:48:01.000Z</time>
      </trkpt>
      <trkpt lat="45.69039" lon="2.98787">
        <ele>922</ele>
        <time>2019-06-23T07:48:02.000Z</time>
      </trkpt>
      <trkpt lat="45.6904" lon="2.98783">
        <ele>922</ele>
        <time>2019-06-23T07:48:03.000Z</time>
      </trkpt>
      <trkpt lat="45.69042" lon="2.98779">
        <ele>922</ele>
        <time>2019-06-23T07:48:04.000Z</time>
      </trkpt>
      <trkpt lat="45.69044" lon="2.98774">
        <ele>922</ele>
        <time>2019-06-23T07:48:05.000Z</time>
      </trkpt>
      <trkpt lat="45.69046" lon="2.9877">
        <ele>922</ele>
        <time>2019-06-23T07:48:06.000Z</time>
      </trkpt>
      <trkpt lat="45.69049" lon="2.98766">
        <ele>921</ele>
        <time>2019-06-23T07:48:07.000Z</time>
      </trkpt>
      <trkpt lat="45.69052" lon="2.98762">
        <ele>921</ele>
        <time>2019-06-23T07:48:08.000Z</time>
      </trkpt>
      <trkpt lat="45.69055" lon="2.98759">
        <ele>921</ele>
        <time>2019-06-23T07:48:09.000Z</time>
      </trkpt>
      <trkpt lat="45.69059" lon="2.98755">
        <ele>921</ele>
        <time>2019-06-23T07:48:10.000Z</time>
      </trkpt>
      <trkpt lat="45.69063" lon="2.98752">
        <ele>921</ele>
        <time>2019-06-23T07:48:11.000Z</time>
      </trkpt>
      <trkpt lat="45.69067" lon="2.98749">
        <ele>921</ele>
        <time>2019-06-23T07:48:12.000Z</time>
      </trkpt>
      <trkpt lat="45.69072" lon="2.98749">
        <ele>920</ele>
        <time>2019-06-23T07:48:13.000Z</time>
      </trkpt>
      <trkpt lat="45.69077" lon="2.9875">
        <ele>920</ele>
        <time>2019-06-23T07:48:14.000Z</time>
      </trkpt>
      <trkpt lat="45.69082" lon="2.98751">
        <ele>920</ele>
        <time>2019-06-23T07:48:15.000Z</time>
      </trkpt>
      <trkpt lat="45.69087" lon="2.98752">
        <ele>920</ele>
        <time>2019-06-23T07:48:16.000Z</time>
      </trkpt>
      <trkpt lat="45.69092" lon="2.98755">
        <ele>920</ele>
        <time>2019-06-23T07:48:17.000Z</time>
      </trkpt>
      <trkpt lat="45.69097" lon="2.98756">
        <ele>920</ele>
        <time>2019-06-23T07:48:18.000Z</time>
      </trkpt>
      <trkpt lat="45.69101" lon="2.98758">
        <ele>921</ele>
        <time>2019-06-23T07:48:19.000Z</time>
      </trkpt>
      <trkpt lat="45.69106" lon="2.9876">
        <ele>921</ele>
        <time>2019-06-23T07:48:20.000Z</time>
      </trkpt>
      <trkpt lat="45.69111" lon="2.98762">
        <ele>921</ele>
        <time>2019-06-23T07:48:21.000Z</time>
      </trkpt>
      <trkpt lat="45.69116" lon="2.98764">
        <ele>921</ele>
        <time>2019-06-23T07:48:22.000Z</time>
      </trkpt>
      <trkpt lat="45.69121" lon="2.98765">
        <ele>921</ele>
        <time>2019-06-23T07:48:23.000Z</time>
      </trkpt>
      <trkpt lat="45.69125" lon="2.98766">
        <ele>921</ele>
        <time>2019-06-23T07:48:24.000Z</time>
      </trkpt>
      <trkpt lat="45.6913" lon="2.98767">
        <ele>921</ele>
        <time>2019-06-23T07:48:25.000Z</time>
      </trkpt>
      <trkpt lat="45.69135" lon="2.98767">
        <ele>921</ele>
        <time>2019-06-23T07:48:26.000Z</time>
      </trkpt>
      <trkpt lat="45.6914" lon="2.98766">
        <ele>921</ele>
        <time>2019-06-23T07:48:27.000Z</time>
      </trkpt>
      <trkpt lat="45.69144" lon="2.98765">
        <ele>921</ele>
        <time>2019-06-23T07:48:28.000Z</time>
      </trkpt>
      <trkpt lat="45.69148" lon="2.98764">
        <ele>921</ele>
        <time>2019-06-23T07:48:29.000Z</time>
      </trkpt>
      <trkpt lat="45.69152" lon="2.98762">
        <ele>921</ele>
        <time>2019-06-23T07:48:30.000Z</time>
      </trkpt>
      <trkpt lat="45.69155" lon="2.9876">
        <ele>921</ele>
        <time>2019-06-23T07:48:31.000Z</time>
      </trkpt>
      <trkpt lat="45.69158" lon="2.98757">
        <ele>921</ele>
        <time>2019-06-23T07:48:32.000Z</time>
      </trkpt>
      <trkpt lat="45.69161" lon="2.98756">
        <ele>921</ele>
        <time>2019-06-23T07:48:33.000Z</time>
      </trkpt>
      <trkpt lat="45.69163" lon="2.98757">
        <ele>921</ele>
        <time>2019-06-23T07:48:34.000Z</time>
      </trkpt>
      <trkpt lat="45.69165" lon="2.9876">
        <ele>922</ele>
        <time>2019-06-23T07:48:35.000Z</time>
      </trkpt>
      <trkpt lat="45.69166" lon="2.98763">
        <ele>923</ele>
        <time>2019-06-23T07:48:36.000Z</time>
      </trkpt>
      <trkpt lat="45.69168" lon="2.98766">
        <ele>923</ele>
        <time>2019-06-23T07:48:37.000Z</time>
      </trkpt>
      <trkpt lat="45.69169" lon="2.98768">
        <ele>923</ele>
        <time>2019-06-23T07:48:38.000Z</time>
      </trkpt>
      <trkpt lat="45.69171" lon="2.9877">
        <ele>923</ele>
        <time>2019-06-23T07:48:39.000Z</time>
      </trkpt>
      <trkpt lat="45.69174" lon="2.98771">
        <ele>923</ele>
        <time>2019-06-23T07:48:40.000Z</time>
      </trkpt>
      <trkpt lat="45.69176" lon="2.98771">
        <ele>923</ele>
        <time>2019-06-23T07:48:41.000Z</time>
      </trkpt>
      <trkpt lat="45.69179" lon="2.98768">
        <ele>922</ele>
        <time>2019-06-23T07:48:42.000Z</time>
      </trkpt>
      <trkpt lat="45.6918" lon="2.98764">
        <ele>922</ele>
        <time>2019-06-23T07:48:43.000Z</time>
      </trkpt>
      <trkpt lat="45.69181" lon="2.98759">
        <ele>922</ele>
        <time>2019-06-23T07:48:44.000Z</time>
      </trkpt>
      <trkpt lat="45.69182" lon="2.98754">
        <ele>922</ele>
        <time>2019-06-23T07:48:45.000Z</time>
      </trkpt>
      <trkpt lat="45.69182" lon="2.98748">
        <ele>922</ele>
        <time>2019-06-23T07:48:46.000Z</time>
      </trkpt>
      <trkpt lat="45.69181" lon="2.98742">
        <ele>922</ele>
        <time>2019-06-23T07:48:47.000Z</time>
      </trkpt>
      <trkpt lat="45.69181" lon="2.98736">
        <ele>921</ele>
        <time>2019-06-23T07:48:48.000Z</time>
      </trkpt>
      <trkpt lat="45.6918" lon="2.98729">
        <ele>921</ele>
        <time>2019-06-23T07:48:49.000Z</time>
      </trkpt>
      <trkpt lat="45.6918" lon="2.98722">
        <ele>921</ele>
        <time>2019-06-23T07:48:50.000Z</time>
      </trkpt>
      <trkpt lat="45.6918" lon="2.98715">
        <ele>921</ele>
        <time>2019-06-23T07:48:51.000Z</time>
      </trkpt>
      <trkpt lat="45.6918" lon="2.98708">
        <ele>921</ele>
        <time>2019-06-23T07:48:52.000Z</time>
      </trkpt>
      <trkpt lat="45.69181" lon="2.98701">
        <ele>920</ele>
        <time>2019-06-23T07:48:53.000Z</time>
      </trkpt>
      <trkpt lat="45.69183" lon="2.98694">
        <ele>920</ele>
        <time>2019-06-23T07:48:54.000Z</time>
      </trkpt>
      <trkpt lat="45.69185" lon="2.98687">
        <ele>920</ele>
        <time>2019-06-23T07:48:55.000Z</time>
      </trkpt>
      <trkpt lat="45.69187" lon="2.9868">
        <ele>920</ele>
        <time>2019-06-23T07:48:56.000Z</time>
      </trkpt>
      <trkpt lat="45.6919" lon="2.98673">
        <ele>920</ele>
        <time>2019-06-23T07:48:57.000Z</time>
      </trkpt>
      <trkpt lat="45.69192" lon="2.98667">
        <ele>920</ele>
        <time>2019-06-23T07:48:58.000Z</time>
      </trkpt>
      <trkpt lat="45.69195" lon="2.9866">
        <ele>919</ele>
        <time>2019-06-23T07:48:59.000Z</time>
      </trkpt>
      <trkpt lat="45.69198" lon="2.98653">
        <ele>919</ele>
        <time>2019-06-23T07:49:00.000Z</time>
      </trkpt>
      <trkpt lat="45.692" lon="2.98646">
        <ele>919</ele>
        <time>2019-06-23T07:49:01.000Z</time>
      </trkpt>
      <trkpt lat="45.69203" lon="2.98638">
        <ele>919</ele>
        <time>2019-06-23T07:49:02.000Z</time>
      </trkpt>
      <trkpt lat="45.69206" lon="2.98631">
        <ele>919</ele>
        <time>2019-06-23T07:49:03.000Z</time>
      </trkpt>
      <trkpt lat="45.69209" lon="2.98623">
        <ele>919</ele>
        <time>2019-06-23T07:49:04.000Z</time>
      </trkpt>
      <trkpt lat="45.69211" lon="2.98616">
        <ele>919</ele>
        <time>2019-06-23T07:49:05.000Z</time>
      </trkpt>
      <trkpt lat="45.69214" lon="2.98609">
        <ele>919</ele>
        <time>2019-06-23T07:49:06.000Z</time>
      </trkpt>
      <trkpt lat="45.69216" lon="2.98602">
        <ele>919</ele>
        <time>2019-06-23T07:49:07.000Z</time>
      </trkpt>
      <trkpt lat="45.69219" lon="2.98595">
        <ele>919</ele>
        <time>2019-06-23T07:49:08.000Z</time>
      </trkpt>
      <trkpt lat="45.69221" lon="2.98589">
        <ele>919</ele>
        <time>2019-06-23T07:49:09.000Z</time>
      </trkpt>
      <trkpt lat="45.69224" lon="2.98582">
        <ele>919</ele>
        <time>2019-06-23T07:49:10.000Z</time>
      </trkpt>
      <trkpt lat="45.69226" lon="2.98576">
        <ele>920</ele>
        <time>2019-06-23T07:49:11.000Z</time>
      </trkpt>
      <trkpt lat="45.69228" lon="2.98569">
        <ele>920</ele>
        <time>2019-06-23T07:49:12.000Z</time>
      </trkpt>
      <trkpt lat="45.6923" lon="2.98563">
        <ele>920</ele>
        <time>2019-06-23T07:49:13.000Z</time>
      </trkpt>
      <trkpt lat="45.69233" lon="2.98557">
        <ele>920</ele>
        <time>2019-06-23T07:49:14.000Z</time>
      </trkpt>
      <trkpt lat="45.69235" lon="2.98551">
        <ele>920</ele>
        <time>2019-06-23T07:49:15.000Z</time>
      </trkpt>
      <trkpt lat="45.69236" lon="2.98544">
        <ele>920</ele>
        <time>2019-06-23T07:49:16.000Z</time>
      </trkpt>
      <trkpt lat="45.69236" lon="2.98538">
        <ele>920</ele>
        <time>2019-06-23T07:49:17.000Z</time>
      </trkpt>
      <trkpt lat="45.69237" lon="2.98531">
        <ele>920</ele>
        <time>2019-06-23T07:49:18.000Z</time>
      </trkpt>
      <trkpt lat="45.69237" lon="2.98525">
        <ele>921</ele>
        <time>2019-06-23T07:49:19.000Z</time>
      </trkpt>
      <trkpt lat="45.69237" lon="2.98519">
        <ele>921</ele>
        <time>2019-06-23T07:49:20.000Z</time>
      </trkpt>
      <trkpt lat="45.69237" lon="2.98513">
        <ele>921</ele>
        <time>2019-06-23T07:49:21.000Z</time>
      </trkpt>
      <trkpt lat="45.69237" lon="2.98507">
        <ele>921</ele>
        <time>2019-06-23T07:49:22.000Z</time>
      </trkpt>
      <trkpt lat="45.69238" lon="2.98501">
        <ele>921</ele>
        <time>2019-06-23T07:49:23.000Z</time>
      </trkpt>
      <trkpt lat="45.69238" lon="2.98496">
        <ele>921</ele>
        <time>2019-06-23T07:49:24.000Z</time>
      </trkpt>
      <trkpt lat="45.69239" lon="2.9849">
        <ele>921</ele>
        <time>2019-06-23T07:49:25.000Z</time>
      </trkpt>
      <trkpt lat="45.6924" lon="2.98485">
        <ele>922</ele>
        <time>2019-06-23T07:49:26.000Z</time>
      </trkpt>
      <trkpt lat="45.69241" lon="2.9848">
        <ele>922</ele>
        <time>2019-06-23T07:49:27.000Z</time>
      </trkpt>
      <trkpt lat="45.69242" lon="2.98474">
        <ele>922</ele>
        <time>2019-06-23T07:49:28.000Z</time>
      </trkpt>
      <trkpt lat="45.69243" lon="2.98469">
        <ele>922</ele>
        <time>2019-06-23T07:49:29.000Z</time>
      </trkpt>
      <trkpt lat="45.69243" lon="2.98463">
        <ele>922</ele>
        <time>2019-06-23T07:49:30.000Z</time>
      </trkpt>
      <trkpt lat="45.69243" lon="2.98458">
        <ele>922</ele>
        <time>2019-06-23T07:49:31.000Z</time>
      </trkpt>
      <trkpt lat="45.69244" lon="2.98453">
        <ele>923</ele>
        <time>2019-06-23T07:49:32.000Z</time>
      </trkpt>
      <trkpt lat="45.69244" lon="2.98447">
        <ele>923</ele>
        <time>2019-06-23T07:49:33.000Z</time>
      </trkpt>
      <trkpt lat="45.69244" lon="2.98442">
        <ele>923</ele>
        <time>2019-06-23T07:49:34.000Z</time>
      </trkpt>
      <trkpt lat="45.69244" lon="2.98436">
        <ele>923</ele>
        <time>2019-06-23T07:49:35.000Z</time>
      </trkpt>
      <trkpt lat="45.69245" lon="2.98431">
        <ele>924</ele>
        <time>2019-06-23T07:49:36.000Z</time>
      </trkpt>
      <trkpt lat="45.69246" lon="2.98426">
        <ele>924</ele>
        <time>2019-06-23T07:49:37.000Z</time>
      </trkpt>
      <trkpt lat="45.69247" lon="2.98421">
        <ele>924</ele>
        <time>2019-06-23T07:49:38.000Z</time>
      </trkpt>
      <trkpt lat="45.69248" lon="2.98417">
        <ele>925</ele>
        <time>2019-06-23T07:49:39.000Z</time>
      </trkpt>
      <trkpt lat="45.69248" lon="2.98412">
        <ele>925</ele>
        <time>2019-06-23T07:49:40.000Z</time>
      </trkpt>
      <trkpt lat="45.6925" lon="2.98408">
        <ele>925</ele>
        <time>2019-06-23T07:49:41.000Z</time>
      </trkpt>
      <trkpt lat="45.69252" lon="2.98404">
        <ele>926</ele>
        <time>2019-06-23T07:49:42.000Z</time>
      </trkpt>
      <trkpt lat="45.69254" lon="2.98401">
        <ele>927</ele>
        <time>2019-06-23T07:49:43.000Z</time>
      </trkpt>
      <trkpt lat="45.69257" lon="2.98399">
        <ele>928</ele>
        <time>2019-06-23T07:49:44.000Z</time>
      </trkpt>
      <trkpt lat="45.69259" lon="2.98396">
        <ele>929</ele>
        <time>2019-06-23T07:49:45.000Z</time>
      </trkpt>
      <trkpt lat="45.69261" lon="2.98394">
        <ele>929</ele>
        <time>2019-06-23T07:49:46.000Z</time>
      </trkpt>
      <trkpt lat="45.69263" lon="2.98391">
        <ele>930</ele>
        <time>2019-06-23T07:49:47.000Z</time>
      </trkpt>
      <trkpt lat="45.69266" lon="2.98389">
        <ele>930</ele>
        <time>2019-06-23T07:49:48.000Z</time>
      </trkpt>
      <trkpt lat="45.69268" lon="2.98387">
        <ele>932</ele>
        <time>2019-06-23T07:49:49.000Z</time>
      </trkpt>
      <trkpt lat="45.6927" lon="2.98385">
        <ele>932</ele>
        <time>2019-06-23T07:49:50.000Z</time>
      </trkpt>
      <trkpt lat="45.69272" lon="2.98383">
        <ele>932</ele>
        <time>2019-06-23T07:49:51.000Z</time>
      </trkpt>
      <trkpt lat="45.69274" lon="2.98381">
        <ele>932</ele>
        <time>2019-06-23T07:49:52.000Z</time>
      </trkpt>
      <trkpt lat="45.69276" lon="2.98379">
        <ele>933</ele>
        <time>2019-06-23T07:49:53.000Z</time>
      </trkpt>
      <trkpt lat="45.69277" lon="2.98378">
        <ele>933</ele>
        <time>2019-06-23T07:49:54.000Z</time>
      </trkpt>
      <trkpt lat="45.69279" lon="2.98376">
        <ele>934</ele>
        <time>2019-06-23T07:49:55.000Z</time>
      </trkpt>
      <trkpt lat="45.69282" lon="2.98375">
        <ele>934</ele>
        <time>2019-06-23T07:49:56.000Z</time>
      </trkpt>
      <trkpt lat="45.69284" lon="2.98373">
        <ele>935</ele>
        <time>2019-06-23T07:49:57.000Z</time>
      </trkpt>
      <trkpt lat="45.69286" lon="2.98371">
        <ele>936</ele>
        <time>2019-06-23T07:49:58.000Z</time>
      </trkpt>
      <trkpt lat="45.69288" lon="2.98369">
        <ele>936</ele>
        <time>2019-06-23T07:49:59.000Z</time>
      </trkpt>
      <trkpt lat="45.69291" lon="2.98365">
        <ele>935</ele>
        <time>2019-06-23T07:50:00.000Z</time>
      </trkpt>
      <trkpt lat="45.69293" lon="2.98363">
        <ele>935</ele>
        <time>2019-06-23T07:50:01.000Z</time>
      </trkpt>
      <trkpt lat="45.69296" lon="2.98361">
        <ele>934</ele>
        <time>2019-06-23T07:50:02.000Z</time>
      </trkpt>
      <trkpt lat="45.69299" lon="2.98359">
        <ele>934</ele>
        <time>2019-06-23T07:50:03.000Z</time>
      </trkpt>
      <trkpt lat="45.69301" lon="2.98357">
        <ele>934</ele>
        <time>2019-06-23T07:50:04.000Z</time>
      </trkpt>
      <trkpt lat="45.69303" lon="2.98354">
        <ele>934</ele>
        <time>2019-06-23T07:50:05.000Z</time>
      </trkpt>
      <trkpt lat="45.69305" lon="2.98351">
        <ele>934</ele>
        <time>2019-06-23T07:50:06.000Z</time>
      </trkpt>
      <trkpt lat="45.69307" lon="2.98349">
        <ele>934</ele>
        <time>2019-06-23T07:50:07.000Z</time>
      </trkpt>
      <trkpt lat="45.69309" lon="2.98346">
        <ele>934</ele>
        <time>2019-06-23T07:50:08.000Z</time>
      </trkpt>
      <trkpt lat="45.69311" lon="2.98343">
        <ele>935</ele>
        <time>2019-06-23T07:50:09.000Z</time>
      </trkpt>
      <trkpt lat="45.69312" lon="2.98341">
        <ele>936</ele>
        <time>2019-06-23T07:50:10.000Z</time>
      </trkpt>
      <trkpt lat="45.69314" lon="2.98337">
        <ele>937</ele>
        <time>2019-06-23T07:50:11.000Z</time>
      </trkpt>
      <trkpt lat="45.69316" lon="2.98334">
        <ele>937</ele>
        <time>2019-06-23T07:50:12.000Z</time>
      </trkpt>
      <trkpt lat="45.69318" lon="2.9833">
        <ele>936</ele>
        <time>2019-06-23T07:50:13.000Z</time>
      </trkpt>
      <trkpt lat="45.69319" lon="2.98327">
        <ele>937</ele>
        <time>2019-06-23T07:50:14.000Z</time>
      </trkpt>
      <trkpt lat="45.6932" lon="2.98323">
        <ele>938</ele>
        <time>2019-06-23T07:50:15.000Z</time>
      </trkpt>
      <trkpt lat="45.69321" lon="2.98319">
        <ele>938</ele>
        <time>2019-06-23T07:50:16.000Z</time>
      </trkpt>
      <trkpt lat="45.69322" lon="2.98316">
        <ele>939</ele>
        <time>2019-06-23T07:50:17.000Z</time>
      </trkpt>
      <trkpt lat="45.69323" lon="2.98312">
        <ele>939</ele>
        <time>2019-06-23T07:50:18.000Z</time>
      </trkpt>
      <trkpt lat="45.69324" lon="2.98308">
        <ele>939</ele>
        <time>2019-06-23T07:50:19.000Z</time>
      </trkpt>
      <trkpt lat="45.69325" lon="2.98303">
        <ele>939</ele>
        <time>2019-06-23T07:50:20.000Z</time>
      </trkpt>
      <trkpt lat="45.69326" lon="2.98299">
        <ele>940</ele>
        <time>2019-06-23T07:50:21.000Z</time>
      </trkpt>
      <trkpt lat="45.69326" lon="2.98296">
        <ele>941</ele>
        <time>2019-06-23T07:50:22.000Z</time>
      </trkpt>
      <trkpt lat="45.69327" lon="2.98293">
        <ele>942</ele>
        <time>2019-06-23T07:50:23.000Z</time>
      </trkpt>
      <trkpt lat="45.69328" lon="2.9829">
        <ele>943</ele>
        <time>2019-06-23T07:50:24.000Z</time>
      </trkpt>
      <trkpt lat="45.69328" lon="2.98287">
        <ele>944</ele>
        <time>2019-06-23T07:50:25.000Z</time>
      </trkpt>
      <trkpt lat="45.6933" lon="2.98285">
        <ele>945</ele>
        <time>2019-06-23T07:50:26.000Z</time>
      </trkpt>
      <trkpt lat="45.69331" lon="2.98282">
        <ele>947</ele>
        <time>2019-06-23T07:50:27.000Z</time>
      </trkpt>
      <trkpt lat="45.69333" lon="2.9828">
        <ele>949</ele>
        <time>2019-06-23T07:50:28.000Z</time>
      </trkpt>
      <trkpt lat="45.69335" lon="2.98277">
        <ele>951</ele>
        <time>2019-06-23T07:50:29.000Z</time>
      </trkpt>
      <trkpt lat="45.69336" lon="2.98275">
        <ele>952</ele>
        <time>2019-06-23T07:50:30.000Z</time>
      </trkpt>
      <trkpt lat="45.69338" lon="2.98273">
        <ele>953</ele>
        <time>2019-06-23T07:50:31.000Z</time>
      </trkpt>
      <trkpt lat="45.69339" lon="2.98271">
        <ele>953</ele>
        <time>2019-06-23T07:50:32.000Z</time>
      </trkpt>
      <trkpt lat="45.6934" lon="2.9827">
        <ele>954</ele>
        <time>2019-06-23T07:50:33.000Z</time>
      </trkpt>
      <trkpt lat="45.69341" lon="2.98269">
        <ele>955</ele>
        <time>2019-06-23T07:50:34.000Z</time>
      </trkpt>
      <trkpt lat="45.69343" lon="2.98266">
        <ele>956</ele>
        <time>2019-06-23T07:50:35.000Z</time>
      </trkpt>
      <trkpt lat="45.69345" lon="2.98264">
        <ele>956</ele>
        <time>2019-06-23T07:50:36.000Z</time>
      </trkpt>
      <trkpt lat="45.69347" lon="2.98262">
        <ele>957</ele>
        <time>2019-06-23T07:50:37.000Z</time>
      </trkpt>
      <trkpt lat="45.69349" lon="2.9826">
        <ele>958</ele>
        <time>2019-06-23T07:50:38.000Z</time>
      </trkpt>
      <trkpt lat="45.69352" lon="2.98256">
        <ele>957</ele>
        <time>2019-06-23T07:50:39.000Z</time>
      </trkpt>
      <trkpt lat="45.69354" lon="2.98252">
        <ele>956</ele>
        <time>2019-06-23T07:50:40.000Z</time>
      </trkpt>
      <trkpt lat="45.69356" lon="2.98251">
        <ele>955</ele>
        <time>2019-06-23T07:50:41.000Z</time>
      </trkpt>
      <trkpt lat="45.69359" lon="2.98248">
        <ele>954</ele>
        <time>2019-06-23T07:50:42.000Z</time>
      </trkpt>
      <trkpt lat="45.6936" lon="2.98245">
        <ele>955</ele>
        <time>2019-06-23T07:50:43.000Z</time>
      </trkpt>
      <trkpt lat="45.69361" lon="2.98243">
        <ele>955</ele>
        <time>2019-06-23T07:50:44.000Z</time>
      </trkpt>
      <trkpt lat="45.69363" lon="2.9824">
        <ele>956</ele>
        <time>2019-06-23T07:50:45.000Z</time>
      </trkpt>
      <trkpt lat="45.69366" lon="2.98234">
        <ele>952</ele>
        <time>2019-06-23T07:50:46.000Z</time>
      </trkpt>
      <trkpt lat="45.6937" lon="2.98227">
        <ele>949</ele>
        <time>2019-06-23T07:50:47.000Z</time>
      </trkpt>
      <trkpt lat="45.69373" lon="2.98221">
        <ele>946</ele>
        <time>2019-06-23T07:50:48.000Z</time>
      </trkpt>
      <trkpt lat="45.69376" lon="2.98216">
        <ele>944</ele>
        <time>2019-06-23T07:50:49.000Z</time>
      </trkpt>
      <trkpt lat="45.69379" lon="2.98212">
        <ele>944</ele>
        <time>2019-06-23T07:50:50.000Z</time>
      </trkpt>
      <trkpt lat="45.69381" lon="2.98209">
        <ele>944</ele>
        <time>2019-06-23T07:50:51.000Z</time>
      </trkpt>
      <trkpt lat="45.69384" lon="2.98206">
        <ele>944</ele>
        <time>2019-06-23T07:50:52.000Z</time>
      </trkpt>
      <trkpt lat="45.69385" lon="2.98203">
        <ele>945</ele>
        <time>2019-06-23T07:50:53.000Z</time>
      </trkpt>
      <trkpt lat="45.69388" lon="2.982">
        <ele>944</ele>
        <time>2019-06-23T07:50:54.000Z</time>
      </trkpt>
      <trkpt lat="45.6939" lon="2.98196">
        <ele>945</ele>
        <time>2019-06-23T07:50:55.000Z</time>
      </trkpt>
      <trkpt lat="45.69393" lon="2.98192">
        <ele>943</ele>
        <time>2019-06-23T07:50:56.000Z</time>
      </trkpt>
      <trkpt lat="45.69396" lon="2.98188">
        <ele>942</ele>
        <time>2019-06-23T07:50:57.000Z</time>
      </trkpt>
      <trkpt lat="45.69398" lon="2.98185">
        <ele>941</ele>
        <time>2019-06-23T07:50:58.000Z</time>
      </trkpt>
      <trkpt lat="45.69401" lon="2.98182">
        <ele>941</ele>
        <time>2019-06-23T07:50:59.000Z</time>
      </trkpt>
      <trkpt lat="45.69403" lon="2.98179">
        <ele>942</ele>
        <time>2019-06-23T07:51:00.000Z</time>
      </trkpt>
      <trkpt lat="45.69405" lon="2.98176">
        <ele>941</ele>
        <time>2019-06-23T07:51:01.000Z</time>
      </trkpt>
      <trkpt lat="45.69407" lon="2.98173">
        <ele>941</ele>
        <time>2019-06-23T07:51:02.000Z</time>
      </trkpt>
      <trkpt lat="45.69409" lon="2.98171">
        <ele>942</ele>
        <time>2019-06-23T07:51:03.000Z</time>
      </trkpt>
      <trkpt lat="45.69411" lon="2.98168">
        <ele>942</ele>
        <time>2019-06-23T07:51:04.000Z</time>
      </trkpt>
      <trkpt lat="45.69412" lon="2.98165">
        <ele>942</ele>
        <time>2019-06-23T07:51:05.000Z</time>
      </trkpt>
      <trkpt lat="45.69414" lon="2.98164">
        <ele>942</ele>
        <time>2019-06-23T07:51:06.000Z</time>
      </trkpt>
      <trkpt lat="45.69416" lon="2.98159">
        <ele>944</ele>
        <time>2019-06-23T07:51:07.000Z</time>
      </trkpt>
      <trkpt lat="45.69417" lon="2.98156">
        <ele>946</ele>
        <time>2019-06-23T07:51:08.000Z</time>
      </trkpt>
      <trkpt lat="45.69418" lon="2.98154">
        <ele>948</ele>
        <time>2019-06-23T07:51:09.000Z</time>
      </trkpt>
      <trkpt lat="45.6942" lon="2.98151">
        <ele>948</ele>
        <time>2019-06-23T07:51:10.000Z</time>
      </trkpt>
      <trkpt lat="45.69422" lon="2.98148">
        <ele>948</ele>
        <time>2019-06-23T07:51:11.000Z</time>
      </trkpt>
      <trkpt lat="45.69423" lon="2.98146">
        <ele>948</ele>
        <time>2019-06-23T07:51:12.000Z</time>
      </trkpt>
      <trkpt lat="45.69425" lon="2.98144">
        <ele>946</ele>
        <time>2019-06-23T07:51:13.000Z</time>
      </trkpt>
      <trkpt lat="45.69428" lon="2.98139">
        <ele>945</ele>
        <time>2019-06-23T07:51:14.000Z</time>
      </trkpt>
      <trkpt lat="45.69432" lon="2.98134">
        <ele>944</ele>
        <time>2019-06-23T07:51:15.000Z</time>
      </trkpt>
      <trkpt lat="45.69434" lon="2.98131">
        <ele>945</ele>
        <time>2019-06-23T07:51:16.000Z</time>
      </trkpt>
      <trkpt lat="45.69436" lon="2.98128">
        <ele>945</ele>
        <time>2019-06-23T07:51:17.000Z</time>
      </trkpt>
      <trkpt lat="45.69438" lon="2.98125">
        <ele>946</ele>
        <time>2019-06-23T07:51:18.000Z</time>
      </trkpt>
      <trkpt lat="45.6944" lon="2.98123">
        <ele>947</ele>
        <time>2019-06-23T07:51:19.000Z</time>
      </trkpt>
      <trkpt lat="45.69442" lon="2.9812">
        <ele>947</ele>
        <time>2019-06-23T07:51:20.000Z</time>
      </trkpt>
      <trkpt lat="45.69444" lon="2.98117">
        <ele>949</ele>
        <time>2019-06-23T07:51:21.000Z</time>
      </trkpt>
      <trkpt lat="45.69447" lon="2.98113">
        <ele>951</ele>
        <time>2019-06-23T07:51:22.000Z</time>
      </trkpt>
      <trkpt lat="45.69451" lon="2.9811">
        <ele>954</ele>
        <time>2019-06-23T07:51:23.000Z</time>
      </trkpt>
      <trkpt lat="45.69454" lon="2.98106">
        <ele>954</ele>
        <time>2019-06-23T07:51:24.000Z</time>
      </trkpt>
      <trkpt lat="45.69457" lon="2.98103">
        <ele>955</ele>
        <time>2019-06-23T07:51:25.000Z</time>
      </trkpt>
      <trkpt lat="45.6946" lon="2.98101">
        <ele>956</ele>
        <time>2019-06-23T07:51:26.000Z</time>
      </trkpt>
      <trkpt lat="45.69464" lon="2.98097">
        <ele>956</ele>
        <time>2019-06-23T07:51:27.000Z</time>
      </trkpt>
      <trkpt lat="45.69467" lon="2.98095">
        <ele>955</ele>
        <time>2019-06-23T07:51:28.000Z</time>
      </trkpt>
      <trkpt lat="45.6947" lon="2.98092">
        <ele>955</ele>
        <time>2019-06-23T07:51:29.000Z</time>
      </trkpt>
      <trkpt lat="45.69473" lon="2.98089">
        <ele>955</ele>
        <time>2019-06-23T07:51:30.000Z</time>
      </trkpt>
      <trkpt lat="45.69475" lon="2.98087">
        <ele>956</ele>
        <time>2019-06-23T07:51:31.000Z</time>
      </trkpt>
      <trkpt lat="45.69478" lon="2.98084">
        <ele>956</ele>
        <time>2019-06-23T07:51:32.000Z</time>
      </trkpt>
      <trkpt lat="45.69481" lon="2.98081">
        <ele>955</ele>
        <time>2019-06-23T07:51:33.000Z</time>
      </trkpt>
      <trkpt lat="45.69484" lon="2.98079">
        <ele>956</ele>
        <time>2019-06-23T07:51:34.000Z</time>
      </trkpt>
      <trkpt lat="45.69487" lon="2.98076">
        <ele>957</ele>
        <time>2019-06-23T07:51:35.000Z</time>
      </trkpt>
      <trkpt lat="45.6949" lon="2.98072">
        <ele>956</ele>
        <time>2019-06-23T07:51:36.000Z</time>
      </trkpt>
      <trkpt lat="45.69493" lon="2.98068">
        <ele>954</ele>
        <time>2019-06-23T07:51:37.000Z</time>
      </trkpt>
      <trkpt lat="45.69498" lon="2.98062">
        <ele>953</ele>
        <time>2019-06-23T07:51:38.000Z</time>
      </trkpt>
      <trkpt lat="45.69501" lon="2.98059">
        <ele>953</ele>
        <time>2019-06-23T07:51:39.000Z</time>
      </trkpt>
      <trkpt lat="45.69505" lon="2.98057">
        <ele>953</ele>
        <time>2019-06-23T07:51:40.000Z</time>
      </trkpt>
      <trkpt lat="45.69509" lon="2.98053">
        <ele>950</ele>
        <time>2019-06-23T07:51:41.000Z</time>
      </trkpt>
      <trkpt lat="45.69513" lon="2.9805">
        <ele>949</ele>
        <time>2019-06-23T07:51:42.000Z</time>
      </trkpt>
      <trkpt lat="45.69518" lon="2.98046">
        <ele>948</ele>
        <time>2019-06-23T07:51:43.000Z</time>
      </trkpt>
      <trkpt lat="45.69522" lon="2.98041">
        <ele>948</ele>
        <time>2019-06-23T07:51:44.000Z</time>
      </trkpt>
      <trkpt lat="45.69526" lon="2.98035">
        <ele>946</ele>
        <time>2019-06-23T07:51:45.000Z</time>
      </trkpt>
      <trkpt lat="45.69531" lon="2.98029">
        <ele>943</ele>
        <time>2019-06-23T07:51:46.000Z</time>
      </trkpt>
      <trkpt lat="45.69535" lon="2.98024">
        <ele>943</ele>
        <time>2019-06-23T07:51:47.000Z</time>
      </trkpt>
      <trkpt lat="45.69538" lon="2.98017">
        <ele>941</ele>
        <time>2019-06-23T07:51:48.000Z</time>
      </trkpt>
      <trkpt lat="45.69539" lon="2.98006">
        <ele>942</ele>
        <time>2019-06-23T07:51:49.000Z</time>
      </trkpt>
      <trkpt lat="45.69537" lon="2.97998">
        <ele>943</ele>
        <time>2019-06-23T07:51:50.000Z</time>
      </trkpt>
      <trkpt lat="45.69537" lon="2.97992">
        <ele>941</ele>
        <time>2019-06-23T07:51:51.000Z</time>
      </trkpt>
      <trkpt lat="45.69538" lon="2.97985">
        <ele>940</ele>
        <time>2019-06-23T07:51:52.000Z</time>
      </trkpt>
      <trkpt lat="45.69538" lon="2.97978">
        <ele>939</ele>
        <time>2019-06-23T07:51:53.000Z</time>
      </trkpt>
      <trkpt lat="45.69538" lon="2.97972">
        <ele>937</ele>
        <time>2019-06-23T07:51:54.000Z</time>
      </trkpt>
      <trkpt lat="45.69538" lon="2.97966">
        <ele>937</ele>
        <time>2019-06-23T07:51:55.000Z</time>
      </trkpt>
      <trkpt lat="45.69538" lon="2.9796">
        <ele>936</ele>
        <time>2019-06-23T07:51:56.000Z</time>
      </trkpt>
      <trkpt lat="45.69538" lon="2.97954">
        <ele>936</ele>
        <time>2019-06-23T07:51:57.000Z</time>
      </trkpt>
      <trkpt lat="45.69538" lon="2.97947">
        <ele>936</ele>
        <time>2019-06-23T07:51:58.000Z</time>
      </trkpt>
      <trkpt lat="45.69537" lon="2.97941">
        <ele>936</ele>
        <time>2019-06-23T07:51:59.000Z</time>
      </trkpt>
      <trkpt lat="45.69537" lon="2.97935">
        <ele>937</ele>
        <time>2019-06-23T07:52:00.000Z</time>
      </trkpt>
      <trkpt lat="45.69536" lon="2.9793">
        <ele>938</ele>
        <time>2019-06-23T07:52:01.000Z</time>
      </trkpt>
      <trkpt lat="45.69535" lon="2.97924">
        <ele>939</ele>
        <time>2019-06-23T07:52:02.000Z</time>
      </trkpt>
      <trkpt lat="45.69532" lon="2.97919">
        <ele>938</ele>
        <time>2019-06-23T07:52:03.000Z</time>
      </trkpt>
      <trkpt lat="45.6953" lon="2.97913">
        <ele>937</ele>
        <time>2019-06-23T07:52:04.000Z</time>
      </trkpt>
      <trkpt lat="45.69528" lon="2.97909">
        <ele>937</ele>
        <time>2019-06-23T07:52:05.000Z</time>
      </trkpt>
      <trkpt lat="45.69527" lon="2.97904">
        <ele>939</ele>
        <time>2019-06-23T07:52:06.000Z</time>
      </trkpt>
      <trkpt lat="45.69527" lon="2.97899">
        <ele>939</ele>
        <time>2019-06-23T07:52:07.000Z</time>
      </trkpt>
      <trkpt lat="45.69526" lon="2.97894">
        <ele>940</ele>
        <time>2019-06-23T07:52:08.000Z</time>
      </trkpt>
      <trkpt lat="45.69526" lon="2.97889">
        <ele>941</ele>
        <time>2019-06-23T07:52:09.000Z</time>
      </trkpt>
      <trkpt lat="45.69526" lon="2.97885">
        <ele>942</ele>
        <time>2019-06-23T07:52:10.000Z</time>
      </trkpt>
      <trkpt lat="45.69526" lon="2.97881">
        <ele>944</ele>
        <time>2019-06-23T07:52:11.000Z</time>
      </trkpt>
      <trkpt lat="45.69526" lon="2.97878">
        <ele>948</ele>
        <time>2019-06-23T07:52:12.000Z</time>
      </trkpt>
      <trkpt lat="45.69526" lon="2.97875">
        <ele>950</ele>
        <time>2019-06-23T07:52:13.000Z</time>
      </trkpt>
      <trkpt lat="45.69526" lon="2.97872">
        <ele>950</ele>
        <time>2019-06-23T07:52:14.000Z</time>
      </trkpt>
      <trkpt lat="45.69527" lon="2.97865">
        <ele>952</ele>
        <time>2019-06-23T07:52:15.000Z</time>
      </trkpt>
      <trkpt lat="45.69527" lon="2.9786">
        <ele>952</ele>
        <time>2019-06-23T07:52:16.000Z</time>
      </trkpt>
      <trkpt lat="45.69527" lon="2.97856">
        <ele>954</ele>
        <time>2019-06-23T07:52:17.000Z</time>
      </trkpt>
      <trkpt lat="45.69527" lon="2.97853">
        <ele>956</ele>
        <time>2019-06-23T07:52:18.000Z</time>
      </trkpt>
      <trkpt lat="45.69527" lon="2.97849">
        <ele>958</ele>
        <time>2019-06-23T07:52:19.000Z</time>
      </trkpt>
      <trkpt lat="45.69527" lon="2.97845">
        <ele>958</ele>
        <time>2019-06-23T07:52:20.000Z</time>
      </trkpt>
      <trkpt lat="45.69528" lon="2.97841">
        <ele>959</ele>
        <time>2019-06-23T07:52:21.000Z</time>
      </trkpt>
      <trkpt lat="45.6953" lon="2.97838">
        <ele>961</ele>
        <time>2019-06-23T07:52:22.000Z</time>
      </trkpt>
      <trkpt lat="45.69531" lon="2.97834">
        <ele>961</ele>
        <time>2019-06-23T07:52:23.000Z</time>
      </trkpt>
      <trkpt lat="45.69532" lon="2.97831">
        <ele>962</ele>
        <time>2019-06-23T07:52:24.000Z</time>
      </trkpt>
      <trkpt lat="45.69534" lon="2.97826">
        <ele>963</ele>
        <time>2019-06-23T07:52:25.000Z</time>
      </trkpt>
      <trkpt lat="45.69536" lon="2.97821">
        <ele>963</ele>
        <time>2019-06-23T07:52:26.000Z</time>
      </trkpt>
      <trkpt lat="45.69538" lon="2.97816">
        <ele>961</ele>
        <time>2019-06-23T07:52:27.000Z</time>
      </trkpt>
      <trkpt lat="45.69539" lon="2.97811">
        <ele>961</ele>
        <time>2019-06-23T07:52:28.000Z</time>
      </trkpt>
      <trkpt lat="45.69541" lon="2.97807">
        <ele>961</ele>
        <time>2019-06-23T07:52:29.000Z</time>
      </trkpt>
      <trkpt lat="45.69542" lon="2.97803">
        <ele>961</ele>
        <time>2019-06-23T07:52:30.000Z</time>
      </trkpt>
      <trkpt lat="45.69544" lon="2.97796">
        <ele>962</ele>
        <time>2019-06-23T07:52:31.000Z</time>
      </trkpt>
      <trkpt lat="45.69546" lon="2.97791">
        <ele>961</ele>
        <time>2019-06-23T07:52:32.000Z</time>
      </trkpt>
      <trkpt lat="45.69549" lon="2.97784">
        <ele>958</ele>
        <time>2019-06-23T07:52:33.000Z</time>
      </trkpt>
      <trkpt lat="45.69551" lon="2.97778">
        <ele>957</ele>
        <time>2019-06-23T07:52:34.000Z</time>
      </trkpt>
      <trkpt lat="45.69553" lon="2.97772">
        <ele>956</ele>
        <time>2019-06-23T07:52:35.000Z</time>
      </trkpt>
      <trkpt lat="45.69555" lon="2.97764">
        <ele>955</ele>
        <time>2019-06-23T07:52:36.000Z</time>
      </trkpt>
      <trkpt lat="45.69558" lon="2.97756">
        <ele>954</ele>
        <time>2019-06-23T07:52:37.000Z</time>
      </trkpt>
      <trkpt lat="45.69561" lon="2.97751">
        <ele>953</ele>
        <time>2019-06-23T07:52:38.000Z</time>
      </trkpt>
      <trkpt lat="45.69565" lon="2.97746">
        <ele>952</ele>
        <time>2019-06-23T07:52:39.000Z</time>
      </trkpt>
      <trkpt lat="45.6957" lon="2.97741">
        <ele>952</ele>
        <time>2019-06-23T07:52:40.000Z</time>
      </trkpt>
      <trkpt lat="45.69575" lon="2.97734">
        <ele>951</ele>
        <time>2019-06-23T07:52:41.000Z</time>
      </trkpt>
      <trkpt lat="45.69583" lon="2.97723">
        <ele>947</ele>
        <time>2019-06-23T07:52:42.000Z</time>
      </trkpt>
      <trkpt lat="45.69586" lon="2.97716">
        <ele>946</ele>
        <time>2019-06-23T07:52:43.000Z</time>
      </trkpt>
      <trkpt lat="45.6959" lon="2.9771">
        <ele>945</ele>
        <time>2019-06-23T07:52:44.000Z</time>
      </trkpt>
      <trkpt lat="45.69593" lon="2.97701">
        <ele>943</ele>
        <time>2019-06-23T07:52:45.000Z</time>
      </trkpt>
      <trkpt lat="45.69596" lon="2.97694">
        <ele>942</ele>
        <time>2019-06-23T07:52:46.000Z</time>
      </trkpt>
      <trkpt lat="45.69598" lon="2.97686">
        <ele>941</ele>
        <time>2019-06-23T07:52:47.000Z</time>
      </trkpt>
      <trkpt lat="45.696" lon="2.97678">
        <ele>940</ele>
        <time>2019-06-23T07:52:48.000Z</time>
      </trkpt>
      <trkpt lat="45.69602" lon="2.9767">
        <ele>939</ele>
        <time>2019-06-23T07:52:49.000Z</time>
      </trkpt>
      <trkpt lat="45.69602" lon="2.97662">
        <ele>937</ele>
        <time>2019-06-23T07:52:50.000Z</time>
      </trkpt>
      <trkpt lat="45.69604" lon="2.97655">
        <ele>934</ele>
        <time>2019-06-23T07:52:51.000Z</time>
      </trkpt>
      <trkpt lat="45.69603" lon="2.97647">
        <ele>931</ele>
        <time>2019-06-23T07:52:52.000Z</time>
      </trkpt>
      <trkpt lat="45.696" lon="2.97638">
        <ele>924</ele>
        <time>2019-06-23T07:52:53.000Z</time>
      </trkpt>
      <trkpt lat="45.69598" lon="2.97631">
        <ele>923</ele>
        <time>2019-06-23T07:52:54.000Z</time>
      </trkpt>
      <trkpt lat="45.69598" lon="2.97625">
        <ele>922</ele>
        <time>2019-06-23T07:52:55.000Z</time>
      </trkpt>
      <trkpt lat="45.69597" lon="2.97619">
        <ele>921</ele>
        <time>2019-06-23T07:52:56.000Z</time>
      </trkpt>
      <trkpt lat="45.69596" lon="2.97614">
        <ele>921</ele>
        <time>2019-06-23T07:52:57.000Z</time>
      </trkpt>
      <trkpt lat="45.69592" lon="2.97609">
        <ele>923</ele>
        <time>2019-06-23T07:52:58.000Z</time>
      </trkpt>
      <trkpt lat="45.69591" lon="2.97603">
        <ele>924</ele>
        <time>2019-06-23T07:52:59.000Z</time>
      </trkpt>
      <trkpt lat="45.69588" lon="2.97598">
        <ele>925</ele>
        <time>2019-06-23T07:53:00.000Z</time>
      </trkpt>
      <trkpt lat="45.69585" lon="2.97594">
        <ele>928</ele>
        <time>2019-06-23T07:53:01.000Z</time>
      </trkpt>
      <trkpt lat="45.69578" lon="2.97592">
        <ele>933</ele>
        <time>2019-06-23T07:53:02.000Z</time>
      </trkpt>
      <trkpt lat="45.69571" lon="2.97589">
        <ele>936</ele>
        <time>2019-06-23T07:53:03.000Z</time>
      </trkpt>
      <trkpt lat="45.69567" lon="2.97586">
        <ele>936</ele>
        <time>2019-06-23T07:53:04.000Z</time>
      </trkpt>
      <trkpt lat="45.69562" lon="2.97584">
        <ele>936</ele>
        <time>2019-06-23T07:53:05.000Z</time>
      </trkpt>
      <trkpt lat="45.6956" lon="2.97581">
        <ele>937</ele>
        <time>2019-06-23T07:53:06.000Z</time>
      </trkpt>
      <trkpt lat="45.69556" lon="2.97579">
        <ele>938</ele>
        <time>2019-06-23T07:53:07.000Z</time>
      </trkpt>
      <trkpt lat="45.69554" lon="2.97575">
        <ele>938</ele>
        <time>2019-06-23T07:53:08.000Z</time>
      </trkpt>
      <trkpt lat="45.69549" lon="2.97571">
        <ele>939</ele>
        <time>2019-06-23T07:53:09.000Z</time>
      </trkpt>
      <trkpt lat="45.69541" lon="2.97567">
        <ele>941</ele>
        <time>2019-06-23T07:53:10.000Z</time>
      </trkpt>
      <trkpt lat="45.69535" lon="2.97563">
        <ele>942</ele>
        <time>2019-06-23T07:53:11.000Z</time>
      </trkpt>
      <trkpt lat="45.69531" lon="2.97559">
        <ele>942</ele>
        <time>2019-06-23T07:53:12.000Z</time>
      </trkpt>
      <trkpt lat="45.69527" lon="2.97556">
        <ele>943</ele>
        <time>2019-06-23T07:53:13.000Z</time>
      </trkpt>
      <trkpt lat="45.69523" lon="2.97551">
        <ele>944</ele>
        <time>2019-06-23T07:53:14.000Z</time>
      </trkpt>
      <trkpt lat="45.69519" lon="2.97546">
        <ele>943</ele>
        <time>2019-06-23T07:53:15.000Z</time>
      </trkpt>
      <trkpt lat="45.69516" lon="2.97542">
        <ele>943</ele>
        <time>2019-06-23T07:53:16.000Z</time>
      </trkpt>
      <trkpt lat="45.69512" lon="2.97539">
        <ele>944</ele>
        <time>2019-06-23T07:53:17.000Z</time>
      </trkpt>
      <trkpt lat="45.69506" lon="2.97536">
        <ele>946</ele>
        <time>2019-06-23T07:53:18.000Z</time>
      </trkpt>
      <trkpt lat="45.69502" lon="2.97533">
        <ele>947</ele>
        <time>2019-06-23T07:53:19.000Z</time>
      </trkpt>
      <trkpt lat="45.69498" lon="2.97531">
        <ele>948</ele>
        <time>2019-06-23T07:53:20.000Z</time>
      </trkpt>
      <trkpt lat="45.69494" lon="2.97528">
        <ele>949</ele>
        <time>2019-06-23T07:53:21.000Z</time>
      </trkpt>
      <trkpt lat="45.69491" lon="2.97526">
        <ele>951</ele>
        <time>2019-06-23T07:53:22.000Z</time>
      </trkpt>
      <trkpt lat="45.69487" lon="2.97523">
        <ele>951</ele>
        <time>2019-06-23T07:53:23.000Z</time>
      </trkpt>
      <trkpt lat="45.69483" lon="2.97521">
        <ele>951</ele>
        <time>2019-06-23T07:53:24.000Z</time>
      </trkpt>
      <trkpt lat="45.69479" lon="2.97518">
        <ele>953</ele>
        <time>2019-06-23T07:53:25.000Z</time>
      </trkpt>
      <trkpt lat="45.69475" lon="2.97513">
        <ele>952</ele>
        <time>2019-06-23T07:53:26.000Z</time>
      </trkpt>
      <trkpt lat="45.69472" lon="2.9751">
        <ele>953</ele>
        <time>2019-06-23T07:53:27.000Z</time>
      </trkpt>
      <trkpt lat="45.69469" lon="2.97506">
        <ele>954</ele>
        <time>2019-06-23T07:53:28.000Z</time>
      </trkpt>
      <trkpt lat="45.69466" lon="2.97503">
        <ele>954</ele>
        <time>2019-06-23T07:53:29.000Z</time>
      </trkpt>
      <trkpt lat="45.69464" lon="2.975">
        <ele>954</ele>
        <time>2019-06-23T07:53:30.000Z</time>
      </trkpt>
      <trkpt lat="45.69462" lon="2.97498">
        <ele>955</ele>
        <time>2019-06-23T07:53:31.000Z</time>
      </trkpt>
      <trkpt lat="45.69459" lon="2.97495">
        <ele>955</ele>
        <time>2019-06-23T07:53:32.000Z</time>
      </trkpt>
      <trkpt lat="45.69457" lon="2.97492">
        <ele>955</ele>
        <time>2019-06-23T07:53:33.000Z</time>
      </trkpt>
      <trkpt lat="45.69455" lon="2.97487">
        <ele>955</ele>
        <time>2019-06-23T07:53:34.000Z</time>
      </trkpt>
      <trkpt lat="45.69453" lon="2.97482">
        <ele>956</ele>
        <time>2019-06-23T07:53:35.000Z</time>
      </trkpt>
      <trkpt lat="45.69451" lon="2.97479">
        <ele>957</ele>
        <time>2019-06-23T07:53:36.000Z</time>
      </trkpt>
      <trkpt lat="45.6945" lon="2.97475">
        <ele>957</ele>
        <time>2019-06-23T07:53:37.000Z</time>
      </trkpt>
      <trkpt lat="45.69449" lon="2.97471">
        <ele>958</ele>
        <time>2019-06-23T07:53:38.000Z</time>
      </trkpt>
      <trkpt lat="45.69448" lon="2.97467">
        <ele>959</ele>
        <time>2019-06-23T07:53:39.000Z</time>
      </trkpt>
      <trkpt lat="45.69447" lon="2.97464">
        <ele>960</ele>
        <time>2019-06-23T07:53:40.000Z</time>
      </trkpt>
      <trkpt lat="45.69446" lon="2.97461">
        <ele>961</ele>
        <time>2019-06-23T07:53:41.000Z</time>
      </trkpt>
      <trkpt lat="45.69446" lon="2.97458">
        <ele>962</ele>
        <time>2019-06-23T07:53:42.000Z</time>
      </trkpt>
      <trkpt lat="45.69445" lon="2.97455">
        <ele>963</ele>
        <time>2019-06-23T07:53:43.000Z</time>
      </trkpt>
      <trkpt lat="45.69444" lon="2.97454">
        <ele>963</ele>
        <time>2019-06-23T07:53:44.000Z</time>
      </trkpt>
      <trkpt lat="45.69444" lon="2.9745">
        <ele>961</ele>
        <time>2019-06-23T07:53:45.000Z</time>
      </trkpt>
      <trkpt lat="45.69444" lon="2.97446">
        <ele>961</ele>
        <time>2019-06-23T07:53:46.000Z</time>
      </trkpt>
      <trkpt lat="45.69443" lon="2.97443">
        <ele>961</ele>
        <time>2019-06-23T07:53:47.000Z</time>
      </trkpt>
      <trkpt lat="45.69442" lon="2.9744">
        <ele>961</ele>
        <time>2019-06-23T07:53:48.000Z</time>
      </trkpt>
      <trkpt lat="45.69442" lon="2.97437">
        <ele>960</ele>
        <time>2019-06-23T07:53:49.000Z</time>
      </trkpt>
      <trkpt lat="45.69441" lon="2.97434">
        <ele>962</ele>
        <time>2019-06-23T07:53:50.000Z</time>
      </trkpt>
      <trkpt lat="45.6944" lon="2.97432">
        <ele>962</ele>
        <time>2019-06-23T07:53:51.000Z</time>
      </trkpt>
      <trkpt lat="45.69439" lon="2.97429">
        <ele>962</ele>
        <time>2019-06-23T07:53:52.000Z</time>
      </trkpt>
      <trkpt lat="45.69437" lon="2.97426">
        <ele>963</ele>
        <time>2019-06-23T07:53:53.000Z</time>
      </trkpt>
      <trkpt lat="45.69435" lon="2.97424">
        <ele>963</ele>
        <time>2019-06-23T07:53:54.000Z</time>
      </trkpt>
      <trkpt lat="45.69434" lon="2.97419">
        <ele>962</ele>
        <time>2019-06-23T07:53:55.000Z</time>
      </trkpt>
      <trkpt lat="45.69432" lon="2.97416">
        <ele>963</ele>
        <time>2019-06-23T07:53:56.000Z</time>
      </trkpt>
      <trkpt lat="45.69431" lon="2.97414">
        <ele>964</ele>
        <time>2019-06-23T07:53:57.000Z</time>
      </trkpt>
      <trkpt lat="45.6943" lon="2.97412">
        <ele>964</ele>
        <time>2019-06-23T07:53:58.000Z</time>
      </trkpt>
      <trkpt lat="45.69429" lon="2.97409">
        <ele>966</ele>
        <time>2019-06-23T07:53:59.000Z</time>
      </trkpt>
      <trkpt lat="45.69429" lon="2.97407">
        <ele>967</ele>
        <time>2019-06-23T07:54:00.000Z</time>
      </trkpt>
      <trkpt lat="45.69429" lon="2.97405">
        <ele>966</ele>
        <time>2019-06-23T07:54:01.000Z</time>
      </trkpt>
      <trkpt lat="45.69429" lon="2.97403">
        <ele>967</ele>
        <time>2019-06-23T07:54:02.000Z</time>
      </trkpt>
      <trkpt lat="45.69428" lon="2.974">
        <ele>967</ele>
        <time>2019-06-23T07:54:03.000Z</time>
      </trkpt>
      <trkpt lat="45.69428" lon="2.97398">
        <ele>968</ele>
        <time>2019-06-23T07:54:04.000Z</time>
      </trkpt>
      <trkpt lat="45.69428" lon="2.97395">
        <ele>969</ele>
        <time>2019-06-23T07:54:05.000Z</time>
      </trkpt>
      <trkpt lat="45.69427" lon="2.97392">
        <ele>970</ele>
        <time>2019-06-23T07:54:06.000Z</time>
      </trkpt>
      <trkpt lat="45.69427" lon="2.9739">
        <ele>971</ele>
        <time>2019-06-23T07:54:07.000Z</time>
      </trkpt>
      <trkpt lat="45.69427" lon="2.97386">
        <ele>972</ele>
        <time>2019-06-23T07:54:08.000Z</time>
      </trkpt>
      <trkpt lat="45.69427" lon="2.97383">
        <ele>974</ele>
        <time>2019-06-23T07:54:09.000Z</time>
      </trkpt>
      <trkpt lat="45.69427" lon="2.9738">
        <ele>976</ele>
        <time>2019-06-23T07:54:10.000Z</time>
      </trkpt>
      <trkpt lat="45.69426" lon="2.97377">
        <ele>977</ele>
        <time>2019-06-23T07:54:11.000Z</time>
      </trkpt>
      <trkpt lat="45.69426" lon="2.97375">
        <ele>978</ele>
        <time>2019-06-23T07:54:12.000Z</time>
      </trkpt>
      <trkpt lat="45.69426" lon="2.97372">
        <ele>980</ele>
        <time>2019-06-23T07:54:13.000Z</time>
      </trkpt>
      <trkpt lat="45.69426" lon="2.97369">
        <ele>982</ele>
        <time>2019-06-23T07:54:14.000Z</time>
      </trkpt>
      <trkpt lat="45.69426" lon="2.97366">
        <ele>982</ele>
        <time>2019-06-23T07:54:15.000Z</time>
      </trkpt>
      <trkpt lat="45.69426" lon="2.97363">
        <ele>982</ele>
        <time>2019-06-23T07:54:16.000Z</time>
      </trkpt>
      <trkpt lat="45.69426" lon="2.9736">
        <ele>983</ele>
        <time>2019-06-23T07:54:17.000Z</time>
      </trkpt>
      <trkpt lat="45.69426" lon="2.97358">
        <ele>983</ele>
        <time>2019-06-23T07:54:18.000Z</time>
      </trkpt>
      <trkpt lat="45.69428" lon="2.97355">
        <ele>983</ele>
        <time>2019-06-23T07:54:19.000Z</time>
      </trkpt>
      <trkpt lat="45.69429" lon="2.97352">
        <ele>982</ele>
        <time>2019-06-23T07:54:20.000Z</time>
      </trkpt>
      <trkpt lat="45.69429" lon="2.97349">
        <ele>982</ele>
        <time>2019-06-23T07:54:21.000Z</time>
      </trkpt>
      <trkpt lat="45.6943" lon="2.97346">
        <ele>982</ele>
        <time>2019-06-23T07:54:22.000Z</time>
      </trkpt>
      <trkpt lat="45.69431" lon="2.97344">
        <ele>982</ele>
        <time>2019-06-23T07:54:23.000Z</time>
      </trkpt>
      <trkpt lat="45.69432" lon="2.97341">
        <ele>981</ele>
        <time>2019-06-23T07:54:24.000Z</time>
      </trkpt>
      <trkpt lat="45.69432" lon="2.97339">
        <ele>982</ele>
        <time>2019-06-23T07:54:25.000Z</time>
      </trkpt>
      <trkpt lat="45.69433" lon="2.97337">
        <ele>982</ele>
        <time>2019-06-23T07:54:26.000Z</time>
      </trkpt>
      <trkpt lat="45.69434" lon="2.97332">
        <ele>978</ele>
        <time>2019-06-23T07:54:27.000Z</time>
      </trkpt>
      <trkpt lat="45.69435" lon="2.9733">
        <ele>978</ele>
        <time>2019-06-23T07:54:28.000Z</time>
      </trkpt>
      <trkpt lat="45.69435" lon="2.97328">
        <ele>978</ele>
        <time>2019-06-23T07:54:29.000Z</time>
      </trkpt>
      <trkpt lat="45.69436" lon="2.97325">
        <ele>978</ele>
        <time>2019-06-23T07:54:30.000Z</time>
      </trkpt>
      <trkpt lat="45.69436" lon="2.97322">
        <ele>978</ele>
        <time>2019-06-23T07:54:31.000Z</time>
      </trkpt>
      <trkpt lat="45.69437" lon="2.9732">
        <ele>978</ele>
        <time>2019-06-23T07:54:32.000Z</time>
      </trkpt>
      <trkpt lat="45.69438" lon="2.97318">
        <ele>979</ele>
        <time>2019-06-23T07:54:33.000Z</time>
      </trkpt>
      <trkpt lat="45.69438" lon="2.97316">
        <ele>979</ele>
        <time>2019-06-23T07:54:34.000Z</time>
      </trkpt>
      <trkpt lat="45.69439" lon="2.97314">
        <ele>979</ele>
        <time>2019-06-23T07:54:35.000Z</time>
      </trkpt>
      <trkpt lat="45.69439" lon="2.97312">
        <ele>979</ele>
        <time>2019-06-23T07:54:36.000Z</time>
      </trkpt>
      <trkpt lat="45.6944" lon="2.97309">
        <ele>981</ele>
        <time>2019-06-23T07:54:37.000Z</time>
      </trkpt>
      <trkpt lat="45.69441" lon="2.97307">
        <ele>982</ele>
        <time>2019-06-23T07:54:38.000Z</time>
      </trkpt>
      <trkpt lat="45.69441" lon="2.97304">
        <ele>982</ele>
        <time>2019-06-23T07:54:39.000Z</time>
      </trkpt>
      <trkpt lat="45.69441" lon="2.97302">
        <ele>982</ele>
        <time>2019-06-23T07:54:40.000Z</time>
      </trkpt>
      <trkpt lat="45.69442" lon="2.973">
        <ele>982</ele>
        <time>2019-06-23T07:54:41.000Z</time>
      </trkpt>
      <trkpt lat="45.69441" lon="2.97299">
        <ele>983</ele>
        <time>2019-06-23T07:54:42.000Z</time>
      </trkpt>
      <trkpt lat="45.69441" lon="2.97297">
        <ele>984</ele>
        <time>2019-06-23T07:54:43.000Z</time>
      </trkpt>
      <trkpt lat="45.69442" lon="2.97295">
        <ele>983</ele>
        <time>2019-06-23T07:54:44.000Z</time>
      </trkpt>
      <trkpt lat="45.69442" lon="2.97292">
        <ele>984</ele>
        <time>2019-06-23T07:54:45.000Z</time>
      </trkpt>
      <trkpt lat="45.69442" lon="2.97289">
        <ele>984</ele>
        <time>2019-06-23T07:54:46.000Z</time>
      </trkpt>
      <trkpt lat="45.69442" lon="2.97285">
        <ele>985</ele>
        <time>2019-06-23T07:54:47.000Z</time>
      </trkpt>
      <trkpt lat="45.69442" lon="2.97283">
        <ele>986</ele>
        <time>2019-06-23T07:54:48.000Z</time>
      </trkpt>
      <trkpt lat="45.69443" lon="2.9728">
        <ele>986</ele>
        <time>2019-06-23T07:54:49.000Z</time>
      </trkpt>
      <trkpt lat="45.69443" lon="2.97278">
        <ele>985</ele>
        <time>2019-06-23T07:54:50.000Z</time>
      </trkpt>
      <trkpt lat="45.69443" lon="2.97275">
        <ele>984</ele>
        <time>2019-06-23T07:54:51.000Z</time>
      </trkpt>
      <trkpt lat="45.69443" lon="2.97272">
        <ele>985</ele>
        <time>2019-06-23T07:54:52.000Z</time>
      </trkpt>
      <trkpt lat="45.69444" lon="2.9727">
        <ele>986</ele>
        <time>2019-06-23T07:54:53.000Z</time>
      </trkpt>
      <trkpt lat="45.69444" lon="2.97268">
        <ele>986</ele>
        <time>2019-06-23T07:54:54.000Z</time>
      </trkpt>
      <trkpt lat="45.69444" lon="2.97265">
        <ele>986</ele>
        <time>2019-06-23T07:54:55.000Z</time>
      </trkpt>
      <trkpt lat="45.69444" lon="2.97261">
        <ele>984</ele>
        <time>2019-06-23T07:54:56.000Z</time>
      </trkpt>
      <trkpt lat="45.69446" lon="2.97257">
        <ele>982</ele>
        <time>2019-06-23T07:54:57.000Z</time>
      </trkpt>
      <trkpt lat="45.69446" lon="2.97254">
        <ele>982</ele>
        <time>2019-06-23T07:54:58.000Z</time>
      </trkpt>
      <trkpt lat="45.69446" lon="2.97252">
        <ele>983</ele>
        <time>2019-06-23T07:54:59.000Z</time>
      </trkpt>
      <trkpt lat="45.69445" lon="2.97249">
        <ele>982</ele>
        <time>2019-06-23T07:55:00.000Z</time>
      </trkpt>
      <trkpt lat="45.69444" lon="2.97247">
        <ele>982</ele>
        <time>2019-06-23T07:55:01.000Z</time>
      </trkpt>
      <trkpt lat="45.69444" lon="2.97245">
        <ele>983</ele>
        <time>2019-06-23T07:55:02.000Z</time>
      </trkpt>
      <trkpt lat="45.69444" lon="2.97242">
        <ele>984</ele>
        <time>2019-06-23T07:55:03.000Z</time>
      </trkpt>
      <trkpt lat="45.69444" lon="2.97239">
        <ele>986</ele>
        <time>2019-06-23T07:55:04.000Z</time>
      </trkpt>
      <trkpt lat="45.69445" lon="2.97235">
        <ele>986</ele>
        <time>2019-06-23T07:55:05.000Z</time>
      </trkpt>
      <trkpt lat="45.69446" lon="2.97231">
        <ele>985</ele>
        <time>2019-06-23T07:55:06.000Z</time>
      </trkpt>
      <trkpt lat="45.69447" lon="2.97227">
        <ele>985</ele>
        <time>2019-06-23T07:55:07.000Z</time>
      </trkpt>
      <trkpt lat="45.69448" lon="2.97223">
        <ele>984</ele>
        <time>2019-06-23T07:55:08.000Z</time>
      </trkpt>
      <trkpt lat="45.69449" lon="2.9722">
        <ele>984</ele>
        <time>2019-06-23T07:55:09.000Z</time>
      </trkpt>
      <trkpt lat="45.69451" lon="2.97214">
        <ele>982</ele>
        <time>2019-06-23T07:55:10.000Z</time>
      </trkpt>
      <trkpt lat="45.69452" lon="2.9721">
        <ele>982</ele>
        <time>2019-06-23T07:55:11.000Z</time>
      </trkpt>
      <trkpt lat="45.69454" lon="2.97205">
        <ele>981</ele>
        <time>2019-06-23T07:55:12.000Z</time>
      </trkpt>
      <trkpt lat="45.69455" lon="2.972">
        <ele>978</ele>
        <time>2019-06-23T07:55:13.000Z</time>
      </trkpt>
      <trkpt lat="45.69456" lon="2.97196">
        <ele>977</ele>
        <time>2019-06-23T07:55:14.000Z</time>
      </trkpt>
      <trkpt lat="45.69456" lon="2.97192">
        <ele>976</ele>
        <time>2019-06-23T07:55:15.000Z</time>
      </trkpt>
      <trkpt lat="45.69456" lon="2.97189">
        <ele>975</ele>
        <time>2019-06-23T07:55:16.000Z</time>
      </trkpt>
      <trkpt lat="45.69457" lon="2.97186">
        <ele>975</ele>
        <time>2019-06-23T07:55:17.000Z</time>
      </trkpt>
      <trkpt lat="45.69457" lon="2.97184">
        <ele>976</ele>
        <time>2019-06-23T07:55:18.000Z</time>
      </trkpt>
      <trkpt lat="45.69458" lon="2.97182">
        <ele>976</ele>
        <time>2019-06-23T07:55:19.000Z</time>
      </trkpt>
      <trkpt lat="45.69458" lon="2.97179">
        <ele>976</ele>
        <time>2019-06-23T07:55:20.000Z</time>
      </trkpt>
      <trkpt lat="45.69459" lon="2.97176">
        <ele>976</ele>
        <time>2019-06-23T07:55:21.000Z</time>
      </trkpt>
      <trkpt lat="45.69459" lon="2.97174">
        <ele>976</ele>
        <time>2019-06-23T07:55:22.000Z</time>
      </trkpt>
      <trkpt lat="45.6946" lon="2.97172">
        <ele>976</ele>
        <time>2019-06-23T07:55:23.000Z</time>
      </trkpt>
      <trkpt lat="45.6946" lon="2.97171">
        <ele>977</ele>
        <time>2019-06-23T07:55:24.000Z</time>
      </trkpt>
      <trkpt lat="45.69461" lon="2.97169">
        <ele>977</ele>
        <time>2019-06-23T07:55:25.000Z</time>
      </trkpt>
      <trkpt lat="45.69461" lon="2.97167">
        <ele>978</ele>
        <time>2019-06-23T07:55:26.000Z</time>
      </trkpt>
      <trkpt lat="45.69461" lon="2.97163">
        <ele>980</ele>
        <time>2019-06-23T07:55:27.000Z</time>
      </trkpt>
      <trkpt lat="45.69462" lon="2.9716">
        <ele>982</ele>
        <time>2019-06-23T07:55:28.000Z</time>
      </trkpt>
      <trkpt lat="45.69463" lon="2.97157">
        <ele>982</ele>
        <time>2019-06-23T07:55:29.000Z</time>
      </trkpt>
      <trkpt lat="45.69464" lon="2.97154">
        <ele>983</ele>
        <time>2019-06-23T07:55:30.000Z</time>
      </trkpt>
      <trkpt lat="45.69464" lon="2.97151">
        <ele>984</ele>
        <time>2019-06-23T07:55:31.000Z</time>
      </trkpt>
      <trkpt lat="45.69465" lon="2.97148">
        <ele>985</ele>
        <time>2019-06-23T07:55:32.000Z</time>
      </trkpt>
      <trkpt lat="45.69465" lon="2.97146">
        <ele>986</ele>
        <time>2019-06-23T07:55:33.000Z</time>
      </trkpt>
      <trkpt lat="45.69465" lon="2.97144">
        <ele>987</ele>
        <time>2019-06-23T07:55:34.000Z</time>
      </trkpt>
      <trkpt lat="45.69466" lon="2.97142">
        <ele>988</ele>
        <time>2019-06-23T07:55:35.000Z</time>
      </trkpt>
      <trkpt lat="45.69467" lon="2.9714">
        <ele>989</ele>
        <time>2019-06-23T07:55:36.000Z</time>
      </trkpt>
      <trkpt lat="45.69468" lon="2.97138">
        <ele>991</ele>
        <time>2019-06-23T07:55:37.000Z</time>
      </trkpt>
      <trkpt lat="45.6947" lon="2.97134">
        <ele>989</ele>
        <time>2019-06-23T07:55:38.000Z</time>
      </trkpt>
      <trkpt lat="45.6947" lon="2.97131">
        <ele>989</ele>
        <time>2019-06-23T07:55:39.000Z</time>
      </trkpt>
      <trkpt lat="45.69471" lon="2.97128">
        <ele>990</ele>
        <time>2019-06-23T07:55:40.000Z</time>
      </trkpt>
      <trkpt lat="45.69471" lon="2.97125">
        <ele>992</ele>
        <time>2019-06-23T07:55:41.000Z</time>
      </trkpt>
      <trkpt lat="45.69472" lon="2.97122">
        <ele>992</ele>
        <time>2019-06-23T07:55:42.000Z</time>
      </trkpt>
      <trkpt lat="45.69472" lon="2.9712">
        <ele>993</ele>
        <time>2019-06-23T07:55:43.000Z</time>
      </trkpt>
      <trkpt lat="45.69474" lon="2.97117">
        <ele>993</ele>
        <time>2019-06-23T07:55:44.000Z</time>
      </trkpt>
      <trkpt lat="45.69476" lon="2.97112">
        <ele>991</ele>
        <time>2019-06-23T07:55:45.000Z</time>
      </trkpt>
      <trkpt lat="45.69478" lon="2.97109">
        <ele>990</ele>
        <time>2019-06-23T07:55:46.000Z</time>
      </trkpt>
      <trkpt lat="45.69479" lon="2.97107">
        <ele>990</ele>
        <time>2019-06-23T07:55:47.000Z</time>
      </trkpt>
      <trkpt lat="45.6948" lon="2.97104">
        <ele>989</ele>
        <time>2019-06-23T07:55:48.000Z</time>
      </trkpt>
      <trkpt lat="45.69481" lon="2.97102">
        <ele>989</ele>
        <time>2019-06-23T07:55:49.000Z</time>
      </trkpt>
      <trkpt lat="45.69482" lon="2.97099">
        <ele>989</ele>
        <time>2019-06-23T07:55:50.000Z</time>
      </trkpt>
      <trkpt lat="45.69482" lon="2.97097">
        <ele>989</ele>
        <time>2019-06-23T07:55:51.000Z</time>
      </trkpt>
      <trkpt lat="45.69483" lon="2.97094">
        <ele>989</ele>
        <time>2019-06-23T07:55:52.000Z</time>
      </trkpt>
      <trkpt lat="45.69484" lon="2.97091">
        <ele>990</ele>
        <time>2019-06-23T07:55:53.000Z</time>
      </trkpt>
      <trkpt lat="45.69485" lon="2.97087">
        <ele>990</ele>
        <time>2019-06-23T07:55:54.000Z</time>
      </trkpt>
      <trkpt lat="45.69486" lon="2.97085">
        <ele>991</ele>
        <time>2019-06-23T07:55:55.000Z</time>
      </trkpt>
      <trkpt lat="45.69486" lon="2.97083">
        <ele>991</ele>
        <time>2019-06-23T07:55:56.000Z</time>
      </trkpt>
      <trkpt lat="45.69487" lon="2.97081">
        <ele>991</ele>
        <time>2019-06-23T07:55:57.000Z</time>
      </trkpt>
      <trkpt lat="45.69487" lon="2.9708">
        <ele>992</ele>
        <time>2019-06-23T07:55:58.000Z</time>
      </trkpt>
      <trkpt lat="45.69487" lon="2.97078">
        <ele>992</ele>
        <time>2019-06-23T07:55:59.000Z</time>
      </trkpt>
      <trkpt lat="45.69488" lon="2.97076">
        <ele>991</ele>
        <time>2019-06-23T07:56:00.000Z</time>
      </trkpt>
      <trkpt lat="45.69488" lon="2.97074">
        <ele>991</ele>
        <time>2019-06-23T07:56:01.000Z</time>
      </trkpt>
      <trkpt lat="45.69489" lon="2.97072">
        <ele>990</ele>
        <time>2019-06-23T07:56:02.000Z</time>
      </trkpt>
      <trkpt lat="45.69494" lon="2.97061">
        <ele>983</ele>
        <time>2019-06-23T07:56:03.000Z</time>
      </trkpt>
      <trkpt lat="45.69494" lon="2.9706">
        <ele>982</ele>
        <time>2019-06-23T07:56:04.000Z</time>
      </trkpt>
      <trkpt lat="45.69495" lon="2.97059">
        <ele>982</ele>
        <time>2019-06-23T07:56:05.000Z</time>
      </trkpt>
      <trkpt lat="45.69495" lon="2.97058">
        <ele>982</ele>
        <time>2019-06-23T07:56:06.000Z</time>
      </trkpt>
      <trkpt lat="45.69495" lon="2.97057">
        <ele>982</ele>
        <time>2019-06-23T07:56:07.000Z</time>
      </trkpt>
      <trkpt lat="45.69495" lon="2.97057">
        <ele>982</ele>
        <time>2019-06-23T07:56:08.000Z</time>
      </trkpt>
      <trkpt lat="45.69496" lon="2.97056">
        <ele>982</ele>
        <time>2019-06-23T07:56:09.000Z</time>
      </trkpt>
      <trkpt lat="45.69496" lon="2.97056">
        <ele>982</ele>
        <time>2019-06-23T07:56:10.000Z</time>
      </trkpt>
      <trkpt lat="45.69496" lon="2.97055">
        <ele>982</ele>
        <time>2019-06-23T07:56:11.000Z</time>
      </trkpt>
      <trkpt lat="45.69497" lon="2.97054">
        <ele>983</ele>
        <time>2019-06-23T07:56:12.000Z</time>
      </trkpt>
      <trkpt lat="45.69497" lon="2.97052">
        <ele>983</ele>
        <time>2019-06-23T07:56:13.000Z</time>
      </trkpt>
      <trkpt lat="45.69498" lon="2.97051">
        <ele>983</ele>
        <time>2019-06-23T07:56:14.000Z</time>
      </trkpt>
      <trkpt lat="45.69499" lon="2.9705">
        <ele>983</ele>
        <time>2019-06-23T07:56:15.000Z</time>
      </trkpt>
      <trkpt lat="45.69499" lon="2.97049">
        <ele>983</ele>
        <time>2019-06-23T07:56:16.000Z</time>
      </trkpt>
      <trkpt lat="45.695" lon="2.97048">
        <ele>984</ele>
        <time>2019-06-23T07:56:17.000Z</time>
      </trkpt>
      <trkpt lat="45.695" lon="2.97047">
        <ele>984</ele>
        <time>2019-06-23T07:56:18.000Z</time>
      </trkpt>
      <trkpt lat="45.69501" lon="2.97046">
        <ele>985</ele>
        <time>2019-06-23T07:56:19.000Z</time>
      </trkpt>
      <trkpt lat="45.69501" lon="2.97045">
        <ele>985</ele>
        <time>2019-06-23T07:56:20.000Z</time>
      </trkpt>
      <trkpt lat="45.69502" lon="2.97044">
        <ele>986</ele>
        <time>2019-06-23T07:56:21.000Z</time>
      </trkpt>
      <trkpt lat="45.69503" lon="2.97043">
        <ele>987</ele>
        <time>2019-06-23T07:56:22.000Z</time>
      </trkpt>
      <trkpt lat="45.69505" lon="2.9704">
        <ele>985</ele>
        <time>2019-06-23T07:56:23.000Z</time>
      </trkpt>
      <trkpt lat="45.69507" lon="2.97037">
        <ele>984</ele>
        <time>2019-06-23T07:56:24.000Z</time>
      </trkpt>
      <trkpt lat="45.69508" lon="2.97035">
        <ele>984</ele>
        <time>2019-06-23T07:56:25.000Z</time>
      </trkpt>
      <trkpt lat="45.69509" lon="2.97033">
        <ele>983</ele>
        <time>2019-06-23T07:56:26.000Z</time>
      </trkpt>
      <trkpt lat="45.69511" lon="2.97032">
        <ele>983</ele>
        <time>2019-06-23T07:56:27.000Z</time>
      </trkpt>
      <trkpt lat="45.69513" lon="2.97029">
        <ele>984</ele>
        <time>2019-06-23T07:56:28.000Z</time>
      </trkpt>
      <trkpt lat="45.69514" lon="2.97027">
        <ele>983</ele>
        <time>2019-06-23T07:56:29.000Z</time>
      </trkpt>
      <trkpt lat="45.69516" lon="2.97025">
        <ele>984</ele>
        <time>2019-06-23T07:56:30.000Z</time>
      </trkpt>
      <trkpt lat="45.69517" lon="2.97024">
        <ele>984</ele>
        <time>2019-06-23T07:56:31.000Z</time>
      </trkpt>
      <trkpt lat="45.69519" lon="2.97022">
        <ele>984</ele>
        <time>2019-06-23T07:56:32.000Z</time>
      </trkpt>
      <trkpt lat="45.6952" lon="2.9702">
        <ele>985</ele>
        <time>2019-06-23T07:56:33.000Z</time>
      </trkpt>
      <trkpt lat="45.69521" lon="2.97018">
        <ele>986</ele>
        <time>2019-06-23T07:56:34.000Z</time>
      </trkpt>
      <trkpt lat="45.69521" lon="2.97016">
        <ele>987</ele>
        <time>2019-06-23T07:56:35.000Z</time>
      </trkpt>
      <trkpt lat="45.69522" lon="2.97015">
        <ele>987</ele>
        <time>2019-06-23T07:56:36.000Z</time>
      </trkpt>
      <trkpt lat="45.69524" lon="2.97013">
        <ele>987</ele>
        <time>2019-06-23T07:56:37.000Z</time>
      </trkpt>
      <trkpt lat="45.69525" lon="2.9701">
        <ele>986</ele>
        <time>2019-06-23T07:56:38.000Z</time>
      </trkpt>
      <trkpt lat="45.69526" lon="2.97008">
        <ele>986</ele>
        <time>2019-06-23T07:56:39.000Z</time>
      </trkpt>
      <trkpt lat="45.69526" lon="2.97007">
        <ele>986</ele>
        <time>2019-06-23T07:56:40.000Z</time>
      </trkpt>
      <trkpt lat="45.69527" lon="2.97004">
        <ele>986</ele>
        <time>2019-06-23T07:56:41.000Z</time>
      </trkpt>
      <trkpt lat="45.69524" lon="2.97004">
        <ele>987</ele>
        <time>2019-06-23T07:56:42.000Z</time>
      </trkpt>
      <trkpt lat="45.69524" lon="2.97003">
        <ele>987</ele>
        <time>2019-06-23T07:56:43.000Z</time>
      </trkpt>
      <trkpt lat="45.69524" lon="2.97001">
        <ele>988</ele>
        <time>2019-06-23T07:56:44.000Z</time>
      </trkpt>
      <trkpt lat="45.69524" lon="2.97">
        <ele>989</ele>
        <time>2019-06-23T07:56:45.000Z</time>
      </trkpt>
      <trkpt lat="45.69524" lon="2.96998">
        <ele>990</ele>
        <time>2019-06-23T07:56:46.000Z</time>
      </trkpt>
      <trkpt lat="45.69523" lon="2.96998">
        <ele>989</ele>
        <time>2019-06-23T07:56:47.000Z</time>
      </trkpt>
      <trkpt lat="45.69523" lon="2.96997">
        <ele>989</ele>
        <time>2019-06-23T07:56:48.000Z</time>
      </trkpt>
      <trkpt lat="45.69521" lon="2.96996">
        <ele>990</ele>
        <time>2019-06-23T07:56:49.000Z</time>
      </trkpt>
      <trkpt lat="45.69522" lon="2.96994">
        <ele>988</ele>
        <time>2019-06-23T07:56:50.000Z</time>
      </trkpt>
      <trkpt lat="45.69522" lon="2.96993">
        <ele>987</ele>
        <time>2019-06-23T07:56:51.000Z</time>
      </trkpt>
      <trkpt lat="45.6952" lon="2.96994">
        <ele>988</ele>
        <time>2019-06-23T07:56:52.000Z</time>
      </trkpt>
      <trkpt lat="45.69519" lon="2.96994">
        <ele>989</ele>
        <time>2019-06-23T07:56:53.000Z</time>
      </trkpt>
      <trkpt lat="45.69519" lon="2.96994">
        <ele>988</ele>
        <time>2019-06-23T07:56:54.000Z</time>
      </trkpt>
      <trkpt lat="45.69519" lon="2.96994">
        <ele>988</ele>
        <time>2019-06-23T07:56:55.000Z</time>
      </trkpt>
      <trkpt lat="45.69525" lon="2.96985">
        <ele>977</ele>
        <time>2019-06-23T07:56:56.000Z</time>
      </trkpt>
      <trkpt lat="45.69524" lon="2.96983">
        <ele>977</ele>
        <time>2019-06-23T07:56:57.000Z</time>
      </trkpt>
      <trkpt lat="45.69522" lon="2.96982">
        <ele>977</ele>
        <time>2019-06-23T07:56:58.000Z</time>
      </trkpt>
      <trkpt lat="45.69521" lon="2.9698">
        <ele>977</ele>
        <time>2019-06-23T07:56:59.000Z</time>
      </trkpt>
      <trkpt lat="45.6952" lon="2.96978">
        <ele>978</ele>
        <time>2019-06-23T07:57:00.000Z</time>
      </trkpt>
      <trkpt lat="45.69519" lon="2.96977">
        <ele>978</ele>
        <time>2019-06-23T07:57:01.000Z</time>
      </trkpt>
      <trkpt lat="45.69518" lon="2.96976">
        <ele>979</ele>
        <time>2019-06-23T07:57:02.000Z</time>
      </trkpt>
      <trkpt lat="45.69519" lon="2.96974">
        <ele>979</ele>
        <time>2019-06-23T07:57:03.000Z</time>
      </trkpt>
      <trkpt lat="45.6952" lon="2.96972">
        <ele>981</ele>
        <time>2019-06-23T07:57:04.000Z</time>
      </trkpt>
      <trkpt lat="45.6952" lon="2.9697">
        <ele>982</ele>
        <time>2019-06-23T07:57:05.000Z</time>
      </trkpt>
      <trkpt lat="45.6952" lon="2.96969">
        <ele>984</ele>
        <time>2019-06-23T07:57:06.000Z</time>
      </trkpt>
      <trkpt lat="45.6952" lon="2.96967">
        <ele>984</ele>
        <time>2019-06-23T07:57:07.000Z</time>
      </trkpt>
      <trkpt lat="45.6952" lon="2.96965">
        <ele>984</ele>
        <time>2019-06-23T07:57:08.000Z</time>
      </trkpt>
      <trkpt lat="45.6952" lon="2.96963">
        <ele>985</ele>
        <time>2019-06-23T07:57:09.000Z</time>
      </trkpt>
      <trkpt lat="45.69519" lon="2.96961">
        <ele>986</ele>
        <time>2019-06-23T07:57:10.000Z</time>
      </trkpt>
      <trkpt lat="45.69519" lon="2.96959">
        <ele>987</ele>
        <time>2019-06-23T07:57:11.000Z</time>
      </trkpt>
      <trkpt lat="45.69517" lon="2.96958">
        <ele>988</ele>
        <time>2019-06-23T07:57:12.000Z</time>
      </trkpt>
      <trkpt lat="45.69517" lon="2.96956">
        <ele>989</ele>
        <time>2019-06-23T07:57:13.000Z</time>
      </trkpt>
      <trkpt lat="45.69518" lon="2.96954">
        <ele>989</ele>
        <time>2019-06-23T07:57:14.000Z</time>
      </trkpt>
      <trkpt lat="45.69519" lon="2.96949">
        <ele>992</ele>
        <time>2019-06-23T07:57:15.000Z</time>
      </trkpt>
      <trkpt lat="45.69518" lon="2.96947">
        <ele>992</ele>
        <time>2019-06-23T07:57:16.000Z</time>
      </trkpt>
      <trkpt lat="45.69518" lon="2.96944">
        <ele>992</ele>
        <time>2019-06-23T07:57:17.000Z</time>
      </trkpt>
      <trkpt lat="45.69518" lon="2.96941">
        <ele>993</ele>
        <time>2019-06-23T07:57:18.000Z</time>
      </trkpt>
      <trkpt lat="45.6952" lon="2.96937">
        <ele>992</ele>
        <time>2019-06-23T07:57:19.000Z</time>
      </trkpt>
      <trkpt lat="45.69521" lon="2.96931">
        <ele>991</ele>
        <time>2019-06-23T07:57:20.000Z</time>
      </trkpt>
      <trkpt lat="45.69521" lon="2.96927">
        <ele>993</ele>
        <time>2019-06-23T07:57:21.000Z</time>
      </trkpt>
      <trkpt lat="45.69522" lon="2.96924">
        <ele>993</ele>
        <time>2019-06-23T07:57:22.000Z</time>
      </trkpt>
      <trkpt lat="45.69522" lon="2.96921">
        <ele>992</ele>
        <time>2019-06-23T07:57:23.000Z</time>
      </trkpt>
      <trkpt lat="45.69525" lon="2.96917">
        <ele>990</ele>
        <time>2019-06-23T07:57:24.000Z</time>
      </trkpt>
      <trkpt lat="45.69525" lon="2.96915">
        <ele>990</ele>
        <time>2019-06-23T07:57:25.000Z</time>
      </trkpt>
      <trkpt lat="45.69526" lon="2.96912">
        <ele>991</ele>
        <time>2019-06-23T07:57:26.000Z</time>
      </trkpt>
      <trkpt lat="45.69527" lon="2.96909">
        <ele>991</ele>
        <time>2019-06-23T07:57:27.000Z</time>
      </trkpt>
      <trkpt lat="45.69527" lon="2.96906">
        <ele>992</ele>
        <time>2019-06-23T07:57:28.000Z</time>
      </trkpt>
      <trkpt lat="45.69528" lon="2.96903">
        <ele>992</ele>
        <time>2019-06-23T07:57:29.000Z</time>
      </trkpt>
      <trkpt lat="45.69529" lon="2.96899">
        <ele>991</ele>
        <time>2019-06-23T07:57:30.000Z</time>
      </trkpt>
      <trkpt lat="45.6953" lon="2.96895">
        <ele>989</ele>
        <time>2019-06-23T07:57:31.000Z</time>
      </trkpt>
      <trkpt lat="45.69532" lon="2.96891">
        <ele>989</ele>
        <time>2019-06-23T07:57:32.000Z</time>
      </trkpt>
      <trkpt lat="45.69533" lon="2.96886">
        <ele>988</ele>
        <time>2019-06-23T07:57:33.000Z</time>
      </trkpt>
      <trkpt lat="45.69534" lon="2.96882">
        <ele>987</ele>
        <time>2019-06-23T07:57:34.000Z</time>
      </trkpt>
      <trkpt lat="45.69536" lon="2.96879">
        <ele>986</ele>
        <time>2019-06-23T07:57:35.000Z</time>
      </trkpt>
      <trkpt lat="45.69538" lon="2.96876">
        <ele>984</ele>
        <time>2019-06-23T07:57:36.000Z</time>
      </trkpt>
      <trkpt lat="45.69541" lon="2.96872">
        <ele>983</ele>
        <time>2019-06-23T07:57:37.000Z</time>
      </trkpt>
      <trkpt lat="45.69544" lon="2.9687">
        <ele>981</ele>
        <time>2019-06-23T07:57:38.000Z</time>
      </trkpt>
      <trkpt lat="45.69548" lon="2.96864">
        <ele>979</ele>
        <time>2019-06-23T07:57:39.000Z</time>
      </trkpt>
      <trkpt lat="45.6955" lon="2.9686">
        <ele>978</ele>
        <time>2019-06-23T07:57:40.000Z</time>
      </trkpt>
      <trkpt lat="45.69552" lon="2.96856">
        <ele>977</ele>
        <time>2019-06-23T07:57:41.000Z</time>
      </trkpt>
      <trkpt lat="45.69554" lon="2.96851">
        <ele>974</ele>
        <time>2019-06-23T07:57:42.000Z</time>
      </trkpt>
      <trkpt lat="45.69555" lon="2.96846">
        <ele>971</ele>
        <time>2019-06-23T07:57:43.000Z</time>
      </trkpt>
      <trkpt lat="45.69557" lon="2.96843">
        <ele>969</ele>
        <time>2019-06-23T07:57:44.000Z</time>
      </trkpt>
      <trkpt lat="45.69558" lon="2.96839">
        <ele>966</ele>
        <time>2019-06-23T07:57:45.000Z</time>
      </trkpt>
      <trkpt lat="45.69559" lon="2.96834">
        <ele>966</ele>
        <time>2019-06-23T07:57:46.000Z</time>
      </trkpt>
      <trkpt lat="45.69558" lon="2.9683">
        <ele>966</ele>
        <time>2019-06-23T07:57:47.000Z</time>
      </trkpt>
      <trkpt lat="45.69555" lon="2.96829">
        <ele>966</ele>
        <time>2019-06-23T07:57:48.000Z</time>
      </trkpt>
      <trkpt lat="45.69555" lon="2.96827">
        <ele>965</ele>
        <time>2019-06-23T07:57:49.000Z</time>
      </trkpt>
      <trkpt lat="45.69554" lon="2.96824">
        <ele>965</ele>
        <time>2019-06-23T07:57:50.000Z</time>
      </trkpt>
      <trkpt lat="45.69551" lon="2.96821">
        <ele>964</ele>
        <time>2019-06-23T07:57:51.000Z</time>
      </trkpt>
      <trkpt lat="45.69549" lon="2.96818">
        <ele>963</ele>
        <time>2019-06-23T07:57:52.000Z</time>
      </trkpt>
      <trkpt lat="45.69548" lon="2.96814">
        <ele>964</ele>
        <time>2019-06-23T07:57:53.000Z</time>
      </trkpt>
      <trkpt lat="45.69545" lon="2.96811">
        <ele>966</ele>
        <time>2019-06-23T07:57:54.000Z</time>
      </trkpt>
      <trkpt lat="45.69542" lon="2.96806">
        <ele>964</ele>
        <time>2019-06-23T07:57:55.000Z</time>
      </trkpt>
      <trkpt lat="45.69541" lon="2.96802">
        <ele>965</ele>
        <time>2019-06-23T07:57:56.000Z</time>
      </trkpt>
      <trkpt lat="45.69541" lon="2.96797">
        <ele>964</ele>
        <time>2019-06-23T07:57:57.000Z</time>
      </trkpt>
      <trkpt lat="45.69541" lon="2.96791">
        <ele>964</ele>
        <time>2019-06-23T07:57:58.000Z</time>
      </trkpt>
      <trkpt lat="45.69541" lon="2.96786">
        <ele>966</ele>
        <time>2019-06-23T07:57:59.000Z</time>
      </trkpt>
      <trkpt lat="45.6954" lon="2.96781">
        <ele>966</ele>
        <time>2019-06-23T07:58:00.000Z</time>
      </trkpt>
      <trkpt lat="45.69539" lon="2.96775">
        <ele>965</ele>
        <time>2019-06-23T07:58:01.000Z</time>
      </trkpt>
      <trkpt lat="45.69538" lon="2.96771">
        <ele>964</ele>
        <time>2019-06-23T07:58:02.000Z</time>
      </trkpt>
      <trkpt lat="45.69537" lon="2.96767">
        <ele>964</ele>
        <time>2019-06-23T07:58:03.000Z</time>
      </trkpt>
      <trkpt lat="45.69536" lon="2.96762">
        <ele>964</ele>
        <time>2019-06-23T07:58:04.000Z</time>
      </trkpt>
      <trkpt lat="45.69534" lon="2.96759">
        <ele>964</ele>
        <time>2019-06-23T07:58:05.000Z</time>
      </trkpt>
      <trkpt lat="45.69532" lon="2.96756">
        <ele>964</ele>
        <time>2019-06-23T07:58:06.000Z</time>
      </trkpt>
      <trkpt lat="45.69529" lon="2.96752">
        <ele>968</ele>
        <time>2019-06-23T07:58:07.000Z</time>
      </trkpt>
      <trkpt lat="45.69527" lon="2.96748">
        <ele>970</ele>
        <time>2019-06-23T07:58:08.000Z</time>
      </trkpt>
      <trkpt lat="45.69525" lon="2.96745">
        <ele>971</ele>
        <time>2019-06-23T07:58:09.000Z</time>
      </trkpt>
      <trkpt lat="45.69521" lon="2.96742">
        <ele>973</ele>
        <time>2019-06-23T07:58:10.000Z</time>
      </trkpt>
      <trkpt lat="45.69518" lon="2.9674">
        <ele>975</ele>
        <time>2019-06-23T07:58:11.000Z</time>
      </trkpt>
      <trkpt lat="45.69515" lon="2.96739">
        <ele>976</ele>
        <time>2019-06-23T07:58:12.000Z</time>
      </trkpt>
      <trkpt lat="45.69512" lon="2.96736">
        <ele>976</ele>
        <time>2019-06-23T07:58:13.000Z</time>
      </trkpt>
      <trkpt lat="45.69509" lon="2.96733">
        <ele>977</ele>
        <time>2019-06-23T07:58:14.000Z</time>
      </trkpt>
      <trkpt lat="45.69507" lon="2.96731">
        <ele>976</ele>
        <time>2019-06-23T07:58:15.000Z</time>
      </trkpt>
      <trkpt lat="45.69504" lon="2.96729">
        <ele>975</ele>
        <time>2019-06-23T07:58:16.000Z</time>
      </trkpt>
      <trkpt lat="45.69501" lon="2.96727">
        <ele>976</ele>
        <time>2019-06-23T07:58:17.000Z</time>
      </trkpt>
      <trkpt lat="45.69498" lon="2.96725">
        <ele>977</ele>
        <time>2019-06-23T07:58:18.000Z</time>
      </trkpt>
      <trkpt lat="45.69493" lon="2.96723">
        <ele>978</ele>
        <time>2019-06-23T07:58:19.000Z</time>
      </trkpt>
      <trkpt lat="45.69489" lon="2.96722">
        <ele>980</ele>
        <time>2019-06-23T07:58:20.000Z</time>
      </trkpt>
      <trkpt lat="45.69484" lon="2.9672">
        <ele>981</ele>
        <time>2019-06-23T07:58:21.000Z</time>
      </trkpt>
      <trkpt lat="45.69481" lon="2.96718">
        <ele>983</ele>
        <time>2019-06-23T07:58:22.000Z</time>
      </trkpt>
      <trkpt lat="45.69477" lon="2.96716">
        <ele>984</ele>
        <time>2019-06-23T07:58:23.000Z</time>
      </trkpt>
      <trkpt lat="45.69473" lon="2.96716">
        <ele>985</ele>
        <time>2019-06-23T07:58:24.000Z</time>
      </trkpt>
      <trkpt lat="45.69469" lon="2.96715">
        <ele>986</ele>
        <time>2019-06-23T07:58:25.000Z</time>
      </trkpt>
      <trkpt lat="45.69466" lon="2.96715">
        <ele>986</ele>
        <time>2019-06-23T07:58:26.000Z</time>
      </trkpt>
      <trkpt lat="45.69463" lon="2.96714">
        <ele>986</ele>
        <time>2019-06-23T07:58:27.000Z</time>
      </trkpt>
      <trkpt lat="45.69459" lon="2.96713">
        <ele>986</ele>
        <time>2019-06-23T07:58:28.000Z</time>
      </trkpt>
      <trkpt lat="45.69457" lon="2.96711">
        <ele>986</ele>
        <time>2019-06-23T07:58:29.000Z</time>
      </trkpt>
      <trkpt lat="45.69455" lon="2.9671">
        <ele>986</ele>
        <time>2019-06-23T07:58:30.000Z</time>
      </trkpt>
      <trkpt lat="45.69452" lon="2.96708">
        <ele>986</ele>
        <time>2019-06-23T07:58:31.000Z</time>
      </trkpt>
      <trkpt lat="45.6945" lon="2.96704">
        <ele>985</ele>
        <time>2019-06-23T07:58:32.000Z</time>
      </trkpt>
      <trkpt lat="45.69447" lon="2.96702">
        <ele>984</ele>
        <time>2019-06-23T07:58:33.000Z</time>
      </trkpt>
      <trkpt lat="45.69444" lon="2.96699">
        <ele>984</ele>
        <time>2019-06-23T07:58:34.000Z</time>
      </trkpt>
      <trkpt lat="45.6944" lon="2.96698">
        <ele>983</ele>
        <time>2019-06-23T07:58:35.000Z</time>
      </trkpt>
      <trkpt lat="45.69437" lon="2.96695">
        <ele>981</ele>
        <time>2019-06-23T07:58:36.000Z</time>
      </trkpt>
      <trkpt lat="45.69433" lon="2.96693">
        <ele>981</ele>
        <time>2019-06-23T07:58:37.000Z</time>
      </trkpt>
      <trkpt lat="45.69428" lon="2.96692">
        <ele>983</ele>
        <time>2019-06-23T07:58:38.000Z</time>
      </trkpt>
      <trkpt lat="45.69424" lon="2.96692">
        <ele>985</ele>
        <time>2019-06-23T07:58:39.000Z</time>
      </trkpt>
      <trkpt lat="45.69419" lon="2.96692">
        <ele>987</ele>
        <time>2019-06-23T07:58:40.000Z</time>
      </trkpt>
      <trkpt lat="45.69416" lon="2.9669">
        <ele>989</ele>
        <time>2019-06-23T07:58:41.000Z</time>
      </trkpt>
      <trkpt lat="45.69411" lon="2.9669">
        <ele>992</ele>
        <time>2019-06-23T07:58:42.000Z</time>
      </trkpt>
      <trkpt lat="45.69407" lon="2.9669">
        <ele>992</ele>
        <time>2019-06-23T07:58:43.000Z</time>
      </trkpt>
      <trkpt lat="45.69403" lon="2.96689">
        <ele>991</ele>
        <time>2019-06-23T07:58:44.000Z</time>
      </trkpt>
      <trkpt lat="45.69399" lon="2.96688">
        <ele>990</ele>
        <time>2019-06-23T07:58:45.000Z</time>
      </trkpt>
      <trkpt lat="45.69396" lon="2.96686">
        <ele>990</ele>
        <time>2019-06-23T07:58:46.000Z</time>
      </trkpt>
      <trkpt lat="45.69392" lon="2.96683">
        <ele>991</ele>
        <time>2019-06-23T07:58:47.000Z</time>
      </trkpt>
      <trkpt lat="45.69388" lon="2.96682">
        <ele>991</ele>
        <time>2019-06-23T07:58:48.000Z</time>
      </trkpt>
      <trkpt lat="45.69384" lon="2.9668">
        <ele>990</ele>
        <time>2019-06-23T07:58:49.000Z</time>
      </trkpt>
      <trkpt lat="45.69379" lon="2.96678">
        <ele>989</ele>
        <time>2019-06-23T07:58:50.000Z</time>
      </trkpt>
      <trkpt lat="45.69376" lon="2.96677">
        <ele>988</ele>
        <time>2019-06-23T07:58:51.000Z</time>
      </trkpt>
      <trkpt lat="45.69372" lon="2.96675">
        <ele>987</ele>
        <time>2019-06-23T07:58:52.000Z</time>
      </trkpt>
      <trkpt lat="45.69367" lon="2.96674">
        <ele>987</ele>
        <time>2019-06-23T07:58:53.000Z</time>
      </trkpt>
      <trkpt lat="45.69361" lon="2.96673">
        <ele>987</ele>
        <time>2019-06-23T07:58:54.000Z</time>
      </trkpt>
      <trkpt lat="45.69357" lon="2.96672">
        <ele>988</ele>
        <time>2019-06-23T07:58:55.000Z</time>
      </trkpt>
      <trkpt lat="45.69353" lon="2.96672">
        <ele>988</ele>
        <time>2019-06-23T07:58:56.000Z</time>
      </trkpt>
      <trkpt lat="45.69349" lon="2.96671">
        <ele>987</ele>
        <time>2019-06-23T07:58:57.000Z</time>
      </trkpt>
      <trkpt lat="45.69345" lon="2.96669">
        <ele>987</ele>
        <time>2019-06-23T07:58:58.000Z</time>
      </trkpt>
      <trkpt lat="45.69342" lon="2.96666">
        <ele>988</ele>
        <time>2019-06-23T07:58:59.000Z</time>
      </trkpt>
      <trkpt lat="45.69336" lon="2.96665">
        <ele>988</ele>
        <time>2019-06-23T07:59:00.000Z</time>
      </trkpt>
      <trkpt lat="45.69332" lon="2.96663">
        <ele>987</ele>
        <time>2019-06-23T07:59:01.000Z</time>
      </trkpt>
      <trkpt lat="45.69328" lon="2.96662">
        <ele>987</ele>
        <time>2019-06-23T07:59:02.000Z</time>
      </trkpt>
      <trkpt lat="45.69324" lon="2.96661">
        <ele>987</ele>
        <time>2019-06-23T07:59:03.000Z</time>
      </trkpt>
      <trkpt lat="45.6932" lon="2.96661">
        <ele>986</ele>
        <time>2019-06-23T07:59:04.000Z</time>
      </trkpt>
      <trkpt lat="45.69317" lon="2.96663">
        <ele>984</ele>
        <time>2019-06-23T07:59:05.000Z</time>
      </trkpt>
      <trkpt lat="45.69313" lon="2.96664">
        <ele>984</ele>
        <time>2019-06-23T07:59:06.000Z</time>
      </trkpt>
      <trkpt lat="45.6931" lon="2.96665">
        <ele>984</ele>
        <time>2019-06-23T07:59:07.000Z</time>
      </trkpt>
      <trkpt lat="45.69308" lon="2.96667">
        <ele>984</ele>
        <time>2019-06-23T07:59:08.000Z</time>
      </trkpt>
      <trkpt lat="45.69305" lon="2.96668">
        <ele>985</ele>
        <time>2019-06-23T07:59:09.000Z</time>
      </trkpt>
      <trkpt lat="45.69303" lon="2.96668">
        <ele>986</ele>
        <time>2019-06-23T07:59:10.000Z</time>
      </trkpt>
      <trkpt lat="45.69301" lon="2.96669">
        <ele>985</ele>
        <time>2019-06-23T07:59:11.000Z</time>
      </trkpt>
      <trkpt lat="45.69298" lon="2.9667">
        <ele>985</ele>
        <time>2019-06-23T07:59:12.000Z</time>
      </trkpt>
      <trkpt lat="45.69296" lon="2.96672">
        <ele>984</ele>
        <time>2019-06-23T07:59:13.000Z</time>
      </trkpt>
      <trkpt lat="45.69293" lon="2.96674">
        <ele>984</ele>
        <time>2019-06-23T07:59:14.000Z</time>
      </trkpt>
      <trkpt lat="45.6929" lon="2.96675">
        <ele>985</ele>
        <time>2019-06-23T07:59:15.000Z</time>
      </trkpt>
      <trkpt lat="45.69287" lon="2.96676">
        <ele>985</ele>
        <time>2019-06-23T07:59:16.000Z</time>
      </trkpt>
      <trkpt lat="45.69284" lon="2.96677">
        <ele>986</ele>
        <time>2019-06-23T07:59:17.000Z</time>
      </trkpt>
      <trkpt lat="45.69282" lon="2.96679">
        <ele>987</ele>
        <time>2019-06-23T07:59:18.000Z</time>
      </trkpt>
      <trkpt lat="45.69279" lon="2.9668">
        <ele>987</ele>
        <time>2019-06-23T07:59:19.000Z</time>
      </trkpt>
      <trkpt lat="45.69276" lon="2.96682">
        <ele>989</ele>
        <time>2019-06-23T07:59:20.000Z</time>
      </trkpt>
      <trkpt lat="45.69275" lon="2.96687">
        <ele>989</ele>
        <time>2019-06-23T07:59:21.000Z</time>
      </trkpt>
      <trkpt lat="45.69271" lon="2.96691">
        <ele>986</ele>
        <time>2019-06-23T07:59:22.000Z</time>
      </trkpt>
      <trkpt lat="45.69268" lon="2.96694">
        <ele>987</ele>
        <time>2019-06-23T07:59:23.000Z</time>
      </trkpt>
      <trkpt lat="45.69265" lon="2.96696">
        <ele>986</ele>
        <time>2019-06-23T07:59:24.000Z</time>
      </trkpt>
      <trkpt lat="45.69262" lon="2.96699">
        <ele>987</ele>
        <time>2019-06-23T07:59:25.000Z</time>
      </trkpt>
      <trkpt lat="45.6926" lon="2.96703">
        <ele>988</ele>
        <time>2019-06-23T07:59:26.000Z</time>
      </trkpt>
      <trkpt lat="45.69257" lon="2.96705">
        <ele>988</ele>
        <time>2019-06-23T07:59:27.000Z</time>
      </trkpt>
      <trkpt lat="45.69254" lon="2.96708">
        <ele>988</ele>
        <time>2019-06-23T07:59:28.000Z</time>
      </trkpt>
      <trkpt lat="45.69252" lon="2.96709">
        <ele>989</ele>
        <time>2019-06-23T07:59:29.000Z</time>
      </trkpt>
      <trkpt lat="45.69249" lon="2.96709">
        <ele>991</ele>
        <time>2019-06-23T07:59:30.000Z</time>
      </trkpt>
      <trkpt lat="45.69246" lon="2.96705">
        <ele>989</ele>
        <time>2019-06-23T07:59:31.000Z</time>
      </trkpt>
      <trkpt lat="45.69243" lon="2.96703">
        <ele>986</ele>
        <time>2019-06-23T07:59:32.000Z</time>
      </trkpt>
      <trkpt lat="45.6924" lon="2.96701">
        <ele>986</ele>
        <time>2019-06-23T07:59:33.000Z</time>
      </trkpt>
      <trkpt lat="45.69238" lon="2.967">
        <ele>986</ele>
        <time>2019-06-23T07:59:34.000Z</time>
      </trkpt>
      <trkpt lat="45.69236" lon="2.96698">
        <ele>986</ele>
        <time>2019-06-23T07:59:35.000Z</time>
      </trkpt>
      <trkpt lat="45.69233" lon="2.96697">
        <ele>986</ele>
        <time>2019-06-23T07:59:36.000Z</time>
      </trkpt>
      <trkpt lat="45.6923" lon="2.96696">
        <ele>987</ele>
        <time>2019-06-23T07:59:37.000Z</time>
      </trkpt>
      <trkpt lat="45.69227" lon="2.96694">
        <ele>986</ele>
        <time>2019-06-23T07:59:38.000Z</time>
      </trkpt>
      <trkpt lat="45.69225" lon="2.96692">
        <ele>986</ele>
        <time>2019-06-23T07:59:39.000Z</time>
      </trkpt>
      <trkpt lat="45.69222" lon="2.9669">
        <ele>985</ele>
        <time>2019-06-23T07:59:40.000Z</time>
      </trkpt>
      <trkpt lat="45.6922" lon="2.96688">
        <ele>985</ele>
        <time>2019-06-23T07:59:41.000Z</time>
      </trkpt>
      <trkpt lat="45.69218" lon="2.96686">
        <ele>985</ele>
        <time>2019-06-23T07:59:42.000Z</time>
      </trkpt>
      <trkpt lat="45.69215" lon="2.96684">
        <ele>986</ele>
        <time>2019-06-23T07:59:43.000Z</time>
      </trkpt>
      <trkpt lat="45.69213" lon="2.96683">
        <ele>987</ele>
        <time>2019-06-23T07:59:44.000Z</time>
      </trkpt>
      <trkpt lat="45.69211" lon="2.96681">
        <ele>988</ele>
        <time>2019-06-23T07:59:45.000Z</time>
      </trkpt>
      <trkpt lat="45.69209" lon="2.96679">
        <ele>987</ele>
        <time>2019-06-23T07:59:46.000Z</time>
      </trkpt>
      <trkpt lat="45.69206" lon="2.96675">
        <ele>988</ele>
        <time>2019-06-23T07:59:47.000Z</time>
      </trkpt>
      <trkpt lat="45.69205" lon="2.96671">
        <ele>987</ele>
        <time>2019-06-23T07:59:48.000Z</time>
      </trkpt>
      <trkpt lat="45.69204" lon="2.96666">
        <ele>988</ele>
        <time>2019-06-23T07:59:49.000Z</time>
      </trkpt>
      <trkpt lat="45.69201" lon="2.96663">
        <ele>988</ele>
        <time>2019-06-23T07:59:50.000Z</time>
      </trkpt>
      <trkpt lat="45.69199" lon="2.96661">
        <ele>989</ele>
        <time>2019-06-23T07:59:51.000Z</time>
      </trkpt>
      <trkpt lat="45.69197" lon="2.96658">
        <ele>989</ele>
        <time>2019-06-23T07:59:52.000Z</time>
      </trkpt>
      <trkpt lat="45.69196" lon="2.96655">
        <ele>988</ele>
        <time>2019-06-23T07:59:53.000Z</time>
      </trkpt>
      <trkpt lat="45.69193" lon="2.96652">
        <ele>988</ele>
        <time>2019-06-23T07:59:54.000Z</time>
      </trkpt>
      <trkpt lat="45.6919" lon="2.9665">
        <ele>988</ele>
        <time>2019-06-23T07:59:55.000Z</time>
      </trkpt>
      <trkpt lat="45.69188" lon="2.96647">
        <ele>988</ele>
        <time>2019-06-23T07:59:56.000Z</time>
      </trkpt>
      <trkpt lat="45.69187" lon="2.96643">
        <ele>986</ele>
        <time>2019-06-23T07:59:57.000Z</time>
      </trkpt>
      <trkpt lat="45.69185" lon="2.9664">
        <ele>985</ele>
        <time>2019-06-23T07:59:58.000Z</time>
      </trkpt>
      <trkpt lat="45.69183" lon="2.96637">
        <ele>985</ele>
        <time>2019-06-23T07:59:59.000Z</time>
      </trkpt>
      <trkpt lat="45.69179" lon="2.96633">
        <ele>986</ele>
        <time>2019-06-23T08:00:00.000Z</time>
      </trkpt>
      <trkpt lat="45.69175" lon="2.9663">
        <ele>987</ele>
        <time>2019-06-23T08:00:01.000Z</time>
      </trkpt>
      <trkpt lat="45.69172" lon="2.96628">
        <ele>987</ele>
        <time>2019-06-23T08:00:02.000Z</time>
      </trkpt>
      <trkpt lat="45.6917" lon="2.96626">
        <ele>988</ele>
        <time>2019-06-23T08:00:03.000Z</time>
      </trkpt>
      <trkpt lat="45.69169" lon="2.96623">
        <ele>989</ele>
        <time>2019-06-23T08:00:04.000Z</time>
      </trkpt>
      <trkpt lat="45.69166" lon="2.96621">
        <ele>989</ele>
        <time>2019-06-23T08:00:05.000Z</time>
      </trkpt>
      <trkpt lat="45.69163" lon="2.96619">
        <ele>990</ele>
        <time>2019-06-23T08:00:06.000Z</time>
      </trkpt>
      <trkpt lat="45.69157" lon="2.96617">
        <ele>991</ele>
        <time>2019-06-23T08:00:07.000Z</time>
      </trkpt>
      <trkpt lat="45.69153" lon="2.96615">
        <ele>991</ele>
        <time>2019-06-23T08:00:08.000Z</time>
      </trkpt>
      <trkpt lat="45.6915" lon="2.96613">
        <ele>992</ele>
        <time>2019-06-23T08:00:09.000Z</time>
      </trkpt>
      <trkpt lat="45.69147" lon="2.96612">
        <ele>993</ele>
        <time>2019-06-23T08:00:10.000Z</time>
      </trkpt>
      <trkpt lat="45.69144" lon="2.96609">
        <ele>992</ele>
        <time>2019-06-23T08:00:11.000Z</time>
      </trkpt>
      <trkpt lat="45.69142" lon="2.96607">
        <ele>992</ele>
        <time>2019-06-23T08:00:12.000Z</time>
      </trkpt>
      <trkpt lat="45.6914" lon="2.96604">
        <ele>992</ele>
        <time>2019-06-23T08:00:13.000Z</time>
      </trkpt>
      <trkpt lat="45.69136" lon="2.96602">
        <ele>993</ele>
        <time>2019-06-23T08:00:14.000Z</time>
      </trkpt>
      <trkpt lat="45.69133" lon="2.966">
        <ele>994</ele>
        <time>2019-06-23T08:00:15.000Z</time>
      </trkpt>
      <trkpt lat="45.69129" lon="2.96599">
        <ele>995</ele>
        <time>2019-06-23T08:00:16.000Z</time>
      </trkpt>
      <trkpt lat="45.69126" lon="2.96599">
        <ele>995</ele>
        <time>2019-06-23T08:00:17.000Z</time>
      </trkpt>
      <trkpt lat="45.69123" lon="2.96597">
        <ele>996</ele>
        <time>2019-06-23T08:00:18.000Z</time>
      </trkpt>
      <trkpt lat="45.6912" lon="2.96596">
        <ele>996</ele>
        <time>2019-06-23T08:00:19.000Z</time>
      </trkpt>
      <trkpt lat="45.69116" lon="2.96593">
        <ele>998</ele>
        <time>2019-06-23T08:00:20.000Z</time>
      </trkpt>
      <trkpt lat="45.69111" lon="2.96591">
        <ele>999</ele>
        <time>2019-06-23T08:00:21.000Z</time>
      </trkpt>
      <trkpt lat="45.69108" lon="2.96589">
        <ele>999</ele>
        <time>2019-06-23T08:00:22.000Z</time>
      </trkpt>
      <trkpt lat="45.69105" lon="2.96586">
        <ele>999</ele>
        <time>2019-06-23T08:00:23.000Z</time>
      </trkpt>
      <trkpt lat="45.69102" lon="2.96584">
        <ele>1000</ele>
        <time>2019-06-23T08:00:24.000Z</time>
      </trkpt>
      <trkpt lat="45.69099" lon="2.96581">
        <ele>999</ele>
        <time>2019-06-23T08:00:25.000Z</time>
      </trkpt>
      <trkpt lat="45.69097" lon="2.96576">
        <ele>998</ele>
        <time>2019-06-23T08:00:26.000Z</time>
      </trkpt>
      <trkpt lat="45.69094" lon="2.96573">
        <ele>999</ele>
        <time>2019-06-23T08:00:27.000Z</time>
      </trkpt>
      <trkpt lat="45.69091" lon="2.96569">
        <ele>998</ele>
        <time>2019-06-23T08:00:28.000Z</time>
      </trkpt>
      <trkpt lat="45.69091" lon="2.96563">
        <ele>996</ele>
        <time>2019-06-23T08:00:29.000Z</time>
      </trkpt>
      <trkpt lat="45.69087" lon="2.9656">
        <ele>996</ele>
        <time>2019-06-23T08:00:30.000Z</time>
      </trkpt>
      <trkpt lat="45.69083" lon="2.96557">
        <ele>998</ele>
        <time>2019-06-23T08:00:31.000Z</time>
      </trkpt>
      <trkpt lat="45.69079" lon="2.96554">
        <ele>995</ele>
        <time>2019-06-23T08:00:32.000Z</time>
      </trkpt>
      <trkpt lat="45.69077" lon="2.96551">
        <ele>992</ele>
        <time>2019-06-23T08:00:33.000Z</time>
      </trkpt>
      <trkpt lat="45.69074" lon="2.96548">
        <ele>991</ele>
        <time>2019-06-23T08:00:34.000Z</time>
      </trkpt>
      <trkpt lat="45.69069" lon="2.96548">
        <ele>992</ele>
        <time>2019-06-23T08:00:35.000Z</time>
      </trkpt>
      <trkpt lat="45.69065" lon="2.96548">
        <ele>993</ele>
        <time>2019-06-23T08:00:36.000Z</time>
      </trkpt>
      <trkpt lat="45.69061" lon="2.96547">
        <ele>993</ele>
        <time>2019-06-23T08:00:37.000Z</time>
      </trkpt>
      <trkpt lat="45.69054" lon="2.96549">
        <ele>992</ele>
        <time>2019-06-23T08:00:38.000Z</time>
      </trkpt>
      <trkpt lat="45.6905" lon="2.9655">
        <ele>991</ele>
        <time>2019-06-23T08:00:39.000Z</time>
      </trkpt>
      <trkpt lat="45.69046" lon="2.96549">
        <ele>991</ele>
        <time>2019-06-23T08:00:40.000Z</time>
      </trkpt>
      <trkpt lat="45.69042" lon="2.9655">
        <ele>990</ele>
        <time>2019-06-23T08:00:41.000Z</time>
      </trkpt>
      <trkpt lat="45.69038" lon="2.9655">
        <ele>990</ele>
        <time>2019-06-23T08:00:42.000Z</time>
      </trkpt>
      <trkpt lat="45.69034" lon="2.9655">
        <ele>989</ele>
        <time>2019-06-23T08:00:43.000Z</time>
      </trkpt>
      <trkpt lat="45.6903" lon="2.9655">
        <ele>988</ele>
        <time>2019-06-23T08:00:44.000Z</time>
      </trkpt>
      <trkpt lat="45.69025" lon="2.96549">
        <ele>990</ele>
        <time>2019-06-23T08:00:45.000Z</time>
      </trkpt>
      <trkpt lat="45.69022" lon="2.96545">
        <ele>991</ele>
        <time>2019-06-23T08:00:46.000Z</time>
      </trkpt>
      <trkpt lat="45.69018" lon="2.96544">
        <ele>991</ele>
        <time>2019-06-23T08:00:47.000Z</time>
      </trkpt>
      <trkpt lat="45.69015" lon="2.96541">
        <ele>991</ele>
        <time>2019-06-23T08:00:48.000Z</time>
      </trkpt>
      <trkpt lat="45.69013" lon="2.96538">
        <ele>990</ele>
        <time>2019-06-23T08:00:49.000Z</time>
      </trkpt>
      <trkpt lat="45.69009" lon="2.96534">
        <ele>991</ele>
        <time>2019-06-23T08:00:50.000Z</time>
      </trkpt>
      <trkpt lat="45.69001" lon="2.96531">
        <ele>991</ele>
        <time>2019-06-23T08:00:51.000Z</time>
      </trkpt>
      <trkpt lat="45.68996" lon="2.96529">
        <ele>992</ele>
        <time>2019-06-23T08:00:52.000Z</time>
      </trkpt>
      <trkpt lat="45.68991" lon="2.96529">
        <ele>993</ele>
        <time>2019-06-23T08:00:53.000Z</time>
      </trkpt>
      <trkpt lat="45.68986" lon="2.96529">
        <ele>995</ele>
        <time>2019-06-23T08:00:54.000Z</time>
      </trkpt>
      <trkpt lat="45.68981" lon="2.9653">
        <ele>995</ele>
        <time>2019-06-23T08:00:55.000Z</time>
      </trkpt>
      <trkpt lat="45.68978" lon="2.96534">
        <ele>994</ele>
        <time>2019-06-23T08:00:56.000Z</time>
      </trkpt>
      <trkpt lat="45.68973" lon="2.96537">
        <ele>994</ele>
        <time>2019-06-23T08:00:57.000Z</time>
      </trkpt>
      <trkpt lat="45.68969" lon="2.96541">
        <ele>993</ele>
        <time>2019-06-23T08:00:58.000Z</time>
      </trkpt>
      <trkpt lat="45.68967" lon="2.96551">
        <ele>988</ele>
        <time>2019-06-23T08:00:59.000Z</time>
      </trkpt>
      <trkpt lat="45.68961" lon="2.96558">
        <ele>984</ele>
        <time>2019-06-23T08:01:00.000Z</time>
      </trkpt>
      <trkpt lat="45.68957" lon="2.96563">
        <ele>983</ele>
        <time>2019-06-23T08:01:01.000Z</time>
      </trkpt>
      <trkpt lat="45.68953" lon="2.9657">
        <ele>982</ele>
        <time>2019-06-23T08:01:02.000Z</time>
      </trkpt>
      <trkpt lat="45.68949" lon="2.96577">
        <ele>982</ele>
        <time>2019-06-23T08:01:03.000Z</time>
      </trkpt>
      <trkpt lat="45.68945" lon="2.96584">
        <ele>982</ele>
        <time>2019-06-23T08:01:04.000Z</time>
      </trkpt>
      <trkpt lat="45.6894" lon="2.96593">
        <ele>980</ele>
        <time>2019-06-23T08:01:05.000Z</time>
      </trkpt>
      <trkpt lat="45.68935" lon="2.96601">
        <ele>975</ele>
        <time>2019-06-23T08:01:06.000Z</time>
      </trkpt>
      <trkpt lat="45.6893" lon="2.96609">
        <ele>973</ele>
        <time>2019-06-23T08:01:07.000Z</time>
      </trkpt>
      <trkpt lat="45.68925" lon="2.96615">
        <ele>971</ele>
        <time>2019-06-23T08:01:08.000Z</time>
      </trkpt>
      <trkpt lat="45.68918" lon="2.96621">
        <ele>969</ele>
        <time>2019-06-23T08:01:09.000Z</time>
      </trkpt>
      <trkpt lat="45.68914" lon="2.96627">
        <ele>968</ele>
        <time>2019-06-23T08:01:10.000Z</time>
      </trkpt>
      <trkpt lat="45.68911" lon="2.96632">
        <ele>966</ele>
        <time>2019-06-23T08:01:11.000Z</time>
      </trkpt>
      <trkpt lat="45.68907" lon="2.96637">
        <ele>965</ele>
        <time>2019-06-23T08:01:12.000Z</time>
      </trkpt>
      <trkpt lat="45.68903" lon="2.96643">
        <ele>965</ele>
        <time>2019-06-23T08:01:13.000Z</time>
      </trkpt>
      <trkpt lat="45.68899" lon="2.96648">
        <ele>964</ele>
        <time>2019-06-23T08:01:14.000Z</time>
      </trkpt>
      <trkpt lat="45.68896" lon="2.96656">
        <ele>964</ele>
        <time>2019-06-23T08:01:15.000Z</time>
      </trkpt>
      <trkpt lat="45.68892" lon="2.96661">
        <ele>964</ele>
        <time>2019-06-23T08:01:16.000Z</time>
      </trkpt>
      <trkpt lat="45.68887" lon="2.96665">
        <ele>965</ele>
        <time>2019-06-23T08:01:17.000Z</time>
      </trkpt>
      <trkpt lat="45.6888" lon="2.96669">
        <ele>966</ele>
        <time>2019-06-23T08:01:18.000Z</time>
      </trkpt>
      <trkpt lat="45.68874" lon="2.96675">
        <ele>967</ele>
        <time>2019-06-23T08:01:19.000Z</time>
      </trkpt>
      <trkpt lat="45.68869" lon="2.9668">
        <ele>967</ele>
        <time>2019-06-23T08:01:20.000Z</time>
      </trkpt>
      <trkpt lat="45.68863" lon="2.9668">
        <ele>970</ele>
        <time>2019-06-23T08:01:21.000Z</time>
      </trkpt>
      <trkpt lat="45.68857" lon="2.96678">
        <ele>970</ele>
        <time>2019-06-23T08:01:22.000Z</time>
      </trkpt>
      <trkpt lat="45.68851" lon="2.96677">
        <ele>970</ele>
        <time>2019-06-23T08:01:23.000Z</time>
      </trkpt>
      <trkpt lat="45.68846" lon="2.96677">
        <ele>970</ele>
        <time>2019-06-23T08:01:24.000Z</time>
      </trkpt>
      <trkpt lat="45.68841" lon="2.96677">
        <ele>973</ele>
        <time>2019-06-23T08:01:25.000Z</time>
      </trkpt>
      <trkpt lat="45.68832" lon="2.96676">
        <ele>976</ele>
        <time>2019-06-23T08:01:26.000Z</time>
      </trkpt>
      <trkpt lat="45.68823" lon="2.96675">
        <ele>980</ele>
        <time>2019-06-23T08:01:27.000Z</time>
      </trkpt>
      <trkpt lat="45.68817" lon="2.96675">
        <ele>981</ele>
        <time>2019-06-23T08:01:28.000Z</time>
      </trkpt>
      <trkpt lat="45.68812" lon="2.96676">
        <ele>984</ele>
        <time>2019-06-23T08:01:29.000Z</time>
      </trkpt>
      <trkpt lat="45.68806" lon="2.96678">
        <ele>985</ele>
        <time>2019-06-23T08:01:30.000Z</time>
      </trkpt>
      <trkpt lat="45.688" lon="2.96679">
        <ele>986</ele>
        <time>2019-06-23T08:01:31.000Z</time>
      </trkpt>
      <trkpt lat="45.68795" lon="2.96679">
        <ele>985</ele>
        <time>2019-06-23T08:01:32.000Z</time>
      </trkpt>
      <trkpt lat="45.68789" lon="2.9668">
        <ele>985</ele>
        <time>2019-06-23T08:01:33.000Z</time>
      </trkpt>
      <trkpt lat="45.68785" lon="2.96682">
        <ele>986</ele>
        <time>2019-06-23T08:01:34.000Z</time>
      </trkpt>
      <trkpt lat="45.68781" lon="2.96684">
        <ele>986</ele>
        <time>2019-06-23T08:01:35.000Z</time>
      </trkpt>
      <trkpt lat="45.68778" lon="2.96686">
        <ele>986</ele>
        <time>2019-06-23T08:01:36.000Z</time>
      </trkpt>
      <trkpt lat="45.68774" lon="2.96687">
        <ele>987</ele>
        <time>2019-06-23T08:01:37.000Z</time>
      </trkpt>
      <trkpt lat="45.68772" lon="2.96689">
        <ele>988</ele>
        <time>2019-06-23T08:01:38.000Z</time>
      </trkpt>
      <trkpt lat="45.68768" lon="2.9669">
        <ele>988</ele>
        <time>2019-06-23T08:01:39.000Z</time>
      </trkpt>
      <trkpt lat="45.6877" lon="2.96691">
        <ele>989</ele>
        <time>2019-06-23T08:01:40.000Z</time>
      </trkpt>
      <trkpt lat="45.68769" lon="2.96691">
        <ele>989</ele>
        <time>2019-06-23T08:01:41.000Z</time>
      </trkpt>
      <trkpt lat="45.68769" lon="2.96692">
        <ele>988</ele>
        <time>2019-06-23T08:01:42.000Z</time>
      </trkpt>
      <trkpt lat="45.68769" lon="2.96693">
        <ele>988</ele>
        <time>2019-06-23T08:01:43.000Z</time>
      </trkpt>
      <trkpt lat="45.68767" lon="2.96694">
        <ele>987</ele>
        <time>2019-06-23T08:01:44.000Z</time>
      </trkpt>
      <trkpt lat="45.68767" lon="2.96693">
        <ele>986</ele>
        <time>2019-06-23T08:01:45.000Z</time>
      </trkpt>
      <trkpt lat="45.68766" lon="2.96694">
        <ele>986</ele>
        <time>2019-06-23T08:01:46.000Z</time>
      </trkpt>
      <trkpt lat="45.68764" lon="2.96695">
        <ele>985</ele>
        <time>2019-06-23T08:01:47.000Z</time>
      </trkpt>
      <trkpt lat="45.68763" lon="2.96696">
        <ele>985</ele>
        <time>2019-06-23T08:01:48.000Z</time>
      </trkpt>
      <trkpt lat="45.68761" lon="2.96697">
        <ele>984</ele>
        <time>2019-06-23T08:01:49.000Z</time>
      </trkpt>
      <trkpt lat="45.6876" lon="2.96699">
        <ele>982</ele>
        <time>2019-06-23T08:01:50.000Z</time>
      </trkpt>
      <trkpt lat="45.68756" lon="2.96701">
        <ele>981</ele>
        <time>2019-06-23T08:01:51.000Z</time>
      </trkpt>
      <trkpt lat="45.68753" lon="2.96702">
        <ele>981</ele>
        <time>2019-06-23T08:01:52.000Z</time>
      </trkpt>
      <trkpt lat="45.68751" lon="2.96702">
        <ele>980</ele>
        <time>2019-06-23T08:01:53.000Z</time>
      </trkpt>
      <trkpt lat="45.68748" lon="2.96703">
        <ele>981</ele>
        <time>2019-06-23T08:01:54.000Z</time>
      </trkpt>
      <trkpt lat="45.68747" lon="2.96703">
        <ele>980</ele>
        <time>2019-06-23T08:01:55.000Z</time>
      </trkpt>
      <trkpt lat="45.68746" lon="2.96704">
        <ele>981</ele>
        <time>2019-06-23T08:01:56.000Z</time>
      </trkpt>
      <trkpt lat="45.68745" lon="2.96704">
        <ele>981</ele>
        <time>2019-06-23T08:01:57.000Z</time>
      </trkpt>
      <trkpt lat="45.68736" lon="2.96707">
        <ele>981</ele>
        <time>2019-06-23T08:01:58.000Z</time>
      </trkpt>
      <trkpt lat="45.68735" lon="2.96707">
        <ele>982</ele>
        <time>2019-06-23T08:01:59.000Z</time>
      </trkpt>
      <trkpt lat="45.68733" lon="2.96708">
        <ele>982</ele>
        <time>2019-06-23T08:02:00.000Z</time>
      </trkpt>
      <trkpt lat="45.68731" lon="2.96709">
        <ele>981</ele>
        <time>2019-06-23T08:02:01.000Z</time>
      </trkpt>
      <trkpt lat="45.68729" lon="2.96709">
        <ele>980</ele>
        <time>2019-06-23T08:02:02.000Z</time>
      </trkpt>
      <trkpt lat="45.68728" lon="2.96709">
        <ele>981</ele>
        <time>2019-06-23T08:02:03.000Z</time>
      </trkpt>
      <trkpt lat="45.68726" lon="2.9671">
        <ele>981</ele>
        <time>2019-06-23T08:02:04.000Z</time>
      </trkpt>
      <trkpt lat="45.68723" lon="2.96711">
        <ele>982</ele>
        <time>2019-06-23T08:02:05.000Z</time>
      </trkpt>
      <trkpt lat="45.6872" lon="2.96714">
        <ele>983</ele>
        <time>2019-06-23T08:02:06.000Z</time>
      </trkpt>
      <trkpt lat="45.68717" lon="2.96715">
        <ele>983</ele>
        <time>2019-06-23T08:02:07.000Z</time>
      </trkpt>
      <trkpt lat="45.68715" lon="2.96716">
        <ele>983</ele>
        <time>2019-06-23T08:02:08.000Z</time>
      </trkpt>
      <trkpt lat="45.68712" lon="2.96717">
        <ele>984</ele>
        <time>2019-06-23T08:02:09.000Z</time>
      </trkpt>
      <trkpt lat="45.68709" lon="2.96719">
        <ele>983</ele>
        <time>2019-06-23T08:02:10.000Z</time>
      </trkpt>
      <trkpt lat="45.68707" lon="2.96721">
        <ele>983</ele>
        <time>2019-06-23T08:02:11.000Z</time>
      </trkpt>
      <trkpt lat="45.68704" lon="2.96724">
        <ele>981</ele>
        <time>2019-06-23T08:02:12.000Z</time>
      </trkpt>
      <trkpt lat="45.68702" lon="2.96725">
        <ele>981</ele>
        <time>2019-06-23T08:02:13.000Z</time>
      </trkpt>
      <trkpt lat="45.68699" lon="2.96728">
        <ele>981</ele>
        <time>2019-06-23T08:02:14.000Z</time>
      </trkpt>
      <trkpt lat="45.68697" lon="2.96731">
        <ele>980</ele>
        <time>2019-06-23T08:02:15.000Z</time>
      </trkpt>
      <trkpt lat="45.68695" lon="2.96733">
        <ele>979</ele>
        <time>2019-06-23T08:02:16.000Z</time>
      </trkpt>
      <trkpt lat="45.68692" lon="2.96735">
        <ele>979</ele>
        <time>2019-06-23T08:02:17.000Z</time>
      </trkpt>
      <trkpt lat="45.6869" lon="2.96737">
        <ele>978</ele>
        <time>2019-06-23T08:02:18.000Z</time>
      </trkpt>
      <trkpt lat="45.68688" lon="2.96739">
        <ele>978</ele>
        <time>2019-06-23T08:02:19.000Z</time>
      </trkpt>
      <trkpt lat="45.68686" lon="2.96741">
        <ele>978</ele>
        <time>2019-06-23T08:02:20.000Z</time>
      </trkpt>
      <trkpt lat="45.68684" lon="2.96742">
        <ele>978</ele>
        <time>2019-06-23T08:02:21.000Z</time>
      </trkpt>
      <trkpt lat="45.68676" lon="2.96743">
        <ele>977</ele>
        <time>2019-06-23T08:02:22.000Z</time>
      </trkpt>
      <trkpt lat="45.68672" lon="2.96744">
        <ele>977</ele>
        <time>2019-06-23T08:02:23.000Z</time>
      </trkpt>
      <trkpt lat="45.68669" lon="2.96746">
        <ele>977</ele>
        <time>2019-06-23T08:02:24.000Z</time>
      </trkpt>
      <trkpt lat="45.68666" lon="2.96747">
        <ele>976</ele>
        <time>2019-06-23T08:02:25.000Z</time>
      </trkpt>
      <trkpt lat="45.68663" lon="2.96748">
        <ele>976</ele>
        <time>2019-06-23T08:02:26.000Z</time>
      </trkpt>
      <trkpt lat="45.68659" lon="2.96748">
        <ele>977</ele>
        <time>2019-06-23T08:02:27.000Z</time>
      </trkpt>
      <trkpt lat="45.68656" lon="2.96748">
        <ele>978</ele>
        <time>2019-06-23T08:02:28.000Z</time>
      </trkpt>
      <trkpt lat="45.6865" lon="2.96748">
        <ele>978</ele>
        <time>2019-06-23T08:02:29.000Z</time>
      </trkpt>
      <trkpt lat="45.68646" lon="2.96749">
        <ele>979</ele>
        <time>2019-06-23T08:02:30.000Z</time>
      </trkpt>
      <trkpt lat="45.68642" lon="2.96749">
        <ele>979</ele>
        <time>2019-06-23T08:02:31.000Z</time>
      </trkpt>
      <trkpt lat="45.68637" lon="2.96751">
        <ele>979</ele>
        <time>2019-06-23T08:02:32.000Z</time>
      </trkpt>
      <trkpt lat="45.68634" lon="2.96751">
        <ele>980</ele>
        <time>2019-06-23T08:02:33.000Z</time>
      </trkpt>
      <trkpt lat="45.6863" lon="2.96752">
        <ele>981</ele>
        <time>2019-06-23T08:02:34.000Z</time>
      </trkpt>
      <trkpt lat="45.68626" lon="2.96753">
        <ele>981</ele>
        <time>2019-06-23T08:02:35.000Z</time>
      </trkpt>
      <trkpt lat="45.68621" lon="2.96753">
        <ele>981</ele>
        <time>2019-06-23T08:02:36.000Z</time>
      </trkpt>
      <trkpt lat="45.68617" lon="2.96753">
        <ele>981</ele>
        <time>2019-06-23T08:02:37.000Z</time>
      </trkpt>
      <trkpt lat="45.68614" lon="2.96753">
        <ele>982</ele>
        <time>2019-06-23T08:02:38.000Z</time>
      </trkpt>
      <trkpt lat="45.6861" lon="2.96753">
        <ele>983</ele>
        <time>2019-06-23T08:02:39.000Z</time>
      </trkpt>
      <trkpt lat="45.68607" lon="2.96753">
        <ele>984</ele>
        <time>2019-06-23T08:02:40.000Z</time>
      </trkpt>
      <trkpt lat="45.68603" lon="2.96754">
        <ele>985</ele>
        <time>2019-06-23T08:02:41.000Z</time>
      </trkpt>
      <trkpt lat="45.686" lon="2.96753">
        <ele>986</ele>
        <time>2019-06-23T08:02:42.000Z</time>
      </trkpt>
      <trkpt lat="45.68596" lon="2.96753">
        <ele>987</ele>
        <time>2019-06-23T08:02:43.000Z</time>
      </trkpt>
      <trkpt lat="45.68594" lon="2.96751">
        <ele>987</ele>
        <time>2019-06-23T08:02:44.000Z</time>
      </trkpt>
      <trkpt lat="45.68588" lon="2.96751">
        <ele>988</ele>
        <time>2019-06-23T08:02:45.000Z</time>
      </trkpt>
      <trkpt lat="45.68584" lon="2.96752">
        <ele>989</ele>
        <time>2019-06-23T08:02:46.000Z</time>
      </trkpt>
      <trkpt lat="45.68581" lon="2.96752">
        <ele>988</ele>
        <time>2019-06-23T08:02:47.000Z</time>
      </trkpt>
      <trkpt lat="45.68579" lon="2.9675">
        <ele>988</ele>
        <time>2019-06-23T08:02:48.000Z</time>
      </trkpt>
      <trkpt lat="45.68575" lon="2.9675">
        <ele>989</ele>
        <time>2019-06-23T08:02:49.000Z</time>
      </trkpt>
      <trkpt lat="45.6857" lon="2.96749">
        <ele>990</ele>
        <time>2019-06-23T08:02:50.000Z</time>
      </trkpt>
      <trkpt lat="45.68568" lon="2.96747">
        <ele>989</ele>
        <time>2019-06-23T08:02:51.000Z</time>
      </trkpt>
      <trkpt lat="45.68563" lon="2.96747">
        <ele>990</ele>
        <time>2019-06-23T08:02:52.000Z</time>
      </trkpt>
      <trkpt lat="45.68559" lon="2.96747">
        <ele>991</ele>
        <time>2019-06-23T08:02:53.000Z</time>
      </trkpt>
      <trkpt lat="45.68556" lon="2.96745">
        <ele>990</ele>
        <time>2019-06-23T08:02:54.000Z</time>
      </trkpt>
      <trkpt lat="45.6855" lon="2.96744">
        <ele>990</ele>
        <time>2019-06-23T08:02:55.000Z</time>
      </trkpt>
      <trkpt lat="45.68547" lon="2.96744">
        <ele>991</ele>
        <time>2019-06-23T08:02:56.000Z</time>
      </trkpt>
      <trkpt lat="45.68543" lon="2.96743">
        <ele>990</ele>
        <time>2019-06-23T08:02:57.000Z</time>
      </trkpt>
      <trkpt lat="45.68539" lon="2.96743">
        <ele>991</ele>
        <time>2019-06-23T08:02:58.000Z</time>
      </trkpt>
      <trkpt lat="45.68535" lon="2.96743">
        <ele>991</ele>
        <time>2019-06-23T08:02:59.000Z</time>
      </trkpt>
      <trkpt lat="45.68532" lon="2.96742">
        <ele>991</ele>
        <time>2019-06-23T08:03:00.000Z</time>
      </trkpt>
      <trkpt lat="45.68527" lon="2.96743">
        <ele>991</ele>
        <time>2019-06-23T08:03:01.000Z</time>
      </trkpt>
      <trkpt lat="45.68523" lon="2.96744">
        <ele>992</ele>
        <time>2019-06-23T08:03:02.000Z</time>
      </trkpt>
      <trkpt lat="45.6852" lon="2.96745">
        <ele>992</ele>
        <time>2019-06-23T08:03:03.000Z</time>
      </trkpt>
      <trkpt lat="45.68516" lon="2.96746">
        <ele>992</ele>
        <time>2019-06-23T08:03:04.000Z</time>
      </trkpt>
      <trkpt lat="45.68512" lon="2.96747">
        <ele>991</ele>
        <time>2019-06-23T08:03:05.000Z</time>
      </trkpt>
      <trkpt lat="45.68509" lon="2.96748">
        <ele>992</ele>
        <time>2019-06-23T08:03:06.000Z</time>
      </trkpt>
      <trkpt lat="45.68506" lon="2.96749">
        <ele>992</ele>
        <time>2019-06-23T08:03:07.000Z</time>
      </trkpt>
      <trkpt lat="45.68503" lon="2.9675">
        <ele>993</ele>
        <time>2019-06-23T08:03:08.000Z</time>
      </trkpt>
      <trkpt lat="45.68501" lon="2.96751">
        <ele>993</ele>
        <time>2019-06-23T08:03:09.000Z</time>
      </trkpt>
      <trkpt lat="45.68497" lon="2.96753">
        <ele>994</ele>
        <time>2019-06-23T08:03:10.000Z</time>
      </trkpt>
      <trkpt lat="45.68493" lon="2.96755">
        <ele>994</ele>
        <time>2019-06-23T08:03:11.000Z</time>
      </trkpt>
      <trkpt lat="45.6849" lon="2.96756">
        <ele>995</ele>
        <time>2019-06-23T08:03:12.000Z</time>
      </trkpt>
      <trkpt lat="45.68487" lon="2.96757">
        <ele>996</ele>
        <time>2019-06-23T08:03:13.000Z</time>
      </trkpt>
      <trkpt lat="45.68483" lon="2.9676">
        <ele>995</ele>
        <time>2019-06-23T08:03:14.000Z</time>
      </trkpt>
      <trkpt lat="45.68479" lon="2.96762">
        <ele>995</ele>
        <time>2019-06-23T08:03:15.000Z</time>
      </trkpt>
      <trkpt lat="45.68476" lon="2.96763">
        <ele>995</ele>
        <time>2019-06-23T08:03:16.000Z</time>
      </trkpt>
      <trkpt lat="45.68472" lon="2.96765">
        <ele>996</ele>
        <time>2019-06-23T08:03:17.000Z</time>
      </trkpt>
      <trkpt lat="45.68469" lon="2.96766">
        <ele>997</ele>
        <time>2019-06-23T08:03:18.000Z</time>
      </trkpt>
      <trkpt lat="45.68465" lon="2.96768">
        <ele>998</ele>
        <time>2019-06-23T08:03:19.000Z</time>
      </trkpt>
      <trkpt lat="45.68462" lon="2.96769">
        <ele>998</ele>
        <time>2019-06-23T08:03:20.000Z</time>
      </trkpt>
      <trkpt lat="45.68459" lon="2.9677">
        <ele>999</ele>
        <time>2019-06-23T08:03:21.000Z</time>
      </trkpt>
      <trkpt lat="45.68455" lon="2.96771">
        <ele>999</ele>
        <time>2019-06-23T08:03:22.000Z</time>
      </trkpt>
      <trkpt lat="45.68452" lon="2.96771">
        <ele>999</ele>
        <time>2019-06-23T08:03:23.000Z</time>
      </trkpt>
      <trkpt lat="45.68447" lon="2.96773">
        <ele>998</ele>
        <time>2019-06-23T08:03:24.000Z</time>
      </trkpt>
      <trkpt lat="45.68444" lon="2.96773">
        <ele>998</ele>
        <time>2019-06-23T08:03:25.000Z</time>
      </trkpt>
      <trkpt lat="45.6844" lon="2.96774">
        <ele>999</ele>
        <time>2019-06-23T08:03:26.000Z</time>
      </trkpt>
      <trkpt lat="45.68437" lon="2.96774">
        <ele>1000</ele>
        <time>2019-06-23T08:03:27.000Z</time>
      </trkpt>
      <trkpt lat="45.68434" lon="2.96776">
        <ele>1001</ele>
        <time>2019-06-23T08:03:28.000Z</time>
      </trkpt>
      <trkpt lat="45.68431" lon="2.96778">
        <ele>1002</ele>
        <time>2019-06-23T08:03:29.000Z</time>
      </trkpt>
      <trkpt lat="45.68428" lon="2.96778">
        <ele>1003</ele>
        <time>2019-06-23T08:03:30.000Z</time>
      </trkpt>
      <trkpt lat="45.68424" lon="2.96778">
        <ele>1004</ele>
        <time>2019-06-23T08:03:31.000Z</time>
      </trkpt>
      <trkpt lat="45.6842" lon="2.96779">
        <ele>1003</ele>
        <time>2019-06-23T08:03:32.000Z</time>
      </trkpt>
      <trkpt lat="45.68416" lon="2.96782">
        <ele>1003</ele>
        <time>2019-06-23T08:03:33.000Z</time>
      </trkpt>
      <trkpt lat="45.68413" lon="2.96782">
        <ele>1004</ele>
        <time>2019-06-23T08:03:34.000Z</time>
      </trkpt>
      <trkpt lat="45.6841" lon="2.96784">
        <ele>1004</ele>
        <time>2019-06-23T08:03:35.000Z</time>
      </trkpt>
      <trkpt lat="45.68407" lon="2.96786">
        <ele>1002</ele>
        <time>2019-06-23T08:03:36.000Z</time>
      </trkpt>
      <trkpt lat="45.68404" lon="2.96786">
        <ele>1002</ele>
        <time>2019-06-23T08:03:37.000Z</time>
      </trkpt>
      <trkpt lat="45.68401" lon="2.96786">
        <ele>1002</ele>
        <time>2019-06-23T08:03:38.000Z</time>
      </trkpt>
      <trkpt lat="45.68395" lon="2.96787">
        <ele>1003</ele>
        <time>2019-06-23T08:03:39.000Z</time>
      </trkpt>
      <trkpt lat="45.68391" lon="2.96787">
        <ele>1004</ele>
        <time>2019-06-23T08:03:40.000Z</time>
      </trkpt>
      <trkpt lat="45.68387" lon="2.96787">
        <ele>1004</ele>
        <time>2019-06-23T08:03:41.000Z</time>
      </trkpt>
      <trkpt lat="45.68384" lon="2.96787">
        <ele>1004</ele>
        <time>2019-06-23T08:03:42.000Z</time>
      </trkpt>
      <trkpt lat="45.68381" lon="2.96788">
        <ele>1005</ele>
        <time>2019-06-23T08:03:43.000Z</time>
      </trkpt>
      <trkpt lat="45.68374" lon="2.96789">
        <ele>1003</ele>
        <time>2019-06-23T08:03:44.000Z</time>
      </trkpt>
      <trkpt lat="45.68369" lon="2.96789">
        <ele>1002</ele>
        <time>2019-06-23T08:03:45.000Z</time>
      </trkpt>
      <trkpt lat="45.68364" lon="2.96789">
        <ele>1002</ele>
        <time>2019-06-23T08:03:46.000Z</time>
      </trkpt>
      <trkpt lat="45.68359" lon="2.9679">
        <ele>1002</ele>
        <time>2019-06-23T08:03:47.000Z</time>
      </trkpt>
      <trkpt lat="45.68356" lon="2.96787">
        <ele>998</ele>
        <time>2019-06-23T08:03:48.000Z</time>
      </trkpt>
      <trkpt lat="45.68351" lon="2.96787">
        <ele>996</ele>
        <time>2019-06-23T08:03:49.000Z</time>
      </trkpt>
      <trkpt lat="45.68347" lon="2.96787">
        <ele>995</ele>
        <time>2019-06-23T08:03:50.000Z</time>
      </trkpt>
      <trkpt lat="45.68343" lon="2.96786">
        <ele>994</ele>
        <time>2019-06-23T08:03:51.000Z</time>
      </trkpt>
      <trkpt lat="45.68339" lon="2.96784">
        <ele>994</ele>
        <time>2019-06-23T08:03:52.000Z</time>
      </trkpt>
      <trkpt lat="45.68336" lon="2.96783">
        <ele>995</ele>
        <time>2019-06-23T08:03:53.000Z</time>
      </trkpt>
      <trkpt lat="45.68333" lon="2.96782">
        <ele>995</ele>
        <time>2019-06-23T08:03:54.000Z</time>
      </trkpt>
      <trkpt lat="45.6833" lon="2.9678">
        <ele>995</ele>
        <time>2019-06-23T08:03:55.000Z</time>
      </trkpt>
      <trkpt lat="45.68327" lon="2.96778">
        <ele>995</ele>
        <time>2019-06-23T08:03:56.000Z</time>
      </trkpt>
      <trkpt lat="45.68323" lon="2.96776">
        <ele>996</ele>
        <time>2019-06-23T08:03:57.000Z</time>
      </trkpt>
      <trkpt lat="45.68321" lon="2.96774">
        <ele>996</ele>
        <time>2019-06-23T08:03:58.000Z</time>
      </trkpt>
      <trkpt lat="45.68318" lon="2.96772">
        <ele>996</ele>
        <time>2019-06-23T08:03:59.000Z</time>
      </trkpt>
      <trkpt lat="45.68315" lon="2.96769">
        <ele>996</ele>
        <time>2019-06-23T08:04:00.000Z</time>
      </trkpt>
      <trkpt lat="45.68311" lon="2.96767">
        <ele>997</ele>
        <time>2019-06-23T08:04:01.000Z</time>
      </trkpt>
      <trkpt lat="45.68308" lon="2.96765">
        <ele>996</ele>
        <time>2019-06-23T08:04:02.000Z</time>
      </trkpt>
      <trkpt lat="45.68303" lon="2.96763">
        <ele>998</ele>
        <time>2019-06-23T08:04:03.000Z</time>
      </trkpt>
      <trkpt lat="45.68295" lon="2.9676">
        <ele>1000</ele>
        <time>2019-06-23T08:04:04.000Z</time>
      </trkpt>
      <trkpt lat="45.6829" lon="2.96756">
        <ele>1001</ele>
        <time>2019-06-23T08:04:05.000Z</time>
      </trkpt>
      <trkpt lat="45.68286" lon="2.96752">
        <ele>1001</ele>
        <time>2019-06-23T08:04:06.000Z</time>
      </trkpt>
      <trkpt lat="45.68281" lon="2.96749">
        <ele>1003</ele>
        <time>2019-06-23T08:04:07.000Z</time>
      </trkpt>
      <trkpt lat="45.68277" lon="2.96745">
        <ele>1003</ele>
        <time>2019-06-23T08:04:08.000Z</time>
      </trkpt>
      <trkpt lat="45.68274" lon="2.9674">
        <ele>1002</ele>
        <time>2019-06-23T08:04:09.000Z</time>
      </trkpt>
      <trkpt lat="45.68272" lon="2.96735">
        <ele>1001</ele>
        <time>2019-06-23T08:04:10.000Z</time>
      </trkpt>
      <trkpt lat="45.68269" lon="2.9673">
        <ele>999</ele>
        <time>2019-06-23T08:04:11.000Z</time>
      </trkpt>
      <trkpt lat="45.68265" lon="2.96727">
        <ele>999</ele>
        <time>2019-06-23T08:04:12.000Z</time>
      </trkpt>
      <trkpt lat="45.68262" lon="2.96723">
        <ele>999</ele>
        <time>2019-06-23T08:04:13.000Z</time>
      </trkpt>
      <trkpt lat="45.68258" lon="2.9672">
        <ele>1000</ele>
        <time>2019-06-23T08:04:14.000Z</time>
      </trkpt>
      <trkpt lat="45.68255" lon="2.96716">
        <ele>1000</ele>
        <time>2019-06-23T08:04:15.000Z</time>
      </trkpt>
      <trkpt lat="45.68251" lon="2.96711">
        <ele>998</ele>
        <time>2019-06-23T08:04:16.000Z</time>
      </trkpt>
      <trkpt lat="45.68248" lon="2.96708">
        <ele>999</ele>
        <time>2019-06-23T08:04:17.000Z</time>
      </trkpt>
      <trkpt lat="45.68246" lon="2.96702">
        <ele>998</ele>
        <time>2019-06-23T08:04:18.000Z</time>
      </trkpt>
      <trkpt lat="45.68246" lon="2.96692">
        <ele>993</ele>
        <time>2019-06-23T08:04:19.000Z</time>
      </trkpt>
      <trkpt lat="45.68244" lon="2.96687">
        <ele>993</ele>
        <time>2019-06-23T08:04:20.000Z</time>
      </trkpt>
      <trkpt lat="45.68243" lon="2.96681">
        <ele>991</ele>
        <time>2019-06-23T08:04:21.000Z</time>
      </trkpt>
      <trkpt lat="45.68242" lon="2.96676">
        <ele>992</ele>
        <time>2019-06-23T08:04:22.000Z</time>
      </trkpt>
      <trkpt lat="45.68241" lon="2.96668">
        <ele>990</ele>
        <time>2019-06-23T08:04:23.000Z</time>
      </trkpt>
      <trkpt lat="45.6824" lon="2.96661">
        <ele>988</ele>
        <time>2019-06-23T08:04:24.000Z</time>
      </trkpt>
      <trkpt lat="45.68239" lon="2.96655">
        <ele>987</ele>
        <time>2019-06-23T08:04:25.000Z</time>
      </trkpt>
      <trkpt lat="45.68241" lon="2.96644">
        <ele>981</ele>
        <time>2019-06-23T08:04:26.000Z</time>
      </trkpt>
      <trkpt lat="45.68242" lon="2.96636">
        <ele>979</ele>
        <time>2019-06-23T08:04:27.000Z</time>
      </trkpt>
      <trkpt lat="45.68244" lon="2.9663">
        <ele>976</ele>
        <time>2019-06-23T08:04:28.000Z</time>
      </trkpt>
      <trkpt lat="45.68247" lon="2.96628">
        <ele>974</ele>
        <time>2019-06-23T08:04:29.000Z</time>
      </trkpt>
      <trkpt lat="45.6825" lon="2.96626">
        <ele>973</ele>
        <time>2019-06-23T08:04:30.000Z</time>
      </trkpt>
      <trkpt lat="45.68252" lon="2.96623">
        <ele>973</ele>
        <time>2019-06-23T08:04:31.000Z</time>
      </trkpt>
      <trkpt lat="45.68254" lon="2.96619">
        <ele>974</ele>
        <time>2019-06-23T08:04:32.000Z</time>
      </trkpt>
      <trkpt lat="45.68256" lon="2.96617">
        <ele>974</ele>
        <time>2019-06-23T08:04:33.000Z</time>
      </trkpt>
      <trkpt lat="45.68258" lon="2.96614">
        <ele>975</ele>
        <time>2019-06-23T08:04:34.000Z</time>
      </trkpt>
      <trkpt lat="45.6826" lon="2.96612">
        <ele>975</ele>
        <time>2019-06-23T08:04:35.000Z</time>
      </trkpt>
      <trkpt lat="45.68263" lon="2.96612">
        <ele>975</ele>
        <time>2019-06-23T08:04:36.000Z</time>
      </trkpt>
      <trkpt lat="45.68266" lon="2.96611">
        <ele>975</ele>
        <time>2019-06-23T08:04:37.000Z</time>
      </trkpt>
      <trkpt lat="45.68269" lon="2.9661">
        <ele>974</ele>
        <time>2019-06-23T08:04:38.000Z</time>
      </trkpt>
      <trkpt lat="45.68271" lon="2.96609">
        <ele>973</ele>
        <time>2019-06-23T08:04:39.000Z</time>
      </trkpt>
      <trkpt lat="45.68275" lon="2.96608">
        <ele>973</ele>
        <time>2019-06-23T08:04:40.000Z</time>
      </trkpt>
      <trkpt lat="45.68278" lon="2.96606">
        <ele>973</ele>
        <time>2019-06-23T08:04:41.000Z</time>
      </trkpt>
      <trkpt lat="45.68281" lon="2.96605">
        <ele>972</ele>
        <time>2019-06-23T08:04:42.000Z</time>
      </trkpt>
      <trkpt lat="45.68284" lon="2.96605">
        <ele>972</ele>
        <time>2019-06-23T08:04:43.000Z</time>
      </trkpt>
      <trkpt lat="45.68287" lon="2.96604">
        <ele>971</ele>
        <time>2019-06-23T08:04:44.000Z</time>
      </trkpt>
      <trkpt lat="45.6829" lon="2.96603">
        <ele>971</ele>
        <time>2019-06-23T08:04:45.000Z</time>
      </trkpt>
      <trkpt lat="45.68292" lon="2.96602">
        <ele>972</ele>
        <time>2019-06-23T08:04:46.000Z</time>
      </trkpt>
      <trkpt lat="45.68295" lon="2.966">
        <ele>973</ele>
        <time>2019-06-23T08:04:47.000Z</time>
      </trkpt>
      <trkpt lat="45.68298" lon="2.96599">
        <ele>973</ele>
        <time>2019-06-23T08:04:48.000Z</time>
      </trkpt>
      <trkpt lat="45.68301" lon="2.96598">
        <ele>973</ele>
        <time>2019-06-23T08:04:49.000Z</time>
      </trkpt>
      <trkpt lat="45.68304" lon="2.96598">
        <ele>975</ele>
        <time>2019-06-23T08:04:50.000Z</time>
      </trkpt>
      <trkpt lat="45.68306" lon="2.96597">
        <ele>975</ele>
        <time>2019-06-23T08:04:51.000Z</time>
      </trkpt>
      <trkpt lat="45.6831" lon="2.96596">
        <ele>976</ele>
        <time>2019-06-23T08:04:52.000Z</time>
      </trkpt>
      <trkpt lat="45.68313" lon="2.96595">
        <ele>978</ele>
        <time>2019-06-23T08:04:53.000Z</time>
      </trkpt>
      <trkpt lat="45.68316" lon="2.96594">
        <ele>978</ele>
        <time>2019-06-23T08:04:54.000Z</time>
      </trkpt>
      <trkpt lat="45.68319" lon="2.96594">
        <ele>978</ele>
        <time>2019-06-23T08:04:55.000Z</time>
      </trkpt>
      <trkpt lat="45.68321" lon="2.96593">
        <ele>978</ele>
        <time>2019-06-23T08:04:56.000Z</time>
      </trkpt>
      <trkpt lat="45.68324" lon="2.96592">
        <ele>979</ele>
        <time>2019-06-23T08:04:57.000Z</time>
      </trkpt>
      <trkpt lat="45.68326" lon="2.9659">
        <ele>979</ele>
        <time>2019-06-23T08:04:58.000Z</time>
      </trkpt>
      <trkpt lat="45.68328" lon="2.96589">
        <ele>979</ele>
        <time>2019-06-23T08:04:59.000Z</time>
      </trkpt>
      <trkpt lat="45.6833" lon="2.96588">
        <ele>980</ele>
        <time>2019-06-23T08:05:00.000Z</time>
      </trkpt>
      <trkpt lat="45.68332" lon="2.96587">
        <ele>981</ele>
        <time>2019-06-23T08:05:01.000Z</time>
      </trkpt>
      <trkpt lat="45.68335" lon="2.96586">
        <ele>982</ele>
        <time>2019-06-23T08:05:02.000Z</time>
      </trkpt>
      <trkpt lat="45.68337" lon="2.96584">
        <ele>981</ele>
        <time>2019-06-23T08:05:03.000Z</time>
      </trkpt>
      <trkpt lat="45.6834" lon="2.96583">
        <ele>982</ele>
        <time>2019-06-23T08:05:04.000Z</time>
      </trkpt>
      <trkpt lat="45.68341" lon="2.96581">
        <ele>983</ele>
        <time>2019-06-23T08:05:05.000Z</time>
      </trkpt>
      <trkpt lat="45.68343" lon="2.9658">
        <ele>983</ele>
        <time>2019-06-23T08:05:06.000Z</time>
      </trkpt>
      <trkpt lat="45.68344" lon="2.96579">
        <ele>985</ele>
        <time>2019-06-23T08:05:07.000Z</time>
      </trkpt>
      <trkpt lat="45.68346" lon="2.96577">
        <ele>985</ele>
        <time>2019-06-23T08:05:08.000Z</time>
      </trkpt>
      <trkpt lat="45.68348" lon="2.96575">
        <ele>985</ele>
        <time>2019-06-23T08:05:09.000Z</time>
      </trkpt>
      <trkpt lat="45.68351" lon="2.96572">
        <ele>986</ele>
        <time>2019-06-23T08:05:10.000Z</time>
      </trkpt>
      <trkpt lat="45.68353" lon="2.9657">
        <ele>986</ele>
        <time>2019-06-23T08:05:11.000Z</time>
      </trkpt>
      <trkpt lat="45.68356" lon="2.96567">
        <ele>986</ele>
        <time>2019-06-23T08:05:12.000Z</time>
      </trkpt>
      <trkpt lat="45.68357" lon="2.96564">
        <ele>986</ele>
        <time>2019-06-23T08:05:13.000Z</time>
      </trkpt>
      <trkpt lat="45.68358" lon="2.96561">
        <ele>987</ele>
        <time>2019-06-23T08:05:14.000Z</time>
      </trkpt>
      <trkpt lat="45.6836" lon="2.9656">
        <ele>989</ele>
        <time>2019-06-23T08:05:15.000Z</time>
      </trkpt>
      <trkpt lat="45.68361" lon="2.96558">
        <ele>990</ele>
        <time>2019-06-23T08:05:16.000Z</time>
      </trkpt>
      <trkpt lat="45.68362" lon="2.96557">
        <ele>990</ele>
        <time>2019-06-23T08:05:17.000Z</time>
      </trkpt>
      <trkpt lat="45.68364" lon="2.96554">
        <ele>991</ele>
        <time>2019-06-23T08:05:18.000Z</time>
      </trkpt>
      <trkpt lat="45.68366" lon="2.96551">
        <ele>992</ele>
        <time>2019-06-23T08:05:19.000Z</time>
      </trkpt>
      <trkpt lat="45.68367" lon="2.96549">
        <ele>992</ele>
        <time>2019-06-23T08:05:20.000Z</time>
      </trkpt>
      <trkpt lat="45.68368" lon="2.96546">
        <ele>991</ele>
        <time>2019-06-23T08:05:21.000Z</time>
      </trkpt>
      <trkpt lat="45.6837" lon="2.96543">
        <ele>991</ele>
        <time>2019-06-23T08:05:22.000Z</time>
      </trkpt>
      <trkpt lat="45.68371" lon="2.96541">
        <ele>991</ele>
        <time>2019-06-23T08:05:23.000Z</time>
      </trkpt>
      <trkpt lat="45.68372" lon="2.96539">
        <ele>992</ele>
        <time>2019-06-23T08:05:24.000Z</time>
      </trkpt>
      <trkpt lat="45.68374" lon="2.96537">
        <ele>992</ele>
        <time>2019-06-23T08:05:25.000Z</time>
      </trkpt>
      <trkpt lat="45.68375" lon="2.96535">
        <ele>992</ele>
        <time>2019-06-23T08:05:26.000Z</time>
      </trkpt>
      <trkpt lat="45.68376" lon="2.96533">
        <ele>993</ele>
        <time>2019-06-23T08:05:27.000Z</time>
      </trkpt>
      <trkpt lat="45.68377" lon="2.96532">
        <ele>993</ele>
        <time>2019-06-23T08:05:28.000Z</time>
      </trkpt>
      <trkpt lat="45.68377" lon="2.9653">
        <ele>993</ele>
        <time>2019-06-23T08:05:29.000Z</time>
      </trkpt>
      <trkpt lat="45.68378" lon="2.96529">
        <ele>993</ele>
        <time>2019-06-23T08:05:30.000Z</time>
      </trkpt>
      <trkpt lat="45.68379" lon="2.96528">
        <ele>994</ele>
        <time>2019-06-23T08:05:31.000Z</time>
      </trkpt>
      <trkpt lat="45.68379" lon="2.96527">
        <ele>995</ele>
        <time>2019-06-23T08:05:32.000Z</time>
      </trkpt>
      <trkpt lat="45.68381" lon="2.96526">
        <ele>995</ele>
        <time>2019-06-23T08:05:33.000Z</time>
      </trkpt>
      <trkpt lat="45.68383" lon="2.96524">
        <ele>996</ele>
        <time>2019-06-23T08:05:34.000Z</time>
      </trkpt>
      <trkpt lat="45.68384" lon="2.96523">
        <ele>996</ele>
        <time>2019-06-23T08:05:35.000Z</time>
      </trkpt>
      <trkpt lat="45.68385" lon="2.96521">
        <ele>997</ele>
        <time>2019-06-23T08:05:36.000Z</time>
      </trkpt>
      <trkpt lat="45.68387" lon="2.96519">
        <ele>998</ele>
        <time>2019-06-23T08:05:37.000Z</time>
      </trkpt>
      <trkpt lat="45.68389" lon="2.96516">
        <ele>997</ele>
        <time>2019-06-23T08:05:38.000Z</time>
      </trkpt>
      <trkpt lat="45.6839" lon="2.96515">
        <ele>998</ele>
        <time>2019-06-23T08:05:39.000Z</time>
      </trkpt>
      <trkpt lat="45.68391" lon="2.96514">
        <ele>997</ele>
        <time>2019-06-23T08:05:40.000Z</time>
      </trkpt>
      <trkpt lat="45.68392" lon="2.96513">
        <ele>996</ele>
        <time>2019-06-23T08:05:41.000Z</time>
      </trkpt>
      <trkpt lat="45.68393" lon="2.96512">
        <ele>995</ele>
        <time>2019-06-23T08:05:42.000Z</time>
      </trkpt>
      <trkpt lat="45.68394" lon="2.96509">
        <ele>996</ele>
        <time>2019-06-23T08:05:43.000Z</time>
      </trkpt>
      <trkpt lat="45.68396" lon="2.96507">
        <ele>996</ele>
        <time>2019-06-23T08:05:44.000Z</time>
      </trkpt>
      <trkpt lat="45.68397" lon="2.96506">
        <ele>996</ele>
        <time>2019-06-23T08:05:45.000Z</time>
      </trkpt>
      <trkpt lat="45.68399" lon="2.96504">
        <ele>996</ele>
        <time>2019-06-23T08:05:46.000Z</time>
      </trkpt>
      <trkpt lat="45.684" lon="2.96502">
        <ele>997</ele>
        <time>2019-06-23T08:05:47.000Z</time>
      </trkpt>
      <trkpt lat="45.68401" lon="2.96501">
        <ele>997</ele>
        <time>2019-06-23T08:05:48.000Z</time>
      </trkpt>
      <trkpt lat="45.68403" lon="2.96499">
        <ele>997</ele>
        <time>2019-06-23T08:05:49.000Z</time>
      </trkpt>
      <trkpt lat="45.68404" lon="2.96498">
        <ele>998</ele>
        <time>2019-06-23T08:05:50.000Z</time>
      </trkpt>
      <trkpt lat="45.68405" lon="2.96497">
        <ele>997</ele>
        <time>2019-06-23T08:05:51.000Z</time>
      </trkpt>
      <trkpt lat="45.68407" lon="2.96495">
        <ele>997</ele>
        <time>2019-06-23T08:05:52.000Z</time>
      </trkpt>
      <trkpt lat="45.68408" lon="2.96494">
        <ele>997</ele>
        <time>2019-06-23T08:05:53.000Z</time>
      </trkpt>
      <trkpt lat="45.68409" lon="2.96492">
        <ele>998</ele>
        <time>2019-06-23T08:05:54.000Z</time>
      </trkpt>
      <trkpt lat="45.6841" lon="2.96491">
        <ele>998</ele>
        <time>2019-06-23T08:05:55.000Z</time>
      </trkpt>
      <trkpt lat="45.68412" lon="2.9649">
        <ele>999</ele>
        <time>2019-06-23T08:05:56.000Z</time>
      </trkpt>
      <trkpt lat="45.68413" lon="2.96489">
        <ele>1000</ele>
        <time>2019-06-23T08:05:57.000Z</time>
      </trkpt>
      <trkpt lat="45.68414" lon="2.96488">
        <ele>1000</ele>
        <time>2019-06-23T08:05:58.000Z</time>
      </trkpt>
      <trkpt lat="45.68414" lon="2.96486">
        <ele>1001</ele>
        <time>2019-06-23T08:05:59.000Z</time>
      </trkpt>
      <trkpt lat="45.68415" lon="2.96486">
        <ele>1002</ele>
        <time>2019-06-23T08:06:00.000Z</time>
      </trkpt>
      <trkpt lat="45.68416" lon="2.96485">
        <ele>1002</ele>
        <time>2019-06-23T08:06:01.000Z</time>
      </trkpt>
      <trkpt lat="45.68416" lon="2.96484">
        <ele>1003</ele>
        <time>2019-06-23T08:06:02.000Z</time>
      </trkpt>
      <trkpt lat="45.68417" lon="2.96484">
        <ele>1003</ele>
        <time>2019-06-23T08:06:03.000Z</time>
      </trkpt>
      <trkpt lat="45.68418" lon="2.96482">
        <ele>1003</ele>
        <time>2019-06-23T08:06:04.000Z</time>
      </trkpt>
      <trkpt lat="45.68419" lon="2.96481">
        <ele>1003</ele>
        <time>2019-06-23T08:06:05.000Z</time>
      </trkpt>
      <trkpt lat="45.6842" lon="2.96481">
        <ele>1004</ele>
        <time>2019-06-23T08:06:06.000Z</time>
      </trkpt>
      <trkpt lat="45.68422" lon="2.96479">
        <ele>1004</ele>
        <time>2019-06-23T08:06:07.000Z</time>
      </trkpt>
      <trkpt lat="45.68423" lon="2.96477">
        <ele>1003</ele>
        <time>2019-06-23T08:06:08.000Z</time>
      </trkpt>
      <trkpt lat="45.68425" lon="2.96475">
        <ele>1003</ele>
        <time>2019-06-23T08:06:09.000Z</time>
      </trkpt>
      <trkpt lat="45.68426" lon="2.96474">
        <ele>1004</ele>
        <time>2019-06-23T08:06:10.000Z</time>
      </trkpt>
      <trkpt lat="45.68427" lon="2.96473">
        <ele>1004</ele>
        <time>2019-06-23T08:06:11.000Z</time>
      </trkpt>
      <trkpt lat="45.68429" lon="2.96473">
        <ele>1004</ele>
        <time>2019-06-23T08:06:12.000Z</time>
      </trkpt>
      <trkpt lat="45.68431" lon="2.96473">
        <ele>1004</ele>
        <time>2019-06-23T08:06:13.000Z</time>
      </trkpt>
      <trkpt lat="45.68432" lon="2.96472">
        <ele>1005</ele>
        <time>2019-06-23T08:06:14.000Z</time>
      </trkpt>
      <trkpt lat="45.68434" lon="2.96473">
        <ele>1005</ele>
        <time>2019-06-23T08:06:15.000Z</time>
      </trkpt>
      <trkpt lat="45.68436" lon="2.96473">
        <ele>1006</ele>
        <time>2019-06-23T08:06:16.000Z</time>
      </trkpt>
      <trkpt lat="45.68437" lon="2.96474">
        <ele>1006</ele>
        <time>2019-06-23T08:06:17.000Z</time>
      </trkpt>
      <trkpt lat="45.68439" lon="2.96474">
        <ele>1006</ele>
        <time>2019-06-23T08:06:18.000Z</time>
      </trkpt>
      <trkpt lat="45.6844" lon="2.96474">
        <ele>1007</ele>
        <time>2019-06-23T08:06:19.000Z</time>
      </trkpt>
      <trkpt lat="45.68442" lon="2.96474">
        <ele>1008</ele>
        <time>2019-06-23T08:06:20.000Z</time>
      </trkpt>
      <trkpt lat="45.68443" lon="2.96474">
        <ele>1008</ele>
        <time>2019-06-23T08:06:21.000Z</time>
      </trkpt>
      <trkpt lat="45.68445" lon="2.96474">
        <ele>1009</ele>
        <time>2019-06-23T08:06:22.000Z</time>
      </trkpt>
      <trkpt lat="45.68446" lon="2.96474">
        <ele>1010</ele>
        <time>2019-06-23T08:06:23.000Z</time>
      </trkpt>
      <trkpt lat="45.68447" lon="2.96475">
        <ele>1010</ele>
        <time>2019-06-23T08:06:24.000Z</time>
      </trkpt>
      <trkpt lat="45.68448" lon="2.96475">
        <ele>1010</ele>
        <time>2019-06-23T08:06:25.000Z</time>
      </trkpt>
      <trkpt lat="45.6845" lon="2.96476">
        <ele>1011</ele>
        <time>2019-06-23T08:06:26.000Z</time>
      </trkpt>
      <trkpt lat="45.68451" lon="2.96476">
        <ele>1011</ele>
        <time>2019-06-23T08:06:27.000Z</time>
      </trkpt>
      <trkpt lat="45.68453" lon="2.96476">
        <ele>1012</ele>
        <time>2019-06-23T08:06:28.000Z</time>
      </trkpt>
      <trkpt lat="45.68454" lon="2.96476">
        <ele>1012</ele>
        <time>2019-06-23T08:06:29.000Z</time>
      </trkpt>
      <trkpt lat="45.68455" lon="2.96477">
        <ele>1012</ele>
        <time>2019-06-23T08:06:30.000Z</time>
      </trkpt>
      <trkpt lat="45.68456" lon="2.96477">
        <ele>1012</ele>
        <time>2019-06-23T08:06:31.000Z</time>
      </trkpt>
      <trkpt lat="45.68457" lon="2.96478">
        <ele>1012</ele>
        <time>2019-06-23T08:06:32.000Z</time>
      </trkpt>
      <trkpt lat="45.68459" lon="2.96478">
        <ele>1012</ele>
        <time>2019-06-23T08:06:33.000Z</time>
      </trkpt>
      <trkpt lat="45.68461" lon="2.96478">
        <ele>1012</ele>
        <time>2019-06-23T08:06:34.000Z</time>
      </trkpt>
      <trkpt lat="45.68463" lon="2.9648">
        <ele>1012</ele>
        <time>2019-06-23T08:06:35.000Z</time>
      </trkpt>
      <trkpt lat="45.68465" lon="2.9648">
        <ele>1012</ele>
        <time>2019-06-23T08:06:36.000Z</time>
      </trkpt>
      <trkpt lat="45.68466" lon="2.96481">
        <ele>1012</ele>
        <time>2019-06-23T08:06:37.000Z</time>
      </trkpt>
      <trkpt lat="45.68467" lon="2.96481">
        <ele>1012</ele>
        <time>2019-06-23T08:06:38.000Z</time>
      </trkpt>
      <trkpt lat="45.68469" lon="2.96482">
        <ele>1012</ele>
        <time>2019-06-23T08:06:39.000Z</time>
      </trkpt>
      <trkpt lat="45.68471" lon="2.96483">
        <ele>1012</ele>
        <time>2019-06-23T08:06:40.000Z</time>
      </trkpt>
      <trkpt lat="45.68473" lon="2.96484">
        <ele>1013</ele>
        <time>2019-06-23T08:06:41.000Z</time>
      </trkpt>
      <trkpt lat="45.68474" lon="2.96485">
        <ele>1014</ele>
        <time>2019-06-23T08:06:42.000Z</time>
      </trkpt>
      <trkpt lat="45.68476" lon="2.96486">
        <ele>1014</ele>
        <time>2019-06-23T08:06:43.000Z</time>
      </trkpt>
      <trkpt lat="45.68478" lon="2.96486">
        <ele>1014</ele>
        <time>2019-06-23T08:06:44.000Z</time>
      </trkpt>
      <trkpt lat="45.6848" lon="2.96487">
        <ele>1015</ele>
        <time>2019-06-23T08:06:45.000Z</time>
      </trkpt>
      <trkpt lat="45.68482" lon="2.96488">
        <ele>1015</ele>
        <time>2019-06-23T08:06:46.000Z</time>
      </trkpt>
      <trkpt lat="45.68484" lon="2.96488">
        <ele>1016</ele>
        <time>2019-06-23T08:06:47.000Z</time>
      </trkpt>
      <trkpt lat="45.68485" lon="2.96489">
        <ele>1016</ele>
        <time>2019-06-23T08:06:48.000Z</time>
      </trkpt>
      <trkpt lat="45.68487" lon="2.96489">
        <ele>1016</ele>
        <time>2019-06-23T08:06:49.000Z</time>
      </trkpt>
      <trkpt lat="45.68489" lon="2.96491">
        <ele>1016</ele>
        <time>2019-06-23T08:06:50.000Z</time>
      </trkpt>
      <trkpt lat="45.6849" lon="2.96491">
        <ele>1017</ele>
        <time>2019-06-23T08:06:51.000Z</time>
      </trkpt>
      <trkpt lat="45.68492" lon="2.96492">
        <ele>1017</ele>
        <time>2019-06-23T08:06:52.000Z</time>
      </trkpt>
      <trkpt lat="45.68493" lon="2.96493">
        <ele>1017</ele>
        <time>2019-06-23T08:06:53.000Z</time>
      </trkpt>
      <trkpt lat="45.68495" lon="2.96495">
        <ele>1018</ele>
        <time>2019-06-23T08:06:54.000Z</time>
      </trkpt>
      <trkpt lat="45.68496" lon="2.96495">
        <ele>1018</ele>
        <time>2019-06-23T08:06:55.000Z</time>
      </trkpt>
      <trkpt lat="45.68498" lon="2.96495">
        <ele>1018</ele>
        <time>2019-06-23T08:06:56.000Z</time>
      </trkpt>
      <trkpt lat="45.68499" lon="2.96496">
        <ele>1018</ele>
        <time>2019-06-23T08:06:57.000Z</time>
      </trkpt>
      <trkpt lat="45.68501" lon="2.96497">
        <ele>1017</ele>
        <time>2019-06-23T08:06:58.000Z</time>
      </trkpt>
      <trkpt lat="45.68503" lon="2.96498">
        <ele>1018</ele>
        <time>2019-06-23T08:06:59.000Z</time>
      </trkpt>
      <trkpt lat="45.68505" lon="2.96499">
        <ele>1019</ele>
        <time>2019-06-23T08:07:00.000Z</time>
      </trkpt>
      <trkpt lat="45.68506" lon="2.965">
        <ele>1019</ele>
        <time>2019-06-23T08:07:01.000Z</time>
      </trkpt>
      <trkpt lat="45.68508" lon="2.96501">
        <ele>1019</ele>
        <time>2019-06-23T08:07:02.000Z</time>
      </trkpt>
      <trkpt lat="45.6851" lon="2.96502">
        <ele>1019</ele>
        <time>2019-06-23T08:07:03.000Z</time>
      </trkpt>
      <trkpt lat="45.68512" lon="2.96502">
        <ele>1019</ele>
        <time>2019-06-23T08:07:04.000Z</time>
      </trkpt>
      <trkpt lat="45.68514" lon="2.96503">
        <ele>1020</ele>
        <time>2019-06-23T08:07:05.000Z</time>
      </trkpt>
      <trkpt lat="45.68515" lon="2.96504">
        <ele>1020</ele>
        <time>2019-06-23T08:07:06.000Z</time>
      </trkpt>
      <trkpt lat="45.68517" lon="2.96505">
        <ele>1020</ele>
        <time>2019-06-23T08:07:07.000Z</time>
      </trkpt>
      <trkpt lat="45.6852" lon="2.96505">
        <ele>1020</ele>
        <time>2019-06-23T08:07:08.000Z</time>
      </trkpt>
      <trkpt lat="45.68521" lon="2.96506">
        <ele>1021</ele>
        <time>2019-06-23T08:07:09.000Z</time>
      </trkpt>
      <trkpt lat="45.68523" lon="2.96507">
        <ele>1021</ele>
        <time>2019-06-23T08:07:10.000Z</time>
      </trkpt>
      <trkpt lat="45.68525" lon="2.96508">
        <ele>1021</ele>
        <time>2019-06-23T08:07:11.000Z</time>
      </trkpt>
      <trkpt lat="45.68526" lon="2.96509">
        <ele>1021</ele>
        <time>2019-06-23T08:07:12.000Z</time>
      </trkpt>
      <trkpt lat="45.68528" lon="2.9651">
        <ele>1021</ele>
        <time>2019-06-23T08:07:13.000Z</time>
      </trkpt>
      <trkpt lat="45.68529" lon="2.96511">
        <ele>1021</ele>
        <time>2019-06-23T08:07:14.000Z</time>
      </trkpt>
      <trkpt lat="45.68531" lon="2.96512">
        <ele>1021</ele>
        <time>2019-06-23T08:07:15.000Z</time>
      </trkpt>
      <trkpt lat="45.68532" lon="2.96513">
        <ele>1020</ele>
        <time>2019-06-23T08:07:16.000Z</time>
      </trkpt>
      <trkpt lat="45.68535" lon="2.96514">
        <ele>1020</ele>
        <time>2019-06-23T08:07:17.000Z</time>
      </trkpt>
      <trkpt lat="45.68537" lon="2.96515">
        <ele>1021</ele>
        <time>2019-06-23T08:07:18.000Z</time>
      </trkpt>
      <trkpt lat="45.68538" lon="2.96516">
        <ele>1021</ele>
        <time>2019-06-23T08:07:19.000Z</time>
      </trkpt>
      <trkpt lat="45.68541" lon="2.96517">
        <ele>1022</ele>
        <time>2019-06-23T08:07:20.000Z</time>
      </trkpt>
      <trkpt lat="45.68542" lon="2.96518">
        <ele>1023</ele>
        <time>2019-06-23T08:07:21.000Z</time>
      </trkpt>
      <trkpt lat="45.68544" lon="2.96518">
        <ele>1023</ele>
        <time>2019-06-23T08:07:22.000Z</time>
      </trkpt>
      <trkpt lat="45.68545" lon="2.96519">
        <ele>1024</ele>
        <time>2019-06-23T08:07:23.000Z</time>
      </trkpt>
      <trkpt lat="45.68547" lon="2.96518">
        <ele>1024</ele>
        <time>2019-06-23T08:07:24.000Z</time>
      </trkpt>
      <trkpt lat="45.68548" lon="2.96518">
        <ele>1025</ele>
        <time>2019-06-23T08:07:25.000Z</time>
      </trkpt>
      <trkpt lat="45.68549" lon="2.96519">
        <ele>1025</ele>
        <time>2019-06-23T08:07:26.000Z</time>
      </trkpt>
      <trkpt lat="45.68551" lon="2.96519">
        <ele>1025</ele>
        <time>2019-06-23T08:07:27.000Z</time>
      </trkpt>
      <trkpt lat="45.68552" lon="2.9652">
        <ele>1025</ele>
        <time>2019-06-23T08:07:28.000Z</time>
      </trkpt>
      <trkpt lat="45.68554" lon="2.96521">
        <ele>1026</ele>
        <time>2019-06-23T08:07:29.000Z</time>
      </trkpt>
      <trkpt lat="45.68555" lon="2.96521">
        <ele>1026</ele>
        <time>2019-06-23T08:07:30.000Z</time>
      </trkpt>
      <trkpt lat="45.68556" lon="2.96522">
        <ele>1026</ele>
        <time>2019-06-23T08:07:31.000Z</time>
      </trkpt>
      <trkpt lat="45.68557" lon="2.96523">
        <ele>1026</ele>
        <time>2019-06-23T08:07:32.000Z</time>
      </trkpt>
      <trkpt lat="45.68559" lon="2.96523">
        <ele>1027</ele>
        <time>2019-06-23T08:07:33.000Z</time>
      </trkpt>
      <trkpt lat="45.68561" lon="2.96523">
        <ele>1028</ele>
        <time>2019-06-23T08:07:34.000Z</time>
      </trkpt>
      <trkpt lat="45.68562" lon="2.96524">
        <ele>1028</ele>
        <time>2019-06-23T08:07:35.000Z</time>
      </trkpt>
      <trkpt lat="45.68564" lon="2.96524">
        <ele>1028</ele>
        <time>2019-06-23T08:07:36.000Z</time>
      </trkpt>
      <trkpt lat="45.68566" lon="2.96524">
        <ele>1029</ele>
        <time>2019-06-23T08:07:37.000Z</time>
      </trkpt>
      <trkpt lat="45.68568" lon="2.96525">
        <ele>1029</ele>
        <time>2019-06-23T08:07:38.000Z</time>
      </trkpt>
      <trkpt lat="45.68569" lon="2.96525">
        <ele>1029</ele>
        <time>2019-06-23T08:07:39.000Z</time>
      </trkpt>
      <trkpt lat="45.68571" lon="2.96526">
        <ele>1030</ele>
        <time>2019-06-23T08:07:40.000Z</time>
      </trkpt>
      <trkpt lat="45.68573" lon="2.96526">
        <ele>1031</ele>
        <time>2019-06-23T08:07:41.000Z</time>
      </trkpt>
      <trkpt lat="45.68574" lon="2.96527">
        <ele>1031</ele>
        <time>2019-06-23T08:07:42.000Z</time>
      </trkpt>
      <trkpt lat="45.68575" lon="2.96527">
        <ele>1032</ele>
        <time>2019-06-23T08:07:43.000Z</time>
      </trkpt>
      <trkpt lat="45.68577" lon="2.96527">
        <ele>1032</ele>
        <time>2019-06-23T08:07:44.000Z</time>
      </trkpt>
      <trkpt lat="45.68578" lon="2.96527">
        <ele>1032</ele>
        <time>2019-06-23T08:07:45.000Z</time>
      </trkpt>
      <trkpt lat="45.6858" lon="2.96528">
        <ele>1033</ele>
        <time>2019-06-23T08:07:46.000Z</time>
      </trkpt>
      <trkpt lat="45.68581" lon="2.96528">
        <ele>1033</ele>
        <time>2019-06-23T08:07:47.000Z</time>
      </trkpt>
      <trkpt lat="45.68583" lon="2.96528">
        <ele>1033</ele>
        <time>2019-06-23T08:07:48.000Z</time>
      </trkpt>
      <trkpt lat="45.68584" lon="2.96529">
        <ele>1033</ele>
        <time>2019-06-23T08:07:49.000Z</time>
      </trkpt>
      <trkpt lat="45.68585" lon="2.96529">
        <ele>1033</ele>
        <time>2019-06-23T08:07:50.000Z</time>
      </trkpt>
      <trkpt lat="45.68588" lon="2.96528">
        <ele>1034</ele>
        <time>2019-06-23T08:07:51.000Z</time>
      </trkpt>
      <trkpt lat="45.68589" lon="2.96529">
        <ele>1035</ele>
        <time>2019-06-23T08:07:52.000Z</time>
      </trkpt>
      <trkpt lat="45.6859" lon="2.9653">
        <ele>1036</ele>
        <time>2019-06-23T08:07:53.000Z</time>
      </trkpt>
      <trkpt lat="45.68593" lon="2.9653">
        <ele>1037</ele>
        <time>2019-06-23T08:07:54.000Z</time>
      </trkpt>
      <trkpt lat="45.68595" lon="2.96531">
        <ele>1037</ele>
        <time>2019-06-23T08:07:55.000Z</time>
      </trkpt>
      <trkpt lat="45.68596" lon="2.96531">
        <ele>1038</ele>
        <time>2019-06-23T08:07:56.000Z</time>
      </trkpt>
      <trkpt lat="45.68598" lon="2.9653">
        <ele>1039</ele>
        <time>2019-06-23T08:07:57.000Z</time>
      </trkpt>
      <trkpt lat="45.68599" lon="2.9653">
        <ele>1039</ele>
        <time>2019-06-23T08:07:58.000Z</time>
      </trkpt>
      <trkpt lat="45.686" lon="2.9653">
        <ele>1040</ele>
        <time>2019-06-23T08:07:59.000Z</time>
      </trkpt>
      <trkpt lat="45.68602" lon="2.9653">
        <ele>1040</ele>
        <time>2019-06-23T08:08:00.000Z</time>
      </trkpt>
      <trkpt lat="45.68603" lon="2.9653">
        <ele>1041</ele>
        <time>2019-06-23T08:08:01.000Z</time>
      </trkpt>
      <trkpt lat="45.68605" lon="2.96531">
        <ele>1042</ele>
        <time>2019-06-23T08:08:02.000Z</time>
      </trkpt>
      <trkpt lat="45.68608" lon="2.96531">
        <ele>1043</ele>
        <time>2019-06-23T08:08:03.000Z</time>
      </trkpt>
      <trkpt lat="45.6861" lon="2.96531">
        <ele>1044</ele>
        <time>2019-06-23T08:08:04.000Z</time>
      </trkpt>
      <trkpt lat="45.68612" lon="2.96531">
        <ele>1044</ele>
        <time>2019-06-23T08:08:05.000Z</time>
      </trkpt>
      <trkpt lat="45.68615" lon="2.9653">
        <ele>1043</ele>
        <time>2019-06-23T08:08:06.000Z</time>
      </trkpt>
      <trkpt lat="45.68616" lon="2.96529">
        <ele>1044</ele>
        <time>2019-06-23T08:08:07.000Z</time>
      </trkpt>
      <trkpt lat="45.68618" lon="2.96529">
        <ele>1044</ele>
        <time>2019-06-23T08:08:08.000Z</time>
      </trkpt>
      <trkpt lat="45.6862" lon="2.96529">
        <ele>1045</ele>
        <time>2019-06-23T08:08:09.000Z</time>
      </trkpt>
      <trkpt lat="45.68622" lon="2.96528">
        <ele>1045</ele>
        <time>2019-06-23T08:08:10.000Z</time>
      </trkpt>
      <trkpt lat="45.68624" lon="2.96528">
        <ele>1045</ele>
        <time>2019-06-23T08:08:11.000Z</time>
      </trkpt>
      <trkpt lat="45.68625" lon="2.96527">
        <ele>1046</ele>
        <time>2019-06-23T08:08:12.000Z</time>
      </trkpt>
      <trkpt lat="45.68627" lon="2.96527">
        <ele>1046</ele>
        <time>2019-06-23T08:08:13.000Z</time>
      </trkpt>
      <trkpt lat="45.68629" lon="2.96526">
        <ele>1046</ele>
        <time>2019-06-23T08:08:14.000Z</time>
      </trkpt>
      <trkpt lat="45.68631" lon="2.96526">
        <ele>1047</ele>
        <time>2019-06-23T08:08:15.000Z</time>
      </trkpt>
      <trkpt lat="45.68632" lon="2.96526">
        <ele>1047</ele>
        <time>2019-06-23T08:08:16.000Z</time>
      </trkpt>
      <trkpt lat="45.68633" lon="2.96526">
        <ele>1047</ele>
        <time>2019-06-23T08:08:17.000Z</time>
      </trkpt>
      <trkpt lat="45.68634" lon="2.96525">
        <ele>1048</ele>
        <time>2019-06-23T08:08:18.000Z</time>
      </trkpt>
      <trkpt lat="45.68635" lon="2.96525">
        <ele>1049</ele>
        <time>2019-06-23T08:08:19.000Z</time>
      </trkpt>
      <trkpt lat="45.68636" lon="2.96525">
        <ele>1050</ele>
        <time>2019-06-23T08:08:20.000Z</time>
      </trkpt>
      <trkpt lat="45.68638" lon="2.96525">
        <ele>1051</ele>
        <time>2019-06-23T08:08:21.000Z</time>
      </trkpt>
      <trkpt lat="45.6864" lon="2.96524">
        <ele>1052</ele>
        <time>2019-06-23T08:08:22.000Z</time>
      </trkpt>
      <trkpt lat="45.68641" lon="2.96523">
        <ele>1052</ele>
        <time>2019-06-23T08:08:23.000Z</time>
      </trkpt>
      <trkpt lat="45.68643" lon="2.96522">
        <ele>1052</ele>
        <time>2019-06-23T08:08:24.000Z</time>
      </trkpt>
      <trkpt lat="45.68644" lon="2.96521">
        <ele>1053</ele>
        <time>2019-06-23T08:08:25.000Z</time>
      </trkpt>
      <trkpt lat="45.68646" lon="2.9652">
        <ele>1053</ele>
        <time>2019-06-23T08:08:26.000Z</time>
      </trkpt>
      <trkpt lat="45.68649" lon="2.96519">
        <ele>1053</ele>
        <time>2019-06-23T08:08:27.000Z</time>
      </trkpt>
      <trkpt lat="45.68651" lon="2.96518">
        <ele>1054</ele>
        <time>2019-06-23T08:08:28.000Z</time>
      </trkpt>
      <trkpt lat="45.68653" lon="2.96517">
        <ele>1053</ele>
        <time>2019-06-23T08:08:29.000Z</time>
      </trkpt>
      <trkpt lat="45.68655" lon="2.96516">
        <ele>1053</ele>
        <time>2019-06-23T08:08:30.000Z</time>
      </trkpt>
      <trkpt lat="45.68658" lon="2.96513">
        <ele>1051</ele>
        <time>2019-06-23T08:08:31.000Z</time>
      </trkpt>
      <trkpt lat="45.6866" lon="2.96512">
        <ele>1051</ele>
        <time>2019-06-23T08:08:32.000Z</time>
      </trkpt>
      <trkpt lat="45.68662" lon="2.96512">
        <ele>1052</ele>
        <time>2019-06-23T08:08:33.000Z</time>
      </trkpt>
      <trkpt lat="45.68664" lon="2.96511">
        <ele>1051</ele>
        <time>2019-06-23T08:08:34.000Z</time>
      </trkpt>
      <trkpt lat="45.68665" lon="2.9651">
        <ele>1050</ele>
        <time>2019-06-23T08:08:35.000Z</time>
      </trkpt>
      <trkpt lat="45.68667" lon="2.96509">
        <ele>1050</ele>
        <time>2019-06-23T08:08:36.000Z</time>
      </trkpt>
      <trkpt lat="45.68669" lon="2.96509">
        <ele>1051</ele>
        <time>2019-06-23T08:08:37.000Z</time>
      </trkpt>
      <trkpt lat="45.68671" lon="2.96507">
        <ele>1051</ele>
        <time>2019-06-23T08:08:38.000Z</time>
      </trkpt>
      <trkpt lat="45.68673" lon="2.96506">
        <ele>1051</ele>
        <time>2019-06-23T08:08:39.000Z</time>
      </trkpt>
      <trkpt lat="45.68675" lon="2.96505">
        <ele>1051</ele>
        <time>2019-06-23T08:08:40.000Z</time>
      </trkpt>
      <trkpt lat="45.68677" lon="2.96504">
        <ele>1052</ele>
        <time>2019-06-23T08:08:41.000Z</time>
      </trkpt>
      <trkpt lat="45.68679" lon="2.96503">
        <ele>1052</ele>
        <time>2019-06-23T08:08:42.000Z</time>
      </trkpt>
      <trkpt lat="45.68681" lon="2.96502">
        <ele>1052</ele>
        <time>2019-06-23T08:08:43.000Z</time>
      </trkpt>
      <trkpt lat="45.68683" lon="2.96501">
        <ele>1052</ele>
        <time>2019-06-23T08:08:44.000Z</time>
      </trkpt>
      <trkpt lat="45.68685" lon="2.965">
        <ele>1054</ele>
        <time>2019-06-23T08:08:45.000Z</time>
      </trkpt>
      <trkpt lat="45.68688" lon="2.96499">
        <ele>1055</ele>
        <time>2019-06-23T08:08:46.000Z</time>
      </trkpt>
      <trkpt lat="45.6869" lon="2.96498">
        <ele>1055</ele>
        <time>2019-06-23T08:08:47.000Z</time>
      </trkpt>
      <trkpt lat="45.68692" lon="2.96497">
        <ele>1055</ele>
        <time>2019-06-23T08:08:48.000Z</time>
      </trkpt>
      <trkpt lat="45.68695" lon="2.96495">
        <ele>1055</ele>
        <time>2019-06-23T08:08:49.000Z</time>
      </trkpt>
      <trkpt lat="45.68697" lon="2.96494">
        <ele>1054</ele>
        <time>2019-06-23T08:08:50.000Z</time>
      </trkpt>
      <trkpt lat="45.687" lon="2.96492">
        <ele>1054</ele>
        <time>2019-06-23T08:08:51.000Z</time>
      </trkpt>
      <trkpt lat="45.68703" lon="2.96491">
        <ele>1052</ele>
        <time>2019-06-23T08:08:52.000Z</time>
      </trkpt>
      <trkpt lat="45.68707" lon="2.96488">
        <ele>1052</ele>
        <time>2019-06-23T08:08:53.000Z</time>
      </trkpt>
      <trkpt lat="45.68709" lon="2.96486">
        <ele>1051</ele>
        <time>2019-06-23T08:08:54.000Z</time>
      </trkpt>
      <trkpt lat="45.68711" lon="2.96484">
        <ele>1051</ele>
        <time>2019-06-23T08:08:55.000Z</time>
      </trkpt>
      <trkpt lat="45.68714" lon="2.96482">
        <ele>1050</ele>
        <time>2019-06-23T08:08:56.000Z</time>
      </trkpt>
      <trkpt lat="45.68718" lon="2.96478">
        <ele>1049</ele>
        <time>2019-06-23T08:08:57.000Z</time>
      </trkpt>
      <trkpt lat="45.6872" lon="2.96476">
        <ele>1049</ele>
        <time>2019-06-23T08:08:58.000Z</time>
      </trkpt>
      <trkpt lat="45.68723" lon="2.96474">
        <ele>1049</ele>
        <time>2019-06-23T08:08:59.000Z</time>
      </trkpt>
      <trkpt lat="45.68725" lon="2.96473">
        <ele>1050</ele>
        <time>2019-06-23T08:09:00.000Z</time>
      </trkpt>
      <trkpt lat="45.68728" lon="2.96471">
        <ele>1050</ele>
        <time>2019-06-23T08:09:01.000Z</time>
      </trkpt>
      <trkpt lat="45.68731" lon="2.96468">
        <ele>1050</ele>
        <time>2019-06-23T08:09:02.000Z</time>
      </trkpt>
      <trkpt lat="45.68735" lon="2.96462">
        <ele>1049</ele>
        <time>2019-06-23T08:09:03.000Z</time>
      </trkpt>
      <trkpt lat="45.68739" lon="2.96455">
        <ele>1049</ele>
        <time>2019-06-23T08:09:04.000Z</time>
      </trkpt>
      <trkpt lat="45.68741" lon="2.9645">
        <ele>1049</ele>
        <time>2019-06-23T08:09:05.000Z</time>
      </trkpt>
      <trkpt lat="45.68743" lon="2.96445">
        <ele>1048</ele>
        <time>2019-06-23T08:09:06.000Z</time>
      </trkpt>
      <trkpt lat="45.68745" lon="2.96439">
        <ele>1048</ele>
        <time>2019-06-23T08:09:07.000Z</time>
      </trkpt>
      <trkpt lat="45.68746" lon="2.96432">
        <ele>1047</ele>
        <time>2019-06-23T08:09:08.000Z</time>
      </trkpt>
      <trkpt lat="45.6875" lon="2.96424">
        <ele>1047</ele>
        <time>2019-06-23T08:09:09.000Z</time>
      </trkpt>
      <trkpt lat="45.68751" lon="2.96417">
        <ele>1046</ele>
        <time>2019-06-23T08:09:10.000Z</time>
      </trkpt>
      <trkpt lat="45.68753" lon="2.96411">
        <ele>1045</ele>
        <time>2019-06-23T08:09:11.000Z</time>
      </trkpt>
      <trkpt lat="45.68754" lon="2.96404">
        <ele>1045</ele>
        <time>2019-06-23T08:09:12.000Z</time>
      </trkpt>
      <trkpt lat="45.68755" lon="2.96395">
        <ele>1044</ele>
        <time>2019-06-23T08:09:13.000Z</time>
      </trkpt>
      <trkpt lat="45.68755" lon="2.96389">
        <ele>1044</ele>
        <time>2019-06-23T08:09:14.000Z</time>
      </trkpt>
      <trkpt lat="45.68755" lon="2.96382">
        <ele>1043</ele>
        <time>2019-06-23T08:09:15.000Z</time>
      </trkpt>
      <trkpt lat="45.68756" lon="2.96375">
        <ele>1043</ele>
        <time>2019-06-23T08:09:16.000Z</time>
      </trkpt>
      <trkpt lat="45.68756" lon="2.9637">
        <ele>1046</ele>
        <time>2019-06-23T08:09:17.000Z</time>
      </trkpt>
      <trkpt lat="45.6876" lon="2.96361">
        <ele>1046</ele>
        <time>2019-06-23T08:09:18.000Z</time>
      </trkpt>
      <trkpt lat="45.68762" lon="2.96352">
        <ele>1045</ele>
        <time>2019-06-23T08:09:19.000Z</time>
      </trkpt>
      <trkpt lat="45.68765" lon="2.96343">
        <ele>1044</ele>
        <time>2019-06-23T08:09:20.000Z</time>
      </trkpt>
      <trkpt lat="45.68771" lon="2.96335">
        <ele>1045</ele>
        <time>2019-06-23T08:09:21.000Z</time>
      </trkpt>
      <trkpt lat="45.68778" lon="2.96322">
        <ele>1046</ele>
        <time>2019-06-23T08:09:22.000Z</time>
      </trkpt>
      <trkpt lat="45.68782" lon="2.96313">
        <ele>1046</ele>
        <time>2019-06-23T08:09:23.000Z</time>
      </trkpt>
      <trkpt lat="45.68785" lon="2.96306">
        <ele>1046</ele>
        <time>2019-06-23T08:09:24.000Z</time>
      </trkpt>
      <trkpt lat="45.68787" lon="2.963">
        <ele>1046</ele>
        <time>2019-06-23T08:09:25.000Z</time>
      </trkpt>
      <trkpt lat="45.68789" lon="2.96296">
        <ele>1045</ele>
        <time>2019-06-23T08:09:26.000Z</time>
      </trkpt>
      <trkpt lat="45.68792" lon="2.96291">
        <ele>1046</ele>
        <time>2019-06-23T08:09:27.000Z</time>
      </trkpt>
      <trkpt lat="45.68794" lon="2.96286">
        <ele>1046</ele>
        <time>2019-06-23T08:09:28.000Z</time>
      </trkpt>
      <trkpt lat="45.68796" lon="2.96281">
        <ele>1046</ele>
        <time>2019-06-23T08:09:29.000Z</time>
      </trkpt>
      <trkpt lat="45.68796" lon="2.96276">
        <ele>1044</ele>
        <time>2019-06-23T08:09:30.000Z</time>
      </trkpt>
      <trkpt lat="45.68797" lon="2.96271">
        <ele>1044</ele>
        <time>2019-06-23T08:09:31.000Z</time>
      </trkpt>
      <trkpt lat="45.68798" lon="2.96264">
        <ele>1045</ele>
        <time>2019-06-23T08:09:32.000Z</time>
      </trkpt>
      <trkpt lat="45.68799" lon="2.96259">
        <ele>1045</ele>
        <time>2019-06-23T08:09:33.000Z</time>
      </trkpt>
      <trkpt lat="45.688" lon="2.96253">
        <ele>1044</ele>
        <time>2019-06-23T08:09:34.000Z</time>
      </trkpt>
      <trkpt lat="45.68802" lon="2.96247">
        <ele>1045</ele>
        <time>2019-06-23T08:09:35.000Z</time>
      </trkpt>
      <trkpt lat="45.68802" lon="2.96242">
        <ele>1045</ele>
        <time>2019-06-23T08:09:36.000Z</time>
      </trkpt>
      <trkpt lat="45.68803" lon="2.96236">
        <ele>1044</ele>
        <time>2019-06-23T08:09:37.000Z</time>
      </trkpt>
      <trkpt lat="45.68804" lon="2.9623">
        <ele>1044</ele>
        <time>2019-06-23T08:09:38.000Z</time>
      </trkpt>
      <trkpt lat="45.68803" lon="2.96223">
        <ele>1042</ele>
        <time>2019-06-23T08:09:39.000Z</time>
      </trkpt>
      <trkpt lat="45.68803" lon="2.96217">
        <ele>1041</ele>
        <time>2019-06-23T08:09:40.000Z</time>
      </trkpt>
      <trkpt lat="45.68803" lon="2.96212">
        <ele>1041</ele>
        <time>2019-06-23T08:09:41.000Z</time>
      </trkpt>
      <trkpt lat="45.68801" lon="2.96207">
        <ele>1041</ele>
        <time>2019-06-23T08:09:42.000Z</time>
      </trkpt>
      <trkpt lat="45.688" lon="2.96202">
        <ele>1041</ele>
        <time>2019-06-23T08:09:43.000Z</time>
      </trkpt>
      <trkpt lat="45.688" lon="2.96199">
        <ele>1041</ele>
        <time>2019-06-23T08:09:44.000Z</time>
      </trkpt>
      <trkpt lat="45.688" lon="2.96196">
        <ele>1042</ele>
        <time>2019-06-23T08:09:45.000Z</time>
      </trkpt>
      <trkpt lat="45.68801" lon="2.96191">
        <ele>1044</ele>
        <time>2019-06-23T08:09:46.000Z</time>
      </trkpt>
      <trkpt lat="45.68802" lon="2.96187">
        <ele>1045</ele>
        <time>2019-06-23T08:09:47.000Z</time>
      </trkpt>
      <trkpt lat="45.68804" lon="2.96179">
        <ele>1048</ele>
        <time>2019-06-23T08:09:48.000Z</time>
      </trkpt>
      <trkpt lat="45.68806" lon="2.96173">
        <ele>1050</ele>
        <time>2019-06-23T08:09:49.000Z</time>
      </trkpt>
      <trkpt lat="45.68807" lon="2.96167">
        <ele>1052</ele>
        <time>2019-06-23T08:09:50.000Z</time>
      </trkpt>
      <trkpt lat="45.68809" lon="2.96161">
        <ele>1053</ele>
        <time>2019-06-23T08:09:51.000Z</time>
      </trkpt>
      <trkpt lat="45.6881" lon="2.96155">
        <ele>1054</ele>
        <time>2019-06-23T08:09:52.000Z</time>
      </trkpt>
      <trkpt lat="45.68814" lon="2.96146">
        <ele>1054</ele>
        <time>2019-06-23T08:09:53.000Z</time>
      </trkpt>
      <trkpt lat="45.68821" lon="2.96134">
        <ele>1056</ele>
        <time>2019-06-23T08:09:54.000Z</time>
      </trkpt>
      <trkpt lat="45.68827" lon="2.96124">
        <ele>1056</ele>
        <time>2019-06-23T08:09:55.000Z</time>
      </trkpt>
      <trkpt lat="45.6883" lon="2.96116">
        <ele>1056</ele>
        <time>2019-06-23T08:09:56.000Z</time>
      </trkpt>
      <trkpt lat="45.68835" lon="2.96106">
        <ele>1058</ele>
        <time>2019-06-23T08:09:57.000Z</time>
      </trkpt>
      <trkpt lat="45.68838" lon="2.96094">
        <ele>1053</ele>
        <time>2019-06-23T08:09:58.000Z</time>
      </trkpt>
      <trkpt lat="45.68841" lon="2.96083">
        <ele>1052</ele>
        <time>2019-06-23T08:09:59.000Z</time>
      </trkpt>
      <trkpt lat="45.68846" lon="2.96069">
        <ele>1049</ele>
        <time>2019-06-23T08:10:00.000Z</time>
      </trkpt>
      <trkpt lat="45.6885" lon="2.96052">
        <ele>1053</ele>
        <time>2019-06-23T08:10:01.000Z</time>
      </trkpt>
      <trkpt lat="45.68843" lon="2.96039">
        <ele>1057</ele>
        <time>2019-06-23T08:10:02.000Z</time>
      </trkpt>
      <trkpt lat="45.68845" lon="2.96027">
        <ele>1059</ele>
        <time>2019-06-23T08:10:03.000Z</time>
      </trkpt>
      <trkpt lat="45.6884" lon="2.96014">
        <ele>1049</ele>
        <time>2019-06-23T08:10:04.000Z</time>
      </trkpt>
      <trkpt lat="45.68835" lon="2.96">
        <ele>1039</ele>
        <time>2019-06-23T08:10:05.000Z</time>
      </trkpt>
      <trkpt lat="45.68833" lon="2.95989">
        <ele>1036</ele>
        <time>2019-06-23T08:10:06.000Z</time>
      </trkpt>
      <trkpt lat="45.68823" lon="2.95982">
        <ele>1032</ele>
        <time>2019-06-23T08:10:07.000Z</time>
      </trkpt>
      <trkpt lat="45.68816" lon="2.95969">
        <ele>1027</ele>
        <time>2019-06-23T08:10:08.000Z</time>
      </trkpt>
      <trkpt lat="45.68812" lon="2.95958">
        <ele>1027</ele>
        <time>2019-06-23T08:10:09.000Z</time>
      </trkpt>
      <trkpt lat="45.68808" lon="2.95947">
        <ele>1026</ele>
        <time>2019-06-23T08:10:10.000Z</time>
      </trkpt>
      <trkpt lat="45.68804" lon="2.95938">
        <ele>1026</ele>
        <time>2019-06-23T08:10:11.000Z</time>
      </trkpt>
      <trkpt lat="45.688" lon="2.9593">
        <ele>1026</ele>
        <time>2019-06-23T08:10:12.000Z</time>
      </trkpt>
      <trkpt lat="45.68795" lon="2.95921">
        <ele>1027</ele>
        <time>2019-06-23T08:10:13.000Z</time>
      </trkpt>
      <trkpt lat="45.6879" lon="2.95912">
        <ele>1026</ele>
        <time>2019-06-23T08:10:14.000Z</time>
      </trkpt>
      <trkpt lat="45.68779" lon="2.95902">
        <ele>1025</ele>
        <time>2019-06-23T08:10:15.000Z</time>
      </trkpt>
      <trkpt lat="45.68773" lon="2.95893">
        <ele>1025</ele>
        <time>2019-06-23T08:10:16.000Z</time>
      </trkpt>
      <trkpt lat="45.68766" lon="2.95884">
        <ele>1024</ele>
        <time>2019-06-23T08:10:17.000Z</time>
      </trkpt>
      <trkpt lat="45.68761" lon="2.95876">
        <ele>1025</ele>
        <time>2019-06-23T08:10:18.000Z</time>
      </trkpt>
      <trkpt lat="45.68754" lon="2.95869">
        <ele>1026</ele>
        <time>2019-06-23T08:10:19.000Z</time>
      </trkpt>
      <trkpt lat="45.68747" lon="2.95863">
        <ele>1026</ele>
        <time>2019-06-23T08:10:20.000Z</time>
      </trkpt>
      <trkpt lat="45.68741" lon="2.95857">
        <ele>1026</ele>
        <time>2019-06-23T08:10:21.000Z</time>
      </trkpt>
      <trkpt lat="45.68733" lon="2.95853">
        <ele>1026</ele>
        <time>2019-06-23T08:10:22.000Z</time>
      </trkpt>
      <trkpt lat="45.68727" lon="2.95847">
        <ele>1025</ele>
        <time>2019-06-23T08:10:23.000Z</time>
      </trkpt>
      <trkpt lat="45.6872" lon="2.95842">
        <ele>1026</ele>
        <time>2019-06-23T08:10:24.000Z</time>
      </trkpt>
      <trkpt lat="45.6871" lon="2.95837">
        <ele>1026</ele>
        <time>2019-06-23T08:10:25.000Z</time>
      </trkpt>
      <trkpt lat="45.68694" lon="2.95834">
        <ele>1023</ele>
        <time>2019-06-23T08:10:26.000Z</time>
      </trkpt>
      <trkpt lat="45.68684" lon="2.95828">
        <ele>1020</ele>
        <time>2019-06-23T08:10:27.000Z</time>
      </trkpt>
      <trkpt lat="45.68673" lon="2.95828">
        <ele>1015</ele>
        <time>2019-06-23T08:10:28.000Z</time>
      </trkpt>
      <trkpt lat="45.68663" lon="2.95824">
        <ele>1014</ele>
        <time>2019-06-23T08:10:29.000Z</time>
      </trkpt>
      <trkpt lat="45.68653" lon="2.95817">
        <ele>1014</ele>
        <time>2019-06-23T08:10:30.000Z</time>
      </trkpt>
      <trkpt lat="45.68645" lon="2.95809">
        <ele>1015</ele>
        <time>2019-06-23T08:10:31.000Z</time>
      </trkpt>
      <trkpt lat="45.68639" lon="2.95802">
        <ele>1018</ele>
        <time>2019-06-23T08:10:32.000Z</time>
      </trkpt>
      <trkpt lat="45.68638" lon="2.95801">
        <ele>1007</ele>
        <time>2019-06-23T08:10:33.000Z</time>
      </trkpt>
      <trkpt lat="45.68635" lon="2.95794">
        <ele>1005</ele>
        <time>2019-06-23T08:10:34.000Z</time>
      </trkpt>
      <trkpt lat="45.68632" lon="2.95788">
        <ele>1004</ele>
        <time>2019-06-23T08:10:35.000Z</time>
      </trkpt>
      <trkpt lat="45.68629" lon="2.95781">
        <ele>1004</ele>
        <time>2019-06-23T08:10:36.000Z</time>
      </trkpt>
      <trkpt lat="45.68626" lon="2.95776">
        <ele>1003</ele>
        <time>2019-06-23T08:10:37.000Z</time>
      </trkpt>
      <trkpt lat="45.68624" lon="2.95768">
        <ele>1002</ele>
        <time>2019-06-23T08:10:38.000Z</time>
      </trkpt>
      <trkpt lat="45.68622" lon="2.95759">
        <ele>1003</ele>
        <time>2019-06-23T08:10:39.000Z</time>
      </trkpt>
      <trkpt lat="45.6862" lon="2.95745">
        <ele>1000</ele>
        <time>2019-06-23T08:10:40.000Z</time>
      </trkpt>
      <trkpt lat="45.68618" lon="2.95733">
        <ele>998</ele>
        <time>2019-06-23T08:10:41.000Z</time>
      </trkpt>
      <trkpt lat="45.68615" lon="2.95724">
        <ele>996</ele>
        <time>2019-06-23T08:10:42.000Z</time>
      </trkpt>
      <trkpt lat="45.68613" lon="2.95714">
        <ele>994</ele>
        <time>2019-06-23T08:10:43.000Z</time>
      </trkpt>
      <trkpt lat="45.68611" lon="2.95704">
        <ele>994</ele>
        <time>2019-06-23T08:10:44.000Z</time>
      </trkpt>
      <trkpt lat="45.68608" lon="2.95693">
        <ele>995</ele>
        <time>2019-06-23T08:10:45.000Z</time>
      </trkpt>
      <trkpt lat="45.68605" lon="2.95684">
        <ele>994</ele>
        <time>2019-06-23T08:10:46.000Z</time>
      </trkpt>
      <trkpt lat="45.68602" lon="2.95674">
        <ele>994</ele>
        <time>2019-06-23T08:10:47.000Z</time>
      </trkpt>
      <trkpt lat="45.68599" lon="2.95664">
        <ele>992</ele>
        <time>2019-06-23T08:10:48.000Z</time>
      </trkpt>
      <trkpt lat="45.68597" lon="2.95655">
        <ele>990</ele>
        <time>2019-06-23T08:10:49.000Z</time>
      </trkpt>
      <trkpt lat="45.68595" lon="2.95646">
        <ele>988</ele>
        <time>2019-06-23T08:10:50.000Z</time>
      </trkpt>
      <trkpt lat="45.68593" lon="2.95638">
        <ele>986</ele>
        <time>2019-06-23T08:10:51.000Z</time>
      </trkpt>
      <trkpt lat="45.68591" lon="2.95629">
        <ele>984</ele>
        <time>2019-06-23T08:10:52.000Z</time>
      </trkpt>
      <trkpt lat="45.68589" lon="2.95619">
        <ele>982</ele>
        <time>2019-06-23T08:10:53.000Z</time>
      </trkpt>
      <trkpt lat="45.68587" lon="2.95609">
        <ele>980</ele>
        <time>2019-06-23T08:10:54.000Z</time>
      </trkpt>
      <trkpt lat="45.68586" lon="2.956">
        <ele>979</ele>
        <time>2019-06-23T08:10:55.000Z</time>
      </trkpt>
      <trkpt lat="45.68586" lon="2.95589">
        <ele>983</ele>
        <time>2019-06-23T08:10:56.000Z</time>
      </trkpt>
      <trkpt lat="45.68587" lon="2.95572">
        <ele>990</ele>
        <time>2019-06-23T08:10:57.000Z</time>
      </trkpt>
      <trkpt lat="45.68587" lon="2.95562">
        <ele>990</ele>
        <time>2019-06-23T08:10:58.000Z</time>
      </trkpt>
      <trkpt lat="45.68584" lon="2.95552">
        <ele>992</ele>
        <time>2019-06-23T08:10:59.000Z</time>
      </trkpt>
      <trkpt lat="45.68581" lon="2.95546">
        <ele>996</ele>
        <time>2019-06-23T08:11:00.000Z</time>
      </trkpt>
      <trkpt lat="45.68575" lon="2.95539">
        <ele>1000</ele>
        <time>2019-06-23T08:11:01.000Z</time>
      </trkpt>
      <trkpt lat="45.68564" lon="2.95531">
        <ele>999</ele>
        <time>2019-06-23T08:11:02.000Z</time>
      </trkpt>
      <trkpt lat="45.68557" lon="2.95526">
        <ele>997</ele>
        <time>2019-06-23T08:11:03.000Z</time>
      </trkpt>
      <trkpt lat="45.68552" lon="2.95522">
        <ele>997</ele>
        <time>2019-06-23T08:11:04.000Z</time>
      </trkpt>
      <trkpt lat="45.68547" lon="2.9552">
        <ele>995</ele>
        <time>2019-06-23T08:11:05.000Z</time>
      </trkpt>
      <trkpt lat="45.68544" lon="2.95516">
        <ele>993</ele>
        <time>2019-06-23T08:11:06.000Z</time>
      </trkpt>
      <trkpt lat="45.68541" lon="2.95515">
        <ele>994</ele>
        <time>2019-06-23T08:11:07.000Z</time>
      </trkpt>
      <trkpt lat="45.68537" lon="2.95513">
        <ele>994</ele>
        <time>2019-06-23T08:11:08.000Z</time>
      </trkpt>
      <trkpt lat="45.68532" lon="2.95512">
        <ele>993</ele>
        <time>2019-06-23T08:11:09.000Z</time>
      </trkpt>
      <trkpt lat="45.68528" lon="2.9551">
        <ele>992</ele>
        <time>2019-06-23T08:11:10.000Z</time>
      </trkpt>
      <trkpt lat="45.68521" lon="2.95507">
        <ele>992</ele>
        <time>2019-06-23T08:11:11.000Z</time>
      </trkpt>
      <trkpt lat="45.68518" lon="2.955">
        <ele>988</ele>
        <time>2019-06-23T08:11:12.000Z</time>
      </trkpt>
      <trkpt lat="45.68518" lon="2.95489">
        <ele>985</ele>
        <time>2019-06-23T08:11:13.000Z</time>
      </trkpt>
      <trkpt lat="45.68515" lon="2.95483">
        <ele>985</ele>
        <time>2019-06-23T08:11:14.000Z</time>
      </trkpt>
      <trkpt lat="45.68514" lon="2.95477">
        <ele>984</ele>
        <time>2019-06-23T08:11:15.000Z</time>
      </trkpt>
      <trkpt lat="45.68521" lon="2.95466">
        <ele>980</ele>
        <time>2019-06-23T08:11:16.000Z</time>
      </trkpt>
      <trkpt lat="45.68521" lon="2.9546">
        <ele>979</ele>
        <time>2019-06-23T08:11:17.000Z</time>
      </trkpt>
      <trkpt lat="45.68521" lon="2.95456">
        <ele>979</ele>
        <time>2019-06-23T08:11:18.000Z</time>
      </trkpt>
      <trkpt lat="45.68522" lon="2.95451">
        <ele>979</ele>
        <time>2019-06-23T08:11:19.000Z</time>
      </trkpt>
      <trkpt lat="45.68524" lon="2.95448">
        <ele>979</ele>
        <time>2019-06-23T08:11:20.000Z</time>
      </trkpt>
      <trkpt lat="45.68526" lon="2.95443">
        <ele>978</ele>
        <time>2019-06-23T08:11:21.000Z</time>
      </trkpt>
      <trkpt lat="45.68529" lon="2.95439">
        <ele>978</ele>
        <time>2019-06-23T08:11:22.000Z</time>
      </trkpt>
      <trkpt lat="45.68536" lon="2.9543">
        <ele>978</ele>
        <time>2019-06-23T08:11:23.000Z</time>
      </trkpt>
      <trkpt lat="45.68541" lon="2.95422">
        <ele>974</ele>
        <time>2019-06-23T08:11:24.000Z</time>
      </trkpt>
      <trkpt lat="45.68545" lon="2.95415">
        <ele>972</ele>
        <time>2019-06-23T08:11:25.000Z</time>
      </trkpt>
      <trkpt lat="45.68554" lon="2.95411">
        <ele>975</ele>
        <time>2019-06-23T08:11:26.000Z</time>
      </trkpt>
      <trkpt lat="45.68561" lon="2.95406">
        <ele>974</ele>
        <time>2019-06-23T08:11:27.000Z</time>
      </trkpt>
      <trkpt lat="45.68569" lon="2.95401">
        <ele>972</ele>
        <time>2019-06-23T08:11:28.000Z</time>
      </trkpt>
      <trkpt lat="45.68574" lon="2.95398">
        <ele>973</ele>
        <time>2019-06-23T08:11:29.000Z</time>
      </trkpt>
      <trkpt lat="45.6858" lon="2.95398">
        <ele>972</ele>
        <time>2019-06-23T08:11:30.000Z</time>
      </trkpt>
      <trkpt lat="45.68586" lon="2.95402">
        <ele>968</ele>
        <time>2019-06-23T08:11:31.000Z</time>
      </trkpt>
      <trkpt lat="45.6859" lon="2.95408">
        <ele>967</ele>
        <time>2019-06-23T08:11:32.000Z</time>
      </trkpt>
      <trkpt lat="45.68595" lon="2.95413">
        <ele>967</ele>
        <time>2019-06-23T08:11:33.000Z</time>
      </trkpt>
      <trkpt lat="45.686" lon="2.95418">
        <ele>967</ele>
        <time>2019-06-23T08:11:34.000Z</time>
      </trkpt>
      <trkpt lat="45.68606" lon="2.95421">
        <ele>967</ele>
        <time>2019-06-23T08:11:35.000Z</time>
      </trkpt>
      <trkpt lat="45.68612" lon="2.95424">
        <ele>966</ele>
        <time>2019-06-23T08:11:36.000Z</time>
      </trkpt>
      <trkpt lat="45.68617" lon="2.95431">
        <ele>964</ele>
        <time>2019-06-23T08:11:37.000Z</time>
      </trkpt>
      <trkpt lat="45.68623" lon="2.95435">
        <ele>963</ele>
        <time>2019-06-23T08:11:38.000Z</time>
      </trkpt>
      <trkpt lat="45.6863" lon="2.95437">
        <ele>964</ele>
        <time>2019-06-23T08:11:39.000Z</time>
      </trkpt>
      <trkpt lat="45.68637" lon="2.95436">
        <ele>963</ele>
        <time>2019-06-23T08:11:40.000Z</time>
      </trkpt>
      <trkpt lat="45.68642" lon="2.95433">
        <ele>963</ele>
        <time>2019-06-23T08:11:41.000Z</time>
      </trkpt>
      <trkpt lat="45.68646" lon="2.95429">
        <ele>963</ele>
        <time>2019-06-23T08:11:42.000Z</time>
      </trkpt>
      <trkpt lat="45.68648" lon="2.95423">
        <ele>962</ele>
        <time>2019-06-23T08:11:43.000Z</time>
      </trkpt>
      <trkpt lat="45.68648" lon="2.95418">
        <ele>962</ele>
        <time>2019-06-23T08:11:44.000Z</time>
      </trkpt>
      <trkpt lat="45.68649" lon="2.95412">
        <ele>962</ele>
        <time>2019-06-23T08:11:45.000Z</time>
      </trkpt>
      <trkpt lat="45.6865" lon="2.95406">
        <ele>962</ele>
        <time>2019-06-23T08:11:46.000Z</time>
      </trkpt>
      <trkpt lat="45.68651" lon="2.95401">
        <ele>962</ele>
        <time>2019-06-23T08:11:47.000Z</time>
      </trkpt>
      <trkpt lat="45.68651" lon="2.95395">
        <ele>962</ele>
        <time>2019-06-23T08:11:48.000Z</time>
      </trkpt>
      <trkpt lat="45.68651" lon="2.95391">
        <ele>962</ele>
        <time>2019-06-23T08:11:49.000Z</time>
      </trkpt>
      <trkpt lat="45.68652" lon="2.95386">
        <ele>962</ele>
        <time>2019-06-23T08:11:50.000Z</time>
      </trkpt>
      <trkpt lat="45.68652" lon="2.95382">
        <ele>962</ele>
        <time>2019-06-23T08:11:51.000Z</time>
      </trkpt>
      <trkpt lat="45.68653" lon="2.95379">
        <ele>962</ele>
        <time>2019-06-23T08:11:52.000Z</time>
      </trkpt>
      <trkpt lat="45.68653" lon="2.95378">
        <ele>962</ele>
        <time>2019-06-23T08:11:53.000Z</time>
      </trkpt>
      <trkpt lat="45.6865" lon="2.95375">
        <ele>962</ele>
        <time>2019-06-23T08:11:55.000Z</time>
      </trkpt>
      <trkpt lat="45.6865" lon="2.95374">
        <ele>962</ele>
        <time>2019-06-23T08:11:56.000Z</time>
      </trkpt>
      <trkpt lat="45.6865" lon="2.95372">
        <ele>962</ele>
        <time>2019-06-23T08:11:57.000Z</time>
      </trkpt>
      <trkpt lat="45.6865" lon="2.9537">
        <ele>961</ele>
        <time>2019-06-23T08:11:58.000Z</time>
      </trkpt>
      <trkpt lat="45.68649" lon="2.95368">
        <ele>961</ele>
        <time>2019-06-23T08:11:59.000Z</time>
      </trkpt>
      <trkpt lat="45.68649" lon="2.95364">
        <ele>960</ele>
        <time>2019-06-23T08:12:00.000Z</time>
      </trkpt>
      <trkpt lat="45.68649" lon="2.95362">
        <ele>960</ele>
        <time>2019-06-23T08:12:01.000Z</time>
      </trkpt>
      <trkpt lat="45.68649" lon="2.95358">
        <ele>959</ele>
        <time>2019-06-23T08:12:02.000Z</time>
      </trkpt>
      <trkpt lat="45.68649" lon="2.95355">
        <ele>958</ele>
        <time>2019-06-23T08:12:03.000Z</time>
      </trkpt>
      <trkpt lat="45.68649" lon="2.95352">
        <ele>957</ele>
        <time>2019-06-23T08:12:04.000Z</time>
      </trkpt>
      <trkpt lat="45.68647" lon="2.95349">
        <ele>954</ele>
        <time>2019-06-23T08:12:05.000Z</time>
      </trkpt>
      <trkpt lat="45.68647" lon="2.95344">
        <ele>953</ele>
        <time>2019-06-23T08:12:06.000Z</time>
      </trkpt>
      <trkpt lat="45.68646" lon="2.95339">
        <ele>952</ele>
        <time>2019-06-23T08:12:07.000Z</time>
      </trkpt>
      <trkpt lat="45.68646" lon="2.95333">
        <ele>952</ele>
        <time>2019-06-23T08:12:08.000Z</time>
      </trkpt>
      <trkpt lat="45.68646" lon="2.95327">
        <ele>952</ele>
        <time>2019-06-23T08:12:09.000Z</time>
      </trkpt>
      <trkpt lat="45.68644" lon="2.95324">
        <ele>951</ele>
        <time>2019-06-23T08:12:10.000Z</time>
      </trkpt>
      <trkpt lat="45.68642" lon="2.9532">
        <ele>950</ele>
        <time>2019-06-23T08:12:11.000Z</time>
      </trkpt>
      <trkpt lat="45.68643" lon="2.95314">
        <ele>949</ele>
        <time>2019-06-23T08:12:12.000Z</time>
      </trkpt>
      <trkpt lat="45.68644" lon="2.95307">
        <ele>948</ele>
        <time>2019-06-23T08:12:13.000Z</time>
      </trkpt>
      <trkpt lat="45.68645" lon="2.95301">
        <ele>947</ele>
        <time>2019-06-23T08:12:14.000Z</time>
      </trkpt>
      <trkpt lat="45.68643" lon="2.95295">
        <ele>946</ele>
        <time>2019-06-23T08:12:15.000Z</time>
      </trkpt>
      <trkpt lat="45.68643" lon="2.95288">
        <ele>945</ele>
        <time>2019-06-23T08:12:16.000Z</time>
      </trkpt>
      <trkpt lat="45.68644" lon="2.95281">
        <ele>946</ele>
        <time>2019-06-23T08:12:17.000Z</time>
      </trkpt>
      <trkpt lat="45.68644" lon="2.95276">
        <ele>946</ele>
        <time>2019-06-23T08:12:18.000Z</time>
      </trkpt>
      <trkpt lat="45.68643" lon="2.9527">
        <ele>945</ele>
        <time>2019-06-23T08:12:19.000Z</time>
      </trkpt>
      <trkpt lat="45.68644" lon="2.95264">
        <ele>945</ele>
        <time>2019-06-23T08:12:20.000Z</time>
      </trkpt>
      <trkpt lat="45.68644" lon="2.95259">
        <ele>945</ele>
        <time>2019-06-23T08:12:21.000Z</time>
      </trkpt>
      <trkpt lat="45.68644" lon="2.95254">
        <ele>944</ele>
        <time>2019-06-23T08:12:22.000Z</time>
      </trkpt>
      <trkpt lat="45.68646" lon="2.95247">
        <ele>944</ele>
        <time>2019-06-23T08:12:23.000Z</time>
      </trkpt>
      <trkpt lat="45.68648" lon="2.95242">
        <ele>942</ele>
        <time>2019-06-23T08:12:24.000Z</time>
      </trkpt>
      <trkpt lat="45.68652" lon="2.95234">
        <ele>943</ele>
        <time>2019-06-23T08:12:25.000Z</time>
      </trkpt>
      <trkpt lat="45.68659" lon="2.95225">
        <ele>946</ele>
        <time>2019-06-23T08:12:26.000Z</time>
      </trkpt>
      <trkpt lat="45.68665" lon="2.95217">
        <ele>948</ele>
        <time>2019-06-23T08:12:27.000Z</time>
      </trkpt>
      <trkpt lat="45.68668" lon="2.95212">
        <ele>949</ele>
        <time>2019-06-23T08:12:28.000Z</time>
      </trkpt>
      <trkpt lat="45.68672" lon="2.95207">
        <ele>949</ele>
        <time>2019-06-23T08:12:29.000Z</time>
      </trkpt>
      <trkpt lat="45.68675" lon="2.95202">
        <ele>949</ele>
        <time>2019-06-23T08:12:30.000Z</time>
      </trkpt>
      <trkpt lat="45.68678" lon="2.95198">
        <ele>950</ele>
        <time>2019-06-23T08:12:31.000Z</time>
      </trkpt>
      <trkpt lat="45.68681" lon="2.95194">
        <ele>950</ele>
        <time>2019-06-23T08:12:32.000Z</time>
      </trkpt>
      <trkpt lat="45.68685" lon="2.95189">
        <ele>950</ele>
        <time>2019-06-23T08:12:33.000Z</time>
      </trkpt>
      <trkpt lat="45.68689" lon="2.95185">
        <ele>950</ele>
        <time>2019-06-23T08:12:34.000Z</time>
      </trkpt>
      <trkpt lat="45.68693" lon="2.9518">
        <ele>951</ele>
        <time>2019-06-23T08:12:35.000Z</time>
      </trkpt>
      <trkpt lat="45.68697" lon="2.95176">
        <ele>951</ele>
        <time>2019-06-23T08:12:36.000Z</time>
      </trkpt>
      <trkpt lat="45.68701" lon="2.95171">
        <ele>952</ele>
        <time>2019-06-23T08:12:37.000Z</time>
      </trkpt>
      <trkpt lat="45.68704" lon="2.95168">
        <ele>953</ele>
        <time>2019-06-23T08:12:38.000Z</time>
      </trkpt>
      <trkpt lat="45.68708" lon="2.95164">
        <ele>953</ele>
        <time>2019-06-23T08:12:39.000Z</time>
      </trkpt>
      <trkpt lat="45.68711" lon="2.9516">
        <ele>954</ele>
        <time>2019-06-23T08:12:40.000Z</time>
      </trkpt>
      <trkpt lat="45.68715" lon="2.95157">
        <ele>955</ele>
        <time>2019-06-23T08:12:41.000Z</time>
      </trkpt>
      <trkpt lat="45.68719" lon="2.95155">
        <ele>955</ele>
        <time>2019-06-23T08:12:42.000Z</time>
      </trkpt>
      <trkpt lat="45.68723" lon="2.95153">
        <ele>956</ele>
        <time>2019-06-23T08:12:43.000Z</time>
      </trkpt>
      <trkpt lat="45.68727" lon="2.95153">
        <ele>956</ele>
        <time>2019-06-23T08:12:44.000Z</time>
      </trkpt>
      <trkpt lat="45.68731" lon="2.95151">
        <ele>957</ele>
        <time>2019-06-23T08:12:45.000Z</time>
      </trkpt>
      <trkpt lat="45.68735" lon="2.95151">
        <ele>958</ele>
        <time>2019-06-23T08:12:46.000Z</time>
      </trkpt>
      <trkpt lat="45.68739" lon="2.9515">
        <ele>958</ele>
        <time>2019-06-23T08:12:47.000Z</time>
      </trkpt>
      <trkpt lat="45.68743" lon="2.95149">
        <ele>959</ele>
        <time>2019-06-23T08:12:48.000Z</time>
      </trkpt>
      <trkpt lat="45.68747" lon="2.95148">
        <ele>960</ele>
        <time>2019-06-23T08:12:49.000Z</time>
      </trkpt>
      <trkpt lat="45.6875" lon="2.95147">
        <ele>960</ele>
        <time>2019-06-23T08:12:50.000Z</time>
      </trkpt>
      <trkpt lat="45.68753" lon="2.95145">
        <ele>961</ele>
        <time>2019-06-23T08:12:51.000Z</time>
      </trkpt>
      <trkpt lat="45.68757" lon="2.95143">
        <ele>962</ele>
        <time>2019-06-23T08:12:52.000Z</time>
      </trkpt>
      <trkpt lat="45.6876" lon="2.9514">
        <ele>963</ele>
        <time>2019-06-23T08:12:53.000Z</time>
      </trkpt>
      <trkpt lat="45.68763" lon="2.95135">
        <ele>964</ele>
        <time>2019-06-23T08:12:54.000Z</time>
      </trkpt>
      <trkpt lat="45.68767" lon="2.95132">
        <ele>964</ele>
        <time>2019-06-23T08:12:55.000Z</time>
      </trkpt>
      <trkpt lat="45.6877" lon="2.95129">
        <ele>963</ele>
        <time>2019-06-23T08:12:56.000Z</time>
      </trkpt>
      <trkpt lat="45.68775" lon="2.95126">
        <ele>964</ele>
        <time>2019-06-23T08:12:57.000Z</time>
      </trkpt>
      <trkpt lat="45.68779" lon="2.95125">
        <ele>965</ele>
        <time>2019-06-23T08:12:58.000Z</time>
      </trkpt>
      <trkpt lat="45.68783" lon="2.95124">
        <ele>967</ele>
        <time>2019-06-23T08:12:59.000Z</time>
      </trkpt>
      <trkpt lat="45.68787" lon="2.95122">
        <ele>968</ele>
        <time>2019-06-23T08:13:00.000Z</time>
      </trkpt>
      <trkpt lat="45.68792" lon="2.95121">
        <ele>968</ele>
        <time>2019-06-23T08:13:01.000Z</time>
      </trkpt>
      <trkpt lat="45.68796" lon="2.95119">
        <ele>969</ele>
        <time>2019-06-23T08:13:02.000Z</time>
      </trkpt>
      <trkpt lat="45.688" lon="2.95118">
        <ele>968</ele>
        <time>2019-06-23T08:13:03.000Z</time>
      </trkpt>
      <trkpt lat="45.68804" lon="2.95117">
        <ele>968</ele>
        <time>2019-06-23T08:13:04.000Z</time>
      </trkpt>
      <trkpt lat="45.68808" lon="2.95117">
        <ele>968</ele>
        <time>2019-06-23T08:13:05.000Z</time>
      </trkpt>
      <trkpt lat="45.68812" lon="2.95116">
        <ele>969</ele>
        <time>2019-06-23T08:13:06.000Z</time>
      </trkpt>
      <trkpt lat="45.68815" lon="2.95117">
        <ele>969</ele>
        <time>2019-06-23T08:13:07.000Z</time>
      </trkpt>
      <trkpt lat="45.68819" lon="2.95119">
        <ele>968</ele>
        <time>2019-06-23T08:13:08.000Z</time>
      </trkpt>
      <trkpt lat="45.68823" lon="2.95119">
        <ele>969</ele>
        <time>2019-06-23T08:13:09.000Z</time>
      </trkpt>
      <trkpt lat="45.68827" lon="2.95119">
        <ele>969</ele>
        <time>2019-06-23T08:13:10.000Z</time>
      </trkpt>
      <trkpt lat="45.6883" lon="2.9512">
        <ele>969</ele>
        <time>2019-06-23T08:13:11.000Z</time>
      </trkpt>
      <trkpt lat="45.68834" lon="2.9512">
        <ele>969</ele>
        <time>2019-06-23T08:13:12.000Z</time>
      </trkpt>
      <trkpt lat="45.68837" lon="2.95119">
        <ele>969</ele>
        <time>2019-06-23T08:13:13.000Z</time>
      </trkpt>
      <trkpt lat="45.68841" lon="2.95119">
        <ele>969</ele>
        <time>2019-06-23T08:13:14.000Z</time>
      </trkpt>
      <trkpt lat="45.68844" lon="2.95119">
        <ele>969</ele>
        <time>2019-06-23T08:13:15.000Z</time>
      </trkpt>
      <trkpt lat="45.68848" lon="2.95119">
        <ele>969</ele>
        <time>2019-06-23T08:13:16.000Z</time>
      </trkpt>
      <trkpt lat="45.68851" lon="2.9512">
        <ele>969</ele>
        <time>2019-06-23T08:13:17.000Z</time>
      </trkpt>
      <trkpt lat="45.68854" lon="2.95121">
        <ele>969</ele>
        <time>2019-06-23T08:13:18.000Z</time>
      </trkpt>
      <trkpt lat="45.68857" lon="2.95122">
        <ele>969</ele>
        <time>2019-06-23T08:13:19.000Z</time>
      </trkpt>
      <trkpt lat="45.6886" lon="2.95122">
        <ele>969</ele>
        <time>2019-06-23T08:13:20.000Z</time>
      </trkpt>
      <trkpt lat="45.68864" lon="2.95122">
        <ele>969</ele>
        <time>2019-06-23T08:13:21.000Z</time>
      </trkpt>
      <trkpt lat="45.68867" lon="2.95122">
        <ele>969</ele>
        <time>2019-06-23T08:13:22.000Z</time>
      </trkpt>
      <trkpt lat="45.68871" lon="2.95122">
        <ele>969</ele>
        <time>2019-06-23T08:13:23.000Z</time>
      </trkpt>
      <trkpt lat="45.68875" lon="2.95122">
        <ele>969</ele>
        <time>2019-06-23T08:13:24.000Z</time>
      </trkpt>
      <trkpt lat="45.68879" lon="2.95121">
        <ele>969</ele>
        <time>2019-06-23T08:13:25.000Z</time>
      </trkpt>
      <trkpt lat="45.68883" lon="2.9512">
        <ele>969</ele>
        <time>2019-06-23T08:13:26.000Z</time>
      </trkpt>
      <trkpt lat="45.68887" lon="2.95119">
        <ele>969</ele>
        <time>2019-06-23T08:13:27.000Z</time>
      </trkpt>
      <trkpt lat="45.6889" lon="2.95118">
        <ele>969</ele>
        <time>2019-06-23T08:13:28.000Z</time>
      </trkpt>
      <trkpt lat="45.68894" lon="2.95116">
        <ele>969</ele>
        <time>2019-06-23T08:13:29.000Z</time>
      </trkpt>
      <trkpt lat="45.68898" lon="2.95115">
        <ele>968</ele>
        <time>2019-06-23T08:13:30.000Z</time>
      </trkpt>
      <trkpt lat="45.68902" lon="2.95113">
        <ele>969</ele>
        <time>2019-06-23T08:13:31.000Z</time>
      </trkpt>
      <trkpt lat="45.68906" lon="2.95111">
        <ele>969</ele>
        <time>2019-06-23T08:13:32.000Z</time>
      </trkpt>
      <trkpt lat="45.6891" lon="2.9511">
        <ele>969</ele>
        <time>2019-06-23T08:13:33.000Z</time>
      </trkpt>
      <trkpt lat="45.68914" lon="2.95108">
        <ele>969</ele>
        <time>2019-06-23T08:13:34.000Z</time>
      </trkpt>
      <trkpt lat="45.68918" lon="2.95107">
        <ele>968</ele>
        <time>2019-06-23T08:13:35.000Z</time>
      </trkpt>
      <trkpt lat="45.68921" lon="2.95106">
        <ele>969</ele>
        <time>2019-06-23T08:13:36.000Z</time>
      </trkpt>
      <trkpt lat="45.68925" lon="2.95104">
        <ele>969</ele>
        <time>2019-06-23T08:13:37.000Z</time>
      </trkpt>
      <trkpt lat="45.68929" lon="2.95103">
        <ele>969</ele>
        <time>2019-06-23T08:13:38.000Z</time>
      </trkpt>
      <trkpt lat="45.68934" lon="2.95104">
        <ele>968</ele>
        <time>2019-06-23T08:13:39.000Z</time>
      </trkpt>
      <trkpt lat="45.68938" lon="2.95104">
        <ele>967</ele>
        <time>2019-06-23T08:13:40.000Z</time>
      </trkpt>
      <trkpt lat="45.68943" lon="2.95105">
        <ele>967</ele>
        <time>2019-06-23T08:13:41.000Z</time>
      </trkpt>
      <trkpt lat="45.68948" lon="2.95106">
        <ele>968</ele>
        <time>2019-06-23T08:13:42.000Z</time>
      </trkpt>
      <trkpt lat="45.68951" lon="2.95108">
        <ele>968</ele>
        <time>2019-06-23T08:13:43.000Z</time>
      </trkpt>
      <trkpt lat="45.68955" lon="2.95109">
        <ele>968</ele>
        <time>2019-06-23T08:13:44.000Z</time>
      </trkpt>
      <trkpt lat="45.68959" lon="2.9511">
        <ele>968</ele>
        <time>2019-06-23T08:13:45.000Z</time>
      </trkpt>
      <trkpt lat="45.68963" lon="2.95112">
        <ele>968</ele>
        <time>2019-06-23T08:13:46.000Z</time>
      </trkpt>
      <trkpt lat="45.68967" lon="2.95113">
        <ele>968</ele>
        <time>2019-06-23T08:13:47.000Z</time>
      </trkpt>
      <trkpt lat="45.68971" lon="2.95114">
        <ele>968</ele>
        <time>2019-06-23T08:13:48.000Z</time>
      </trkpt>
      <trkpt lat="45.68975" lon="2.95115">
        <ele>968</ele>
        <time>2019-06-23T08:13:49.000Z</time>
      </trkpt>
      <trkpt lat="45.68978" lon="2.95116">
        <ele>968</ele>
        <time>2019-06-23T08:13:50.000Z</time>
      </trkpt>
      <trkpt lat="45.68982" lon="2.95118">
        <ele>969</ele>
        <time>2019-06-23T08:13:51.000Z</time>
      </trkpt>
      <trkpt lat="45.68986" lon="2.9512">
        <ele>969</ele>
        <time>2019-06-23T08:13:52.000Z</time>
      </trkpt>
      <trkpt lat="45.6899" lon="2.95122">
        <ele>969</ele>
        <time>2019-06-23T08:13:53.000Z</time>
      </trkpt>
      <trkpt lat="45.68995" lon="2.95125">
        <ele>969</ele>
        <time>2019-06-23T08:13:54.000Z</time>
      </trkpt>
      <trkpt lat="45.68999" lon="2.95127">
        <ele>969</ele>
        <time>2019-06-23T08:13:55.000Z</time>
      </trkpt>
      <trkpt lat="45.69003" lon="2.95129">
        <ele>969</ele>
        <time>2019-06-23T08:13:56.000Z</time>
      </trkpt>
      <trkpt lat="45.69007" lon="2.9513">
        <ele>968</ele>
        <time>2019-06-23T08:13:57.000Z</time>
      </trkpt>
      <trkpt lat="45.69012" lon="2.9513">
        <ele>967</ele>
        <time>2019-06-23T08:13:58.000Z</time>
      </trkpt>
      <trkpt lat="45.69016" lon="2.95129">
        <ele>966</ele>
        <time>2019-06-23T08:13:59.000Z</time>
      </trkpt>
      <trkpt lat="45.6902" lon="2.95127">
        <ele>966</ele>
        <time>2019-06-23T08:14:00.000Z</time>
      </trkpt>
      <trkpt lat="45.69024" lon="2.95124">
        <ele>964</ele>
        <time>2019-06-23T08:14:01.000Z</time>
      </trkpt>
      <trkpt lat="45.69028" lon="2.9512">
        <ele>964</ele>
        <time>2019-06-23T08:14:02.000Z</time>
      </trkpt>
      <trkpt lat="45.69031" lon="2.95117">
        <ele>963</ele>
        <time>2019-06-23T08:14:03.000Z</time>
      </trkpt>
      <trkpt lat="45.69035" lon="2.95114">
        <ele>963</ele>
        <time>2019-06-23T08:14:04.000Z</time>
      </trkpt>
      <trkpt lat="45.6904" lon="2.95111">
        <ele>964</ele>
        <time>2019-06-23T08:14:05.000Z</time>
      </trkpt>
      <trkpt lat="45.69044" lon="2.95109">
        <ele>964</ele>
        <time>2019-06-23T08:14:06.000Z</time>
      </trkpt>
      <trkpt lat="45.69048" lon="2.95108">
        <ele>964</ele>
        <time>2019-06-23T08:14:07.000Z</time>
      </trkpt>
      <trkpt lat="45.69051" lon="2.95107">
        <ele>964</ele>
        <time>2019-06-23T08:14:08.000Z</time>
      </trkpt>
      <trkpt lat="45.69055" lon="2.95106">
        <ele>965</ele>
        <time>2019-06-23T08:14:09.000Z</time>
      </trkpt>
      <trkpt lat="45.6906" lon="2.95106">
        <ele>965</ele>
        <time>2019-06-23T08:14:10.000Z</time>
      </trkpt>
      <trkpt lat="45.69064" lon="2.95107">
        <ele>965</ele>
        <time>2019-06-23T08:14:11.000Z</time>
      </trkpt>
      <trkpt lat="45.69068" lon="2.95108">
        <ele>965</ele>
        <time>2019-06-23T08:14:12.000Z</time>
      </trkpt>
      <trkpt lat="45.69072" lon="2.95109">
        <ele>965</ele>
        <time>2019-06-23T08:14:13.000Z</time>
      </trkpt>
      <trkpt lat="45.69076" lon="2.9511">
        <ele>965</ele>
        <time>2019-06-23T08:14:14.000Z</time>
      </trkpt>
      <trkpt lat="45.6908" lon="2.95111">
        <ele>965</ele>
        <time>2019-06-23T08:14:15.000Z</time>
      </trkpt>
      <trkpt lat="45.69084" lon="2.95111">
        <ele>966</ele>
        <time>2019-06-23T08:14:16.000Z</time>
      </trkpt>
      <trkpt lat="45.69088" lon="2.95111">
        <ele>965</ele>
        <time>2019-06-23T08:14:17.000Z</time>
      </trkpt>
      <trkpt lat="45.69092" lon="2.95112">
        <ele>966</ele>
        <time>2019-06-23T08:14:18.000Z</time>
      </trkpt>
      <trkpt lat="45.69096" lon="2.95112">
        <ele>965</ele>
        <time>2019-06-23T08:14:19.000Z</time>
      </trkpt>
      <trkpt lat="45.69101" lon="2.95112">
        <ele>965</ele>
        <time>2019-06-23T08:14:20.000Z</time>
      </trkpt>
      <trkpt lat="45.69105" lon="2.95112">
        <ele>964</ele>
        <time>2019-06-23T08:14:21.000Z</time>
      </trkpt>
      <trkpt lat="45.69109" lon="2.95112">
        <ele>964</ele>
        <time>2019-06-23T08:14:22.000Z</time>
      </trkpt>
      <trkpt lat="45.69114" lon="2.95112">
        <ele>964</ele>
        <time>2019-06-23T08:14:23.000Z</time>
      </trkpt>
      <trkpt lat="45.69119" lon="2.95112">
        <ele>964</ele>
        <time>2019-06-23T08:14:24.000Z</time>
      </trkpt>
      <trkpt lat="45.69123" lon="2.95111">
        <ele>964</ele>
        <time>2019-06-23T08:14:25.000Z</time>
      </trkpt>
      <trkpt lat="45.69128" lon="2.95111">
        <ele>964</ele>
        <time>2019-06-23T08:14:26.000Z</time>
      </trkpt>
      <trkpt lat="45.69132" lon="2.95111">
        <ele>964</ele>
        <time>2019-06-23T08:14:27.000Z</time>
      </trkpt>
      <trkpt lat="45.69136" lon="2.95111">
        <ele>964</ele>
        <time>2019-06-23T08:14:28.000Z</time>
      </trkpt>
      <trkpt lat="45.69141" lon="2.95111">
        <ele>964</ele>
        <time>2019-06-23T08:14:29.000Z</time>
      </trkpt>
      <trkpt lat="45.69145" lon="2.95111">
        <ele>964</ele>
        <time>2019-06-23T08:14:30.000Z</time>
      </trkpt>
      <trkpt lat="45.69149" lon="2.95111">
        <ele>964</ele>
        <time>2019-06-23T08:14:31.000Z</time>
      </trkpt>
      <trkpt lat="45.69153" lon="2.95111">
        <ele>964</ele>
        <time>2019-06-23T08:14:32.000Z</time>
      </trkpt>
      <trkpt lat="45.69157" lon="2.95111">
        <ele>964</ele>
        <time>2019-06-23T08:14:33.000Z</time>
      </trkpt>
      <trkpt lat="45.69161" lon="2.95111">
        <ele>965</ele>
        <time>2019-06-23T08:14:34.000Z</time>
      </trkpt>
      <trkpt lat="45.69165" lon="2.95111">
        <ele>964</ele>
        <time>2019-06-23T08:14:35.000Z</time>
      </trkpt>
      <trkpt lat="45.69169" lon="2.95111">
        <ele>964</ele>
        <time>2019-06-23T08:14:36.000Z</time>
      </trkpt>
      <trkpt lat="45.69172" lon="2.95111">
        <ele>965</ele>
        <time>2019-06-23T08:14:37.000Z</time>
      </trkpt>
      <trkpt lat="45.69176" lon="2.95111">
        <ele>965</ele>
        <time>2019-06-23T08:14:38.000Z</time>
      </trkpt>
      <trkpt lat="45.69179" lon="2.95111">
        <ele>966</ele>
        <time>2019-06-23T08:14:39.000Z</time>
      </trkpt>
      <trkpt lat="45.69183" lon="2.95111">
        <ele>966</ele>
        <time>2019-06-23T08:14:40.000Z</time>
      </trkpt>
      <trkpt lat="45.69186" lon="2.95111">
        <ele>966</ele>
        <time>2019-06-23T08:14:41.000Z</time>
      </trkpt>
      <trkpt lat="45.69189" lon="2.95111">
        <ele>966</ele>
        <time>2019-06-23T08:14:42.000Z</time>
      </trkpt>
      <trkpt lat="45.69192" lon="2.95111">
        <ele>967</ele>
        <time>2019-06-23T08:14:43.000Z</time>
      </trkpt>
      <trkpt lat="45.69195" lon="2.95111">
        <ele>967</ele>
        <time>2019-06-23T08:14:44.000Z</time>
      </trkpt>
      <trkpt lat="45.69198" lon="2.95111">
        <ele>968</ele>
        <time>2019-06-23T08:14:45.000Z</time>
      </trkpt>
      <trkpt lat="45.69201" lon="2.95111">
        <ele>968</ele>
        <time>2019-06-23T08:14:46.000Z</time>
      </trkpt>
      <trkpt lat="45.69204" lon="2.95111">
        <ele>969</ele>
        <time>2019-06-23T08:14:47.000Z</time>
      </trkpt>
      <trkpt lat="45.69207" lon="2.95111">
        <ele>969</ele>
        <time>2019-06-23T08:14:48.000Z</time>
      </trkpt>
      <trkpt lat="45.69209" lon="2.95112">
        <ele>969</ele>
        <time>2019-06-23T08:14:49.000Z</time>
      </trkpt>
      <trkpt lat="45.69212" lon="2.95113">
        <ele>969</ele>
        <time>2019-06-23T08:14:50.000Z</time>
      </trkpt>
      <trkpt lat="45.69215" lon="2.95113">
        <ele>970</ele>
        <time>2019-06-23T08:14:51.000Z</time>
      </trkpt>
      <trkpt lat="45.69218" lon="2.95114">
        <ele>970</ele>
        <time>2019-06-23T08:14:52.000Z</time>
      </trkpt>
      <trkpt lat="45.69221" lon="2.95114">
        <ele>970</ele>
        <time>2019-06-23T08:14:53.000Z</time>
      </trkpt>
      <trkpt lat="45.69224" lon="2.95115">
        <ele>970</ele>
        <time>2019-06-23T08:14:54.000Z</time>
      </trkpt>
      <trkpt lat="45.69228" lon="2.95114">
        <ele>970</ele>
        <time>2019-06-23T08:14:55.000Z</time>
      </trkpt>
      <trkpt lat="45.69231" lon="2.95115">
        <ele>970</ele>
        <time>2019-06-23T08:14:56.000Z</time>
      </trkpt>
      <trkpt lat="45.69234" lon="2.95115">
        <ele>970</ele>
        <time>2019-06-23T08:14:57.000Z</time>
      </trkpt>
      <trkpt lat="45.69236" lon="2.95115">
        <ele>970</ele>
        <time>2019-06-23T08:14:58.000Z</time>
      </trkpt>
      <trkpt lat="45.6924" lon="2.95115">
        <ele>971</ele>
        <time>2019-06-23T08:14:59.000Z</time>
      </trkpt>
      <trkpt lat="45.69243" lon="2.95115">
        <ele>971</ele>
        <time>2019-06-23T08:15:00.000Z</time>
      </trkpt>
      <trkpt lat="45.69247" lon="2.95115">
        <ele>972</ele>
        <time>2019-06-23T08:15:01.000Z</time>
      </trkpt>
      <trkpt lat="45.6925" lon="2.95115">
        <ele>972</ele>
        <time>2019-06-23T08:15:02.000Z</time>
      </trkpt>
      <trkpt lat="45.69253" lon="2.95116">
        <ele>972</ele>
        <time>2019-06-23T08:15:03.000Z</time>
      </trkpt>
      <trkpt lat="45.69257" lon="2.95116">
        <ele>973</ele>
        <time>2019-06-23T08:15:04.000Z</time>
      </trkpt>
      <trkpt lat="45.6926" lon="2.95116">
        <ele>974</ele>
        <time>2019-06-23T08:15:05.000Z</time>
      </trkpt>
      <trkpt lat="45.69263" lon="2.95117">
        <ele>974</ele>
        <time>2019-06-23T08:15:06.000Z</time>
      </trkpt>
      <trkpt lat="45.69267" lon="2.95116">
        <ele>975</ele>
        <time>2019-06-23T08:15:07.000Z</time>
      </trkpt>
      <trkpt lat="45.69269" lon="2.95117">
        <ele>976</ele>
        <time>2019-06-23T08:15:08.000Z</time>
      </trkpt>
      <trkpt lat="45.69272" lon="2.95117">
        <ele>976</ele>
        <time>2019-06-23T08:15:09.000Z</time>
      </trkpt>
      <trkpt lat="45.69276" lon="2.95117">
        <ele>975</ele>
        <time>2019-06-23T08:15:10.000Z</time>
      </trkpt>
      <trkpt lat="45.69278" lon="2.95118">
        <ele>976</ele>
        <time>2019-06-23T08:15:11.000Z</time>
      </trkpt>
      <trkpt lat="45.69281" lon="2.95119">
        <ele>975</ele>
        <time>2019-06-23T08:15:12.000Z</time>
      </trkpt>
      <trkpt lat="45.69285" lon="2.95118">
        <ele>976</ele>
        <time>2019-06-23T08:15:13.000Z</time>
      </trkpt>
      <trkpt lat="45.69288" lon="2.95118">
        <ele>976</ele>
        <time>2019-06-23T08:15:14.000Z</time>
      </trkpt>
      <trkpt lat="45.69291" lon="2.95119">
        <ele>976</ele>
        <time>2019-06-23T08:15:15.000Z</time>
      </trkpt>
      <trkpt lat="45.69293" lon="2.95121">
        <ele>976</ele>
        <time>2019-06-23T08:15:16.000Z</time>
      </trkpt>
      <trkpt lat="45.69295" lon="2.95121">
        <ele>976</ele>
        <time>2019-06-23T08:15:17.000Z</time>
      </trkpt>
      <trkpt lat="45.69296" lon="2.95122">
        <ele>975</ele>
        <time>2019-06-23T08:15:18.000Z</time>
      </trkpt>
      <trkpt lat="45.69298" lon="2.95122">
        <ele>975</ele>
        <time>2019-06-23T08:15:19.000Z</time>
      </trkpt>
      <trkpt lat="45.69299" lon="2.95122">
        <ele>975</ele>
        <time>2019-06-23T08:15:20.000Z</time>
      </trkpt>
      <trkpt lat="45.693" lon="2.95122">
        <ele>975</ele>
        <time>2019-06-23T08:15:21.000Z</time>
      </trkpt>
      <trkpt lat="45.69301" lon="2.95122">
        <ele>975</ele>
        <time>2019-06-23T08:15:22.000Z</time>
      </trkpt>
      <trkpt lat="45.69302" lon="2.95123">
        <ele>975</ele>
        <time>2019-06-23T08:15:23.000Z</time>
      </trkpt>
      <trkpt lat="45.69303" lon="2.95124">
        <ele>974</ele>
        <time>2019-06-23T08:15:24.000Z</time>
      </trkpt>
      <trkpt lat="45.69304" lon="2.95125">
        <ele>974</ele>
        <time>2019-06-23T08:15:25.000Z</time>
      </trkpt>
      <trkpt lat="45.69305" lon="2.95126">
        <ele>974</ele>
        <time>2019-06-23T08:15:26.000Z</time>
      </trkpt>
      <trkpt lat="45.69306" lon="2.95127">
        <ele>974</ele>
        <time>2019-06-23T08:15:27.000Z</time>
      </trkpt>
      <trkpt lat="45.69306" lon="2.95129">
        <ele>974</ele>
        <time>2019-06-23T08:15:28.000Z</time>
      </trkpt>
      <trkpt lat="45.69307" lon="2.9513">
        <ele>974</ele>
        <time>2019-06-23T08:15:29.000Z</time>
      </trkpt>
      <trkpt lat="45.69308" lon="2.95132">
        <ele>974</ele>
        <time>2019-06-23T08:15:30.000Z</time>
      </trkpt>
      <trkpt lat="45.69308" lon="2.95132">
        <ele>974</ele>
        <time>2019-06-23T08:15:31.000Z</time>
      </trkpt>
      <trkpt lat="45.69308" lon="2.95132">
        <ele>973</ele>
        <time>2019-06-23T08:15:32.000Z</time>
      </trkpt>
      <trkpt lat="45.69307" lon="2.95132">
        <ele>973</ele>
        <time>2019-06-23T08:15:33.000Z</time>
      </trkpt>
      <trkpt lat="45.69307" lon="2.95132">
        <ele>973</ele>
        <time>2019-06-23T08:15:34.000Z</time>
      </trkpt>
      <trkpt lat="45.69307" lon="2.95132">
        <ele>973</ele>
        <time>2019-06-23T08:15:35.000Z</time>
      </trkpt>
      <trkpt lat="45.6931" lon="2.95133">
        <ele>976</ele>
        <time>2019-06-23T08:15:36.000Z</time>
      </trkpt>
      <trkpt lat="45.69312" lon="2.95136">
        <ele>975</ele>
        <time>2019-06-23T08:15:37.000Z</time>
      </trkpt>
      <trkpt lat="45.69314" lon="2.95139">
        <ele>975</ele>
        <time>2019-06-23T08:15:38.000Z</time>
      </trkpt>
      <trkpt lat="45.69316" lon="2.95142">
        <ele>975</ele>
        <time>2019-06-23T08:15:39.000Z</time>
      </trkpt>
      <trkpt lat="45.69319" lon="2.95145">
        <ele>976</ele>
        <time>2019-06-23T08:15:40.000Z</time>
      </trkpt>
      <trkpt lat="45.69322" lon="2.95148">
        <ele>975</ele>
        <time>2019-06-23T08:15:41.000Z</time>
      </trkpt>
      <trkpt lat="45.69324" lon="2.95152">
        <ele>975</ele>
        <time>2019-06-23T08:15:42.000Z</time>
      </trkpt>
      <trkpt lat="45.69327" lon="2.95155">
        <ele>975</ele>
        <time>2019-06-23T08:15:43.000Z</time>
      </trkpt>
      <trkpt lat="45.6933" lon="2.95159">
        <ele>975</ele>
        <time>2019-06-23T08:15:44.000Z</time>
      </trkpt>
      <trkpt lat="45.69332" lon="2.95163">
        <ele>974</ele>
        <time>2019-06-23T08:15:45.000Z</time>
      </trkpt>
      <trkpt lat="45.69334" lon="2.95166">
        <ele>974</ele>
        <time>2019-06-23T08:15:46.000Z</time>
      </trkpt>
      <trkpt lat="45.69336" lon="2.95168">
        <ele>974</ele>
        <time>2019-06-23T08:15:47.000Z</time>
      </trkpt>
      <trkpt lat="45.69338" lon="2.9517">
        <ele>974</ele>
        <time>2019-06-23T08:15:48.000Z</time>
      </trkpt>
      <trkpt lat="45.6934" lon="2.95173">
        <ele>974</ele>
        <time>2019-06-23T08:15:49.000Z</time>
      </trkpt>
      <trkpt lat="45.69342" lon="2.95176">
        <ele>974</ele>
        <time>2019-06-23T08:15:50.000Z</time>
      </trkpt>
      <trkpt lat="45.69344" lon="2.9518">
        <ele>974</ele>
        <time>2019-06-23T08:15:51.000Z</time>
      </trkpt>
      <trkpt lat="45.69347" lon="2.95183">
        <ele>974</ele>
        <time>2019-06-23T08:15:52.000Z</time>
      </trkpt>
      <trkpt lat="45.69349" lon="2.95187">
        <ele>974</ele>
        <time>2019-06-23T08:15:53.000Z</time>
      </trkpt>
      <trkpt lat="45.69352" lon="2.95191">
        <ele>974</ele>
        <time>2019-06-23T08:15:54.000Z</time>
      </trkpt>
      <trkpt lat="45.69355" lon="2.95195">
        <ele>974</ele>
        <time>2019-06-23T08:15:55.000Z</time>
      </trkpt>
      <trkpt lat="45.69358" lon="2.952">
        <ele>974</ele>
        <time>2019-06-23T08:15:56.000Z</time>
      </trkpt>
      <trkpt lat="45.69361" lon="2.95204">
        <ele>974</ele>
        <time>2019-06-23T08:15:57.000Z</time>
      </trkpt>
      <trkpt lat="45.69364" lon="2.95209">
        <ele>974</ele>
        <time>2019-06-23T08:15:58.000Z</time>
      </trkpt>
      <trkpt lat="45.69367" lon="2.95214">
        <ele>974</ele>
        <time>2019-06-23T08:15:59.000Z</time>
      </trkpt>
      <trkpt lat="45.6937" lon="2.95219">
        <ele>973</ele>
        <time>2019-06-23T08:16:00.000Z</time>
      </trkpt>
      <trkpt lat="45.69373" lon="2.95222">
        <ele>974</ele>
        <time>2019-06-23T08:16:01.000Z</time>
      </trkpt>
      <trkpt lat="45.69376" lon="2.95224">
        <ele>973</ele>
        <time>2019-06-23T08:16:02.000Z</time>
      </trkpt>
      <trkpt lat="45.69379" lon="2.95223">
        <ele>973</ele>
        <time>2019-06-23T08:16:03.000Z</time>
      </trkpt>
      <trkpt lat="45.69382" lon="2.95223">
        <ele>973</ele>
        <time>2019-06-23T08:16:04.000Z</time>
      </trkpt>
      <trkpt lat="45.69384" lon="2.95222">
        <ele>973</ele>
        <time>2019-06-23T08:16:05.000Z</time>
      </trkpt>
      <trkpt lat="45.69386" lon="2.95222">
        <ele>973</ele>
        <time>2019-06-23T08:16:06.000Z</time>
      </trkpt>
      <trkpt lat="45.69387" lon="2.95222">
        <ele>973</ele>
        <time>2019-06-23T08:16:07.000Z</time>
      </trkpt>
      <trkpt lat="45.69388" lon="2.95222">
        <ele>974</ele>
        <time>2019-06-23T08:16:08.000Z</time>
      </trkpt>
      <trkpt lat="45.69388" lon="2.95222">
        <ele>974</ele>
        <time>2019-06-23T08:16:09.000Z</time>
      </trkpt>
      <trkpt lat="45.69389" lon="2.95221">
        <ele>974</ele>
        <time>2019-06-23T08:16:10.000Z</time>
      </trkpt>
      <trkpt lat="45.69389" lon="2.95221">
        <ele>974</ele>
        <time>2019-06-23T08:16:11.000Z</time>
      </trkpt>
      <trkpt lat="45.69389" lon="2.95221">
        <ele>974</ele>
        <time>2019-06-23T08:16:12.000Z</time>
      </trkpt>
      <trkpt lat="45.69389" lon="2.95222">
        <ele>974</ele>
        <time>2019-06-23T08:16:13.000Z</time>
      </trkpt>
      <trkpt lat="45.69391" lon="2.95223">
        <ele>975</ele>
        <time>2019-06-23T08:16:14.000Z</time>
      </trkpt>
      <trkpt lat="45.69392" lon="2.95225">
        <ele>975</ele>
        <time>2019-06-23T08:16:15.000Z</time>
      </trkpt>
      <trkpt lat="45.69392" lon="2.95227">
        <ele>975</ele>
        <time>2019-06-23T08:16:16.000Z</time>
      </trkpt>
      <trkpt lat="45.69393" lon="2.95229">
        <ele>975</ele>
        <time>2019-06-23T08:16:17.000Z</time>
      </trkpt>
      <trkpt lat="45.69395" lon="2.95231">
        <ele>975</ele>
        <time>2019-06-23T08:16:18.000Z</time>
      </trkpt>
      <trkpt lat="45.69397" lon="2.95234">
        <ele>975</ele>
        <time>2019-06-23T08:16:19.000Z</time>
      </trkpt>
      <trkpt lat="45.69399" lon="2.95236">
        <ele>976</ele>
        <time>2019-06-23T08:16:20.000Z</time>
      </trkpt>
      <trkpt lat="45.69401" lon="2.95238">
        <ele>976</ele>
        <time>2019-06-23T08:16:21.000Z</time>
      </trkpt>
      <trkpt lat="45.69403" lon="2.9524">
        <ele>976</ele>
        <time>2019-06-23T08:16:22.000Z</time>
      </trkpt>
      <trkpt lat="45.69405" lon="2.95243">
        <ele>977</ele>
        <time>2019-06-23T08:16:23.000Z</time>
      </trkpt>
      <trkpt lat="45.69407" lon="2.95246">
        <ele>977</ele>
        <time>2019-06-23T08:16:24.000Z</time>
      </trkpt>
      <trkpt lat="45.69407" lon="2.95251">
        <ele>977</ele>
        <time>2019-06-23T08:16:25.000Z</time>
      </trkpt>
      <trkpt lat="45.69409" lon="2.95255">
        <ele>978</ele>
        <time>2019-06-23T08:16:26.000Z</time>
      </trkpt>
      <trkpt lat="45.69412" lon="2.95258">
        <ele>977</ele>
        <time>2019-06-23T08:16:27.000Z</time>
      </trkpt>
      <trkpt lat="45.69415" lon="2.95262">
        <ele>977</ele>
        <time>2019-06-23T08:16:28.000Z</time>
      </trkpt>
      <trkpt lat="45.69417" lon="2.95266">
        <ele>976</ele>
        <time>2019-06-23T08:16:29.000Z</time>
      </trkpt>
      <trkpt lat="45.6942" lon="2.9527">
        <ele>975</ele>
        <time>2019-06-23T08:16:30.000Z</time>
      </trkpt>
      <trkpt lat="45.69422" lon="2.95273">
        <ele>975</ele>
        <time>2019-06-23T08:16:31.000Z</time>
      </trkpt>
      <trkpt lat="45.69424" lon="2.95276">
        <ele>975</ele>
        <time>2019-06-23T08:16:32.000Z</time>
      </trkpt>
      <trkpt lat="45.69427" lon="2.95279">
        <ele>975</ele>
        <time>2019-06-23T08:16:33.000Z</time>
      </trkpt>
      <trkpt lat="45.69429" lon="2.95282">
        <ele>975</ele>
        <time>2019-06-23T08:16:34.000Z</time>
      </trkpt>
      <trkpt lat="45.69431" lon="2.95285">
        <ele>975</ele>
        <time>2019-06-23T08:16:35.000Z</time>
      </trkpt>
      <trkpt lat="45.69432" lon="2.95289">
        <ele>975</ele>
        <time>2019-06-23T08:16:36.000Z</time>
      </trkpt>
      <trkpt lat="45.69434" lon="2.95292">
        <ele>975</ele>
        <time>2019-06-23T08:16:37.000Z</time>
      </trkpt>
      <trkpt lat="45.69436" lon="2.95295">
        <ele>975</ele>
        <time>2019-06-23T08:16:38.000Z</time>
      </trkpt>
      <trkpt lat="45.69438" lon="2.95298">
        <ele>976</ele>
        <time>2019-06-23T08:16:39.000Z</time>
      </trkpt>
      <trkpt lat="45.6944" lon="2.95301">
        <ele>976</ele>
        <time>2019-06-23T08:16:40.000Z</time>
      </trkpt>
      <trkpt lat="45.69444" lon="2.95304">
        <ele>976</ele>
        <time>2019-06-23T08:16:41.000Z</time>
      </trkpt>
      <trkpt lat="45.69446" lon="2.95307">
        <ele>976</ele>
        <time>2019-06-23T08:16:42.000Z</time>
      </trkpt>
      <trkpt lat="45.69449" lon="2.9531">
        <ele>976</ele>
        <time>2019-06-23T08:16:43.000Z</time>
      </trkpt>
      <trkpt lat="45.69451" lon="2.95313">
        <ele>977</ele>
        <time>2019-06-23T08:16:44.000Z</time>
      </trkpt>
      <trkpt lat="45.69454" lon="2.95316">
        <ele>977</ele>
        <time>2019-06-23T08:16:45.000Z</time>
      </trkpt>
      <trkpt lat="45.69456" lon="2.95319">
        <ele>977</ele>
        <time>2019-06-23T08:16:46.000Z</time>
      </trkpt>
      <trkpt lat="45.69459" lon="2.9532">
        <ele>977</ele>
        <time>2019-06-23T08:16:47.000Z</time>
      </trkpt>
      <trkpt lat="45.69461" lon="2.95322">
        <ele>977</ele>
        <time>2019-06-23T08:16:48.000Z</time>
      </trkpt>
      <trkpt lat="45.69462" lon="2.95323">
        <ele>977</ele>
        <time>2019-06-23T08:16:49.000Z</time>
      </trkpt>
      <trkpt lat="45.69463" lon="2.95323">
        <ele>977</ele>
        <time>2019-06-23T08:16:50.000Z</time>
      </trkpt>
      <trkpt lat="45.69465" lon="2.95324">
        <ele>977</ele>
        <time>2019-06-23T08:16:51.000Z</time>
      </trkpt>
      <trkpt lat="45.69465" lon="2.95324">
        <ele>977</ele>
        <time>2019-06-23T08:16:52.000Z</time>
      </trkpt>
      <trkpt lat="45.69469" lon="2.95324">
        <ele>977</ele>
        <time>2019-06-23T08:16:53.000Z</time>
      </trkpt>
      <trkpt lat="45.6947" lon="2.95325">
        <ele>977</ele>
        <time>2019-06-23T08:16:54.000Z</time>
      </trkpt>
      <trkpt lat="45.69471" lon="2.95325">
        <ele>977</ele>
        <time>2019-06-23T08:16:55.000Z</time>
      </trkpt>
      <trkpt lat="45.69473" lon="2.95325">
        <ele>977</ele>
        <time>2019-06-23T08:16:56.000Z</time>
      </trkpt>
      <trkpt lat="45.69474" lon="2.95325">
        <ele>977</ele>
        <time>2019-06-23T08:16:57.000Z</time>
      </trkpt>
      <trkpt lat="45.69476" lon="2.95324">
        <ele>977</ele>
        <time>2019-06-23T08:16:58.000Z</time>
      </trkpt>
      <trkpt lat="45.69477" lon="2.95324">
        <ele>978</ele>
        <time>2019-06-23T08:16:59.000Z</time>
      </trkpt>
      <trkpt lat="45.69478" lon="2.95323">
        <ele>978</ele>
        <time>2019-06-23T08:17:00.000Z</time>
      </trkpt>
      <trkpt lat="45.69482" lon="2.95322">
        <ele>977</ele>
        <time>2019-06-23T08:17:01.000Z</time>
      </trkpt>
      <trkpt lat="45.69484" lon="2.95321">
        <ele>978</ele>
        <time>2019-06-23T08:17:02.000Z</time>
      </trkpt>
      <trkpt lat="45.69485" lon="2.9532">
        <ele>978</ele>
        <time>2019-06-23T08:17:03.000Z</time>
      </trkpt>
      <trkpt lat="45.69485" lon="2.95318">
        <ele>980</ele>
        <time>2019-06-23T08:17:04.000Z</time>
      </trkpt>
      <trkpt lat="45.69485" lon="2.95315">
        <ele>979</ele>
        <time>2019-06-23T08:17:05.000Z</time>
      </trkpt>
      <trkpt lat="45.69485" lon="2.95312">
        <ele>980</ele>
        <time>2019-06-23T08:17:06.000Z</time>
      </trkpt>
      <trkpt lat="45.69485" lon="2.9531">
        <ele>980</ele>
        <time>2019-06-23T08:17:07.000Z</time>
      </trkpt>
      <trkpt lat="45.69486" lon="2.95307">
        <ele>981</ele>
        <time>2019-06-23T08:17:08.000Z</time>
      </trkpt>
      <trkpt lat="45.69489" lon="2.95303">
        <ele>981</ele>
        <time>2019-06-23T08:17:09.000Z</time>
      </trkpt>
      <trkpt lat="45.6949" lon="2.953">
        <ele>982</ele>
        <time>2019-06-23T08:17:10.000Z</time>
      </trkpt>
      <trkpt lat="45.69492" lon="2.95297">
        <ele>982</ele>
        <time>2019-06-23T08:17:11.000Z</time>
      </trkpt>
      <trkpt lat="45.69493" lon="2.95294">
        <ele>983</ele>
        <time>2019-06-23T08:17:12.000Z</time>
      </trkpt>
      <trkpt lat="45.69494" lon="2.95292">
        <ele>984</ele>
        <time>2019-06-23T08:17:13.000Z</time>
      </trkpt>
      <trkpt lat="45.69495" lon="2.95289">
        <ele>984</ele>
        <time>2019-06-23T08:17:14.000Z</time>
      </trkpt>
      <trkpt lat="45.69496" lon="2.95286">
        <ele>985</ele>
        <time>2019-06-23T08:17:15.000Z</time>
      </trkpt>
      <trkpt lat="45.69498" lon="2.95284">
        <ele>985</ele>
        <time>2019-06-23T08:17:16.000Z</time>
      </trkpt>
      <trkpt lat="45.695" lon="2.95282">
        <ele>986</ele>
        <time>2019-06-23T08:17:17.000Z</time>
      </trkpt>
      <trkpt lat="45.69501" lon="2.95279">
        <ele>987</ele>
        <time>2019-06-23T08:17:18.000Z</time>
      </trkpt>
      <trkpt lat="45.69504" lon="2.95275">
        <ele>987</ele>
        <time>2019-06-23T08:17:19.000Z</time>
      </trkpt>
      <trkpt lat="45.69506" lon="2.95272">
        <ele>987</ele>
        <time>2019-06-23T08:17:20.000Z</time>
      </trkpt>
      <trkpt lat="45.69508" lon="2.95267">
        <ele>986</ele>
        <time>2019-06-23T08:17:21.000Z</time>
      </trkpt>
      <trkpt lat="45.69509" lon="2.95263">
        <ele>986</ele>
        <time>2019-06-23T08:17:22.000Z</time>
      </trkpt>
      <trkpt lat="45.69511" lon="2.95259">
        <ele>987</ele>
        <time>2019-06-23T08:17:23.000Z</time>
      </trkpt>
      <trkpt lat="45.69513" lon="2.95254">
        <ele>986</ele>
        <time>2019-06-23T08:17:24.000Z</time>
      </trkpt>
      <trkpt lat="45.69515" lon="2.9525">
        <ele>985</ele>
        <time>2019-06-23T08:17:25.000Z</time>
      </trkpt>
      <trkpt lat="45.69516" lon="2.95245">
        <ele>984</ele>
        <time>2019-06-23T08:17:26.000Z</time>
      </trkpt>
      <trkpt lat="45.69518" lon="2.9524">
        <ele>984</ele>
        <time>2019-06-23T08:17:27.000Z</time>
      </trkpt>
      <trkpt lat="45.6952" lon="2.95236">
        <ele>983</ele>
        <time>2019-06-23T08:17:28.000Z</time>
      </trkpt>
      <trkpt lat="45.69522" lon="2.95231">
        <ele>983</ele>
        <time>2019-06-23T08:17:29.000Z</time>
      </trkpt>
      <trkpt lat="45.69524" lon="2.95227">
        <ele>983</ele>
        <time>2019-06-23T08:17:30.000Z</time>
      </trkpt>
      <trkpt lat="45.69525" lon="2.95222">
        <ele>984</ele>
        <time>2019-06-23T08:17:31.000Z</time>
      </trkpt>
      <trkpt lat="45.69527" lon="2.95219">
        <ele>984</ele>
        <time>2019-06-23T08:17:32.000Z</time>
      </trkpt>
      <trkpt lat="45.69529" lon="2.95214">
        <ele>984</ele>
        <time>2019-06-23T08:17:33.000Z</time>
      </trkpt>
      <trkpt lat="45.69531" lon="2.9521">
        <ele>984</ele>
        <time>2019-06-23T08:17:34.000Z</time>
      </trkpt>
      <trkpt lat="45.69532" lon="2.95206">
        <ele>984</ele>
        <time>2019-06-23T08:17:35.000Z</time>
      </trkpt>
      <trkpt lat="45.69533" lon="2.95201">
        <ele>985</ele>
        <time>2019-06-23T08:17:36.000Z</time>
      </trkpt>
      <trkpt lat="45.69534" lon="2.95197">
        <ele>985</ele>
        <time>2019-06-23T08:17:37.000Z</time>
      </trkpt>
      <trkpt lat="45.69535" lon="2.95192">
        <ele>985</ele>
        <time>2019-06-23T08:17:38.000Z</time>
      </trkpt>
      <trkpt lat="45.69536" lon="2.95188">
        <ele>985</ele>
        <time>2019-06-23T08:17:39.000Z</time>
      </trkpt>
      <trkpt lat="45.69538" lon="2.95184">
        <ele>985</ele>
        <time>2019-06-23T08:17:40.000Z</time>
      </trkpt>
      <trkpt lat="45.69539" lon="2.9518">
        <ele>985</ele>
        <time>2019-06-23T08:17:41.000Z</time>
      </trkpt>
      <trkpt lat="45.69541" lon="2.95176">
        <ele>986</ele>
        <time>2019-06-23T08:17:42.000Z</time>
      </trkpt>
      <trkpt lat="45.69543" lon="2.95172">
        <ele>986</ele>
        <time>2019-06-23T08:17:43.000Z</time>
      </trkpt>
      <trkpt lat="45.69544" lon="2.95169">
        <ele>986</ele>
        <time>2019-06-23T08:17:44.000Z</time>
      </trkpt>
      <trkpt lat="45.69546" lon="2.95165">
        <ele>986</ele>
        <time>2019-06-23T08:17:45.000Z</time>
      </trkpt>
      <trkpt lat="45.69548" lon="2.95162">
        <ele>986</ele>
        <time>2019-06-23T08:17:46.000Z</time>
      </trkpt>
      <trkpt lat="45.6955" lon="2.95158">
        <ele>987</ele>
        <time>2019-06-23T08:17:47.000Z</time>
      </trkpt>
      <trkpt lat="45.69552" lon="2.95155">
        <ele>987</ele>
        <time>2019-06-23T08:17:48.000Z</time>
      </trkpt>
      <trkpt lat="45.69554" lon="2.95153">
        <ele>988</ele>
        <time>2019-06-23T08:17:49.000Z</time>
      </trkpt>
      <trkpt lat="45.69556" lon="2.9515">
        <ele>989</ele>
        <time>2019-06-23T08:17:50.000Z</time>
      </trkpt>
      <trkpt lat="45.69558" lon="2.95148">
        <ele>990</ele>
        <time>2019-06-23T08:17:51.000Z</time>
      </trkpt>
      <trkpt lat="45.69561" lon="2.95146">
        <ele>990</ele>
        <time>2019-06-23T08:17:52.000Z</time>
      </trkpt>
      <trkpt lat="45.69564" lon="2.95144">
        <ele>990</ele>
        <time>2019-06-23T08:17:53.000Z</time>
      </trkpt>
      <trkpt lat="45.69567" lon="2.95141">
        <ele>990</ele>
        <time>2019-06-23T08:17:54.000Z</time>
      </trkpt>
      <trkpt lat="45.6957" lon="2.95139">
        <ele>990</ele>
        <time>2019-06-23T08:17:55.000Z</time>
      </trkpt>
      <trkpt lat="45.69572" lon="2.95135">
        <ele>990</ele>
        <time>2019-06-23T08:17:56.000Z</time>
      </trkpt>
      <trkpt lat="45.69573" lon="2.95133">
        <ele>989</ele>
        <time>2019-06-23T08:17:57.000Z</time>
      </trkpt>
      <trkpt lat="45.69575" lon="2.9513">
        <ele>989</ele>
        <time>2019-06-23T08:17:58.000Z</time>
      </trkpt>
      <trkpt lat="45.69577" lon="2.95127">
        <ele>990</ele>
        <time>2019-06-23T08:17:59.000Z</time>
      </trkpt>
      <trkpt lat="45.69579" lon="2.95124">
        <ele>990</ele>
        <time>2019-06-23T08:18:00.000Z</time>
      </trkpt>
      <trkpt lat="45.6958" lon="2.95121">
        <ele>991</ele>
        <time>2019-06-23T08:18:01.000Z</time>
      </trkpt>
      <trkpt lat="45.69582" lon="2.95117">
        <ele>991</ele>
        <time>2019-06-23T08:18:02.000Z</time>
      </trkpt>
      <trkpt lat="45.69583" lon="2.95114">
        <ele>992</ele>
        <time>2019-06-23T08:18:03.000Z</time>
      </trkpt>
      <trkpt lat="45.69585" lon="2.95111">
        <ele>992</ele>
        <time>2019-06-23T08:18:04.000Z</time>
      </trkpt>
      <trkpt lat="45.69587" lon="2.95106">
        <ele>993</ele>
        <time>2019-06-23T08:18:05.000Z</time>
      </trkpt>
      <trkpt lat="45.69588" lon="2.95102">
        <ele>993</ele>
        <time>2019-06-23T08:18:06.000Z</time>
      </trkpt>
      <trkpt lat="45.6959" lon="2.95098">
        <ele>993</ele>
        <time>2019-06-23T08:18:07.000Z</time>
      </trkpt>
      <trkpt lat="45.69591" lon="2.95094">
        <ele>993</ele>
        <time>2019-06-23T08:18:08.000Z</time>
      </trkpt>
      <trkpt lat="45.69592" lon="2.95089">
        <ele>993</ele>
        <time>2019-06-23T08:18:09.000Z</time>
      </trkpt>
      <trkpt lat="45.69593" lon="2.95084">
        <ele>994</ele>
        <time>2019-06-23T08:18:10.000Z</time>
      </trkpt>
      <trkpt lat="45.69594" lon="2.9508">
        <ele>994</ele>
        <time>2019-06-23T08:18:11.000Z</time>
      </trkpt>
      <trkpt lat="45.69595" lon="2.95075">
        <ele>994</ele>
        <time>2019-06-23T08:18:12.000Z</time>
      </trkpt>
      <trkpt lat="45.69596" lon="2.95072">
        <ele>995</ele>
        <time>2019-06-23T08:18:13.000Z</time>
      </trkpt>
      <trkpt lat="45.69597" lon="2.95067">
        <ele>995</ele>
        <time>2019-06-23T08:18:14.000Z</time>
      </trkpt>
      <trkpt lat="45.69598" lon="2.95064">
        <ele>996</ele>
        <time>2019-06-23T08:18:15.000Z</time>
      </trkpt>
      <trkpt lat="45.69599" lon="2.95061">
        <ele>997</ele>
        <time>2019-06-23T08:18:16.000Z</time>
      </trkpt>
      <trkpt lat="45.69601" lon="2.95058">
        <ele>999</ele>
        <time>2019-06-23T08:18:17.000Z</time>
      </trkpt>
      <trkpt lat="45.69602" lon="2.95055">
        <ele>1000</ele>
        <time>2019-06-23T08:18:18.000Z</time>
      </trkpt>
      <trkpt lat="45.69603" lon="2.95052">
        <ele>1001</ele>
        <time>2019-06-23T08:18:19.000Z</time>
      </trkpt>
      <trkpt lat="45.69605" lon="2.95048">
        <ele>1002</ele>
        <time>2019-06-23T08:18:20.000Z</time>
      </trkpt>
      <trkpt lat="45.69607" lon="2.95045">
        <ele>1001</ele>
        <time>2019-06-23T08:18:21.000Z</time>
      </trkpt>
      <trkpt lat="45.69608" lon="2.95042">
        <ele>1001</ele>
        <time>2019-06-23T08:18:22.000Z</time>
      </trkpt>
      <trkpt lat="45.69609" lon="2.95039">
        <ele>1001</ele>
        <time>2019-06-23T08:18:23.000Z</time>
      </trkpt>
      <trkpt lat="45.69611" lon="2.95035">
        <ele>1001</ele>
        <time>2019-06-23T08:18:24.000Z</time>
      </trkpt>
      <trkpt lat="45.69613" lon="2.95033">
        <ele>1001</ele>
        <time>2019-06-23T08:18:25.000Z</time>
      </trkpt>
      <trkpt lat="45.69614" lon="2.95029">
        <ele>1002</ele>
        <time>2019-06-23T08:18:26.000Z</time>
      </trkpt>
      <trkpt lat="45.69615" lon="2.95025">
        <ele>1002</ele>
        <time>2019-06-23T08:18:27.000Z</time>
      </trkpt>
      <trkpt lat="45.69615" lon="2.95022">
        <ele>1003</ele>
        <time>2019-06-23T08:18:28.000Z</time>
      </trkpt>
      <trkpt lat="45.69617" lon="2.95018">
        <ele>1005</ele>
        <time>2019-06-23T08:18:29.000Z</time>
      </trkpt>
      <trkpt lat="45.69622" lon="2.95013">
        <ele>1006</ele>
        <time>2019-06-23T08:18:30.000Z</time>
      </trkpt>
      <trkpt lat="45.69624" lon="2.95008">
        <ele>1008</ele>
        <time>2019-06-23T08:18:31.000Z</time>
      </trkpt>
      <trkpt lat="45.69628" lon="2.95004">
        <ele>1008</ele>
        <time>2019-06-23T08:18:32.000Z</time>
      </trkpt>
      <trkpt lat="45.69629" lon="2.95">
        <ele>1008</ele>
        <time>2019-06-23T08:18:33.000Z</time>
      </trkpt>
      <trkpt lat="45.69629" lon="2.94997">
        <ele>1005</ele>
        <time>2019-06-23T08:18:34.000Z</time>
      </trkpt>
      <trkpt lat="45.69633" lon="2.94991">
        <ele>1005</ele>
        <time>2019-06-23T08:18:35.000Z</time>
      </trkpt>
      <trkpt lat="45.69637" lon="2.94986">
        <ele>1005</ele>
        <time>2019-06-23T08:18:36.000Z</time>
      </trkpt>
      <trkpt lat="45.69641" lon="2.94981">
        <ele>1007</ele>
        <time>2019-06-23T08:18:37.000Z</time>
      </trkpt>
      <trkpt lat="45.69644" lon="2.94976">
        <ele>1007</ele>
        <time>2019-06-23T08:18:38.000Z</time>
      </trkpt>
      <trkpt lat="45.69647" lon="2.94972">
        <ele>1008</ele>
        <time>2019-06-23T08:18:39.000Z</time>
      </trkpt>
      <trkpt lat="45.69651" lon="2.94968">
        <ele>1009</ele>
        <time>2019-06-23T08:18:40.000Z</time>
      </trkpt>
      <trkpt lat="45.69653" lon="2.94962">
        <ele>1011</ele>
        <time>2019-06-23T08:18:41.000Z</time>
      </trkpt>
      <trkpt lat="45.69656" lon="2.94957">
        <ele>1012</ele>
        <time>2019-06-23T08:18:42.000Z</time>
      </trkpt>
      <trkpt lat="45.6966" lon="2.94952">
        <ele>1013</ele>
        <time>2019-06-23T08:18:43.000Z</time>
      </trkpt>
      <trkpt lat="45.69663" lon="2.94948">
        <ele>1015</ele>
        <time>2019-06-23T08:18:44.000Z</time>
      </trkpt>
      <trkpt lat="45.69665" lon="2.94942">
        <ele>1014</ele>
        <time>2019-06-23T08:18:45.000Z</time>
      </trkpt>
      <trkpt lat="45.69666" lon="2.94937">
        <ele>1012</ele>
        <time>2019-06-23T08:18:46.000Z</time>
      </trkpt>
      <trkpt lat="45.69669" lon="2.94932">
        <ele>1014</ele>
        <time>2019-06-23T08:18:47.000Z</time>
      </trkpt>
      <trkpt lat="45.69672" lon="2.94927">
        <ele>1014</ele>
        <time>2019-06-23T08:18:48.000Z</time>
      </trkpt>
      <trkpt lat="45.69675" lon="2.94922">
        <ele>1015</ele>
        <time>2019-06-23T08:18:49.000Z</time>
      </trkpt>
      <trkpt lat="45.69678" lon="2.94918">
        <ele>1016</ele>
        <time>2019-06-23T08:18:50.000Z</time>
      </trkpt>
      <trkpt lat="45.69681" lon="2.94913">
        <ele>1018</ele>
        <time>2019-06-23T08:18:51.000Z</time>
      </trkpt>
      <trkpt lat="45.69683" lon="2.94909">
        <ele>1019</ele>
        <time>2019-06-23T08:18:52.000Z</time>
      </trkpt>
      <trkpt lat="45.69685" lon="2.94904">
        <ele>1019</ele>
        <time>2019-06-23T08:18:53.000Z</time>
      </trkpt>
      <trkpt lat="45.69683" lon="2.94896">
        <ele>1013</ele>
        <time>2019-06-23T08:18:54.000Z</time>
      </trkpt>
      <trkpt lat="45.69685" lon="2.94891">
        <ele>1011</ele>
        <time>2019-06-23T08:18:55.000Z</time>
      </trkpt>
      <trkpt lat="45.69687" lon="2.94887">
        <ele>1012</ele>
        <time>2019-06-23T08:18:56.000Z</time>
      </trkpt>
      <trkpt lat="45.69689" lon="2.94882">
        <ele>1012</ele>
        <time>2019-06-23T08:18:57.000Z</time>
      </trkpt>
      <trkpt lat="45.69693" lon="2.94879">
        <ele>1012</ele>
        <time>2019-06-23T08:18:58.000Z</time>
      </trkpt>
      <trkpt lat="45.69696" lon="2.94874">
        <ele>1013</ele>
        <time>2019-06-23T08:18:59.000Z</time>
      </trkpt>
      <trkpt lat="45.69698" lon="2.9487">
        <ele>1013</ele>
        <time>2019-06-23T08:19:00.000Z</time>
      </trkpt>
      <trkpt lat="45.69701" lon="2.94866">
        <ele>1013</ele>
        <time>2019-06-23T08:19:01.000Z</time>
      </trkpt>
      <trkpt lat="45.69704" lon="2.94862">
        <ele>1012</ele>
        <time>2019-06-23T08:19:02.000Z</time>
      </trkpt>
      <trkpt lat="45.69706" lon="2.94857">
        <ele>1013</ele>
        <time>2019-06-23T08:19:03.000Z</time>
      </trkpt>
      <trkpt lat="45.69709" lon="2.94853">
        <ele>1013</ele>
        <time>2019-06-23T08:19:04.000Z</time>
      </trkpt>
      <trkpt lat="45.69711" lon="2.94849">
        <ele>1014</ele>
        <time>2019-06-23T08:19:05.000Z</time>
      </trkpt>
      <trkpt lat="45.69714" lon="2.94844">
        <ele>1014</ele>
        <time>2019-06-23T08:19:06.000Z</time>
      </trkpt>
      <trkpt lat="45.69716" lon="2.9484">
        <ele>1015</ele>
        <time>2019-06-23T08:19:07.000Z</time>
      </trkpt>
      <trkpt lat="45.69719" lon="2.94835">
        <ele>1016</ele>
        <time>2019-06-23T08:19:08.000Z</time>
      </trkpt>
      <trkpt lat="45.69722" lon="2.94831">
        <ele>1016</ele>
        <time>2019-06-23T08:19:09.000Z</time>
      </trkpt>
      <trkpt lat="45.69724" lon="2.94827">
        <ele>1018</ele>
        <time>2019-06-23T08:19:10.000Z</time>
      </trkpt>
      <trkpt lat="45.69727" lon="2.94823">
        <ele>1018</ele>
        <time>2019-06-23T08:19:11.000Z</time>
      </trkpt>
      <trkpt lat="45.6973" lon="2.94818">
        <ele>1019</ele>
        <time>2019-06-23T08:19:12.000Z</time>
      </trkpt>
      <trkpt lat="45.69733" lon="2.94813">
        <ele>1020</ele>
        <time>2019-06-23T08:19:13.000Z</time>
      </trkpt>
      <trkpt lat="45.69736" lon="2.94808">
        <ele>1020</ele>
        <time>2019-06-23T08:19:14.000Z</time>
      </trkpt>
      <trkpt lat="45.69738" lon="2.94803">
        <ele>1021</ele>
        <time>2019-06-23T08:19:15.000Z</time>
      </trkpt>
      <trkpt lat="45.6974" lon="2.94798">
        <ele>1021</ele>
        <time>2019-06-23T08:19:16.000Z</time>
      </trkpt>
      <trkpt lat="45.69742" lon="2.94793">
        <ele>1021</ele>
        <time>2019-06-23T08:19:17.000Z</time>
      </trkpt>
      <trkpt lat="45.69745" lon="2.94788">
        <ele>1022</ele>
        <time>2019-06-23T08:19:18.000Z</time>
      </trkpt>
      <trkpt lat="45.69746" lon="2.94782">
        <ele>1023</ele>
        <time>2019-06-23T08:19:19.000Z</time>
      </trkpt>
      <trkpt lat="45.69748" lon="2.94777">
        <ele>1023</ele>
        <time>2019-06-23T08:19:20.000Z</time>
      </trkpt>
      <trkpt lat="45.6975" lon="2.94772">
        <ele>1023</ele>
        <time>2019-06-23T08:19:21.000Z</time>
      </trkpt>
      <trkpt lat="45.69751" lon="2.94767">
        <ele>1021</ele>
        <time>2019-06-23T08:19:22.000Z</time>
      </trkpt>
      <trkpt lat="45.69753" lon="2.94762">
        <ele>1022</ele>
        <time>2019-06-23T08:19:23.000Z</time>
      </trkpt>
      <trkpt lat="45.69757" lon="2.94758">
        <ele>1022</ele>
        <time>2019-06-23T08:19:24.000Z</time>
      </trkpt>
      <trkpt lat="45.6976" lon="2.94754">
        <ele>1023</ele>
        <time>2019-06-23T08:19:25.000Z</time>
      </trkpt>
      <trkpt lat="45.69764" lon="2.94751">
        <ele>1023</ele>
        <time>2019-06-23T08:19:26.000Z</time>
      </trkpt>
      <trkpt lat="45.69765" lon="2.94747">
        <ele>1022</ele>
        <time>2019-06-23T08:19:27.000Z</time>
      </trkpt>
      <trkpt lat="45.69768" lon="2.94745">
        <ele>1020</ele>
        <time>2019-06-23T08:19:28.000Z</time>
      </trkpt>
      <trkpt lat="45.69772" lon="2.94744">
        <ele>1021</ele>
        <time>2019-06-23T08:19:29.000Z</time>
      </trkpt>
      <trkpt lat="45.69776" lon="2.94744">
        <ele>1021</ele>
        <time>2019-06-23T08:19:30.000Z</time>
      </trkpt>
      <trkpt lat="45.69779" lon="2.94743">
        <ele>1021</ele>
        <time>2019-06-23T08:19:31.000Z</time>
      </trkpt>
      <trkpt lat="45.69782" lon="2.94743">
        <ele>1022</ele>
        <time>2019-06-23T08:19:32.000Z</time>
      </trkpt>
      <trkpt lat="45.69785" lon="2.94744">
        <ele>1021</ele>
        <time>2019-06-23T08:19:33.000Z</time>
      </trkpt>
      <trkpt lat="45.69789" lon="2.94746">
        <ele>1019</ele>
        <time>2019-06-23T08:19:34.000Z</time>
      </trkpt>
      <trkpt lat="45.69793" lon="2.94748">
        <ele>1019</ele>
        <time>2019-06-23T08:19:35.000Z</time>
      </trkpt>
      <trkpt lat="45.69797" lon="2.9475">
        <ele>1019</ele>
        <time>2019-06-23T08:19:36.000Z</time>
      </trkpt>
      <trkpt lat="45.69801" lon="2.94753">
        <ele>1019</ele>
        <time>2019-06-23T08:19:37.000Z</time>
      </trkpt>
      <trkpt lat="45.69802" lon="2.94757">
        <ele>1020</ele>
        <time>2019-06-23T08:19:38.000Z</time>
      </trkpt>
      <trkpt lat="45.69803" lon="2.94763">
        <ele>1020</ele>
        <time>2019-06-23T08:19:39.000Z</time>
      </trkpt>
      <trkpt lat="45.69805" lon="2.94766">
        <ele>1019</ele>
        <time>2019-06-23T08:19:40.000Z</time>
      </trkpt>
      <trkpt lat="45.69802" lon="2.94774">
        <ele>1019</ele>
        <time>2019-06-23T08:19:41.000Z</time>
      </trkpt>
      <trkpt lat="45.69799" lon="2.94781">
        <ele>1018</ele>
        <time>2019-06-23T08:19:42.000Z</time>
      </trkpt>
      <trkpt lat="45.69798" lon="2.94785">
        <ele>1018</ele>
        <time>2019-06-23T08:19:43.000Z</time>
      </trkpt>
      <trkpt lat="45.69799" lon="2.9479">
        <ele>1017</ele>
        <time>2019-06-23T08:19:44.000Z</time>
      </trkpt>
      <trkpt lat="45.698" lon="2.94796">
        <ele>1016</ele>
        <time>2019-06-23T08:19:45.000Z</time>
      </trkpt>
      <trkpt lat="45.69801" lon="2.94801">
        <ele>1015</ele>
        <time>2019-06-23T08:19:46.000Z</time>
      </trkpt>
      <trkpt lat="45.69801" lon="2.94807">
        <ele>1014</ele>
        <time>2019-06-23T08:19:47.000Z</time>
      </trkpt>
      <trkpt lat="45.69803" lon="2.94813">
        <ele>1012</ele>
        <time>2019-06-23T08:19:48.000Z</time>
      </trkpt>
      <trkpt lat="45.69803" lon="2.9482">
        <ele>1012</ele>
        <time>2019-06-23T08:19:49.000Z</time>
      </trkpt>
      <trkpt lat="45.69806" lon="2.94826">
        <ele>1010</ele>
        <time>2019-06-23T08:19:50.000Z</time>
      </trkpt>
      <trkpt lat="45.69808" lon="2.94833">
        <ele>1007</ele>
        <time>2019-06-23T08:19:51.000Z</time>
      </trkpt>
      <trkpt lat="45.6981" lon="2.94839">
        <ele>1006</ele>
        <time>2019-06-23T08:19:52.000Z</time>
      </trkpt>
      <trkpt lat="45.69811" lon="2.94844">
        <ele>1004</ele>
        <time>2019-06-23T08:19:53.000Z</time>
      </trkpt>
      <trkpt lat="45.69811" lon="2.9485">
        <ele>1002</ele>
        <time>2019-06-23T08:19:54.000Z</time>
      </trkpt>
      <trkpt lat="45.69813" lon="2.94855">
        <ele>1001</ele>
        <time>2019-06-23T08:19:55.000Z</time>
      </trkpt>
      <trkpt lat="45.69815" lon="2.94862">
        <ele>997</ele>
        <time>2019-06-23T08:19:56.000Z</time>
      </trkpt>
      <trkpt lat="45.69817" lon="2.94867">
        <ele>996</ele>
        <time>2019-06-23T08:19:57.000Z</time>
      </trkpt>
      <trkpt lat="45.69817" lon="2.94873">
        <ele>995</ele>
        <time>2019-06-23T08:19:58.000Z</time>
      </trkpt>
      <trkpt lat="45.69819" lon="2.94879">
        <ele>994</ele>
        <time>2019-06-23T08:19:59.000Z</time>
      </trkpt>
      <trkpt lat="45.69821" lon="2.94884">
        <ele>994</ele>
        <time>2019-06-23T08:20:00.000Z</time>
      </trkpt>
      <trkpt lat="45.69822" lon="2.94891">
        <ele>992</ele>
        <time>2019-06-23T08:20:01.000Z</time>
      </trkpt>
      <trkpt lat="45.69823" lon="2.94897">
        <ele>990</ele>
        <time>2019-06-23T08:20:02.000Z</time>
      </trkpt>
      <trkpt lat="45.69826" lon="2.94903">
        <ele>989</ele>
        <time>2019-06-23T08:20:03.000Z</time>
      </trkpt>
      <trkpt lat="45.69828" lon="2.94909">
        <ele>989</ele>
        <time>2019-06-23T08:20:04.000Z</time>
      </trkpt>
      <trkpt lat="45.6983" lon="2.94914">
        <ele>987</ele>
        <time>2019-06-23T08:20:05.000Z</time>
      </trkpt>
      <trkpt lat="45.69832" lon="2.9492">
        <ele>986</ele>
        <time>2019-06-23T08:20:06.000Z</time>
      </trkpt>
      <trkpt lat="45.69834" lon="2.94925">
        <ele>985</ele>
        <time>2019-06-23T08:20:07.000Z</time>
      </trkpt>
      <trkpt lat="45.69836" lon="2.9493">
        <ele>985</ele>
        <time>2019-06-23T08:20:08.000Z</time>
      </trkpt>
      <trkpt lat="45.69838" lon="2.94936">
        <ele>985</ele>
        <time>2019-06-23T08:20:09.000Z</time>
      </trkpt>
      <trkpt lat="45.69838" lon="2.9494">
        <ele>984</ele>
        <time>2019-06-23T08:20:10.000Z</time>
      </trkpt>
      <trkpt lat="45.69839" lon="2.94944">
        <ele>984</ele>
        <time>2019-06-23T08:20:11.000Z</time>
      </trkpt>
      <trkpt lat="45.69841" lon="2.9495">
        <ele>984</ele>
        <time>2019-06-23T08:20:12.000Z</time>
      </trkpt>
      <trkpt lat="45.69842" lon="2.94955">
        <ele>984</ele>
        <time>2019-06-23T08:20:13.000Z</time>
      </trkpt>
      <trkpt lat="45.69844" lon="2.94959">
        <ele>984</ele>
        <time>2019-06-23T08:20:14.000Z</time>
      </trkpt>
      <trkpt lat="45.69846" lon="2.94968">
        <ele>980</ele>
        <time>2019-06-23T08:20:15.000Z</time>
      </trkpt>
      <trkpt lat="45.69846" lon="2.94974">
        <ele>978</ele>
        <time>2019-06-23T08:20:16.000Z</time>
      </trkpt>
      <trkpt lat="45.69848" lon="2.94979">
        <ele>979</ele>
        <time>2019-06-23T08:20:17.000Z</time>
      </trkpt>
      <trkpt lat="45.6985" lon="2.94985">
        <ele>979</ele>
        <time>2019-06-23T08:20:18.000Z</time>
      </trkpt>
      <trkpt lat="45.69852" lon="2.9499">
        <ele>980</ele>
        <time>2019-06-23T08:20:19.000Z</time>
      </trkpt>
      <trkpt lat="45.69853" lon="2.94995">
        <ele>980</ele>
        <time>2019-06-23T08:20:20.000Z</time>
      </trkpt>
      <trkpt lat="45.69855" lon="2.95">
        <ele>981</ele>
        <time>2019-06-23T08:20:21.000Z</time>
      </trkpt>
      <trkpt lat="45.69857" lon="2.95005">
        <ele>981</ele>
        <time>2019-06-23T08:20:22.000Z</time>
      </trkpt>
      <trkpt lat="45.69859" lon="2.95011">
        <ele>980</ele>
        <time>2019-06-23T08:20:23.000Z</time>
      </trkpt>
      <trkpt lat="45.6986" lon="2.95016">
        <ele>980</ele>
        <time>2019-06-23T08:20:24.000Z</time>
      </trkpt>
      <trkpt lat="45.6986" lon="2.95021">
        <ele>979</ele>
        <time>2019-06-23T08:20:25.000Z</time>
      </trkpt>
      <trkpt lat="45.69862" lon="2.95026">
        <ele>978</ele>
        <time>2019-06-23T08:20:26.000Z</time>
      </trkpt>
      <trkpt lat="45.69863" lon="2.95031">
        <ele>976</ele>
        <time>2019-06-23T08:20:27.000Z</time>
      </trkpt>
      <trkpt lat="45.69865" lon="2.95037">
        <ele>976</ele>
        <time>2019-06-23T08:20:28.000Z</time>
      </trkpt>
      <trkpt lat="45.69866" lon="2.95042">
        <ele>978</ele>
        <time>2019-06-23T08:20:29.000Z</time>
      </trkpt>
      <trkpt lat="45.69868" lon="2.95047">
        <ele>978</ele>
        <time>2019-06-23T08:20:30.000Z</time>
      </trkpt>
      <trkpt lat="45.69868" lon="2.95054">
        <ele>977</ele>
        <time>2019-06-23T08:20:31.000Z</time>
      </trkpt>
      <trkpt lat="45.69872" lon="2.95063">
        <ele>978</ele>
        <time>2019-06-23T08:20:32.000Z</time>
      </trkpt>
      <trkpt lat="45.69875" lon="2.95071">
        <ele>979</ele>
        <time>2019-06-23T08:20:33.000Z</time>
      </trkpt>
      <trkpt lat="45.69877" lon="2.95081">
        <ele>981</ele>
        <time>2019-06-23T08:20:34.000Z</time>
      </trkpt>
      <trkpt lat="45.69879" lon="2.9509">
        <ele>982</ele>
        <time>2019-06-23T08:20:35.000Z</time>
      </trkpt>
      <trkpt lat="45.69881" lon="2.95098">
        <ele>984</ele>
        <time>2019-06-23T08:20:36.000Z</time>
      </trkpt>
      <trkpt lat="45.69883" lon="2.95105">
        <ele>984</ele>
        <time>2019-06-23T08:20:37.000Z</time>
      </trkpt>
      <trkpt lat="45.69883" lon="2.95114">
        <ele>983</ele>
        <time>2019-06-23T08:20:38.000Z</time>
      </trkpt>
      <trkpt lat="45.69883" lon="2.95122">
        <ele>982</ele>
        <time>2019-06-23T08:20:39.000Z</time>
      </trkpt>
      <trkpt lat="45.69886" lon="2.95131">
        <ele>982</ele>
        <time>2019-06-23T08:20:40.000Z</time>
      </trkpt>
      <trkpt lat="45.69887" lon="2.95138">
        <ele>982</ele>
        <time>2019-06-23T08:20:41.000Z</time>
      </trkpt>
      <trkpt lat="45.69888" lon="2.95143">
        <ele>982</ele>
        <time>2019-06-23T08:20:42.000Z</time>
      </trkpt>
      <trkpt lat="45.69889" lon="2.95148">
        <ele>983</ele>
        <time>2019-06-23T08:20:43.000Z</time>
      </trkpt>
      <trkpt lat="45.69891" lon="2.95152">
        <ele>985</ele>
        <time>2019-06-23T08:20:44.000Z</time>
      </trkpt>
      <trkpt lat="45.6989" lon="2.95157">
        <ele>987</ele>
        <time>2019-06-23T08:20:45.000Z</time>
      </trkpt>
      <trkpt lat="45.69891" lon="2.9516">
        <ele>988</ele>
        <time>2019-06-23T08:20:46.000Z</time>
      </trkpt>
      <trkpt lat="45.69892" lon="2.95165">
        <ele>990</ele>
        <time>2019-06-23T08:20:47.000Z</time>
      </trkpt>
      <trkpt lat="45.69895" lon="2.95169">
        <ele>991</ele>
        <time>2019-06-23T08:20:48.000Z</time>
      </trkpt>
      <trkpt lat="45.69899" lon="2.95174">
        <ele>991</ele>
        <time>2019-06-23T08:20:49.000Z</time>
      </trkpt>
      <trkpt lat="45.69902" lon="2.95178">
        <ele>993</ele>
        <time>2019-06-23T08:20:50.000Z</time>
      </trkpt>
      <trkpt lat="45.69903" lon="2.95185">
        <ele>994</ele>
        <time>2019-06-23T08:20:51.000Z</time>
      </trkpt>
      <trkpt lat="45.69904" lon="2.95192">
        <ele>996</ele>
        <time>2019-06-23T08:20:52.000Z</time>
      </trkpt>
      <trkpt lat="45.69904" lon="2.95198">
        <ele>997</ele>
        <time>2019-06-23T08:20:53.000Z</time>
      </trkpt>
      <trkpt lat="45.69904" lon="2.95203">
        <ele>998</ele>
        <time>2019-06-23T08:20:54.000Z</time>
      </trkpt>
      <trkpt lat="45.69904" lon="2.95209">
        <ele>999</ele>
        <time>2019-06-23T08:20:55.000Z</time>
      </trkpt>
      <trkpt lat="45.69904" lon="2.95215">
        <ele>1000</ele>
        <time>2019-06-23T08:20:56.000Z</time>
      </trkpt>
      <trkpt lat="45.69903" lon="2.95219">
        <ele>1001</ele>
        <time>2019-06-23T08:20:57.000Z</time>
      </trkpt>
      <trkpt lat="45.69903" lon="2.95224">
        <ele>1000</ele>
        <time>2019-06-23T08:20:58.000Z</time>
      </trkpt>
      <trkpt lat="45.69904" lon="2.95228">
        <ele>1001</ele>
        <time>2019-06-23T08:20:59.000Z</time>
      </trkpt>
      <trkpt lat="45.69904" lon="2.95233">
        <ele>1002</ele>
        <time>2019-06-23T08:21:00.000Z</time>
      </trkpt>
      <trkpt lat="45.69905" lon="2.95238">
        <ele>1003</ele>
        <time>2019-06-23T08:21:01.000Z</time>
      </trkpt>
      <trkpt lat="45.69908" lon="2.95244">
        <ele>1005</ele>
        <time>2019-06-23T08:21:02.000Z</time>
      </trkpt>
      <trkpt lat="45.69911" lon="2.95249">
        <ele>1006</ele>
        <time>2019-06-23T08:21:03.000Z</time>
      </trkpt>
      <trkpt lat="45.69913" lon="2.95254">
        <ele>1008</ele>
        <time>2019-06-23T08:21:04.000Z</time>
      </trkpt>
      <trkpt lat="45.69915" lon="2.9526">
        <ele>1007</ele>
        <time>2019-06-23T08:21:05.000Z</time>
      </trkpt>
      <trkpt lat="45.69917" lon="2.95265">
        <ele>1008</ele>
        <time>2019-06-23T08:21:06.000Z</time>
      </trkpt>
      <trkpt lat="45.69917" lon="2.95271">
        <ele>1008</ele>
        <time>2019-06-23T08:21:07.000Z</time>
      </trkpt>
      <trkpt lat="45.69918" lon="2.95276">
        <ele>1010</ele>
        <time>2019-06-23T08:21:08.000Z</time>
      </trkpt>
      <trkpt lat="45.69919" lon="2.95281">
        <ele>1010</ele>
        <time>2019-06-23T08:21:09.000Z</time>
      </trkpt>
      <trkpt lat="45.6992" lon="2.95287">
        <ele>1010</ele>
        <time>2019-06-23T08:21:10.000Z</time>
      </trkpt>
      <trkpt lat="45.69921" lon="2.95292">
        <ele>1011</ele>
        <time>2019-06-23T08:21:11.000Z</time>
      </trkpt>
      <trkpt lat="45.69923" lon="2.95297">
        <ele>1011</ele>
        <time>2019-06-23T08:21:12.000Z</time>
      </trkpt>
      <trkpt lat="45.69925" lon="2.95303">
        <ele>1009</ele>
        <time>2019-06-23T08:21:13.000Z</time>
      </trkpt>
      <trkpt lat="45.69927" lon="2.95308">
        <ele>1008</ele>
        <time>2019-06-23T08:21:14.000Z</time>
      </trkpt>
      <trkpt lat="45.69929" lon="2.95313">
        <ele>1007</ele>
        <time>2019-06-23T08:21:15.000Z</time>
      </trkpt>
      <trkpt lat="45.6993" lon="2.95317">
        <ele>1007</ele>
        <time>2019-06-23T08:21:16.000Z</time>
      </trkpt>
      <trkpt lat="45.69932" lon="2.9532">
        <ele>1008</ele>
        <time>2019-06-23T08:21:17.000Z</time>
      </trkpt>
      <trkpt lat="45.69933" lon="2.95323">
        <ele>1009</ele>
        <time>2019-06-23T08:21:18.000Z</time>
      </trkpt>
      <trkpt lat="45.69934" lon="2.95328">
        <ele>1010</ele>
        <time>2019-06-23T08:21:19.000Z</time>
      </trkpt>
      <trkpt lat="45.69935" lon="2.95331">
        <ele>1010</ele>
        <time>2019-06-23T08:21:20.000Z</time>
      </trkpt>
      <trkpt lat="45.69936" lon="2.95334">
        <ele>1010</ele>
        <time>2019-06-23T08:21:21.000Z</time>
      </trkpt>
      <trkpt lat="45.69938" lon="2.95337">
        <ele>1011</ele>
        <time>2019-06-23T08:21:22.000Z</time>
      </trkpt>
      <trkpt lat="45.69938" lon="2.95342">
        <ele>1012</ele>
        <time>2019-06-23T08:21:23.000Z</time>
      </trkpt>
      <trkpt lat="45.69941" lon="2.95345">
        <ele>1014</ele>
        <time>2019-06-23T08:21:24.000Z</time>
      </trkpt>
      <trkpt lat="45.69943" lon="2.95348">
        <ele>1015</ele>
        <time>2019-06-23T08:21:25.000Z</time>
      </trkpt>
      <trkpt lat="45.69945" lon="2.95351">
        <ele>1015</ele>
        <time>2019-06-23T08:21:26.000Z</time>
      </trkpt>
      <trkpt lat="45.69946" lon="2.95354">
        <ele>1016</ele>
        <time>2019-06-23T08:21:27.000Z</time>
      </trkpt>
      <trkpt lat="45.69947" lon="2.95358">
        <ele>1016</ele>
        <time>2019-06-23T08:21:28.000Z</time>
      </trkpt>
      <trkpt lat="45.69948" lon="2.9536">
        <ele>1017</ele>
        <time>2019-06-23T08:21:29.000Z</time>
      </trkpt>
      <trkpt lat="45.69949" lon="2.95364">
        <ele>1017</ele>
        <time>2019-06-23T08:21:30.000Z</time>
      </trkpt>
      <trkpt lat="45.69951" lon="2.95367">
        <ele>1018</ele>
        <time>2019-06-23T08:21:31.000Z</time>
      </trkpt>
      <trkpt lat="45.69953" lon="2.9537">
        <ele>1019</ele>
        <time>2019-06-23T08:21:32.000Z</time>
      </trkpt>
      <trkpt lat="45.69954" lon="2.95372">
        <ele>1019</ele>
        <time>2019-06-23T08:21:33.000Z</time>
      </trkpt>
      <trkpt lat="45.69956" lon="2.95375">
        <ele>1020</ele>
        <time>2019-06-23T08:21:34.000Z</time>
      </trkpt>
      <trkpt lat="45.69958" lon="2.95377">
        <ele>1020</ele>
        <time>2019-06-23T08:21:35.000Z</time>
      </trkpt>
      <trkpt lat="45.6996" lon="2.9538">
        <ele>1021</ele>
        <time>2019-06-23T08:21:36.000Z</time>
      </trkpt>
      <trkpt lat="45.69963" lon="2.95382">
        <ele>1021</ele>
        <time>2019-06-23T08:21:37.000Z</time>
      </trkpt>
      <trkpt lat="45.69965" lon="2.95385">
        <ele>1022</ele>
        <time>2019-06-23T08:21:38.000Z</time>
      </trkpt>
      <trkpt lat="45.69967" lon="2.95386">
        <ele>1021</ele>
        <time>2019-06-23T08:21:39.000Z</time>
      </trkpt>
      <trkpt lat="45.69969" lon="2.95388">
        <ele>1021</ele>
        <time>2019-06-23T08:21:40.000Z</time>
      </trkpt>
      <trkpt lat="45.69971" lon="2.9539">
        <ele>1022</ele>
        <time>2019-06-23T08:21:41.000Z</time>
      </trkpt>
      <trkpt lat="45.69973" lon="2.95392">
        <ele>1021</ele>
        <time>2019-06-23T08:21:42.000Z</time>
      </trkpt>
      <trkpt lat="45.69975" lon="2.95395">
        <ele>1022</ele>
        <time>2019-06-23T08:21:43.000Z</time>
      </trkpt>
      <trkpt lat="45.69976" lon="2.95397">
        <ele>1023</ele>
        <time>2019-06-23T08:21:44.000Z</time>
      </trkpt>
      <trkpt lat="45.69978" lon="2.95399">
        <ele>1023</ele>
        <time>2019-06-23T08:21:45.000Z</time>
      </trkpt>
      <trkpt lat="45.69981" lon="2.95401">
        <ele>1023</ele>
        <time>2019-06-23T08:21:46.000Z</time>
      </trkpt>
      <trkpt lat="45.69983" lon="2.95403">
        <ele>1024</ele>
        <time>2019-06-23T08:21:47.000Z</time>
      </trkpt>
      <trkpt lat="45.69984" lon="2.95405">
        <ele>1024</ele>
        <time>2019-06-23T08:21:48.000Z</time>
      </trkpt>
      <trkpt lat="45.69984" lon="2.95407">
        <ele>1024</ele>
        <time>2019-06-23T08:21:49.000Z</time>
      </trkpt>
      <trkpt lat="45.69984" lon="2.95409">
        <ele>1023</ele>
        <time>2019-06-23T08:21:50.000Z</time>
      </trkpt>
      <trkpt lat="45.69985" lon="2.95412">
        <ele>1023</ele>
        <time>2019-06-23T08:21:51.000Z</time>
      </trkpt>
      <trkpt lat="45.69986" lon="2.95416">
        <ele>1023</ele>
        <time>2019-06-23T08:21:52.000Z</time>
      </trkpt>
      <trkpt lat="45.69987" lon="2.95421">
        <ele>1020</ele>
        <time>2019-06-23T08:21:53.000Z</time>
      </trkpt>
      <trkpt lat="45.69987" lon="2.95424">
        <ele>1020</ele>
        <time>2019-06-23T08:21:54.000Z</time>
      </trkpt>
      <trkpt lat="45.69987" lon="2.95427">
        <ele>1020</ele>
        <time>2019-06-23T08:21:55.000Z</time>
      </trkpt>
      <trkpt lat="45.69986" lon="2.95429">
        <ele>1019</ele>
        <time>2019-06-23T08:21:56.000Z</time>
      </trkpt>
      <trkpt lat="45.69988" lon="2.95431">
        <ele>1020</ele>
        <time>2019-06-23T08:21:57.000Z</time>
      </trkpt>
      <trkpt lat="45.69988" lon="2.95434">
        <ele>1020</ele>
        <time>2019-06-23T08:21:58.000Z</time>
      </trkpt>
      <trkpt lat="45.69988" lon="2.95437">
        <ele>1021</ele>
        <time>2019-06-23T08:21:59.000Z</time>
      </trkpt>
      <trkpt lat="45.69989" lon="2.9544">
        <ele>1022</ele>
        <time>2019-06-23T08:22:00.000Z</time>
      </trkpt>
      <trkpt lat="45.6999" lon="2.95442">
        <ele>1022</ele>
        <time>2019-06-23T08:22:01.000Z</time>
      </trkpt>
      <trkpt lat="45.69991" lon="2.95445">
        <ele>1023</ele>
        <time>2019-06-23T08:22:02.000Z</time>
      </trkpt>
      <trkpt lat="45.6999" lon="2.9545">
        <ele>1023</ele>
        <time>2019-06-23T08:22:03.000Z</time>
      </trkpt>
      <trkpt lat="45.6999" lon="2.95454">
        <ele>1022</ele>
        <time>2019-06-23T08:22:04.000Z</time>
      </trkpt>
      <trkpt lat="45.6999" lon="2.95457">
        <ele>1023</ele>
        <time>2019-06-23T08:22:05.000Z</time>
      </trkpt>
      <trkpt lat="45.69991" lon="2.9546">
        <ele>1023</ele>
        <time>2019-06-23T08:22:06.000Z</time>
      </trkpt>
      <trkpt lat="45.69991" lon="2.95464">
        <ele>1021</ele>
        <time>2019-06-23T08:22:07.000Z</time>
      </trkpt>
      <trkpt lat="45.6999" lon="2.95469">
        <ele>1021</ele>
        <time>2019-06-23T08:22:08.000Z</time>
      </trkpt>
      <trkpt lat="45.6999" lon="2.95473">
        <ele>1020</ele>
        <time>2019-06-23T08:22:09.000Z</time>
      </trkpt>
      <trkpt lat="45.69989" lon="2.95478">
        <ele>1018</ele>
        <time>2019-06-23T08:22:10.000Z</time>
      </trkpt>
      <trkpt lat="45.6999" lon="2.95482">
        <ele>1018</ele>
        <time>2019-06-23T08:22:11.000Z</time>
      </trkpt>
      <trkpt lat="45.69991" lon="2.95487">
        <ele>1018</ele>
        <time>2019-06-23T08:22:12.000Z</time>
      </trkpt>
      <trkpt lat="45.69991" lon="2.95493">
        <ele>1017</ele>
        <time>2019-06-23T08:22:13.000Z</time>
      </trkpt>
      <trkpt lat="45.69988" lon="2.955">
        <ele>1016</ele>
        <time>2019-06-23T08:22:14.000Z</time>
      </trkpt>
      <trkpt lat="45.69988" lon="2.95504">
        <ele>1016</ele>
        <time>2019-06-23T08:22:15.000Z</time>
      </trkpt>
      <trkpt lat="45.69987" lon="2.95511">
        <ele>1017</ele>
        <time>2019-06-23T08:22:16.000Z</time>
      </trkpt>
      <trkpt lat="45.69988" lon="2.95517">
        <ele>1017</ele>
        <time>2019-06-23T08:22:17.000Z</time>
      </trkpt>
      <trkpt lat="45.69989" lon="2.95522">
        <ele>1017</ele>
        <time>2019-06-23T08:22:18.000Z</time>
      </trkpt>
      <trkpt lat="45.69988" lon="2.95528">
        <ele>1017</ele>
        <time>2019-06-23T08:22:19.000Z</time>
      </trkpt>
      <trkpt lat="45.69988" lon="2.95536">
        <ele>1017</ele>
        <time>2019-06-23T08:22:20.000Z</time>
      </trkpt>
      <trkpt lat="45.69987" lon="2.95546">
        <ele>1017</ele>
        <time>2019-06-23T08:22:21.000Z</time>
      </trkpt>
      <trkpt lat="45.69986" lon="2.95553">
        <ele>1017</ele>
        <time>2019-06-23T08:22:22.000Z</time>
      </trkpt>
      <trkpt lat="45.69986" lon="2.95559">
        <ele>1017</ele>
        <time>2019-06-23T08:22:23.000Z</time>
      </trkpt>
      <trkpt lat="45.69985" lon="2.95566">
        <ele>1017</ele>
        <time>2019-06-23T08:22:24.000Z</time>
      </trkpt>
      <trkpt lat="45.69985" lon="2.95572">
        <ele>1017</ele>
        <time>2019-06-23T08:22:25.000Z</time>
      </trkpt>
      <trkpt lat="45.69987" lon="2.95581">
        <ele>1017</ele>
        <time>2019-06-23T08:22:26.000Z</time>
      </trkpt>
      <trkpt lat="45.69989" lon="2.95589">
        <ele>1017</ele>
        <time>2019-06-23T08:22:27.000Z</time>
      </trkpt>
      <trkpt lat="45.69989" lon="2.95598">
        <ele>1016</ele>
        <time>2019-06-23T08:22:28.000Z</time>
      </trkpt>
      <trkpt lat="45.69988" lon="2.95606">
        <ele>1015</ele>
        <time>2019-06-23T08:22:29.000Z</time>
      </trkpt>
      <trkpt lat="45.69987" lon="2.95614">
        <ele>1015</ele>
        <time>2019-06-23T08:22:30.000Z</time>
      </trkpt>
      <trkpt lat="45.69989" lon="2.95622">
        <ele>1015</ele>
        <time>2019-06-23T08:22:31.000Z</time>
      </trkpt>
      <trkpt lat="45.69992" lon="2.95629">
        <ele>1016</ele>
        <time>2019-06-23T08:22:32.000Z</time>
      </trkpt>
      <trkpt lat="45.69997" lon="2.95637">
        <ele>1016</ele>
        <time>2019-06-23T08:22:33.000Z</time>
      </trkpt>
      <trkpt lat="45.70001" lon="2.95644">
        <ele>1016</ele>
        <time>2019-06-23T08:22:34.000Z</time>
      </trkpt>
      <trkpt lat="45.70003" lon="2.9565">
        <ele>1015</ele>
        <time>2019-06-23T08:22:35.000Z</time>
      </trkpt>
      <trkpt lat="45.70005" lon="2.95659">
        <ele>1014</ele>
        <time>2019-06-23T08:22:36.000Z</time>
      </trkpt>
      <trkpt lat="45.70009" lon="2.95664">
        <ele>1014</ele>
        <time>2019-06-23T08:22:37.000Z</time>
      </trkpt>
      <trkpt lat="45.70015" lon="2.95668">
        <ele>1013</ele>
        <time>2019-06-23T08:22:38.000Z</time>
      </trkpt>
      <trkpt lat="45.70022" lon="2.95669">
        <ele>1012</ele>
        <time>2019-06-23T08:22:39.000Z</time>
      </trkpt>
      <trkpt lat="45.7003" lon="2.95669">
        <ele>1011</ele>
        <time>2019-06-23T08:22:40.000Z</time>
      </trkpt>
      <trkpt lat="45.70039" lon="2.95672">
        <ele>1010</ele>
        <time>2019-06-23T08:22:41.000Z</time>
      </trkpt>
      <trkpt lat="45.70045" lon="2.95674">
        <ele>1009</ele>
        <time>2019-06-23T08:22:42.000Z</time>
      </trkpt>
      <trkpt lat="45.70052" lon="2.95676">
        <ele>1009</ele>
        <time>2019-06-23T08:22:43.000Z</time>
      </trkpt>
      <trkpt lat="45.70058" lon="2.95679">
        <ele>1008</ele>
        <time>2019-06-23T08:22:44.000Z</time>
      </trkpt>
      <trkpt lat="45.70066" lon="2.9568">
        <ele>1008</ele>
        <time>2019-06-23T08:22:45.000Z</time>
      </trkpt>
      <trkpt lat="45.70074" lon="2.9568">
        <ele>1008</ele>
        <time>2019-06-23T08:22:46.000Z</time>
      </trkpt>
      <trkpt lat="45.70081" lon="2.95682">
        <ele>1007</ele>
        <time>2019-06-23T08:22:47.000Z</time>
      </trkpt>
      <trkpt lat="45.70087" lon="2.95684">
        <ele>1006</ele>
        <time>2019-06-23T08:22:48.000Z</time>
      </trkpt>
      <trkpt lat="45.70093" lon="2.95687">
        <ele>1005</ele>
        <time>2019-06-23T08:22:49.000Z</time>
      </trkpt>
      <trkpt lat="45.70098" lon="2.9569">
        <ele>1004</ele>
        <time>2019-06-23T08:22:50.000Z</time>
      </trkpt>
      <trkpt lat="45.70104" lon="2.95693">
        <ele>1004</ele>
        <time>2019-06-23T08:22:51.000Z</time>
      </trkpt>
      <trkpt lat="45.7011" lon="2.95696">
        <ele>1004</ele>
        <time>2019-06-23T08:22:52.000Z</time>
      </trkpt>
      <trkpt lat="45.70116" lon="2.95698">
        <ele>1003</ele>
        <time>2019-06-23T08:22:53.000Z</time>
      </trkpt>
      <trkpt lat="45.70121" lon="2.957">
        <ele>1003</ele>
        <time>2019-06-23T08:22:54.000Z</time>
      </trkpt>
      <trkpt lat="45.70127" lon="2.95704">
        <ele>1003</ele>
        <time>2019-06-23T08:22:55.000Z</time>
      </trkpt>
      <trkpt lat="45.70129" lon="2.95709">
        <ele>1002</ele>
        <time>2019-06-23T08:22:56.000Z</time>
      </trkpt>
      <trkpt lat="45.70134" lon="2.95713">
        <ele>1001</ele>
        <time>2019-06-23T08:22:57.000Z</time>
      </trkpt>
      <trkpt lat="45.70134" lon="2.95719">
        <ele>1000</ele>
        <time>2019-06-23T08:22:58.000Z</time>
      </trkpt>
      <trkpt lat="45.70136" lon="2.95725">
        <ele>1000</ele>
        <time>2019-06-23T08:22:59.000Z</time>
      </trkpt>
      <trkpt lat="45.70138" lon="2.9573">
        <ele>1000</ele>
        <time>2019-06-23T08:23:00.000Z</time>
      </trkpt>
      <trkpt lat="45.70139" lon="2.95734">
        <ele>1000</ele>
        <time>2019-06-23T08:23:01.000Z</time>
      </trkpt>
      <trkpt lat="45.70141" lon="2.95739">
        <ele>999</ele>
        <time>2019-06-23T08:23:02.000Z</time>
      </trkpt>
      <trkpt lat="45.70142" lon="2.95746">
        <ele>999</ele>
        <time>2019-06-23T08:23:03.000Z</time>
      </trkpt>
      <trkpt lat="45.70146" lon="2.95755">
        <ele>999</ele>
        <time>2019-06-23T08:23:04.000Z</time>
      </trkpt>
      <trkpt lat="45.70147" lon="2.95763">
        <ele>1000</ele>
        <time>2019-06-23T08:23:05.000Z</time>
      </trkpt>
      <trkpt lat="45.70149" lon="2.95768">
        <ele>1001</ele>
        <time>2019-06-23T08:23:06.000Z</time>
      </trkpt>
      <trkpt lat="45.70151" lon="2.95774">
        <ele>1001</ele>
        <time>2019-06-23T08:23:07.000Z</time>
      </trkpt>
      <trkpt lat="45.70154" lon="2.95781">
        <ele>1000</ele>
        <time>2019-06-23T08:23:08.000Z</time>
      </trkpt>
      <trkpt lat="45.70156" lon="2.95789">
        <ele>998</ele>
        <time>2019-06-23T08:23:09.000Z</time>
      </trkpt>
      <trkpt lat="45.70158" lon="2.95794">
        <ele>998</ele>
        <time>2019-06-23T08:23:10.000Z</time>
      </trkpt>
      <trkpt lat="45.7016" lon="2.95802">
        <ele>998</ele>
        <time>2019-06-23T08:23:11.000Z</time>
      </trkpt>
      <trkpt lat="45.70164" lon="2.95809">
        <ele>998</ele>
        <time>2019-06-23T08:23:12.000Z</time>
      </trkpt>
      <trkpt lat="45.70166" lon="2.95814">
        <ele>997</ele>
        <time>2019-06-23T08:23:13.000Z</time>
      </trkpt>
      <trkpt lat="45.70168" lon="2.9582">
        <ele>998</ele>
        <time>2019-06-23T08:23:14.000Z</time>
      </trkpt>
      <trkpt lat="45.70173" lon="2.95828">
        <ele>998</ele>
        <time>2019-06-23T08:23:15.000Z</time>
      </trkpt>
      <trkpt lat="45.70178" lon="2.95834">
        <ele>999</ele>
        <time>2019-06-23T08:23:16.000Z</time>
      </trkpt>
      <trkpt lat="45.70183" lon="2.95841">
        <ele>999</ele>
        <time>2019-06-23T08:23:17.000Z</time>
      </trkpt>
      <trkpt lat="45.70187" lon="2.95849">
        <ele>999</ele>
        <time>2019-06-23T08:23:18.000Z</time>
      </trkpt>
      <trkpt lat="45.7019" lon="2.95857">
        <ele>998</ele>
        <time>2019-06-23T08:23:19.000Z</time>
      </trkpt>
      <trkpt lat="45.70192" lon="2.95866">
        <ele>998</ele>
        <time>2019-06-23T08:23:20.000Z</time>
      </trkpt>
      <trkpt lat="45.70195" lon="2.95876">
        <ele>999</ele>
        <time>2019-06-23T08:23:21.000Z</time>
      </trkpt>
      <trkpt lat="45.70198" lon="2.95886">
        <ele>997</ele>
        <time>2019-06-23T08:23:22.000Z</time>
      </trkpt>
      <trkpt lat="45.702" lon="2.95896">
        <ele>997</ele>
        <time>2019-06-23T08:23:23.000Z</time>
      </trkpt>
      <trkpt lat="45.70201" lon="2.95905">
        <ele>995</ele>
        <time>2019-06-23T08:23:24.000Z</time>
      </trkpt>
      <trkpt lat="45.70201" lon="2.95914">
        <ele>995</ele>
        <time>2019-06-23T08:23:25.000Z</time>
      </trkpt>
      <trkpt lat="45.70202" lon="2.95922">
        <ele>995</ele>
        <time>2019-06-23T08:23:26.000Z</time>
      </trkpt>
      <trkpt lat="45.70205" lon="2.9593">
        <ele>998</ele>
        <time>2019-06-23T08:23:27.000Z</time>
      </trkpt>
      <trkpt lat="45.70207" lon="2.95939">
        <ele>999</ele>
        <time>2019-06-23T08:23:28.000Z</time>
      </trkpt>
      <trkpt lat="45.70207" lon="2.95946">
        <ele>1000</ele>
        <time>2019-06-23T08:23:29.000Z</time>
      </trkpt>
      <trkpt lat="45.70207" lon="2.95952">
        <ele>1001</ele>
        <time>2019-06-23T08:23:30.000Z</time>
      </trkpt>
      <trkpt lat="45.70207" lon="2.95959">
        <ele>1002</ele>
        <time>2019-06-23T08:23:31.000Z</time>
      </trkpt>
      <trkpt lat="45.70206" lon="2.95965">
        <ele>1003</ele>
        <time>2019-06-23T08:23:32.000Z</time>
      </trkpt>
      <trkpt lat="45.70204" lon="2.95972">
        <ele>1003</ele>
        <time>2019-06-23T08:23:33.000Z</time>
      </trkpt>
      <trkpt lat="45.70203" lon="2.95978">
        <ele>1004</ele>
        <time>2019-06-23T08:23:34.000Z</time>
      </trkpt>
      <trkpt lat="45.702" lon="2.95983">
        <ele>1004</ele>
        <time>2019-06-23T08:23:35.000Z</time>
      </trkpt>
      <trkpt lat="45.70199" lon="2.95987">
        <ele>1005</ele>
        <time>2019-06-23T08:23:36.000Z</time>
      </trkpt>
      <trkpt lat="45.70198" lon="2.95991">
        <ele>1005</ele>
        <time>2019-06-23T08:23:37.000Z</time>
      </trkpt>
      <trkpt lat="45.70196" lon="2.95996">
        <ele>1005</ele>
        <time>2019-06-23T08:23:38.000Z</time>
      </trkpt>
      <trkpt lat="45.70194" lon="2.96001">
        <ele>1005</ele>
        <time>2019-06-23T08:23:39.000Z</time>
      </trkpt>
      <trkpt lat="45.70192" lon="2.96005">
        <ele>1006</ele>
        <time>2019-06-23T08:23:40.000Z</time>
      </trkpt>
      <trkpt lat="45.70191" lon="2.96009">
        <ele>1006</ele>
        <time>2019-06-23T08:23:41.000Z</time>
      </trkpt>
      <trkpt lat="45.7019" lon="2.96012">
        <ele>1006</ele>
        <time>2019-06-23T08:23:42.000Z</time>
      </trkpt>
      <trkpt lat="45.70188" lon="2.96015">
        <ele>1007</ele>
        <time>2019-06-23T08:23:43.000Z</time>
      </trkpt>
      <trkpt lat="45.70186" lon="2.9602">
        <ele>1007</ele>
        <time>2019-06-23T08:23:44.000Z</time>
      </trkpt>
      <trkpt lat="45.70185" lon="2.96025">
        <ele>1007</ele>
        <time>2019-06-23T08:23:45.000Z</time>
      </trkpt>
      <trkpt lat="45.70184" lon="2.9603">
        <ele>1008</ele>
        <time>2019-06-23T08:23:46.000Z</time>
      </trkpt>
      <trkpt lat="45.70183" lon="2.96035">
        <ele>1008</ele>
        <time>2019-06-23T08:23:47.000Z</time>
      </trkpt>
      <trkpt lat="45.70181" lon="2.96042">
        <ele>1009</ele>
        <time>2019-06-23T08:23:48.000Z</time>
      </trkpt>
      <trkpt lat="45.70174" lon="2.96052">
        <ele>1010</ele>
        <time>2019-06-23T08:23:49.000Z</time>
      </trkpt>
      <trkpt lat="45.7017" lon="2.96059">
        <ele>1010</ele>
        <time>2019-06-23T08:23:50.000Z</time>
      </trkpt>
      <trkpt lat="45.70166" lon="2.96065">
        <ele>1010</ele>
        <time>2019-06-23T08:23:51.000Z</time>
      </trkpt>
      <trkpt lat="45.70162" lon="2.96071">
        <ele>1011</ele>
        <time>2019-06-23T08:23:52.000Z</time>
      </trkpt>
      <trkpt lat="45.70159" lon="2.96076">
        <ele>1011</ele>
        <time>2019-06-23T08:23:53.000Z</time>
      </trkpt>
      <trkpt lat="45.70157" lon="2.9608">
        <ele>1011</ele>
        <time>2019-06-23T08:23:54.000Z</time>
      </trkpt>
      <trkpt lat="45.70154" lon="2.96084">
        <ele>1011</ele>
        <time>2019-06-23T08:23:55.000Z</time>
      </trkpt>
      <trkpt lat="45.70152" lon="2.96089">
        <ele>1012</ele>
        <time>2019-06-23T08:23:56.000Z</time>
      </trkpt>
      <trkpt lat="45.70149" lon="2.96093">
        <ele>1012</ele>
        <time>2019-06-23T08:23:57.000Z</time>
      </trkpt>
      <trkpt lat="45.70148" lon="2.96096">
        <ele>1012</ele>
        <time>2019-06-23T08:23:58.000Z</time>
      </trkpt>
      <trkpt lat="45.70147" lon="2.96099">
        <ele>1013</ele>
        <time>2019-06-23T08:23:59.000Z</time>
      </trkpt>
      <trkpt lat="45.70144" lon="2.96105">
        <ele>1013</ele>
        <time>2019-06-23T08:24:00.000Z</time>
      </trkpt>
      <trkpt lat="45.70138" lon="2.96112">
        <ele>1013</ele>
        <time>2019-06-23T08:24:01.000Z</time>
      </trkpt>
      <trkpt lat="45.70135" lon="2.96117">
        <ele>1014</ele>
        <time>2019-06-23T08:24:02.000Z</time>
      </trkpt>
      <trkpt lat="45.7013" lon="2.96123">
        <ele>1014</ele>
        <time>2019-06-23T08:24:03.000Z</time>
      </trkpt>
      <trkpt lat="45.70127" lon="2.96127">
        <ele>1014</ele>
        <time>2019-06-23T08:24:04.000Z</time>
      </trkpt>
      <trkpt lat="45.70124" lon="2.96131">
        <ele>1015</ele>
        <time>2019-06-23T08:24:05.000Z</time>
      </trkpt>
      <trkpt lat="45.70121" lon="2.96136">
        <ele>1014</ele>
        <time>2019-06-23T08:24:06.000Z</time>
      </trkpt>
      <trkpt lat="45.70118" lon="2.96141">
        <ele>1014</ele>
        <time>2019-06-23T08:24:07.000Z</time>
      </trkpt>
      <trkpt lat="45.70114" lon="2.96147">
        <ele>1015</ele>
        <time>2019-06-23T08:24:08.000Z</time>
      </trkpt>
      <trkpt lat="45.70111" lon="2.96153">
        <ele>1015</ele>
        <time>2019-06-23T08:24:09.000Z</time>
      </trkpt>
      <trkpt lat="45.70108" lon="2.96158">
        <ele>1016</ele>
        <time>2019-06-23T08:24:10.000Z</time>
      </trkpt>
      <trkpt lat="45.70107" lon="2.96163">
        <ele>1016</ele>
        <time>2019-06-23T08:24:11.000Z</time>
      </trkpt>
      <trkpt lat="45.70105" lon="2.96168">
        <ele>1016</ele>
        <time>2019-06-23T08:24:12.000Z</time>
      </trkpt>
      <trkpt lat="45.70104" lon="2.96173">
        <ele>1017</ele>
        <time>2019-06-23T08:24:13.000Z</time>
      </trkpt>
      <trkpt lat="45.70104" lon="2.96177">
        <ele>1017</ele>
        <time>2019-06-23T08:24:14.000Z</time>
      </trkpt>
      <trkpt lat="45.70102" lon="2.96183">
        <ele>1018</ele>
        <time>2019-06-23T08:24:15.000Z</time>
      </trkpt>
      <trkpt lat="45.70099" lon="2.96189">
        <ele>1018</ele>
        <time>2019-06-23T08:24:16.000Z</time>
      </trkpt>
      <trkpt lat="45.70097" lon="2.96194">
        <ele>1019</ele>
        <time>2019-06-23T08:24:17.000Z</time>
      </trkpt>
      <trkpt lat="45.70095" lon="2.96199">
        <ele>1020</ele>
        <time>2019-06-23T08:24:18.000Z</time>
      </trkpt>
      <trkpt lat="45.70092" lon="2.96204">
        <ele>1020</ele>
        <time>2019-06-23T08:24:19.000Z</time>
      </trkpt>
      <trkpt lat="45.70089" lon="2.96208">
        <ele>1020</ele>
        <time>2019-06-23T08:24:20.000Z</time>
      </trkpt>
      <trkpt lat="45.70086" lon="2.96213">
        <ele>1021</ele>
        <time>2019-06-23T08:24:21.000Z</time>
      </trkpt>
      <trkpt lat="45.70085" lon="2.96219">
        <ele>1022</ele>
        <time>2019-06-23T08:24:22.000Z</time>
      </trkpt>
      <trkpt lat="45.70083" lon="2.96225">
        <ele>1023</ele>
        <time>2019-06-23T08:24:23.000Z</time>
      </trkpt>
      <trkpt lat="45.70081" lon="2.96231">
        <ele>1023</ele>
        <time>2019-06-23T08:24:24.000Z</time>
      </trkpt>
      <trkpt lat="45.70079" lon="2.96236">
        <ele>1024</ele>
        <time>2019-06-23T08:24:25.000Z</time>
      </trkpt>
      <trkpt lat="45.70077" lon="2.96241">
        <ele>1024</ele>
        <time>2019-06-23T08:24:26.000Z</time>
      </trkpt>
      <trkpt lat="45.70077" lon="2.96247">
        <ele>1025</ele>
        <time>2019-06-23T08:24:27.000Z</time>
      </trkpt>
      <trkpt lat="45.70077" lon="2.96253">
        <ele>1025</ele>
        <time>2019-06-23T08:24:28.000Z</time>
      </trkpt>
      <trkpt lat="45.70077" lon="2.96259">
        <ele>1025</ele>
        <time>2019-06-23T08:24:29.000Z</time>
      </trkpt>
      <trkpt lat="45.70077" lon="2.96265">
        <ele>1025</ele>
        <time>2019-06-23T08:24:30.000Z</time>
      </trkpt>
      <trkpt lat="45.70074" lon="2.96271">
        <ele>1026</ele>
        <time>2019-06-23T08:24:31.000Z</time>
      </trkpt>
      <trkpt lat="45.70073" lon="2.96276">
        <ele>1026</ele>
        <time>2019-06-23T08:24:32.000Z</time>
      </trkpt>
      <trkpt lat="45.70071" lon="2.96282">
        <ele>1026</ele>
        <time>2019-06-23T08:24:33.000Z</time>
      </trkpt>
      <trkpt lat="45.70068" lon="2.96289">
        <ele>1025</ele>
        <time>2019-06-23T08:24:34.000Z</time>
      </trkpt>
      <trkpt lat="45.70066" lon="2.96293">
        <ele>1025</ele>
        <time>2019-06-23T08:24:35.000Z</time>
      </trkpt>
      <trkpt lat="45.70065" lon="2.963">
        <ele>1023</ele>
        <time>2019-06-23T08:24:36.000Z</time>
      </trkpt>
      <trkpt lat="45.70063" lon="2.96305">
        <ele>1022</ele>
        <time>2019-06-23T08:24:37.000Z</time>
      </trkpt>
      <trkpt lat="45.70062" lon="2.9631">
        <ele>1022</ele>
        <time>2019-06-23T08:24:38.000Z</time>
      </trkpt>
      <trkpt lat="45.70061" lon="2.96316">
        <ele>1021</ele>
        <time>2019-06-23T08:24:39.000Z</time>
      </trkpt>
      <trkpt lat="45.70059" lon="2.96323">
        <ele>1021</ele>
        <time>2019-06-23T08:24:40.000Z</time>
      </trkpt>
      <trkpt lat="45.70058" lon="2.9633">
        <ele>1020</ele>
        <time>2019-06-23T08:24:41.000Z</time>
      </trkpt>
      <trkpt lat="45.70055" lon="2.96336">
        <ele>1018</ele>
        <time>2019-06-23T08:24:42.000Z</time>
      </trkpt>
      <trkpt lat="45.70054" lon="2.96344">
        <ele>1016</ele>
        <time>2019-06-23T08:24:43.000Z</time>
      </trkpt>
      <trkpt lat="45.70053" lon="2.96351">
        <ele>1016</ele>
        <time>2019-06-23T08:24:44.000Z</time>
      </trkpt>
      <trkpt lat="45.70052" lon="2.9636">
        <ele>1014</ele>
        <time>2019-06-23T08:24:45.000Z</time>
      </trkpt>
      <trkpt lat="45.7005" lon="2.96371">
        <ele>1013</ele>
        <time>2019-06-23T08:24:46.000Z</time>
      </trkpt>
      <trkpt lat="45.70051" lon="2.9638">
        <ele>1012</ele>
        <time>2019-06-23T08:24:47.000Z</time>
      </trkpt>
      <trkpt lat="45.70049" lon="2.96391">
        <ele>1010</ele>
        <time>2019-06-23T08:24:48.000Z</time>
      </trkpt>
      <trkpt lat="45.70046" lon="2.96401">
        <ele>1010</ele>
        <time>2019-06-23T08:24:49.000Z</time>
      </trkpt>
      <trkpt lat="45.70045" lon="2.9641">
        <ele>1009</ele>
        <time>2019-06-23T08:24:50.000Z</time>
      </trkpt>
      <trkpt lat="45.70046" lon="2.9642">
        <ele>1007</ele>
        <time>2019-06-23T08:24:51.000Z</time>
      </trkpt>
      <trkpt lat="45.70048" lon="2.9643">
        <ele>1006</ele>
        <time>2019-06-23T08:24:52.000Z</time>
      </trkpt>
      <trkpt lat="45.70048" lon="2.96441">
        <ele>1006</ele>
        <time>2019-06-23T08:24:53.000Z</time>
      </trkpt>
      <trkpt lat="45.7005" lon="2.96449">
        <ele>1006</ele>
        <time>2019-06-23T08:24:54.000Z</time>
      </trkpt>
      <trkpt lat="45.70049" lon="2.96461">
        <ele>1005</ele>
        <time>2019-06-23T08:24:55.000Z</time>
      </trkpt>
      <trkpt lat="45.70051" lon="2.96473">
        <ele>1004</ele>
        <time>2019-06-23T08:24:56.000Z</time>
      </trkpt>
      <trkpt lat="45.70058" lon="2.96485">
        <ele>1003</ele>
        <time>2019-06-23T08:24:57.000Z</time>
      </trkpt>
      <trkpt lat="45.70064" lon="2.96497">
        <ele>1001</ele>
        <time>2019-06-23T08:24:58.000Z</time>
      </trkpt>
      <trkpt lat="45.70071" lon="2.9651">
        <ele>1001</ele>
        <time>2019-06-23T08:24:59.000Z</time>
      </trkpt>
      <trkpt lat="45.70075" lon="2.9652">
        <ele>1001</ele>
        <time>2019-06-23T08:25:00.000Z</time>
      </trkpt>
      <trkpt lat="45.7008" lon="2.96529">
        <ele>1000</ele>
        <time>2019-06-23T08:25:01.000Z</time>
      </trkpt>
      <trkpt lat="45.70085" lon="2.96538">
        <ele>1000</ele>
        <time>2019-06-23T08:25:02.000Z</time>
      </trkpt>
      <trkpt lat="45.70093" lon="2.96549">
        <ele>998</ele>
        <time>2019-06-23T08:25:03.000Z</time>
      </trkpt>
      <trkpt lat="45.70098" lon="2.96559">
        <ele>997</ele>
        <time>2019-06-23T08:25:04.000Z</time>
      </trkpt>
      <trkpt lat="45.70104" lon="2.96569">
        <ele>998</ele>
        <time>2019-06-23T08:25:05.000Z</time>
      </trkpt>
      <trkpt lat="45.70107" lon="2.9658">
        <ele>998</ele>
        <time>2019-06-23T08:25:06.000Z</time>
      </trkpt>
      <trkpt lat="45.7011" lon="2.9659">
        <ele>998</ele>
        <time>2019-06-23T08:25:07.000Z</time>
      </trkpt>
      <trkpt lat="45.70111" lon="2.966">
        <ele>999</ele>
        <time>2019-06-23T08:25:08.000Z</time>
      </trkpt>
      <trkpt lat="45.70111" lon="2.96608">
        <ele>998</ele>
        <time>2019-06-23T08:25:09.000Z</time>
      </trkpt>
      <trkpt lat="45.70112" lon="2.96615">
        <ele>997</ele>
        <time>2019-06-23T08:25:10.000Z</time>
      </trkpt>
      <trkpt lat="45.70112" lon="2.96621">
        <ele>997</ele>
        <time>2019-06-23T08:25:11.000Z</time>
      </trkpt>
      <trkpt lat="45.70111" lon="2.96626">
        <ele>996</ele>
        <time>2019-06-23T08:25:12.000Z</time>
      </trkpt>
      <trkpt lat="45.70111" lon="2.9663">
        <ele>994</ele>
        <time>2019-06-23T08:25:13.000Z</time>
      </trkpt>
      <trkpt lat="45.70112" lon="2.96633">
        <ele>994</ele>
        <time>2019-06-23T08:25:14.000Z</time>
      </trkpt>
      <trkpt lat="45.70112" lon="2.96636">
        <ele>994</ele>
        <time>2019-06-23T08:25:15.000Z</time>
      </trkpt>
      <trkpt lat="45.70115" lon="2.96639">
        <ele>993</ele>
        <time>2019-06-23T08:25:16.000Z</time>
      </trkpt>
      <trkpt lat="45.70117" lon="2.96644">
        <ele>992</ele>
        <time>2019-06-23T08:25:17.000Z</time>
      </trkpt>
      <trkpt lat="45.70118" lon="2.96649">
        <ele>994</ele>
        <time>2019-06-23T08:25:18.000Z</time>
      </trkpt>
      <trkpt lat="45.70121" lon="2.96654">
        <ele>995</ele>
        <time>2019-06-23T08:25:19.000Z</time>
      </trkpt>
      <trkpt lat="45.70123" lon="2.9666">
        <ele>996</ele>
        <time>2019-06-23T08:25:20.000Z</time>
      </trkpt>
      <trkpt lat="45.70124" lon="2.96665">
        <ele>995</ele>
        <time>2019-06-23T08:25:21.000Z</time>
      </trkpt>
      <trkpt lat="45.70125" lon="2.96672">
        <ele>994</ele>
        <time>2019-06-23T08:25:22.000Z</time>
      </trkpt>
      <trkpt lat="45.70125" lon="2.96678">
        <ele>993</ele>
        <time>2019-06-23T08:25:23.000Z</time>
      </trkpt>
      <trkpt lat="45.70126" lon="2.96683">
        <ele>993</ele>
        <time>2019-06-23T08:25:24.000Z</time>
      </trkpt>
      <trkpt lat="45.70127" lon="2.96686">
        <ele>993</ele>
        <time>2019-06-23T08:25:25.000Z</time>
      </trkpt>
      <trkpt lat="45.70127" lon="2.96686">
        <ele>993</ele>
        <time>2019-06-23T08:25:26.000Z</time>
      </trkpt>
      <trkpt lat="45.70133" lon="2.96702">
        <ele>990</ele>
        <time>2019-06-23T08:25:27.000Z</time>
      </trkpt>
      <trkpt lat="45.70134" lon="2.96703">
        <ele>990</ele>
        <time>2019-06-23T08:25:28.000Z</time>
      </trkpt>
      <trkpt lat="45.70133" lon="2.96705">
        <ele>990</ele>
        <time>2019-06-23T08:25:29.000Z</time>
      </trkpt>
      <trkpt lat="45.70134" lon="2.96707">
        <ele>989</ele>
        <time>2019-06-23T08:25:30.000Z</time>
      </trkpt>
      <trkpt lat="45.70134" lon="2.9671">
        <ele>989</ele>
        <time>2019-06-23T08:25:31.000Z</time>
      </trkpt>
      <trkpt lat="45.70134" lon="2.96714">
        <ele>988</ele>
        <time>2019-06-23T08:25:32.000Z</time>
      </trkpt>
      <trkpt lat="45.70134" lon="2.96718">
        <ele>988</ele>
        <time>2019-06-23T08:25:33.000Z</time>
      </trkpt>
      <trkpt lat="45.70135" lon="2.96722">
        <ele>989</ele>
        <time>2019-06-23T08:25:34.000Z</time>
      </trkpt>
      <trkpt lat="45.70135" lon="2.96725">
        <ele>989</ele>
        <time>2019-06-23T08:25:35.000Z</time>
      </trkpt>
      <trkpt lat="45.70135" lon="2.9673">
        <ele>989</ele>
        <time>2019-06-23T08:25:36.000Z</time>
      </trkpt>
      <trkpt lat="45.70135" lon="2.96735">
        <ele>988</ele>
        <time>2019-06-23T08:25:37.000Z</time>
      </trkpt>
      <trkpt lat="45.70134" lon="2.9674">
        <ele>988</ele>
        <time>2019-06-23T08:25:38.000Z</time>
      </trkpt>
      <trkpt lat="45.70134" lon="2.96745">
        <ele>988</ele>
        <time>2019-06-23T08:25:39.000Z</time>
      </trkpt>
      <trkpt lat="45.70133" lon="2.9675">
        <ele>988</ele>
        <time>2019-06-23T08:25:40.000Z</time>
      </trkpt>
      <trkpt lat="45.70133" lon="2.96755">
        <ele>988</ele>
        <time>2019-06-23T08:25:41.000Z</time>
      </trkpt>
      <trkpt lat="45.70132" lon="2.9676">
        <ele>988</ele>
        <time>2019-06-23T08:25:42.000Z</time>
      </trkpt>
      <trkpt lat="45.70131" lon="2.96766">
        <ele>988</ele>
        <time>2019-06-23T08:25:43.000Z</time>
      </trkpt>
      <trkpt lat="45.70129" lon="2.96772">
        <ele>989</ele>
        <time>2019-06-23T08:25:44.000Z</time>
      </trkpt>
      <trkpt lat="45.70128" lon="2.96777">
        <ele>989</ele>
        <time>2019-06-23T08:25:45.000Z</time>
      </trkpt>
      <trkpt lat="45.70126" lon="2.96784">
        <ele>989</ele>
        <time>2019-06-23T08:25:46.000Z</time>
      </trkpt>
      <trkpt lat="45.70124" lon="2.9679">
        <ele>989</ele>
        <time>2019-06-23T08:25:47.000Z</time>
      </trkpt>
      <trkpt lat="45.70122" lon="2.96796">
        <ele>990</ele>
        <time>2019-06-23T08:25:48.000Z</time>
      </trkpt>
      <trkpt lat="45.70121" lon="2.96802">
        <ele>990</ele>
        <time>2019-06-23T08:25:49.000Z</time>
      </trkpt>
      <trkpt lat="45.70119" lon="2.96808">
        <ele>992</ele>
        <time>2019-06-23T08:25:50.000Z</time>
      </trkpt>
      <trkpt lat="45.70118" lon="2.96815">
        <ele>994</ele>
        <time>2019-06-23T08:25:51.000Z</time>
      </trkpt>
      <trkpt lat="45.70116" lon="2.96821">
        <ele>995</ele>
        <time>2019-06-23T08:25:52.000Z</time>
      </trkpt>
      <trkpt lat="45.70113" lon="2.96829">
        <ele>996</ele>
        <time>2019-06-23T08:25:53.000Z</time>
      </trkpt>
      <trkpt lat="45.70108" lon="2.96837">
        <ele>997</ele>
        <time>2019-06-23T08:25:54.000Z</time>
      </trkpt>
      <trkpt lat="45.70105" lon="2.96844">
        <ele>997</ele>
        <time>2019-06-23T08:25:55.000Z</time>
      </trkpt>
      <trkpt lat="45.70101" lon="2.96851">
        <ele>998</ele>
        <time>2019-06-23T08:25:56.000Z</time>
      </trkpt>
      <trkpt lat="45.70097" lon="2.96858">
        <ele>999</ele>
        <time>2019-06-23T08:25:57.000Z</time>
      </trkpt>
      <trkpt lat="45.70092" lon="2.96864">
        <ele>998</ele>
        <time>2019-06-23T08:25:58.000Z</time>
      </trkpt>
      <trkpt lat="45.70089" lon="2.9687">
        <ele>1000</ele>
        <time>2019-06-23T08:25:59.000Z</time>
      </trkpt>
      <trkpt lat="45.70086" lon="2.96875">
        <ele>1002</ele>
        <time>2019-06-23T08:26:00.000Z</time>
      </trkpt>
      <trkpt lat="45.70084" lon="2.96884">
        <ele>1002</ele>
        <time>2019-06-23T08:26:01.000Z</time>
      </trkpt>
      <trkpt lat="45.70081" lon="2.9689">
        <ele>1004</ele>
        <time>2019-06-23T08:26:02.000Z</time>
      </trkpt>
      <trkpt lat="45.70079" lon="2.96896">
        <ele>1006</ele>
        <time>2019-06-23T08:26:03.000Z</time>
      </trkpt>
      <trkpt lat="45.70077" lon="2.96902">
        <ele>1008</ele>
        <time>2019-06-23T08:26:04.000Z</time>
      </trkpt>
      <trkpt lat="45.70076" lon="2.96909">
        <ele>1009</ele>
        <time>2019-06-23T08:26:05.000Z</time>
      </trkpt>
      <trkpt lat="45.70075" lon="2.96916">
        <ele>1010</ele>
        <time>2019-06-23T08:26:06.000Z</time>
      </trkpt>
      <trkpt lat="45.70072" lon="2.96921">
        <ele>1011</ele>
        <time>2019-06-23T08:26:07.000Z</time>
      </trkpt>
      <trkpt lat="45.70069" lon="2.96925">
        <ele>1012</ele>
        <time>2019-06-23T08:26:08.000Z</time>
      </trkpt>
      <trkpt lat="45.70066" lon="2.96928">
        <ele>1011</ele>
        <time>2019-06-23T08:26:09.000Z</time>
      </trkpt>
      <trkpt lat="45.70064" lon="2.96934">
        <ele>1011</ele>
        <time>2019-06-23T08:26:10.000Z</time>
      </trkpt>
      <trkpt lat="45.70063" lon="2.96941">
        <ele>1010</ele>
        <time>2019-06-23T08:26:11.000Z</time>
      </trkpt>
      <trkpt lat="45.70061" lon="2.96946">
        <ele>1009</ele>
        <time>2019-06-23T08:26:12.000Z</time>
      </trkpt>
      <trkpt lat="45.7006" lon="2.96951">
        <ele>1009</ele>
        <time>2019-06-23T08:26:13.000Z</time>
      </trkpt>
      <trkpt lat="45.70059" lon="2.96959">
        <ele>1007</ele>
        <time>2019-06-23T08:26:14.000Z</time>
      </trkpt>
      <trkpt lat="45.70055" lon="2.96966">
        <ele>1007</ele>
        <time>2019-06-23T08:26:15.000Z</time>
      </trkpt>
      <trkpt lat="45.70053" lon="2.96972">
        <ele>1007</ele>
        <time>2019-06-23T08:26:16.000Z</time>
      </trkpt>
      <trkpt lat="45.70049" lon="2.96979">
        <ele>1007</ele>
        <time>2019-06-23T08:26:17.000Z</time>
      </trkpt>
      <trkpt lat="45.70045" lon="2.96985">
        <ele>1007</ele>
        <time>2019-06-23T08:26:18.000Z</time>
      </trkpt>
      <trkpt lat="45.70042" lon="2.96991">
        <ele>1007</ele>
        <time>2019-06-23T08:26:19.000Z</time>
      </trkpt>
      <trkpt lat="45.70039" lon="2.96997">
        <ele>1007</ele>
        <time>2019-06-23T08:26:20.000Z</time>
      </trkpt>
      <trkpt lat="45.70036" lon="2.97002">
        <ele>1008</ele>
        <time>2019-06-23T08:26:21.000Z</time>
      </trkpt>
      <trkpt lat="45.70032" lon="2.97009">
        <ele>1007</ele>
        <time>2019-06-23T08:26:22.000Z</time>
      </trkpt>
      <trkpt lat="45.70029" lon="2.97014">
        <ele>1007</ele>
        <time>2019-06-23T08:26:23.000Z</time>
      </trkpt>
      <trkpt lat="45.70027" lon="2.9702">
        <ele>1007</ele>
        <time>2019-06-23T08:26:24.000Z</time>
      </trkpt>
      <trkpt lat="45.70024" lon="2.97025">
        <ele>1008</ele>
        <time>2019-06-23T08:26:25.000Z</time>
      </trkpt>
      <trkpt lat="45.70022" lon="2.97031">
        <ele>1007</ele>
        <time>2019-06-23T08:26:26.000Z</time>
      </trkpt>
      <trkpt lat="45.70019" lon="2.97037">
        <ele>1006</ele>
        <time>2019-06-23T08:26:27.000Z</time>
      </trkpt>
      <trkpt lat="45.70017" lon="2.97042">
        <ele>1006</ele>
        <time>2019-06-23T08:26:28.000Z</time>
      </trkpt>
      <trkpt lat="45.70014" lon="2.97047">
        <ele>1005</ele>
        <time>2019-06-23T08:26:29.000Z</time>
      </trkpt>
      <trkpt lat="45.70012" lon="2.97051">
        <ele>1004</ele>
        <time>2019-06-23T08:26:30.000Z</time>
      </trkpt>
      <trkpt lat="45.70008" lon="2.97056">
        <ele>1004</ele>
        <time>2019-06-23T08:26:31.000Z</time>
      </trkpt>
      <trkpt lat="45.70006" lon="2.9706">
        <ele>1005</ele>
        <time>2019-06-23T08:26:32.000Z</time>
      </trkpt>
      <trkpt lat="45.70003" lon="2.97065">
        <ele>1005</ele>
        <time>2019-06-23T08:26:33.000Z</time>
      </trkpt>
      <trkpt lat="45.70001" lon="2.97069">
        <ele>1004</ele>
        <time>2019-06-23T08:26:34.000Z</time>
      </trkpt>
      <trkpt lat="45.69998" lon="2.97075">
        <ele>1004</ele>
        <time>2019-06-23T08:26:35.000Z</time>
      </trkpt>
      <trkpt lat="45.69996" lon="2.97082">
        <ele>1003</ele>
        <time>2019-06-23T08:26:36.000Z</time>
      </trkpt>
      <trkpt lat="45.69993" lon="2.97088">
        <ele>1003</ele>
        <time>2019-06-23T08:26:37.000Z</time>
      </trkpt>
      <trkpt lat="45.6999" lon="2.97093">
        <ele>1004</ele>
        <time>2019-06-23T08:26:38.000Z</time>
      </trkpt>
      <trkpt lat="45.69988" lon="2.97097">
        <ele>1004</ele>
        <time>2019-06-23T08:26:39.000Z</time>
      </trkpt>
      <trkpt lat="45.69986" lon="2.97102">
        <ele>1003</ele>
        <time>2019-06-23T08:26:40.000Z</time>
      </trkpt>
      <trkpt lat="45.69984" lon="2.97108">
        <ele>1002</ele>
        <time>2019-06-23T08:26:41.000Z</time>
      </trkpt>
      <trkpt lat="45.69981" lon="2.97113">
        <ele>1001</ele>
        <time>2019-06-23T08:26:42.000Z</time>
      </trkpt>
      <trkpt lat="45.6998" lon="2.97119">
        <ele>1000</ele>
        <time>2019-06-23T08:26:43.000Z</time>
      </trkpt>
      <trkpt lat="45.69977" lon="2.97126">
        <ele>1000</ele>
        <time>2019-06-23T08:26:44.000Z</time>
      </trkpt>
      <trkpt lat="45.69975" lon="2.97132">
        <ele>999</ele>
        <time>2019-06-23T08:26:45.000Z</time>
      </trkpt>
      <trkpt lat="45.69973" lon="2.97138">
        <ele>1000</ele>
        <time>2019-06-23T08:26:46.000Z</time>
      </trkpt>
      <trkpt lat="45.69971" lon="2.97143">
        <ele>1001</ele>
        <time>2019-06-23T08:26:47.000Z</time>
      </trkpt>
      <trkpt lat="45.69969" lon="2.97148">
        <ele>1002</ele>
        <time>2019-06-23T08:26:48.000Z</time>
      </trkpt>
      <trkpt lat="45.69967" lon="2.97152">
        <ele>1002</ele>
        <time>2019-06-23T08:26:49.000Z</time>
      </trkpt>
      <trkpt lat="45.69964" lon="2.97159">
        <ele>1003</ele>
        <time>2019-06-23T08:26:50.000Z</time>
      </trkpt>
      <trkpt lat="45.69961" lon="2.97165">
        <ele>1002</ele>
        <time>2019-06-23T08:26:51.000Z</time>
      </trkpt>
      <trkpt lat="45.69959" lon="2.9717">
        <ele>1003</ele>
        <time>2019-06-23T08:26:52.000Z</time>
      </trkpt>
      <trkpt lat="45.69959" lon="2.97176">
        <ele>1003</ele>
        <time>2019-06-23T08:26:53.000Z</time>
      </trkpt>
      <trkpt lat="45.69959" lon="2.97183">
        <ele>1002</ele>
        <time>2019-06-23T08:26:54.000Z</time>
      </trkpt>
      <trkpt lat="45.69957" lon="2.97188">
        <ele>1002</ele>
        <time>2019-06-23T08:26:55.000Z</time>
      </trkpt>
      <trkpt lat="45.69956" lon="2.97194">
        <ele>1002</ele>
        <time>2019-06-23T08:26:56.000Z</time>
      </trkpt>
      <trkpt lat="45.69954" lon="2.97199">
        <ele>1001</ele>
        <time>2019-06-23T08:26:57.000Z</time>
      </trkpt>
      <trkpt lat="45.69953" lon="2.97205">
        <ele>1001</ele>
        <time>2019-06-23T08:26:58.000Z</time>
      </trkpt>
      <trkpt lat="45.69955" lon="2.97213">
        <ele>1001</ele>
        <time>2019-06-23T08:26:59.000Z</time>
      </trkpt>
      <trkpt lat="45.69956" lon="2.9722">
        <ele>1001</ele>
        <time>2019-06-23T08:27:00.000Z</time>
      </trkpt>
      <trkpt lat="45.69956" lon="2.97228">
        <ele>1000</ele>
        <time>2019-06-23T08:27:01.000Z</time>
      </trkpt>
      <trkpt lat="45.69955" lon="2.97236">
        <ele>1000</ele>
        <time>2019-06-23T08:27:02.000Z</time>
      </trkpt>
      <trkpt lat="45.69954" lon="2.97243">
        <ele>999</ele>
        <time>2019-06-23T08:27:03.000Z</time>
      </trkpt>
      <trkpt lat="45.69954" lon="2.97252">
        <ele>999</ele>
        <time>2019-06-23T08:27:04.000Z</time>
      </trkpt>
      <trkpt lat="45.69953" lon="2.9726">
        <ele>999</ele>
        <time>2019-06-23T08:27:05.000Z</time>
      </trkpt>
      <trkpt lat="45.69952" lon="2.97266">
        <ele>998</ele>
        <time>2019-06-23T08:27:06.000Z</time>
      </trkpt>
      <trkpt lat="45.6995" lon="2.97274">
        <ele>998</ele>
        <time>2019-06-23T08:27:07.000Z</time>
      </trkpt>
      <trkpt lat="45.69949" lon="2.97282">
        <ele>997</ele>
        <time>2019-06-23T08:27:08.000Z</time>
      </trkpt>
      <trkpt lat="45.69947" lon="2.97289">
        <ele>995</ele>
        <time>2019-06-23T08:27:09.000Z</time>
      </trkpt>
      <trkpt lat="45.69945" lon="2.97298">
        <ele>992</ele>
        <time>2019-06-23T08:27:10.000Z</time>
      </trkpt>
      <trkpt lat="45.69945" lon="2.97306">
        <ele>990</ele>
        <time>2019-06-23T08:27:11.000Z</time>
      </trkpt>
      <trkpt lat="45.69943" lon="2.97315">
        <ele>989</ele>
        <time>2019-06-23T08:27:12.000Z</time>
      </trkpt>
      <trkpt lat="45.69941" lon="2.97324">
        <ele>987</ele>
        <time>2019-06-23T08:27:13.000Z</time>
      </trkpt>
      <trkpt lat="45.69936" lon="2.97334">
        <ele>983</ele>
        <time>2019-06-23T08:27:14.000Z</time>
      </trkpt>
      <trkpt lat="45.69931" lon="2.97346">
        <ele>980</ele>
        <time>2019-06-23T08:27:15.000Z</time>
      </trkpt>
      <trkpt lat="45.69926" lon="2.97357">
        <ele>976</ele>
        <time>2019-06-23T08:27:16.000Z</time>
      </trkpt>
      <trkpt lat="45.69923" lon="2.97367">
        <ele>975</ele>
        <time>2019-06-23T08:27:17.000Z</time>
      </trkpt>
      <trkpt lat="45.6992" lon="2.97376">
        <ele>974</ele>
        <time>2019-06-23T08:27:18.000Z</time>
      </trkpt>
      <trkpt lat="45.69916" lon="2.97384">
        <ele>973</ele>
        <time>2019-06-23T08:27:19.000Z</time>
      </trkpt>
      <trkpt lat="45.69914" lon="2.97392">
        <ele>972</ele>
        <time>2019-06-23T08:27:20.000Z</time>
      </trkpt>
      <trkpt lat="45.69909" lon="2.97399">
        <ele>970</ele>
        <time>2019-06-23T08:27:21.000Z</time>
      </trkpt>
      <trkpt lat="45.69906" lon="2.97406">
        <ele>969</ele>
        <time>2019-06-23T08:27:22.000Z</time>
      </trkpt>
      <trkpt lat="45.69904" lon="2.97413">
        <ele>969</ele>
        <time>2019-06-23T08:27:23.000Z</time>
      </trkpt>
      <trkpt lat="45.69902" lon="2.9742">
        <ele>967</ele>
        <time>2019-06-23T08:27:24.000Z</time>
      </trkpt>
      <trkpt lat="45.69899" lon="2.97428">
        <ele>965</ele>
        <time>2019-06-23T08:27:25.000Z</time>
      </trkpt>
      <trkpt lat="45.69895" lon="2.97437">
        <ele>962</ele>
        <time>2019-06-23T08:27:26.000Z</time>
      </trkpt>
      <trkpt lat="45.69891" lon="2.97448">
        <ele>960</ele>
        <time>2019-06-23T08:27:27.000Z</time>
      </trkpt>
      <trkpt lat="45.69884" lon="2.97459">
        <ele>959</ele>
        <time>2019-06-23T08:27:28.000Z</time>
      </trkpt>
      <trkpt lat="45.69881" lon="2.97468">
        <ele>960</ele>
        <time>2019-06-23T08:27:29.000Z</time>
      </trkpt>
      <trkpt lat="45.69877" lon="2.97479">
        <ele>961</ele>
        <time>2019-06-23T08:27:30.000Z</time>
      </trkpt>
      <trkpt lat="45.69873" lon="2.9749">
        <ele>962</ele>
        <time>2019-06-23T08:27:31.000Z</time>
      </trkpt>
      <trkpt lat="45.69869" lon="2.97501">
        <ele>962</ele>
        <time>2019-06-23T08:27:32.000Z</time>
      </trkpt>
      <trkpt lat="45.69867" lon="2.9751">
        <ele>962</ele>
        <time>2019-06-23T08:27:33.000Z</time>
      </trkpt>
      <trkpt lat="45.69864" lon="2.97517">
        <ele>963</ele>
        <time>2019-06-23T08:27:34.000Z</time>
      </trkpt>
      <trkpt lat="45.6986" lon="2.97525">
        <ele>963</ele>
        <time>2019-06-23T08:27:35.000Z</time>
      </trkpt>
      <trkpt lat="45.69856" lon="2.97535">
        <ele>964</ele>
        <time>2019-06-23T08:27:36.000Z</time>
      </trkpt>
      <trkpt lat="45.69853" lon="2.97543">
        <ele>966</ele>
        <time>2019-06-23T08:27:37.000Z</time>
      </trkpt>
      <trkpt lat="45.69854" lon="2.97553">
        <ele>968</ele>
        <time>2019-06-23T08:27:38.000Z</time>
      </trkpt>
      <trkpt lat="45.69851" lon="2.97562">
        <ele>968</ele>
        <time>2019-06-23T08:27:39.000Z</time>
      </trkpt>
      <trkpt lat="45.69848" lon="2.97569">
        <ele>968</ele>
        <time>2019-06-23T08:27:40.000Z</time>
      </trkpt>
      <trkpt lat="45.69846" lon="2.97577">
        <ele>968</ele>
        <time>2019-06-23T08:27:41.000Z</time>
      </trkpt>
      <trkpt lat="45.69843" lon="2.97588">
        <ele>966</ele>
        <time>2019-06-23T08:27:42.000Z</time>
      </trkpt>
      <trkpt lat="45.6984" lon="2.97599">
        <ele>965</ele>
        <time>2019-06-23T08:27:43.000Z</time>
      </trkpt>
      <trkpt lat="45.69838" lon="2.9761">
        <ele>967</ele>
        <time>2019-06-23T08:27:44.000Z</time>
      </trkpt>
      <trkpt lat="45.69834" lon="2.97623">
        <ele>964</ele>
        <time>2019-06-23T08:27:45.000Z</time>
      </trkpt>
      <trkpt lat="45.69834" lon="2.97633">
        <ele>962</ele>
        <time>2019-06-23T08:27:46.000Z</time>
      </trkpt>
      <trkpt lat="45.69833" lon="2.97643">
        <ele>961</ele>
        <time>2019-06-23T08:27:47.000Z</time>
      </trkpt>
      <trkpt lat="45.69832" lon="2.97652">
        <ele>960</ele>
        <time>2019-06-23T08:27:48.000Z</time>
      </trkpt>
      <trkpt lat="45.6983" lon="2.97661">
        <ele>960</ele>
        <time>2019-06-23T08:27:49.000Z</time>
      </trkpt>
      <trkpt lat="45.69828" lon="2.97667">
        <ele>960</ele>
        <time>2019-06-23T08:27:50.000Z</time>
      </trkpt>
      <trkpt lat="45.69824" lon="2.97675">
        <ele>959</ele>
        <time>2019-06-23T08:27:51.000Z</time>
      </trkpt>
      <trkpt lat="45.69818" lon="2.97684">
        <ele>959</ele>
        <time>2019-06-23T08:27:52.000Z</time>
      </trkpt>
      <trkpt lat="45.69811" lon="2.97694">
        <ele>959</ele>
        <time>2019-06-23T08:27:53.000Z</time>
      </trkpt>
      <trkpt lat="45.6981" lon="2.97706">
        <ele>959</ele>
        <time>2019-06-23T08:27:54.000Z</time>
      </trkpt>
      <trkpt lat="45.69806" lon="2.97715">
        <ele>959</ele>
        <time>2019-06-23T08:27:55.000Z</time>
      </trkpt>
      <trkpt lat="45.69805" lon="2.97723">
        <ele>958</ele>
        <time>2019-06-23T08:27:56.000Z</time>
      </trkpt>
      <trkpt lat="45.69801" lon="2.9773">
        <ele>958</ele>
        <time>2019-06-23T08:27:57.000Z</time>
      </trkpt>
      <trkpt lat="45.69799" lon="2.97739">
        <ele>958</ele>
        <time>2019-06-23T08:27:58.000Z</time>
      </trkpt>
      <trkpt lat="45.69791" lon="2.9775">
        <ele>959</ele>
        <time>2019-06-23T08:27:59.000Z</time>
      </trkpt>
      <trkpt lat="45.69785" lon="2.97759">
        <ele>960</ele>
        <time>2019-06-23T08:28:00.000Z</time>
      </trkpt>
      <trkpt lat="45.69778" lon="2.9777">
        <ele>962</ele>
        <time>2019-06-23T08:28:01.000Z</time>
      </trkpt>
      <trkpt lat="45.69776" lon="2.97779">
        <ele>963</ele>
        <time>2019-06-23T08:28:02.000Z</time>
      </trkpt>
      <trkpt lat="45.69771" lon="2.97788">
        <ele>964</ele>
        <time>2019-06-23T08:28:03.000Z</time>
      </trkpt>
      <trkpt lat="45.69769" lon="2.97802">
        <ele>963</ele>
        <time>2019-06-23T08:28:04.000Z</time>
      </trkpt>
      <trkpt lat="45.69766" lon="2.97813">
        <ele>965</ele>
        <time>2019-06-23T08:28:05.000Z</time>
      </trkpt>
      <trkpt lat="45.69765" lon="2.97823">
        <ele>966</ele>
        <time>2019-06-23T08:28:06.000Z</time>
      </trkpt>
      <trkpt lat="45.69762" lon="2.97833">
        <ele>967</ele>
        <time>2019-06-23T08:28:07.000Z</time>
      </trkpt>
      <trkpt lat="45.6976" lon="2.97842">
        <ele>967</ele>
        <time>2019-06-23T08:28:08.000Z</time>
      </trkpt>
      <trkpt lat="45.69757" lon="2.97849">
        <ele>966</ele>
        <time>2019-06-23T08:28:09.000Z</time>
      </trkpt>
      <trkpt lat="45.69756" lon="2.97855">
        <ele>967</ele>
        <time>2019-06-23T08:28:10.000Z</time>
      </trkpt>
      <trkpt lat="45.69754" lon="2.97861">
        <ele>967</ele>
        <time>2019-06-23T08:28:11.000Z</time>
      </trkpt>
      <trkpt lat="45.69752" lon="2.97867">
        <ele>967</ele>
        <time>2019-06-23T08:28:12.000Z</time>
      </trkpt>
      <trkpt lat="45.6975" lon="2.97874">
        <ele>967</ele>
        <time>2019-06-23T08:28:13.000Z</time>
      </trkpt>
      <trkpt lat="45.69747" lon="2.97882">
        <ele>969</ele>
        <time>2019-06-23T08:28:14.000Z</time>
      </trkpt>
      <trkpt lat="45.69743" lon="2.9789">
        <ele>970</ele>
        <time>2019-06-23T08:28:15.000Z</time>
      </trkpt>
      <trkpt lat="45.69741" lon="2.97897">
        <ele>970</ele>
        <time>2019-06-23T08:28:16.000Z</time>
      </trkpt>
      <trkpt lat="45.6974" lon="2.97904">
        <ele>971</ele>
        <time>2019-06-23T08:28:17.000Z</time>
      </trkpt>
      <trkpt lat="45.69743" lon="2.97915">
        <ele>968</ele>
        <time>2019-06-23T08:28:18.000Z</time>
      </trkpt>
      <trkpt lat="45.69742" lon="2.97925">
        <ele>967</ele>
        <time>2019-06-23T08:28:19.000Z</time>
      </trkpt>
      <trkpt lat="45.69738" lon="2.97937">
        <ele>965</ele>
        <time>2019-06-23T08:28:20.000Z</time>
      </trkpt>
      <trkpt lat="45.69736" lon="2.97948">
        <ele>963</ele>
        <time>2019-06-23T08:28:21.000Z</time>
      </trkpt>
      <trkpt lat="45.69735" lon="2.9796">
        <ele>960</ele>
        <time>2019-06-23T08:28:22.000Z</time>
      </trkpt>
      <trkpt lat="45.69732" lon="2.97971">
        <ele>961</ele>
        <time>2019-06-23T08:28:23.000Z</time>
      </trkpt>
      <trkpt lat="45.69729" lon="2.9798">
        <ele>961</ele>
        <time>2019-06-23T08:28:24.000Z</time>
      </trkpt>
      <trkpt lat="45.69726" lon="2.97988">
        <ele>962</ele>
        <time>2019-06-23T08:28:25.000Z</time>
      </trkpt>
      <trkpt lat="45.69723" lon="2.97996">
        <ele>962</ele>
        <time>2019-06-23T08:28:26.000Z</time>
      </trkpt>
      <trkpt lat="45.69722" lon="2.98003">
        <ele>961</ele>
        <time>2019-06-23T08:28:27.000Z</time>
      </trkpt>
      <trkpt lat="45.69721" lon="2.9801">
        <ele>962</ele>
        <time>2019-06-23T08:28:28.000Z</time>
      </trkpt>
      <trkpt lat="45.69717" lon="2.98019">
        <ele>961</ele>
        <time>2019-06-23T08:28:29.000Z</time>
      </trkpt>
      <trkpt lat="45.69715" lon="2.98027">
        <ele>963</ele>
        <time>2019-06-23T08:28:30.000Z</time>
      </trkpt>
      <trkpt lat="45.69714" lon="2.98035">
        <ele>963</ele>
        <time>2019-06-23T08:28:31.000Z</time>
      </trkpt>
      <trkpt lat="45.69712" lon="2.98044">
        <ele>962</ele>
        <time>2019-06-23T08:28:32.000Z</time>
      </trkpt>
      <trkpt lat="45.69711" lon="2.98052">
        <ele>961</ele>
        <time>2019-06-23T08:28:33.000Z</time>
      </trkpt>
      <trkpt lat="45.6971" lon="2.9806">
        <ele>960</ele>
        <time>2019-06-23T08:28:34.000Z</time>
      </trkpt>
      <trkpt lat="45.6971" lon="2.98068">
        <ele>960</ele>
        <time>2019-06-23T08:28:35.000Z</time>
      </trkpt>
      <trkpt lat="45.69709" lon="2.98075">
        <ele>959</ele>
        <time>2019-06-23T08:28:36.000Z</time>
      </trkpt>
      <trkpt lat="45.69707" lon="2.98082">
        <ele>959</ele>
        <time>2019-06-23T08:28:37.000Z</time>
      </trkpt>
      <trkpt lat="45.69706" lon="2.9809">
        <ele>959</ele>
        <time>2019-06-23T08:28:38.000Z</time>
      </trkpt>
      <trkpt lat="45.69707" lon="2.98098">
        <ele>959</ele>
        <time>2019-06-23T08:28:39.000Z</time>
      </trkpt>
      <trkpt lat="45.69704" lon="2.98107">
        <ele>959</ele>
        <time>2019-06-23T08:28:40.000Z</time>
      </trkpt>
      <trkpt lat="45.69703" lon="2.98115">
        <ele>958</ele>
        <time>2019-06-23T08:28:41.000Z</time>
      </trkpt>
      <trkpt lat="45.69703" lon="2.98123">
        <ele>957</ele>
        <time>2019-06-23T08:28:42.000Z</time>
      </trkpt>
      <trkpt lat="45.69705" lon="2.98128">
        <ele>957</ele>
        <time>2019-06-23T08:28:43.000Z</time>
      </trkpt>
      <trkpt lat="45.69704" lon="2.98135">
        <ele>956</ele>
        <time>2019-06-23T08:28:44.000Z</time>
      </trkpt>
      <trkpt lat="45.69702" lon="2.98143">
        <ele>955</ele>
        <time>2019-06-23T08:28:45.000Z</time>
      </trkpt>
      <trkpt lat="45.697" lon="2.98153">
        <ele>954</ele>
        <time>2019-06-23T08:28:46.000Z</time>
      </trkpt>
      <trkpt lat="45.69698" lon="2.98162">
        <ele>954</ele>
        <time>2019-06-23T08:28:47.000Z</time>
      </trkpt>
      <trkpt lat="45.69698" lon="2.98169">
        <ele>954</ele>
        <time>2019-06-23T08:28:48.000Z</time>
      </trkpt>
      <trkpt lat="45.69696" lon="2.98179">
        <ele>953</ele>
        <time>2019-06-23T08:28:49.000Z</time>
      </trkpt>
      <trkpt lat="45.69695" lon="2.98188">
        <ele>953</ele>
        <time>2019-06-23T08:28:50.000Z</time>
      </trkpt>
      <trkpt lat="45.6969" lon="2.98198">
        <ele>953</ele>
        <time>2019-06-23T08:28:51.000Z</time>
      </trkpt>
      <trkpt lat="45.69685" lon="2.98207">
        <ele>952</ele>
        <time>2019-06-23T08:28:52.000Z</time>
      </trkpt>
      <trkpt lat="45.69682" lon="2.98216">
        <ele>951</ele>
        <time>2019-06-23T08:28:53.000Z</time>
      </trkpt>
      <trkpt lat="45.6968" lon="2.98225">
        <ele>950</ele>
        <time>2019-06-23T08:28:54.000Z</time>
      </trkpt>
      <trkpt lat="45.69679" lon="2.98233">
        <ele>950</ele>
        <time>2019-06-23T08:28:55.000Z</time>
      </trkpt>
      <trkpt lat="45.69678" lon="2.98241">
        <ele>950</ele>
        <time>2019-06-23T08:28:56.000Z</time>
      </trkpt>
      <trkpt lat="45.69676" lon="2.98247">
        <ele>950</ele>
        <time>2019-06-23T08:28:57.000Z</time>
      </trkpt>
      <trkpt lat="45.69674" lon="2.98255">
        <ele>950</ele>
        <time>2019-06-23T08:28:58.000Z</time>
      </trkpt>
      <trkpt lat="45.69673" lon="2.98262">
        <ele>951</ele>
        <time>2019-06-23T08:28:59.000Z</time>
      </trkpt>
      <trkpt lat="45.6967" lon="2.9827">
        <ele>950</ele>
        <time>2019-06-23T08:29:00.000Z</time>
      </trkpt>
      <trkpt lat="45.69668" lon="2.98278">
        <ele>951</ele>
        <time>2019-06-23T08:29:01.000Z</time>
      </trkpt>
      <trkpt lat="45.69666" lon="2.98284">
        <ele>951</ele>
        <time>2019-06-23T08:29:02.000Z</time>
      </trkpt>
      <trkpt lat="45.69667" lon="2.98292">
        <ele>951</ele>
        <time>2019-06-23T08:29:03.000Z</time>
      </trkpt>
      <trkpt lat="45.69665" lon="2.98299">
        <ele>952</ele>
        <time>2019-06-23T08:29:04.000Z</time>
      </trkpt>
      <trkpt lat="45.69663" lon="2.98306">
        <ele>952</ele>
        <time>2019-06-23T08:29:05.000Z</time>
      </trkpt>
      <trkpt lat="45.69661" lon="2.98312">
        <ele>953</ele>
        <time>2019-06-23T08:29:06.000Z</time>
      </trkpt>
      <trkpt lat="45.6966" lon="2.98318">
        <ele>954</ele>
        <time>2019-06-23T08:29:07.000Z</time>
      </trkpt>
      <trkpt lat="45.69659" lon="2.98322">
        <ele>955</ele>
        <time>2019-06-23T08:29:08.000Z</time>
      </trkpt>
      <trkpt lat="45.69659" lon="2.98327">
        <ele>955</ele>
        <time>2019-06-23T08:29:09.000Z</time>
      </trkpt>
      <trkpt lat="45.69659" lon="2.98335">
        <ele>957</ele>
        <time>2019-06-23T08:29:10.000Z</time>
      </trkpt>
      <trkpt lat="45.6966" lon="2.98342">
        <ele>957</ele>
        <time>2019-06-23T08:29:11.000Z</time>
      </trkpt>
      <trkpt lat="45.6966" lon="2.9835">
        <ele>957</ele>
        <time>2019-06-23T08:29:12.000Z</time>
      </trkpt>
      <trkpt lat="45.6966" lon="2.98359">
        <ele>957</ele>
        <time>2019-06-23T08:29:13.000Z</time>
      </trkpt>
      <trkpt lat="45.69661" lon="2.98368">
        <ele>957</ele>
        <time>2019-06-23T08:29:14.000Z</time>
      </trkpt>
      <trkpt lat="45.69661" lon="2.98378">
        <ele>958</ele>
        <time>2019-06-23T08:29:15.000Z</time>
      </trkpt>
      <trkpt lat="45.69663" lon="2.9839">
        <ele>957</ele>
        <time>2019-06-23T08:29:16.000Z</time>
      </trkpt>
      <trkpt lat="45.69662" lon="2.98403">
        <ele>954</ele>
        <time>2019-06-23T08:29:17.000Z</time>
      </trkpt>
      <trkpt lat="45.69661" lon="2.98413">
        <ele>953</ele>
        <time>2019-06-23T08:29:18.000Z</time>
      </trkpt>
      <trkpt lat="45.6966" lon="2.98425">
        <ele>952</ele>
        <time>2019-06-23T08:29:19.000Z</time>
      </trkpt>
      <trkpt lat="45.69661" lon="2.98436">
        <ele>950</ele>
        <time>2019-06-23T08:29:20.000Z</time>
      </trkpt>
      <trkpt lat="45.69658" lon="2.98449">
        <ele>949</ele>
        <time>2019-06-23T08:29:21.000Z</time>
      </trkpt>
      <trkpt lat="45.69658" lon="2.98461">
        <ele>948</ele>
        <time>2019-06-23T08:29:22.000Z</time>
      </trkpt>
      <trkpt lat="45.69656" lon="2.98472">
        <ele>947</ele>
        <time>2019-06-23T08:29:23.000Z</time>
      </trkpt>
      <trkpt lat="45.69653" lon="2.98484">
        <ele>947</ele>
        <time>2019-06-23T08:29:24.000Z</time>
      </trkpt>
      <trkpt lat="45.69652" lon="2.98493">
        <ele>947</ele>
        <time>2019-06-23T08:29:25.000Z</time>
      </trkpt>
      <trkpt lat="45.69651" lon="2.98501">
        <ele>946</ele>
        <time>2019-06-23T08:29:26.000Z</time>
      </trkpt>
      <trkpt lat="45.69651" lon="2.98509">
        <ele>945</ele>
        <time>2019-06-23T08:29:27.000Z</time>
      </trkpt>
      <trkpt lat="45.6965" lon="2.98519">
        <ele>945</ele>
        <time>2019-06-23T08:29:28.000Z</time>
      </trkpt>
      <trkpt lat="45.69649" lon="2.98528">
        <ele>945</ele>
        <time>2019-06-23T08:29:29.000Z</time>
      </trkpt>
      <trkpt lat="45.69645" lon="2.98539">
        <ele>945</ele>
        <time>2019-06-23T08:29:30.000Z</time>
      </trkpt>
      <trkpt lat="45.6964" lon="2.98551">
        <ele>946</ele>
        <time>2019-06-23T08:29:31.000Z</time>
      </trkpt>
      <trkpt lat="45.69639" lon="2.98561">
        <ele>947</ele>
        <time>2019-06-23T08:29:32.000Z</time>
      </trkpt>
      <trkpt lat="45.69636" lon="2.98572">
        <ele>947</ele>
        <time>2019-06-23T08:29:33.000Z</time>
      </trkpt>
      <trkpt lat="45.69635" lon="2.98583">
        <ele>946</ele>
        <time>2019-06-23T08:29:34.000Z</time>
      </trkpt>
      <trkpt lat="45.69633" lon="2.98594">
        <ele>945</ele>
        <time>2019-06-23T08:29:35.000Z</time>
      </trkpt>
      <trkpt lat="45.69631" lon="2.98605">
        <ele>945</ele>
        <time>2019-06-23T08:29:36.000Z</time>
      </trkpt>
      <trkpt lat="45.69627" lon="2.98617">
        <ele>945</ele>
        <time>2019-06-23T08:29:37.000Z</time>
      </trkpt>
      <trkpt lat="45.69624" lon="2.98629">
        <ele>943</ele>
        <time>2019-06-23T08:29:38.000Z</time>
      </trkpt>
      <trkpt lat="45.69622" lon="2.98639">
        <ele>944</ele>
        <time>2019-06-23T08:29:39.000Z</time>
      </trkpt>
      <trkpt lat="45.69618" lon="2.98648">
        <ele>944</ele>
        <time>2019-06-23T08:29:40.000Z</time>
      </trkpt>
      <trkpt lat="45.69613" lon="2.98657">
        <ele>943</ele>
        <time>2019-06-23T08:29:41.000Z</time>
      </trkpt>
      <trkpt lat="45.6961" lon="2.98665">
        <ele>944</ele>
        <time>2019-06-23T08:29:42.000Z</time>
      </trkpt>
      <trkpt lat="45.69608" lon="2.98672">
        <ele>945</ele>
        <time>2019-06-23T08:29:43.000Z</time>
      </trkpt>
      <trkpt lat="45.69606" lon="2.98678">
        <ele>946</ele>
        <time>2019-06-23T08:29:44.000Z</time>
      </trkpt>
      <trkpt lat="45.69604" lon="2.98683">
        <ele>947</ele>
        <time>2019-06-23T08:29:45.000Z</time>
      </trkpt>
      <trkpt lat="45.69602" lon="2.98688">
        <ele>947</ele>
        <time>2019-06-23T08:29:46.000Z</time>
      </trkpt>
      <trkpt lat="45.69601" lon="2.98692">
        <ele>948</ele>
        <time>2019-06-23T08:29:47.000Z</time>
      </trkpt>
      <trkpt lat="45.696" lon="2.98696">
        <ele>948</ele>
        <time>2019-06-23T08:29:48.000Z</time>
      </trkpt>
      <trkpt lat="45.69598" lon="2.98701">
        <ele>948</ele>
        <time>2019-06-23T08:29:49.000Z</time>
      </trkpt>
      <trkpt lat="45.69597" lon="2.98706">
        <ele>949</ele>
        <time>2019-06-23T08:29:50.000Z</time>
      </trkpt>
      <trkpt lat="45.69595" lon="2.9871">
        <ele>949</ele>
        <time>2019-06-23T08:29:51.000Z</time>
      </trkpt>
      <trkpt lat="45.69594" lon="2.98715">
        <ele>949</ele>
        <time>2019-06-23T08:29:52.000Z</time>
      </trkpt>
      <trkpt lat="45.69592" lon="2.98721">
        <ele>948</ele>
        <time>2019-06-23T08:29:53.000Z</time>
      </trkpt>
      <trkpt lat="45.6959" lon="2.98728">
        <ele>948</ele>
        <time>2019-06-23T08:29:54.000Z</time>
      </trkpt>
      <trkpt lat="45.69588" lon="2.98735">
        <ele>948</ele>
        <time>2019-06-23T08:29:55.000Z</time>
      </trkpt>
      <trkpt lat="45.69586" lon="2.98742">
        <ele>948</ele>
        <time>2019-06-23T08:29:56.000Z</time>
      </trkpt>
      <trkpt lat="45.69584" lon="2.98749">
        <ele>948</ele>
        <time>2019-06-23T08:29:57.000Z</time>
      </trkpt>
      <trkpt lat="45.69582" lon="2.98756">
        <ele>948</ele>
        <time>2019-06-23T08:29:58.000Z</time>
      </trkpt>
      <trkpt lat="45.69581" lon="2.98762">
        <ele>949</ele>
        <time>2019-06-23T08:29:59.000Z</time>
      </trkpt>
      <trkpt lat="45.69579" lon="2.98769">
        <ele>948</ele>
        <time>2019-06-23T08:30:00.000Z</time>
      </trkpt>
      <trkpt lat="45.69576" lon="2.98778">
        <ele>947</ele>
        <time>2019-06-23T08:30:01.000Z</time>
      </trkpt>
      <trkpt lat="45.69575" lon="2.98787">
        <ele>947</ele>
        <time>2019-06-23T08:30:02.000Z</time>
      </trkpt>
      <trkpt lat="45.69574" lon="2.98795">
        <ele>947</ele>
        <time>2019-06-23T08:30:03.000Z</time>
      </trkpt>
      <trkpt lat="45.69574" lon="2.98803">
        <ele>947</ele>
        <time>2019-06-23T08:30:04.000Z</time>
      </trkpt>
      <trkpt lat="45.69574" lon="2.98811">
        <ele>947</ele>
        <time>2019-06-23T08:30:05.000Z</time>
      </trkpt>
      <trkpt lat="45.69572" lon="2.98818">
        <ele>948</ele>
        <time>2019-06-23T08:30:06.000Z</time>
      </trkpt>
      <trkpt lat="45.69569" lon="2.98827">
        <ele>948</ele>
        <time>2019-06-23T08:30:07.000Z</time>
      </trkpt>
      <trkpt lat="45.69567" lon="2.98836">
        <ele>949</ele>
        <time>2019-06-23T08:30:08.000Z</time>
      </trkpt>
      <trkpt lat="45.69564" lon="2.98843">
        <ele>950</ele>
        <time>2019-06-23T08:30:09.000Z</time>
      </trkpt>
      <trkpt lat="45.69561" lon="2.98853">
        <ele>949</ele>
        <time>2019-06-23T08:30:10.000Z</time>
      </trkpt>
      <trkpt lat="45.69558" lon="2.98859">
        <ele>950</ele>
        <time>2019-06-23T08:30:11.000Z</time>
      </trkpt>
      <trkpt lat="45.69554" lon="2.98865">
        <ele>950</ele>
        <time>2019-06-23T08:30:12.000Z</time>
      </trkpt>
      <trkpt lat="45.6955" lon="2.98873">
        <ele>949</ele>
        <time>2019-06-23T08:30:13.000Z</time>
      </trkpt>
      <trkpt lat="45.69547" lon="2.98881">
        <ele>949</ele>
        <time>2019-06-23T08:30:14.000Z</time>
      </trkpt>
      <trkpt lat="45.69544" lon="2.98891">
        <ele>950</ele>
        <time>2019-06-23T08:30:15.000Z</time>
      </trkpt>
      <trkpt lat="45.69541" lon="2.989">
        <ele>949</ele>
        <time>2019-06-23T08:30:16.000Z</time>
      </trkpt>
      <trkpt lat="45.69536" lon="2.98908">
        <ele>948</ele>
        <time>2019-06-23T08:30:17.000Z</time>
      </trkpt>
      <trkpt lat="45.69533" lon="2.98916">
        <ele>948</ele>
        <time>2019-06-23T08:30:18.000Z</time>
      </trkpt>
      <trkpt lat="45.69533" lon="2.98923">
        <ele>948</ele>
        <time>2019-06-23T08:30:19.000Z</time>
      </trkpt>
      <trkpt lat="45.69534" lon="2.9893">
        <ele>947</ele>
        <time>2019-06-23T08:30:20.000Z</time>
      </trkpt>
      <trkpt lat="45.69533" lon="2.98939">
        <ele>948</ele>
        <time>2019-06-23T08:30:21.000Z</time>
      </trkpt>
      <trkpt lat="45.69533" lon="2.98947">
        <ele>948</ele>
        <time>2019-06-23T08:30:22.000Z</time>
      </trkpt>
      <trkpt lat="45.69532" lon="2.98954">
        <ele>948</ele>
        <time>2019-06-23T08:30:23.000Z</time>
      </trkpt>
      <trkpt lat="45.69532" lon="2.98963">
        <ele>949</ele>
        <time>2019-06-23T08:30:24.000Z</time>
      </trkpt>
      <trkpt lat="45.69533" lon="2.98973">
        <ele>949</ele>
        <time>2019-06-23T08:30:25.000Z</time>
      </trkpt>
      <trkpt lat="45.69534" lon="2.98981">
        <ele>949</ele>
        <time>2019-06-23T08:30:26.000Z</time>
      </trkpt>
      <trkpt lat="45.69536" lon="2.98989">
        <ele>950</ele>
        <time>2019-06-23T08:30:27.000Z</time>
      </trkpt>
      <trkpt lat="45.69537" lon="2.98995">
        <ele>950</ele>
        <time>2019-06-23T08:30:28.000Z</time>
      </trkpt>
      <trkpt lat="45.69538" lon="2.99003">
        <ele>950</ele>
        <time>2019-06-23T08:30:29.000Z</time>
      </trkpt>
      <trkpt lat="45.69538" lon="2.9901">
        <ele>950</ele>
        <time>2019-06-23T08:30:30.000Z</time>
      </trkpt>
      <trkpt lat="45.69538" lon="2.99017">
        <ele>950</ele>
        <time>2019-06-23T08:30:31.000Z</time>
      </trkpt>
      <trkpt lat="45.69539" lon="2.99027">
        <ele>950</ele>
        <time>2019-06-23T08:30:32.000Z</time>
      </trkpt>
      <trkpt lat="45.69539" lon="2.99035">
        <ele>950</ele>
        <time>2019-06-23T08:30:33.000Z</time>
      </trkpt>
      <trkpt lat="45.6954" lon="2.99041">
        <ele>950</ele>
        <time>2019-06-23T08:30:34.000Z</time>
      </trkpt>
      <trkpt lat="45.69542" lon="2.9905">
        <ele>950</ele>
        <time>2019-06-23T08:30:35.000Z</time>
      </trkpt>
      <trkpt lat="45.69545" lon="2.99056">
        <ele>950</ele>
        <time>2019-06-23T08:30:36.000Z</time>
      </trkpt>
      <trkpt lat="45.69546" lon="2.99065">
        <ele>951</ele>
        <time>2019-06-23T08:30:37.000Z</time>
      </trkpt>
      <trkpt lat="45.69548" lon="2.99073">
        <ele>950</ele>
        <time>2019-06-23T08:30:38.000Z</time>
      </trkpt>
      <trkpt lat="45.69551" lon="2.99081">
        <ele>950</ele>
        <time>2019-06-23T08:30:39.000Z</time>
      </trkpt>
      <trkpt lat="45.69551" lon="2.99089">
        <ele>950</ele>
        <time>2019-06-23T08:30:40.000Z</time>
      </trkpt>
      <trkpt lat="45.69552" lon="2.99097">
        <ele>949</ele>
        <time>2019-06-23T08:30:41.000Z</time>
      </trkpt>
      <trkpt lat="45.69551" lon="2.99105">
        <ele>949</ele>
        <time>2019-06-23T08:30:42.000Z</time>
      </trkpt>
      <trkpt lat="45.69549" lon="2.99114">
        <ele>949</ele>
        <time>2019-06-23T08:30:43.000Z</time>
      </trkpt>
      <trkpt lat="45.69549" lon="2.9912">
        <ele>948</ele>
        <time>2019-06-23T08:30:44.000Z</time>
      </trkpt>
      <trkpt lat="45.69547" lon="2.99127">
        <ele>948</ele>
        <time>2019-06-23T08:30:45.000Z</time>
      </trkpt>
      <trkpt lat="45.69545" lon="2.99136">
        <ele>948</ele>
        <time>2019-06-23T08:30:46.000Z</time>
      </trkpt>
      <trkpt lat="45.69544" lon="2.99147">
        <ele>948</ele>
        <time>2019-06-23T08:30:47.000Z</time>
      </trkpt>
      <trkpt lat="45.69544" lon="2.99156">
        <ele>947</ele>
        <time>2019-06-23T08:30:48.000Z</time>
      </trkpt>
      <trkpt lat="45.6954" lon="2.99166">
        <ele>947</ele>
        <time>2019-06-23T08:30:49.000Z</time>
      </trkpt>
      <trkpt lat="45.69538" lon="2.99174">
        <ele>946</ele>
        <time>2019-06-23T08:30:50.000Z</time>
      </trkpt>
      <trkpt lat="45.69538" lon="2.99182">
        <ele>946</ele>
        <time>2019-06-23T08:30:51.000Z</time>
      </trkpt>
      <trkpt lat="45.69537" lon="2.9919">
        <ele>946</ele>
        <time>2019-06-23T08:30:52.000Z</time>
      </trkpt>
      <trkpt lat="45.69536" lon="2.992">
        <ele>945</ele>
        <time>2019-06-23T08:30:53.000Z</time>
      </trkpt>
      <trkpt lat="45.69533" lon="2.9921">
        <ele>944</ele>
        <time>2019-06-23T08:30:54.000Z</time>
      </trkpt>
      <trkpt lat="45.69531" lon="2.99219">
        <ele>943</ele>
        <time>2019-06-23T08:30:55.000Z</time>
      </trkpt>
      <trkpt lat="45.69527" lon="2.99229">
        <ele>943</ele>
        <time>2019-06-23T08:30:56.000Z</time>
      </trkpt>
      <trkpt lat="45.69524" lon="2.99243">
        <ele>941</ele>
        <time>2019-06-23T08:30:57.000Z</time>
      </trkpt>
      <trkpt lat="45.69522" lon="2.99254">
        <ele>941</ele>
        <time>2019-06-23T08:30:58.000Z</time>
      </trkpt>
      <trkpt lat="45.69519" lon="2.99265">
        <ele>940</ele>
        <time>2019-06-23T08:30:59.000Z</time>
      </trkpt>
      <trkpt lat="45.69515" lon="2.99274">
        <ele>940</ele>
        <time>2019-06-23T08:31:00.000Z</time>
      </trkpt>
      <trkpt lat="45.69513" lon="2.99284">
        <ele>939</ele>
        <time>2019-06-23T08:31:01.000Z</time>
      </trkpt>
      <trkpt lat="45.69509" lon="2.99296">
        <ele>938</ele>
        <time>2019-06-23T08:31:02.000Z</time>
      </trkpt>
      <trkpt lat="45.69505" lon="2.99307">
        <ele>937</ele>
        <time>2019-06-23T08:31:03.000Z</time>
      </trkpt>
      <trkpt lat="45.69502" lon="2.99314">
        <ele>937</ele>
        <time>2019-06-23T08:31:04.000Z</time>
      </trkpt>
      <trkpt lat="45.69498" lon="2.9932">
        <ele>936</ele>
        <time>2019-06-23T08:31:05.000Z</time>
      </trkpt>
      <trkpt lat="45.69495" lon="2.99327">
        <ele>935</ele>
        <time>2019-06-23T08:31:06.000Z</time>
      </trkpt>
      <trkpt lat="45.6949" lon="2.99335">
        <ele>935</ele>
        <time>2019-06-23T08:31:07.000Z</time>
      </trkpt>
      <trkpt lat="45.69485" lon="2.99342">
        <ele>933</ele>
        <time>2019-06-23T08:31:08.000Z</time>
      </trkpt>
      <trkpt lat="45.69483" lon="2.99349">
        <ele>932</ele>
        <time>2019-06-23T08:31:09.000Z</time>
      </trkpt>
      <trkpt lat="45.69482" lon="2.99355">
        <ele>932</ele>
        <time>2019-06-23T08:31:10.000Z</time>
      </trkpt>
      <trkpt lat="45.69477" lon="2.9936">
        <ele>931</ele>
        <time>2019-06-23T08:31:11.000Z</time>
      </trkpt>
      <trkpt lat="45.69468" lon="2.99367">
        <ele>929</ele>
        <time>2019-06-23T08:31:12.000Z</time>
      </trkpt>
      <trkpt lat="45.69462" lon="2.99372">
        <ele>929</ele>
        <time>2019-06-23T08:31:13.000Z</time>
      </trkpt>
      <trkpt lat="45.69457" lon="2.99379">
        <ele>928</ele>
        <time>2019-06-23T08:31:14.000Z</time>
      </trkpt>
      <trkpt lat="45.69448" lon="2.99385">
        <ele>927</ele>
        <time>2019-06-23T08:31:15.000Z</time>
      </trkpt>
      <trkpt lat="45.69444" lon="2.99392">
        <ele>927</ele>
        <time>2019-06-23T08:31:16.000Z</time>
      </trkpt>
      <trkpt lat="45.69441" lon="2.99398">
        <ele>927</ele>
        <time>2019-06-23T08:31:17.000Z</time>
      </trkpt>
      <trkpt lat="45.69439" lon="2.99406">
        <ele>926</ele>
        <time>2019-06-23T08:31:18.000Z</time>
      </trkpt>
      <trkpt lat="45.69435" lon="2.99417">
        <ele>926</ele>
        <time>2019-06-23T08:31:19.000Z</time>
      </trkpt>
      <trkpt lat="45.69434" lon="2.99427">
        <ele>925</ele>
        <time>2019-06-23T08:31:20.000Z</time>
      </trkpt>
      <trkpt lat="45.69436" lon="2.99437">
        <ele>925</ele>
        <time>2019-06-23T08:31:21.000Z</time>
      </trkpt>
      <trkpt lat="45.69435" lon="2.99448">
        <ele>925</ele>
        <time>2019-06-23T08:31:22.000Z</time>
      </trkpt>
      <trkpt lat="45.69433" lon="2.99464">
        <ele>922</ele>
        <time>2019-06-23T08:31:23.000Z</time>
      </trkpt>
      <trkpt lat="45.69431" lon="2.99479">
        <ele>919</ele>
        <time>2019-06-23T08:31:24.000Z</time>
      </trkpt>
      <trkpt lat="45.69429" lon="2.99489">
        <ele>919</ele>
        <time>2019-06-23T08:31:25.000Z</time>
      </trkpt>
      <trkpt lat="45.69429" lon="2.99499">
        <ele>920</ele>
        <time>2019-06-23T08:31:26.000Z</time>
      </trkpt>
      <trkpt lat="45.69428" lon="2.99508">
        <ele>922</ele>
        <time>2019-06-23T08:31:27.000Z</time>
      </trkpt>
      <trkpt lat="45.69426" lon="2.99516">
        <ele>923</ele>
        <time>2019-06-23T08:31:28.000Z</time>
      </trkpt>
      <trkpt lat="45.69421" lon="2.99525">
        <ele>921</ele>
        <time>2019-06-23T08:31:29.000Z</time>
      </trkpt>
      <trkpt lat="45.69417" lon="2.99532">
        <ele>921</ele>
        <time>2019-06-23T08:31:30.000Z</time>
      </trkpt>
      <trkpt lat="45.69415" lon="2.99539">
        <ele>920</ele>
        <time>2019-06-23T08:31:31.000Z</time>
      </trkpt>
      <trkpt lat="45.69412" lon="2.99546">
        <ele>920</ele>
        <time>2019-06-23T08:31:32.000Z</time>
      </trkpt>
      <trkpt lat="45.69408" lon="2.99552">
        <ele>921</ele>
        <time>2019-06-23T08:31:33.000Z</time>
      </trkpt>
      <trkpt lat="45.69406" lon="2.99557">
        <ele>922</ele>
        <time>2019-06-23T08:31:34.000Z</time>
      </trkpt>
      <trkpt lat="45.69403" lon="2.9956">
        <ele>922</ele>
        <time>2019-06-23T08:31:35.000Z</time>
      </trkpt>
      <trkpt lat="45.694" lon="2.99561">
        <ele>922</ele>
        <time>2019-06-23T08:31:36.000Z</time>
      </trkpt>
      <trkpt lat="45.69398" lon="2.99561">
        <ele>923</ele>
        <time>2019-06-23T08:31:37.000Z</time>
      </trkpt>
      <trkpt lat="45.69397" lon="2.99561">
        <ele>923</ele>
        <time>2019-06-23T08:31:38.000Z</time>
      </trkpt>
      <trkpt lat="45.69394" lon="2.99574">
        <ele>921</ele>
        <time>2019-06-23T08:31:39.000Z</time>
      </trkpt>
      <trkpt lat="45.69394" lon="2.99576">
        <ele>920</ele>
        <time>2019-06-23T08:31:40.000Z</time>
      </trkpt>
      <trkpt lat="45.69395" lon="2.99577">
        <ele>920</ele>
        <time>2019-06-23T08:31:41.000Z</time>
      </trkpt>
      <trkpt lat="45.69396" lon="2.99577">
        <ele>920</ele>
        <time>2019-06-23T08:31:42.000Z</time>
      </trkpt>
      <trkpt lat="45.69397" lon="2.99577">
        <ele>920</ele>
        <time>2019-06-23T08:31:43.000Z</time>
      </trkpt>
      <trkpt lat="45.69398" lon="2.99576">
        <ele>920</ele>
        <time>2019-06-23T08:31:44.000Z</time>
      </trkpt>
      <trkpt lat="45.69399" lon="2.99576">
        <ele>920</ele>
        <time>2019-06-23T08:31:45.000Z</time>
      </trkpt>
      <trkpt lat="45.69399" lon="2.99575">
        <ele>919</ele>
        <time>2019-06-23T08:31:46.000Z</time>
      </trkpt>
      <trkpt lat="45.69399" lon="2.99575">
        <ele>919</ele>
        <time>2019-06-23T08:31:47.000Z</time>
      </trkpt>
      <trkpt lat="45.69401" lon="2.99574">
        <ele>916</ele>
        <time>2019-06-23T08:31:48.000Z</time>
      </trkpt>
      <trkpt lat="45.69401" lon="2.99572">
        <ele>917</ele>
        <time>2019-06-23T08:31:49.000Z</time>
      </trkpt>
      <trkpt lat="45.69401" lon="2.99569">
        <ele>917</ele>
        <time>2019-06-23T08:31:50.000Z</time>
      </trkpt>
      <trkpt lat="45.69401" lon="2.99566">
        <ele>917</ele>
        <time>2019-06-23T08:31:51.000Z</time>
      </trkpt>
      <trkpt lat="45.69401" lon="2.99561">
        <ele>918</ele>
        <time>2019-06-23T08:31:52.000Z</time>
      </trkpt>
      <trkpt lat="45.69399" lon="2.99557">
        <ele>917</ele>
        <time>2019-06-23T08:31:53.000Z</time>
      </trkpt>
      <trkpt lat="45.69396" lon="2.99553">
        <ele>917</ele>
        <time>2019-06-23T08:31:54.000Z</time>
      </trkpt>
      <trkpt lat="45.69394" lon="2.99549">
        <ele>916</ele>
        <time>2019-06-23T08:31:55.000Z</time>
      </trkpt>
      <trkpt lat="45.6939" lon="2.99545">
        <ele>916</ele>
        <time>2019-06-23T08:31:56.000Z</time>
      </trkpt>
      <trkpt lat="45.69388" lon="2.99539">
        <ele>917</ele>
        <time>2019-06-23T08:31:57.000Z</time>
      </trkpt>
      <trkpt lat="45.69385" lon="2.99533">
        <ele>917</ele>
        <time>2019-06-23T08:31:58.000Z</time>
      </trkpt>
      <trkpt lat="45.69381" lon="2.99527">
        <ele>917</ele>
        <time>2019-06-23T08:31:59.000Z</time>
      </trkpt>
      <trkpt lat="45.69378" lon="2.99522">
        <ele>917</ele>
        <time>2019-06-23T08:32:00.000Z</time>
      </trkpt>
      <trkpt lat="45.69375" lon="2.99516">
        <ele>917</ele>
        <time>2019-06-23T08:32:01.000Z</time>
      </trkpt>
      <trkpt lat="45.69373" lon="2.99511">
        <ele>917</ele>
        <time>2019-06-23T08:32:02.000Z</time>
      </trkpt>
      <trkpt lat="45.69371" lon="2.99506">
        <ele>918</ele>
        <time>2019-06-23T08:32:03.000Z</time>
      </trkpt>
      <trkpt lat="45.69369" lon="2.99502">
        <ele>918</ele>
        <time>2019-06-23T08:32:04.000Z</time>
      </trkpt>
      <trkpt lat="45.69367" lon="2.99498">
        <ele>918</ele>
        <time>2019-06-23T08:32:05.000Z</time>
      </trkpt>
      <trkpt lat="45.69364" lon="2.99494">
        <ele>918</ele>
        <time>2019-06-23T08:32:06.000Z</time>
      </trkpt>
      <trkpt lat="45.69362" lon="2.9949">
        <ele>918</ele>
        <time>2019-06-23T08:32:07.000Z</time>
      </trkpt>
      <trkpt lat="45.69359" lon="2.99487">
        <ele>918</ele>
        <time>2019-06-23T08:32:08.000Z</time>
      </trkpt>
      <trkpt lat="45.69357" lon="2.99483">
        <ele>918</ele>
        <time>2019-06-23T08:32:09.000Z</time>
      </trkpt>
      <trkpt lat="45.69355" lon="2.99479">
        <ele>918</ele>
        <time>2019-06-23T08:32:10.000Z</time>
      </trkpt>
      <trkpt lat="45.69352" lon="2.99476">
        <ele>918</ele>
        <time>2019-06-23T08:32:11.000Z</time>
      </trkpt>
      <trkpt lat="45.6935" lon="2.99473">
        <ele>918</ele>
        <time>2019-06-23T08:32:12.000Z</time>
      </trkpt>
      <trkpt lat="45.69347" lon="2.9947">
        <ele>918</ele>
        <time>2019-06-23T08:32:13.000Z</time>
      </trkpt>
      <trkpt lat="45.69344" lon="2.99468">
        <ele>918</ele>
        <time>2019-06-23T08:32:14.000Z</time>
      </trkpt>
      <trkpt lat="45.69341" lon="2.99465">
        <ele>918</ele>
        <time>2019-06-23T08:32:15.000Z</time>
      </trkpt>
      <trkpt lat="45.69338" lon="2.99463">
        <ele>918</ele>
        <time>2019-06-23T08:32:16.000Z</time>
      </trkpt>
      <trkpt lat="45.69335" lon="2.99461">
        <ele>918</ele>
        <time>2019-06-23T08:32:17.000Z</time>
      </trkpt>
      <trkpt lat="45.69331" lon="2.99459">
        <ele>918</ele>
        <time>2019-06-23T08:32:18.000Z</time>
      </trkpt>
      <trkpt lat="45.69327" lon="2.99457">
        <ele>918</ele>
        <time>2019-06-23T08:32:19.000Z</time>
      </trkpt>
      <trkpt lat="45.69324" lon="2.99455">
        <ele>918</ele>
        <time>2019-06-23T08:32:20.000Z</time>
      </trkpt>
      <trkpt lat="45.6932" lon="2.99452">
        <ele>918</ele>
        <time>2019-06-23T08:32:21.000Z</time>
      </trkpt>
      <trkpt lat="45.69317" lon="2.9945">
        <ele>919</ele>
        <time>2019-06-23T08:32:22.000Z</time>
      </trkpt>
      <trkpt lat="45.69313" lon="2.99447">
        <ele>919</ele>
        <time>2019-06-23T08:32:23.000Z</time>
      </trkpt>
      <trkpt lat="45.6931" lon="2.99444">
        <ele>919</ele>
        <time>2019-06-23T08:32:24.000Z</time>
      </trkpt>
      <trkpt lat="45.69307" lon="2.9944">
        <ele>919</ele>
        <time>2019-06-23T08:32:25.000Z</time>
      </trkpt>
      <trkpt lat="45.69304" lon="2.99437">
        <ele>919</ele>
        <time>2019-06-23T08:32:26.000Z</time>
      </trkpt>
      <trkpt lat="45.69301" lon="2.99434">
        <ele>919</ele>
        <time>2019-06-23T08:32:27.000Z</time>
      </trkpt>
      <trkpt lat="45.69299" lon="2.9943">
        <ele>919</ele>
        <time>2019-06-23T08:32:28.000Z</time>
      </trkpt>
      <trkpt lat="45.69297" lon="2.99425">
        <ele>919</ele>
        <time>2019-06-23T08:32:29.000Z</time>
      </trkpt>
      <trkpt lat="45.69294" lon="2.99421">
        <ele>919</ele>
        <time>2019-06-23T08:32:30.000Z</time>
      </trkpt>
      <trkpt lat="45.69291" lon="2.99417">
        <ele>920</ele>
        <time>2019-06-23T08:32:31.000Z</time>
      </trkpt>
      <trkpt lat="45.69288" lon="2.99413">
        <ele>919</ele>
        <time>2019-06-23T08:32:32.000Z</time>
      </trkpt>
      <trkpt lat="45.69285" lon="2.99409">
        <ele>919</ele>
        <time>2019-06-23T08:32:33.000Z</time>
      </trkpt>
      <trkpt lat="45.69282" lon="2.99404">
        <ele>919</ele>
        <time>2019-06-23T08:32:34.000Z</time>
      </trkpt>
      <trkpt lat="45.6928" lon="2.99399">
        <ele>919</ele>
        <time>2019-06-23T08:32:35.000Z</time>
      </trkpt>
      <trkpt lat="45.69278" lon="2.99394">
        <ele>919</ele>
        <time>2019-06-23T08:32:36.000Z</time>
      </trkpt>
      <trkpt lat="45.69276" lon="2.99389">
        <ele>920</ele>
        <time>2019-06-23T08:32:37.000Z</time>
      </trkpt>
      <trkpt lat="45.69273" lon="2.99384">
        <ele>920</ele>
        <time>2019-06-23T08:32:38.000Z</time>
      </trkpt>
      <trkpt lat="45.6927" lon="2.9938">
        <ele>920</ele>
        <time>2019-06-23T08:32:39.000Z</time>
      </trkpt>
      <trkpt lat="45.69268" lon="2.99376">
        <ele>920</ele>
        <time>2019-06-23T08:32:40.000Z</time>
      </trkpt>
      <trkpt lat="45.69265" lon="2.99372">
        <ele>920</ele>
        <time>2019-06-23T08:32:41.000Z</time>
      </trkpt>
      <trkpt lat="45.69263" lon="2.99368">
        <ele>921</ele>
        <time>2019-06-23T08:32:42.000Z</time>
      </trkpt>
      <trkpt lat="45.69261" lon="2.99364">
        <ele>921</ele>
        <time>2019-06-23T08:32:43.000Z</time>
      </trkpt>
      <trkpt lat="45.69259" lon="2.9936">
        <ele>921</ele>
        <time>2019-06-23T08:32:44.000Z</time>
      </trkpt>
      <trkpt lat="45.69257" lon="2.99356">
        <ele>921</ele>
        <time>2019-06-23T08:32:45.000Z</time>
      </trkpt>
      <trkpt lat="45.69255" lon="2.99352">
        <ele>922</ele>
        <time>2019-06-23T08:32:46.000Z</time>
      </trkpt>
      <trkpt lat="45.69253" lon="2.99347">
        <ele>922</ele>
        <time>2019-06-23T08:32:47.000Z</time>
      </trkpt>
      <trkpt lat="45.69251" lon="2.99343">
        <ele>922</ele>
        <time>2019-06-23T08:32:48.000Z</time>
      </trkpt>
      <trkpt lat="45.69249" lon="2.99339">
        <ele>922</ele>
        <time>2019-06-23T08:32:49.000Z</time>
      </trkpt>
      <trkpt lat="45.69247" lon="2.99334">
        <ele>922</ele>
        <time>2019-06-23T08:32:50.000Z</time>
      </trkpt>
      <trkpt lat="45.69245" lon="2.9933">
        <ele>922</ele>
        <time>2019-06-23T08:32:51.000Z</time>
      </trkpt>
      <trkpt lat="45.69243" lon="2.99325">
        <ele>922</ele>
        <time>2019-06-23T08:32:52.000Z</time>
      </trkpt>
      <trkpt lat="45.69241" lon="2.99321">
        <ele>922</ele>
        <time>2019-06-23T08:32:53.000Z</time>
      </trkpt>
      <trkpt lat="45.69239" lon="2.99316">
        <ele>922</ele>
        <time>2019-06-23T08:32:54.000Z</time>
      </trkpt>
      <trkpt lat="45.69237" lon="2.99311">
        <ele>922</ele>
        <time>2019-06-23T08:32:55.000Z</time>
      </trkpt>
      <trkpt lat="45.69235" lon="2.99306">
        <ele>922</ele>
        <time>2019-06-23T08:32:56.000Z</time>
      </trkpt>
      <trkpt lat="45.69233" lon="2.99301">
        <ele>922</ele>
        <time>2019-06-23T08:32:57.000Z</time>
      </trkpt>
      <trkpt lat="45.69231" lon="2.99295">
        <ele>922</ele>
        <time>2019-06-23T08:32:58.000Z</time>
      </trkpt>
      <trkpt lat="45.69228" lon="2.9929">
        <ele>922</ele>
        <time>2019-06-23T08:32:59.000Z</time>
      </trkpt>
      <trkpt lat="45.69225" lon="2.99284">
        <ele>922</ele>
        <time>2019-06-23T08:33:00.000Z</time>
      </trkpt>
      <trkpt lat="45.69222" lon="2.99278">
        <ele>922</ele>
        <time>2019-06-23T08:33:01.000Z</time>
      </trkpt>
      <trkpt lat="45.6922" lon="2.99271">
        <ele>921</ele>
        <time>2019-06-23T08:33:02.000Z</time>
      </trkpt>
      <trkpt lat="45.69217" lon="2.99265">
        <ele>921</ele>
        <time>2019-06-23T08:33:03.000Z</time>
      </trkpt>
      <trkpt lat="45.69215" lon="2.99258">
        <ele>921</ele>
        <time>2019-06-23T08:33:04.000Z</time>
      </trkpt>
      <trkpt lat="45.69212" lon="2.99251">
        <ele>921</ele>
        <time>2019-06-23T08:33:05.000Z</time>
      </trkpt>
      <trkpt lat="45.6921" lon="2.99244">
        <ele>921</ele>
        <time>2019-06-23T08:33:06.000Z</time>
      </trkpt>
      <trkpt lat="45.69208" lon="2.99238">
        <ele>921</ele>
        <time>2019-06-23T08:33:07.000Z</time>
      </trkpt>
      <trkpt lat="45.69207" lon="2.99231">
        <ele>922</ele>
        <time>2019-06-23T08:33:08.000Z</time>
      </trkpt>
      <trkpt lat="45.69205" lon="2.99224">
        <ele>922</ele>
        <time>2019-06-23T08:33:09.000Z</time>
      </trkpt>
      <trkpt lat="45.69204" lon="2.99216">
        <ele>922</ele>
        <time>2019-06-23T08:33:10.000Z</time>
      </trkpt>
      <trkpt lat="45.69203" lon="2.99209">
        <ele>922</ele>
        <time>2019-06-23T08:33:11.000Z</time>
      </trkpt>
      <trkpt lat="45.69202" lon="2.99201">
        <ele>922</ele>
        <time>2019-06-23T08:33:12.000Z</time>
      </trkpt>
      <trkpt lat="45.69201" lon="2.99193">
        <ele>922</ele>
        <time>2019-06-23T08:33:13.000Z</time>
      </trkpt>
      <trkpt lat="45.69201" lon="2.99185">
        <ele>922</ele>
        <time>2019-06-23T08:33:14.000Z</time>
      </trkpt>
      <trkpt lat="45.692" lon="2.99177">
        <ele>922</ele>
        <time>2019-06-23T08:33:15.000Z</time>
      </trkpt>
      <trkpt lat="45.692" lon="2.99169">
        <ele>921</ele>
        <time>2019-06-23T08:33:16.000Z</time>
      </trkpt>
      <trkpt lat="45.69199" lon="2.9916">
        <ele>921</ele>
        <time>2019-06-23T08:33:17.000Z</time>
      </trkpt>
      <trkpt lat="45.69199" lon="2.99152">
        <ele>921</ele>
        <time>2019-06-23T08:33:18.000Z</time>
      </trkpt>
      <trkpt lat="45.69198" lon="2.99144">
        <ele>922</ele>
        <time>2019-06-23T08:33:19.000Z</time>
      </trkpt>
      <trkpt lat="45.69198" lon="2.99136">
        <ele>922</ele>
        <time>2019-06-23T08:33:20.000Z</time>
      </trkpt>
      <trkpt lat="45.69197" lon="2.99128">
        <ele>922</ele>
        <time>2019-06-23T08:33:21.000Z</time>
      </trkpt>
      <trkpt lat="45.69196" lon="2.99119">
        <ele>922</ele>
        <time>2019-06-23T08:33:22.000Z</time>
      </trkpt>
      <trkpt lat="45.69195" lon="2.99111">
        <ele>922</ele>
        <time>2019-06-23T08:33:23.000Z</time>
      </trkpt>
      <trkpt lat="45.69193" lon="2.99103">
        <ele>922</ele>
        <time>2019-06-23T08:33:24.000Z</time>
      </trkpt>
      <trkpt lat="45.69192" lon="2.99095">
        <ele>923</ele>
        <time>2019-06-23T08:33:25.000Z</time>
      </trkpt>
      <trkpt lat="45.69189" lon="2.99088">
        <ele>922</ele>
        <time>2019-06-23T08:33:26.000Z</time>
      </trkpt>
      <trkpt lat="45.69187" lon="2.99081">
        <ele>922</ele>
        <time>2019-06-23T08:33:27.000Z</time>
      </trkpt>
      <trkpt lat="45.69184" lon="2.99074">
        <ele>922</ele>
        <time>2019-06-23T08:33:28.000Z</time>
      </trkpt>
      <trkpt lat="45.69181" lon="2.99068">
        <ele>921</ele>
        <time>2019-06-23T08:33:29.000Z</time>
      </trkpt>
      <trkpt lat="45.69181" lon="2.99062">
        <ele>922</ele>
        <time>2019-06-23T08:33:30.000Z</time>
      </trkpt>
      <trkpt lat="45.69182" lon="2.99057">
        <ele>923</ele>
        <time>2019-06-23T08:33:31.000Z</time>
      </trkpt>
      <trkpt lat="45.69184" lon="2.99054">
        <ele>924</ele>
        <time>2019-06-23T08:33:32.000Z</time>
      </trkpt>
      <trkpt lat="45.69185" lon="2.99052">
        <ele>923</ele>
        <time>2019-06-23T08:33:33.000Z</time>
      </trkpt>
      <trkpt lat="45.69186" lon="2.9905">
        <ele>923</ele>
        <time>2019-06-23T08:33:34.000Z</time>
      </trkpt>
      <trkpt lat="45.69188" lon="2.99047">
        <ele>923</ele>
        <time>2019-06-23T08:33:35.000Z</time>
      </trkpt>
      <trkpt lat="45.6919" lon="2.99045">
        <ele>923</ele>
        <time>2019-06-23T08:33:36.000Z</time>
      </trkpt>
      <trkpt lat="45.69192" lon="2.99043">
        <ele>923</ele>
        <time>2019-06-23T08:33:37.000Z</time>
      </trkpt>
      <trkpt lat="45.69193" lon="2.99041">
        <ele>923</ele>
        <time>2019-06-23T08:33:38.000Z</time>
      </trkpt>
      <trkpt lat="45.69195" lon="2.99039">
        <ele>923</ele>
        <time>2019-06-23T08:33:39.000Z</time>
      </trkpt>
      <trkpt lat="45.69197" lon="2.99037">
        <ele>924</ele>
        <time>2019-06-23T08:33:40.000Z</time>
      </trkpt>
      <trkpt lat="45.69199" lon="2.99035">
        <ele>924</ele>
        <time>2019-06-23T08:33:41.000Z</time>
      </trkpt>
      <trkpt lat="45.69201" lon="2.99032">
        <ele>925</ele>
        <time>2019-06-23T08:33:42.000Z</time>
      </trkpt>
      <trkpt lat="45.69203" lon="2.99029">
        <ele>925</ele>
        <time>2019-06-23T08:33:43.000Z</time>
      </trkpt>
      <trkpt lat="45.69205" lon="2.99026">
        <ele>926</ele>
        <time>2019-06-23T08:33:44.000Z</time>
      </trkpt>
      <trkpt lat="45.69206" lon="2.99023">
        <ele>926</ele>
        <time>2019-06-23T08:33:45.000Z</time>
      </trkpt>
      <trkpt lat="45.69208" lon="2.9902">
        <ele>926</ele>
        <time>2019-06-23T08:33:46.000Z</time>
      </trkpt>
      <trkpt lat="45.69208" lon="2.99016">
        <ele>927</ele>
        <time>2019-06-23T08:33:47.000Z</time>
      </trkpt>
      <trkpt lat="45.69209" lon="2.99013">
        <ele>927</ele>
        <time>2019-06-23T08:33:48.000Z</time>
      </trkpt>
      <trkpt lat="45.6921" lon="2.99009">
        <ele>927</ele>
        <time>2019-06-23T08:33:49.000Z</time>
      </trkpt>
      <trkpt lat="45.69211" lon="2.99004">
        <ele>927</ele>
        <time>2019-06-23T08:33:50.000Z</time>
      </trkpt>
      <trkpt lat="45.69212" lon="2.99">
        <ele>927</ele>
        <time>2019-06-23T08:33:51.000Z</time>
      </trkpt>
      <trkpt lat="45.69213" lon="2.98995">
        <ele>927</ele>
        <time>2019-06-23T08:33:52.000Z</time>
      </trkpt>
      <trkpt lat="45.69214" lon="2.98991">
        <ele>927</ele>
        <time>2019-06-23T08:33:53.000Z</time>
      </trkpt>
      <trkpt lat="45.69215" lon="2.98986">
        <ele>927</ele>
        <time>2019-06-23T08:33:54.000Z</time>
      </trkpt>
      <trkpt lat="45.69216" lon="2.98982">
        <ele>927</ele>
        <time>2019-06-23T08:33:55.000Z</time>
      </trkpt>
      <trkpt lat="45.69218" lon="2.98978">
        <ele>927</ele>
        <time>2019-06-23T08:33:56.000Z</time>
      </trkpt>
      <trkpt lat="45.6922" lon="2.98974">
        <ele>927</ele>
        <time>2019-06-23T08:33:57.000Z</time>
      </trkpt>
      <trkpt lat="45.69222" lon="2.9897">
        <ele>927</ele>
        <time>2019-06-23T08:33:58.000Z</time>
      </trkpt>
      <trkpt lat="45.69224" lon="2.98967">
        <ele>927</ele>
        <time>2019-06-23T08:33:59.000Z</time>
      </trkpt>
      <trkpt lat="45.69226" lon="2.98963">
        <ele>928</ele>
        <time>2019-06-23T08:34:00.000Z</time>
      </trkpt>
      <trkpt lat="45.69228" lon="2.9896">
        <ele>928</ele>
        <time>2019-06-23T08:34:01.000Z</time>
      </trkpt>
      <trkpt lat="45.69231" lon="2.98957">
        <ele>929</ele>
        <time>2019-06-23T08:34:02.000Z</time>
      </trkpt>
      <trkpt lat="45.69234" lon="2.98955">
        <ele>929</ele>
        <time>2019-06-23T08:34:03.000Z</time>
      </trkpt>
      <trkpt lat="45.69236" lon="2.98953">
        <ele>929</ele>
        <time>2019-06-23T08:34:04.000Z</time>
      </trkpt>
      <trkpt lat="45.69239" lon="2.9895">
        <ele>929</ele>
        <time>2019-06-23T08:34:05.000Z</time>
      </trkpt>
      <trkpt lat="45.69242" lon="2.98948">
        <ele>930</ele>
        <time>2019-06-23T08:34:06.000Z</time>
      </trkpt>
      <trkpt lat="45.69244" lon="2.98945">
        <ele>930</ele>
        <time>2019-06-23T08:34:07.000Z</time>
      </trkpt>
      <trkpt lat="45.69247" lon="2.98943">
        <ele>930</ele>
        <time>2019-06-23T08:34:08.000Z</time>
      </trkpt>
      <trkpt lat="45.69249" lon="2.9894">
        <ele>930</ele>
        <time>2019-06-23T08:34:09.000Z</time>
      </trkpt>
      <trkpt lat="45.6925" lon="2.98937">
        <ele>930</ele>
        <time>2019-06-23T08:34:10.000Z</time>
      </trkpt>
      <trkpt lat="45.69252" lon="2.98933">
        <ele>930</ele>
        <time>2019-06-23T08:34:11.000Z</time>
      </trkpt>
      <trkpt lat="45.69251" lon="2.98927">
        <ele>932</ele>
        <time>2019-06-23T08:34:12.000Z</time>
      </trkpt>
      <trkpt lat="45.6925" lon="2.98921">
        <ele>931</ele>
        <time>2019-06-23T08:34:13.000Z</time>
      </trkpt>
      <trkpt lat="45.69247" lon="2.98914">
        <ele>928</ele>
        <time>2019-06-23T08:34:14.000Z</time>
      </trkpt>
      <trkpt lat="45.69242" lon="2.98908">
        <ele>926</ele>
        <time>2019-06-23T08:34:15.000Z</time>
      </trkpt>
      <trkpt lat="45.69237" lon="2.989">
        <ele>926</ele>
        <time>2019-06-23T08:34:16.000Z</time>
      </trkpt>
      <trkpt lat="45.69232" lon="2.98892">
        <ele>925</ele>
        <time>2019-06-23T08:34:17.000Z</time>
      </trkpt>
      <trkpt lat="45.69227" lon="2.98884">
        <ele>925</ele>
        <time>2019-06-23T08:34:18.000Z</time>
      </trkpt>
      <trkpt lat="45.69222" lon="2.98875">
        <ele>924</ele>
        <time>2019-06-23T08:34:19.000Z</time>
      </trkpt>
      <trkpt lat="45.69217" lon="2.98866">
        <ele>924</ele>
        <time>2019-06-23T08:34:20.000Z</time>
      </trkpt>
      <trkpt lat="45.69212" lon="2.98856">
        <ele>923</ele>
        <time>2019-06-23T08:34:21.000Z</time>
      </trkpt>
      <trkpt lat="45.69207" lon="2.98847">
        <ele>922</ele>
        <time>2019-06-23T08:34:22.000Z</time>
      </trkpt>
      <trkpt lat="45.69202" lon="2.98837">
        <ele>922</ele>
        <time>2019-06-23T08:34:23.000Z</time>
      </trkpt>
      <trkpt lat="45.69197" lon="2.98827">
        <ele>921</ele>
        <time>2019-06-23T08:34:24.000Z</time>
      </trkpt>
      <trkpt lat="45.69192" lon="2.98817">
        <ele>921</ele>
        <time>2019-06-23T08:34:25.000Z</time>
      </trkpt>
      <trkpt lat="45.69187" lon="2.98807">
        <ele>920</ele>
        <time>2019-06-23T08:34:26.000Z</time>
      </trkpt>
      <trkpt lat="45.69182" lon="2.98796">
        <ele>920</ele>
        <time>2019-06-23T08:34:27.000Z</time>
      </trkpt>
      <trkpt lat="45.69177" lon="2.98787">
        <ele>919</ele>
        <time>2019-06-23T08:34:28.000Z</time>
      </trkpt>
      <trkpt lat="45.69172" lon="2.98779">
        <ele>919</ele>
        <time>2019-06-23T08:34:29.000Z</time>
      </trkpt>
      <trkpt lat="45.69167" lon="2.98773">
        <ele>919</ele>
        <time>2019-06-23T08:34:30.000Z</time>
      </trkpt>
      <trkpt lat="45.69162" lon="2.98768">
        <ele>918</ele>
        <time>2019-06-23T08:34:31.000Z</time>
      </trkpt>
      <trkpt lat="45.69153" lon="2.98767">
        <ele>919</ele>
        <time>2019-06-23T08:34:32.000Z</time>
      </trkpt>
      <trkpt lat="45.69145" lon="2.98769">
        <ele>919</ele>
        <time>2019-06-23T08:34:33.000Z</time>
      </trkpt>
      <trkpt lat="45.69138" lon="2.9877">
        <ele>919</ele>
        <time>2019-06-23T08:34:34.000Z</time>
      </trkpt>
      <trkpt lat="45.69131" lon="2.98771">
        <ele>919</ele>
        <time>2019-06-23T08:34:35.000Z</time>
      </trkpt>
      <trkpt lat="45.69123" lon="2.98769">
        <ele>920</ele>
        <time>2019-06-23T08:34:36.000Z</time>
      </trkpt>
      <trkpt lat="45.69116" lon="2.98768">
        <ele>920</ele>
        <time>2019-06-23T08:34:37.000Z</time>
      </trkpt>
      <trkpt lat="45.69109" lon="2.98765">
        <ele>920</ele>
        <time>2019-06-23T08:34:38.000Z</time>
      </trkpt>
      <trkpt lat="45.69102" lon="2.98763">
        <ele>920</ele>
        <time>2019-06-23T08:34:39.000Z</time>
      </trkpt>
      <trkpt lat="45.69095" lon="2.98761">
        <ele>920</ele>
        <time>2019-06-23T08:34:40.000Z</time>
      </trkpt>
      <trkpt lat="45.69088" lon="2.98759">
        <ele>920</ele>
        <time>2019-06-23T08:34:41.000Z</time>
      </trkpt>
      <trkpt lat="45.69082" lon="2.98756">
        <ele>921</ele>
        <time>2019-06-23T08:34:42.000Z</time>
      </trkpt>
      <trkpt lat="45.69075" lon="2.98757">
        <ele>921</ele>
        <time>2019-06-23T08:34:43.000Z</time>
      </trkpt>
      <trkpt lat="45.69068" lon="2.98757">
        <ele>921</ele>
        <time>2019-06-23T08:34:44.000Z</time>
      </trkpt>
      <trkpt lat="45.69062" lon="2.98756">
        <ele>922</ele>
        <time>2019-06-23T08:34:45.000Z</time>
      </trkpt>
      <trkpt lat="45.69057" lon="2.98756">
        <ele>922</ele>
        <time>2019-06-23T08:34:46.000Z</time>
      </trkpt>
      <trkpt lat="45.69052" lon="2.98756">
        <ele>923</ele>
        <time>2019-06-23T08:34:47.000Z</time>
      </trkpt>
      <trkpt lat="45.69053" lon="2.98759">
        <ele>926</ele>
        <time>2019-06-23T08:34:48.000Z</time>
      </trkpt>
      <trkpt lat="45.6905" lon="2.98769">
        <ele>929</ele>
        <time>2019-06-23T08:34:49.000Z</time>
      </trkpt>
      <trkpt lat="45.69046" lon="2.98777">
        <ele>929</ele>
        <time>2019-06-23T08:34:50.000Z</time>
      </trkpt>
      <trkpt lat="45.69043" lon="2.98783">
        <ele>928</ele>
        <time>2019-06-23T08:34:51.000Z</time>
      </trkpt>
      <trkpt lat="45.69041" lon="2.98789">
        <ele>927</ele>
        <time>2019-06-23T08:34:52.000Z</time>
      </trkpt>
      <trkpt lat="45.69039" lon="2.98795">
        <ele>926</ele>
        <time>2019-06-23T08:34:53.000Z</time>
      </trkpt>
      <trkpt lat="45.69036" lon="2.98802">
        <ele>926</ele>
        <time>2019-06-23T08:34:54.000Z</time>
      </trkpt>
      <trkpt lat="45.6903" lon="2.98807">
        <ele>926</ele>
        <time>2019-06-23T08:34:55.000Z</time>
      </trkpt>
      <trkpt lat="45.69026" lon="2.98813">
        <ele>926</ele>
        <time>2019-06-23T08:34:56.000Z</time>
      </trkpt>
      <trkpt lat="45.69024" lon="2.9882">
        <ele>925</ele>
        <time>2019-06-23T08:34:57.000Z</time>
      </trkpt>
      <trkpt lat="45.69022" lon="2.98828">
        <ele>924</ele>
        <time>2019-06-23T08:34:58.000Z</time>
      </trkpt>
      <trkpt lat="45.69021" lon="2.98837">
        <ele>923</ele>
        <time>2019-06-23T08:34:59.000Z</time>
      </trkpt>
      <trkpt lat="45.69019" lon="2.98846">
        <ele>922</ele>
        <time>2019-06-23T08:35:00.000Z</time>
      </trkpt>
      <trkpt lat="45.69018" lon="2.98856">
        <ele>922</ele>
        <time>2019-06-23T08:35:01.000Z</time>
      </trkpt>
      <trkpt lat="45.69015" lon="2.98865">
        <ele>922</ele>
        <time>2019-06-23T08:35:02.000Z</time>
      </trkpt>
      <trkpt lat="45.69011" lon="2.98874">
        <ele>922</ele>
        <time>2019-06-23T08:35:03.000Z</time>
      </trkpt>
      <trkpt lat="45.69006" lon="2.98883">
        <ele>922</ele>
        <time>2019-06-23T08:35:04.000Z</time>
      </trkpt>
      <trkpt lat="45.68998" lon="2.9889">
        <ele>920</ele>
        <time>2019-06-23T08:35:05.000Z</time>
      </trkpt>
      <trkpt lat="45.68992" lon="2.98896">
        <ele>919</ele>
        <time>2019-06-23T08:35:06.000Z</time>
      </trkpt>
      <trkpt lat="45.68985" lon="2.989">
        <ele>918</ele>
        <time>2019-06-23T08:35:07.000Z</time>
      </trkpt>
      <trkpt lat="45.68977" lon="2.98903">
        <ele>918</ele>
        <time>2019-06-23T08:35:08.000Z</time>
      </trkpt>
      <trkpt lat="45.68969" lon="2.98905">
        <ele>918</ele>
        <time>2019-06-23T08:35:09.000Z</time>
      </trkpt>
      <trkpt lat="45.68961" lon="2.98906">
        <ele>917</ele>
        <time>2019-06-23T08:35:10.000Z</time>
      </trkpt>
      <trkpt lat="45.68953" lon="2.98907">
        <ele>917</ele>
        <time>2019-06-23T08:35:11.000Z</time>
      </trkpt>
      <trkpt lat="45.68945" lon="2.98908">
        <ele>917</ele>
        <time>2019-06-23T08:35:12.000Z</time>
      </trkpt>
      <trkpt lat="45.68937" lon="2.9891">
        <ele>916</ele>
        <time>2019-06-23T08:35:13.000Z</time>
      </trkpt>
      <trkpt lat="45.68928" lon="2.98911">
        <ele>915</ele>
        <time>2019-06-23T08:35:14.000Z</time>
      </trkpt>
      <trkpt lat="45.68919" lon="2.98911">
        <ele>915</ele>
        <time>2019-06-23T08:35:15.000Z</time>
      </trkpt>
      <trkpt lat="45.68911" lon="2.98911">
        <ele>914</ele>
        <time>2019-06-23T08:35:16.000Z</time>
      </trkpt>
      <trkpt lat="45.68902" lon="2.98912">
        <ele>914</ele>
        <time>2019-06-23T08:35:17.000Z</time>
      </trkpt>
      <trkpt lat="45.68894" lon="2.98914">
        <ele>914</ele>
        <time>2019-06-23T08:35:18.000Z</time>
      </trkpt>
      <trkpt lat="45.68885" lon="2.98917">
        <ele>913</ele>
        <time>2019-06-23T08:35:19.000Z</time>
      </trkpt>
      <trkpt lat="45.68877" lon="2.98921">
        <ele>913</ele>
        <time>2019-06-23T08:35:20.000Z</time>
      </trkpt>
      <trkpt lat="45.68868" lon="2.98924">
        <ele>913</ele>
        <time>2019-06-23T08:35:21.000Z</time>
      </trkpt>
      <trkpt lat="45.6886" lon="2.98927">
        <ele>912</ele>
        <time>2019-06-23T08:35:22.000Z</time>
      </trkpt>
      <trkpt lat="45.68851" lon="2.98931">
        <ele>912</ele>
        <time>2019-06-23T08:35:23.000Z</time>
      </trkpt>
      <trkpt lat="45.68842" lon="2.98934">
        <ele>912</ele>
        <time>2019-06-23T08:35:24.000Z</time>
      </trkpt>
      <trkpt lat="45.68834" lon="2.98937">
        <ele>912</ele>
        <time>2019-06-23T08:35:25.000Z</time>
      </trkpt>
      <trkpt lat="45.68825" lon="2.9894">
        <ele>912</ele>
        <time>2019-06-23T08:35:26.000Z</time>
      </trkpt>
      <trkpt lat="45.68816" lon="2.98944">
        <ele>911</ele>
        <time>2019-06-23T08:35:27.000Z</time>
      </trkpt>
      <trkpt lat="45.68808" lon="2.98947">
        <ele>911</ele>
        <time>2019-06-23T08:35:28.000Z</time>
      </trkpt>
      <trkpt lat="45.68799" lon="2.9895">
        <ele>911</ele>
        <time>2019-06-23T08:35:29.000Z</time>
      </trkpt>
      <trkpt lat="45.68791" lon="2.98952">
        <ele>911</ele>
        <time>2019-06-23T08:35:30.000Z</time>
      </trkpt>
      <trkpt lat="45.68782" lon="2.98954">
        <ele>911</ele>
        <time>2019-06-23T08:35:31.000Z</time>
      </trkpt>
      <trkpt lat="45.68774" lon="2.98956">
        <ele>911</ele>
        <time>2019-06-23T08:35:32.000Z</time>
      </trkpt>
      <trkpt lat="45.68766" lon="2.98958">
        <ele>911</ele>
        <time>2019-06-23T08:35:33.000Z</time>
      </trkpt>
      <trkpt lat="45.68757" lon="2.9896">
        <ele>911</ele>
        <time>2019-06-23T08:35:34.000Z</time>
      </trkpt>
      <trkpt lat="45.68749" lon="2.98961">
        <ele>911</ele>
        <time>2019-06-23T08:35:35.000Z</time>
      </trkpt>
      <trkpt lat="45.68742" lon="2.98963">
        <ele>911</ele>
        <time>2019-06-23T08:35:36.000Z</time>
      </trkpt>
      <trkpt lat="45.68736" lon="2.98965">
        <ele>911</ele>
        <time>2019-06-23T08:35:37.000Z</time>
      </trkpt>
      <trkpt lat="45.6873" lon="2.98966">
        <ele>912</ele>
        <time>2019-06-23T08:35:38.000Z</time>
      </trkpt>
      <trkpt lat="45.68726" lon="2.98968">
        <ele>914</ele>
        <time>2019-06-23T08:35:39.000Z</time>
      </trkpt>
      <trkpt lat="45.68719" lon="2.9897">
        <ele>914</ele>
        <time>2019-06-23T08:35:40.000Z</time>
      </trkpt>
      <trkpt lat="45.68713" lon="2.98972">
        <ele>915</ele>
        <time>2019-06-23T08:35:41.000Z</time>
      </trkpt>
      <trkpt lat="45.68707" lon="2.98974">
        <ele>915</ele>
        <time>2019-06-23T08:35:42.000Z</time>
      </trkpt>
      <trkpt lat="45.68701" lon="2.98977">
        <ele>916</ele>
        <time>2019-06-23T08:35:43.000Z</time>
      </trkpt>
      <trkpt lat="45.68695" lon="2.9898">
        <ele>917</ele>
        <time>2019-06-23T08:35:44.000Z</time>
      </trkpt>
      <trkpt lat="45.68691" lon="2.98988">
        <ele>914</ele>
        <time>2019-06-23T08:35:45.000Z</time>
      </trkpt>
      <trkpt lat="45.68686" lon="2.98992">
        <ele>915</ele>
        <time>2019-06-23T08:35:46.000Z</time>
      </trkpt>
      <trkpt lat="45.6868" lon="2.98996">
        <ele>915</ele>
        <time>2019-06-23T08:35:47.000Z</time>
      </trkpt>
      <trkpt lat="45.68672" lon="2.99">
        <ele>915</ele>
        <time>2019-06-23T08:35:48.000Z</time>
      </trkpt>
      <trkpt lat="45.68665" lon="2.99005">
        <ele>915</ele>
        <time>2019-06-23T08:35:49.000Z</time>
      </trkpt>
      <trkpt lat="45.68659" lon="2.99009">
        <ele>915</ele>
        <time>2019-06-23T08:35:50.000Z</time>
      </trkpt>
      <trkpt lat="45.68653" lon="2.99012">
        <ele>914</ele>
        <time>2019-06-23T08:35:51.000Z</time>
      </trkpt>
      <trkpt lat="45.68647" lon="2.99016">
        <ele>913</ele>
        <time>2019-06-23T08:35:52.000Z</time>
      </trkpt>
      <trkpt lat="45.68641" lon="2.99021">
        <ele>913</ele>
        <time>2019-06-23T08:35:53.000Z</time>
      </trkpt>
      <trkpt lat="45.68635" lon="2.99026">
        <ele>913</ele>
        <time>2019-06-23T08:35:54.000Z</time>
      </trkpt>
      <trkpt lat="45.68628" lon="2.99031">
        <ele>913</ele>
        <time>2019-06-23T08:35:55.000Z</time>
      </trkpt>
      <trkpt lat="45.68621" lon="2.99037">
        <ele>913</ele>
        <time>2019-06-23T08:35:56.000Z</time>
      </trkpt>
      <trkpt lat="45.68614" lon="2.99042">
        <ele>912</ele>
        <time>2019-06-23T08:35:57.000Z</time>
      </trkpt>
      <trkpt lat="45.68607" lon="2.99047">
        <ele>912</ele>
        <time>2019-06-23T08:35:58.000Z</time>
      </trkpt>
      <trkpt lat="45.68599" lon="2.99051">
        <ele>912</ele>
        <time>2019-06-23T08:35:59.000Z</time>
      </trkpt>
      <trkpt lat="45.68592" lon="2.99054">
        <ele>912</ele>
        <time>2019-06-23T08:36:00.000Z</time>
      </trkpt>
      <trkpt lat="45.68585" lon="2.99056">
        <ele>913</ele>
        <time>2019-06-23T08:36:01.000Z</time>
      </trkpt>
      <trkpt lat="45.68576" lon="2.99058">
        <ele>913</ele>
        <time>2019-06-23T08:36:02.000Z</time>
      </trkpt>
      <trkpt lat="45.68568" lon="2.99061">
        <ele>913</ele>
        <time>2019-06-23T08:36:03.000Z</time>
      </trkpt>
      <trkpt lat="45.6856" lon="2.9907">
        <ele>915</ele>
        <time>2019-06-23T08:36:04.000Z</time>
      </trkpt>
      <trkpt lat="45.68553" lon="2.99076">
        <ele>917</ele>
        <time>2019-06-23T08:36:05.000Z</time>
      </trkpt>
      <trkpt lat="45.68548" lon="2.99083">
        <ele>919</ele>
        <time>2019-06-23T08:36:06.000Z</time>
      </trkpt>
      <trkpt lat="45.68542" lon="2.9909">
        <ele>921</ele>
        <time>2019-06-23T08:36:07.000Z</time>
      </trkpt>
      <trkpt lat="45.68537" lon="2.99098">
        <ele>921</ele>
        <time>2019-06-23T08:36:08.000Z</time>
      </trkpt>
      <trkpt lat="45.68527" lon="2.99115">
        <ele>916</ele>
        <time>2019-06-23T08:36:09.000Z</time>
      </trkpt>
      <trkpt lat="45.68521" lon="2.99124">
        <ele>917</ele>
        <time>2019-06-23T08:36:10.000Z</time>
      </trkpt>
      <trkpt lat="45.68514" lon="2.99133">
        <ele>916</ele>
        <time>2019-06-23T08:36:11.000Z</time>
      </trkpt>
      <trkpt lat="45.68507" lon="2.99141">
        <ele>914</ele>
        <time>2019-06-23T08:36:12.000Z</time>
      </trkpt>
      <trkpt lat="45.68501" lon="2.99149">
        <ele>914</ele>
        <time>2019-06-23T08:36:13.000Z</time>
      </trkpt>
      <trkpt lat="45.68496" lon="2.99155">
        <ele>917</ele>
        <time>2019-06-23T08:36:14.000Z</time>
      </trkpt>
      <trkpt lat="45.6849" lon="2.99161">
        <ele>916</ele>
        <time>2019-06-23T08:36:15.000Z</time>
      </trkpt>
      <trkpt lat="45.68485" lon="2.99167">
        <ele>915</ele>
        <time>2019-06-23T08:36:16.000Z</time>
      </trkpt>
      <trkpt lat="45.68478" lon="2.99172">
        <ele>915</ele>
        <time>2019-06-23T08:36:17.000Z</time>
      </trkpt>
      <trkpt lat="45.6847" lon="2.99177">
        <ele>914</ele>
        <time>2019-06-23T08:36:18.000Z</time>
      </trkpt>
      <trkpt lat="45.68464" lon="2.99185">
        <ele>914</ele>
        <time>2019-06-23T08:36:19.000Z</time>
      </trkpt>
      <trkpt lat="45.68462" lon="2.99194">
        <ele>915</ele>
        <time>2019-06-23T08:36:20.000Z</time>
      </trkpt>
      <trkpt lat="45.68458" lon="2.99203">
        <ele>916</ele>
        <time>2019-06-23T08:36:21.000Z</time>
      </trkpt>
      <trkpt lat="45.68454" lon="2.99211">
        <ele>915</ele>
        <time>2019-06-23T08:36:22.000Z</time>
      </trkpt>
      <trkpt lat="45.6845" lon="2.99218">
        <ele>915</ele>
        <time>2019-06-23T08:36:23.000Z</time>
      </trkpt>
      <trkpt lat="45.68446" lon="2.99225">
        <ele>914</ele>
        <time>2019-06-23T08:36:24.000Z</time>
      </trkpt>
      <trkpt lat="45.68441" lon="2.99231">
        <ele>914</ele>
        <time>2019-06-23T08:36:25.000Z</time>
      </trkpt>
      <trkpt lat="45.68437" lon="2.99238">
        <ele>914</ele>
        <time>2019-06-23T08:36:26.000Z</time>
      </trkpt>
      <trkpt lat="45.68434" lon="2.99246">
        <ele>911</ele>
        <time>2019-06-23T08:36:27.000Z</time>
      </trkpt>
      <trkpt lat="45.6843" lon="2.99253">
        <ele>912</ele>
        <time>2019-06-23T08:36:28.000Z</time>
      </trkpt>
      <trkpt lat="45.68426" lon="2.99261">
        <ele>910</ele>
        <time>2019-06-23T08:36:29.000Z</time>
      </trkpt>
      <trkpt lat="45.68422" lon="2.99268">
        <ele>908</ele>
        <time>2019-06-23T08:36:30.000Z</time>
      </trkpt>
      <trkpt lat="45.68417" lon="2.99273">
        <ele>907</ele>
        <time>2019-06-23T08:36:31.000Z</time>
      </trkpt>
      <trkpt lat="45.68413" lon="2.99278">
        <ele>908</ele>
        <time>2019-06-23T08:36:32.000Z</time>
      </trkpt>
      <trkpt lat="45.68408" lon="2.99285">
        <ele>909</ele>
        <time>2019-06-23T08:36:33.000Z</time>
      </trkpt>
      <trkpt lat="45.68404" lon="2.99292">
        <ele>909</ele>
        <time>2019-06-23T08:36:34.000Z</time>
      </trkpt>
      <trkpt lat="45.68398" lon="2.99306">
        <ele>912</ele>
        <time>2019-06-23T08:36:35.000Z</time>
      </trkpt>
      <trkpt lat="45.68394" lon="2.99313">
        <ele>912</ele>
        <time>2019-06-23T08:36:36.000Z</time>
      </trkpt>
      <trkpt lat="45.68389" lon="2.99319">
        <ele>911</ele>
        <time>2019-06-23T08:36:37.000Z</time>
      </trkpt>
      <trkpt lat="45.68385" lon="2.99325">
        <ele>910</ele>
        <time>2019-06-23T08:36:38.000Z</time>
      </trkpt>
      <trkpt lat="45.68381" lon="2.99332">
        <ele>909</ele>
        <time>2019-06-23T08:36:39.000Z</time>
      </trkpt>
      <trkpt lat="45.6838" lon="2.9934">
        <ele>907</ele>
        <time>2019-06-23T08:36:40.000Z</time>
      </trkpt>
      <trkpt lat="45.68378" lon="2.99346">
        <ele>907</ele>
        <time>2019-06-23T08:36:41.000Z</time>
      </trkpt>
      <trkpt lat="45.68377" lon="2.99354">
        <ele>906</ele>
        <time>2019-06-23T08:36:42.000Z</time>
      </trkpt>
      <trkpt lat="45.68376" lon="2.99363">
        <ele>905</ele>
        <time>2019-06-23T08:36:43.000Z</time>
      </trkpt>
      <trkpt lat="45.68373" lon="2.99371">
        <ele>906</ele>
        <time>2019-06-23T08:36:44.000Z</time>
      </trkpt>
      <trkpt lat="45.68372" lon="2.9938">
        <ele>905</ele>
        <time>2019-06-23T08:36:45.000Z</time>
      </trkpt>
      <trkpt lat="45.68374" lon="2.99387">
        <ele>907</ele>
        <time>2019-06-23T08:36:46.000Z</time>
      </trkpt>
      <trkpt lat="45.68374" lon="2.99395">
        <ele>909</ele>
        <time>2019-06-23T08:36:47.000Z</time>
      </trkpt>
      <trkpt lat="45.68375" lon="2.99404">
        <ele>910</ele>
        <time>2019-06-23T08:36:48.000Z</time>
      </trkpt>
      <trkpt lat="45.68376" lon="2.99412">
        <ele>911</ele>
        <time>2019-06-23T08:36:49.000Z</time>
      </trkpt>
      <trkpt lat="45.68376" lon="2.9942">
        <ele>912</ele>
        <time>2019-06-23T08:36:50.000Z</time>
      </trkpt>
      <trkpt lat="45.68376" lon="2.99427">
        <ele>913</ele>
        <time>2019-06-23T08:36:51.000Z</time>
      </trkpt>
      <trkpt lat="45.68375" lon="2.99435">
        <ele>913</ele>
        <time>2019-06-23T08:36:52.000Z</time>
      </trkpt>
      <trkpt lat="45.68376" lon="2.99444">
        <ele>911</ele>
        <time>2019-06-23T08:36:53.000Z</time>
      </trkpt>
      <trkpt lat="45.68377" lon="2.99452">
        <ele>912</ele>
        <time>2019-06-23T08:36:54.000Z</time>
      </trkpt>
      <trkpt lat="45.68379" lon="2.99461">
        <ele>911</ele>
        <time>2019-06-23T08:36:55.000Z</time>
      </trkpt>
      <trkpt lat="45.68381" lon="2.99468">
        <ele>912</ele>
        <time>2019-06-23T08:36:56.000Z</time>
      </trkpt>
      <trkpt lat="45.68383" lon="2.99475">
        <ele>912</ele>
        <time>2019-06-23T08:36:57.000Z</time>
      </trkpt>
      <trkpt lat="45.68384" lon="2.99481">
        <ele>912</ele>
        <time>2019-06-23T08:36:58.000Z</time>
      </trkpt>
      <trkpt lat="45.68385" lon="2.99488">
        <ele>912</ele>
        <time>2019-06-23T08:36:59.000Z</time>
      </trkpt>
      <trkpt lat="45.68386" lon="2.99497">
        <ele>912</ele>
        <time>2019-06-23T08:37:00.000Z</time>
      </trkpt>
      <trkpt lat="45.68387" lon="2.99505">
        <ele>911</ele>
        <time>2019-06-23T08:37:01.000Z</time>
      </trkpt>
      <trkpt lat="45.68388" lon="2.9951">
        <ele>911</ele>
        <time>2019-06-23T08:37:02.000Z</time>
      </trkpt>
      <trkpt lat="45.68388" lon="2.99517">
        <ele>910</ele>
        <time>2019-06-23T08:37:03.000Z</time>
      </trkpt>
      <trkpt lat="45.68386" lon="2.99522">
        <ele>910</ele>
        <time>2019-06-23T08:37:04.000Z</time>
      </trkpt>
      <trkpt lat="45.68387" lon="2.99528">
        <ele>909</ele>
        <time>2019-06-23T08:37:05.000Z</time>
      </trkpt>
      <trkpt lat="45.68387" lon="2.99536">
        <ele>909</ele>
        <time>2019-06-23T08:37:06.000Z</time>
      </trkpt>
      <trkpt lat="45.68387" lon="2.99544">
        <ele>909</ele>
        <time>2019-06-23T08:37:07.000Z</time>
      </trkpt>
      <trkpt lat="45.68387" lon="2.99551">
        <ele>909</ele>
        <time>2019-06-23T08:37:08.000Z</time>
      </trkpt>
      <trkpt lat="45.68389" lon="2.99566">
        <ele>907</ele>
        <time>2019-06-23T08:37:09.000Z</time>
      </trkpt>
      <trkpt lat="45.68392" lon="2.99576">
        <ele>906</ele>
        <time>2019-06-23T08:37:10.000Z</time>
      </trkpt>
      <trkpt lat="45.68394" lon="2.99584">
        <ele>906</ele>
        <time>2019-06-23T08:37:11.000Z</time>
      </trkpt>
      <trkpt lat="45.68396" lon="2.99592">
        <ele>906</ele>
        <time>2019-06-23T08:37:12.000Z</time>
      </trkpt>
      <trkpt lat="45.68398" lon="2.99601">
        <ele>903</ele>
        <time>2019-06-23T08:37:13.000Z</time>
      </trkpt>
      <trkpt lat="45.68399" lon="2.99609">
        <ele>903</ele>
        <time>2019-06-23T08:37:14.000Z</time>
      </trkpt>
      <trkpt lat="45.68401" lon="2.99618">
        <ele>902</ele>
        <time>2019-06-23T08:37:15.000Z</time>
      </trkpt>
      <trkpt lat="45.68404" lon="2.99627">
        <ele>900</ele>
        <time>2019-06-23T08:37:16.000Z</time>
      </trkpt>
      <trkpt lat="45.68405" lon="2.99635">
        <ele>900</ele>
        <time>2019-06-23T08:37:17.000Z</time>
      </trkpt>
      <trkpt lat="45.68405" lon="2.99646">
        <ele>899</ele>
        <time>2019-06-23T08:37:18.000Z</time>
      </trkpt>
      <trkpt lat="45.68405" lon="2.99654">
        <ele>898</ele>
        <time>2019-06-23T08:37:19.000Z</time>
      </trkpt>
      <trkpt lat="45.68404" lon="2.99664">
        <ele>898</ele>
        <time>2019-06-23T08:37:20.000Z</time>
      </trkpt>
      <trkpt lat="45.68402" lon="2.99673">
        <ele>898</ele>
        <time>2019-06-23T08:37:21.000Z</time>
      </trkpt>
      <trkpt lat="45.68401" lon="2.99681">
        <ele>898</ele>
        <time>2019-06-23T08:37:22.000Z</time>
      </trkpt>
      <trkpt lat="45.68395" lon="2.99688">
        <ele>897</ele>
        <time>2019-06-23T08:37:23.000Z</time>
      </trkpt>
      <trkpt lat="45.68388" lon="2.99696">
        <ele>897</ele>
        <time>2019-06-23T08:37:24.000Z</time>
      </trkpt>
      <trkpt lat="45.68385" lon="2.99701">
        <ele>898</ele>
        <time>2019-06-23T08:37:25.000Z</time>
      </trkpt>
      <trkpt lat="45.68383" lon="2.99706">
        <ele>897</ele>
        <time>2019-06-23T08:37:26.000Z</time>
      </trkpt>
      <trkpt lat="45.68382" lon="2.9971">
        <ele>897</ele>
        <time>2019-06-23T08:37:27.000Z</time>
      </trkpt>
      <trkpt lat="45.6838" lon="2.99715">
        <ele>896</ele>
        <time>2019-06-23T08:37:28.000Z</time>
      </trkpt>
      <trkpt lat="45.68377" lon="2.99718">
        <ele>895</ele>
        <time>2019-06-23T08:37:29.000Z</time>
      </trkpt>
      <trkpt lat="45.68373" lon="2.99722">
        <ele>896</ele>
        <time>2019-06-23T08:37:30.000Z</time>
      </trkpt>
      <trkpt lat="45.68369" lon="2.99725">
        <ele>895</ele>
        <time>2019-06-23T08:37:31.000Z</time>
      </trkpt>
      <trkpt lat="45.68367" lon="2.99728">
        <ele>896</ele>
        <time>2019-06-23T08:37:32.000Z</time>
      </trkpt>
      <trkpt lat="45.68363" lon="2.99732">
        <ele>897</ele>
        <time>2019-06-23T08:37:33.000Z</time>
      </trkpt>
      <trkpt lat="45.68359" lon="2.99736">
        <ele>898</ele>
        <time>2019-06-23T08:37:34.000Z</time>
      </trkpt>
      <trkpt lat="45.68353" lon="2.99739">
        <ele>897</ele>
        <time>2019-06-23T08:37:35.000Z</time>
      </trkpt>
      <trkpt lat="45.68347" lon="2.99742">
        <ele>898</ele>
        <time>2019-06-23T08:37:36.000Z</time>
      </trkpt>
      <trkpt lat="45.68343" lon="2.99746">
        <ele>899</ele>
        <time>2019-06-23T08:37:37.000Z</time>
      </trkpt>
      <trkpt lat="45.68338" lon="2.99749">
        <ele>899</ele>
        <time>2019-06-23T08:37:38.000Z</time>
      </trkpt>
      <trkpt lat="45.68334" lon="2.99753">
        <ele>899</ele>
        <time>2019-06-23T08:37:39.000Z</time>
      </trkpt>
      <trkpt lat="45.68331" lon="2.99758">
        <ele>901</ele>
        <time>2019-06-23T08:37:40.000Z</time>
      </trkpt>
      <trkpt lat="45.68325" lon="2.99764">
        <ele>901</ele>
        <time>2019-06-23T08:37:41.000Z</time>
      </trkpt>
      <trkpt lat="45.6832" lon="2.99771">
        <ele>899</ele>
        <time>2019-06-23T08:37:42.000Z</time>
      </trkpt>
      <trkpt lat="45.68317" lon="2.99775">
        <ele>900</ele>
        <time>2019-06-23T08:37:43.000Z</time>
      </trkpt>
      <trkpt lat="45.68312" lon="2.99779">
        <ele>899</ele>
        <time>2019-06-23T08:37:44.000Z</time>
      </trkpt>
      <trkpt lat="45.68309" lon="2.99782">
        <ele>899</ele>
        <time>2019-06-23T08:37:45.000Z</time>
      </trkpt>
      <trkpt lat="45.68303" lon="2.99786">
        <ele>899</ele>
        <time>2019-06-23T08:37:46.000Z</time>
      </trkpt>
      <trkpt lat="45.68298" lon="2.99786">
        <ele>897</ele>
        <time>2019-06-23T08:37:47.000Z</time>
      </trkpt>
      <trkpt lat="45.68293" lon="2.99785">
        <ele>894</ele>
        <time>2019-06-23T08:37:48.000Z</time>
      </trkpt>
      <trkpt lat="45.68289" lon="2.99785">
        <ele>892</ele>
        <time>2019-06-23T08:37:49.000Z</time>
      </trkpt>
      <trkpt lat="45.68287" lon="2.99786">
        <ele>892</ele>
        <time>2019-06-23T08:37:50.000Z</time>
      </trkpt>
      <trkpt lat="45.68287" lon="2.99786">
        <ele>891</ele>
        <time>2019-06-23T08:37:51.000Z</time>
      </trkpt>
      <trkpt lat="45.68285" lon="2.99786">
        <ele>891</ele>
        <time>2019-06-23T08:37:52.000Z</time>
      </trkpt>
      <trkpt lat="45.68284" lon="2.99787">
        <ele>890</ele>
        <time>2019-06-23T08:37:53.000Z</time>
      </trkpt>
      <trkpt lat="45.68284" lon="2.99787">
        <ele>889</ele>
        <time>2019-06-23T08:37:54.000Z</time>
      </trkpt>
      <trkpt lat="45.68283" lon="2.99787">
        <ele>888</ele>
        <time>2019-06-23T08:37:55.000Z</time>
      </trkpt>
      <trkpt lat="45.68282" lon="2.99788">
        <ele>888</ele>
        <time>2019-06-23T08:37:56.000Z</time>
      </trkpt>
      <trkpt lat="45.68282" lon="2.99788">
        <ele>888</ele>
        <time>2019-06-23T08:37:57.000Z</time>
      </trkpt>
      <trkpt lat="45.68282" lon="2.9979">
        <ele>888</ele>
        <time>2019-06-23T08:37:58.000Z</time>
      </trkpt>
      <trkpt lat="45.68281" lon="2.99791">
        <ele>888</ele>
        <time>2019-06-23T08:37:59.000Z</time>
      </trkpt>
      <trkpt lat="45.6828" lon="2.99793">
        <ele>888</ele>
        <time>2019-06-23T08:38:00.000Z</time>
      </trkpt>
      <trkpt lat="45.68279" lon="2.99795">
        <ele>889</ele>
        <time>2019-06-23T08:38:01.000Z</time>
      </trkpt>
      <trkpt lat="45.68277" lon="2.99798">
        <ele>889</ele>
        <time>2019-06-23T08:38:02.000Z</time>
      </trkpt>
      <trkpt lat="45.68275" lon="2.998">
        <ele>889</ele>
        <time>2019-06-23T08:38:03.000Z</time>
      </trkpt>
      <trkpt lat="45.68273" lon="2.99802">
        <ele>889</ele>
        <time>2019-06-23T08:38:04.000Z</time>
      </trkpt>
      <trkpt lat="45.6827" lon="2.99804">
        <ele>889</ele>
        <time>2019-06-23T08:38:05.000Z</time>
      </trkpt>
      <trkpt lat="45.68267" lon="2.99806">
        <ele>889</ele>
        <time>2019-06-23T08:38:06.000Z</time>
      </trkpt>
      <trkpt lat="45.68265" lon="2.99808">
        <ele>891</ele>
        <time>2019-06-23T08:38:07.000Z</time>
      </trkpt>
      <trkpt lat="45.68262" lon="2.9981">
        <ele>891</ele>
        <time>2019-06-23T08:38:08.000Z</time>
      </trkpt>
      <trkpt lat="45.6826" lon="2.99812">
        <ele>892</ele>
        <time>2019-06-23T08:38:09.000Z</time>
      </trkpt>
      <trkpt lat="45.68258" lon="2.99813">
        <ele>893</ele>
        <time>2019-06-23T08:38:10.000Z</time>
      </trkpt>
      <trkpt lat="45.68256" lon="2.99815">
        <ele>894</ele>
        <time>2019-06-23T08:38:11.000Z</time>
      </trkpt>
      <trkpt lat="45.68254" lon="2.99817">
        <ele>894</ele>
        <time>2019-06-23T08:38:12.000Z</time>
      </trkpt>
      <trkpt lat="45.68251" lon="2.99818">
        <ele>895</ele>
        <time>2019-06-23T08:38:13.000Z</time>
      </trkpt>
      <trkpt lat="45.68246" lon="2.9982">
        <ele>896</ele>
        <time>2019-06-23T08:38:14.000Z</time>
      </trkpt>
      <trkpt lat="45.68243" lon="2.99821">
        <ele>896</ele>
        <time>2019-06-23T08:38:15.000Z</time>
      </trkpt>
      <trkpt lat="45.68241" lon="2.99823">
        <ele>897</ele>
        <time>2019-06-23T08:38:16.000Z</time>
      </trkpt>
      <trkpt lat="45.68238" lon="2.99825">
        <ele>897</ele>
        <time>2019-06-23T08:38:17.000Z</time>
      </trkpt>
      <trkpt lat="45.68235" lon="2.99828">
        <ele>897</ele>
        <time>2019-06-23T08:38:18.000Z</time>
      </trkpt>
      <trkpt lat="45.68231" lon="2.99833">
        <ele>897</ele>
        <time>2019-06-23T08:38:19.000Z</time>
      </trkpt>
      <trkpt lat="45.68228" lon="2.99836">
        <ele>898</ele>
        <time>2019-06-23T08:38:20.000Z</time>
      </trkpt>
      <trkpt lat="45.68226" lon="2.99838">
        <ele>898</ele>
        <time>2019-06-23T08:38:21.000Z</time>
      </trkpt>
      <trkpt lat="45.68221" lon="2.99839">
        <ele>896</ele>
        <time>2019-06-23T08:38:22.000Z</time>
      </trkpt>
      <trkpt lat="45.68216" lon="2.9984">
        <ele>893</ele>
        <time>2019-06-23T08:38:23.000Z</time>
      </trkpt>
      <trkpt lat="45.68213" lon="2.99842">
        <ele>892</ele>
        <time>2019-06-23T08:38:24.000Z</time>
      </trkpt>
      <trkpt lat="45.68211" lon="2.99845">
        <ele>890</ele>
        <time>2019-06-23T08:38:25.000Z</time>
      </trkpt>
      <trkpt lat="45.68212" lon="2.99851">
        <ele>888</ele>
        <time>2019-06-23T08:38:26.000Z</time>
      </trkpt>
      <trkpt lat="45.6821" lon="2.99856">
        <ele>888</ele>
        <time>2019-06-23T08:38:27.000Z</time>
      </trkpt>
      <trkpt lat="45.68208" lon="2.9986">
        <ele>888</ele>
        <time>2019-06-23T08:38:28.000Z</time>
      </trkpt>
      <trkpt lat="45.68205" lon="2.99863">
        <ele>891</ele>
        <time>2019-06-23T08:38:29.000Z</time>
      </trkpt>
      <trkpt lat="45.68203" lon="2.99865">
        <ele>891</ele>
        <time>2019-06-23T08:38:30.000Z</time>
      </trkpt>
      <trkpt lat="45.68201" lon="2.99867">
        <ele>892</ele>
        <time>2019-06-23T08:38:31.000Z</time>
      </trkpt>
      <trkpt lat="45.682" lon="2.99869">
        <ele>892</ele>
        <time>2019-06-23T08:38:32.000Z</time>
      </trkpt>
      <trkpt lat="45.68197" lon="2.99871">
        <ele>893</ele>
        <time>2019-06-23T08:38:33.000Z</time>
      </trkpt>
      <trkpt lat="45.68196" lon="2.99873">
        <ele>893</ele>
        <time>2019-06-23T08:38:34.000Z</time>
      </trkpt>
      <trkpt lat="45.68192" lon="2.99875">
        <ele>893</ele>
        <time>2019-06-23T08:38:35.000Z</time>
      </trkpt>
      <trkpt lat="45.68189" lon="2.99878">
        <ele>894</ele>
        <time>2019-06-23T08:38:36.000Z</time>
      </trkpt>
      <trkpt lat="45.68186" lon="2.9988">
        <ele>894</ele>
        <time>2019-06-23T08:38:37.000Z</time>
      </trkpt>
      <trkpt lat="45.68182" lon="2.99883">
        <ele>895</ele>
        <time>2019-06-23T08:38:38.000Z</time>
      </trkpt>
      <trkpt lat="45.6818" lon="2.99887">
        <ele>895</ele>
        <time>2019-06-23T08:38:39.000Z</time>
      </trkpt>
      <trkpt lat="45.68177" lon="2.99891">
        <ele>896</ele>
        <time>2019-06-23T08:38:40.000Z</time>
      </trkpt>
      <trkpt lat="45.68174" lon="2.99895">
        <ele>896</ele>
        <time>2019-06-23T08:38:41.000Z</time>
      </trkpt>
      <trkpt lat="45.68169" lon="2.99898">
        <ele>896</ele>
        <time>2019-06-23T08:38:42.000Z</time>
      </trkpt>
      <trkpt lat="45.68165" lon="2.99901">
        <ele>896</ele>
        <time>2019-06-23T08:38:43.000Z</time>
      </trkpt>
      <trkpt lat="45.6816" lon="2.99904">
        <ele>895</ele>
        <time>2019-06-23T08:38:44.000Z</time>
      </trkpt>
      <trkpt lat="45.68158" lon="2.99907">
        <ele>895</ele>
        <time>2019-06-23T08:38:45.000Z</time>
      </trkpt>
      <trkpt lat="45.68153" lon="2.99909">
        <ele>894</ele>
        <time>2019-06-23T08:38:46.000Z</time>
      </trkpt>
      <trkpt lat="45.68148" lon="2.99911">
        <ele>893</ele>
        <time>2019-06-23T08:38:47.000Z</time>
      </trkpt>
      <trkpt lat="45.68144" lon="2.99913">
        <ele>892</ele>
        <time>2019-06-23T08:38:48.000Z</time>
      </trkpt>
      <trkpt lat="45.68139" lon="2.99915">
        <ele>890</ele>
        <time>2019-06-23T08:38:49.000Z</time>
      </trkpt>
      <trkpt lat="45.68134" lon="2.99917">
        <ele>889</ele>
        <time>2019-06-23T08:38:50.000Z</time>
      </trkpt>
      <trkpt lat="45.6813" lon="2.99919">
        <ele>888</ele>
        <time>2019-06-23T08:38:51.000Z</time>
      </trkpt>
      <trkpt lat="45.68126" lon="2.9992">
        <ele>888</ele>
        <time>2019-06-23T08:38:52.000Z</time>
      </trkpt>
      <trkpt lat="45.68123" lon="2.99922">
        <ele>888</ele>
        <time>2019-06-23T08:38:53.000Z</time>
      </trkpt>
      <trkpt lat="45.6812" lon="2.99923">
        <ele>888</ele>
        <time>2019-06-23T08:38:54.000Z</time>
      </trkpt>
      <trkpt lat="45.68116" lon="2.99923">
        <ele>889</ele>
        <time>2019-06-23T08:38:55.000Z</time>
      </trkpt>
      <trkpt lat="45.68113" lon="2.99924">
        <ele>889</ele>
        <time>2019-06-23T08:38:56.000Z</time>
      </trkpt>
      <trkpt lat="45.6811" lon="2.99924">
        <ele>889</ele>
        <time>2019-06-23T08:38:57.000Z</time>
      </trkpt>
      <trkpt lat="45.68107" lon="2.99925">
        <ele>889</ele>
        <time>2019-06-23T08:38:58.000Z</time>
      </trkpt>
      <trkpt lat="45.68104" lon="2.99925">
        <ele>890</ele>
        <time>2019-06-23T08:38:59.000Z</time>
      </trkpt>
      <trkpt lat="45.68101" lon="2.99926">
        <ele>890</ele>
        <time>2019-06-23T08:39:00.000Z</time>
      </trkpt>
      <trkpt lat="45.68098" lon="2.99927">
        <ele>890</ele>
        <time>2019-06-23T08:39:01.000Z</time>
      </trkpt>
      <trkpt lat="45.68095" lon="2.99927">
        <ele>890</ele>
        <time>2019-06-23T08:39:02.000Z</time>
      </trkpt>
      <trkpt lat="45.68092" lon="2.99927">
        <ele>891</ele>
        <time>2019-06-23T08:39:03.000Z</time>
      </trkpt>
      <trkpt lat="45.6809" lon="2.99927">
        <ele>891</ele>
        <time>2019-06-23T08:39:04.000Z</time>
      </trkpt>
      <trkpt lat="45.68087" lon="2.99928">
        <ele>891</ele>
        <time>2019-06-23T08:39:05.000Z</time>
      </trkpt>
      <trkpt lat="45.68085" lon="2.99929">
        <ele>892</ele>
        <time>2019-06-23T08:39:06.000Z</time>
      </trkpt>
      <trkpt lat="45.68082" lon="2.99929">
        <ele>892</ele>
        <time>2019-06-23T08:39:07.000Z</time>
      </trkpt>
      <trkpt lat="45.6808" lon="2.9993">
        <ele>892</ele>
        <time>2019-06-23T08:39:08.000Z</time>
      </trkpt>
      <trkpt lat="45.68077" lon="2.99931">
        <ele>892</ele>
        <time>2019-06-23T08:39:09.000Z</time>
      </trkpt>
      <trkpt lat="45.68075" lon="2.99932">
        <ele>893</ele>
        <time>2019-06-23T08:39:10.000Z</time>
      </trkpt>
      <trkpt lat="45.68073" lon="2.99932">
        <ele>893</ele>
        <time>2019-06-23T08:39:11.000Z</time>
      </trkpt>
      <trkpt lat="45.6807" lon="2.99934">
        <ele>893</ele>
        <time>2019-06-23T08:39:12.000Z</time>
      </trkpt>
      <trkpt lat="45.68067" lon="2.99935">
        <ele>893</ele>
        <time>2019-06-23T08:39:13.000Z</time>
      </trkpt>
      <trkpt lat="45.68065" lon="2.99937">
        <ele>893</ele>
        <time>2019-06-23T08:39:14.000Z</time>
      </trkpt>
      <trkpt lat="45.68062" lon="2.99938">
        <ele>893</ele>
        <time>2019-06-23T08:39:15.000Z</time>
      </trkpt>
      <trkpt lat="45.6806" lon="2.99939">
        <ele>893</ele>
        <time>2019-06-23T08:39:16.000Z</time>
      </trkpt>
      <trkpt lat="45.68057" lon="2.99941">
        <ele>893</ele>
        <time>2019-06-23T08:39:17.000Z</time>
      </trkpt>
      <trkpt lat="45.68055" lon="2.99942">
        <ele>893</ele>
        <time>2019-06-23T08:39:18.000Z</time>
      </trkpt>
      <trkpt lat="45.68052" lon="2.99943">
        <ele>893</ele>
        <time>2019-06-23T08:39:19.000Z</time>
      </trkpt>
      <trkpt lat="45.6805" lon="2.99945">
        <ele>893</ele>
        <time>2019-06-23T08:39:20.000Z</time>
      </trkpt>
      <trkpt lat="45.68048" lon="2.99947">
        <ele>893</ele>
        <time>2019-06-23T08:39:21.000Z</time>
      </trkpt>
      <trkpt lat="45.68045" lon="2.99948">
        <ele>894</ele>
        <time>2019-06-23T08:39:22.000Z</time>
      </trkpt>
      <trkpt lat="45.68043" lon="2.9995">
        <ele>894</ele>
        <time>2019-06-23T08:39:23.000Z</time>
      </trkpt>
      <trkpt lat="45.68041" lon="2.99952">
        <ele>894</ele>
        <time>2019-06-23T08:39:24.000Z</time>
      </trkpt>
      <trkpt lat="45.68038" lon="2.99953">
        <ele>895</ele>
        <time>2019-06-23T08:39:25.000Z</time>
      </trkpt>
      <trkpt lat="45.68036" lon="2.99955">
        <ele>895</ele>
        <time>2019-06-23T08:39:26.000Z</time>
      </trkpt>
      <trkpt lat="45.68034" lon="2.99957">
        <ele>895</ele>
        <time>2019-06-23T08:39:27.000Z</time>
      </trkpt>
      <trkpt lat="45.68032" lon="2.99958">
        <ele>895</ele>
        <time>2019-06-23T08:39:28.000Z</time>
      </trkpt>
      <trkpt lat="45.6803" lon="2.99959">
        <ele>895</ele>
        <time>2019-06-23T08:39:29.000Z</time>
      </trkpt>
      <trkpt lat="45.68027" lon="2.9996">
        <ele>896</ele>
        <time>2019-06-23T08:39:30.000Z</time>
      </trkpt>
      <trkpt lat="45.68025" lon="2.99961">
        <ele>896</ele>
        <time>2019-06-23T08:39:31.000Z</time>
      </trkpt>
      <trkpt lat="45.68023" lon="2.99963">
        <ele>896</ele>
        <time>2019-06-23T08:39:32.000Z</time>
      </trkpt>
      <trkpt lat="45.68021" lon="2.99964">
        <ele>896</ele>
        <time>2019-06-23T08:39:33.000Z</time>
      </trkpt>
      <trkpt lat="45.68019" lon="2.99966">
        <ele>896</ele>
        <time>2019-06-23T08:39:34.000Z</time>
      </trkpt>
      <trkpt lat="45.68017" lon="2.99967">
        <ele>897</ele>
        <time>2019-06-23T08:39:35.000Z</time>
      </trkpt>
      <trkpt lat="45.68015" lon="2.99968">
        <ele>897</ele>
        <time>2019-06-23T08:39:36.000Z</time>
      </trkpt>
      <trkpt lat="45.68013" lon="2.9997">
        <ele>897</ele>
        <time>2019-06-23T08:39:37.000Z</time>
      </trkpt>
      <trkpt lat="45.68011" lon="2.9997">
        <ele>898</ele>
        <time>2019-06-23T08:39:38.000Z</time>
      </trkpt>
      <trkpt lat="45.68009" lon="2.99972">
        <ele>898</ele>
        <time>2019-06-23T08:39:39.000Z</time>
      </trkpt>
      <trkpt lat="45.68007" lon="2.99973">
        <ele>898</ele>
        <time>2019-06-23T08:39:40.000Z</time>
      </trkpt>
      <trkpt lat="45.68005" lon="2.99974">
        <ele>899</ele>
        <time>2019-06-23T08:39:41.000Z</time>
      </trkpt>
      <trkpt lat="45.68003" lon="2.99976">
        <ele>899</ele>
        <time>2019-06-23T08:39:42.000Z</time>
      </trkpt>
      <trkpt lat="45.68002" lon="2.99977">
        <ele>899</ele>
        <time>2019-06-23T08:39:43.000Z</time>
      </trkpt>
      <trkpt lat="45.68" lon="2.99978">
        <ele>900</ele>
        <time>2019-06-23T08:39:44.000Z</time>
      </trkpt>
      <trkpt lat="45.67998" lon="2.99979">
        <ele>900</ele>
        <time>2019-06-23T08:39:45.000Z</time>
      </trkpt>
      <trkpt lat="45.67997" lon="2.99981">
        <ele>900</ele>
        <time>2019-06-23T08:39:46.000Z</time>
      </trkpt>
      <trkpt lat="45.67995" lon="2.99983">
        <ele>900</ele>
        <time>2019-06-23T08:39:47.000Z</time>
      </trkpt>
      <trkpt lat="45.67993" lon="2.99984">
        <ele>901</ele>
        <time>2019-06-23T08:39:48.000Z</time>
      </trkpt>
      <trkpt lat="45.67992" lon="2.99985">
        <ele>902</ele>
        <time>2019-06-23T08:39:49.000Z</time>
      </trkpt>
      <trkpt lat="45.6799" lon="2.99986">
        <ele>902</ele>
        <time>2019-06-23T08:39:50.000Z</time>
      </trkpt>
      <trkpt lat="45.67988" lon="2.99987">
        <ele>903</ele>
        <time>2019-06-23T08:39:51.000Z</time>
      </trkpt>
      <trkpt lat="45.67987" lon="2.99988">
        <ele>904</ele>
        <time>2019-06-23T08:39:52.000Z</time>
      </trkpt>
      <trkpt lat="45.67985" lon="2.99989">
        <ele>905</ele>
        <time>2019-06-23T08:39:53.000Z</time>
      </trkpt>
      <trkpt lat="45.67983" lon="2.99991">
        <ele>906</ele>
        <time>2019-06-23T08:39:54.000Z</time>
      </trkpt>
      <trkpt lat="45.67981" lon="2.99994">
        <ele>907</ele>
        <time>2019-06-23T08:39:55.000Z</time>
      </trkpt>
      <trkpt lat="45.67979" lon="2.99995">
        <ele>907</ele>
        <time>2019-06-23T08:39:56.000Z</time>
      </trkpt>
      <trkpt lat="45.67977" lon="2.99997">
        <ele>908</ele>
        <time>2019-06-23T08:39:57.000Z</time>
      </trkpt>
      <trkpt lat="45.67974" lon="2.99998">
        <ele>908</ele>
        <time>2019-06-23T08:39:58.000Z</time>
      </trkpt>
      <trkpt lat="45.67972" lon="2.99999">
        <ele>910</ele>
        <time>2019-06-23T08:39:59.000Z</time>
      </trkpt>
      <trkpt lat="45.6797" lon="3">
        <ele>910</ele>
        <time>2019-06-23T08:40:00.000Z</time>
      </trkpt>
      <trkpt lat="45.67968" lon="3.00001">
        <ele>910</ele>
        <time>2019-06-23T08:40:01.000Z</time>
      </trkpt>
      <trkpt lat="45.67966" lon="3.00002">
        <ele>911</ele>
        <time>2019-06-23T08:40:02.000Z</time>
      </trkpt>
      <trkpt lat="45.67963" lon="3.00003">
        <ele>910</ele>
        <time>2019-06-23T08:40:03.000Z</time>
      </trkpt>
      <trkpt lat="45.67959" lon="3.00004">
        <ele>911</ele>
        <time>2019-06-23T08:40:04.000Z</time>
      </trkpt>
      <trkpt lat="45.67956" lon="3.00005">
        <ele>911</ele>
        <time>2019-06-23T08:40:05.000Z</time>
      </trkpt>
      <trkpt lat="45.67954" lon="3.00006">
        <ele>911</ele>
        <time>2019-06-23T08:40:06.000Z</time>
      </trkpt>
      <trkpt lat="45.67952" lon="3.00007">
        <ele>911</ele>
        <time>2019-06-23T08:40:07.000Z</time>
      </trkpt>
      <trkpt lat="45.67949" lon="3.00007">
        <ele>910</ele>
        <time>2019-06-23T08:40:08.000Z</time>
      </trkpt>
      <trkpt lat="45.67945" lon="3.00008">
        <ele>910</ele>
        <time>2019-06-23T08:40:09.000Z</time>
      </trkpt>
      <trkpt lat="45.67942" lon="3.00009">
        <ele>910</ele>
        <time>2019-06-23T08:40:10.000Z</time>
      </trkpt>
      <trkpt lat="45.6794" lon="3.0001">
        <ele>909</ele>
        <time>2019-06-23T08:40:11.000Z</time>
      </trkpt>
      <trkpt lat="45.67937" lon="3.0001">
        <ele>909</ele>
        <time>2019-06-23T08:40:12.000Z</time>
      </trkpt>
      <trkpt lat="45.67935" lon="3.00012">
        <ele>909</ele>
        <time>2019-06-23T08:40:13.000Z</time>
      </trkpt>
      <trkpt lat="45.67932" lon="3.00013">
        <ele>910</ele>
        <time>2019-06-23T08:40:14.000Z</time>
      </trkpt>
      <trkpt lat="45.6793" lon="3.00013">
        <ele>910</ele>
        <time>2019-06-23T08:40:15.000Z</time>
      </trkpt>
      <trkpt lat="45.67928" lon="3.00014">
        <ele>911</ele>
        <time>2019-06-23T08:40:16.000Z</time>
      </trkpt>
      <trkpt lat="45.67926" lon="3.00015">
        <ele>911</ele>
        <time>2019-06-23T08:40:17.000Z</time>
      </trkpt>
      <trkpt lat="45.67923" lon="3.00016">
        <ele>911</ele>
        <time>2019-06-23T08:40:18.000Z</time>
      </trkpt>
      <trkpt lat="45.67921" lon="3.00016">
        <ele>912</ele>
        <time>2019-06-23T08:40:19.000Z</time>
      </trkpt>
      <trkpt lat="45.67919" lon="3.00017">
        <ele>912</ele>
        <time>2019-06-23T08:40:20.000Z</time>
      </trkpt>
      <trkpt lat="45.67917" lon="3.00018">
        <ele>913</ele>
        <time>2019-06-23T08:40:21.000Z</time>
      </trkpt>
      <trkpt lat="45.67915" lon="3.00018">
        <ele>914</ele>
        <time>2019-06-23T08:40:22.000Z</time>
      </trkpt>
      <trkpt lat="45.67913" lon="3.00018">
        <ele>914</ele>
        <time>2019-06-23T08:40:23.000Z</time>
      </trkpt>
      <trkpt lat="45.67911" lon="3.00019">
        <ele>914</ele>
        <time>2019-06-23T08:40:24.000Z</time>
      </trkpt>
      <trkpt lat="45.67908" lon="3.0002">
        <ele>915</ele>
        <time>2019-06-23T08:40:25.000Z</time>
      </trkpt>
      <trkpt lat="45.67906" lon="3.0002">
        <ele>915</ele>
        <time>2019-06-23T08:40:26.000Z</time>
      </trkpt>
      <trkpt lat="45.67904" lon="3.00021">
        <ele>916</ele>
        <time>2019-06-23T08:40:27.000Z</time>
      </trkpt>
      <trkpt lat="45.67902" lon="3.00021">
        <ele>916</ele>
        <time>2019-06-23T08:40:28.000Z</time>
      </trkpt>
      <trkpt lat="45.679" lon="3.00021">
        <ele>916</ele>
        <time>2019-06-23T08:40:29.000Z</time>
      </trkpt>
      <trkpt lat="45.67898" lon="3.00021">
        <ele>917</ele>
        <time>2019-06-23T08:40:30.000Z</time>
      </trkpt>
      <trkpt lat="45.67896" lon="3.00021">
        <ele>918</ele>
        <time>2019-06-23T08:40:31.000Z</time>
      </trkpt>
      <trkpt lat="45.67894" lon="3.00022">
        <ele>918</ele>
        <time>2019-06-23T08:40:32.000Z</time>
      </trkpt>
      <trkpt lat="45.67891" lon="3.00022">
        <ele>918</ele>
        <time>2019-06-23T08:40:33.000Z</time>
      </trkpt>
      <trkpt lat="45.67889" lon="3.00022">
        <ele>918</ele>
        <time>2019-06-23T08:40:34.000Z</time>
      </trkpt>
      <trkpt lat="45.67887" lon="3.00021">
        <ele>918</ele>
        <time>2019-06-23T08:40:35.000Z</time>
      </trkpt>
      <trkpt lat="45.67885" lon="3.00021">
        <ele>918</ele>
        <time>2019-06-23T08:40:36.000Z</time>
      </trkpt>
      <trkpt lat="45.67883" lon="3.00021">
        <ele>919</ele>
        <time>2019-06-23T08:40:37.000Z</time>
      </trkpt>
      <trkpt lat="45.67881" lon="3.00022">
        <ele>919</ele>
        <time>2019-06-23T08:40:38.000Z</time>
      </trkpt>
      <trkpt lat="45.67878" lon="3.00023">
        <ele>919</ele>
        <time>2019-06-23T08:40:39.000Z</time>
      </trkpt>
      <trkpt lat="45.67877" lon="3.00024">
        <ele>920</ele>
        <time>2019-06-23T08:40:40.000Z</time>
      </trkpt>
      <trkpt lat="45.67875" lon="3.00026">
        <ele>920</ele>
        <time>2019-06-23T08:40:41.000Z</time>
      </trkpt>
      <trkpt lat="45.67873" lon="3.00027">
        <ele>920</ele>
        <time>2019-06-23T08:40:42.000Z</time>
      </trkpt>
      <trkpt lat="45.67871" lon="3.00029">
        <ele>920</ele>
        <time>2019-06-23T08:40:43.000Z</time>
      </trkpt>
      <trkpt lat="45.67869" lon="3.00031">
        <ele>920</ele>
        <time>2019-06-23T08:40:44.000Z</time>
      </trkpt>
      <trkpt lat="45.67868" lon="3.00033">
        <ele>920</ele>
        <time>2019-06-23T08:40:45.000Z</time>
      </trkpt>
      <trkpt lat="45.67866" lon="3.00035">
        <ele>920</ele>
        <time>2019-06-23T08:40:46.000Z</time>
      </trkpt>
      <trkpt lat="45.67865" lon="3.00037">
        <ele>920</ele>
        <time>2019-06-23T08:40:47.000Z</time>
      </trkpt>
      <trkpt lat="45.67864" lon="3.00039">
        <ele>920</ele>
        <time>2019-06-23T08:40:48.000Z</time>
      </trkpt>
      <trkpt lat="45.67862" lon="3.0004">
        <ele>920</ele>
        <time>2019-06-23T08:40:49.000Z</time>
      </trkpt>
      <trkpt lat="45.67861" lon="3.00041">
        <ele>921</ele>
        <time>2019-06-23T08:40:50.000Z</time>
      </trkpt>
      <trkpt lat="45.67861" lon="3.00043">
        <ele>921</ele>
        <time>2019-06-23T08:40:51.000Z</time>
      </trkpt>
      <trkpt lat="45.67861" lon="3.00044">
        <ele>921</ele>
        <time>2019-06-23T08:40:52.000Z</time>
      </trkpt>
      <trkpt lat="45.6786" lon="3.00046">
        <ele>921</ele>
        <time>2019-06-23T08:40:53.000Z</time>
      </trkpt>
      <trkpt lat="45.67859" lon="3.00048">
        <ele>921</ele>
        <time>2019-06-23T08:40:54.000Z</time>
      </trkpt>
      <trkpt lat="45.67858" lon="3.0005">
        <ele>921</ele>
        <time>2019-06-23T08:40:55.000Z</time>
      </trkpt>
      <trkpt lat="45.67856" lon="3.00051">
        <ele>921</ele>
        <time>2019-06-23T08:40:56.000Z</time>
      </trkpt>
      <trkpt lat="45.67855" lon="3.00053">
        <ele>921</ele>
        <time>2019-06-23T08:40:57.000Z</time>
      </trkpt>
      <trkpt lat="45.67854" lon="3.00055">
        <ele>922</ele>
        <time>2019-06-23T08:40:58.000Z</time>
      </trkpt>
      <trkpt lat="45.67854" lon="3.00058">
        <ele>921</ele>
        <time>2019-06-23T08:40:59.000Z</time>
      </trkpt>
      <trkpt lat="45.67852" lon="3.0006">
        <ele>921</ele>
        <time>2019-06-23T08:41:00.000Z</time>
      </trkpt>
      <trkpt lat="45.67851" lon="3.00062">
        <ele>921</ele>
        <time>2019-06-23T08:41:01.000Z</time>
      </trkpt>
      <trkpt lat="45.6785" lon="3.00065">
        <ele>920</ele>
        <time>2019-06-23T08:41:02.000Z</time>
      </trkpt>
      <trkpt lat="45.67848" lon="3.00067">
        <ele>920</ele>
        <time>2019-06-23T08:41:03.000Z</time>
      </trkpt>
      <trkpt lat="45.67848" lon="3.0007">
        <ele>920</ele>
        <time>2019-06-23T08:41:04.000Z</time>
      </trkpt>
      <trkpt lat="45.67847" lon="3.00073">
        <ele>920</ele>
        <time>2019-06-23T08:41:05.000Z</time>
      </trkpt>
      <trkpt lat="45.67846" lon="3.00076">
        <ele>920</ele>
        <time>2019-06-23T08:41:06.000Z</time>
      </trkpt>
      <trkpt lat="45.67845" lon="3.00079">
        <ele>919</ele>
        <time>2019-06-23T08:41:07.000Z</time>
      </trkpt>
      <trkpt lat="45.67844" lon="3.00083">
        <ele>919</ele>
        <time>2019-06-23T08:41:08.000Z</time>
      </trkpt>
      <trkpt lat="45.67843" lon="3.00087">
        <ele>919</ele>
        <time>2019-06-23T08:41:09.000Z</time>
      </trkpt>
      <trkpt lat="45.67842" lon="3.00091">
        <ele>919</ele>
        <time>2019-06-23T08:41:10.000Z</time>
      </trkpt>
      <trkpt lat="45.67841" lon="3.00096">
        <ele>919</ele>
        <time>2019-06-23T08:41:11.000Z</time>
      </trkpt>
      <trkpt lat="45.6784" lon="3.00101">
        <ele>919</ele>
        <time>2019-06-23T08:41:12.000Z</time>
      </trkpt>
      <trkpt lat="45.67838" lon="3.00106">
        <ele>918</ele>
        <time>2019-06-23T08:41:13.000Z</time>
      </trkpt>
      <trkpt lat="45.67837" lon="3.00112">
        <ele>918</ele>
        <time>2019-06-23T08:41:14.000Z</time>
      </trkpt>
      <trkpt lat="45.67836" lon="3.00118">
        <ele>918</ele>
        <time>2019-06-23T08:41:15.000Z</time>
      </trkpt>
      <trkpt lat="45.67835" lon="3.00124">
        <ele>918</ele>
        <time>2019-06-23T08:41:16.000Z</time>
      </trkpt>
      <trkpt lat="45.67835" lon="3.0013">
        <ele>918</ele>
        <time>2019-06-23T08:41:17.000Z</time>
      </trkpt>
      <trkpt lat="45.67834" lon="3.00136">
        <ele>918</ele>
        <time>2019-06-23T08:41:18.000Z</time>
      </trkpt>
      <trkpt lat="45.67833" lon="3.00142">
        <ele>917</ele>
        <time>2019-06-23T08:41:19.000Z</time>
      </trkpt>
      <trkpt lat="45.67833" lon="3.00148">
        <ele>917</ele>
        <time>2019-06-23T08:41:20.000Z</time>
      </trkpt>
      <trkpt lat="45.67832" lon="3.00154">
        <ele>917</ele>
        <time>2019-06-23T08:41:21.000Z</time>
      </trkpt>
      <trkpt lat="45.6783" lon="3.00159">
        <ele>917</ele>
        <time>2019-06-23T08:41:22.000Z</time>
      </trkpt>
      <trkpt lat="45.67828" lon="3.00165">
        <ele>917</ele>
        <time>2019-06-23T08:41:23.000Z</time>
      </trkpt>
      <trkpt lat="45.67827" lon="3.00171">
        <ele>917</ele>
        <time>2019-06-23T08:41:24.000Z</time>
      </trkpt>
      <trkpt lat="45.67826" lon="3.00177">
        <ele>917</ele>
        <time>2019-06-23T08:41:25.000Z</time>
      </trkpt>
      <trkpt lat="45.67825" lon="3.00183">
        <ele>917</ele>
        <time>2019-06-23T08:41:26.000Z</time>
      </trkpt>
      <trkpt lat="45.67823" lon="3.00188">
        <ele>917</ele>
        <time>2019-06-23T08:41:27.000Z</time>
      </trkpt>
      <trkpt lat="45.67822" lon="3.00194">
        <ele>917</ele>
        <time>2019-06-23T08:41:28.000Z</time>
      </trkpt>
      <trkpt lat="45.67821" lon="3.00199">
        <ele>917</ele>
        <time>2019-06-23T08:41:29.000Z</time>
      </trkpt>
      <trkpt lat="45.6782" lon="3.00205">
        <ele>917</ele>
        <time>2019-06-23T08:41:30.000Z</time>
      </trkpt>
      <trkpt lat="45.67819" lon="3.0021">
        <ele>918</ele>
        <time>2019-06-23T08:41:31.000Z</time>
      </trkpt>
      <trkpt lat="45.67818" lon="3.00215">
        <ele>918</ele>
        <time>2019-06-23T08:41:32.000Z</time>
      </trkpt>
      <trkpt lat="45.67817" lon="3.0022">
        <ele>918</ele>
        <time>2019-06-23T08:41:33.000Z</time>
      </trkpt>
      <trkpt lat="45.67816" lon="3.00225">
        <ele>918</ele>
        <time>2019-06-23T08:41:34.000Z</time>
      </trkpt>
      <trkpt lat="45.67815" lon="3.0023">
        <ele>918</ele>
        <time>2019-06-23T08:41:35.000Z</time>
      </trkpt>
      <trkpt lat="45.67814" lon="3.00234">
        <ele>918</ele>
        <time>2019-06-23T08:41:36.000Z</time>
      </trkpt>
      <trkpt lat="45.67813" lon="3.00239">
        <ele>918</ele>
        <time>2019-06-23T08:41:37.000Z</time>
      </trkpt>
      <trkpt lat="45.67812" lon="3.00244">
        <ele>919</ele>
        <time>2019-06-23T08:41:38.000Z</time>
      </trkpt>
      <trkpt lat="45.67811" lon="3.00249">
        <ele>919</ele>
        <time>2019-06-23T08:41:39.000Z</time>
      </trkpt>
      <trkpt lat="45.6781" lon="3.00254">
        <ele>919</ele>
        <time>2019-06-23T08:41:40.000Z</time>
      </trkpt>
      <trkpt lat="45.6781" lon="3.00259">
        <ele>919</ele>
        <time>2019-06-23T08:41:41.000Z</time>
      </trkpt>
      <trkpt lat="45.67809" lon="3.00264">
        <ele>919</ele>
        <time>2019-06-23T08:41:42.000Z</time>
      </trkpt>
      <trkpt lat="45.67808" lon="3.00269">
        <ele>919</ele>
        <time>2019-06-23T08:41:43.000Z</time>
      </trkpt>
      <trkpt lat="45.67808" lon="3.00273">
        <ele>919</ele>
        <time>2019-06-23T08:41:44.000Z</time>
      </trkpt>
      <trkpt lat="45.67807" lon="3.00277">
        <ele>919</ele>
        <time>2019-06-23T08:41:45.000Z</time>
      </trkpt>
      <trkpt lat="45.67806" lon="3.0028">
        <ele>919</ele>
        <time>2019-06-23T08:41:46.000Z</time>
      </trkpt>
      <trkpt lat="45.67805" lon="3.00282">
        <ele>919</ele>
        <time>2019-06-23T08:41:47.000Z</time>
      </trkpt>
      <trkpt lat="45.67804" lon="3.00283">
        <ele>919</ele>
        <time>2019-06-23T08:41:48.000Z</time>
      </trkpt>
      <trkpt lat="45.67803" lon="3.00283">
        <ele>918</ele>
        <time>2019-06-23T08:41:49.000Z</time>
      </trkpt>
      <trkpt lat="45.67802" lon="3.00283">
        <ele>918</ele>
        <time>2019-06-23T08:41:50.000Z</time>
      </trkpt>
      <trkpt lat="45.678" lon="3.00283">
        <ele>918</ele>
        <time>2019-06-23T08:41:51.000Z</time>
      </trkpt>
      <trkpt lat="45.67799" lon="3.00282">
        <ele>918</ele>
        <time>2019-06-23T08:41:52.000Z</time>
      </trkpt>
      <trkpt lat="45.67798" lon="3.00282">
        <ele>918</ele>
        <time>2019-06-23T08:41:53.000Z</time>
      </trkpt>
      <trkpt lat="45.67796" lon="3.00281">
        <ele>918</ele>
        <time>2019-06-23T08:41:54.000Z</time>
      </trkpt>
      <trkpt lat="45.67795" lon="3.0028">
        <ele>918</ele>
        <time>2019-06-23T08:41:55.000Z</time>
      </trkpt>
      <trkpt lat="45.67793" lon="3.00279">
        <ele>917</ele>
        <time>2019-06-23T08:41:56.000Z</time>
      </trkpt>
      <trkpt lat="45.67791" lon="3.00278">
        <ele>917</ele>
        <time>2019-06-23T08:41:57.000Z</time>
      </trkpt>
      <trkpt lat="45.67788" lon="3.00277">
        <ele>917</ele>
        <time>2019-06-23T08:41:58.000Z</time>
      </trkpt>
      <trkpt lat="45.67784" lon="3.00276">
        <ele>916</ele>
        <time>2019-06-23T08:41:59.000Z</time>
      </trkpt>
      <trkpt lat="45.67779" lon="3.00274">
        <ele>915</ele>
        <time>2019-06-23T08:42:00.000Z</time>
      </trkpt>
      <trkpt lat="45.67774" lon="3.00272">
        <ele>915</ele>
        <time>2019-06-23T08:42:01.000Z</time>
      </trkpt>
      <trkpt lat="45.67768" lon="3.0027">
        <ele>915</ele>
        <time>2019-06-23T08:42:02.000Z</time>
      </trkpt>
      <trkpt lat="45.67761" lon="3.00266">
        <ele>913</ele>
        <time>2019-06-23T08:42:03.000Z</time>
      </trkpt>
      <trkpt lat="45.67755" lon="3.00262">
        <ele>913</ele>
        <time>2019-06-23T08:42:04.000Z</time>
      </trkpt>
      <trkpt lat="45.67749" lon="3.00259">
        <ele>912</ele>
        <time>2019-06-23T08:42:05.000Z</time>
      </trkpt>
      <trkpt lat="45.67744" lon="3.00256">
        <ele>911</ele>
        <time>2019-06-23T08:42:06.000Z</time>
      </trkpt>
      <trkpt lat="45.6774" lon="3.00255">
        <ele>911</ele>
        <time>2019-06-23T08:42:07.000Z</time>
      </trkpt>
      <trkpt lat="45.67735" lon="3.00256">
        <ele>910</ele>
        <time>2019-06-23T08:42:08.000Z</time>
      </trkpt>
      <trkpt lat="45.67733" lon="3.00259">
        <ele>911</ele>
        <time>2019-06-23T08:42:09.000Z</time>
      </trkpt>
      <trkpt lat="45.67732" lon="3.00263">
        <ele>911</ele>
        <time>2019-06-23T08:42:10.000Z</time>
      </trkpt>
      <trkpt lat="45.6773" lon="3.00269">
        <ele>911</ele>
        <time>2019-06-23T08:42:11.000Z</time>
      </trkpt>
      <trkpt lat="45.6773" lon="3.00276">
        <ele>911</ele>
        <time>2019-06-23T08:42:12.000Z</time>
      </trkpt>
      <trkpt lat="45.67729" lon="3.00282">
        <ele>911</ele>
        <time>2019-06-23T08:42:13.000Z</time>
      </trkpt>
      <trkpt lat="45.67728" lon="3.00288">
        <ele>912</ele>
        <time>2019-06-23T08:42:14.000Z</time>
      </trkpt>
      <trkpt lat="45.67729" lon="3.00295">
        <ele>912</ele>
        <time>2019-06-23T08:42:15.000Z</time>
      </trkpt>
      <trkpt lat="45.67729" lon="3.00301">
        <ele>912</ele>
        <time>2019-06-23T08:42:16.000Z</time>
      </trkpt>
      <trkpt lat="45.67729" lon="3.00308">
        <ele>912</ele>
        <time>2019-06-23T08:42:17.000Z</time>
      </trkpt>
      <trkpt lat="45.67729" lon="3.00314">
        <ele>913</ele>
        <time>2019-06-23T08:42:18.000Z</time>
      </trkpt>
      <trkpt lat="45.67728" lon="3.00321">
        <ele>913</ele>
        <time>2019-06-23T08:42:19.000Z</time>
      </trkpt>
      <trkpt lat="45.67728" lon="3.00327">
        <ele>913</ele>
        <time>2019-06-23T08:42:20.000Z</time>
      </trkpt>
      <trkpt lat="45.67727" lon="3.00333">
        <ele>913</ele>
        <time>2019-06-23T08:42:21.000Z</time>
      </trkpt>
      <trkpt lat="45.67727" lon="3.00339">
        <ele>913</ele>
        <time>2019-06-23T08:42:22.000Z</time>
      </trkpt>
      <trkpt lat="45.67726" lon="3.00346">
        <ele>913</ele>
        <time>2019-06-23T08:42:23.000Z</time>
      </trkpt>
      <trkpt lat="45.67725" lon="3.00352">
        <ele>913</ele>
        <time>2019-06-23T08:42:24.000Z</time>
      </trkpt>
      <trkpt lat="45.67724" lon="3.00359">
        <ele>913</ele>
        <time>2019-06-23T08:42:25.000Z</time>
      </trkpt>
      <trkpt lat="45.67724" lon="3.00366">
        <ele>914</ele>
        <time>2019-06-23T08:42:26.000Z</time>
      </trkpt>
      <trkpt lat="45.67723" lon="3.00372">
        <ele>914</ele>
        <time>2019-06-23T08:42:27.000Z</time>
      </trkpt>
      <trkpt lat="45.67722" lon="3.00379">
        <ele>914</ele>
        <time>2019-06-23T08:42:28.000Z</time>
      </trkpt>
      <trkpt lat="45.67721" lon="3.00386">
        <ele>914</ele>
        <time>2019-06-23T08:42:29.000Z</time>
      </trkpt>
      <trkpt lat="45.67718" lon="3.00392">
        <ele>915</ele>
        <time>2019-06-23T08:42:30.000Z</time>
      </trkpt>
      <trkpt lat="45.67716" lon="3.00398">
        <ele>914</ele>
        <time>2019-06-23T08:42:31.000Z</time>
      </trkpt>
      <trkpt lat="45.67714" lon="3.00404">
        <ele>914</ele>
        <time>2019-06-23T08:42:32.000Z</time>
      </trkpt>
      <trkpt lat="45.67711" lon="3.0041">
        <ele>914</ele>
        <time>2019-06-23T08:42:33.000Z</time>
      </trkpt>
      <trkpt lat="45.67709" lon="3.00415">
        <ele>913</ele>
        <time>2019-06-23T08:42:34.000Z</time>
      </trkpt>
      <trkpt lat="45.67706" lon="3.00421">
        <ele>913</ele>
        <time>2019-06-23T08:42:35.000Z</time>
      </trkpt>
      <trkpt lat="45.67703" lon="3.00427">
        <ele>913</ele>
        <time>2019-06-23T08:42:36.000Z</time>
      </trkpt>
      <trkpt lat="45.677" lon="3.00432">
        <ele>913</ele>
        <time>2019-06-23T08:42:37.000Z</time>
      </trkpt>
      <trkpt lat="45.67696" lon="3.00436">
        <ele>913</ele>
        <time>2019-06-23T08:42:38.000Z</time>
      </trkpt>
      <trkpt lat="45.67692" lon="3.0044">
        <ele>913</ele>
        <time>2019-06-23T08:42:39.000Z</time>
      </trkpt>
      <trkpt lat="45.67688" lon="3.00444">
        <ele>913</ele>
        <time>2019-06-23T08:42:40.000Z</time>
      </trkpt>
      <trkpt lat="45.67684" lon="3.00448">
        <ele>912</ele>
        <time>2019-06-23T08:42:41.000Z</time>
      </trkpt>
      <trkpt lat="45.67684" lon="3.00454">
        <ele>911</ele>
        <time>2019-06-23T08:42:42.000Z</time>
      </trkpt>
      <trkpt lat="45.67684" lon="3.00461">
        <ele>910</ele>
        <time>2019-06-23T08:42:43.000Z</time>
      </trkpt>
      <trkpt lat="45.67686" lon="3.00468">
        <ele>909</ele>
        <time>2019-06-23T08:42:44.000Z</time>
      </trkpt>
      <trkpt lat="45.67689" lon="3.00474">
        <ele>908</ele>
        <time>2019-06-23T08:42:45.000Z</time>
      </trkpt>
      <trkpt lat="45.67694" lon="3.0048">
        <ele>907</ele>
        <time>2019-06-23T08:42:46.000Z</time>
      </trkpt>
      <trkpt lat="45.67698" lon="3.00488">
        <ele>905</ele>
        <time>2019-06-23T08:42:47.000Z</time>
      </trkpt>
      <trkpt lat="45.67703" lon="3.00496">
        <ele>905</ele>
        <time>2019-06-23T08:42:48.000Z</time>
      </trkpt>
      <trkpt lat="45.67706" lon="3.00506">
        <ele>904</ele>
        <time>2019-06-23T08:42:49.000Z</time>
      </trkpt>
      <trkpt lat="45.67711" lon="3.00516">
        <ele>903</ele>
        <time>2019-06-23T08:42:50.000Z</time>
      </trkpt>
      <trkpt lat="45.67715" lon="3.00526">
        <ele>902</ele>
        <time>2019-06-23T08:42:51.000Z</time>
      </trkpt>
      <trkpt lat="45.6772" lon="3.00536">
        <ele>902</ele>
        <time>2019-06-23T08:42:52.000Z</time>
      </trkpt>
      <trkpt lat="45.67727" lon="3.00546">
        <ele>902</ele>
        <time>2019-06-23T08:42:53.000Z</time>
      </trkpt>
      <trkpt lat="45.67732" lon="3.00557">
        <ele>902</ele>
        <time>2019-06-23T08:42:54.000Z</time>
      </trkpt>
      <trkpt lat="45.67737" lon="3.00569">
        <ele>902</ele>
        <time>2019-06-23T08:42:55.000Z</time>
      </trkpt>
      <trkpt lat="45.67742" lon="3.00581">
        <ele>901</ele>
        <time>2019-06-23T08:42:56.000Z</time>
      </trkpt>
      <trkpt lat="45.67747" lon="3.00594">
        <ele>900</ele>
        <time>2019-06-23T08:42:57.000Z</time>
      </trkpt>
      <trkpt lat="45.67752" lon="3.00607">
        <ele>899</ele>
        <time>2019-06-23T08:42:58.000Z</time>
      </trkpt>
      <trkpt lat="45.67757" lon="3.0062">
        <ele>898</ele>
        <time>2019-06-23T08:42:59.000Z</time>
      </trkpt>
      <trkpt lat="45.67761" lon="3.00633">
        <ele>898</ele>
        <time>2019-06-23T08:43:00.000Z</time>
      </trkpt>
      <trkpt lat="45.67766" lon="3.00646">
        <ele>898</ele>
        <time>2019-06-23T08:43:01.000Z</time>
      </trkpt>
      <trkpt lat="45.6777" lon="3.00659">
        <ele>897</ele>
        <time>2019-06-23T08:43:02.000Z</time>
      </trkpt>
      <trkpt lat="45.67775" lon="3.00672">
        <ele>897</ele>
        <time>2019-06-23T08:43:03.000Z</time>
      </trkpt>
      <trkpt lat="45.6778" lon="3.00684">
        <ele>896</ele>
        <time>2019-06-23T08:43:04.000Z</time>
      </trkpt>
      <trkpt lat="45.67786" lon="3.00696">
        <ele>895</ele>
        <time>2019-06-23T08:43:05.000Z</time>
      </trkpt>
      <trkpt lat="45.67792" lon="3.00708">
        <ele>894</ele>
        <time>2019-06-23T08:43:06.000Z</time>
      </trkpt>
      <trkpt lat="45.67799" lon="3.00719">
        <ele>893</ele>
        <time>2019-06-23T08:43:07.000Z</time>
      </trkpt>
      <trkpt lat="45.67805" lon="3.00727">
        <ele>893</ele>
        <time>2019-06-23T08:43:08.000Z</time>
      </trkpt>
      <trkpt lat="45.67812" lon="3.00737">
        <ele>892</ele>
        <time>2019-06-23T08:43:09.000Z</time>
      </trkpt>
      <trkpt lat="45.67818" lon="3.00744">
        <ele>892</ele>
        <time>2019-06-23T08:43:10.000Z</time>
      </trkpt>
      <trkpt lat="45.6782" lon="3.00749">
        <ele>889</ele>
        <time>2019-06-23T08:43:11.000Z</time>
      </trkpt>
      <trkpt lat="45.67821" lon="3.00751">
        <ele>885</ele>
        <time>2019-06-23T08:43:12.000Z</time>
      </trkpt>
      <trkpt lat="45.67822" lon="3.00754">
        <ele>885</ele>
        <time>2019-06-23T08:43:13.000Z</time>
      </trkpt>
      <trkpt lat="45.67823" lon="3.00756">
        <ele>884</ele>
        <time>2019-06-23T08:43:14.000Z</time>
      </trkpt>
      <trkpt lat="45.67823" lon="3.00757">
        <ele>884</ele>
        <time>2019-06-23T08:43:15.000Z</time>
      </trkpt>
      <trkpt lat="45.67823" lon="3.00757">
        <ele>884</ele>
        <time>2019-06-23T08:43:16.000Z</time>
      </trkpt>
      <trkpt lat="45.67823" lon="3.00757">
        <ele>883</ele>
        <time>2019-06-23T08:43:17.000Z</time>
      </trkpt>
      <trkpt lat="45.67822" lon="3.00757">
        <ele>883</ele>
        <time>2019-06-23T08:43:18.000Z</time>
      </trkpt>
      <trkpt lat="45.67821" lon="3.00758">
        <ele>884</ele>
        <time>2019-06-23T08:43:19.000Z</time>
      </trkpt>
      <trkpt lat="45.6782" lon="3.00758">
        <ele>884</ele>
        <time>2019-06-23T08:43:20.000Z</time>
      </trkpt>
      <trkpt lat="45.67821" lon="3.00759">
        <ele>884</ele>
        <time>2019-06-23T08:43:21.000Z</time>
      </trkpt>
      <trkpt lat="45.67819" lon="3.0076">
        <ele>885</ele>
        <time>2019-06-23T08:43:22.000Z</time>
      </trkpt>
      <trkpt lat="45.67819" lon="3.0076">
        <ele>886</ele>
        <time>2019-06-23T08:43:23.000Z</time>
      </trkpt>
      <trkpt lat="45.67809" lon="3.0076">
        <ele>891</ele>
        <time>2019-06-23T08:43:24.000Z</time>
      </trkpt>
      <trkpt lat="45.67809" lon="3.00762">
        <ele>890</ele>
        <time>2019-06-23T08:43:25.000Z</time>
      </trkpt>
      <trkpt lat="45.67808" lon="3.00765">
        <ele>891</ele>
        <time>2019-06-23T08:43:26.000Z</time>
      </trkpt>
      <trkpt lat="45.67808" lon="3.00769">
        <ele>891</ele>
        <time>2019-06-23T08:43:27.000Z</time>
      </trkpt>
      <trkpt lat="45.67807" lon="3.00775">
        <ele>891</ele>
        <time>2019-06-23T08:43:28.000Z</time>
      </trkpt>
      <trkpt lat="45.67807" lon="3.00781">
        <ele>891</ele>
        <time>2019-06-23T08:43:29.000Z</time>
      </trkpt>
      <trkpt lat="45.67807" lon="3.00792">
        <ele>890</ele>
        <time>2019-06-23T08:43:30.000Z</time>
      </trkpt>
      <trkpt lat="45.67806" lon="3.008">
        <ele>890</ele>
        <time>2019-06-23T08:43:31.000Z</time>
      </trkpt>
      <trkpt lat="45.67806" lon="3.00808">
        <ele>890</ele>
        <time>2019-06-23T08:43:32.000Z</time>
      </trkpt>
      <trkpt lat="45.67805" lon="3.00819">
        <ele>888</ele>
        <time>2019-06-23T08:43:33.000Z</time>
      </trkpt>
      <trkpt lat="45.67804" lon="3.00829">
        <ele>888</ele>
        <time>2019-06-23T08:43:34.000Z</time>
      </trkpt>
      <trkpt lat="45.67801" lon="3.00837">
        <ele>887</ele>
        <time>2019-06-23T08:43:35.000Z</time>
      </trkpt>
      <trkpt lat="45.67799" lon="3.00846">
        <ele>887</ele>
        <time>2019-06-23T08:43:36.000Z</time>
      </trkpt>
      <trkpt lat="45.67794" lon="3.00854">
        <ele>887</ele>
        <time>2019-06-23T08:43:37.000Z</time>
      </trkpt>
      <trkpt lat="45.67791" lon="3.00864">
        <ele>886</ele>
        <time>2019-06-23T08:43:38.000Z</time>
      </trkpt>
      <trkpt lat="45.67785" lon="3.00876">
        <ele>885</ele>
        <time>2019-06-23T08:43:39.000Z</time>
      </trkpt>
      <trkpt lat="45.6778" lon="3.00885">
        <ele>884</ele>
        <time>2019-06-23T08:43:40.000Z</time>
      </trkpt>
      <trkpt lat="45.67778" lon="3.00894">
        <ele>883</ele>
        <time>2019-06-23T08:43:41.000Z</time>
      </trkpt>
      <trkpt lat="45.67781" lon="3.00901">
        <ele>883</ele>
        <time>2019-06-23T08:43:42.000Z</time>
      </trkpt>
      <trkpt lat="45.67786" lon="3.00907">
        <ele>880</ele>
        <time>2019-06-23T08:43:43.000Z</time>
      </trkpt>
      <trkpt lat="45.67791" lon="3.00911">
        <ele>877</ele>
        <time>2019-06-23T08:43:44.000Z</time>
      </trkpt>
      <trkpt lat="45.67796" lon="3.00916">
        <ele>876</ele>
        <time>2019-06-23T08:43:45.000Z</time>
      </trkpt>
      <trkpt lat="45.67801" lon="3.0092">
        <ele>874</ele>
        <time>2019-06-23T08:43:46.000Z</time>
      </trkpt>
      <trkpt lat="45.67806" lon="3.00926">
        <ele>873</ele>
        <time>2019-06-23T08:43:47.000Z</time>
      </trkpt>
      <trkpt lat="45.67811" lon="3.00931">
        <ele>872</ele>
        <time>2019-06-23T08:43:48.000Z</time>
      </trkpt>
      <trkpt lat="45.67815" lon="3.00937">
        <ele>872</ele>
        <time>2019-06-23T08:43:49.000Z</time>
      </trkpt>
      <trkpt lat="45.67819" lon="3.00943">
        <ele>871</ele>
        <time>2019-06-23T08:43:50.000Z</time>
      </trkpt>
      <trkpt lat="45.6782" lon="3.00952">
        <ele>873</ele>
        <time>2019-06-23T08:43:51.000Z</time>
      </trkpt>
      <trkpt lat="45.67821" lon="3.0096">
        <ele>874</ele>
        <time>2019-06-23T08:43:52.000Z</time>
      </trkpt>
      <trkpt lat="45.67822" lon="3.00968">
        <ele>874</ele>
        <time>2019-06-23T08:43:53.000Z</time>
      </trkpt>
      <trkpt lat="45.67823" lon="3.00976">
        <ele>873</ele>
        <time>2019-06-23T08:43:54.000Z</time>
      </trkpt>
      <trkpt lat="45.67823" lon="3.00985">
        <ele>873</ele>
        <time>2019-06-23T08:43:55.000Z</time>
      </trkpt>
      <trkpt lat="45.67823" lon="3.00993">
        <ele>873</ele>
        <time>2019-06-23T08:43:56.000Z</time>
      </trkpt>
      <trkpt lat="45.67822" lon="3.01002">
        <ele>874</ele>
        <time>2019-06-23T08:43:57.000Z</time>
      </trkpt>
      <trkpt lat="45.67823" lon="3.0101">
        <ele>875</ele>
        <time>2019-06-23T08:43:58.000Z</time>
      </trkpt>
      <trkpt lat="45.67824" lon="3.01018">
        <ele>875</ele>
        <time>2019-06-23T08:43:59.000Z</time>
      </trkpt>
      <trkpt lat="45.67825" lon="3.01026">
        <ele>875</ele>
        <time>2019-06-23T08:44:00.000Z</time>
      </trkpt>
      <trkpt lat="45.67827" lon="3.01034">
        <ele>875</ele>
        <time>2019-06-23T08:44:01.000Z</time>
      </trkpt>
      <trkpt lat="45.67829" lon="3.01041">
        <ele>875</ele>
        <time>2019-06-23T08:44:02.000Z</time>
      </trkpt>
      <trkpt lat="45.67831" lon="3.01048">
        <ele>875</ele>
        <time>2019-06-23T08:44:03.000Z</time>
      </trkpt>
      <trkpt lat="45.67834" lon="3.01054">
        <ele>875</ele>
        <time>2019-06-23T08:44:04.000Z</time>
      </trkpt>
      <trkpt lat="45.67837" lon="3.01061">
        <ele>876</ele>
        <time>2019-06-23T08:44:05.000Z</time>
      </trkpt>
      <trkpt lat="45.6784" lon="3.01066">
        <ele>876</ele>
        <time>2019-06-23T08:44:06.000Z</time>
      </trkpt>
      <trkpt lat="45.67844" lon="3.01072">
        <ele>876</ele>
        <time>2019-06-23T08:44:07.000Z</time>
      </trkpt>
      <trkpt lat="45.67847" lon="3.01077">
        <ele>876</ele>
        <time>2019-06-23T08:44:08.000Z</time>
      </trkpt>
      <trkpt lat="45.67851" lon="3.01082">
        <ele>876</ele>
        <time>2019-06-23T08:44:09.000Z</time>
      </trkpt>
      <trkpt lat="45.67854" lon="3.01086">
        <ele>877</ele>
        <time>2019-06-23T08:44:10.000Z</time>
      </trkpt>
      <trkpt lat="45.67858" lon="3.01091">
        <ele>877</ele>
        <time>2019-06-23T08:44:11.000Z</time>
      </trkpt>
      <trkpt lat="45.67862" lon="3.01095">
        <ele>878</ele>
        <time>2019-06-23T08:44:12.000Z</time>
      </trkpt>
      <trkpt lat="45.67865" lon="3.011">
        <ele>878</ele>
        <time>2019-06-23T08:44:13.000Z</time>
      </trkpt>
      <trkpt lat="45.67869" lon="3.01106">
        <ele>879</ele>
        <time>2019-06-23T08:44:14.000Z</time>
      </trkpt>
      <trkpt lat="45.67872" lon="3.01111">
        <ele>879</ele>
        <time>2019-06-23T08:44:15.000Z</time>
      </trkpt>
      <trkpt lat="45.67875" lon="3.01116">
        <ele>879</ele>
        <time>2019-06-23T08:44:16.000Z</time>
      </trkpt>
      <trkpt lat="45.67878" lon="3.01121">
        <ele>880</ele>
        <time>2019-06-23T08:44:17.000Z</time>
      </trkpt>
      <trkpt lat="45.67881" lon="3.01126">
        <ele>880</ele>
        <time>2019-06-23T08:44:18.000Z</time>
      </trkpt>
      <trkpt lat="45.67884" lon="3.01131">
        <ele>880</ele>
        <time>2019-06-23T08:44:19.000Z</time>
      </trkpt>
      <trkpt lat="45.67887" lon="3.01136">
        <ele>881</ele>
        <time>2019-06-23T08:44:20.000Z</time>
      </trkpt>
      <trkpt lat="45.6789" lon="3.01139">
        <ele>881</ele>
        <time>2019-06-23T08:44:21.000Z</time>
      </trkpt>
      <trkpt lat="45.67894" lon="3.01142">
        <ele>882</ele>
        <time>2019-06-23T08:44:22.000Z</time>
      </trkpt>
      <trkpt lat="45.67897" lon="3.01145">
        <ele>882</ele>
        <time>2019-06-23T08:44:23.000Z</time>
      </trkpt>
      <trkpt lat="45.67901" lon="3.01145">
        <ele>881</ele>
        <time>2019-06-23T08:44:24.000Z</time>
      </trkpt>
      <trkpt lat="45.67905" lon="3.01145">
        <ele>881</ele>
        <time>2019-06-23T08:44:25.000Z</time>
      </trkpt>
      <trkpt lat="45.67909" lon="3.01144">
        <ele>881</ele>
        <time>2019-06-23T08:44:26.000Z</time>
      </trkpt>
      <trkpt lat="45.67912" lon="3.01143">
        <ele>882</ele>
        <time>2019-06-23T08:44:27.000Z</time>
      </trkpt>
      <trkpt lat="45.67915" lon="3.01141">
        <ele>883</ele>
        <time>2019-06-23T08:44:28.000Z</time>
      </trkpt>
      <trkpt lat="45.67918" lon="3.01139">
        <ele>883</ele>
        <time>2019-06-23T08:44:29.000Z</time>
      </trkpt>
      <trkpt lat="45.67919" lon="3.01135">
        <ele>883</ele>
        <time>2019-06-23T08:44:30.000Z</time>
      </trkpt>
      <trkpt lat="45.67921" lon="3.01132">
        <ele>883</ele>
        <time>2019-06-23T08:44:31.000Z</time>
      </trkpt>
      <trkpt lat="45.67923" lon="3.01129">
        <ele>884</ele>
        <time>2019-06-23T08:44:32.000Z</time>
      </trkpt>
      <trkpt lat="45.67925" lon="3.01126">
        <ele>885</ele>
        <time>2019-06-23T08:44:33.000Z</time>
      </trkpt>
      <trkpt lat="45.67927" lon="3.01128">
        <ele>887</ele>
        <time>2019-06-23T08:44:34.000Z</time>
      </trkpt>
      <trkpt lat="45.6793" lon="3.0113">
        <ele>887</ele>
        <time>2019-06-23T08:44:35.000Z</time>
      </trkpt>
      <trkpt lat="45.67932" lon="3.01133">
        <ele>888</ele>
        <time>2019-06-23T08:44:36.000Z</time>
      </trkpt>
      <trkpt lat="45.67934" lon="3.01137">
        <ele>888</ele>
        <time>2019-06-23T08:44:37.000Z</time>
      </trkpt>
      <trkpt lat="45.67934" lon="3.01141">
        <ele>888</ele>
        <time>2019-06-23T08:44:38.000Z</time>
      </trkpt>
      <trkpt lat="45.67934" lon="3.01145">
        <ele>889</ele>
        <time>2019-06-23T08:44:39.000Z</time>
      </trkpt>
      <trkpt lat="45.67935" lon="3.01149">
        <ele>889</ele>
        <time>2019-06-23T08:44:40.000Z</time>
      </trkpt>
      <trkpt lat="45.67936" lon="3.01153">
        <ele>889</ele>
        <time>2019-06-23T08:44:41.000Z</time>
      </trkpt>
      <trkpt lat="45.67936" lon="3.01157">
        <ele>889</ele>
        <time>2019-06-23T08:44:42.000Z</time>
      </trkpt>
      <trkpt lat="45.67937" lon="3.01162">
        <ele>888</ele>
        <time>2019-06-23T08:44:43.000Z</time>
      </trkpt>
      <trkpt lat="45.67937" lon="3.01166">
        <ele>888</ele>
        <time>2019-06-23T08:44:44.000Z</time>
      </trkpt>
      <trkpt lat="45.67937" lon="3.01171">
        <ele>888</ele>
        <time>2019-06-23T08:44:45.000Z</time>
      </trkpt>
      <trkpt lat="45.67937" lon="3.01175">
        <ele>889</ele>
        <time>2019-06-23T08:44:46.000Z</time>
      </trkpt>
      <trkpt lat="45.67937" lon="3.0118">
        <ele>889</ele>
        <time>2019-06-23T08:44:47.000Z</time>
      </trkpt>
      <trkpt lat="45.67937" lon="3.01184">
        <ele>889</ele>
        <time>2019-06-23T08:44:48.000Z</time>
      </trkpt>
      <trkpt lat="45.67937" lon="3.01188">
        <ele>889</ele>
        <time>2019-06-23T08:44:49.000Z</time>
      </trkpt>
      <trkpt lat="45.67938" lon="3.01193">
        <ele>888</ele>
        <time>2019-06-23T08:44:50.000Z</time>
      </trkpt>
      <trkpt lat="45.67938" lon="3.01198">
        <ele>888</ele>
        <time>2019-06-23T08:44:51.000Z</time>
      </trkpt>
      <trkpt lat="45.67938" lon="3.01203">
        <ele>889</ele>
        <time>2019-06-23T08:44:52.000Z</time>
      </trkpt>
      <trkpt lat="45.67937" lon="3.01208">
        <ele>889</ele>
        <time>2019-06-23T08:44:53.000Z</time>
      </trkpt>
      <trkpt lat="45.67937" lon="3.01213">
        <ele>889</ele>
        <time>2019-06-23T08:44:54.000Z</time>
      </trkpt>
      <trkpt lat="45.67937" lon="3.01218">
        <ele>889</ele>
        <time>2019-06-23T08:44:55.000Z</time>
      </trkpt>
      <trkpt lat="45.67938" lon="3.01223">
        <ele>889</ele>
        <time>2019-06-23T08:44:56.000Z</time>
      </trkpt>
      <trkpt lat="45.67937" lon="3.01228">
        <ele>889</ele>
        <time>2019-06-23T08:44:57.000Z</time>
      </trkpt>
      <trkpt lat="45.67937" lon="3.01231">
        <ele>889</ele>
        <time>2019-06-23T08:44:58.000Z</time>
      </trkpt>
      <trkpt lat="45.67937" lon="3.01235">
        <ele>889</ele>
        <time>2019-06-23T08:44:59.000Z</time>
      </trkpt>
      <trkpt lat="45.67935" lon="3.01238">
        <ele>889</ele>
        <time>2019-06-23T08:45:00.000Z</time>
      </trkpt>
      <trkpt lat="45.67935" lon="3.01242">
        <ele>889</ele>
        <time>2019-06-23T08:45:01.000Z</time>
      </trkpt>
      <trkpt lat="45.67934" lon="3.01246">
        <ele>889</ele>
        <time>2019-06-23T08:45:02.000Z</time>
      </trkpt>
      <trkpt lat="45.67933" lon="3.01249">
        <ele>889</ele>
        <time>2019-06-23T08:45:03.000Z</time>
      </trkpt>
      <trkpt lat="45.67932" lon="3.01251">
        <ele>889</ele>
        <time>2019-06-23T08:45:04.000Z</time>
      </trkpt>
      <trkpt lat="45.67932" lon="3.01254">
        <ele>889</ele>
        <time>2019-06-23T08:45:05.000Z</time>
      </trkpt>
      <trkpt lat="45.67932" lon="3.01256">
        <ele>889</ele>
        <time>2019-06-23T08:45:06.000Z</time>
      </trkpt>
      <trkpt lat="45.67931" lon="3.01259">
        <ele>888</ele>
        <time>2019-06-23T08:45:07.000Z</time>
      </trkpt>
      <trkpt lat="45.67931" lon="3.01263">
        <ele>889</ele>
        <time>2019-06-23T08:45:08.000Z</time>
      </trkpt>
      <trkpt lat="45.67931" lon="3.01268">
        <ele>887</ele>
        <time>2019-06-23T08:45:09.000Z</time>
      </trkpt>
      <trkpt lat="45.6793" lon="3.01273">
        <ele>888</ele>
        <time>2019-06-23T08:45:10.000Z</time>
      </trkpt>
      <trkpt lat="45.67929" lon="3.01278">
        <ele>888</ele>
        <time>2019-06-23T08:45:11.000Z</time>
      </trkpt>
      <trkpt lat="45.67928" lon="3.01285">
        <ele>887</ele>
        <time>2019-06-23T08:45:12.000Z</time>
      </trkpt>
      <trkpt lat="45.67927" lon="3.01292">
        <ele>888</ele>
        <time>2019-06-23T08:45:13.000Z</time>
      </trkpt>
      <trkpt lat="45.67926" lon="3.013">
        <ele>887</ele>
        <time>2019-06-23T08:45:14.000Z</time>
      </trkpt>
      <trkpt lat="45.67927" lon="3.01309">
        <ele>884</ele>
        <time>2019-06-23T08:45:15.000Z</time>
      </trkpt>
      <trkpt lat="45.67926" lon="3.01317">
        <ele>883</ele>
        <time>2019-06-23T08:45:16.000Z</time>
      </trkpt>
      <trkpt lat="45.67926" lon="3.01326">
        <ele>883</ele>
        <time>2019-06-23T08:45:17.000Z</time>
      </trkpt>
      <trkpt lat="45.67926" lon="3.01333">
        <ele>883</ele>
        <time>2019-06-23T08:45:18.000Z</time>
      </trkpt>
      <trkpt lat="45.67926" lon="3.01341">
        <ele>884</ele>
        <time>2019-06-23T08:45:19.000Z</time>
      </trkpt>
      <trkpt lat="45.67925" lon="3.01348">
        <ele>885</ele>
        <time>2019-06-23T08:45:20.000Z</time>
      </trkpt>
      <trkpt lat="45.67925" lon="3.01355">
        <ele>885</ele>
        <time>2019-06-23T08:45:21.000Z</time>
      </trkpt>
      <trkpt lat="45.67925" lon="3.01362">
        <ele>885</ele>
        <time>2019-06-23T08:45:22.000Z</time>
      </trkpt>
      <trkpt lat="45.67925" lon="3.01371">
        <ele>885</ele>
        <time>2019-06-23T08:45:23.000Z</time>
      </trkpt>
      <trkpt lat="45.67925" lon="3.01379">
        <ele>884</ele>
        <time>2019-06-23T08:45:24.000Z</time>
      </trkpt>
      <trkpt lat="45.67927" lon="3.01387">
        <ele>885</ele>
        <time>2019-06-23T08:45:25.000Z</time>
      </trkpt>
      <trkpt lat="45.67927" lon="3.01394">
        <ele>885</ele>
        <time>2019-06-23T08:45:26.000Z</time>
      </trkpt>
      <trkpt lat="45.67928" lon="3.01401">
        <ele>885</ele>
        <time>2019-06-23T08:45:27.000Z</time>
      </trkpt>
      <trkpt lat="45.6793" lon="3.01409">
        <ele>883</ele>
        <time>2019-06-23T08:45:28.000Z</time>
      </trkpt>
      <trkpt lat="45.67931" lon="3.01416">
        <ele>882</ele>
        <time>2019-06-23T08:45:29.000Z</time>
      </trkpt>
      <trkpt lat="45.67932" lon="3.01423">
        <ele>881</ele>
        <time>2019-06-23T08:45:30.000Z</time>
      </trkpt>
      <trkpt lat="45.67933" lon="3.0143">
        <ele>882</ele>
        <time>2019-06-23T08:45:31.000Z</time>
      </trkpt>
      <trkpt lat="45.67935" lon="3.01437">
        <ele>881</ele>
        <time>2019-06-23T08:45:32.000Z</time>
      </trkpt>
      <trkpt lat="45.67937" lon="3.01445">
        <ele>881</ele>
        <time>2019-06-23T08:45:33.000Z</time>
      </trkpt>
      <trkpt lat="45.67938" lon="3.01452">
        <ele>880</ele>
        <time>2019-06-23T08:45:34.000Z</time>
      </trkpt>
      <trkpt lat="45.67939" lon="3.0146">
        <ele>882</ele>
        <time>2019-06-23T08:45:35.000Z</time>
      </trkpt>
      <trkpt lat="45.67939" lon="3.01467">
        <ele>882</ele>
        <time>2019-06-23T08:45:36.000Z</time>
      </trkpt>
      <trkpt lat="45.67941" lon="3.01474">
        <ele>881</ele>
        <time>2019-06-23T08:45:37.000Z</time>
      </trkpt>
      <trkpt lat="45.67941" lon="3.01481">
        <ele>880</ele>
        <time>2019-06-23T08:45:38.000Z</time>
      </trkpt>
      <trkpt lat="45.67942" lon="3.01488">
        <ele>880</ele>
        <time>2019-06-23T08:45:39.000Z</time>
      </trkpt>
      <trkpt lat="45.67943" lon="3.01494">
        <ele>880</ele>
        <time>2019-06-23T08:45:40.000Z</time>
      </trkpt>
      <trkpt lat="45.67944" lon="3.01501">
        <ele>880</ele>
        <time>2019-06-23T08:45:41.000Z</time>
      </trkpt>
      <trkpt lat="45.67946" lon="3.01508">
        <ele>879</ele>
        <time>2019-06-23T08:45:42.000Z</time>
      </trkpt>
      <trkpt lat="45.67947" lon="3.01515">
        <ele>880</ele>
        <time>2019-06-23T08:45:43.000Z</time>
      </trkpt>
      <trkpt lat="45.67948" lon="3.01523">
        <ele>880</ele>
        <time>2019-06-23T08:45:44.000Z</time>
      </trkpt>
      <trkpt lat="45.67949" lon="3.01531">
        <ele>879</ele>
        <time>2019-06-23T08:45:45.000Z</time>
      </trkpt>
      <trkpt lat="45.6795" lon="3.01539">
        <ele>880</ele>
        <time>2019-06-23T08:45:46.000Z</time>
      </trkpt>
      <trkpt lat="45.67951" lon="3.01547">
        <ele>880</ele>
        <time>2019-06-23T08:45:47.000Z</time>
      </trkpt>
      <trkpt lat="45.67952" lon="3.01555">
        <ele>879</ele>
        <time>2019-06-23T08:45:48.000Z</time>
      </trkpt>
      <trkpt lat="45.67957" lon="3.01562">
        <ele>875</ele>
        <time>2019-06-23T08:45:49.000Z</time>
      </trkpt>
      <trkpt lat="45.67959" lon="3.01569">
        <ele>874</ele>
        <time>2019-06-23T08:45:50.000Z</time>
      </trkpt>
      <trkpt lat="45.6796" lon="3.01577">
        <ele>874</ele>
        <time>2019-06-23T08:45:51.000Z</time>
      </trkpt>
      <trkpt lat="45.67961" lon="3.01584">
        <ele>875</ele>
        <time>2019-06-23T08:45:52.000Z</time>
      </trkpt>
      <trkpt lat="45.67961" lon="3.01592">
        <ele>874</ele>
        <time>2019-06-23T08:45:53.000Z</time>
      </trkpt>
      <trkpt lat="45.67959" lon="3.016">
        <ele>874</ele>
        <time>2019-06-23T08:45:54.000Z</time>
      </trkpt>
      <trkpt lat="45.67956" lon="3.01608">
        <ele>874</ele>
        <time>2019-06-23T08:45:55.000Z</time>
      </trkpt>
      <trkpt lat="45.67956" lon="3.01615">
        <ele>874</ele>
        <time>2019-06-23T08:45:56.000Z</time>
      </trkpt>
      <trkpt lat="45.67956" lon="3.01622">
        <ele>874</ele>
        <time>2019-06-23T08:45:57.000Z</time>
      </trkpt>
      <trkpt lat="45.67956" lon="3.01629">
        <ele>874</ele>
        <time>2019-06-23T08:45:58.000Z</time>
      </trkpt>
      <trkpt lat="45.67955" lon="3.01635">
        <ele>874</ele>
        <time>2019-06-23T08:45:59.000Z</time>
      </trkpt>
      <trkpt lat="45.67952" lon="3.01641">
        <ele>878</ele>
        <time>2019-06-23T08:46:00.000Z</time>
      </trkpt>
      <trkpt lat="45.67951" lon="3.01646">
        <ele>879</ele>
        <time>2019-06-23T08:46:01.000Z</time>
      </trkpt>
      <trkpt lat="45.67948" lon="3.01651">
        <ele>881</ele>
        <time>2019-06-23T08:46:02.000Z</time>
      </trkpt>
      <trkpt lat="45.67947" lon="3.01656">
        <ele>882</ele>
        <time>2019-06-23T08:46:03.000Z</time>
      </trkpt>
      <trkpt lat="45.67945" lon="3.0166">
        <ele>883</ele>
        <time>2019-06-23T08:46:04.000Z</time>
      </trkpt>
      <trkpt lat="45.67944" lon="3.01666">
        <ele>884</ele>
        <time>2019-06-23T08:46:05.000Z</time>
      </trkpt>
      <trkpt lat="45.67942" lon="3.01673">
        <ele>886</ele>
        <time>2019-06-23T08:46:06.000Z</time>
      </trkpt>
      <trkpt lat="45.67941" lon="3.01679">
        <ele>886</ele>
        <time>2019-06-23T08:46:07.000Z</time>
      </trkpt>
      <trkpt lat="45.67941" lon="3.01685">
        <ele>886</ele>
        <time>2019-06-23T08:46:08.000Z</time>
      </trkpt>
      <trkpt lat="45.6794" lon="3.0169">
        <ele>887</ele>
        <time>2019-06-23T08:46:09.000Z</time>
      </trkpt>
      <trkpt lat="45.67941" lon="3.01696">
        <ele>887</ele>
        <time>2019-06-23T08:46:10.000Z</time>
      </trkpt>
      <trkpt lat="45.67939" lon="3.01701">
        <ele>888</ele>
        <time>2019-06-23T08:46:11.000Z</time>
      </trkpt>
      <trkpt lat="45.67939" lon="3.01706">
        <ele>887</ele>
        <time>2019-06-23T08:46:12.000Z</time>
      </trkpt>
      <trkpt lat="45.67938" lon="3.01711">
        <ele>888</ele>
        <time>2019-06-23T08:46:13.000Z</time>
      </trkpt>
      <trkpt lat="45.67937" lon="3.01716">
        <ele>888</ele>
        <time>2019-06-23T08:46:14.000Z</time>
      </trkpt>
      <trkpt lat="45.67936" lon="3.01721">
        <ele>890</ele>
        <time>2019-06-23T08:46:15.000Z</time>
      </trkpt>
      <trkpt lat="45.67935" lon="3.01726">
        <ele>890</ele>
        <time>2019-06-23T08:46:16.000Z</time>
      </trkpt>
      <trkpt lat="45.67934" lon="3.01731">
        <ele>891</ele>
        <time>2019-06-23T08:46:17.000Z</time>
      </trkpt>
      <trkpt lat="45.67933" lon="3.01736">
        <ele>892</ele>
        <time>2019-06-23T08:46:18.000Z</time>
      </trkpt>
      <trkpt lat="45.67931" lon="3.01741">
        <ele>892</ele>
        <time>2019-06-23T08:46:19.000Z</time>
      </trkpt>
      <trkpt lat="45.6793" lon="3.01746">
        <ele>893</ele>
        <time>2019-06-23T08:46:20.000Z</time>
      </trkpt>
      <trkpt lat="45.67929" lon="3.0175">
        <ele>893</ele>
        <time>2019-06-23T08:46:21.000Z</time>
      </trkpt>
      <trkpt lat="45.67928" lon="3.01755">
        <ele>893</ele>
        <time>2019-06-23T08:46:22.000Z</time>
      </trkpt>
      <trkpt lat="45.67926" lon="3.0176">
        <ele>893</ele>
        <time>2019-06-23T08:46:23.000Z</time>
      </trkpt>
      <trkpt lat="45.67925" lon="3.01766">
        <ele>894</ele>
        <time>2019-06-23T08:46:24.000Z</time>
      </trkpt>
      <trkpt lat="45.67923" lon="3.01771">
        <ele>894</ele>
        <time>2019-06-23T08:46:25.000Z</time>
      </trkpt>
      <trkpt lat="45.67922" lon="3.01777">
        <ele>895</ele>
        <time>2019-06-23T08:46:26.000Z</time>
      </trkpt>
      <trkpt lat="45.6792" lon="3.01781">
        <ele>897</ele>
        <time>2019-06-23T08:46:27.000Z</time>
      </trkpt>
      <trkpt lat="45.67918" lon="3.01787">
        <ele>898</ele>
        <time>2019-06-23T08:46:28.000Z</time>
      </trkpt>
      <trkpt lat="45.67916" lon="3.01794">
        <ele>898</ele>
        <time>2019-06-23T08:46:29.000Z</time>
      </trkpt>
      <trkpt lat="45.67915" lon="3.018">
        <ele>899</ele>
        <time>2019-06-23T08:46:30.000Z</time>
      </trkpt>
      <trkpt lat="45.67914" lon="3.01806">
        <ele>899</ele>
        <time>2019-06-23T08:46:31.000Z</time>
      </trkpt>
      <trkpt lat="45.67914" lon="3.01812">
        <ele>899</ele>
        <time>2019-06-23T08:46:32.000Z</time>
      </trkpt>
      <trkpt lat="45.67913" lon="3.01817">
        <ele>899</ele>
        <time>2019-06-23T08:46:33.000Z</time>
      </trkpt>
      <trkpt lat="45.67912" lon="3.01823">
        <ele>898</ele>
        <time>2019-06-23T08:46:34.000Z</time>
      </trkpt>
      <trkpt lat="45.67911" lon="3.01828">
        <ele>899</ele>
        <time>2019-06-23T08:46:35.000Z</time>
      </trkpt>
      <trkpt lat="45.67909" lon="3.01834">
        <ele>898</ele>
        <time>2019-06-23T08:46:36.000Z</time>
      </trkpt>
      <trkpt lat="45.67908" lon="3.01839">
        <ele>898</ele>
        <time>2019-06-23T08:46:37.000Z</time>
      </trkpt>
      <trkpt lat="45.67907" lon="3.01846">
        <ele>898</ele>
        <time>2019-06-23T08:46:38.000Z</time>
      </trkpt>
      <trkpt lat="45.67906" lon="3.01852">
        <ele>898</ele>
        <time>2019-06-23T08:46:39.000Z</time>
      </trkpt>
      <trkpt lat="45.67904" lon="3.01859">
        <ele>898</ele>
        <time>2019-06-23T08:46:40.000Z</time>
      </trkpt>
      <trkpt lat="45.67903" lon="3.01866">
        <ele>897</ele>
        <time>2019-06-23T08:46:41.000Z</time>
      </trkpt>
      <trkpt lat="45.67901" lon="3.01873">
        <ele>897</ele>
        <time>2019-06-23T08:46:42.000Z</time>
      </trkpt>
      <trkpt lat="45.679" lon="3.0188">
        <ele>897</ele>
        <time>2019-06-23T08:46:43.000Z</time>
      </trkpt>
      <trkpt lat="45.67899" lon="3.01887">
        <ele>897</ele>
        <time>2019-06-23T08:46:44.000Z</time>
      </trkpt>
      <trkpt lat="45.67897" lon="3.01894">
        <ele>897</ele>
        <time>2019-06-23T08:46:45.000Z</time>
      </trkpt>
      <trkpt lat="45.67896" lon="3.019">
        <ele>896</ele>
        <time>2019-06-23T08:46:46.000Z</time>
      </trkpt>
      <trkpt lat="45.67895" lon="3.01904">
        <ele>896</ele>
        <time>2019-06-23T08:46:47.000Z</time>
      </trkpt>
      <trkpt lat="45.67894" lon="3.01906">
        <ele>896</ele>
        <time>2019-06-23T08:46:48.000Z</time>
      </trkpt>
      <trkpt lat="45.67892" lon="3.01905">
        <ele>896</ele>
        <time>2019-06-23T08:46:49.000Z</time>
      </trkpt>
      <trkpt lat="45.6789" lon="3.01903">
        <ele>895</ele>
        <time>2019-06-23T08:46:50.000Z</time>
      </trkpt>
      <trkpt lat="45.67888" lon="3.019">
        <ele>894</ele>
        <time>2019-06-23T08:46:51.000Z</time>
      </trkpt>
      <trkpt lat="45.67886" lon="3.01897">
        <ele>894</ele>
        <time>2019-06-23T08:46:52.000Z</time>
      </trkpt>
      <trkpt lat="45.67884" lon="3.01895">
        <ele>894</ele>
        <time>2019-06-23T08:46:53.000Z</time>
      </trkpt>
      <trkpt lat="45.67884" lon="3.01893">
        <ele>893</ele>
        <time>2019-06-23T08:46:54.000Z</time>
      </trkpt>
      <trkpt lat="45.67884" lon="3.01892">
        <ele>892</ele>
        <time>2019-06-23T08:46:55.000Z</time>
      </trkpt>
      <trkpt lat="45.67884" lon="3.0189">
        <ele>892</ele>
        <time>2019-06-23T08:46:56.000Z</time>
      </trkpt>
      <trkpt lat="45.67883" lon="3.01889">
        <ele>892</ele>
        <time>2019-06-23T08:46:57.000Z</time>
      </trkpt>
      <trkpt lat="45.67882" lon="3.01887">
        <ele>892</ele>
        <time>2019-06-23T08:46:58.000Z</time>
      </trkpt>
      <trkpt lat="45.67882" lon="3.01886">
        <ele>892</ele>
        <time>2019-06-23T08:46:59.000Z</time>
      </trkpt>
      <trkpt lat="45.67881" lon="3.01884">
        <ele>892</ele>
        <time>2019-06-23T08:47:00.000Z</time>
      </trkpt>
      <trkpt lat="45.6788" lon="3.01882">
        <ele>892</ele>
        <time>2019-06-23T08:47:01.000Z</time>
      </trkpt>
      <trkpt lat="45.67879" lon="3.0188">
        <ele>892</ele>
        <time>2019-06-23T08:47:02.000Z</time>
      </trkpt>
      <trkpt lat="45.67878" lon="3.01877">
        <ele>891</ele>
        <time>2019-06-23T08:47:03.000Z</time>
      </trkpt>
      <trkpt lat="45.67877" lon="3.01875">
        <ele>891</ele>
        <time>2019-06-23T08:47:04.000Z</time>
      </trkpt>
      <trkpt lat="45.67876" lon="3.01872">
        <ele>891</ele>
        <time>2019-06-23T08:47:05.000Z</time>
      </trkpt>
      <trkpt lat="45.67875" lon="3.01868">
        <ele>891</ele>
        <time>2019-06-23T08:47:06.000Z</time>
      </trkpt>
      <trkpt lat="45.67874" lon="3.01864">
        <ele>890</ele>
        <time>2019-06-23T08:47:07.000Z</time>
      </trkpt>
      <trkpt lat="45.67874" lon="3.0186">
        <ele>890</ele>
        <time>2019-06-23T08:47:08.000Z</time>
      </trkpt>
      <trkpt lat="45.67874" lon="3.01855">
        <ele>890</ele>
        <time>2019-06-23T08:47:09.000Z</time>
      </trkpt>
      <trkpt lat="45.67873" lon="3.0185">
        <ele>889</ele>
        <time>2019-06-23T08:47:10.000Z</time>
      </trkpt>
      <trkpt lat="45.67872" lon="3.01844">
        <ele>888</ele>
        <time>2019-06-23T08:47:11.000Z</time>
      </trkpt>
      <trkpt lat="45.6787" lon="3.01836">
        <ele>888</ele>
        <time>2019-06-23T08:47:12.000Z</time>
      </trkpt>
      <trkpt lat="45.67869" lon="3.01828">
        <ele>887</ele>
        <time>2019-06-23T08:47:13.000Z</time>
      </trkpt>
      <trkpt lat="45.67866" lon="3.01819">
        <ele>886</ele>
        <time>2019-06-23T08:47:14.000Z</time>
      </trkpt>
      <trkpt lat="45.67861" lon="3.01809">
        <ele>885</ele>
        <time>2019-06-23T08:47:15.000Z</time>
      </trkpt>
      <trkpt lat="45.67856" lon="3.018">
        <ele>883</ele>
        <time>2019-06-23T08:47:16.000Z</time>
      </trkpt>
      <trkpt lat="45.6785" lon="3.01791">
        <ele>882</ele>
        <time>2019-06-23T08:47:17.000Z</time>
      </trkpt>
      <trkpt lat="45.67844" lon="3.01781">
        <ele>880</ele>
        <time>2019-06-23T08:47:18.000Z</time>
      </trkpt>
      <trkpt lat="45.67836" lon="3.01772">
        <ele>880</ele>
        <time>2019-06-23T08:47:19.000Z</time>
      </trkpt>
      <trkpt lat="45.67828" lon="3.01763">
        <ele>880</ele>
        <time>2019-06-23T08:47:20.000Z</time>
      </trkpt>
      <trkpt lat="45.67821" lon="3.01754">
        <ele>878</ele>
        <time>2019-06-23T08:47:21.000Z</time>
      </trkpt>
      <trkpt lat="45.67815" lon="3.01743">
        <ele>877</ele>
        <time>2019-06-23T08:47:22.000Z</time>
      </trkpt>
      <trkpt lat="45.6781" lon="3.01732">
        <ele>875</ele>
        <time>2019-06-23T08:47:23.000Z</time>
      </trkpt>
      <trkpt lat="45.67805" lon="3.01721">
        <ele>874</ele>
        <time>2019-06-23T08:47:24.000Z</time>
      </trkpt>
      <trkpt lat="45.678" lon="3.01711">
        <ele>873</ele>
        <time>2019-06-23T08:47:25.000Z</time>
      </trkpt>
      <trkpt lat="45.67796" lon="3.01701">
        <ele>872</ele>
        <time>2019-06-23T08:47:26.000Z</time>
      </trkpt>
      <trkpt lat="45.67793" lon="3.01695">
        <ele>872</ele>
        <time>2019-06-23T08:47:27.000Z</time>
      </trkpt>
      <trkpt lat="45.67789" lon="3.01691">
        <ele>871</ele>
        <time>2019-06-23T08:47:28.000Z</time>
      </trkpt>
      <trkpt lat="45.67784" lon="3.01694">
        <ele>872</ele>
        <time>2019-06-23T08:47:29.000Z</time>
      </trkpt>
      <trkpt lat="45.67778" lon="3.01694">
        <ele>871</ele>
        <time>2019-06-23T08:47:30.000Z</time>
      </trkpt>
      <trkpt lat="45.67772" lon="3.01694">
        <ele>872</ele>
        <time>2019-06-23T08:47:31.000Z</time>
      </trkpt>
      <trkpt lat="45.67767" lon="3.01695">
        <ele>871</ele>
        <time>2019-06-23T08:47:32.000Z</time>
      </trkpt>
      <trkpt lat="45.67762" lon="3.01697">
        <ele>871</ele>
        <time>2019-06-23T08:47:33.000Z</time>
      </trkpt>
      <trkpt lat="45.67757" lon="3.01698">
        <ele>870</ele>
        <time>2019-06-23T08:47:34.000Z</time>
      </trkpt>
      <trkpt lat="45.67751" lon="3.01697">
        <ele>870</ele>
        <time>2019-06-23T08:47:35.000Z</time>
      </trkpt>
      <trkpt lat="45.67745" lon="3.01696">
        <ele>870</ele>
        <time>2019-06-23T08:47:36.000Z</time>
      </trkpt>
      <trkpt lat="45.6774" lon="3.01693">
        <ele>869</ele>
        <time>2019-06-23T08:47:37.000Z</time>
      </trkpt>
      <trkpt lat="45.67734" lon="3.01688">
        <ele>869</ele>
        <time>2019-06-23T08:47:38.000Z</time>
      </trkpt>
      <trkpt lat="45.67729" lon="3.01683">
        <ele>868</ele>
        <time>2019-06-23T08:47:39.000Z</time>
      </trkpt>
      <trkpt lat="45.67723" lon="3.01677">
        <ele>868</ele>
        <time>2019-06-23T08:47:40.000Z</time>
      </trkpt>
      <trkpt lat="45.67717" lon="3.01672">
        <ele>867</ele>
        <time>2019-06-23T08:47:41.000Z</time>
      </trkpt>
      <trkpt lat="45.67711" lon="3.01666">
        <ele>866</ele>
        <time>2019-06-23T08:47:42.000Z</time>
      </trkpt>
      <trkpt lat="45.67703" lon="3.01662">
        <ele>866</ele>
        <time>2019-06-23T08:47:43.000Z</time>
      </trkpt>
      <trkpt lat="45.67695" lon="3.01658">
        <ele>866</ele>
        <time>2019-06-23T08:47:44.000Z</time>
      </trkpt>
      <trkpt lat="45.67687" lon="3.01654">
        <ele>867</ele>
        <time>2019-06-23T08:47:45.000Z</time>
      </trkpt>
      <trkpt lat="45.67681" lon="3.01649">
        <ele>867</ele>
        <time>2019-06-23T08:47:46.000Z</time>
      </trkpt>
      <trkpt lat="45.67675" lon="3.01644">
        <ele>867</ele>
        <time>2019-06-23T08:47:47.000Z</time>
      </trkpt>
      <trkpt lat="45.67668" lon="3.01639">
        <ele>867</ele>
        <time>2019-06-23T08:47:48.000Z</time>
      </trkpt>
      <trkpt lat="45.67662" lon="3.01633">
        <ele>867</ele>
        <time>2019-06-23T08:47:49.000Z</time>
      </trkpt>
      <trkpt lat="45.67656" lon="3.01627">
        <ele>866</ele>
        <time>2019-06-23T08:47:50.000Z</time>
      </trkpt>
      <trkpt lat="45.67649" lon="3.01621">
        <ele>866</ele>
        <time>2019-06-23T08:47:51.000Z</time>
      </trkpt>
      <trkpt lat="45.67642" lon="3.01614">
        <ele>865</ele>
        <time>2019-06-23T08:47:52.000Z</time>
      </trkpt>
      <trkpt lat="45.67636" lon="3.01608">
        <ele>865</ele>
        <time>2019-06-23T08:47:53.000Z</time>
      </trkpt>
      <trkpt lat="45.67629" lon="3.01603">
        <ele>865</ele>
        <time>2019-06-23T08:47:54.000Z</time>
      </trkpt>
      <trkpt lat="45.67623" lon="3.01598">
        <ele>865</ele>
        <time>2019-06-23T08:47:55.000Z</time>
      </trkpt>
      <trkpt lat="45.67617" lon="3.01593">
        <ele>864</ele>
        <time>2019-06-23T08:47:56.000Z</time>
      </trkpt>
      <trkpt lat="45.67611" lon="3.01587">
        <ele>864</ele>
        <time>2019-06-23T08:47:57.000Z</time>
      </trkpt>
      <trkpt lat="45.67606" lon="3.01581">
        <ele>864</ele>
        <time>2019-06-23T08:47:58.000Z</time>
      </trkpt>
      <trkpt lat="45.676" lon="3.01576">
        <ele>863</ele>
        <time>2019-06-23T08:47:59.000Z</time>
      </trkpt>
      <trkpt lat="45.67594" lon="3.01573">
        <ele>863</ele>
        <time>2019-06-23T08:48:00.000Z</time>
      </trkpt>
      <trkpt lat="45.67587" lon="3.01571">
        <ele>862</ele>
        <time>2019-06-23T08:48:01.000Z</time>
      </trkpt>
      <trkpt lat="45.6758" lon="3.0157">
        <ele>862</ele>
        <time>2019-06-23T08:48:02.000Z</time>
      </trkpt>
      <trkpt lat="45.67573" lon="3.01571">
        <ele>862</ele>
        <time>2019-06-23T08:48:03.000Z</time>
      </trkpt>
      <trkpt lat="45.67566" lon="3.01571">
        <ele>861</ele>
        <time>2019-06-23T08:48:04.000Z</time>
      </trkpt>
      <trkpt lat="45.67563" lon="3.01571">
        <ele>859</ele>
        <time>2019-06-23T08:48:05.000Z</time>
      </trkpt>
      <trkpt lat="45.67562" lon="3.01571">
        <ele>858</ele>
        <time>2019-06-23T08:48:06.000Z</time>
      </trkpt>
      <trkpt lat="45.67559" lon="3.01573">
        <ele>860</ele>
        <time>2019-06-23T08:48:07.000Z</time>
      </trkpt>
      <trkpt lat="45.67558" lon="3.01574">
        <ele>860</ele>
        <time>2019-06-23T08:48:08.000Z</time>
      </trkpt>
      <trkpt lat="45.67556" lon="3.01575">
        <ele>861</ele>
        <time>2019-06-23T08:48:09.000Z</time>
      </trkpt>
      <trkpt lat="45.67554" lon="3.01576">
        <ele>860</ele>
        <time>2019-06-23T08:48:10.000Z</time>
      </trkpt>
      <trkpt lat="45.67552" lon="3.01579">
        <ele>860</ele>
        <time>2019-06-23T08:48:11.000Z</time>
      </trkpt>
      <trkpt lat="45.67549" lon="3.01581">
        <ele>860</ele>
        <time>2019-06-23T08:48:12.000Z</time>
      </trkpt>
      <trkpt lat="45.67545" lon="3.01584">
        <ele>859</ele>
        <time>2019-06-23T08:48:13.000Z</time>
      </trkpt>
      <trkpt lat="45.67541" lon="3.01587">
        <ele>858</ele>
        <time>2019-06-23T08:48:14.000Z</time>
      </trkpt>
      <trkpt lat="45.67535" lon="3.01591">
        <ele>860</ele>
        <time>2019-06-23T08:48:15.000Z</time>
      </trkpt>
      <trkpt lat="45.67529" lon="3.01595">
        <ele>860</ele>
        <time>2019-06-23T08:48:16.000Z</time>
      </trkpt>
      <trkpt lat="45.67522" lon="3.01598">
        <ele>859</ele>
        <time>2019-06-23T08:48:17.000Z</time>
      </trkpt>
      <trkpt lat="45.67515" lon="3.01601">
        <ele>859</ele>
        <time>2019-06-23T08:48:18.000Z</time>
      </trkpt>
      <trkpt lat="45.67507" lon="3.01606">
        <ele>859</ele>
        <time>2019-06-23T08:48:19.000Z</time>
      </trkpt>
      <trkpt lat="45.67499" lon="3.01611">
        <ele>859</ele>
        <time>2019-06-23T08:48:20.000Z</time>
      </trkpt>
      <trkpt lat="45.6749" lon="3.01617">
        <ele>857</ele>
        <time>2019-06-23T08:48:21.000Z</time>
      </trkpt>
      <trkpt lat="45.67482" lon="3.01624">
        <ele>856</ele>
        <time>2019-06-23T08:48:22.000Z</time>
      </trkpt>
      <trkpt lat="45.67473" lon="3.0163">
        <ele>855</ele>
        <time>2019-06-23T08:48:23.000Z</time>
      </trkpt>
      <trkpt lat="45.67463" lon="3.01635">
        <ele>853</ele>
        <time>2019-06-23T08:48:24.000Z</time>
      </trkpt>
      <trkpt lat="45.67453" lon="3.01638">
        <ele>851</ele>
        <time>2019-06-23T08:48:25.000Z</time>
      </trkpt>
      <trkpt lat="45.67441" lon="3.01643">
        <ele>850</ele>
        <time>2019-06-23T08:48:26.000Z</time>
      </trkpt>
      <trkpt lat="45.6743" lon="3.01648">
        <ele>849</ele>
        <time>2019-06-23T08:48:27.000Z</time>
      </trkpt>
      <trkpt lat="45.67419" lon="3.01652">
        <ele>848</ele>
        <time>2019-06-23T08:48:28.000Z</time>
      </trkpt>
      <trkpt lat="45.67409" lon="3.01657">
        <ele>847</ele>
        <time>2019-06-23T08:48:29.000Z</time>
      </trkpt>
      <trkpt lat="45.67399" lon="3.01663">
        <ele>847</ele>
        <time>2019-06-23T08:48:30.000Z</time>
      </trkpt>
      <trkpt lat="45.67389" lon="3.01669">
        <ele>846</ele>
        <time>2019-06-23T08:48:31.000Z</time>
      </trkpt>
      <trkpt lat="45.67379" lon="3.01675">
        <ele>845</ele>
        <time>2019-06-23T08:48:32.000Z</time>
      </trkpt>
      <trkpt lat="45.6737" lon="3.01682">
        <ele>845</ele>
        <time>2019-06-23T08:48:33.000Z</time>
      </trkpt>
      <trkpt lat="45.67361" lon="3.01689">
        <ele>844</ele>
        <time>2019-06-23T08:48:34.000Z</time>
      </trkpt>
      <trkpt lat="45.67353" lon="3.01698">
        <ele>843</ele>
        <time>2019-06-23T08:48:35.000Z</time>
      </trkpt>
      <trkpt lat="45.67344" lon="3.01707">
        <ele>842</ele>
        <time>2019-06-23T08:48:36.000Z</time>
      </trkpt>
      <trkpt lat="45.67336" lon="3.01716">
        <ele>841</ele>
        <time>2019-06-23T08:48:37.000Z</time>
      </trkpt>
      <trkpt lat="45.67327" lon="3.01725">
        <ele>841</ele>
        <time>2019-06-23T08:48:38.000Z</time>
      </trkpt>
      <trkpt lat="45.67319" lon="3.01734">
        <ele>840</ele>
        <time>2019-06-23T08:48:39.000Z</time>
      </trkpt>
      <trkpt lat="45.6731" lon="3.01744">
        <ele>840</ele>
        <time>2019-06-23T08:48:40.000Z</time>
      </trkpt>
      <trkpt lat="45.67301" lon="3.01753">
        <ele>839</ele>
        <time>2019-06-23T08:48:41.000Z</time>
      </trkpt>
      <trkpt lat="45.67292" lon="3.01762">
        <ele>838</ele>
        <time>2019-06-23T08:48:42.000Z</time>
      </trkpt>
      <trkpt lat="45.67283" lon="3.01771">
        <ele>838</ele>
        <time>2019-06-23T08:48:43.000Z</time>
      </trkpt>
      <trkpt lat="45.67273" lon="3.01779">
        <ele>838</ele>
        <time>2019-06-23T08:48:44.000Z</time>
      </trkpt>
      <trkpt lat="45.67263" lon="3.01787">
        <ele>837</ele>
        <time>2019-06-23T08:48:45.000Z</time>
      </trkpt>
      <trkpt lat="45.67254" lon="3.01794">
        <ele>837</ele>
        <time>2019-06-23T08:48:46.000Z</time>
      </trkpt>
      <trkpt lat="45.67244" lon="3.01801">
        <ele>836</ele>
        <time>2019-06-23T08:48:47.000Z</time>
      </trkpt>
      <trkpt lat="45.67234" lon="3.01808">
        <ele>835</ele>
        <time>2019-06-23T08:48:48.000Z</time>
      </trkpt>
      <trkpt lat="45.67224" lon="3.01815">
        <ele>835</ele>
        <time>2019-06-23T08:48:49.000Z</time>
      </trkpt>
      <trkpt lat="45.67215" lon="3.01822">
        <ele>835</ele>
        <time>2019-06-23T08:48:50.000Z</time>
      </trkpt>
      <trkpt lat="45.67206" lon="3.01828">
        <ele>835</ele>
        <time>2019-06-23T08:48:51.000Z</time>
      </trkpt>
      <trkpt lat="45.67197" lon="3.01834">
        <ele>834</ele>
        <time>2019-06-23T08:48:52.000Z</time>
      </trkpt>
      <trkpt lat="45.67188" lon="3.01839">
        <ele>834</ele>
        <time>2019-06-23T08:48:53.000Z</time>
      </trkpt>
      <trkpt lat="45.67181" lon="3.01843">
        <ele>834</ele>
        <time>2019-06-23T08:48:54.000Z</time>
      </trkpt>
      <trkpt lat="45.67174" lon="3.01845">
        <ele>834</ele>
        <time>2019-06-23T08:48:55.000Z</time>
      </trkpt>
      <trkpt lat="45.67168" lon="3.01848">
        <ele>834</ele>
        <time>2019-06-23T08:48:56.000Z</time>
      </trkpt>
      <trkpt lat="45.67165" lon="3.01855">
        <ele>835</ele>
        <time>2019-06-23T08:48:57.000Z</time>
      </trkpt>
      <trkpt lat="45.67163" lon="3.01862">
        <ele>835</ele>
        <time>2019-06-23T08:48:58.000Z</time>
      </trkpt>
      <trkpt lat="45.67161" lon="3.0187">
        <ele>835</ele>
        <time>2019-06-23T08:48:59.000Z</time>
      </trkpt>
      <trkpt lat="45.6716" lon="3.01879">
        <ele>835</ele>
        <time>2019-06-23T08:49:00.000Z</time>
      </trkpt>
      <trkpt lat="45.67158" lon="3.01888">
        <ele>835</ele>
        <time>2019-06-23T08:49:01.000Z</time>
      </trkpt>
      <trkpt lat="45.67156" lon="3.01897">
        <ele>835</ele>
        <time>2019-06-23T08:49:02.000Z</time>
      </trkpt>
      <trkpt lat="45.67154" lon="3.01907">
        <ele>835</ele>
        <time>2019-06-23T08:49:03.000Z</time>
      </trkpt>
      <trkpt lat="45.67151" lon="3.01917">
        <ele>834</ele>
        <time>2019-06-23T08:49:04.000Z</time>
      </trkpt>
      <trkpt lat="45.67148" lon="3.01929">
        <ele>833</ele>
        <time>2019-06-23T08:49:05.000Z</time>
      </trkpt>
      <trkpt lat="45.67145" lon="3.0194">
        <ele>833</ele>
        <time>2019-06-23T08:49:06.000Z</time>
      </trkpt>
      <trkpt lat="45.67142" lon="3.01951">
        <ele>833</ele>
        <time>2019-06-23T08:49:07.000Z</time>
      </trkpt>
      <trkpt lat="45.6714" lon="3.01962">
        <ele>832</ele>
        <time>2019-06-23T08:49:08.000Z</time>
      </trkpt>
      <trkpt lat="45.67137" lon="3.01973">
        <ele>832</ele>
        <time>2019-06-23T08:49:09.000Z</time>
      </trkpt>
      <trkpt lat="45.67133" lon="3.01984">
        <ele>832</ele>
        <time>2019-06-23T08:49:10.000Z</time>
      </trkpt>
      <trkpt lat="45.67128" lon="3.01996">
        <ele>831</ele>
        <time>2019-06-23T08:49:11.000Z</time>
      </trkpt>
      <trkpt lat="45.67124" lon="3.02007">
        <ele>830</ele>
        <time>2019-06-23T08:49:12.000Z</time>
      </trkpt>
      <trkpt lat="45.6712" lon="3.02019">
        <ele>829</ele>
        <time>2019-06-23T08:49:13.000Z</time>
      </trkpt>
      <trkpt lat="45.67117" lon="3.02031">
        <ele>828</ele>
        <time>2019-06-23T08:49:14.000Z</time>
      </trkpt>
      <trkpt lat="45.67114" lon="3.02044">
        <ele>827</ele>
        <time>2019-06-23T08:49:15.000Z</time>
      </trkpt>
      <trkpt lat="45.67112" lon="3.02059">
        <ele>827</ele>
        <time>2019-06-23T08:49:16.000Z</time>
      </trkpt>
      <trkpt lat="45.67109" lon="3.02073">
        <ele>826</ele>
        <time>2019-06-23T08:49:17.000Z</time>
      </trkpt>
      <trkpt lat="45.67106" lon="3.02088">
        <ele>825</ele>
        <time>2019-06-23T08:49:18.000Z</time>
      </trkpt>
      <trkpt lat="45.67104" lon="3.02102">
        <ele>825</ele>
        <time>2019-06-23T08:49:19.000Z</time>
      </trkpt>
      <trkpt lat="45.67101" lon="3.02117">
        <ele>824</ele>
        <time>2019-06-23T08:49:20.000Z</time>
      </trkpt>
      <trkpt lat="45.67098" lon="3.02131">
        <ele>824</ele>
        <time>2019-06-23T08:49:21.000Z</time>
      </trkpt>
      <trkpt lat="45.67094" lon="3.02146">
        <ele>823</ele>
        <time>2019-06-23T08:49:22.000Z</time>
      </trkpt>
      <trkpt lat="45.67089" lon="3.02162">
        <ele>823</ele>
        <time>2019-06-23T08:49:23.000Z</time>
      </trkpt>
      <trkpt lat="45.67086" lon="3.02177">
        <ele>822</ele>
        <time>2019-06-23T08:49:24.000Z</time>
      </trkpt>
      <trkpt lat="45.67082" lon="3.02192">
        <ele>822</ele>
        <time>2019-06-23T08:49:25.000Z</time>
      </trkpt>
      <trkpt lat="45.67079" lon="3.02207">
        <ele>822</ele>
        <time>2019-06-23T08:49:26.000Z</time>
      </trkpt>
      <trkpt lat="45.67076" lon="3.02222">
        <ele>822</ele>
        <time>2019-06-23T08:49:27.000Z</time>
      </trkpt>
      <trkpt lat="45.67073" lon="3.02236">
        <ele>822</ele>
        <time>2019-06-23T08:49:28.000Z</time>
      </trkpt>
      <trkpt lat="45.6707" lon="3.02251">
        <ele>821</ele>
        <time>2019-06-23T08:49:29.000Z</time>
      </trkpt>
      <trkpt lat="45.67068" lon="3.02264">
        <ele>821</ele>
        <time>2019-06-23T08:49:30.000Z</time>
      </trkpt>
      <trkpt lat="45.67066" lon="3.02277">
        <ele>821</ele>
        <time>2019-06-23T08:49:31.000Z</time>
      </trkpt>
      <trkpt lat="45.67063" lon="3.0229">
        <ele>821</ele>
        <time>2019-06-23T08:49:32.000Z</time>
      </trkpt>
      <trkpt lat="45.67061" lon="3.02303">
        <ele>821</ele>
        <time>2019-06-23T08:49:33.000Z</time>
      </trkpt>
      <trkpt lat="45.67059" lon="3.02315">
        <ele>821</ele>
        <time>2019-06-23T08:49:34.000Z</time>
      </trkpt>
      <trkpt lat="45.67057" lon="3.02328">
        <ele>821</ele>
        <time>2019-06-23T08:49:35.000Z</time>
      </trkpt>
      <trkpt lat="45.67055" lon="3.02341">
        <ele>821</ele>
        <time>2019-06-23T08:49:36.000Z</time>
      </trkpt>
      <trkpt lat="45.67053" lon="3.02354">
        <ele>821</ele>
        <time>2019-06-23T08:49:37.000Z</time>
      </trkpt>
      <trkpt lat="45.67051" lon="3.02366">
        <ele>820</ele>
        <time>2019-06-23T08:49:38.000Z</time>
      </trkpt>
      <trkpt lat="45.6705" lon="3.02378">
        <ele>820</ele>
        <time>2019-06-23T08:49:39.000Z</time>
      </trkpt>
      <trkpt lat="45.67048" lon="3.0239">
        <ele>821</ele>
        <time>2019-06-23T08:49:40.000Z</time>
      </trkpt>
      <trkpt lat="45.67045" lon="3.02402">
        <ele>821</ele>
        <time>2019-06-23T08:49:41.000Z</time>
      </trkpt>
      <trkpt lat="45.67043" lon="3.02413">
        <ele>821</ele>
        <time>2019-06-23T08:49:42.000Z</time>
      </trkpt>
      <trkpt lat="45.67039" lon="3.02424">
        <ele>821</ele>
        <time>2019-06-23T08:49:43.000Z</time>
      </trkpt>
      <trkpt lat="45.67036" lon="3.02435">
        <ele>821</ele>
        <time>2019-06-23T08:49:44.000Z</time>
      </trkpt>
      <trkpt lat="45.67032" lon="3.02446">
        <ele>820</ele>
        <time>2019-06-23T08:49:45.000Z</time>
      </trkpt>
      <trkpt lat="45.67028" lon="3.02457">
        <ele>820</ele>
        <time>2019-06-23T08:49:46.000Z</time>
      </trkpt>
      <trkpt lat="45.67024" lon="3.02468">
        <ele>819</ele>
        <time>2019-06-23T08:49:47.000Z</time>
      </trkpt>
      <trkpt lat="45.6702" lon="3.0248">
        <ele>818</ele>
        <time>2019-06-23T08:49:48.000Z</time>
      </trkpt>
      <trkpt lat="45.67016" lon="3.02493">
        <ele>818</ele>
        <time>2019-06-23T08:49:49.000Z</time>
      </trkpt>
      <trkpt lat="45.67012" lon="3.02506">
        <ele>818</ele>
        <time>2019-06-23T08:49:50.000Z</time>
      </trkpt>
      <trkpt lat="45.67008" lon="3.02518">
        <ele>817</ele>
        <time>2019-06-23T08:49:51.000Z</time>
      </trkpt>
      <trkpt lat="45.67003" lon="3.0253">
        <ele>817</ele>
        <time>2019-06-23T08:49:52.000Z</time>
      </trkpt>
      <trkpt lat="45.66997" lon="3.02542">
        <ele>816</ele>
        <time>2019-06-23T08:49:53.000Z</time>
      </trkpt>
      <trkpt lat="45.6699" lon="3.02553">
        <ele>814</ele>
        <time>2019-06-23T08:49:54.000Z</time>
      </trkpt>
      <trkpt lat="45.66983" lon="3.02563">
        <ele>812</ele>
        <time>2019-06-23T08:49:55.000Z</time>
      </trkpt>
      <trkpt lat="45.66975" lon="3.02573">
        <ele>811</ele>
        <time>2019-06-23T08:49:56.000Z</time>
      </trkpt>
      <trkpt lat="45.66968" lon="3.02583">
        <ele>809</ele>
        <time>2019-06-23T08:49:57.000Z</time>
      </trkpt>
      <trkpt lat="45.66961" lon="3.02592">
        <ele>809</ele>
        <time>2019-06-23T08:49:58.000Z</time>
      </trkpt>
      <trkpt lat="45.66953" lon="3.02599">
        <ele>808</ele>
        <time>2019-06-23T08:49:59.000Z</time>
      </trkpt>
      <trkpt lat="45.66945" lon="3.02604">
        <ele>807</ele>
        <time>2019-06-23T08:50:00.000Z</time>
      </trkpt>
      <trkpt lat="45.66936" lon="3.02606">
        <ele>807</ele>
        <time>2019-06-23T08:50:01.000Z</time>
      </trkpt>
      <trkpt lat="45.66928" lon="3.02604">
        <ele>808</ele>
        <time>2019-06-23T08:50:02.000Z</time>
      </trkpt>
      <trkpt lat="45.66921" lon="3.02604">
        <ele>808</ele>
        <time>2019-06-23T08:50:03.000Z</time>
      </trkpt>
      <trkpt lat="45.66913" lon="3.02604">
        <ele>807</ele>
        <time>2019-06-23T08:50:04.000Z</time>
      </trkpt>
      <trkpt lat="45.66905" lon="3.02605">
        <ele>807</ele>
        <time>2019-06-23T08:50:05.000Z</time>
      </trkpt>
      <trkpt lat="45.66896" lon="3.02605">
        <ele>806</ele>
        <time>2019-06-23T08:50:06.000Z</time>
      </trkpt>
      <trkpt lat="45.66887" lon="3.02604">
        <ele>805</ele>
        <time>2019-06-23T08:50:07.000Z</time>
      </trkpt>
      <trkpt lat="45.66879" lon="3.02602">
        <ele>805</ele>
        <time>2019-06-23T08:50:08.000Z</time>
      </trkpt>
      <trkpt lat="45.66869" lon="3.02599">
        <ele>804</ele>
        <time>2019-06-23T08:50:09.000Z</time>
      </trkpt>
      <trkpt lat="45.6686" lon="3.02594">
        <ele>803</ele>
        <time>2019-06-23T08:50:10.000Z</time>
      </trkpt>
      <trkpt lat="45.66851" lon="3.02588">
        <ele>802</ele>
        <time>2019-06-23T08:50:11.000Z</time>
      </trkpt>
      <trkpt lat="45.66841" lon="3.02582">
        <ele>801</ele>
        <time>2019-06-23T08:50:12.000Z</time>
      </trkpt>
      <trkpt lat="45.66832" lon="3.02575">
        <ele>800</ele>
        <time>2019-06-23T08:50:13.000Z</time>
      </trkpt>
      <trkpt lat="45.66822" lon="3.02567">
        <ele>799</ele>
        <time>2019-06-23T08:50:14.000Z</time>
      </trkpt>
      <trkpt lat="45.66812" lon="3.02559">
        <ele>798</ele>
        <time>2019-06-23T08:50:15.000Z</time>
      </trkpt>
      <trkpt lat="45.66801" lon="3.02551">
        <ele>796</ele>
        <time>2019-06-23T08:50:16.000Z</time>
      </trkpt>
      <trkpt lat="45.66791" lon="3.02544">
        <ele>794</ele>
        <time>2019-06-23T08:50:17.000Z</time>
      </trkpt>
      <trkpt lat="45.66779" lon="3.02536">
        <ele>793</ele>
        <time>2019-06-23T08:50:18.000Z</time>
      </trkpt>
      <trkpt lat="45.66768" lon="3.02529">
        <ele>792</ele>
        <time>2019-06-23T08:50:19.000Z</time>
      </trkpt>
      <trkpt lat="45.66756" lon="3.0252">
        <ele>790</ele>
        <time>2019-06-23T08:50:20.000Z</time>
      </trkpt>
      <trkpt lat="45.66744" lon="3.02512">
        <ele>788</ele>
        <time>2019-06-23T08:50:21.000Z</time>
      </trkpt>
      <trkpt lat="45.66732" lon="3.02502">
        <ele>787</ele>
        <time>2019-06-23T08:50:22.000Z</time>
      </trkpt>
      <trkpt lat="45.66721" lon="3.02492">
        <ele>786</ele>
        <time>2019-06-23T08:50:23.000Z</time>
      </trkpt>
      <trkpt lat="45.66708" lon="3.02483">
        <ele>785</ele>
        <time>2019-06-23T08:50:24.000Z</time>
      </trkpt>
      <trkpt lat="45.66696" lon="3.02475">
        <ele>784</ele>
        <time>2019-06-23T08:50:25.000Z</time>
      </trkpt>
      <trkpt lat="45.66684" lon="3.02468">
        <ele>782</ele>
        <time>2019-06-23T08:50:26.000Z</time>
      </trkpt>
      <trkpt lat="45.6667" lon="3.0246">
        <ele>781</ele>
        <time>2019-06-23T08:50:27.000Z</time>
      </trkpt>
      <trkpt lat="45.66657" lon="3.02452">
        <ele>780</ele>
        <time>2019-06-23T08:50:28.000Z</time>
      </trkpt>
      <trkpt lat="45.66643" lon="3.02444">
        <ele>780</ele>
        <time>2019-06-23T08:50:29.000Z</time>
      </trkpt>
      <trkpt lat="45.66629" lon="3.02438">
        <ele>780</ele>
        <time>2019-06-23T08:50:30.000Z</time>
      </trkpt>
      <trkpt lat="45.66616" lon="3.02432">
        <ele>779</ele>
        <time>2019-06-23T08:50:31.000Z</time>
      </trkpt>
      <trkpt lat="45.66603" lon="3.02426">
        <ele>778</ele>
        <time>2019-06-23T08:50:32.000Z</time>
      </trkpt>
      <trkpt lat="45.66591" lon="3.0242">
        <ele>778</ele>
        <time>2019-06-23T08:50:33.000Z</time>
      </trkpt>
      <trkpt lat="45.6658" lon="3.02413">
        <ele>778</ele>
        <time>2019-06-23T08:50:34.000Z</time>
      </trkpt>
      <trkpt lat="45.66569" lon="3.02407">
        <ele>776</ele>
        <time>2019-06-23T08:50:35.000Z</time>
      </trkpt>
      <trkpt lat="45.66559" lon="3.02403">
        <ele>774</ele>
        <time>2019-06-23T08:50:36.000Z</time>
      </trkpt>
      <trkpt lat="45.66551" lon="3.024">
        <ele>775</ele>
        <time>2019-06-23T08:50:37.000Z</time>
      </trkpt>
      <trkpt lat="45.66547" lon="3.02398">
        <ele>774</ele>
        <time>2019-06-23T08:50:38.000Z</time>
      </trkpt>
      <trkpt lat="45.66544" lon="3.02397">
        <ele>773</ele>
        <time>2019-06-23T08:50:39.000Z</time>
      </trkpt>
      <trkpt lat="45.66542" lon="3.02399">
        <ele>774</ele>
        <time>2019-06-23T08:50:40.000Z</time>
      </trkpt>
      <trkpt lat="45.66542" lon="3.02401">
        <ele>774</ele>
        <time>2019-06-23T08:50:41.000Z</time>
      </trkpt>
      <trkpt lat="45.66541" lon="3.02404">
        <ele>774</ele>
        <time>2019-06-23T08:50:42.000Z</time>
      </trkpt>
      <trkpt lat="45.66542" lon="3.02406">
        <ele>774</ele>
        <time>2019-06-23T08:50:43.000Z</time>
      </trkpt>
      <trkpt lat="45.66544" lon="3.02409">
        <ele>774</ele>
        <time>2019-06-23T08:50:44.000Z</time>
      </trkpt>
      <trkpt lat="45.66546" lon="3.02413">
        <ele>774</ele>
        <time>2019-06-23T08:50:45.000Z</time>
      </trkpt>
      <trkpt lat="45.66548" lon="3.02418">
        <ele>774</ele>
        <time>2019-06-23T08:50:46.000Z</time>
      </trkpt>
      <trkpt lat="45.66551" lon="3.02423">
        <ele>773</ele>
        <time>2019-06-23T08:50:47.000Z</time>
      </trkpt>
      <trkpt lat="45.66554" lon="3.02429">
        <ele>772</ele>
        <time>2019-06-23T08:50:48.000Z</time>
      </trkpt>
      <trkpt lat="45.66558" lon="3.02436">
        <ele>772</ele>
        <time>2019-06-23T08:50:49.000Z</time>
      </trkpt>
      <trkpt lat="45.66563" lon="3.02444">
        <ele>771</ele>
        <time>2019-06-23T08:50:50.000Z</time>
      </trkpt>
      <trkpt lat="45.66567" lon="3.02452">
        <ele>771</ele>
        <time>2019-06-23T08:50:51.000Z</time>
      </trkpt>
      <trkpt lat="45.66572" lon="3.02461">
        <ele>770</ele>
        <time>2019-06-23T08:50:52.000Z</time>
      </trkpt>
      <trkpt lat="45.66577" lon="3.02471">
        <ele>769</ele>
        <time>2019-06-23T08:50:53.000Z</time>
      </trkpt>
      <trkpt lat="45.66582" lon="3.02481">
        <ele>769</ele>
        <time>2019-06-23T08:50:54.000Z</time>
      </trkpt>
      <trkpt lat="45.66586" lon="3.02493">
        <ele>768</ele>
        <time>2019-06-23T08:50:55.000Z</time>
      </trkpt>
      <trkpt lat="45.66591" lon="3.02503">
        <ele>768</ele>
        <time>2019-06-23T08:50:56.000Z</time>
      </trkpt>
      <trkpt lat="45.66595" lon="3.02514">
        <ele>768</ele>
        <time>2019-06-23T08:50:57.000Z</time>
      </trkpt>
      <trkpt lat="45.666" lon="3.02524">
        <ele>769</ele>
        <time>2019-06-23T08:50:58.000Z</time>
      </trkpt>
      <trkpt lat="45.66606" lon="3.02532">
        <ele>769</ele>
        <time>2019-06-23T08:50:59.000Z</time>
      </trkpt>
      <trkpt lat="45.66612" lon="3.02539">
        <ele>769</ele>
        <time>2019-06-23T08:51:00.000Z</time>
      </trkpt>
      <trkpt lat="45.66618" lon="3.02545">
        <ele>770</ele>
        <time>2019-06-23T08:51:01.000Z</time>
      </trkpt>
      <trkpt lat="45.66624" lon="3.0255">
        <ele>770</ele>
        <time>2019-06-23T08:51:02.000Z</time>
      </trkpt>
      <trkpt lat="45.66629" lon="3.02555">
        <ele>771</ele>
        <time>2019-06-23T08:51:03.000Z</time>
      </trkpt>
      <trkpt lat="45.66633" lon="3.02561">
        <ele>772</ele>
        <time>2019-06-23T08:51:04.000Z</time>
      </trkpt>
      <trkpt lat="45.66637" lon="3.02567">
        <ele>772</ele>
        <time>2019-06-23T08:51:05.000Z</time>
      </trkpt>
      <trkpt lat="45.6664" lon="3.02573">
        <ele>773</ele>
        <time>2019-06-23T08:51:06.000Z</time>
      </trkpt>
      <trkpt lat="45.66642" lon="3.0258">
        <ele>773</ele>
        <time>2019-06-23T08:51:07.000Z</time>
      </trkpt>
      <trkpt lat="45.66645" lon="3.02586">
        <ele>774</ele>
        <time>2019-06-23T08:51:08.000Z</time>
      </trkpt>
      <trkpt lat="45.66646" lon="3.02593">
        <ele>774</ele>
        <time>2019-06-23T08:51:09.000Z</time>
      </trkpt>
      <trkpt lat="45.66647" lon="3.026">
        <ele>775</ele>
        <time>2019-06-23T08:51:10.000Z</time>
      </trkpt>
      <trkpt lat="45.66647" lon="3.02606">
        <ele>775</ele>
        <time>2019-06-23T08:51:11.000Z</time>
      </trkpt>
      <trkpt lat="45.66648" lon="3.02612">
        <ele>776</ele>
        <time>2019-06-23T08:51:12.000Z</time>
      </trkpt>
      <trkpt lat="45.66649" lon="3.02618">
        <ele>776</ele>
        <time>2019-06-23T08:51:13.000Z</time>
      </trkpt>
      <trkpt lat="45.6665" lon="3.02624">
        <ele>776</ele>
        <time>2019-06-23T08:51:14.000Z</time>
      </trkpt>
      <trkpt lat="45.66651" lon="3.02629">
        <ele>777</ele>
        <time>2019-06-23T08:51:15.000Z</time>
      </trkpt>
      <trkpt lat="45.66651" lon="3.02635">
        <ele>777</ele>
        <time>2019-06-23T08:51:16.000Z</time>
      </trkpt>
      <trkpt lat="45.66652" lon="3.02639">
        <ele>778</ele>
        <time>2019-06-23T08:51:17.000Z</time>
      </trkpt>
      <trkpt lat="45.66652" lon="3.02643">
        <ele>778</ele>
        <time>2019-06-23T08:51:18.000Z</time>
      </trkpt>
      <trkpt lat="45.66652" lon="3.02648">
        <ele>779</ele>
        <time>2019-06-23T08:51:19.000Z</time>
      </trkpt>
      <trkpt lat="45.66653" lon="3.02652">
        <ele>779</ele>
        <time>2019-06-23T08:51:20.000Z</time>
      </trkpt>
      <trkpt lat="45.66654" lon="3.02656">
        <ele>779</ele>
        <time>2019-06-23T08:51:21.000Z</time>
      </trkpt>
      <trkpt lat="45.66655" lon="3.02661">
        <ele>780</ele>
        <time>2019-06-23T08:51:22.000Z</time>
      </trkpt>
      <trkpt lat="45.66656" lon="3.02665">
        <ele>780</ele>
        <time>2019-06-23T08:51:23.000Z</time>
      </trkpt>
      <trkpt lat="45.66658" lon="3.0267">
        <ele>781</ele>
        <time>2019-06-23T08:51:24.000Z</time>
      </trkpt>
      <trkpt lat="45.6666" lon="3.02675">
        <ele>781</ele>
        <time>2019-06-23T08:51:25.000Z</time>
      </trkpt>
      <trkpt lat="45.66662" lon="3.0268">
        <ele>781</ele>
        <time>2019-06-23T08:51:26.000Z</time>
      </trkpt>
      <trkpt lat="45.66664" lon="3.02684">
        <ele>782</ele>
        <time>2019-06-23T08:51:27.000Z</time>
      </trkpt>
      <trkpt lat="45.66665" lon="3.02689">
        <ele>782</ele>
        <time>2019-06-23T08:51:28.000Z</time>
      </trkpt>
      <trkpt lat="45.66667" lon="3.02694">
        <ele>783</ele>
        <time>2019-06-23T08:51:29.000Z</time>
      </trkpt>
      <trkpt lat="45.66669" lon="3.02698">
        <ele>783</ele>
        <time>2019-06-23T08:51:30.000Z</time>
      </trkpt>
      <trkpt lat="45.6667" lon="3.02703">
        <ele>783</ele>
        <time>2019-06-23T08:51:31.000Z</time>
      </trkpt>
      <trkpt lat="45.66671" lon="3.02708">
        <ele>784</ele>
        <time>2019-06-23T08:51:32.000Z</time>
      </trkpt>
      <trkpt lat="45.66672" lon="3.02713">
        <ele>785</ele>
        <time>2019-06-23T08:51:33.000Z</time>
      </trkpt>
      <trkpt lat="45.66672" lon="3.02717">
        <ele>785</ele>
        <time>2019-06-23T08:51:34.000Z</time>
      </trkpt>
      <trkpt lat="45.66671" lon="3.02721">
        <ele>785</ele>
        <time>2019-06-23T08:51:35.000Z</time>
      </trkpt>
      <trkpt lat="45.6667" lon="3.02725">
        <ele>785</ele>
        <time>2019-06-23T08:51:36.000Z</time>
      </trkpt>
      <trkpt lat="45.66668" lon="3.02729">
        <ele>786</ele>
        <time>2019-06-23T08:51:37.000Z</time>
      </trkpt>
      <trkpt lat="45.66666" lon="3.02733">
        <ele>786</ele>
        <time>2019-06-23T08:51:38.000Z</time>
      </trkpt>
      <trkpt lat="45.66664" lon="3.02736">
        <ele>786</ele>
        <time>2019-06-23T08:51:39.000Z</time>
      </trkpt>
      <trkpt lat="45.66662" lon="3.02741">
        <ele>787</ele>
        <time>2019-06-23T08:51:40.000Z</time>
      </trkpt>
      <trkpt lat="45.66661" lon="3.02745">
        <ele>787</ele>
        <time>2019-06-23T08:51:41.000Z</time>
      </trkpt>
      <trkpt lat="45.6666" lon="3.02749">
        <ele>788</ele>
        <time>2019-06-23T08:51:42.000Z</time>
      </trkpt>
      <trkpt lat="45.66659" lon="3.02753">
        <ele>788</ele>
        <time>2019-06-23T08:51:43.000Z</time>
      </trkpt>
      <trkpt lat="45.66658" lon="3.02758">
        <ele>789</ele>
        <time>2019-06-23T08:51:44.000Z</time>
      </trkpt>
      <trkpt lat="45.66658" lon="3.02762">
        <ele>789</ele>
        <time>2019-06-23T08:51:45.000Z</time>
      </trkpt>
      <trkpt lat="45.66657" lon="3.02767">
        <ele>790</ele>
        <time>2019-06-23T08:51:46.000Z</time>
      </trkpt>
      <trkpt lat="45.66657" lon="3.02771">
        <ele>790</ele>
        <time>2019-06-23T08:51:47.000Z</time>
      </trkpt>
      <trkpt lat="45.66656" lon="3.02775">
        <ele>791</ele>
        <time>2019-06-23T08:51:48.000Z</time>
      </trkpt>
      <trkpt lat="45.66656" lon="3.0278">
        <ele>791</ele>
        <time>2019-06-23T08:51:49.000Z</time>
      </trkpt>
      <trkpt lat="45.66656" lon="3.02784">
        <ele>791</ele>
        <time>2019-06-23T08:51:50.000Z</time>
      </trkpt>
      <trkpt lat="45.66656" lon="3.02788">
        <ele>791</ele>
        <time>2019-06-23T08:51:51.000Z</time>
      </trkpt>
      <trkpt lat="45.66656" lon="3.02793">
        <ele>792</ele>
        <time>2019-06-23T08:51:52.000Z</time>
      </trkpt>
      <trkpt lat="45.66657" lon="3.02797">
        <ele>792</ele>
        <time>2019-06-23T08:51:53.000Z</time>
      </trkpt>
      <trkpt lat="45.66657" lon="3.02801">
        <ele>793</ele>
        <time>2019-06-23T08:51:54.000Z</time>
      </trkpt>
      <trkpt lat="45.66658" lon="3.02805">
        <ele>793</ele>
        <time>2019-06-23T08:51:55.000Z</time>
      </trkpt>
      <trkpt lat="45.66659" lon="3.02809">
        <ele>794</ele>
        <time>2019-06-23T08:51:56.000Z</time>
      </trkpt>
      <trkpt lat="45.66661" lon="3.02812">
        <ele>794</ele>
        <time>2019-06-23T08:51:57.000Z</time>
      </trkpt>
      <trkpt lat="45.66662" lon="3.02816">
        <ele>794</ele>
        <time>2019-06-23T08:51:58.000Z</time>
      </trkpt>
      <trkpt lat="45.66664" lon="3.02819">
        <ele>794</ele>
        <time>2019-06-23T08:51:59.000Z</time>
      </trkpt>
      <trkpt lat="45.66666" lon="3.02822">
        <ele>795</ele>
        <time>2019-06-23T08:52:00.000Z</time>
      </trkpt>
      <trkpt lat="45.66667" lon="3.02826">
        <ele>795</ele>
        <time>2019-06-23T08:52:01.000Z</time>
      </trkpt>
      <trkpt lat="45.66668" lon="3.0283">
        <ele>795</ele>
        <time>2019-06-23T08:52:02.000Z</time>
      </trkpt>
      <trkpt lat="45.66668" lon="3.02835">
        <ele>795</ele>
        <time>2019-06-23T08:52:03.000Z</time>
      </trkpt>
      <trkpt lat="45.66668" lon="3.02839">
        <ele>795</ele>
        <time>2019-06-23T08:52:04.000Z</time>
      </trkpt>
      <trkpt lat="45.66667" lon="3.02843">
        <ele>795</ele>
        <time>2019-06-23T08:52:05.000Z</time>
      </trkpt>
      <trkpt lat="45.66665" lon="3.02847">
        <ele>795</ele>
        <time>2019-06-23T08:52:06.000Z</time>
      </trkpt>
      <trkpt lat="45.66664" lon="3.02851">
        <ele>795</ele>
        <time>2019-06-23T08:52:07.000Z</time>
      </trkpt>
      <trkpt lat="45.66662" lon="3.02855">
        <ele>795</ele>
        <time>2019-06-23T08:52:08.000Z</time>
      </trkpt>
      <trkpt lat="45.6666" lon="3.0286">
        <ele>795</ele>
        <time>2019-06-23T08:52:09.000Z</time>
      </trkpt>
      <trkpt lat="45.66658" lon="3.02865">
        <ele>795</ele>
        <time>2019-06-23T08:52:10.000Z</time>
      </trkpt>
      <trkpt lat="45.66656" lon="3.02871">
        <ele>795</ele>
        <time>2019-06-23T08:52:11.000Z</time>
      </trkpt>
      <trkpt lat="45.66654" lon="3.02876">
        <ele>795</ele>
        <time>2019-06-23T08:52:12.000Z</time>
      </trkpt>
      <trkpt lat="45.66652" lon="3.02883">
        <ele>795</ele>
        <time>2019-06-23T08:52:13.000Z</time>
      </trkpt>
      <trkpt lat="45.6665" lon="3.02889">
        <ele>795</ele>
        <time>2019-06-23T08:52:14.000Z</time>
      </trkpt>
      <trkpt lat="45.66648" lon="3.02896">
        <ele>795</ele>
        <time>2019-06-23T08:52:15.000Z</time>
      </trkpt>
      <trkpt lat="45.66647" lon="3.02903">
        <ele>794</ele>
        <time>2019-06-23T08:52:16.000Z</time>
      </trkpt>
      <trkpt lat="45.66647" lon="3.0291">
        <ele>794</ele>
        <time>2019-06-23T08:52:17.000Z</time>
      </trkpt>
      <trkpt lat="45.66645" lon="3.02916">
        <ele>794</ele>
        <time>2019-06-23T08:52:18.000Z</time>
      </trkpt>
      <trkpt lat="45.66643" lon="3.02921">
        <ele>793</ele>
        <time>2019-06-23T08:52:19.000Z</time>
      </trkpt>
      <trkpt lat="45.66635" lon="3.02924">
        <ele>795</ele>
        <time>2019-06-23T08:52:20.000Z</time>
      </trkpt>
      <trkpt lat="45.66628" lon="3.02924">
        <ele>794</ele>
        <time>2019-06-23T08:52:21.000Z</time>
      </trkpt>
      <trkpt lat="45.66623" lon="3.02926">
        <ele>793</ele>
        <time>2019-06-23T08:52:22.000Z</time>
      </trkpt>
      <trkpt lat="45.66617" lon="3.02931">
        <ele>792</ele>
        <time>2019-06-23T08:52:23.000Z</time>
      </trkpt>
      <trkpt lat="45.66612" lon="3.02938">
        <ele>792</ele>
        <time>2019-06-23T08:52:24.000Z</time>
      </trkpt>
      <trkpt lat="45.66608" lon="3.02945">
        <ele>791</ele>
        <time>2019-06-23T08:52:25.000Z</time>
      </trkpt>
      <trkpt lat="45.66603" lon="3.02954">
        <ele>791</ele>
        <time>2019-06-23T08:52:26.000Z</time>
      </trkpt>
      <trkpt lat="45.666" lon="3.02963">
        <ele>792</ele>
        <time>2019-06-23T08:52:27.000Z</time>
      </trkpt>
      <trkpt lat="45.66598" lon="3.02973">
        <ele>792</ele>
        <time>2019-06-23T08:52:28.000Z</time>
      </trkpt>
      <trkpt lat="45.66597" lon="3.02984">
        <ele>791</ele>
        <time>2019-06-23T08:52:29.000Z</time>
      </trkpt>
      <trkpt lat="45.66595" lon="3.02995">
        <ele>791</ele>
        <time>2019-06-23T08:52:30.000Z</time>
      </trkpt>
      <trkpt lat="45.66593" lon="3.03006">
        <ele>790</ele>
        <time>2019-06-23T08:52:31.000Z</time>
      </trkpt>
      <trkpt lat="45.66592" lon="3.03018">
        <ele>789</ele>
        <time>2019-06-23T08:52:32.000Z</time>
      </trkpt>
      <trkpt lat="45.6659" lon="3.03029">
        <ele>789</ele>
        <time>2019-06-23T08:52:33.000Z</time>
      </trkpt>
      <trkpt lat="45.66589" lon="3.03042">
        <ele>788</ele>
        <time>2019-06-23T08:52:34.000Z</time>
      </trkpt>
      <trkpt lat="45.66587" lon="3.03054">
        <ele>788</ele>
        <time>2019-06-23T08:52:35.000Z</time>
      </trkpt>
      <trkpt lat="45.66586" lon="3.03067">
        <ele>787</ele>
        <time>2019-06-23T08:52:36.000Z</time>
      </trkpt>
      <trkpt lat="45.66584" lon="3.03079">
        <ele>786</ele>
        <time>2019-06-23T08:52:37.000Z</time>
      </trkpt>
      <trkpt lat="45.66582" lon="3.03092">
        <ele>786</ele>
        <time>2019-06-23T08:52:38.000Z</time>
      </trkpt>
      <trkpt lat="45.6658" lon="3.03103">
        <ele>786</ele>
        <time>2019-06-23T08:52:39.000Z</time>
      </trkpt>
      <trkpt lat="45.66577" lon="3.03116">
        <ele>785</ele>
        <time>2019-06-23T08:52:40.000Z</time>
      </trkpt>
      <trkpt lat="45.66573" lon="3.03128">
        <ele>785</ele>
        <time>2019-06-23T08:52:41.000Z</time>
      </trkpt>
      <trkpt lat="45.6657" lon="3.0314">
        <ele>785</ele>
        <time>2019-06-23T08:52:42.000Z</time>
      </trkpt>
      <trkpt lat="45.66567" lon="3.03152">
        <ele>784</ele>
        <time>2019-06-23T08:52:43.000Z</time>
      </trkpt>
      <trkpt lat="45.66563" lon="3.03165">
        <ele>784</ele>
        <time>2019-06-23T08:52:44.000Z</time>
      </trkpt>
      <trkpt lat="45.6656" lon="3.03177">
        <ele>783</ele>
        <time>2019-06-23T08:52:45.000Z</time>
      </trkpt>
      <trkpt lat="45.66557" lon="3.03189">
        <ele>783</ele>
        <time>2019-06-23T08:52:46.000Z</time>
      </trkpt>
      <trkpt lat="45.66553" lon="3.03202">
        <ele>782</ele>
        <time>2019-06-23T08:52:47.000Z</time>
      </trkpt>
      <trkpt lat="45.66548" lon="3.03214">
        <ele>781</ele>
        <time>2019-06-23T08:52:48.000Z</time>
      </trkpt>
      <trkpt lat="45.66543" lon="3.03225">
        <ele>781</ele>
        <time>2019-06-23T08:52:49.000Z</time>
      </trkpt>
      <trkpt lat="45.66538" lon="3.03236">
        <ele>780</ele>
        <time>2019-06-23T08:52:50.000Z</time>
      </trkpt>
      <trkpt lat="45.66533" lon="3.03247">
        <ele>780</ele>
        <time>2019-06-23T08:52:51.000Z</time>
      </trkpt>
      <trkpt lat="45.66529" lon="3.03259">
        <ele>779</ele>
        <time>2019-06-23T08:52:52.000Z</time>
      </trkpt>
      <trkpt lat="45.66525" lon="3.0327">
        <ele>779</ele>
        <time>2019-06-23T08:52:53.000Z</time>
      </trkpt>
      <trkpt lat="45.66521" lon="3.03282">
        <ele>778</ele>
        <time>2019-06-23T08:52:54.000Z</time>
      </trkpt>
      <trkpt lat="45.66518" lon="3.03295">
        <ele>777</ele>
        <time>2019-06-23T08:52:55.000Z</time>
      </trkpt>
      <trkpt lat="45.66516" lon="3.03307">
        <ele>777</ele>
        <time>2019-06-23T08:52:56.000Z</time>
      </trkpt>
      <trkpt lat="45.66514" lon="3.03319">
        <ele>777</ele>
        <time>2019-06-23T08:52:57.000Z</time>
      </trkpt>
      <trkpt lat="45.66512" lon="3.03331">
        <ele>776</ele>
        <time>2019-06-23T08:52:58.000Z</time>
      </trkpt>
      <trkpt lat="45.66508" lon="3.03342">
        <ele>775</ele>
        <time>2019-06-23T08:52:59.000Z</time>
      </trkpt>
      <trkpt lat="45.66505" lon="3.03353">
        <ele>774</ele>
        <time>2019-06-23T08:53:00.000Z</time>
      </trkpt>
      <trkpt lat="45.66501" lon="3.03364">
        <ele>773</ele>
        <time>2019-06-23T08:53:01.000Z</time>
      </trkpt>
      <trkpt lat="45.66497" lon="3.03375">
        <ele>772</ele>
        <time>2019-06-23T08:53:02.000Z</time>
      </trkpt>
      <trkpt lat="45.66493" lon="3.03387">
        <ele>771</ele>
        <time>2019-06-23T08:53:03.000Z</time>
      </trkpt>
      <trkpt lat="45.66491" lon="3.03399">
        <ele>770</ele>
        <time>2019-06-23T08:53:04.000Z</time>
      </trkpt>
      <trkpt lat="45.66488" lon="3.03412">
        <ele>769</ele>
        <time>2019-06-23T08:53:05.000Z</time>
      </trkpt>
      <trkpt lat="45.66486" lon="3.03424">
        <ele>768</ele>
        <time>2019-06-23T08:53:06.000Z</time>
      </trkpt>
      <trkpt lat="45.66484" lon="3.03437">
        <ele>767</ele>
        <time>2019-06-23T08:53:07.000Z</time>
      </trkpt>
      <trkpt lat="45.66481" lon="3.0345">
        <ele>766</ele>
        <time>2019-06-23T08:53:08.000Z</time>
      </trkpt>
      <trkpt lat="45.66479" lon="3.03462">
        <ele>766</ele>
        <time>2019-06-23T08:53:09.000Z</time>
      </trkpt>
      <trkpt lat="45.66476" lon="3.03474">
        <ele>765</ele>
        <time>2019-06-23T08:53:10.000Z</time>
      </trkpt>
      <trkpt lat="45.66473" lon="3.03487">
        <ele>764</ele>
        <time>2019-06-23T08:53:11.000Z</time>
      </trkpt>
      <trkpt lat="45.66469" lon="3.03499">
        <ele>763</ele>
        <time>2019-06-23T08:53:12.000Z</time>
      </trkpt>
      <trkpt lat="45.66465" lon="3.03511">
        <ele>762</ele>
        <time>2019-06-23T08:53:13.000Z</time>
      </trkpt>
      <trkpt lat="45.6646" lon="3.03523">
        <ele>762</ele>
        <time>2019-06-23T08:53:14.000Z</time>
      </trkpt>
      <trkpt lat="45.66456" lon="3.03535">
        <ele>761</ele>
        <time>2019-06-23T08:53:15.000Z</time>
      </trkpt>
      <trkpt lat="45.66452" lon="3.03548">
        <ele>760</ele>
        <time>2019-06-23T08:53:16.000Z</time>
      </trkpt>
      <trkpt lat="45.66448" lon="3.03561">
        <ele>759</ele>
        <time>2019-06-23T08:53:17.000Z</time>
      </trkpt>
      <trkpt lat="45.66445" lon="3.03575">
        <ele>759</ele>
        <time>2019-06-23T08:53:18.000Z</time>
      </trkpt>
      <trkpt lat="45.66442" lon="3.03588">
        <ele>758</ele>
        <time>2019-06-23T08:53:19.000Z</time>
      </trkpt>
      <trkpt lat="45.6644" lon="3.03598">
        <ele>756</ele>
        <time>2019-06-23T08:53:20.000Z</time>
      </trkpt>
      <trkpt lat="45.6644" lon="3.03605">
        <ele>755</ele>
        <time>2019-06-23T08:53:21.000Z</time>
      </trkpt>
      <trkpt lat="45.66439" lon="3.03612">
        <ele>754</ele>
        <time>2019-06-23T08:53:22.000Z</time>
      </trkpt>
      <trkpt lat="45.66438" lon="3.03618">
        <ele>752</ele>
        <time>2019-06-23T08:53:23.000Z</time>
      </trkpt>
      <trkpt lat="45.66435" lon="3.03625">
        <ele>751</ele>
        <time>2019-06-23T08:53:24.000Z</time>
      </trkpt>
      <trkpt lat="45.66432" lon="3.03632">
        <ele>749</ele>
        <time>2019-06-23T08:53:25.000Z</time>
      </trkpt>
      <trkpt lat="45.6643" lon="3.03638">
        <ele>748</ele>
        <time>2019-06-23T08:53:26.000Z</time>
      </trkpt>
      <trkpt lat="45.66427" lon="3.03645">
        <ele>748</ele>
        <time>2019-06-23T08:53:27.000Z</time>
      </trkpt>
      <trkpt lat="45.66425" lon="3.03649">
        <ele>748</ele>
        <time>2019-06-23T08:53:28.000Z</time>
      </trkpt>
      <trkpt lat="45.66424" lon="3.03653">
        <ele>748</ele>
        <time>2019-06-23T08:53:29.000Z</time>
      </trkpt>
      <trkpt lat="45.66425" lon="3.03656">
        <ele>746</ele>
        <time>2019-06-23T08:53:30.000Z</time>
      </trkpt>
      <trkpt lat="45.66427" lon="3.0366">
        <ele>746</ele>
        <time>2019-06-23T08:53:31.000Z</time>
      </trkpt>
      <trkpt lat="45.6643" lon="3.03664">
        <ele>746</ele>
        <time>2019-06-23T08:53:32.000Z</time>
      </trkpt>
      <trkpt lat="45.66431" lon="3.03668">
        <ele>746</ele>
        <time>2019-06-23T08:53:33.000Z</time>
      </trkpt>
      <trkpt lat="45.66433" lon="3.03672">
        <ele>746</ele>
        <time>2019-06-23T08:53:34.000Z</time>
      </trkpt>
      <trkpt lat="45.66434" lon="3.03676">
        <ele>745</ele>
        <time>2019-06-23T08:53:35.000Z</time>
      </trkpt>
      <trkpt lat="45.66436" lon="3.0368">
        <ele>745</ele>
        <time>2019-06-23T08:53:36.000Z</time>
      </trkpt>
      <trkpt lat="45.66442" lon="3.03687">
        <ele>746</ele>
        <time>2019-06-23T08:53:37.000Z</time>
      </trkpt>
      <trkpt lat="45.66445" lon="3.03692">
        <ele>746</ele>
        <time>2019-06-23T08:53:38.000Z</time>
      </trkpt>
      <trkpt lat="45.66449" lon="3.03698">
        <ele>745</ele>
        <time>2019-06-23T08:53:39.000Z</time>
      </trkpt>
      <trkpt lat="45.66453" lon="3.03704">
        <ele>745</ele>
        <time>2019-06-23T08:53:40.000Z</time>
      </trkpt>
      <trkpt lat="45.66456" lon="3.03711">
        <ele>745</ele>
        <time>2019-06-23T08:53:41.000Z</time>
      </trkpt>
      <trkpt lat="45.6646" lon="3.03718">
        <ele>745</ele>
        <time>2019-06-23T08:53:42.000Z</time>
      </trkpt>
      <trkpt lat="45.66463" lon="3.03726">
        <ele>746</ele>
        <time>2019-06-23T08:53:43.000Z</time>
      </trkpt>
      <trkpt lat="45.66465" lon="3.03734">
        <ele>748</ele>
        <time>2019-06-23T08:53:44.000Z</time>
      </trkpt>
      <trkpt lat="45.66468" lon="3.03742">
        <ele>749</ele>
        <time>2019-06-23T08:53:45.000Z</time>
      </trkpt>
      <trkpt lat="45.6647" lon="3.0375">
        <ele>749</ele>
        <time>2019-06-23T08:53:46.000Z</time>
      </trkpt>
      <trkpt lat="45.66472" lon="3.03759">
        <ele>749</ele>
        <time>2019-06-23T08:53:47.000Z</time>
      </trkpt>
      <trkpt lat="45.66474" lon="3.03767">
        <ele>750</ele>
        <time>2019-06-23T08:53:48.000Z</time>
      </trkpt>
      <trkpt lat="45.66472" lon="3.03777">
        <ele>747</ele>
        <time>2019-06-23T08:53:49.000Z</time>
      </trkpt>
      <trkpt lat="45.66471" lon="3.03785">
        <ele>746</ele>
        <time>2019-06-23T08:53:50.000Z</time>
      </trkpt>
      <trkpt lat="45.66471" lon="3.03795">
        <ele>744</ele>
        <time>2019-06-23T08:53:51.000Z</time>
      </trkpt>
      <trkpt lat="45.66469" lon="3.03803">
        <ele>743</ele>
        <time>2019-06-23T08:53:52.000Z</time>
      </trkpt>
      <trkpt lat="45.66468" lon="3.03812">
        <ele>743</ele>
        <time>2019-06-23T08:53:53.000Z</time>
      </trkpt>
      <trkpt lat="45.66465" lon="3.0382">
        <ele>745</ele>
        <time>2019-06-23T08:53:54.000Z</time>
      </trkpt>
      <trkpt lat="45.66462" lon="3.03828">
        <ele>746</ele>
        <time>2019-06-23T08:53:55.000Z</time>
      </trkpt>
      <trkpt lat="45.66457" lon="3.03837">
        <ele>745</ele>
        <time>2019-06-23T08:53:56.000Z</time>
      </trkpt>
      <trkpt lat="45.66453" lon="3.03844">
        <ele>744</ele>
        <time>2019-06-23T08:53:57.000Z</time>
      </trkpt>
      <trkpt lat="45.66448" lon="3.0385">
        <ele>745</ele>
        <time>2019-06-23T08:53:58.000Z</time>
      </trkpt>
      <trkpt lat="45.66445" lon="3.03855">
        <ele>745</ele>
        <time>2019-06-23T08:53:59.000Z</time>
      </trkpt>
      <trkpt lat="45.66443" lon="3.0386">
        <ele>744</ele>
        <time>2019-06-23T08:54:00.000Z</time>
      </trkpt>
      <trkpt lat="45.6644" lon="3.03862">
        <ele>745</ele>
        <time>2019-06-23T08:54:01.000Z</time>
      </trkpt>
      <trkpt lat="45.6644" lon="3.03863">
        <ele>743</ele>
        <time>2019-06-23T08:54:02.000Z</time>
      </trkpt>
      <trkpt lat="45.66439" lon="3.03865">
        <ele>743</ele>
        <time>2019-06-23T08:54:03.000Z</time>
      </trkpt>
      <trkpt lat="45.66438" lon="3.03866">
        <ele>743</ele>
        <time>2019-06-23T08:54:04.000Z</time>
      </trkpt>
      <trkpt lat="45.66438" lon="3.03869">
        <ele>743</ele>
        <time>2019-06-23T08:54:05.000Z</time>
      </trkpt>
      <trkpt lat="45.66437" lon="3.03872">
        <ele>744</ele>
        <time>2019-06-23T08:54:06.000Z</time>
      </trkpt>
      <trkpt lat="45.66438" lon="3.03878">
        <ele>745</ele>
        <time>2019-06-23T08:54:07.000Z</time>
      </trkpt>
      <trkpt lat="45.66439" lon="3.03884">
        <ele>744</ele>
        <time>2019-06-23T08:54:08.000Z</time>
      </trkpt>
      <trkpt lat="45.66439" lon="3.0389">
        <ele>742</ele>
        <time>2019-06-23T08:54:09.000Z</time>
      </trkpt>
      <trkpt lat="45.66441" lon="3.03897">
        <ele>741</ele>
        <time>2019-06-23T08:54:10.000Z</time>
      </trkpt>
      <trkpt lat="45.66442" lon="3.03903">
        <ele>741</ele>
        <time>2019-06-23T08:54:11.000Z</time>
      </trkpt>
      <trkpt lat="45.66443" lon="3.0391">
        <ele>740</ele>
        <time>2019-06-23T08:54:12.000Z</time>
      </trkpt>
      <trkpt lat="45.66445" lon="3.03916">
        <ele>740</ele>
        <time>2019-06-23T08:54:13.000Z</time>
      </trkpt>
      <trkpt lat="45.66448" lon="3.03923">
        <ele>739</ele>
        <time>2019-06-23T08:54:14.000Z</time>
      </trkpt>
      <trkpt lat="45.66453" lon="3.03928">
        <ele>740</ele>
        <time>2019-06-23T08:54:15.000Z</time>
      </trkpt>
      <trkpt lat="45.66458" lon="3.03933">
        <ele>739</ele>
        <time>2019-06-23T08:54:16.000Z</time>
      </trkpt>
      <trkpt lat="45.66462" lon="3.03938">
        <ele>738</ele>
        <time>2019-06-23T08:54:17.000Z</time>
      </trkpt>
      <trkpt lat="45.66467" lon="3.03945">
        <ele>737</ele>
        <time>2019-06-23T08:54:18.000Z</time>
      </trkpt>
      <trkpt lat="45.66472" lon="3.03951">
        <ele>737</ele>
        <time>2019-06-23T08:54:19.000Z</time>
      </trkpt>
      <trkpt lat="45.66476" lon="3.03956">
        <ele>736</ele>
        <time>2019-06-23T08:54:20.000Z</time>
      </trkpt>
      <trkpt lat="45.66481" lon="3.03961">
        <ele>736</ele>
        <time>2019-06-23T08:54:21.000Z</time>
      </trkpt>
      <trkpt lat="45.66485" lon="3.03967">
        <ele>735</ele>
        <time>2019-06-23T08:54:22.000Z</time>
      </trkpt>
      <trkpt lat="45.66491" lon="3.03973">
        <ele>734</ele>
        <time>2019-06-23T08:54:23.000Z</time>
      </trkpt>
      <trkpt lat="45.66498" lon="3.03978">
        <ele>733</ele>
        <time>2019-06-23T08:54:24.000Z</time>
      </trkpt>
      <trkpt lat="45.66505" lon="3.03984">
        <ele>732</ele>
        <time>2019-06-23T08:54:25.000Z</time>
      </trkpt>
      <trkpt lat="45.6651" lon="3.0399">
        <ele>731</ele>
        <time>2019-06-23T08:54:26.000Z</time>
      </trkpt>
      <trkpt lat="45.66515" lon="3.03996">
        <ele>730</ele>
        <time>2019-06-23T08:54:27.000Z</time>
      </trkpt>
      <trkpt lat="45.6652" lon="3.04001">
        <ele>730</ele>
        <time>2019-06-23T08:54:28.000Z</time>
      </trkpt>
      <trkpt lat="45.66525" lon="3.04003">
        <ele>729</ele>
        <time>2019-06-23T08:54:29.000Z</time>
      </trkpt>
      <trkpt lat="45.66529" lon="3.04003">
        <ele>728</ele>
        <time>2019-06-23T08:54:30.000Z</time>
      </trkpt>
      <trkpt lat="45.66533" lon="3.04005">
        <ele>728</ele>
        <time>2019-06-23T08:54:31.000Z</time>
      </trkpt>
      <trkpt lat="45.66535" lon="3.04012">
        <ele>725</ele>
        <time>2019-06-23T08:54:32.000Z</time>
      </trkpt>
      <trkpt lat="45.66537" lon="3.04018">
        <ele>724</ele>
        <time>2019-06-23T08:54:33.000Z</time>
      </trkpt>
      <trkpt lat="45.66538" lon="3.04025">
        <ele>723</ele>
        <time>2019-06-23T08:54:34.000Z</time>
      </trkpt>
      <trkpt lat="45.66539" lon="3.04032">
        <ele>722</ele>
        <time>2019-06-23T08:54:35.000Z</time>
      </trkpt>
      <trkpt lat="45.6654" lon="3.04039">
        <ele>720</ele>
        <time>2019-06-23T08:54:36.000Z</time>
      </trkpt>
      <trkpt lat="45.66536" lon="3.04047">
        <ele>718</ele>
        <time>2019-06-23T08:54:37.000Z</time>
      </trkpt>
      <trkpt lat="45.66535" lon="3.04058">
        <ele>717</ele>
        <time>2019-06-23T08:54:38.000Z</time>
      </trkpt>
      <trkpt lat="45.66534" lon="3.04069">
        <ele>717</ele>
        <time>2019-06-23T08:54:39.000Z</time>
      </trkpt>
      <trkpt lat="45.66532" lon="3.04078">
        <ele>716</ele>
        <time>2019-06-23T08:54:40.000Z</time>
      </trkpt>
      <trkpt lat="45.6653" lon="3.04089">
        <ele>715</ele>
        <time>2019-06-23T08:54:41.000Z</time>
      </trkpt>
      <trkpt lat="45.66529" lon="3.04098">
        <ele>714</ele>
        <time>2019-06-23T08:54:42.000Z</time>
      </trkpt>
      <trkpt lat="45.66527" lon="3.04109">
        <ele>713</ele>
        <time>2019-06-23T08:54:43.000Z</time>
      </trkpt>
      <trkpt lat="45.66525" lon="3.04118">
        <ele>712</ele>
        <time>2019-06-23T08:54:44.000Z</time>
      </trkpt>
      <trkpt lat="45.66527" lon="3.04127">
        <ele>712</ele>
        <time>2019-06-23T08:54:45.000Z</time>
      </trkpt>
      <trkpt lat="45.66522" lon="3.04138">
        <ele>711</ele>
        <time>2019-06-23T08:54:46.000Z</time>
      </trkpt>
      <trkpt lat="45.66519" lon="3.04149">
        <ele>710</ele>
        <time>2019-06-23T08:54:47.000Z</time>
      </trkpt>
      <trkpt lat="45.66516" lon="3.04162">
        <ele>710</ele>
        <time>2019-06-23T08:54:48.000Z</time>
      </trkpt>
      <trkpt lat="45.66513" lon="3.04174">
        <ele>710</ele>
        <time>2019-06-23T08:54:49.000Z</time>
      </trkpt>
      <trkpt lat="45.66509" lon="3.04186">
        <ele>708</ele>
        <time>2019-06-23T08:54:50.000Z</time>
      </trkpt>
      <trkpt lat="45.66506" lon="3.04197">
        <ele>707</ele>
        <time>2019-06-23T08:54:51.000Z</time>
      </trkpt>
      <trkpt lat="45.66503" lon="3.04207">
        <ele>706</ele>
        <time>2019-06-23T08:54:52.000Z</time>
      </trkpt>
      <trkpt lat="45.66501" lon="3.04218">
        <ele>705</ele>
        <time>2019-06-23T08:54:53.000Z</time>
      </trkpt>
      <trkpt lat="45.66499" lon="3.04231">
        <ele>704</ele>
        <time>2019-06-23T08:54:54.000Z</time>
      </trkpt>
      <trkpt lat="45.66498" lon="3.04244">
        <ele>703</ele>
        <time>2019-06-23T08:54:55.000Z</time>
      </trkpt>
      <trkpt lat="45.66496" lon="3.04256">
        <ele>702</ele>
        <time>2019-06-23T08:54:56.000Z</time>
      </trkpt>
      <trkpt lat="45.66497" lon="3.04268">
        <ele>701</ele>
        <time>2019-06-23T08:54:57.000Z</time>
      </trkpt>
      <trkpt lat="45.66496" lon="3.0428">
        <ele>702</ele>
        <time>2019-06-23T08:54:58.000Z</time>
      </trkpt>
      <trkpt lat="45.66495" lon="3.04291">
        <ele>703</ele>
        <time>2019-06-23T08:54:59.000Z</time>
      </trkpt>
      <trkpt lat="45.66495" lon="3.04301">
        <ele>703</ele>
        <time>2019-06-23T08:55:00.000Z</time>
      </trkpt>
      <trkpt lat="45.66504" lon="3.0431">
        <ele>705</ele>
        <time>2019-06-23T08:55:01.000Z</time>
      </trkpt>
      <trkpt lat="45.66511" lon="3.0432">
        <ele>705</ele>
        <time>2019-06-23T08:55:02.000Z</time>
      </trkpt>
      <trkpt lat="45.66514" lon="3.04329">
        <ele>704</ele>
        <time>2019-06-23T08:55:03.000Z</time>
      </trkpt>
      <trkpt lat="45.66518" lon="3.04338">
        <ele>703</ele>
        <time>2019-06-23T08:55:04.000Z</time>
      </trkpt>
      <trkpt lat="45.66521" lon="3.04348">
        <ele>704</ele>
        <time>2019-06-23T08:55:05.000Z</time>
      </trkpt>
      <trkpt lat="45.66525" lon="3.0436">
        <ele>702</ele>
        <time>2019-06-23T08:55:06.000Z</time>
      </trkpt>
      <trkpt lat="45.66529" lon="3.04372">
        <ele>701</ele>
        <time>2019-06-23T08:55:07.000Z</time>
      </trkpt>
      <trkpt lat="45.66533" lon="3.04383">
        <ele>700</ele>
        <time>2019-06-23T08:55:08.000Z</time>
      </trkpt>
      <trkpt lat="45.66537" lon="3.04395">
        <ele>700</ele>
        <time>2019-06-23T08:55:09.000Z</time>
      </trkpt>
      <trkpt lat="45.6654" lon="3.04406">
        <ele>699</ele>
        <time>2019-06-23T08:55:10.000Z</time>
      </trkpt>
      <trkpt lat="45.66544" lon="3.04419">
        <ele>698</ele>
        <time>2019-06-23T08:55:11.000Z</time>
      </trkpt>
      <trkpt lat="45.66548" lon="3.04431">
        <ele>698</ele>
        <time>2019-06-23T08:55:12.000Z</time>
      </trkpt>
      <trkpt lat="45.66552" lon="3.04441">
        <ele>697</ele>
        <time>2019-06-23T08:55:13.000Z</time>
      </trkpt>
      <trkpt lat="45.66555" lon="3.04448">
        <ele>697</ele>
        <time>2019-06-23T08:55:14.000Z</time>
      </trkpt>
      <trkpt lat="45.66558" lon="3.04455">
        <ele>698</ele>
        <time>2019-06-23T08:55:15.000Z</time>
      </trkpt>
      <trkpt lat="45.6656" lon="3.04464">
        <ele>696</ele>
        <time>2019-06-23T08:55:16.000Z</time>
      </trkpt>
      <trkpt lat="45.66563" lon="3.04472">
        <ele>695</ele>
        <time>2019-06-23T08:55:17.000Z</time>
      </trkpt>
      <trkpt lat="45.66565" lon="3.04481">
        <ele>693</ele>
        <time>2019-06-23T08:55:18.000Z</time>
      </trkpt>
      <trkpt lat="45.66565" lon="3.04493">
        <ele>690</ele>
        <time>2019-06-23T08:55:19.000Z</time>
      </trkpt>
      <trkpt lat="45.66567" lon="3.04505">
        <ele>688</ele>
        <time>2019-06-23T08:55:20.000Z</time>
      </trkpt>
      <trkpt lat="45.66567" lon="3.04516">
        <ele>687</ele>
        <time>2019-06-23T08:55:21.000Z</time>
      </trkpt>
      <trkpt lat="45.66567" lon="3.04528">
        <ele>685</ele>
        <time>2019-06-23T08:55:22.000Z</time>
      </trkpt>
      <trkpt lat="45.66558" lon="3.04544">
        <ele>687</ele>
        <time>2019-06-23T08:55:23.000Z</time>
      </trkpt>
      <trkpt lat="45.66556" lon="3.04558">
        <ele>686</ele>
        <time>2019-06-23T08:55:24.000Z</time>
      </trkpt>
      <trkpt lat="45.66555" lon="3.04572">
        <ele>685</ele>
        <time>2019-06-23T08:55:25.000Z</time>
      </trkpt>
      <trkpt lat="45.66554" lon="3.04587">
        <ele>685</ele>
        <time>2019-06-23T08:55:26.000Z</time>
      </trkpt>
      <trkpt lat="45.66552" lon="3.04601">
        <ele>684</ele>
        <time>2019-06-23T08:55:27.000Z</time>
      </trkpt>
      <trkpt lat="45.66549" lon="3.04615">
        <ele>683</ele>
        <time>2019-06-23T08:55:28.000Z</time>
      </trkpt>
      <trkpt lat="45.66544" lon="3.04631">
        <ele>679</ele>
        <time>2019-06-23T08:55:29.000Z</time>
      </trkpt>
      <trkpt lat="45.66541" lon="3.04645">
        <ele>677</ele>
        <time>2019-06-23T08:55:30.000Z</time>
      </trkpt>
      <trkpt lat="45.66537" lon="3.0466">
        <ele>675</ele>
        <time>2019-06-23T08:55:31.000Z</time>
      </trkpt>
      <trkpt lat="45.66535" lon="3.04673">
        <ele>673</ele>
        <time>2019-06-23T08:55:32.000Z</time>
      </trkpt>
      <trkpt lat="45.66532" lon="3.04681">
        <ele>670</ele>
        <time>2019-06-23T08:55:33.000Z</time>
      </trkpt>
      <trkpt lat="45.66531" lon="3.04688">
        <ele>667</ele>
        <time>2019-06-23T08:55:34.000Z</time>
      </trkpt>
      <trkpt lat="45.66528" lon="3.04696">
        <ele>665</ele>
        <time>2019-06-23T08:55:35.000Z</time>
      </trkpt>
      <trkpt lat="45.66524" lon="3.04705">
        <ele>665</ele>
        <time>2019-06-23T08:55:36.000Z</time>
      </trkpt>
      <trkpt lat="45.66522" lon="3.04712">
        <ele>664</ele>
        <time>2019-06-23T08:55:37.000Z</time>
      </trkpt>
      <trkpt lat="45.6652" lon="3.04715">
        <ele>663</ele>
        <time>2019-06-23T08:55:38.000Z</time>
      </trkpt>
      <trkpt lat="45.66519" lon="3.04718">
        <ele>663</ele>
        <time>2019-06-23T08:55:39.000Z</time>
      </trkpt>
      <trkpt lat="45.66518" lon="3.04722">
        <ele>663</ele>
        <time>2019-06-23T08:55:40.000Z</time>
      </trkpt>
      <trkpt lat="45.66518" lon="3.04725">
        <ele>663</ele>
        <time>2019-06-23T08:55:41.000Z</time>
      </trkpt>
      <trkpt lat="45.66517" lon="3.04728">
        <ele>664</ele>
        <time>2019-06-23T08:55:42.000Z</time>
      </trkpt>
      <trkpt lat="45.66517" lon="3.04731">
        <ele>665</ele>
        <time>2019-06-23T08:55:43.000Z</time>
      </trkpt>
      <trkpt lat="45.66517" lon="3.04732">
        <ele>665</ele>
        <time>2019-06-23T08:55:44.000Z</time>
      </trkpt>
      <trkpt lat="45.66518" lon="3.04734">
        <ele>666</ele>
        <time>2019-06-23T08:55:45.000Z</time>
      </trkpt>
      <trkpt lat="45.66519" lon="3.04734">
        <ele>666</ele>
        <time>2019-06-23T08:55:46.000Z</time>
      </trkpt>
      <trkpt lat="45.6652" lon="3.04735">
        <ele>666</ele>
        <time>2019-06-23T08:55:47.000Z</time>
      </trkpt>
      <trkpt lat="45.66521" lon="3.04736">
        <ele>666</ele>
        <time>2019-06-23T08:55:48.000Z</time>
      </trkpt>
      <trkpt lat="45.66522" lon="3.04737">
        <ele>666</ele>
        <time>2019-06-23T08:55:49.000Z</time>
      </trkpt>
      <trkpt lat="45.66522" lon="3.0474">
        <ele>667</ele>
        <time>2019-06-23T08:55:50.000Z</time>
      </trkpt>
      <trkpt lat="45.66524" lon="3.04743">
        <ele>667</ele>
        <time>2019-06-23T08:55:51.000Z</time>
      </trkpt>
      <trkpt lat="45.66526" lon="3.04746">
        <ele>667</ele>
        <time>2019-06-23T08:55:52.000Z</time>
      </trkpt>
      <trkpt lat="45.66527" lon="3.04749">
        <ele>667</ele>
        <time>2019-06-23T08:55:53.000Z</time>
      </trkpt>
      <trkpt lat="45.66528" lon="3.04754">
        <ele>668</ele>
        <time>2019-06-23T08:55:54.000Z</time>
      </trkpt>
      <trkpt lat="45.66529" lon="3.04758">
        <ele>669</ele>
        <time>2019-06-23T08:55:55.000Z</time>
      </trkpt>
      <trkpt lat="45.6653" lon="3.04762">
        <ele>669</ele>
        <time>2019-06-23T08:55:56.000Z</time>
      </trkpt>
      <trkpt lat="45.66532" lon="3.04767">
        <ele>670</ele>
        <time>2019-06-23T08:55:57.000Z</time>
      </trkpt>
      <trkpt lat="45.66533" lon="3.04772">
        <ele>670</ele>
        <time>2019-06-23T08:55:58.000Z</time>
      </trkpt>
      <trkpt lat="45.66535" lon="3.04777">
        <ele>670</ele>
        <time>2019-06-23T08:55:59.000Z</time>
      </trkpt>
      <trkpt lat="45.66537" lon="3.04782">
        <ele>671</ele>
        <time>2019-06-23T08:56:00.000Z</time>
      </trkpt>
      <trkpt lat="45.66539" lon="3.04787">
        <ele>671</ele>
        <time>2019-06-23T08:56:01.000Z</time>
      </trkpt>
      <trkpt lat="45.66541" lon="3.04793">
        <ele>671</ele>
        <time>2019-06-23T08:56:02.000Z</time>
      </trkpt>
      <trkpt lat="45.66543" lon="3.04798">
        <ele>671</ele>
        <time>2019-06-23T08:56:03.000Z</time>
      </trkpt>
      <trkpt lat="45.66545" lon="3.04804">
        <ele>671</ele>
        <time>2019-06-23T08:56:04.000Z</time>
      </trkpt>
      <trkpt lat="45.66547" lon="3.0481">
        <ele>672</ele>
        <time>2019-06-23T08:56:05.000Z</time>
      </trkpt>
      <trkpt lat="45.66549" lon="3.04816">
        <ele>672</ele>
        <time>2019-06-23T08:56:06.000Z</time>
      </trkpt>
      <trkpt lat="45.66551" lon="3.04822">
        <ele>673</ele>
        <time>2019-06-23T08:56:07.000Z</time>
      </trkpt>
      <trkpt lat="45.66553" lon="3.04828">
        <ele>673</ele>
        <time>2019-06-23T08:56:08.000Z</time>
      </trkpt>
      <trkpt lat="45.66554" lon="3.04834">
        <ele>674</ele>
        <time>2019-06-23T08:56:09.000Z</time>
      </trkpt>
      <trkpt lat="45.66556" lon="3.0484">
        <ele>674</ele>
        <time>2019-06-23T08:56:10.000Z</time>
      </trkpt>
      <trkpt lat="45.66557" lon="3.04845">
        <ele>675</ele>
        <time>2019-06-23T08:56:11.000Z</time>
      </trkpt>
      <trkpt lat="45.66559" lon="3.04851">
        <ele>676</ele>
        <time>2019-06-23T08:56:12.000Z</time>
      </trkpt>
      <trkpt lat="45.6656" lon="3.04857">
        <ele>677</ele>
        <time>2019-06-23T08:56:13.000Z</time>
      </trkpt>
      <trkpt lat="45.66561" lon="3.04861">
        <ele>679</ele>
        <time>2019-06-23T08:56:14.000Z</time>
      </trkpt>
      <trkpt lat="45.66562" lon="3.04868">
        <ele>679</ele>
        <time>2019-06-23T08:56:15.000Z</time>
      </trkpt>
      <trkpt lat="45.66566" lon="3.04874">
        <ele>678</ele>
        <time>2019-06-23T08:56:16.000Z</time>
      </trkpt>
      <trkpt lat="45.66567" lon="3.0488">
        <ele>678</ele>
        <time>2019-06-23T08:56:17.000Z</time>
      </trkpt>
      <trkpt lat="45.66568" lon="3.04885">
        <ele>679</ele>
        <time>2019-06-23T08:56:18.000Z</time>
      </trkpt>
      <trkpt lat="45.66569" lon="3.0489">
        <ele>681</ele>
        <time>2019-06-23T08:56:19.000Z</time>
      </trkpt>
      <trkpt lat="45.66571" lon="3.04896">
        <ele>681</ele>
        <time>2019-06-23T08:56:20.000Z</time>
      </trkpt>
      <trkpt lat="45.66572" lon="3.04902">
        <ele>683</ele>
        <time>2019-06-23T08:56:21.000Z</time>
      </trkpt>
      <trkpt lat="45.66574" lon="3.04909">
        <ele>683</ele>
        <time>2019-06-23T08:56:22.000Z</time>
      </trkpt>
      <trkpt lat="45.66577" lon="3.04917">
        <ele>684</ele>
        <time>2019-06-23T08:56:23.000Z</time>
      </trkpt>
      <trkpt lat="45.66581" lon="3.04923">
        <ele>681</ele>
        <time>2019-06-23T08:56:24.000Z</time>
      </trkpt>
      <trkpt lat="45.66583" lon="3.0493">
        <ele>682</ele>
        <time>2019-06-23T08:56:25.000Z</time>
      </trkpt>
      <trkpt lat="45.66585" lon="3.04937">
        <ele>683</ele>
        <time>2019-06-23T08:56:26.000Z</time>
      </trkpt>
      <trkpt lat="45.66587" lon="3.04945">
        <ele>682</ele>
        <time>2019-06-23T08:56:27.000Z</time>
      </trkpt>
      <trkpt lat="45.66589" lon="3.04954">
        <ele>682</ele>
        <time>2019-06-23T08:56:28.000Z</time>
      </trkpt>
      <trkpt lat="45.66591" lon="3.04967">
        <ele>680</ele>
        <time>2019-06-23T08:56:29.000Z</time>
      </trkpt>
      <trkpt lat="45.66592" lon="3.04979">
        <ele>679</ele>
        <time>2019-06-23T08:56:30.000Z</time>
      </trkpt>
      <trkpt lat="45.66594" lon="3.04993">
        <ele>678</ele>
        <time>2019-06-23T08:56:31.000Z</time>
      </trkpt>
      <trkpt lat="45.66596" lon="3.05007">
        <ele>678</ele>
        <time>2019-06-23T08:56:32.000Z</time>
      </trkpt>
      <trkpt lat="45.66599" lon="3.05017">
        <ele>678</ele>
        <time>2019-06-23T08:56:33.000Z</time>
      </trkpt>
      <trkpt lat="45.66601" lon="3.05027">
        <ele>678</ele>
        <time>2019-06-23T08:56:34.000Z</time>
      </trkpt>
      <trkpt lat="45.66603" lon="3.05037">
        <ele>679</ele>
        <time>2019-06-23T08:56:35.000Z</time>
      </trkpt>
      <trkpt lat="45.66606" lon="3.05046">
        <ele>678</ele>
        <time>2019-06-23T08:56:36.000Z</time>
      </trkpt>
      <trkpt lat="45.66611" lon="3.05059">
        <ele>677</ele>
        <time>2019-06-23T08:56:37.000Z</time>
      </trkpt>
      <trkpt lat="45.66615" lon="3.05071">
        <ele>676</ele>
        <time>2019-06-23T08:56:38.000Z</time>
      </trkpt>
      <trkpt lat="45.66618" lon="3.05084">
        <ele>673</ele>
        <time>2019-06-23T08:56:39.000Z</time>
      </trkpt>
      <trkpt lat="45.66625" lon="3.05096">
        <ele>671</ele>
        <time>2019-06-23T08:56:40.000Z</time>
      </trkpt>
      <trkpt lat="45.66629" lon="3.05108">
        <ele>669</ele>
        <time>2019-06-23T08:56:41.000Z</time>
      </trkpt>
      <trkpt lat="45.66633" lon="3.0512">
        <ele>668</ele>
        <time>2019-06-23T08:56:42.000Z</time>
      </trkpt>
      <trkpt lat="45.66637" lon="3.05131">
        <ele>667</ele>
        <time>2019-06-23T08:56:43.000Z</time>
      </trkpt>
      <trkpt lat="45.66641" lon="3.05141">
        <ele>666</ele>
        <time>2019-06-23T08:56:44.000Z</time>
      </trkpt>
      <trkpt lat="45.66646" lon="3.05152">
        <ele>664</ele>
        <time>2019-06-23T08:56:45.000Z</time>
      </trkpt>
      <trkpt lat="45.66649" lon="3.05162">
        <ele>663</ele>
        <time>2019-06-23T08:56:46.000Z</time>
      </trkpt>
      <trkpt lat="45.66653" lon="3.05173">
        <ele>660</ele>
        <time>2019-06-23T08:56:47.000Z</time>
      </trkpt>
      <trkpt lat="45.66655" lon="3.05184">
        <ele>659</ele>
        <time>2019-06-23T08:56:48.000Z</time>
      </trkpt>
      <trkpt lat="45.66658" lon="3.05195">
        <ele>658</ele>
        <time>2019-06-23T08:56:49.000Z</time>
      </trkpt>
      <trkpt lat="45.66661" lon="3.05205">
        <ele>657</ele>
        <time>2019-06-23T08:56:50.000Z</time>
      </trkpt>
      <trkpt lat="45.66663" lon="3.05216">
        <ele>656</ele>
        <time>2019-06-23T08:56:51.000Z</time>
      </trkpt>
      <trkpt lat="45.66666" lon="3.05226">
        <ele>656</ele>
        <time>2019-06-23T08:56:52.000Z</time>
      </trkpt>
      <trkpt lat="45.66668" lon="3.05237">
        <ele>654</ele>
        <time>2019-06-23T08:56:53.000Z</time>
      </trkpt>
      <trkpt lat="45.66672" lon="3.05249">
        <ele>651</ele>
        <time>2019-06-23T08:56:54.000Z</time>
      </trkpt>
      <trkpt lat="45.66676" lon="3.05263">
        <ele>650</ele>
        <time>2019-06-23T08:56:55.000Z</time>
      </trkpt>
      <trkpt lat="45.66679" lon="3.05278">
        <ele>647</ele>
        <time>2019-06-23T08:56:56.000Z</time>
      </trkpt>
      <trkpt lat="45.66683" lon="3.0529">
        <ele>646</ele>
        <time>2019-06-23T08:56:57.000Z</time>
      </trkpt>
      <trkpt lat="45.66685" lon="3.05302">
        <ele>645</ele>
        <time>2019-06-23T08:56:58.000Z</time>
      </trkpt>
      <trkpt lat="45.66686" lon="3.05313">
        <ele>640</ele>
        <time>2019-06-23T08:56:59.000Z</time>
      </trkpt>
      <trkpt lat="45.66686" lon="3.05325">
        <ele>640</ele>
        <time>2019-06-23T08:57:00.000Z</time>
      </trkpt>
      <trkpt lat="45.66687" lon="3.05335">
        <ele>635</ele>
        <time>2019-06-23T08:57:01.000Z</time>
      </trkpt>
      <trkpt lat="45.6669" lon="3.05339">
        <ele>634</ele>
        <time>2019-06-23T08:57:02.000Z</time>
      </trkpt>
      <trkpt lat="45.66693" lon="3.05348">
        <ele>633</ele>
        <time>2019-06-23T08:57:03.000Z</time>
      </trkpt>
      <trkpt lat="45.66696" lon="3.05356">
        <ele>633</ele>
        <time>2019-06-23T08:57:04.000Z</time>
      </trkpt>
      <trkpt lat="45.66699" lon="3.05365">
        <ele>633</ele>
        <time>2019-06-23T08:57:05.000Z</time>
      </trkpt>
      <trkpt lat="45.66702" lon="3.05373">
        <ele>633</ele>
        <time>2019-06-23T08:57:06.000Z</time>
      </trkpt>
      <trkpt lat="45.66706" lon="3.05382">
        <ele>633</ele>
        <time>2019-06-23T08:57:07.000Z</time>
      </trkpt>
      <trkpt lat="45.66711" lon="3.05391">
        <ele>631</ele>
        <time>2019-06-23T08:57:08.000Z</time>
      </trkpt>
      <trkpt lat="45.66715" lon="3.05399">
        <ele>630</ele>
        <time>2019-06-23T08:57:09.000Z</time>
      </trkpt>
      <trkpt lat="45.66718" lon="3.05404">
        <ele>628</ele>
        <time>2019-06-23T08:57:10.000Z</time>
      </trkpt>
      <trkpt lat="45.66717" lon="3.05405">
        <ele>630</ele>
        <time>2019-06-23T08:57:11.000Z</time>
      </trkpt>
      <trkpt lat="45.66718" lon="3.05408">
        <ele>629</ele>
        <time>2019-06-23T08:57:12.000Z</time>
      </trkpt>
      <trkpt lat="45.6672" lon="3.05412">
        <ele>627</ele>
        <time>2019-06-23T08:57:13.000Z</time>
      </trkpt>
      <trkpt lat="45.66722" lon="3.05416">
        <ele>626</ele>
        <time>2019-06-23T08:57:14.000Z</time>
      </trkpt>
      <trkpt lat="45.66725" lon="3.0542">
        <ele>625</ele>
        <time>2019-06-23T08:57:15.000Z</time>
      </trkpt>
      <trkpt lat="45.66727" lon="3.05423">
        <ele>624</ele>
        <time>2019-06-23T08:57:16.000Z</time>
      </trkpt>
      <trkpt lat="45.66729" lon="3.05428">
        <ele>624</ele>
        <time>2019-06-23T08:57:17.000Z</time>
      </trkpt>
      <trkpt lat="45.66731" lon="3.05431">
        <ele>624</ele>
        <time>2019-06-23T08:57:18.000Z</time>
      </trkpt>
      <trkpt lat="45.66736" lon="3.05434">
        <ele>625</ele>
        <time>2019-06-23T08:57:19.000Z</time>
      </trkpt>
      <trkpt lat="45.66741" lon="3.05439">
        <ele>626</ele>
        <time>2019-06-23T08:57:20.000Z</time>
      </trkpt>
      <trkpt lat="45.66746" lon="3.05445">
        <ele>628</ele>
        <time>2019-06-23T08:57:21.000Z</time>
      </trkpt>
      <trkpt lat="45.6675" lon="3.05448">
        <ele>628</ele>
        <time>2019-06-23T08:57:22.000Z</time>
      </trkpt>
      <trkpt lat="45.66754" lon="3.0545">
        <ele>629</ele>
        <time>2019-06-23T08:57:23.000Z</time>
      </trkpt>
      <trkpt lat="45.66759" lon="3.05452">
        <ele>628</ele>
        <time>2019-06-23T08:57:24.000Z</time>
      </trkpt>
      <trkpt lat="45.66766" lon="3.05454">
        <ele>626</ele>
        <time>2019-06-23T08:57:25.000Z</time>
      </trkpt>
      <trkpt lat="45.66771" lon="3.05456">
        <ele>625</ele>
        <time>2019-06-23T08:57:26.000Z</time>
      </trkpt>
      <trkpt lat="45.66775" lon="3.0546">
        <ele>624</ele>
        <time>2019-06-23T08:57:27.000Z</time>
      </trkpt>
      <trkpt lat="45.66782" lon="3.05463">
        <ele>622</ele>
        <time>2019-06-23T08:57:28.000Z</time>
      </trkpt>
      <trkpt lat="45.66788" lon="3.05466">
        <ele>620</ele>
        <time>2019-06-23T08:57:29.000Z</time>
      </trkpt>
      <trkpt lat="45.66794" lon="3.05469">
        <ele>619</ele>
        <time>2019-06-23T08:57:30.000Z</time>
      </trkpt>
      <trkpt lat="45.66801" lon="3.05473">
        <ele>618</ele>
        <time>2019-06-23T08:57:31.000Z</time>
      </trkpt>
      <trkpt lat="45.66808" lon="3.05477">
        <ele>617</ele>
        <time>2019-06-23T08:57:32.000Z</time>
      </trkpt>
      <trkpt lat="45.66816" lon="3.05478">
        <ele>617</ele>
        <time>2019-06-23T08:57:33.000Z</time>
      </trkpt>
      <trkpt lat="45.66823" lon="3.05479">
        <ele>615</ele>
        <time>2019-06-23T08:57:34.000Z</time>
      </trkpt>
      <trkpt lat="45.66831" lon="3.05479">
        <ele>613</ele>
        <time>2019-06-23T08:57:35.000Z</time>
      </trkpt>
      <trkpt lat="45.66838" lon="3.0548">
        <ele>613</ele>
        <time>2019-06-23T08:57:36.000Z</time>
      </trkpt>
      <trkpt lat="45.66844" lon="3.0548">
        <ele>612</ele>
        <time>2019-06-23T08:57:37.000Z</time>
      </trkpt>
      <trkpt lat="45.66851" lon="3.0548">
        <ele>612</ele>
        <time>2019-06-23T08:57:38.000Z</time>
      </trkpt>
      <trkpt lat="45.66858" lon="3.0548">
        <ele>612</ele>
        <time>2019-06-23T08:57:39.000Z</time>
      </trkpt>
      <trkpt lat="45.66864" lon="3.0548">
        <ele>611</ele>
        <time>2019-06-23T08:57:40.000Z</time>
      </trkpt>
      <trkpt lat="45.6687" lon="3.0548">
        <ele>611</ele>
        <time>2019-06-23T08:57:41.000Z</time>
      </trkpt>
      <trkpt lat="45.66876" lon="3.0548">
        <ele>611</ele>
        <time>2019-06-23T08:57:42.000Z</time>
      </trkpt>
      <trkpt lat="45.66882" lon="3.05479">
        <ele>610</ele>
        <time>2019-06-23T08:57:43.000Z</time>
      </trkpt>
      <trkpt lat="45.66888" lon="3.0548">
        <ele>610</ele>
        <time>2019-06-23T08:57:44.000Z</time>
      </trkpt>
      <trkpt lat="45.66893" lon="3.05483">
        <ele>611</ele>
        <time>2019-06-23T08:57:45.000Z</time>
      </trkpt>
      <trkpt lat="45.66898" lon="3.05488">
        <ele>610</ele>
        <time>2019-06-23T08:57:46.000Z</time>
      </trkpt>
      <trkpt lat="45.66901" lon="3.05493">
        <ele>609</ele>
        <time>2019-06-23T08:57:47.000Z</time>
      </trkpt>
      <trkpt lat="45.66904" lon="3.05501">
        <ele>609</ele>
        <time>2019-06-23T08:57:48.000Z</time>
      </trkpt>
      <trkpt lat="45.66906" lon="3.05508">
        <ele>609</ele>
        <time>2019-06-23T08:57:49.000Z</time>
      </trkpt>
      <trkpt lat="45.66909" lon="3.05516">
        <ele>609</ele>
        <time>2019-06-23T08:57:50.000Z</time>
      </trkpt>
      <trkpt lat="45.66912" lon="3.05523">
        <ele>608</ele>
        <time>2019-06-23T08:57:51.000Z</time>
      </trkpt>
      <trkpt lat="45.66915" lon="3.05531">
        <ele>608</ele>
        <time>2019-06-23T08:57:52.000Z</time>
      </trkpt>
      <trkpt lat="45.66917" lon="3.0554">
        <ele>608</ele>
        <time>2019-06-23T08:57:53.000Z</time>
      </trkpt>
      <trkpt lat="45.6692" lon="3.05547">
        <ele>608</ele>
        <time>2019-06-23T08:57:54.000Z</time>
      </trkpt>
      <trkpt lat="45.66923" lon="3.05555">
        <ele>608</ele>
        <time>2019-06-23T08:57:55.000Z</time>
      </trkpt>
      <trkpt lat="45.66925" lon="3.05563">
        <ele>607</ele>
        <time>2019-06-23T08:57:56.000Z</time>
      </trkpt>
      <trkpt lat="45.66926" lon="3.05571">
        <ele>607</ele>
        <time>2019-06-23T08:57:57.000Z</time>
      </trkpt>
      <trkpt lat="45.66928" lon="3.05579">
        <ele>607</ele>
        <time>2019-06-23T08:57:58.000Z</time>
      </trkpt>
      <trkpt lat="45.66928" lon="3.05588">
        <ele>607</ele>
        <time>2019-06-23T08:57:59.000Z</time>
      </trkpt>
      <trkpt lat="45.66928" lon="3.05596">
        <ele>607</ele>
        <time>2019-06-23T08:58:00.000Z</time>
      </trkpt>
      <trkpt lat="45.66929" lon="3.05604">
        <ele>606</ele>
        <time>2019-06-23T08:58:01.000Z</time>
      </trkpt>
      <trkpt lat="45.66931" lon="3.05612">
        <ele>606</ele>
        <time>2019-06-23T08:58:02.000Z</time>
      </trkpt>
      <trkpt lat="45.66934" lon="3.05619">
        <ele>606</ele>
        <time>2019-06-23T08:58:03.000Z</time>
      </trkpt>
      <trkpt lat="45.66937" lon="3.05626">
        <ele>605</ele>
        <time>2019-06-23T08:58:04.000Z</time>
      </trkpt>
      <trkpt lat="45.6694" lon="3.05633">
        <ele>606</ele>
        <time>2019-06-23T08:58:05.000Z</time>
      </trkpt>
      <trkpt lat="45.66942" lon="3.05639">
        <ele>606</ele>
        <time>2019-06-23T08:58:06.000Z</time>
      </trkpt>
      <trkpt lat="45.66945" lon="3.05645">
        <ele>606</ele>
        <time>2019-06-23T08:58:07.000Z</time>
      </trkpt>
      <trkpt lat="45.66947" lon="3.05652">
        <ele>606</ele>
        <time>2019-06-23T08:58:08.000Z</time>
      </trkpt>
      <trkpt lat="45.6695" lon="3.05659">
        <ele>606</ele>
        <time>2019-06-23T08:58:09.000Z</time>
      </trkpt>
      <trkpt lat="45.66953" lon="3.05665">
        <ele>606</ele>
        <time>2019-06-23T08:58:10.000Z</time>
      </trkpt>
      <trkpt lat="45.66956" lon="3.05671">
        <ele>606</ele>
        <time>2019-06-23T08:58:11.000Z</time>
      </trkpt>
      <trkpt lat="45.66958" lon="3.05678">
        <ele>607</ele>
        <time>2019-06-23T08:58:12.000Z</time>
      </trkpt>
      <trkpt lat="45.66962" lon="3.05684">
        <ele>607</ele>
        <time>2019-06-23T08:58:13.000Z</time>
      </trkpt>
      <trkpt lat="45.66966" lon="3.0569">
        <ele>607</ele>
        <time>2019-06-23T08:58:14.000Z</time>
      </trkpt>
      <trkpt lat="45.6697" lon="3.05695">
        <ele>608</ele>
        <time>2019-06-23T08:58:15.000Z</time>
      </trkpt>
      <trkpt lat="45.66974" lon="3.057">
        <ele>608</ele>
        <time>2019-06-23T08:58:16.000Z</time>
      </trkpt>
      <trkpt lat="45.66979" lon="3.05705">
        <ele>608</ele>
        <time>2019-06-23T08:58:17.000Z</time>
      </trkpt>
      <trkpt lat="45.66983" lon="3.05709">
        <ele>608</ele>
        <time>2019-06-23T08:58:18.000Z</time>
      </trkpt>
      <trkpt lat="45.66988" lon="3.05712">
        <ele>607</ele>
        <time>2019-06-23T08:58:19.000Z</time>
      </trkpt>
      <trkpt lat="45.66992" lon="3.05715">
        <ele>607</ele>
        <time>2019-06-23T08:58:20.000Z</time>
      </trkpt>
      <trkpt lat="45.66997" lon="3.0572">
        <ele>607</ele>
        <time>2019-06-23T08:58:21.000Z</time>
      </trkpt>
      <trkpt lat="45.67001" lon="3.05724">
        <ele>607</ele>
        <time>2019-06-23T08:58:22.000Z</time>
      </trkpt>
      <trkpt lat="45.67006" lon="3.05728">
        <ele>607</ele>
        <time>2019-06-23T08:58:23.000Z</time>
      </trkpt>
      <trkpt lat="45.67011" lon="3.05732">
        <ele>607</ele>
        <time>2019-06-23T08:58:24.000Z</time>
      </trkpt>
      <trkpt lat="45.67015" lon="3.05736">
        <ele>607</ele>
        <time>2019-06-23T08:58:25.000Z</time>
      </trkpt>
      <trkpt lat="45.6702" lon="3.0574">
        <ele>608</ele>
        <time>2019-06-23T08:58:26.000Z</time>
      </trkpt>
      <trkpt lat="45.67025" lon="3.05745">
        <ele>608</ele>
        <time>2019-06-23T08:58:27.000Z</time>
      </trkpt>
      <trkpt lat="45.67029" lon="3.05749">
        <ele>608</ele>
        <time>2019-06-23T08:58:28.000Z</time>
      </trkpt>
      <trkpt lat="45.67034" lon="3.05753">
        <ele>608</ele>
        <time>2019-06-23T08:58:29.000Z</time>
      </trkpt>
      <trkpt lat="45.67039" lon="3.05758">
        <ele>607</ele>
        <time>2019-06-23T08:58:30.000Z</time>
      </trkpt>
      <trkpt lat="45.67044" lon="3.05762">
        <ele>607</ele>
        <time>2019-06-23T08:58:31.000Z</time>
      </trkpt>
      <trkpt lat="45.67049" lon="3.05765">
        <ele>607</ele>
        <time>2019-06-23T08:58:32.000Z</time>
      </trkpt>
      <trkpt lat="45.67055" lon="3.05768">
        <ele>607</ele>
        <time>2019-06-23T08:58:33.000Z</time>
      </trkpt>
      <trkpt lat="45.6706" lon="3.05772">
        <ele>607</ele>
        <time>2019-06-23T08:58:34.000Z</time>
      </trkpt>
      <trkpt lat="45.67066" lon="3.05775">
        <ele>607</ele>
        <time>2019-06-23T08:58:35.000Z</time>
      </trkpt>
      <trkpt lat="45.67071" lon="3.05778">
        <ele>607</ele>
        <time>2019-06-23T08:58:36.000Z</time>
      </trkpt>
      <trkpt lat="45.67077" lon="3.05781">
        <ele>607</ele>
        <time>2019-06-23T08:58:37.000Z</time>
      </trkpt>
      <trkpt lat="45.67083" lon="3.05782">
        <ele>607</ele>
        <time>2019-06-23T08:58:38.000Z</time>
      </trkpt>
      <trkpt lat="45.67088" lon="3.05785">
        <ele>607</ele>
        <time>2019-06-23T08:58:39.000Z</time>
      </trkpt>
      <trkpt lat="45.67094" lon="3.05788">
        <ele>607</ele>
        <time>2019-06-23T08:58:40.000Z</time>
      </trkpt>
      <trkpt lat="45.67099" lon="3.05791">
        <ele>608</ele>
        <time>2019-06-23T08:58:41.000Z</time>
      </trkpt>
      <trkpt lat="45.67104" lon="3.05793">
        <ele>608</ele>
        <time>2019-06-23T08:58:42.000Z</time>
      </trkpt>
      <trkpt lat="45.67109" lon="3.05797">
        <ele>608</ele>
        <time>2019-06-23T08:58:43.000Z</time>
      </trkpt>
      <trkpt lat="45.67114" lon="3.058">
        <ele>608</ele>
        <time>2019-06-23T08:58:44.000Z</time>
      </trkpt>
      <trkpt lat="45.67119" lon="3.05804">
        <ele>608</ele>
        <time>2019-06-23T08:58:45.000Z</time>
      </trkpt>
      <trkpt lat="45.67122" lon="3.05809">
        <ele>608</ele>
        <time>2019-06-23T08:58:46.000Z</time>
      </trkpt>
      <trkpt lat="45.67125" lon="3.05814">
        <ele>608</ele>
        <time>2019-06-23T08:58:47.000Z</time>
      </trkpt>
      <trkpt lat="45.67127" lon="3.05819">
        <ele>608</ele>
        <time>2019-06-23T08:58:48.000Z</time>
      </trkpt>
      <trkpt lat="45.67129" lon="3.05822">
        <ele>608</ele>
        <time>2019-06-23T08:58:49.000Z</time>
      </trkpt>
      <trkpt lat="45.67131" lon="3.05823">
        <ele>608</ele>
        <time>2019-06-23T08:58:50.000Z</time>
      </trkpt>
      <trkpt lat="45.67132" lon="3.05823">
        <ele>608</ele>
        <time>2019-06-23T08:58:51.000Z</time>
      </trkpt>
      <trkpt lat="45.67132" lon="3.05823">
        <ele>609</ele>
        <time>2019-06-23T08:58:52.000Z</time>
      </trkpt>
      <trkpt lat="45.67134" lon="3.05816">
        <ele>609</ele>
        <time>2019-06-23T08:58:53.000Z</time>
      </trkpt>
      <trkpt lat="45.67133" lon="3.05814">
        <ele>609</ele>
        <time>2019-06-23T08:58:54.000Z</time>
      </trkpt>
      <trkpt lat="45.67131" lon="3.05811">
        <ele>609</ele>
        <time>2019-06-23T08:58:55.000Z</time>
      </trkpt>
      <trkpt lat="45.67129" lon="3.05808">
        <ele>608</ele>
        <time>2019-06-23T08:58:56.000Z</time>
      </trkpt>
      <trkpt lat="45.67127" lon="3.05806">
        <ele>609</ele>
        <time>2019-06-23T08:58:57.000Z</time>
      </trkpt>
      <trkpt lat="45.67124" lon="3.05803">
        <ele>609</ele>
        <time>2019-06-23T08:58:58.000Z</time>
      </trkpt>
      <trkpt lat="45.67121" lon="3.058">
        <ele>608</ele>
        <time>2019-06-23T08:58:59.000Z</time>
      </trkpt>
      <trkpt lat="45.67118" lon="3.05798">
        <ele>608</ele>
        <time>2019-06-23T08:59:00.000Z</time>
      </trkpt>
      <trkpt lat="45.67114" lon="3.05795">
        <ele>608</ele>
        <time>2019-06-23T08:59:01.000Z</time>
      </trkpt>
      <trkpt lat="45.67111" lon="3.05793">
        <ele>608</ele>
        <time>2019-06-23T08:59:02.000Z</time>
      </trkpt>
      <trkpt lat="45.67107" lon="3.05791">
        <ele>608</ele>
        <time>2019-06-23T08:59:03.000Z</time>
      </trkpt>
      <trkpt lat="45.67103" lon="3.05788">
        <ele>608</ele>
        <time>2019-06-23T08:59:04.000Z</time>
      </trkpt>
      <trkpt lat="45.67099" lon="3.05786">
        <ele>608</ele>
        <time>2019-06-23T08:59:05.000Z</time>
      </trkpt>
      <trkpt lat="45.67095" lon="3.05784">
        <ele>608</ele>
        <time>2019-06-23T08:59:06.000Z</time>
      </trkpt>
      <trkpt lat="45.67091" lon="3.05782">
        <ele>608</ele>
        <time>2019-06-23T08:59:07.000Z</time>
      </trkpt>
      <trkpt lat="45.67087" lon="3.05781">
        <ele>608</ele>
        <time>2019-06-23T08:59:08.000Z</time>
      </trkpt>
      <trkpt lat="45.67082" lon="3.05781">
        <ele>608</ele>
        <time>2019-06-23T08:59:09.000Z</time>
      </trkpt>
      <trkpt lat="45.67078" lon="3.0578">
        <ele>608</ele>
        <time>2019-06-23T08:59:10.000Z</time>
      </trkpt>
      <trkpt lat="45.67074" lon="3.05779">
        <ele>608</ele>
        <time>2019-06-23T08:59:11.000Z</time>
      </trkpt>
      <trkpt lat="45.6707" lon="3.05777">
        <ele>608</ele>
        <time>2019-06-23T08:59:12.000Z</time>
      </trkpt>
      <trkpt lat="45.67066" lon="3.05775">
        <ele>608</ele>
        <time>2019-06-23T08:59:13.000Z</time>
      </trkpt>
      <trkpt lat="45.67062" lon="3.05773">
        <ele>608</ele>
        <time>2019-06-23T08:59:14.000Z</time>
      </trkpt>
      <trkpt lat="45.67059" lon="3.0577">
        <ele>608</ele>
        <time>2019-06-23T08:59:15.000Z</time>
      </trkpt>
      <trkpt lat="45.67055" lon="3.05767">
        <ele>608</ele>
        <time>2019-06-23T08:59:16.000Z</time>
      </trkpt>
      <trkpt lat="45.67051" lon="3.05765">
        <ele>608</ele>
        <time>2019-06-23T08:59:17.000Z</time>
      </trkpt>
      <trkpt lat="45.67048" lon="3.05763">
        <ele>608</ele>
        <time>2019-06-23T08:59:18.000Z</time>
      </trkpt>
      <trkpt lat="45.67044" lon="3.05761">
        <ele>608</ele>
        <time>2019-06-23T08:59:19.000Z</time>
      </trkpt>
      <trkpt lat="45.67041" lon="3.05758">
        <ele>608</ele>
        <time>2019-06-23T08:59:20.000Z</time>
      </trkpt>
      <trkpt lat="45.67038" lon="3.05755">
        <ele>608</ele>
        <time>2019-06-23T08:59:21.000Z</time>
      </trkpt>
      <trkpt lat="45.67035" lon="3.05752">
        <ele>608</ele>
        <time>2019-06-23T08:59:22.000Z</time>
      </trkpt>
      <trkpt lat="45.67032" lon="3.05749">
        <ele>608</ele>
        <time>2019-06-23T08:59:23.000Z</time>
      </trkpt>
      <trkpt lat="45.67029" lon="3.05746">
        <ele>608</ele>
        <time>2019-06-23T08:59:24.000Z</time>
      </trkpt>
      <trkpt lat="45.67027" lon="3.05742">
        <ele>608</ele>
        <time>2019-06-23T08:59:25.000Z</time>
      </trkpt>
      <trkpt lat="45.67023" lon="3.0574">
        <ele>608</ele>
        <time>2019-06-23T08:59:26.000Z</time>
      </trkpt>
      <trkpt lat="45.6702" lon="3.05737">
        <ele>608</ele>
        <time>2019-06-23T08:59:27.000Z</time>
      </trkpt>
      <trkpt lat="45.67016" lon="3.05734">
        <ele>608</ele>
        <time>2019-06-23T08:59:28.000Z</time>
      </trkpt>
      <trkpt lat="45.67012" lon="3.05732">
        <ele>608</ele>
        <time>2019-06-23T08:59:29.000Z</time>
      </trkpt>
      <trkpt lat="45.67009" lon="3.05729">
        <ele>608</ele>
        <time>2019-06-23T08:59:30.000Z</time>
      </trkpt>
      <trkpt lat="45.67005" lon="3.05726">
        <ele>608</ele>
        <time>2019-06-23T08:59:31.000Z</time>
      </trkpt>
      <trkpt lat="45.67001" lon="3.05722">
        <ele>608</ele>
        <time>2019-06-23T08:59:32.000Z</time>
      </trkpt>
      <trkpt lat="45.66997" lon="3.05719">
        <ele>608</ele>
        <time>2019-06-23T08:59:33.000Z</time>
      </trkpt>
      <trkpt lat="45.66993" lon="3.05716">
        <ele>608</ele>
        <time>2019-06-23T08:59:34.000Z</time>
      </trkpt>
      <trkpt lat="45.66989" lon="3.05713">
        <ele>608</ele>
        <time>2019-06-23T08:59:35.000Z</time>
      </trkpt>
      <trkpt lat="45.66985" lon="3.0571">
        <ele>607</ele>
        <time>2019-06-23T08:59:36.000Z</time>
      </trkpt>
      <trkpt lat="45.66981" lon="3.05707">
        <ele>607</ele>
        <time>2019-06-23T08:59:37.000Z</time>
      </trkpt>
      <trkpt lat="45.66977" lon="3.05703">
        <ele>607</ele>
        <time>2019-06-23T08:59:38.000Z</time>
      </trkpt>
      <trkpt lat="45.66974" lon="3.05699">
        <ele>607</ele>
        <time>2019-06-23T08:59:39.000Z</time>
      </trkpt>
      <trkpt lat="45.6697" lon="3.05694">
        <ele>607</ele>
        <time>2019-06-23T08:59:40.000Z</time>
      </trkpt>
      <trkpt lat="45.66966" lon="3.0569">
        <ele>607</ele>
        <time>2019-06-23T08:59:41.000Z</time>
      </trkpt>
      <trkpt lat="45.66963" lon="3.05685">
        <ele>607</ele>
        <time>2019-06-23T08:59:42.000Z</time>
      </trkpt>
      <trkpt lat="45.66959" lon="3.05679">
        <ele>607</ele>
        <time>2019-06-23T08:59:43.000Z</time>
      </trkpt>
      <trkpt lat="45.66957" lon="3.05673">
        <ele>606</ele>
        <time>2019-06-23T08:59:44.000Z</time>
      </trkpt>
      <trkpt lat="45.66955" lon="3.05667">
        <ele>607</ele>
        <time>2019-06-23T08:59:45.000Z</time>
      </trkpt>
      <trkpt lat="45.66952" lon="3.05661">
        <ele>607</ele>
        <time>2019-06-23T08:59:46.000Z</time>
      </trkpt>
      <trkpt lat="45.66949" lon="3.05656">
        <ele>607</ele>
        <time>2019-06-23T08:59:47.000Z</time>
      </trkpt>
      <trkpt lat="45.66947" lon="3.0565">
        <ele>607</ele>
        <time>2019-06-23T08:59:48.000Z</time>
      </trkpt>
      <trkpt lat="45.66945" lon="3.05645">
        <ele>606</ele>
        <time>2019-06-23T08:59:49.000Z</time>
      </trkpt>
      <trkpt lat="45.66942" lon="3.05639">
        <ele>606</ele>
        <time>2019-06-23T08:59:50.000Z</time>
      </trkpt>
      <trkpt lat="45.66939" lon="3.05634">
        <ele>607</ele>
        <time>2019-06-23T08:59:51.000Z</time>
      </trkpt>
      <trkpt lat="45.66937" lon="3.05628">
        <ele>606</ele>
        <time>2019-06-23T08:59:52.000Z</time>
      </trkpt>
      <trkpt lat="45.66934" lon="3.05623">
        <ele>607</ele>
        <time>2019-06-23T08:59:53.000Z</time>
      </trkpt>
      <trkpt lat="45.66932" lon="3.05618">
        <ele>607</ele>
        <time>2019-06-23T08:59:54.000Z</time>
      </trkpt>
      <trkpt lat="45.66931" lon="3.05612">
        <ele>607</ele>
        <time>2019-06-23T08:59:55.000Z</time>
      </trkpt>
      <trkpt lat="45.66931" lon="3.05606">
        <ele>607</ele>
        <time>2019-06-23T08:59:56.000Z</time>
      </trkpt>
      <trkpt lat="45.66932" lon="3.05601">
        <ele>607</ele>
        <time>2019-06-23T08:59:57.000Z</time>
      </trkpt>
      <trkpt lat="45.66932" lon="3.05596">
        <ele>607</ele>
        <time>2019-06-23T08:59:58.000Z</time>
      </trkpt>
      <trkpt lat="45.66931" lon="3.05591">
        <ele>607</ele>
        <time>2019-06-23T08:59:59.000Z</time>
      </trkpt>
      <trkpt lat="45.66931" lon="3.05586">
        <ele>608</ele>
        <time>2019-06-23T09:00:00.000Z</time>
      </trkpt>
      <trkpt lat="45.6693" lon="3.05581">
        <ele>608</ele>
        <time>2019-06-23T09:00:01.000Z</time>
      </trkpt>
      <trkpt lat="45.6693" lon="3.05576">
        <ele>608</ele>
        <time>2019-06-23T09:00:02.000Z</time>
      </trkpt>
      <trkpt lat="45.66929" lon="3.05571">
        <ele>608</ele>
        <time>2019-06-23T09:00:03.000Z</time>
      </trkpt>
      <trkpt lat="45.66928" lon="3.05566">
        <ele>608</ele>
        <time>2019-06-23T09:00:04.000Z</time>
      </trkpt>
      <trkpt lat="45.66927" lon="3.05561">
        <ele>608</ele>
        <time>2019-06-23T09:00:05.000Z</time>
      </trkpt>
      <trkpt lat="45.66926" lon="3.05556">
        <ele>608</ele>
        <time>2019-06-23T09:00:06.000Z</time>
      </trkpt>
      <trkpt lat="45.66924" lon="3.05551">
        <ele>608</ele>
        <time>2019-06-23T09:00:07.000Z</time>
      </trkpt>
      <trkpt lat="45.66923" lon="3.05546">
        <ele>608</ele>
        <time>2019-06-23T09:00:08.000Z</time>
      </trkpt>
      <trkpt lat="45.66921" lon="3.05541">
        <ele>608</ele>
        <time>2019-06-23T09:00:09.000Z</time>
      </trkpt>
      <trkpt lat="45.6692" lon="3.05536">
        <ele>608</ele>
        <time>2019-06-23T09:00:10.000Z</time>
      </trkpt>
      <trkpt lat="45.66918" lon="3.05532">
        <ele>608</ele>
        <time>2019-06-23T09:00:11.000Z</time>
      </trkpt>
      <trkpt lat="45.66917" lon="3.05527">
        <ele>608</ele>
        <time>2019-06-23T09:00:12.000Z</time>
      </trkpt>
      <trkpt lat="45.66916" lon="3.05522">
        <ele>608</ele>
        <time>2019-06-23T09:00:13.000Z</time>
      </trkpt>
      <trkpt lat="45.66914" lon="3.05517">
        <ele>608</ele>
        <time>2019-06-23T09:00:14.000Z</time>
      </trkpt>
      <trkpt lat="45.66913" lon="3.05512">
        <ele>608</ele>
        <time>2019-06-23T09:00:15.000Z</time>
      </trkpt>
      <trkpt lat="45.66911" lon="3.05507">
        <ele>608</ele>
        <time>2019-06-23T09:00:16.000Z</time>
      </trkpt>
      <trkpt lat="45.66909" lon="3.05502">
        <ele>608</ele>
        <time>2019-06-23T09:00:17.000Z</time>
      </trkpt>
      <trkpt lat="45.66907" lon="3.05498">
        <ele>608</ele>
        <time>2019-06-23T09:00:18.000Z</time>
      </trkpt>
      <trkpt lat="45.66904" lon="3.05495">
        <ele>609</ele>
        <time>2019-06-23T09:00:19.000Z</time>
      </trkpt>
      <trkpt lat="45.66902" lon="3.05492">
        <ele>609</ele>
        <time>2019-06-23T09:00:20.000Z</time>
      </trkpt>
      <trkpt lat="45.66899" lon="3.05489">
        <ele>609</ele>
        <time>2019-06-23T09:00:21.000Z</time>
      </trkpt>
      <trkpt lat="45.66897" lon="3.05485">
        <ele>609</ele>
        <time>2019-06-23T09:00:22.000Z</time>
      </trkpt>
      <trkpt lat="45.66896" lon="3.05482">
        <ele>609</ele>
        <time>2019-06-23T09:00:23.000Z</time>
      </trkpt>
      <trkpt lat="45.66895" lon="3.05478">
        <ele>609</ele>
        <time>2019-06-23T09:00:24.000Z</time>
      </trkpt>
      <trkpt lat="45.66894" lon="3.05475">
        <ele>610</ele>
        <time>2019-06-23T09:00:25.000Z</time>
      </trkpt>
      <trkpt lat="45.66893" lon="3.05472">
        <ele>610</ele>
        <time>2019-06-23T09:00:26.000Z</time>
      </trkpt>
      <trkpt lat="45.66892" lon="3.05468">
        <ele>610</ele>
        <time>2019-06-23T09:00:27.000Z</time>
      </trkpt>
      <trkpt lat="45.66891" lon="3.05465">
        <ele>610</ele>
        <time>2019-06-23T09:00:28.000Z</time>
      </trkpt>
      <trkpt lat="45.66891" lon="3.05462">
        <ele>610</ele>
        <time>2019-06-23T09:00:29.000Z</time>
      </trkpt>
      <trkpt lat="45.66889" lon="3.05458">
        <ele>610</ele>
        <time>2019-06-23T09:00:30.000Z</time>
      </trkpt>
      <trkpt lat="45.66888" lon="3.05455">
        <ele>610</ele>
        <time>2019-06-23T09:00:31.000Z</time>
      </trkpt>
      <trkpt lat="45.66886" lon="3.05451">
        <ele>610</ele>
        <time>2019-06-23T09:00:32.000Z</time>
      </trkpt>
      <trkpt lat="45.66885" lon="3.05448">
        <ele>610</ele>
        <time>2019-06-23T09:00:33.000Z</time>
      </trkpt>
      <trkpt lat="45.66883" lon="3.05445">
        <ele>611</ele>
        <time>2019-06-23T09:00:34.000Z</time>
      </trkpt>
      <trkpt lat="45.66882" lon="3.05442">
        <ele>611</ele>
        <time>2019-06-23T09:00:35.000Z</time>
      </trkpt>
      <trkpt lat="45.6688" lon="3.05439">
        <ele>611</ele>
        <time>2019-06-23T09:00:36.000Z</time>
      </trkpt>
      <trkpt lat="45.66879" lon="3.05436">
        <ele>612</ele>
        <time>2019-06-23T09:00:37.000Z</time>
      </trkpt>
      <trkpt lat="45.66877" lon="3.05434">
        <ele>611</ele>
        <time>2019-06-23T09:00:38.000Z</time>
      </trkpt>
      <trkpt lat="45.66875" lon="3.05431">
        <ele>612</ele>
        <time>2019-06-23T09:00:39.000Z</time>
      </trkpt>
      <trkpt lat="45.66873" lon="3.05428">
        <ele>611</ele>
        <time>2019-06-23T09:00:40.000Z</time>
      </trkpt>
      <trkpt lat="45.66872" lon="3.05426">
        <ele>611</ele>
        <time>2019-06-23T09:00:41.000Z</time>
      </trkpt>
      <trkpt lat="45.66871" lon="3.05424">
        <ele>611</ele>
        <time>2019-06-23T09:00:42.000Z</time>
      </trkpt>
      <trkpt lat="45.6687" lon="3.05423">
        <ele>611</ele>
        <time>2019-06-23T09:00:43.000Z</time>
      </trkpt>
      <trkpt lat="45.66869" lon="3.05423">
        <ele>613</ele>
        <time>2019-06-23T09:00:44.000Z</time>
      </trkpt>
      <trkpt lat="45.66869" lon="3.05424">
        <ele>613</ele>
        <time>2019-06-23T09:00:45.000Z</time>
      </trkpt>
      <trkpt lat="45.66871" lon="3.05426">
        <ele>613</ele>
        <time>2019-06-23T09:00:46.000Z</time>
      </trkpt>
      <trkpt lat="45.66872" lon="3.05428">
        <ele>614</ele>
        <time>2019-06-23T09:00:47.000Z</time>
      </trkpt>
      <trkpt lat="45.66874" lon="3.05431">
        <ele>614</ele>
        <time>2019-06-23T09:00:48.000Z</time>
      </trkpt>
      <trkpt lat="45.66875" lon="3.05435">
        <ele>614</ele>
        <time>2019-06-23T09:00:49.000Z</time>
      </trkpt>
      <trkpt lat="45.66877" lon="3.0544">
        <ele>615</ele>
        <time>2019-06-23T09:00:50.000Z</time>
      </trkpt>
      <trkpt lat="45.66879" lon="3.05444">
        <ele>614</ele>
        <time>2019-06-23T09:00:51.000Z</time>
      </trkpt>
      <trkpt lat="45.66883" lon="3.05449">
        <ele>614</ele>
        <time>2019-06-23T09:00:52.000Z</time>
      </trkpt>
      <trkpt lat="45.66885" lon="3.05453">
        <ele>613</ele>
        <time>2019-06-23T09:00:53.000Z</time>
      </trkpt>
      <trkpt lat="45.66887" lon="3.05458">
        <ele>614</ele>
        <time>2019-06-23T09:00:54.000Z</time>
      </trkpt>
      <trkpt lat="45.66889" lon="3.05463">
        <ele>614</ele>
        <time>2019-06-23T09:00:55.000Z</time>
      </trkpt>
      <trkpt lat="45.6689" lon="3.05468">
        <ele>614</ele>
        <time>2019-06-23T09:00:56.000Z</time>
      </trkpt>
      <trkpt lat="45.66889" lon="3.05472">
        <ele>612</ele>
        <time>2019-06-23T09:00:57.000Z</time>
      </trkpt>
      <trkpt lat="45.66887" lon="3.05475">
        <ele>611</ele>
        <time>2019-06-23T09:00:58.000Z</time>
      </trkpt>
      <trkpt lat="45.66887" lon="3.05478">
        <ele>612</ele>
        <time>2019-06-23T09:00:59.000Z</time>
      </trkpt>
      <trkpt lat="45.66885" lon="3.05479">
        <ele>611</ele>
        <time>2019-06-23T09:01:00.000Z</time>
      </trkpt>
      <trkpt lat="45.66883" lon="3.05479">
        <ele>611</ele>
        <time>2019-06-23T09:01:01.000Z</time>
      </trkpt>
      <trkpt lat="45.6688" lon="3.05479">
        <ele>610</ele>
        <time>2019-06-23T09:01:02.000Z</time>
      </trkpt>
      <trkpt lat="45.66878" lon="3.05478">
        <ele>610</ele>
        <time>2019-06-23T09:01:03.000Z</time>
      </trkpt>
      <trkpt lat="45.66875" lon="3.05478">
        <ele>609</ele>
        <time>2019-06-23T09:01:04.000Z</time>
      </trkpt>
      <trkpt lat="45.66871" lon="3.05478">
        <ele>609</ele>
        <time>2019-06-23T09:01:05.000Z</time>
      </trkpt>
      <trkpt lat="45.66868" lon="3.05478">
        <ele>609</ele>
        <time>2019-06-23T09:01:06.000Z</time>
      </trkpt>
      <trkpt lat="45.66865" lon="3.05478">
        <ele>609</ele>
        <time>2019-06-23T09:01:07.000Z</time>
      </trkpt>
      <trkpt lat="45.66862" lon="3.05479">
        <ele>609</ele>
        <time>2019-06-23T09:01:08.000Z</time>
      </trkpt>
      <trkpt lat="45.66859" lon="3.05479">
        <ele>609</ele>
        <time>2019-06-23T09:01:09.000Z</time>
      </trkpt>
      <trkpt lat="45.66856" lon="3.0548">
        <ele>609</ele>
        <time>2019-06-23T09:01:10.000Z</time>
      </trkpt>
      <trkpt lat="45.66852" lon="3.0548">
        <ele>610</ele>
        <time>2019-06-23T09:01:11.000Z</time>
      </trkpt>
      <trkpt lat="45.66849" lon="3.05481">
        <ele>610</ele>
        <time>2019-06-23T09:01:12.000Z</time>
      </trkpt>
      <trkpt lat="45.66846" lon="3.05481">
        <ele>610</ele>
        <time>2019-06-23T09:01:13.000Z</time>
      </trkpt>
      <trkpt lat="45.66843" lon="3.05482">
        <ele>610</ele>
        <time>2019-06-23T09:01:14.000Z</time>
      </trkpt>
      <trkpt lat="45.6684" lon="3.05483">
        <ele>610</ele>
        <time>2019-06-23T09:01:15.000Z</time>
      </trkpt>
      <trkpt lat="45.66837" lon="3.05483">
        <ele>610</ele>
        <time>2019-06-23T09:01:16.000Z</time>
      </trkpt>
      <trkpt lat="45.66834" lon="3.05482">
        <ele>610</ele>
        <time>2019-06-23T09:01:17.000Z</time>
      </trkpt>
      <trkpt lat="45.6683" lon="3.05482">
        <ele>610</ele>
        <time>2019-06-23T09:01:18.000Z</time>
      </trkpt>
      <trkpt lat="45.66827" lon="3.05482">
        <ele>610</ele>
        <time>2019-06-23T09:01:19.000Z</time>
      </trkpt>
      <trkpt lat="45.66824" lon="3.05482">
        <ele>610</ele>
        <time>2019-06-23T09:01:20.000Z</time>
      </trkpt>
      <trkpt lat="45.6682" lon="3.05482">
        <ele>610</ele>
        <time>2019-06-23T09:01:21.000Z</time>
      </trkpt>
      <trkpt lat="45.66817" lon="3.05481">
        <ele>610</ele>
        <time>2019-06-23T09:01:22.000Z</time>
      </trkpt>
      <trkpt lat="45.66814" lon="3.0548">
        <ele>611</ele>
        <time>2019-06-23T09:01:23.000Z</time>
      </trkpt>
      <trkpt lat="45.66811" lon="3.05478">
        <ele>611</ele>
        <time>2019-06-23T09:01:24.000Z</time>
      </trkpt>
      <trkpt lat="45.66808" lon="3.05476">
        <ele>611</ele>
        <time>2019-06-23T09:01:25.000Z</time>
      </trkpt>
      <trkpt lat="45.66805" lon="3.05475">
        <ele>611</ele>
        <time>2019-06-23T09:01:26.000Z</time>
      </trkpt>
      <trkpt lat="45.66802" lon="3.05473">
        <ele>611</ele>
        <time>2019-06-23T09:01:27.000Z</time>
      </trkpt>
      <trkpt lat="45.668" lon="3.05472">
        <ele>611</ele>
        <time>2019-06-23T09:01:28.000Z</time>
      </trkpt>
      <trkpt lat="45.66797" lon="3.0547">
        <ele>612</ele>
        <time>2019-06-23T09:01:29.000Z</time>
      </trkpt>
      <trkpt lat="45.66794" lon="3.05469">
        <ele>612</ele>
        <time>2019-06-23T09:01:30.000Z</time>
      </trkpt>
      <trkpt lat="45.66792" lon="3.05468">
        <ele>612</ele>
        <time>2019-06-23T09:01:31.000Z</time>
      </trkpt>
      <trkpt lat="45.66789" lon="3.05466">
        <ele>613</ele>
        <time>2019-06-23T09:01:32.000Z</time>
      </trkpt>
      <trkpt lat="45.66787" lon="3.05465">
        <ele>613</ele>
        <time>2019-06-23T09:01:33.000Z</time>
      </trkpt>
      <trkpt lat="45.66784" lon="3.05464">
        <ele>613</ele>
        <time>2019-06-23T09:01:34.000Z</time>
      </trkpt>
      <trkpt lat="45.66781" lon="3.05462">
        <ele>613</ele>
        <time>2019-06-23T09:01:35.000Z</time>
      </trkpt>
      <trkpt lat="45.66778" lon="3.0546">
        <ele>613</ele>
        <time>2019-06-23T09:01:36.000Z</time>
      </trkpt>
      <trkpt lat="45.66776" lon="3.05459">
        <ele>614</ele>
        <time>2019-06-23T09:01:37.000Z</time>
      </trkpt>
      <trkpt lat="45.66773" lon="3.05457">
        <ele>614</ele>
        <time>2019-06-23T09:01:38.000Z</time>
      </trkpt>
      <trkpt lat="45.6677" lon="3.05456">
        <ele>615</ele>
        <time>2019-06-23T09:01:39.000Z</time>
      </trkpt>
      <trkpt lat="45.66768" lon="3.05454">
        <ele>615</ele>
        <time>2019-06-23T09:01:40.000Z</time>
      </trkpt>
      <trkpt lat="45.66766" lon="3.05452">
        <ele>616</ele>
        <time>2019-06-23T09:01:41.000Z</time>
      </trkpt>
      <trkpt lat="45.66764" lon="3.05451">
        <ele>616</ele>
        <time>2019-06-23T09:01:42.000Z</time>
      </trkpt>
      <trkpt lat="45.66762" lon="3.0545">
        <ele>616</ele>
        <time>2019-06-23T09:01:43.000Z</time>
      </trkpt>
      <trkpt lat="45.6676" lon="3.05449">
        <ele>616</ele>
        <time>2019-06-23T09:01:44.000Z</time>
      </trkpt>
      <trkpt lat="45.66758" lon="3.05448">
        <ele>616</ele>
        <time>2019-06-23T09:01:45.000Z</time>
      </trkpt>
      <trkpt lat="45.66756" lon="3.05446">
        <ele>616</ele>
        <time>2019-06-23T09:01:46.000Z</time>
      </trkpt>
      <trkpt lat="45.66753" lon="3.05445">
        <ele>616</ele>
        <time>2019-06-23T09:01:47.000Z</time>
      </trkpt>
      <trkpt lat="45.66751" lon="3.05443">
        <ele>616</ele>
        <time>2019-06-23T09:01:48.000Z</time>
      </trkpt>
      <trkpt lat="45.66749" lon="3.05442">
        <ele>617</ele>
        <time>2019-06-23T09:01:49.000Z</time>
      </trkpt>
      <trkpt lat="45.66748" lon="3.05441">
        <ele>617</ele>
        <time>2019-06-23T09:01:50.000Z</time>
      </trkpt>
      <trkpt lat="45.66746" lon="3.05441">
        <ele>617</ele>
        <time>2019-06-23T09:01:51.000Z</time>
      </trkpt>
      <trkpt lat="45.66744" lon="3.0544">
        <ele>618</ele>
        <time>2019-06-23T09:01:52.000Z</time>
      </trkpt>
      <trkpt lat="45.66742" lon="3.0544">
        <ele>618</ele>
        <time>2019-06-23T09:01:53.000Z</time>
      </trkpt>
      <trkpt lat="45.66741" lon="3.05439">
        <ele>619</ele>
        <time>2019-06-23T09:01:54.000Z</time>
      </trkpt>
      <trkpt lat="45.6674" lon="3.05438">
        <ele>619</ele>
        <time>2019-06-23T09:01:55.000Z</time>
      </trkpt>
      <trkpt lat="45.66738" lon="3.05437">
        <ele>619</ele>
        <time>2019-06-23T09:01:56.000Z</time>
      </trkpt>
      <trkpt lat="45.66737" lon="3.05436">
        <ele>620</ele>
        <time>2019-06-23T09:01:57.000Z</time>
      </trkpt>
      <trkpt lat="45.66736" lon="3.05434">
        <ele>619</ele>
        <time>2019-06-23T09:01:58.000Z</time>
      </trkpt>
      <trkpt lat="45.66734" lon="3.05432">
        <ele>619</ele>
        <time>2019-06-23T09:01:59.000Z</time>
      </trkpt>
      <trkpt lat="45.66732" lon="3.05429">
        <ele>619</ele>
        <time>2019-06-23T09:02:00.000Z</time>
      </trkpt>
      <trkpt lat="45.6673" lon="3.05427">
        <ele>620</ele>
        <time>2019-06-23T09:02:01.000Z</time>
      </trkpt>
      <trkpt lat="45.66729" lon="3.05424">
        <ele>619</ele>
        <time>2019-06-23T09:02:02.000Z</time>
      </trkpt>
      <trkpt lat="45.66728" lon="3.05422">
        <ele>619</ele>
        <time>2019-06-23T09:02:03.000Z</time>
      </trkpt>
      <trkpt lat="45.66726" lon="3.0542">
        <ele>619</ele>
        <time>2019-06-23T09:02:04.000Z</time>
      </trkpt>
      <trkpt lat="45.66725" lon="3.05418">
        <ele>619</ele>
        <time>2019-06-23T09:02:05.000Z</time>
      </trkpt>
      <trkpt lat="45.66724" lon="3.05416">
        <ele>618</ele>
        <time>2019-06-23T09:02:06.000Z</time>
      </trkpt>
      <trkpt lat="45.66723" lon="3.05414">
        <ele>617</ele>
        <time>2019-06-23T09:02:07.000Z</time>
      </trkpt>
      <trkpt lat="45.66722" lon="3.05411">
        <ele>617</ele>
        <time>2019-06-23T09:02:08.000Z</time>
      </trkpt>
      <trkpt lat="45.6672" lon="3.05408">
        <ele>617</ele>
        <time>2019-06-23T09:02:09.000Z</time>
      </trkpt>
      <trkpt lat="45.66718" lon="3.05405">
        <ele>617</ele>
        <time>2019-06-23T09:02:10.000Z</time>
      </trkpt>
      <trkpt lat="45.66717" lon="3.05402">
        <ele>617</ele>
        <time>2019-06-23T09:02:11.000Z</time>
      </trkpt>
      <trkpt lat="45.66715" lon="3.05399">
        <ele>618</ele>
        <time>2019-06-23T09:02:12.000Z</time>
      </trkpt>
      <trkpt lat="45.66713" lon="3.05396">
        <ele>618</ele>
        <time>2019-06-23T09:02:13.000Z</time>
      </trkpt>
      <trkpt lat="45.66711" lon="3.05394">
        <ele>620</ele>
        <time>2019-06-23T09:02:14.000Z</time>
      </trkpt>
      <trkpt lat="45.66708" lon="3.05391">
        <ele>621</ele>
        <time>2019-06-23T09:02:15.000Z</time>
      </trkpt>
      <trkpt lat="45.66706" lon="3.05389">
        <ele>621</ele>
        <time>2019-06-23T09:02:16.000Z</time>
      </trkpt>
      <trkpt lat="45.66704" lon="3.05386">
        <ele>622</ele>
        <time>2019-06-23T09:02:17.000Z</time>
      </trkpt>
      <trkpt lat="45.66703" lon="3.05383">
        <ele>622</ele>
        <time>2019-06-23T09:02:18.000Z</time>
      </trkpt>
      <trkpt lat="45.66701" lon="3.05381">
        <ele>622</ele>
        <time>2019-06-23T09:02:19.000Z</time>
      </trkpt>
      <trkpt lat="45.667" lon="3.05378">
        <ele>622</ele>
        <time>2019-06-23T09:02:20.000Z</time>
      </trkpt>
      <trkpt lat="45.66698" lon="3.05376">
        <ele>623</ele>
        <time>2019-06-23T09:02:21.000Z</time>
      </trkpt>
      <trkpt lat="45.66697" lon="3.05373">
        <ele>623</ele>
        <time>2019-06-23T09:02:22.000Z</time>
      </trkpt>
      <trkpt lat="45.66695" lon="3.05371">
        <ele>623</ele>
        <time>2019-06-23T09:02:23.000Z</time>
      </trkpt>
      <trkpt lat="45.66693" lon="3.05369">
        <ele>623</ele>
        <time>2019-06-23T09:02:24.000Z</time>
      </trkpt>
      <trkpt lat="45.66692" lon="3.05366">
        <ele>624</ele>
        <time>2019-06-23T09:02:25.000Z</time>
      </trkpt>
      <trkpt lat="45.6669" lon="3.05364">
        <ele>624</ele>
        <time>2019-06-23T09:02:26.000Z</time>
      </trkpt>
      <trkpt lat="45.66689" lon="3.05362">
        <ele>624</ele>
        <time>2019-06-23T09:02:27.000Z</time>
      </trkpt>
      <trkpt lat="45.66687" lon="3.0536">
        <ele>624</ele>
        <time>2019-06-23T09:02:28.000Z</time>
      </trkpt>
      <trkpt lat="45.66686" lon="3.05358">
        <ele>625</ele>
        <time>2019-06-23T09:02:29.000Z</time>
      </trkpt>
      <trkpt lat="45.66685" lon="3.05355">
        <ele>625</ele>
        <time>2019-06-23T09:02:30.000Z</time>
      </trkpt>
      <trkpt lat="45.66684" lon="3.05353">
        <ele>625</ele>
        <time>2019-06-23T09:02:31.000Z</time>
      </trkpt>
      <trkpt lat="45.66683" lon="3.05351">
        <ele>625</ele>
        <time>2019-06-23T09:02:32.000Z</time>
      </trkpt>
      <trkpt lat="45.66682" lon="3.05348">
        <ele>625</ele>
        <time>2019-06-23T09:02:33.000Z</time>
      </trkpt>
      <trkpt lat="45.66681" lon="3.05345">
        <ele>625</ele>
        <time>2019-06-23T09:02:34.000Z</time>
      </trkpt>
      <trkpt lat="45.6668" lon="3.05343">
        <ele>626</ele>
        <time>2019-06-23T09:02:35.000Z</time>
      </trkpt>
      <trkpt lat="45.6668" lon="3.0534">
        <ele>626</ele>
        <time>2019-06-23T09:02:36.000Z</time>
      </trkpt>
      <trkpt lat="45.66679" lon="3.05338">
        <ele>626</ele>
        <time>2019-06-23T09:02:37.000Z</time>
      </trkpt>
      <trkpt lat="45.66679" lon="3.05336">
        <ele>627</ele>
        <time>2019-06-23T09:02:38.000Z</time>
      </trkpt>
      <trkpt lat="45.66679" lon="3.05333">
        <ele>627</ele>
        <time>2019-06-23T09:02:39.000Z</time>
      </trkpt>
      <trkpt lat="45.66679" lon="3.05331">
        <ele>627</ele>
        <time>2019-06-23T09:02:40.000Z</time>
      </trkpt>
      <trkpt lat="45.66679" lon="3.05329">
        <ele>628</ele>
        <time>2019-06-23T09:02:41.000Z</time>
      </trkpt>
      <trkpt lat="45.66678" lon="3.05326">
        <ele>628</ele>
        <time>2019-06-23T09:02:42.000Z</time>
      </trkpt>
      <trkpt lat="45.66678" lon="3.05323">
        <ele>628</ele>
        <time>2019-06-23T09:02:43.000Z</time>
      </trkpt>
      <trkpt lat="45.66678" lon="3.0532">
        <ele>628</ele>
        <time>2019-06-23T09:02:44.000Z</time>
      </trkpt>
      <trkpt lat="45.66678" lon="3.05317">
        <ele>628</ele>
        <time>2019-06-23T09:02:45.000Z</time>
      </trkpt>
      <trkpt lat="45.66678" lon="3.05315">
        <ele>627</ele>
        <time>2019-06-23T09:02:46.000Z</time>
      </trkpt>
      <trkpt lat="45.66678" lon="3.05312">
        <ele>627</ele>
        <time>2019-06-23T09:02:47.000Z</time>
      </trkpt>
      <trkpt lat="45.66677" lon="3.05309">
        <ele>628</ele>
        <time>2019-06-23T09:02:48.000Z</time>
      </trkpt>
      <trkpt lat="45.66677" lon="3.05307">
        <ele>629</ele>
        <time>2019-06-23T09:02:49.000Z</time>
      </trkpt>
      <trkpt lat="45.66676" lon="3.05305">
        <ele>629</ele>
        <time>2019-06-23T09:02:50.000Z</time>
      </trkpt>
      <trkpt lat="45.66676" lon="3.05302">
        <ele>629</ele>
        <time>2019-06-23T09:02:51.000Z</time>
      </trkpt>
      <trkpt lat="45.66676" lon="3.053">
        <ele>629</ele>
        <time>2019-06-23T09:02:52.000Z</time>
      </trkpt>
      <trkpt lat="45.66676" lon="3.05298">
        <ele>630</ele>
        <time>2019-06-23T09:02:53.000Z</time>
      </trkpt>
      <trkpt lat="45.66676" lon="3.05295">
        <ele>629</ele>
        <time>2019-06-23T09:02:54.000Z</time>
      </trkpt>
      <trkpt lat="45.66676" lon="3.05291">
        <ele>629</ele>
        <time>2019-06-23T09:02:55.000Z</time>
      </trkpt>
      <trkpt lat="45.66676" lon="3.05288">
        <ele>629</ele>
        <time>2019-06-23T09:02:56.000Z</time>
      </trkpt>
      <trkpt lat="45.66676" lon="3.05285">
        <ele>629</ele>
        <time>2019-06-23T09:02:57.000Z</time>
      </trkpt>
      <trkpt lat="45.66675" lon="3.05282">
        <ele>629</ele>
        <time>2019-06-23T09:02:58.000Z</time>
      </trkpt>
      <trkpt lat="45.66675" lon="3.0528">
        <ele>629</ele>
        <time>2019-06-23T09:02:59.000Z</time>
      </trkpt>
      <trkpt lat="45.66675" lon="3.05278">
        <ele>629</ele>
        <time>2019-06-23T09:03:00.000Z</time>
      </trkpt>
      <trkpt lat="45.66675" lon="3.05275">
        <ele>629</ele>
        <time>2019-06-23T09:03:01.000Z</time>
      </trkpt>
      <trkpt lat="45.66675" lon="3.05273">
        <ele>630</ele>
        <time>2019-06-23T09:03:02.000Z</time>
      </trkpt>
      <trkpt lat="45.66675" lon="3.05271">
        <ele>630</ele>
        <time>2019-06-23T09:03:03.000Z</time>
      </trkpt>
      <trkpt lat="45.66675" lon="3.0527">
        <ele>629</ele>
        <time>2019-06-23T09:03:04.000Z</time>
      </trkpt>
      <trkpt lat="45.66674" lon="3.05269">
        <ele>630</ele>
        <time>2019-06-23T09:03:05.000Z</time>
      </trkpt>
      <trkpt lat="45.66673" lon="3.05267">
        <ele>631</ele>
        <time>2019-06-23T09:03:06.000Z</time>
      </trkpt>
      <trkpt lat="45.66673" lon="3.05266">
        <ele>632</ele>
        <time>2019-06-23T09:03:07.000Z</time>
      </trkpt>
      <trkpt lat="45.66673" lon="3.05263">
        <ele>633</ele>
        <time>2019-06-23T09:03:08.000Z</time>
      </trkpt>
      <trkpt lat="45.66672" lon="3.05261">
        <ele>633</ele>
        <time>2019-06-23T09:03:09.000Z</time>
      </trkpt>
      <trkpt lat="45.66672" lon="3.05259">
        <ele>634</ele>
        <time>2019-06-23T09:03:10.000Z</time>
      </trkpt>
      <trkpt lat="45.66672" lon="3.05257">
        <ele>635</ele>
        <time>2019-06-23T09:03:11.000Z</time>
      </trkpt>
      <trkpt lat="45.66671" lon="3.05255">
        <ele>634</ele>
        <time>2019-06-23T09:03:12.000Z</time>
      </trkpt>
      <trkpt lat="45.66671" lon="3.05253">
        <ele>635</ele>
        <time>2019-06-23T09:03:13.000Z</time>
      </trkpt>
      <trkpt lat="45.66671" lon="3.0525">
        <ele>635</ele>
        <time>2019-06-23T09:03:14.000Z</time>
      </trkpt>
      <trkpt lat="45.66671" lon="3.05248">
        <ele>635</ele>
        <time>2019-06-23T09:03:15.000Z</time>
      </trkpt>
      <trkpt lat="45.66671" lon="3.05246">
        <ele>635</ele>
        <time>2019-06-23T09:03:16.000Z</time>
      </trkpt>
      <trkpt lat="45.66671" lon="3.05244">
        <ele>636</ele>
        <time>2019-06-23T09:03:17.000Z</time>
      </trkpt>
      <trkpt lat="45.6667" lon="3.05242">
        <ele>637</ele>
        <time>2019-06-23T09:03:18.000Z</time>
      </trkpt>
      <trkpt lat="45.6667" lon="3.05239">
        <ele>637</ele>
        <time>2019-06-23T09:03:19.000Z</time>
      </trkpt>
      <trkpt lat="45.6667" lon="3.05237">
        <ele>637</ele>
        <time>2019-06-23T09:03:20.000Z</time>
      </trkpt>
      <trkpt lat="45.6667" lon="3.05235">
        <ele>638</ele>
        <time>2019-06-23T09:03:21.000Z</time>
      </trkpt>
      <trkpt lat="45.6667" lon="3.05232">
        <ele>638</ele>
        <time>2019-06-23T09:03:22.000Z</time>
      </trkpt>
      <trkpt lat="45.66669" lon="3.05231">
        <ele>638</ele>
        <time>2019-06-23T09:03:23.000Z</time>
      </trkpt>
      <trkpt lat="45.66669" lon="3.05229">
        <ele>638</ele>
        <time>2019-06-23T09:03:24.000Z</time>
      </trkpt>
      <trkpt lat="45.66669" lon="3.05226">
        <ele>638</ele>
        <time>2019-06-23T09:03:25.000Z</time>
      </trkpt>
      <trkpt lat="45.66669" lon="3.05224">
        <ele>638</ele>
        <time>2019-06-23T09:03:26.000Z</time>
      </trkpt>
      <trkpt lat="45.66669" lon="3.05222">
        <ele>638</ele>
        <time>2019-06-23T09:03:27.000Z</time>
      </trkpt>
      <trkpt lat="45.66669" lon="3.05219">
        <ele>639</ele>
        <time>2019-06-23T09:03:28.000Z</time>
      </trkpt>
      <trkpt lat="45.66668" lon="3.05218">
        <ele>639</ele>
        <time>2019-06-23T09:03:29.000Z</time>
      </trkpt>
      <trkpt lat="45.66668" lon="3.05216">
        <ele>640</ele>
        <time>2019-06-23T09:03:30.000Z</time>
      </trkpt>
      <trkpt lat="45.66668" lon="3.05213">
        <ele>640</ele>
        <time>2019-06-23T09:03:31.000Z</time>
      </trkpt>
      <trkpt lat="45.66667" lon="3.0521">
        <ele>641</ele>
        <time>2019-06-23T09:03:32.000Z</time>
      </trkpt>
      <trkpt lat="45.66667" lon="3.05208">
        <ele>641</ele>
        <time>2019-06-23T09:03:33.000Z</time>
      </trkpt>
      <trkpt lat="45.66667" lon="3.05205">
        <ele>641</ele>
        <time>2019-06-23T09:03:34.000Z</time>
      </trkpt>
      <trkpt lat="45.66666" lon="3.05202">
        <ele>642</ele>
        <time>2019-06-23T09:03:35.000Z</time>
      </trkpt>
      <trkpt lat="45.66666" lon="3.05199">
        <ele>642</ele>
        <time>2019-06-23T09:03:36.000Z</time>
      </trkpt>
      <trkpt lat="45.66666" lon="3.05197">
        <ele>642</ele>
        <time>2019-06-23T09:03:37.000Z</time>
      </trkpt>
      <trkpt lat="45.66665" lon="3.05195">
        <ele>643</ele>
        <time>2019-06-23T09:03:38.000Z</time>
      </trkpt>
      <trkpt lat="45.66664" lon="3.05192">
        <ele>642</ele>
        <time>2019-06-23T09:03:39.000Z</time>
      </trkpt>
      <trkpt lat="45.66664" lon="3.05189">
        <ele>642</ele>
        <time>2019-06-23T09:03:40.000Z</time>
      </trkpt>
      <trkpt lat="45.66664" lon="3.05187">
        <ele>643</ele>
        <time>2019-06-23T09:03:41.000Z</time>
      </trkpt>
      <trkpt lat="45.66664" lon="3.05185">
        <ele>643</ele>
        <time>2019-06-23T09:03:42.000Z</time>
      </trkpt>
      <trkpt lat="45.66664" lon="3.05183">
        <ele>643</ele>
        <time>2019-06-23T09:03:43.000Z</time>
      </trkpt>
      <trkpt lat="45.66663" lon="3.05181">
        <ele>644</ele>
        <time>2019-06-23T09:03:44.000Z</time>
      </trkpt>
      <trkpt lat="45.66662" lon="3.05178">
        <ele>644</ele>
        <time>2019-06-23T09:03:45.000Z</time>
      </trkpt>
      <trkpt lat="45.66661" lon="3.05175">
        <ele>644</ele>
        <time>2019-06-23T09:03:46.000Z</time>
      </trkpt>
      <trkpt lat="45.66661" lon="3.05173">
        <ele>645</ele>
        <time>2019-06-23T09:03:47.000Z</time>
      </trkpt>
      <trkpt lat="45.66661" lon="3.05171">
        <ele>645</ele>
        <time>2019-06-23T09:03:48.000Z</time>
      </trkpt>
      <trkpt lat="45.6666" lon="3.05168">
        <ele>645</ele>
        <time>2019-06-23T09:03:49.000Z</time>
      </trkpt>
      <trkpt lat="45.66659" lon="3.05166">
        <ele>646</ele>
        <time>2019-06-23T09:03:50.000Z</time>
      </trkpt>
      <trkpt lat="45.66659" lon="3.05163">
        <ele>646</ele>
        <time>2019-06-23T09:03:51.000Z</time>
      </trkpt>
      <trkpt lat="45.66657" lon="3.0516">
        <ele>647</ele>
        <time>2019-06-23T09:03:52.000Z</time>
      </trkpt>
      <trkpt lat="45.66657" lon="3.05158">
        <ele>647</ele>
        <time>2019-06-23T09:03:53.000Z</time>
      </trkpt>
      <trkpt lat="45.66656" lon="3.05155">
        <ele>647</ele>
        <time>2019-06-23T09:03:54.000Z</time>
      </trkpt>
      <trkpt lat="45.66655" lon="3.05153">
        <ele>647</ele>
        <time>2019-06-23T09:03:55.000Z</time>
      </trkpt>
      <trkpt lat="45.66654" lon="3.05151">
        <ele>648</ele>
        <time>2019-06-23T09:03:56.000Z</time>
      </trkpt>
      <trkpt lat="45.66653" lon="3.05149">
        <ele>647</ele>
        <time>2019-06-23T09:03:57.000Z</time>
      </trkpt>
      <trkpt lat="45.66652" lon="3.05146">
        <ele>647</ele>
        <time>2019-06-23T09:03:58.000Z</time>
      </trkpt>
      <trkpt lat="45.66651" lon="3.05144">
        <ele>647</ele>
        <time>2019-06-23T09:03:59.000Z</time>
      </trkpt>
      <trkpt lat="45.66651" lon="3.05141">
        <ele>647</ele>
        <time>2019-06-23T09:04:00.000Z</time>
      </trkpt>
      <trkpt lat="45.6665" lon="3.05139">
        <ele>647</ele>
        <time>2019-06-23T09:04:01.000Z</time>
      </trkpt>
      <trkpt lat="45.66649" lon="3.05137">
        <ele>647</ele>
        <time>2019-06-23T09:04:02.000Z</time>
      </trkpt>
      <trkpt lat="45.66648" lon="3.05134">
        <ele>647</ele>
        <time>2019-06-23T09:04:03.000Z</time>
      </trkpt>
      <trkpt lat="45.66648" lon="3.05132">
        <ele>648</ele>
        <time>2019-06-23T09:04:04.000Z</time>
      </trkpt>
      <trkpt lat="45.66647" lon="3.0513">
        <ele>648</ele>
        <time>2019-06-23T09:04:05.000Z</time>
      </trkpt>
      <trkpt lat="45.66646" lon="3.05128">
        <ele>650</ele>
        <time>2019-06-23T09:04:06.000Z</time>
      </trkpt>
      <trkpt lat="45.66645" lon="3.05126">
        <ele>650</ele>
        <time>2019-06-23T09:04:07.000Z</time>
      </trkpt>
      <trkpt lat="45.66644" lon="3.05124">
        <ele>650</ele>
        <time>2019-06-23T09:04:08.000Z</time>
      </trkpt>
      <trkpt lat="45.66643" lon="3.05121">
        <ele>650</ele>
        <time>2019-06-23T09:04:09.000Z</time>
      </trkpt>
      <trkpt lat="45.66642" lon="3.05119">
        <ele>650</ele>
        <time>2019-06-23T09:04:10.000Z</time>
      </trkpt>
      <trkpt lat="45.66641" lon="3.05117">
        <ele>651</ele>
        <time>2019-06-23T09:04:11.000Z</time>
      </trkpt>
      <trkpt lat="45.6664" lon="3.05115">
        <ele>651</ele>
        <time>2019-06-23T09:04:12.000Z</time>
      </trkpt>
      <trkpt lat="45.66639" lon="3.05112">
        <ele>651</ele>
        <time>2019-06-23T09:04:13.000Z</time>
      </trkpt>
      <trkpt lat="45.66639" lon="3.0511">
        <ele>651</ele>
        <time>2019-06-23T09:04:14.000Z</time>
      </trkpt>
      <trkpt lat="45.66638" lon="3.05108">
        <ele>652</ele>
        <time>2019-06-23T09:04:15.000Z</time>
      </trkpt>
      <trkpt lat="45.66637" lon="3.05105">
        <ele>653</ele>
        <time>2019-06-23T09:04:16.000Z</time>
      </trkpt>
      <trkpt lat="45.66637" lon="3.05103">
        <ele>653</ele>
        <time>2019-06-23T09:04:17.000Z</time>
      </trkpt>
      <trkpt lat="45.66636" lon="3.05101">
        <ele>653</ele>
        <time>2019-06-23T09:04:18.000Z</time>
      </trkpt>
      <trkpt lat="45.66634" lon="3.05099">
        <ele>653</ele>
        <time>2019-06-23T09:04:19.000Z</time>
      </trkpt>
      <trkpt lat="45.66634" lon="3.05097">
        <ele>654</ele>
        <time>2019-06-23T09:04:20.000Z</time>
      </trkpt>
      <trkpt lat="45.66633" lon="3.05094">
        <ele>654</ele>
        <time>2019-06-23T09:04:21.000Z</time>
      </trkpt>
      <trkpt lat="45.66632" lon="3.05092">
        <ele>655</ele>
        <time>2019-06-23T09:04:22.000Z</time>
      </trkpt>
      <trkpt lat="45.66631" lon="3.0509">
        <ele>656</ele>
        <time>2019-06-23T09:04:23.000Z</time>
      </trkpt>
      <trkpt lat="45.6663" lon="3.05087">
        <ele>656</ele>
        <time>2019-06-23T09:04:24.000Z</time>
      </trkpt>
      <trkpt lat="45.6663" lon="3.05085">
        <ele>656</ele>
        <time>2019-06-23T09:04:25.000Z</time>
      </trkpt>
      <trkpt lat="45.66629" lon="3.05083">
        <ele>656</ele>
        <time>2019-06-23T09:04:26.000Z</time>
      </trkpt>
      <trkpt lat="45.66628" lon="3.05081">
        <ele>657</ele>
        <time>2019-06-23T09:04:27.000Z</time>
      </trkpt>
      <trkpt lat="45.66627" lon="3.05079">
        <ele>657</ele>
        <time>2019-06-23T09:04:28.000Z</time>
      </trkpt>
      <trkpt lat="45.66626" lon="3.05077">
        <ele>657</ele>
        <time>2019-06-23T09:04:29.000Z</time>
      </trkpt>
      <trkpt lat="45.66625" lon="3.05075">
        <ele>658</ele>
        <time>2019-06-23T09:04:30.000Z</time>
      </trkpt>
      <trkpt lat="45.66624" lon="3.05073">
        <ele>658</ele>
        <time>2019-06-23T09:04:31.000Z</time>
      </trkpt>
      <trkpt lat="45.66624" lon="3.05071">
        <ele>658</ele>
        <time>2019-06-23T09:04:32.000Z</time>
      </trkpt>
      <trkpt lat="45.66623" lon="3.05069">
        <ele>658</ele>
        <time>2019-06-23T09:04:33.000Z</time>
      </trkpt>
      <trkpt lat="45.66622" lon="3.05066">
        <ele>658</ele>
        <time>2019-06-23T09:04:34.000Z</time>
      </trkpt>
      <trkpt lat="45.66621" lon="3.05064">
        <ele>658</ele>
        <time>2019-06-23T09:04:35.000Z</time>
      </trkpt>
      <trkpt lat="45.6662" lon="3.05061">
        <ele>659</ele>
        <time>2019-06-23T09:04:36.000Z</time>
      </trkpt>
      <trkpt lat="45.66619" lon="3.05059">
        <ele>659</ele>
        <time>2019-06-23T09:04:37.000Z</time>
      </trkpt>
      <trkpt lat="45.66618" lon="3.05056">
        <ele>659</ele>
        <time>2019-06-23T09:04:38.000Z</time>
      </trkpt>
      <trkpt lat="45.66617" lon="3.05054">
        <ele>659</ele>
        <time>2019-06-23T09:04:39.000Z</time>
      </trkpt>
      <trkpt lat="45.66617" lon="3.05052">
        <ele>659</ele>
        <time>2019-06-23T09:04:40.000Z</time>
      </trkpt>
      <trkpt lat="45.66617" lon="3.05051">
        <ele>659</ele>
        <time>2019-06-23T09:04:41.000Z</time>
      </trkpt>
      <trkpt lat="45.66615" lon="3.05049">
        <ele>659</ele>
        <time>2019-06-23T09:04:42.000Z</time>
      </trkpt>
      <trkpt lat="45.66615" lon="3.05047">
        <ele>659</ele>
        <time>2019-06-23T09:04:43.000Z</time>
      </trkpt>
      <trkpt lat="45.66614" lon="3.05044">
        <ele>658</ele>
        <time>2019-06-23T09:04:44.000Z</time>
      </trkpt>
      <trkpt lat="45.66614" lon="3.05042">
        <ele>658</ele>
        <time>2019-06-23T09:04:45.000Z</time>
      </trkpt>
      <trkpt lat="45.66613" lon="3.05039">
        <ele>658</ele>
        <time>2019-06-23T09:04:46.000Z</time>
      </trkpt>
      <trkpt lat="45.66612" lon="3.05037">
        <ele>658</ele>
        <time>2019-06-23T09:04:47.000Z</time>
      </trkpt>
      <trkpt lat="45.6661" lon="3.05034">
        <ele>658</ele>
        <time>2019-06-23T09:04:48.000Z</time>
      </trkpt>
      <trkpt lat="45.66609" lon="3.05032">
        <ele>659</ele>
        <time>2019-06-23T09:04:49.000Z</time>
      </trkpt>
      <trkpt lat="45.66608" lon="3.05029">
        <ele>659</ele>
        <time>2019-06-23T09:04:50.000Z</time>
      </trkpt>
      <trkpt lat="45.66607" lon="3.05027">
        <ele>660</ele>
        <time>2019-06-23T09:04:51.000Z</time>
      </trkpt>
      <trkpt lat="45.66606" lon="3.05025">
        <ele>661</ele>
        <time>2019-06-23T09:04:52.000Z</time>
      </trkpt>
      <trkpt lat="45.66604" lon="3.05021">
        <ele>661</ele>
        <time>2019-06-23T09:04:53.000Z</time>
      </trkpt>
      <trkpt lat="45.66603" lon="3.05018">
        <ele>660</ele>
        <time>2019-06-23T09:04:54.000Z</time>
      </trkpt>
      <trkpt lat="45.66602" lon="3.05015">
        <ele>660</ele>
        <time>2019-06-23T09:04:55.000Z</time>
      </trkpt>
      <trkpt lat="45.66602" lon="3.05012">
        <ele>661</ele>
        <time>2019-06-23T09:04:56.000Z</time>
      </trkpt>
      <trkpt lat="45.66601" lon="3.05009">
        <ele>661</ele>
        <time>2019-06-23T09:04:57.000Z</time>
      </trkpt>
      <trkpt lat="45.666" lon="3.05005">
        <ele>661</ele>
        <time>2019-06-23T09:04:58.000Z</time>
      </trkpt>
      <trkpt lat="45.666" lon="3.05002">
        <ele>662</ele>
        <time>2019-06-23T09:04:59.000Z</time>
      </trkpt>
      <trkpt lat="45.66599" lon="3.05">
        <ele>662</ele>
        <time>2019-06-23T09:05:00.000Z</time>
      </trkpt>
      <trkpt lat="45.66598" lon="3.04997">
        <ele>663</ele>
        <time>2019-06-23T09:05:01.000Z</time>
      </trkpt>
      <trkpt lat="45.66598" lon="3.04994">
        <ele>664</ele>
        <time>2019-06-23T09:05:02.000Z</time>
      </trkpt>
      <trkpt lat="45.66597" lon="3.04992">
        <ele>664</ele>
        <time>2019-06-23T09:05:03.000Z</time>
      </trkpt>
      <trkpt lat="45.66597" lon="3.04989">
        <ele>664</ele>
        <time>2019-06-23T09:05:04.000Z</time>
      </trkpt>
      <trkpt lat="45.66596" lon="3.04986">
        <ele>664</ele>
        <time>2019-06-23T09:05:05.000Z</time>
      </trkpt>
      <trkpt lat="45.66596" lon="3.04984">
        <ele>664</ele>
        <time>2019-06-23T09:05:06.000Z</time>
      </trkpt>
      <trkpt lat="45.66595" lon="3.04982">
        <ele>664</ele>
        <time>2019-06-23T09:05:07.000Z</time>
      </trkpt>
      <trkpt lat="45.66595" lon="3.0498">
        <ele>665</ele>
        <time>2019-06-23T09:05:08.000Z</time>
      </trkpt>
      <trkpt lat="45.66594" lon="3.04977">
        <ele>665</ele>
        <time>2019-06-23T09:05:09.000Z</time>
      </trkpt>
      <trkpt lat="45.66594" lon="3.04975">
        <ele>665</ele>
        <time>2019-06-23T09:05:10.000Z</time>
      </trkpt>
      <trkpt lat="45.66593" lon="3.04973">
        <ele>666</ele>
        <time>2019-06-23T09:05:11.000Z</time>
      </trkpt>
      <trkpt lat="45.66592" lon="3.0497">
        <ele>666</ele>
        <time>2019-06-23T09:05:12.000Z</time>
      </trkpt>
      <trkpt lat="45.66591" lon="3.04968">
        <ele>667</ele>
        <time>2019-06-23T09:05:13.000Z</time>
      </trkpt>
      <trkpt lat="45.6659" lon="3.04966">
        <ele>668</ele>
        <time>2019-06-23T09:05:14.000Z</time>
      </trkpt>
      <trkpt lat="45.66591" lon="3.04963">
        <ele>667</ele>
        <time>2019-06-23T09:05:15.000Z</time>
      </trkpt>
      <trkpt lat="45.6659" lon="3.0496">
        <ele>667</ele>
        <time>2019-06-23T09:05:16.000Z</time>
      </trkpt>
      <trkpt lat="45.6659" lon="3.04958">
        <ele>668</ele>
        <time>2019-06-23T09:05:17.000Z</time>
      </trkpt>
      <trkpt lat="45.6659" lon="3.04956">
        <ele>669</ele>
        <time>2019-06-23T09:05:18.000Z</time>
      </trkpt>
      <trkpt lat="45.6659" lon="3.04953">
        <ele>669</ele>
        <time>2019-06-23T09:05:19.000Z</time>
      </trkpt>
      <trkpt lat="45.66589" lon="3.04951">
        <ele>670</ele>
        <time>2019-06-23T09:05:20.000Z</time>
      </trkpt>
      <trkpt lat="45.66588" lon="3.04949">
        <ele>670</ele>
        <time>2019-06-23T09:05:21.000Z</time>
      </trkpt>
      <trkpt lat="45.66587" lon="3.04946">
        <ele>671</ele>
        <time>2019-06-23T09:05:22.000Z</time>
      </trkpt>
      <trkpt lat="45.66586" lon="3.04942">
        <ele>671</ele>
        <time>2019-06-23T09:05:23.000Z</time>
      </trkpt>
      <trkpt lat="45.66586" lon="3.04939">
        <ele>671</ele>
        <time>2019-06-23T09:05:24.000Z</time>
      </trkpt>
      <trkpt lat="45.66585" lon="3.04937">
        <ele>671</ele>
        <time>2019-06-23T09:05:25.000Z</time>
      </trkpt>
      <trkpt lat="45.66584" lon="3.04934">
        <ele>671</ele>
        <time>2019-06-23T09:05:26.000Z</time>
      </trkpt>
      <trkpt lat="45.66583" lon="3.04931">
        <ele>671</ele>
        <time>2019-06-23T09:05:27.000Z</time>
      </trkpt>
      <trkpt lat="45.66582" lon="3.04927">
        <ele>671</ele>
        <time>2019-06-23T09:05:28.000Z</time>
      </trkpt>
      <trkpt lat="45.66581" lon="3.04924">
        <ele>671</ele>
        <time>2019-06-23T09:05:29.000Z</time>
      </trkpt>
      <trkpt lat="45.6658" lon="3.04921">
        <ele>671</ele>
        <time>2019-06-23T09:05:30.000Z</time>
      </trkpt>
      <trkpt lat="45.66579" lon="3.04918">
        <ele>671</ele>
        <time>2019-06-23T09:05:31.000Z</time>
      </trkpt>
      <trkpt lat="45.66578" lon="3.04914">
        <ele>671</ele>
        <time>2019-06-23T09:05:32.000Z</time>
      </trkpt>
      <trkpt lat="45.66577" lon="3.0491">
        <ele>671</ele>
        <time>2019-06-23T09:05:33.000Z</time>
      </trkpt>
      <trkpt lat="45.66576" lon="3.04906">
        <ele>671</ele>
        <time>2019-06-23T09:05:34.000Z</time>
      </trkpt>
      <trkpt lat="45.66574" lon="3.04902">
        <ele>672</ele>
        <time>2019-06-23T09:05:35.000Z</time>
      </trkpt>
      <trkpt lat="45.66573" lon="3.04899">
        <ele>671</ele>
        <time>2019-06-23T09:05:36.000Z</time>
      </trkpt>
      <trkpt lat="45.66572" lon="3.04894">
        <ele>671</ele>
        <time>2019-06-23T09:05:37.000Z</time>
      </trkpt>
      <trkpt lat="45.6657" lon="3.0489">
        <ele>671</ele>
        <time>2019-06-23T09:05:38.000Z</time>
      </trkpt>
      <trkpt lat="45.66569" lon="3.04885">
        <ele>670</ele>
        <time>2019-06-23T09:05:39.000Z</time>
      </trkpt>
      <trkpt lat="45.66566" lon="3.0488">
        <ele>670</ele>
        <time>2019-06-23T09:05:40.000Z</time>
      </trkpt>
      <trkpt lat="45.66564" lon="3.04875">
        <ele>669</ele>
        <time>2019-06-23T09:05:41.000Z</time>
      </trkpt>
      <trkpt lat="45.66563" lon="3.0487">
        <ele>669</ele>
        <time>2019-06-23T09:05:42.000Z</time>
      </trkpt>
      <trkpt lat="45.66562" lon="3.04866">
        <ele>670</ele>
        <time>2019-06-23T09:05:43.000Z</time>
      </trkpt>
      <trkpt lat="45.66561" lon="3.04861">
        <ele>671</ele>
        <time>2019-06-23T09:05:44.000Z</time>
      </trkpt>
      <trkpt lat="45.66559" lon="3.04857">
        <ele>671</ele>
        <time>2019-06-23T09:05:45.000Z</time>
      </trkpt>
      <trkpt lat="45.66558" lon="3.04853">
        <ele>671</ele>
        <time>2019-06-23T09:05:46.000Z</time>
      </trkpt>
      <trkpt lat="45.66557" lon="3.04848">
        <ele>672</ele>
        <time>2019-06-23T09:05:47.000Z</time>
      </trkpt>
      <trkpt lat="45.66555" lon="3.04844">
        <ele>673</ele>
        <time>2019-06-23T09:05:48.000Z</time>
      </trkpt>
      <trkpt lat="45.66554" lon="3.04839">
        <ele>674</ele>
        <time>2019-06-23T09:05:49.000Z</time>
      </trkpt>
      <trkpt lat="45.66552" lon="3.04833">
        <ele>674</ele>
        <time>2019-06-23T09:05:50.000Z</time>
      </trkpt>
      <trkpt lat="45.6655" lon="3.04827">
        <ele>674</ele>
        <time>2019-06-23T09:05:51.000Z</time>
      </trkpt>
      <trkpt lat="45.66549" lon="3.04822">
        <ele>675</ele>
        <time>2019-06-23T09:05:52.000Z</time>
      </trkpt>
      <trkpt lat="45.66546" lon="3.04816">
        <ele>675</ele>
        <time>2019-06-23T09:05:53.000Z</time>
      </trkpt>
      <trkpt lat="45.66545" lon="3.0481">
        <ele>674</ele>
        <time>2019-06-23T09:05:54.000Z</time>
      </trkpt>
      <trkpt lat="45.66543" lon="3.04804">
        <ele>674</ele>
        <time>2019-06-23T09:05:55.000Z</time>
      </trkpt>
      <trkpt lat="45.66541" lon="3.04799">
        <ele>673</ele>
        <time>2019-06-23T09:05:56.000Z</time>
      </trkpt>
      <trkpt lat="45.66539" lon="3.04794">
        <ele>673</ele>
        <time>2019-06-23T09:05:57.000Z</time>
      </trkpt>
      <trkpt lat="45.66538" lon="3.04789">
        <ele>672</ele>
        <time>2019-06-23T09:05:58.000Z</time>
      </trkpt>
      <trkpt lat="45.66536" lon="3.04784">
        <ele>671</ele>
        <time>2019-06-23T09:05:59.000Z</time>
      </trkpt>
      <trkpt lat="45.66534" lon="3.04779">
        <ele>670</ele>
        <time>2019-06-23T09:06:00.000Z</time>
      </trkpt>
      <trkpt lat="45.66533" lon="3.04774">
        <ele>670</ele>
        <time>2019-06-23T09:06:01.000Z</time>
      </trkpt>
      <trkpt lat="45.66532" lon="3.04769">
        <ele>669</ele>
        <time>2019-06-23T09:06:02.000Z</time>
      </trkpt>
      <trkpt lat="45.6653" lon="3.04764">
        <ele>669</ele>
        <time>2019-06-23T09:06:03.000Z</time>
      </trkpt>
      <trkpt lat="45.66528" lon="3.04759">
        <ele>669</ele>
        <time>2019-06-23T09:06:04.000Z</time>
      </trkpt>
      <trkpt lat="45.66526" lon="3.04754">
        <ele>669</ele>
        <time>2019-06-23T09:06:05.000Z</time>
      </trkpt>
      <trkpt lat="45.66524" lon="3.0475">
        <ele>669</ele>
        <time>2019-06-23T09:06:06.000Z</time>
      </trkpt>
      <trkpt lat="45.66522" lon="3.04746">
        <ele>669</ele>
        <time>2019-06-23T09:06:07.000Z</time>
      </trkpt>
      <trkpt lat="45.66521" lon="3.04741">
        <ele>669</ele>
        <time>2019-06-23T09:06:08.000Z</time>
      </trkpt>
      <trkpt lat="45.6652" lon="3.04736">
        <ele>668</ele>
        <time>2019-06-23T09:06:09.000Z</time>
      </trkpt>
      <trkpt lat="45.66519" lon="3.04731">
        <ele>669</ele>
        <time>2019-06-23T09:06:10.000Z</time>
      </trkpt>
      <trkpt lat="45.6652" lon="3.04728">
        <ele>669</ele>
        <time>2019-06-23T09:06:11.000Z</time>
      </trkpt>
      <trkpt lat="45.66522" lon="3.04724">
        <ele>670</ele>
        <time>2019-06-23T09:06:12.000Z</time>
      </trkpt>
      <trkpt lat="45.66522" lon="3.04721">
        <ele>670</ele>
        <time>2019-06-23T09:06:13.000Z</time>
      </trkpt>
      <trkpt lat="45.66522" lon="3.04717">
        <ele>670</ele>
        <time>2019-06-23T09:06:14.000Z</time>
      </trkpt>
      <trkpt lat="45.66522" lon="3.04714">
        <ele>670</ele>
        <time>2019-06-23T09:06:15.000Z</time>
      </trkpt>
      <trkpt lat="45.66523" lon="3.04712">
        <ele>671</ele>
        <time>2019-06-23T09:06:16.000Z</time>
      </trkpt>
      <trkpt lat="45.66524" lon="3.0471">
        <ele>671</ele>
        <time>2019-06-23T09:06:17.000Z</time>
      </trkpt>
      <trkpt lat="45.66524" lon="3.04707">
        <ele>672</ele>
        <time>2019-06-23T09:06:18.000Z</time>
      </trkpt>
      <trkpt lat="45.66525" lon="3.04704">
        <ele>672</ele>
        <time>2019-06-23T09:06:19.000Z</time>
      </trkpt>
      <trkpt lat="45.66526" lon="3.04701">
        <ele>672</ele>
        <time>2019-06-23T09:06:20.000Z</time>
      </trkpt>
      <trkpt lat="45.66528" lon="3.04698">
        <ele>672</ele>
        <time>2019-06-23T09:06:21.000Z</time>
      </trkpt>
      <trkpt lat="45.66528" lon="3.04695">
        <ele>673</ele>
        <time>2019-06-23T09:06:22.000Z</time>
      </trkpt>
      <trkpt lat="45.66529" lon="3.04692">
        <ele>673</ele>
        <time>2019-06-23T09:06:23.000Z</time>
      </trkpt>
      <trkpt lat="45.6653" lon="3.04688">
        <ele>673</ele>
        <time>2019-06-23T09:06:24.000Z</time>
      </trkpt>
      <trkpt lat="45.66531" lon="3.04685">
        <ele>673</ele>
        <time>2019-06-23T09:06:25.000Z</time>
      </trkpt>
      <trkpt lat="45.66531" lon="3.04682">
        <ele>673</ele>
        <time>2019-06-23T09:06:26.000Z</time>
      </trkpt>
      <trkpt lat="45.66532" lon="3.04679">
        <ele>674</ele>
        <time>2019-06-23T09:06:27.000Z</time>
      </trkpt>
      <trkpt lat="45.66533" lon="3.04675">
        <ele>674</ele>
        <time>2019-06-23T09:06:28.000Z</time>
      </trkpt>
      <trkpt lat="45.66534" lon="3.04672">
        <ele>674</ele>
        <time>2019-06-23T09:06:29.000Z</time>
      </trkpt>
      <trkpt lat="45.66535" lon="3.04669">
        <ele>674</ele>
        <time>2019-06-23T09:06:30.000Z</time>
      </trkpt>
      <trkpt lat="45.66536" lon="3.04665">
        <ele>675</ele>
        <time>2019-06-23T09:06:31.000Z</time>
      </trkpt>
      <trkpt lat="45.66536" lon="3.04663">
        <ele>675</ele>
        <time>2019-06-23T09:06:32.000Z</time>
      </trkpt>
      <trkpt lat="45.66536" lon="3.0466">
        <ele>675</ele>
        <time>2019-06-23T09:06:33.000Z</time>
      </trkpt>
      <trkpt lat="45.66537" lon="3.04657">
        <ele>675</ele>
        <time>2019-06-23T09:06:34.000Z</time>
      </trkpt>
      <trkpt lat="45.66538" lon="3.04653">
        <ele>675</ele>
        <time>2019-06-23T09:06:35.000Z</time>
      </trkpt>
      <trkpt lat="45.66538" lon="3.0465">
        <ele>675</ele>
        <time>2019-06-23T09:06:36.000Z</time>
      </trkpt>
      <trkpt lat="45.66539" lon="3.04647">
        <ele>676</ele>
        <time>2019-06-23T09:06:37.000Z</time>
      </trkpt>
      <trkpt lat="45.66539" lon="3.04644">
        <ele>676</ele>
        <time>2019-06-23T09:06:38.000Z</time>
      </trkpt>
      <trkpt lat="45.6654" lon="3.04641">
        <ele>676</ele>
        <time>2019-06-23T09:06:39.000Z</time>
      </trkpt>
      <trkpt lat="45.6654" lon="3.04638">
        <ele>677</ele>
        <time>2019-06-23T09:06:40.000Z</time>
      </trkpt>
      <trkpt lat="45.66541" lon="3.04635">
        <ele>677</ele>
        <time>2019-06-23T09:06:41.000Z</time>
      </trkpt>
      <trkpt lat="45.66541" lon="3.04633">
        <ele>677</ele>
        <time>2019-06-23T09:06:42.000Z</time>
      </trkpt>
      <trkpt lat="45.66542" lon="3.0463">
        <ele>677</ele>
        <time>2019-06-23T09:06:43.000Z</time>
      </trkpt>
      <trkpt lat="45.66543" lon="3.04627">
        <ele>677</ele>
        <time>2019-06-23T09:06:44.000Z</time>
      </trkpt>
      <trkpt lat="45.66543" lon="3.04625">
        <ele>678</ele>
        <time>2019-06-23T09:06:45.000Z</time>
      </trkpt>
      <trkpt lat="45.66544" lon="3.04622">
        <ele>678</ele>
        <time>2019-06-23T09:06:46.000Z</time>
      </trkpt>
      <trkpt lat="45.66544" lon="3.0462">
        <ele>679</ele>
        <time>2019-06-23T09:06:47.000Z</time>
      </trkpt>
      <trkpt lat="45.66545" lon="3.04618">
        <ele>679</ele>
        <time>2019-06-23T09:06:48.000Z</time>
      </trkpt>
      <trkpt lat="45.66546" lon="3.04615">
        <ele>679</ele>
        <time>2019-06-23T09:06:49.000Z</time>
      </trkpt>
      <trkpt lat="45.66546" lon="3.04612">
        <ele>679</ele>
        <time>2019-06-23T09:06:50.000Z</time>
      </trkpt>
      <trkpt lat="45.66546" lon="3.04608">
        <ele>679</ele>
        <time>2019-06-23T09:06:51.000Z</time>
      </trkpt>
      <trkpt lat="45.66546" lon="3.04605">
        <ele>679</ele>
        <time>2019-06-23T09:06:52.000Z</time>
      </trkpt>
      <trkpt lat="45.66546" lon="3.04602">
        <ele>679</ele>
        <time>2019-06-23T09:06:53.000Z</time>
      </trkpt>
      <trkpt lat="45.66546" lon="3.04598">
        <ele>679</ele>
        <time>2019-06-23T09:06:54.000Z</time>
      </trkpt>
      <trkpt lat="45.66547" lon="3.04595">
        <ele>679</ele>
        <time>2019-06-23T09:06:55.000Z</time>
      </trkpt>
      <trkpt lat="45.66547" lon="3.04591">
        <ele>679</ele>
        <time>2019-06-23T09:06:56.000Z</time>
      </trkpt>
      <trkpt lat="45.66548" lon="3.04588">
        <ele>680</ele>
        <time>2019-06-23T09:06:57.000Z</time>
      </trkpt>
      <trkpt lat="45.66548" lon="3.04585">
        <ele>680</ele>
        <time>2019-06-23T09:06:58.000Z</time>
      </trkpt>
      <trkpt lat="45.66549" lon="3.04581">
        <ele>680</ele>
        <time>2019-06-23T09:06:59.000Z</time>
      </trkpt>
      <trkpt lat="45.66549" lon="3.04578">
        <ele>680</ele>
        <time>2019-06-23T09:07:00.000Z</time>
      </trkpt>
      <trkpt lat="45.6655" lon="3.04574">
        <ele>681</ele>
        <time>2019-06-23T09:07:01.000Z</time>
      </trkpt>
      <trkpt lat="45.66551" lon="3.04571">
        <ele>681</ele>
        <time>2019-06-23T09:07:02.000Z</time>
      </trkpt>
      <trkpt lat="45.66551" lon="3.04567">
        <ele>681</ele>
        <time>2019-06-23T09:07:03.000Z</time>
      </trkpt>
      <trkpt lat="45.66552" lon="3.04564">
        <ele>681</ele>
        <time>2019-06-23T09:07:04.000Z</time>
      </trkpt>
      <trkpt lat="45.66552" lon="3.04561">
        <ele>681</ele>
        <time>2019-06-23T09:07:05.000Z</time>
      </trkpt>
      <trkpt lat="45.66553" lon="3.04557">
        <ele>682</ele>
        <time>2019-06-23T09:07:06.000Z</time>
      </trkpt>
      <trkpt lat="45.66554" lon="3.04554">
        <ele>682</ele>
        <time>2019-06-23T09:07:07.000Z</time>
      </trkpt>
      <trkpt lat="45.66554" lon="3.0455">
        <ele>683</ele>
        <time>2019-06-23T09:07:08.000Z</time>
      </trkpt>
      <trkpt lat="45.66555" lon="3.04547">
        <ele>683</ele>
        <time>2019-06-23T09:07:09.000Z</time>
      </trkpt>
      <trkpt lat="45.66555" lon="3.04543">
        <ele>683</ele>
        <time>2019-06-23T09:07:10.000Z</time>
      </trkpt>
      <trkpt lat="45.66556" lon="3.0454">
        <ele>684</ele>
        <time>2019-06-23T09:07:11.000Z</time>
      </trkpt>
      <trkpt lat="45.66556" lon="3.04536">
        <ele>684</ele>
        <time>2019-06-23T09:07:12.000Z</time>
      </trkpt>
      <trkpt lat="45.66557" lon="3.04533">
        <ele>684</ele>
        <time>2019-06-23T09:07:13.000Z</time>
      </trkpt>
      <trkpt lat="45.66557" lon="3.04529">
        <ele>684</ele>
        <time>2019-06-23T09:07:14.000Z</time>
      </trkpt>
      <trkpt lat="45.66558" lon="3.04526">
        <ele>684</ele>
        <time>2019-06-23T09:07:15.000Z</time>
      </trkpt>
      <trkpt lat="45.66558" lon="3.04522">
        <ele>685</ele>
        <time>2019-06-23T09:07:16.000Z</time>
      </trkpt>
      <trkpt lat="45.66559" lon="3.04519">
        <ele>685</ele>
        <time>2019-06-23T09:07:17.000Z</time>
      </trkpt>
      <trkpt lat="45.6656" lon="3.04516">
        <ele>685</ele>
        <time>2019-06-23T09:07:18.000Z</time>
      </trkpt>
      <trkpt lat="45.66561" lon="3.04513">
        <ele>685</ele>
        <time>2019-06-23T09:07:19.000Z</time>
      </trkpt>
      <trkpt lat="45.66561" lon="3.0451">
        <ele>685</ele>
        <time>2019-06-23T09:07:20.000Z</time>
      </trkpt>
      <trkpt lat="45.66562" lon="3.04507">
        <ele>685</ele>
        <time>2019-06-23T09:07:21.000Z</time>
      </trkpt>
      <trkpt lat="45.66562" lon="3.04504">
        <ele>685</ele>
        <time>2019-06-23T09:07:22.000Z</time>
      </trkpt>
      <trkpt lat="45.66563" lon="3.04501">
        <ele>685</ele>
        <time>2019-06-23T09:07:23.000Z</time>
      </trkpt>
      <trkpt lat="45.66563" lon="3.04498">
        <ele>685</ele>
        <time>2019-06-23T09:07:24.000Z</time>
      </trkpt>
      <trkpt lat="45.66564" lon="3.04496">
        <ele>685</ele>
        <time>2019-06-23T09:07:25.000Z</time>
      </trkpt>
      <trkpt lat="45.66563" lon="3.04493">
        <ele>685</ele>
        <time>2019-06-23T09:07:26.000Z</time>
      </trkpt>
      <trkpt lat="45.66564" lon="3.0449">
        <ele>685</ele>
        <time>2019-06-23T09:07:27.000Z</time>
      </trkpt>
      <trkpt lat="45.66563" lon="3.04487">
        <ele>687</ele>
        <time>2019-06-23T09:07:28.000Z</time>
      </trkpt>
      <trkpt lat="45.66563" lon="3.04484">
        <ele>687</ele>
        <time>2019-06-23T09:07:29.000Z</time>
      </trkpt>
      <trkpt lat="45.66562" lon="3.04481">
        <ele>687</ele>
        <time>2019-06-23T09:07:30.000Z</time>
      </trkpt>
      <trkpt lat="45.66562" lon="3.04478">
        <ele>687</ele>
        <time>2019-06-23T09:07:31.000Z</time>
      </trkpt>
      <trkpt lat="45.66562" lon="3.04475">
        <ele>687</ele>
        <time>2019-06-23T09:07:32.000Z</time>
      </trkpt>
      <trkpt lat="45.66562" lon="3.04472">
        <ele>687</ele>
        <time>2019-06-23T09:07:33.000Z</time>
      </trkpt>
      <trkpt lat="45.66562" lon="3.04469">
        <ele>688</ele>
        <time>2019-06-23T09:07:34.000Z</time>
      </trkpt>
      <trkpt lat="45.66561" lon="3.04467">
        <ele>689</ele>
        <time>2019-06-23T09:07:35.000Z</time>
      </trkpt>
      <trkpt lat="45.6656" lon="3.04465">
        <ele>690</ele>
        <time>2019-06-23T09:07:36.000Z</time>
      </trkpt>
      <trkpt lat="45.66559" lon="3.04462">
        <ele>690</ele>
        <time>2019-06-23T09:07:37.000Z</time>
      </trkpt>
      <trkpt lat="45.66558" lon="3.0446">
        <ele>690</ele>
        <time>2019-06-23T09:07:38.000Z</time>
      </trkpt>
      <trkpt lat="45.66556" lon="3.04457">
        <ele>691</ele>
        <time>2019-06-23T09:07:39.000Z</time>
      </trkpt>
      <trkpt lat="45.66555" lon="3.04454">
        <ele>691</ele>
        <time>2019-06-23T09:07:40.000Z</time>
      </trkpt>
      <trkpt lat="45.66554" lon="3.04451">
        <ele>691</ele>
        <time>2019-06-23T09:07:41.000Z</time>
      </trkpt>
      <trkpt lat="45.66553" lon="3.04449">
        <ele>691</ele>
        <time>2019-06-23T09:07:42.000Z</time>
      </trkpt>
      <trkpt lat="45.66552" lon="3.04446">
        <ele>691</ele>
        <time>2019-06-23T09:07:43.000Z</time>
      </trkpt>
      <trkpt lat="45.66551" lon="3.04443">
        <ele>691</ele>
        <time>2019-06-23T09:07:44.000Z</time>
      </trkpt>
      <trkpt lat="45.6655" lon="3.0444">
        <ele>691</ele>
        <time>2019-06-23T09:07:45.000Z</time>
      </trkpt>
      <trkpt lat="45.66549" lon="3.04437">
        <ele>691</ele>
        <time>2019-06-23T09:07:46.000Z</time>
      </trkpt>
      <trkpt lat="45.66549" lon="3.04433">
        <ele>692</ele>
        <time>2019-06-23T09:07:47.000Z</time>
      </trkpt>
      <trkpt lat="45.66548" lon="3.0443">
        <ele>693</ele>
        <time>2019-06-23T09:07:48.000Z</time>
      </trkpt>
      <trkpt lat="45.66547" lon="3.04427">
        <ele>693</ele>
        <time>2019-06-23T09:07:49.000Z</time>
      </trkpt>
      <trkpt lat="45.66546" lon="3.04424">
        <ele>694</ele>
        <time>2019-06-23T09:07:50.000Z</time>
      </trkpt>
      <trkpt lat="45.66545" lon="3.0442">
        <ele>694</ele>
        <time>2019-06-23T09:07:51.000Z</time>
      </trkpt>
      <trkpt lat="45.66544" lon="3.04417">
        <ele>695</ele>
        <time>2019-06-23T09:07:52.000Z</time>
      </trkpt>
      <trkpt lat="45.66543" lon="3.04414">
        <ele>696</ele>
        <time>2019-06-23T09:07:53.000Z</time>
      </trkpt>
      <trkpt lat="45.66542" lon="3.0441">
        <ele>696</ele>
        <time>2019-06-23T09:07:54.000Z</time>
      </trkpt>
      <trkpt lat="45.66541" lon="3.04407">
        <ele>696</ele>
        <time>2019-06-23T09:07:55.000Z</time>
      </trkpt>
      <trkpt lat="45.6654" lon="3.04404">
        <ele>697</ele>
        <time>2019-06-23T09:07:56.000Z</time>
      </trkpt>
      <trkpt lat="45.66539" lon="3.04401">
        <ele>697</ele>
        <time>2019-06-23T09:07:57.000Z</time>
      </trkpt>
      <trkpt lat="45.66538" lon="3.04397">
        <ele>697</ele>
        <time>2019-06-23T09:07:58.000Z</time>
      </trkpt>
      <trkpt lat="45.66537" lon="3.04394">
        <ele>697</ele>
        <time>2019-06-23T09:07:59.000Z</time>
      </trkpt>
      <trkpt lat="45.66536" lon="3.04391">
        <ele>697</ele>
        <time>2019-06-23T09:08:00.000Z</time>
      </trkpt>
      <trkpt lat="45.66535" lon="3.04387">
        <ele>697</ele>
        <time>2019-06-23T09:08:01.000Z</time>
      </trkpt>
      <trkpt lat="45.66533" lon="3.04384">
        <ele>697</ele>
        <time>2019-06-23T09:08:02.000Z</time>
      </trkpt>
      <trkpt lat="45.66532" lon="3.04381">
        <ele>698</ele>
        <time>2019-06-23T09:08:03.000Z</time>
      </trkpt>
      <trkpt lat="45.66531" lon="3.04378">
        <ele>698</ele>
        <time>2019-06-23T09:08:04.000Z</time>
      </trkpt>
      <trkpt lat="45.6653" lon="3.04375">
        <ele>698</ele>
        <time>2019-06-23T09:08:05.000Z</time>
      </trkpt>
      <trkpt lat="45.66529" lon="3.04371">
        <ele>698</ele>
        <time>2019-06-23T09:08:06.000Z</time>
      </trkpt>
      <trkpt lat="45.66528" lon="3.04368">
        <ele>698</ele>
        <time>2019-06-23T09:08:07.000Z</time>
      </trkpt>
      <trkpt lat="45.66527" lon="3.04365">
        <ele>698</ele>
        <time>2019-06-23T09:08:08.000Z</time>
      </trkpt>
      <trkpt lat="45.66526" lon="3.04362">
        <ele>698</ele>
        <time>2019-06-23T09:08:09.000Z</time>
      </trkpt>
      <trkpt lat="45.66525" lon="3.04359">
        <ele>698</ele>
        <time>2019-06-23T09:08:10.000Z</time>
      </trkpt>
      <trkpt lat="45.66524" lon="3.04356">
        <ele>698</ele>
        <time>2019-06-23T09:08:11.000Z</time>
      </trkpt>
      <trkpt lat="45.66524" lon="3.04354">
        <ele>698</ele>
        <time>2019-06-23T09:08:12.000Z</time>
      </trkpt>
      <trkpt lat="45.66523" lon="3.04353">
        <ele>698</ele>
        <time>2019-06-23T09:08:13.000Z</time>
      </trkpt>
      <trkpt lat="45.66522" lon="3.04352">
        <ele>699</ele>
        <time>2019-06-23T09:08:14.000Z</time>
      </trkpt>
      <trkpt lat="45.66522" lon="3.04352">
        <ele>699</ele>
        <time>2019-06-23T09:08:15.000Z</time>
      </trkpt>
      <trkpt lat="45.66522" lon="3.04352">
        <ele>699</ele>
        <time>2019-06-23T09:08:16.000Z</time>
      </trkpt>
      <trkpt lat="45.66524" lon="3.04357">
        <ele>700</ele>
        <time>2019-06-23T09:08:17.000Z</time>
      </trkpt>
      <trkpt lat="45.66525" lon="3.04359">
        <ele>701</ele>
        <time>2019-06-23T09:08:18.000Z</time>
      </trkpt>
      <trkpt lat="45.66526" lon="3.04363">
        <ele>701</ele>
        <time>2019-06-23T09:08:19.000Z</time>
      </trkpt>
      <trkpt lat="45.66527" lon="3.04367">
        <ele>700</ele>
        <time>2019-06-23T09:08:20.000Z</time>
      </trkpt>
      <trkpt lat="45.66528" lon="3.04372">
        <ele>699</ele>
        <time>2019-06-23T09:08:21.000Z</time>
      </trkpt>
      <trkpt lat="45.6653" lon="3.04377">
        <ele>699</ele>
        <time>2019-06-23T09:08:22.000Z</time>
      </trkpt>
      <trkpt lat="45.66532" lon="3.04382">
        <ele>699</ele>
        <time>2019-06-23T09:08:23.000Z</time>
      </trkpt>
      <trkpt lat="45.66534" lon="3.04387">
        <ele>699</ele>
        <time>2019-06-23T09:08:24.000Z</time>
      </trkpt>
      <trkpt lat="45.66535" lon="3.04391">
        <ele>699</ele>
        <time>2019-06-23T09:08:25.000Z</time>
      </trkpt>
      <trkpt lat="45.66537" lon="3.04396">
        <ele>698</ele>
        <time>2019-06-23T09:08:26.000Z</time>
      </trkpt>
      <trkpt lat="45.66538" lon="3.044">
        <ele>697</ele>
        <time>2019-06-23T09:08:27.000Z</time>
      </trkpt>
      <trkpt lat="45.6654" lon="3.04405">
        <ele>697</ele>
        <time>2019-06-23T09:08:28.000Z</time>
      </trkpt>
      <trkpt lat="45.66542" lon="3.0441">
        <ele>696</ele>
        <time>2019-06-23T09:08:29.000Z</time>
      </trkpt>
      <trkpt lat="45.66544" lon="3.04416">
        <ele>695</ele>
        <time>2019-06-23T09:08:30.000Z</time>
      </trkpt>
      <trkpt lat="45.66545" lon="3.04422">
        <ele>695</ele>
        <time>2019-06-23T09:08:31.000Z</time>
      </trkpt>
      <trkpt lat="45.66547" lon="3.04428">
        <ele>695</ele>
        <time>2019-06-23T09:08:32.000Z</time>
      </trkpt>
      <trkpt lat="45.66549" lon="3.04434">
        <ele>695</ele>
        <time>2019-06-23T09:08:33.000Z</time>
      </trkpt>
      <trkpt lat="45.6655" lon="3.0444">
        <ele>694</ele>
        <time>2019-06-23T09:08:34.000Z</time>
      </trkpt>
      <trkpt lat="45.66553" lon="3.04446">
        <ele>694</ele>
        <time>2019-06-23T09:08:35.000Z</time>
      </trkpt>
      <trkpt lat="45.66555" lon="3.04452">
        <ele>693</ele>
        <time>2019-06-23T09:08:36.000Z</time>
      </trkpt>
      <trkpt lat="45.66557" lon="3.04458">
        <ele>693</ele>
        <time>2019-06-23T09:08:37.000Z</time>
      </trkpt>
      <trkpt lat="45.66558" lon="3.04463">
        <ele>692</ele>
        <time>2019-06-23T09:08:38.000Z</time>
      </trkpt>
      <trkpt lat="45.6656" lon="3.04469">
        <ele>692</ele>
        <time>2019-06-23T09:08:39.000Z</time>
      </trkpt>
      <trkpt lat="45.66561" lon="3.04475">
        <ele>692</ele>
        <time>2019-06-23T09:08:40.000Z</time>
      </trkpt>
      <trkpt lat="45.66562" lon="3.0448">
        <ele>693</ele>
        <time>2019-06-23T09:08:41.000Z</time>
      </trkpt>
      <trkpt lat="45.66563" lon="3.04487">
        <ele>694</ele>
        <time>2019-06-23T09:08:42.000Z</time>
      </trkpt>
      <trkpt lat="45.66562" lon="3.04493">
        <ele>693</ele>
        <time>2019-06-23T09:08:43.000Z</time>
      </trkpt>
      <trkpt lat="45.66562" lon="3.045">
        <ele>691</ele>
        <time>2019-06-23T09:08:44.000Z</time>
      </trkpt>
      <trkpt lat="45.66562" lon="3.04508">
        <ele>691</ele>
        <time>2019-06-23T09:08:45.000Z</time>
      </trkpt>
      <trkpt lat="45.66562" lon="3.04516">
        <ele>691</ele>
        <time>2019-06-23T09:08:46.000Z</time>
      </trkpt>
      <trkpt lat="45.66562" lon="3.04526">
        <ele>690</ele>
        <time>2019-06-23T09:08:47.000Z</time>
      </trkpt>
      <trkpt lat="45.66557" lon="3.0454">
        <ele>688</ele>
        <time>2019-06-23T09:08:48.000Z</time>
      </trkpt>
      <trkpt lat="45.66554" lon="3.0455">
        <ele>688</ele>
        <time>2019-06-23T09:08:49.000Z</time>
      </trkpt>
      <trkpt lat="45.66552" lon="3.04562">
        <ele>688</ele>
        <time>2019-06-23T09:08:50.000Z</time>
      </trkpt>
      <trkpt lat="45.66551" lon="3.04574">
        <ele>688</ele>
        <time>2019-06-23T09:08:51.000Z</time>
      </trkpt>
      <trkpt lat="45.66549" lon="3.04584">
        <ele>687</ele>
        <time>2019-06-23T09:08:52.000Z</time>
      </trkpt>
      <trkpt lat="45.66547" lon="3.04596">
        <ele>688</ele>
        <time>2019-06-23T09:08:53.000Z</time>
      </trkpt>
      <trkpt lat="45.66546" lon="3.04607">
        <ele>689</ele>
        <time>2019-06-23T09:08:54.000Z</time>
      </trkpt>
      <trkpt lat="45.6654" lon="3.04618">
        <ele>687</ele>
        <time>2019-06-23T09:08:55.000Z</time>
      </trkpt>
      <trkpt lat="45.66538" lon="3.04633">
        <ele>686</ele>
        <time>2019-06-23T09:08:56.000Z</time>
      </trkpt>
      <trkpt lat="45.66535" lon="3.04645">
        <ele>686</ele>
        <time>2019-06-23T09:08:57.000Z</time>
      </trkpt>
      <trkpt lat="45.66532" lon="3.04658">
        <ele>685</ele>
        <time>2019-06-23T09:08:58.000Z</time>
      </trkpt>
      <trkpt lat="45.6653" lon="3.0467">
        <ele>684</ele>
        <time>2019-06-23T09:08:59.000Z</time>
      </trkpt>
      <trkpt lat="45.66528" lon="3.04679">
        <ele>685</ele>
        <time>2019-06-23T09:09:00.000Z</time>
      </trkpt>
      <trkpt lat="45.66526" lon="3.04687">
        <ele>685</ele>
        <time>2019-06-23T09:09:01.000Z</time>
      </trkpt>
      <trkpt lat="45.66524" lon="3.04694">
        <ele>685</ele>
        <time>2019-06-23T09:09:02.000Z</time>
      </trkpt>
      <trkpt lat="45.66522" lon="3.04699">
        <ele>685</ele>
        <time>2019-06-23T09:09:03.000Z</time>
      </trkpt>
      <trkpt lat="45.66519" lon="3.04705">
        <ele>686</ele>
        <time>2019-06-23T09:09:04.000Z</time>
      </trkpt>
      <trkpt lat="45.66517" lon="3.0471">
        <ele>686</ele>
        <time>2019-06-23T09:09:05.000Z</time>
      </trkpt>
      <trkpt lat="45.66515" lon="3.04715">
        <ele>686</ele>
        <time>2019-06-23T09:09:06.000Z</time>
      </trkpt>
      <trkpt lat="45.66514" lon="3.0472">
        <ele>686</ele>
        <time>2019-06-23T09:09:07.000Z</time>
      </trkpt>
      <trkpt lat="45.66513" lon="3.04724">
        <ele>685</ele>
        <time>2019-06-23T09:09:08.000Z</time>
      </trkpt>
      <trkpt lat="45.66513" lon="3.04728">
        <ele>684</ele>
        <time>2019-06-23T09:09:09.000Z</time>
      </trkpt>
      <trkpt lat="45.66515" lon="3.04732">
        <ele>680</ele>
        <time>2019-06-23T09:09:10.000Z</time>
      </trkpt>
      <trkpt lat="45.66516" lon="3.04736">
        <ele>678</ele>
        <time>2019-06-23T09:09:11.000Z</time>
      </trkpt>
      <trkpt lat="45.66519" lon="3.04741">
        <ele>678</ele>
        <time>2019-06-23T09:09:12.000Z</time>
      </trkpt>
      <trkpt lat="45.6652" lon="3.04745">
        <ele>679</ele>
        <time>2019-06-23T09:09:13.000Z</time>
      </trkpt>
      <trkpt lat="45.66522" lon="3.04749">
        <ele>680</ele>
        <time>2019-06-23T09:09:14.000Z</time>
      </trkpt>
      <trkpt lat="45.66524" lon="3.04753">
        <ele>679</ele>
        <time>2019-06-23T09:09:15.000Z</time>
      </trkpt>
      <trkpt lat="45.66525" lon="3.04757">
        <ele>679</ele>
        <time>2019-06-23T09:09:16.000Z</time>
      </trkpt>
      <trkpt lat="45.66527" lon="3.04761">
        <ele>678</ele>
        <time>2019-06-23T09:09:17.000Z</time>
      </trkpt>
      <trkpt lat="45.66529" lon="3.04764">
        <ele>676</ele>
        <time>2019-06-23T09:09:18.000Z</time>
      </trkpt>
      <trkpt lat="45.6653" lon="3.04767">
        <ele>676</ele>
        <time>2019-06-23T09:09:19.000Z</time>
      </trkpt>
      <trkpt lat="45.66531" lon="3.04771">
        <ele>676</ele>
        <time>2019-06-23T09:09:20.000Z</time>
      </trkpt>
      <trkpt lat="45.66532" lon="3.04774">
        <ele>676</ele>
        <time>2019-06-23T09:09:21.000Z</time>
      </trkpt>
      <trkpt lat="45.66534" lon="3.04777">
        <ele>676</ele>
        <time>2019-06-23T09:09:22.000Z</time>
      </trkpt>
      <trkpt lat="45.66535" lon="3.0478">
        <ele>675</ele>
        <time>2019-06-23T09:09:23.000Z</time>
      </trkpt>
      <trkpt lat="45.66537" lon="3.04783">
        <ele>675</ele>
        <time>2019-06-23T09:09:24.000Z</time>
      </trkpt>
      <trkpt lat="45.66538" lon="3.04786">
        <ele>675</ele>
        <time>2019-06-23T09:09:25.000Z</time>
      </trkpt>
      <trkpt lat="45.66539" lon="3.0479">
        <ele>675</ele>
        <time>2019-06-23T09:09:26.000Z</time>
      </trkpt>
      <trkpt lat="45.6654" lon="3.04793">
        <ele>675</ele>
        <time>2019-06-23T09:09:27.000Z</time>
      </trkpt>
      <trkpt lat="45.66542" lon="3.04797">
        <ele>675</ele>
        <time>2019-06-23T09:09:28.000Z</time>
      </trkpt>
      <trkpt lat="45.66543" lon="3.048">
        <ele>675</ele>
        <time>2019-06-23T09:09:29.000Z</time>
      </trkpt>
      <trkpt lat="45.66545" lon="3.04805">
        <ele>675</ele>
        <time>2019-06-23T09:09:30.000Z</time>
      </trkpt>
      <trkpt lat="45.66546" lon="3.04809">
        <ele>675</ele>
        <time>2019-06-23T09:09:31.000Z</time>
      </trkpt>
      <trkpt lat="45.66548" lon="3.04813">
        <ele>675</ele>
        <time>2019-06-23T09:09:32.000Z</time>
      </trkpt>
      <trkpt lat="45.66549" lon="3.04817">
        <ele>674</ele>
        <time>2019-06-23T09:09:33.000Z</time>
      </trkpt>
      <trkpt lat="45.6655" lon="3.04822">
        <ele>674</ele>
        <time>2019-06-23T09:09:34.000Z</time>
      </trkpt>
      <trkpt lat="45.66552" lon="3.04825">
        <ele>674</ele>
        <time>2019-06-23T09:09:35.000Z</time>
      </trkpt>
      <trkpt lat="45.66552" lon="3.04829">
        <ele>674</ele>
        <time>2019-06-23T09:09:36.000Z</time>
      </trkpt>
      <trkpt lat="45.66554" lon="3.04834">
        <ele>675</ele>
        <time>2019-06-23T09:09:37.000Z</time>
      </trkpt>
      <trkpt lat="45.66555" lon="3.0484">
        <ele>675</ele>
        <time>2019-06-23T09:09:38.000Z</time>
      </trkpt>
      <trkpt lat="45.66557" lon="3.04845">
        <ele>675</ele>
        <time>2019-06-23T09:09:39.000Z</time>
      </trkpt>
      <trkpt lat="45.66558" lon="3.04849">
        <ele>675</ele>
        <time>2019-06-23T09:09:40.000Z</time>
      </trkpt>
      <trkpt lat="45.66559" lon="3.04854">
        <ele>676</ele>
        <time>2019-06-23T09:09:41.000Z</time>
      </trkpt>
      <trkpt lat="45.6656" lon="3.04859">
        <ele>676</ele>
        <time>2019-06-23T09:09:42.000Z</time>
      </trkpt>
      <trkpt lat="45.66561" lon="3.04864">
        <ele>678</ele>
        <time>2019-06-23T09:09:43.000Z</time>
      </trkpt>
      <trkpt lat="45.66564" lon="3.04868">
        <ele>677</ele>
        <time>2019-06-23T09:09:44.000Z</time>
      </trkpt>
      <trkpt lat="45.66565" lon="3.04874">
        <ele>677</ele>
        <time>2019-06-23T09:09:45.000Z</time>
      </trkpt>
      <trkpt lat="45.66567" lon="3.04879">
        <ele>677</ele>
        <time>2019-06-23T09:09:46.000Z</time>
      </trkpt>
      <trkpt lat="45.66569" lon="3.04885">
        <ele>677</ele>
        <time>2019-06-23T09:09:47.000Z</time>
      </trkpt>
      <trkpt lat="45.6657" lon="3.0489">
        <ele>676</ele>
        <time>2019-06-23T09:09:48.000Z</time>
      </trkpt>
      <trkpt lat="45.66572" lon="3.04894">
        <ele>677</ele>
        <time>2019-06-23T09:09:49.000Z</time>
      </trkpt>
      <trkpt lat="45.66573" lon="3.04899">
        <ele>678</ele>
        <time>2019-06-23T09:09:50.000Z</time>
      </trkpt>
      <trkpt lat="45.66574" lon="3.04905">
        <ele>678</ele>
        <time>2019-06-23T09:09:51.000Z</time>
      </trkpt>
      <trkpt lat="45.66576" lon="3.0491">
        <ele>678</ele>
        <time>2019-06-23T09:09:52.000Z</time>
      </trkpt>
      <trkpt lat="45.66577" lon="3.04915">
        <ele>678</ele>
        <time>2019-06-23T09:09:53.000Z</time>
      </trkpt>
      <trkpt lat="45.66579" lon="3.0492">
        <ele>678</ele>
        <time>2019-06-23T09:09:54.000Z</time>
      </trkpt>
      <trkpt lat="45.66581" lon="3.04927">
        <ele>681</ele>
        <time>2019-06-23T09:09:55.000Z</time>
      </trkpt>
      <trkpt lat="45.66583" lon="3.04934">
        <ele>683</ele>
        <time>2019-06-23T09:09:56.000Z</time>
      </trkpt>
      <trkpt lat="45.66585" lon="3.04941">
        <ele>684</ele>
        <time>2019-06-23T09:09:57.000Z</time>
      </trkpt>
      <trkpt lat="45.66586" lon="3.04949">
        <ele>683</ele>
        <time>2019-06-23T09:09:58.000Z</time>
      </trkpt>
      <trkpt lat="45.66587" lon="3.04957">
        <ele>682</ele>
        <time>2019-06-23T09:09:59.000Z</time>
      </trkpt>
      <trkpt lat="45.66588" lon="3.04965">
        <ele>681</ele>
        <time>2019-06-23T09:10:00.000Z</time>
      </trkpt>
      <trkpt lat="45.66588" lon="3.04976">
        <ele>680</ele>
        <time>2019-06-23T09:10:01.000Z</time>
      </trkpt>
      <trkpt lat="45.66589" lon="3.04989">
        <ele>678</ele>
        <time>2019-06-23T09:10:02.000Z</time>
      </trkpt>
      <trkpt lat="45.66592" lon="3.05">
        <ele>675</ele>
        <time>2019-06-23T09:10:03.000Z</time>
      </trkpt>
      <trkpt lat="45.66597" lon="3.0501">
        <ele>674</ele>
        <time>2019-06-23T09:10:04.000Z</time>
      </trkpt>
      <trkpt lat="45.66602" lon="3.05021">
        <ele>675</ele>
        <time>2019-06-23T09:10:05.000Z</time>
      </trkpt>
      <trkpt lat="45.66606" lon="3.0503">
        <ele>675</ele>
        <time>2019-06-23T09:10:06.000Z</time>
      </trkpt>
      <trkpt lat="45.66609" lon="3.0504">
        <ele>675</ele>
        <time>2019-06-23T09:10:07.000Z</time>
      </trkpt>
      <trkpt lat="45.66613" lon="3.05048">
        <ele>674</ele>
        <time>2019-06-23T09:10:08.000Z</time>
      </trkpt>
      <trkpt lat="45.66616" lon="3.05056">
        <ele>674</ele>
        <time>2019-06-23T09:10:09.000Z</time>
      </trkpt>
      <trkpt lat="45.6662" lon="3.05065">
        <ele>673</ele>
        <time>2019-06-23T09:10:10.000Z</time>
      </trkpt>
      <trkpt lat="45.66623" lon="3.05074">
        <ele>673</ele>
        <time>2019-06-23T09:10:11.000Z</time>
      </trkpt>
      <trkpt lat="45.66626" lon="3.05085">
        <ele>672</ele>
        <time>2019-06-23T09:10:12.000Z</time>
      </trkpt>
      <trkpt lat="45.66629" lon="3.05096">
        <ele>671</ele>
        <time>2019-06-23T09:10:13.000Z</time>
      </trkpt>
      <trkpt lat="45.66633" lon="3.05105">
        <ele>670</ele>
        <time>2019-06-23T09:10:14.000Z</time>
      </trkpt>
      <trkpt lat="45.66636" lon="3.05114">
        <ele>669</ele>
        <time>2019-06-23T09:10:15.000Z</time>
      </trkpt>
      <trkpt lat="45.66639" lon="3.05122">
        <ele>669</ele>
        <time>2019-06-23T09:10:16.000Z</time>
      </trkpt>
      <trkpt lat="45.66642" lon="3.0513">
        <ele>668</ele>
        <time>2019-06-23T09:10:17.000Z</time>
      </trkpt>
      <trkpt lat="45.66645" lon="3.0514">
        <ele>667</ele>
        <time>2019-06-23T09:10:18.000Z</time>
      </trkpt>
      <trkpt lat="45.66649" lon="3.05148">
        <ele>666</ele>
        <time>2019-06-23T09:10:19.000Z</time>
      </trkpt>
      <trkpt lat="45.66652" lon="3.05156">
        <ele>663</ele>
        <time>2019-06-23T09:10:20.000Z</time>
      </trkpt>
      <trkpt lat="45.66655" lon="3.05164">
        <ele>663</ele>
        <time>2019-06-23T09:10:21.000Z</time>
      </trkpt>
      <trkpt lat="45.66657" lon="3.05172">
        <ele>662</ele>
        <time>2019-06-23T09:10:22.000Z</time>
      </trkpt>
      <trkpt lat="45.6666" lon="3.0518">
        <ele>662</ele>
        <time>2019-06-23T09:10:23.000Z</time>
      </trkpt>
      <trkpt lat="45.66663" lon="3.05189">
        <ele>661</ele>
        <time>2019-06-23T09:10:24.000Z</time>
      </trkpt>
      <trkpt lat="45.66665" lon="3.052">
        <ele>659</ele>
        <time>2019-06-23T09:10:25.000Z</time>
      </trkpt>
      <trkpt lat="45.66667" lon="3.0521">
        <ele>657</ele>
        <time>2019-06-23T09:10:26.000Z</time>
      </trkpt>
      <trkpt lat="45.66669" lon="3.05219">
        <ele>656</ele>
        <time>2019-06-23T09:10:27.000Z</time>
      </trkpt>
      <trkpt lat="45.66671" lon="3.05228">
        <ele>657</ele>
        <time>2019-06-23T09:10:28.000Z</time>
      </trkpt>
      <trkpt lat="45.66672" lon="3.05237">
        <ele>658</ele>
        <time>2019-06-23T09:10:29.000Z</time>
      </trkpt>
      <trkpt lat="45.66673" lon="3.05246">
        <ele>659</ele>
        <time>2019-06-23T09:10:30.000Z</time>
      </trkpt>
      <trkpt lat="45.66674" lon="3.05258">
        <ele>659</ele>
        <time>2019-06-23T09:10:31.000Z</time>
      </trkpt>
      <trkpt lat="45.66675" lon="3.05269">
        <ele>661</ele>
        <time>2019-06-23T09:10:32.000Z</time>
      </trkpt>
      <trkpt lat="45.66677" lon="3.05282">
        <ele>658</ele>
        <time>2019-06-23T09:10:33.000Z</time>
      </trkpt>
      <trkpt lat="45.66678" lon="3.05294">
        <ele>658</ele>
        <time>2019-06-23T09:10:34.000Z</time>
      </trkpt>
      <trkpt lat="45.6668" lon="3.05304">
        <ele>657</ele>
        <time>2019-06-23T09:10:35.000Z</time>
      </trkpt>
      <trkpt lat="45.66682" lon="3.05315">
        <ele>654</ele>
        <time>2019-06-23T09:10:36.000Z</time>
      </trkpt>
      <trkpt lat="45.66682" lon="3.05324">
        <ele>651</ele>
        <time>2019-06-23T09:10:37.000Z</time>
      </trkpt>
      <trkpt lat="45.66683" lon="3.05333">
        <ele>649</ele>
        <time>2019-06-23T09:10:38.000Z</time>
      </trkpt>
      <trkpt lat="45.66685" lon="3.0534">
        <ele>646</ele>
        <time>2019-06-23T09:10:39.000Z</time>
      </trkpt>
      <trkpt lat="45.6669" lon="3.05346">
        <ele>644</ele>
        <time>2019-06-23T09:10:40.000Z</time>
      </trkpt>
      <trkpt lat="45.66693" lon="3.05353">
        <ele>641</ele>
        <time>2019-06-23T09:10:41.000Z</time>
      </trkpt>
      <trkpt lat="45.66697" lon="3.05361">
        <ele>638</ele>
        <time>2019-06-23T09:10:42.000Z</time>
      </trkpt>
      <trkpt lat="45.66701" lon="3.05368">
        <ele>637</ele>
        <time>2019-06-23T09:10:43.000Z</time>
      </trkpt>
      <trkpt lat="45.66706" lon="3.05378">
        <ele>633</ele>
        <time>2019-06-23T09:10:44.000Z</time>
      </trkpt>
      <trkpt lat="45.66711" lon="3.05387">
        <ele>632</ele>
        <time>2019-06-23T09:10:45.000Z</time>
      </trkpt>
      <trkpt lat="45.66715" lon="3.05394">
        <ele>632</ele>
        <time>2019-06-23T09:10:46.000Z</time>
      </trkpt>
      <trkpt lat="45.66718" lon="3.054">
        <ele>631</ele>
        <time>2019-06-23T09:10:47.000Z</time>
      </trkpt>
      <trkpt lat="45.6672" lon="3.05405">
        <ele>631</ele>
        <time>2019-06-23T09:10:48.000Z</time>
      </trkpt>
      <trkpt lat="45.66722" lon="3.05408">
        <ele>630</ele>
        <time>2019-06-23T09:10:49.000Z</time>
      </trkpt>
      <trkpt lat="45.66723" lon="3.05412">
        <ele>629</ele>
        <time>2019-06-23T09:10:50.000Z</time>
      </trkpt>
      <trkpt lat="45.66725" lon="3.05416">
        <ele>628</ele>
        <time>2019-06-23T09:10:51.000Z</time>
      </trkpt>
      <trkpt lat="45.66726" lon="3.05419">
        <ele>627</ele>
        <time>2019-06-23T09:10:52.000Z</time>
      </trkpt>
      <trkpt lat="45.66728" lon="3.05422">
        <ele>627</ele>
        <time>2019-06-23T09:10:53.000Z</time>
      </trkpt>
      <trkpt lat="45.6673" lon="3.05425">
        <ele>627</ele>
        <time>2019-06-23T09:10:54.000Z</time>
      </trkpt>
      <trkpt lat="45.66733" lon="3.05429">
        <ele>626</ele>
        <time>2019-06-23T09:10:55.000Z</time>
      </trkpt>
      <trkpt lat="45.66735" lon="3.05432">
        <ele>626</ele>
        <time>2019-06-23T09:10:56.000Z</time>
      </trkpt>
      <trkpt lat="45.66739" lon="3.05433">
        <ele>626</ele>
        <time>2019-06-23T09:10:57.000Z</time>
      </trkpt>
      <trkpt lat="45.66743" lon="3.05437">
        <ele>626</ele>
        <time>2019-06-23T09:10:58.000Z</time>
      </trkpt>
      <trkpt lat="45.66748" lon="3.05441">
        <ele>625</ele>
        <time>2019-06-23T09:10:59.000Z</time>
      </trkpt>
      <trkpt lat="45.66752" lon="3.05444">
        <ele>624</ele>
        <time>2019-06-23T09:11:00.000Z</time>
      </trkpt>
      <trkpt lat="45.66757" lon="3.05447">
        <ele>624</ele>
        <time>2019-06-23T09:11:01.000Z</time>
      </trkpt>
      <trkpt lat="45.66763" lon="3.0545">
        <ele>623</ele>
        <time>2019-06-23T09:11:02.000Z</time>
      </trkpt>
      <trkpt lat="45.66771" lon="3.05454">
        <ele>621</ele>
        <time>2019-06-23T09:11:03.000Z</time>
      </trkpt>
      <trkpt lat="45.66778" lon="3.05459">
        <ele>621</ele>
        <time>2019-06-23T09:11:04.000Z</time>
      </trkpt>
      <trkpt lat="45.66785" lon="3.05463">
        <ele>620</ele>
        <time>2019-06-23T09:11:05.000Z</time>
      </trkpt>
      <trkpt lat="45.66792" lon="3.05467">
        <ele>619</ele>
        <time>2019-06-23T09:11:06.000Z</time>
      </trkpt>
      <trkpt lat="45.66799" lon="3.0547">
        <ele>619</ele>
        <time>2019-06-23T09:11:07.000Z</time>
      </trkpt>
      <trkpt lat="45.66806" lon="3.05474">
        <ele>619</ele>
        <time>2019-06-23T09:11:08.000Z</time>
      </trkpt>
      <trkpt lat="45.66813" lon="3.05477">
        <ele>618</ele>
        <time>2019-06-23T09:11:09.000Z</time>
      </trkpt>
      <trkpt lat="45.6682" lon="3.05479">
        <ele>618</ele>
        <time>2019-06-23T09:11:10.000Z</time>
      </trkpt>
      <trkpt lat="45.66827" lon="3.05479">
        <ele>618</ele>
        <time>2019-06-23T09:11:11.000Z</time>
      </trkpt>
      <trkpt lat="45.66834" lon="3.05479">
        <ele>616</ele>
        <time>2019-06-23T09:11:12.000Z</time>
      </trkpt>
      <trkpt lat="45.6684" lon="3.05479">
        <ele>615</ele>
        <time>2019-06-23T09:11:13.000Z</time>
      </trkpt>
      <trkpt lat="45.66846" lon="3.05479">
        <ele>614</ele>
        <time>2019-06-23T09:11:14.000Z</time>
      </trkpt>
      <trkpt lat="45.66852" lon="3.05479">
        <ele>613</ele>
        <time>2019-06-23T09:11:15.000Z</time>
      </trkpt>
      <trkpt lat="45.66858" lon="3.05479">
        <ele>612</ele>
        <time>2019-06-23T09:11:16.000Z</time>
      </trkpt>
      <trkpt lat="45.66864" lon="3.05479">
        <ele>612</ele>
        <time>2019-06-23T09:11:17.000Z</time>
      </trkpt>
      <trkpt lat="45.6687" lon="3.05478">
        <ele>611</ele>
        <time>2019-06-23T09:11:18.000Z</time>
      </trkpt>
      <trkpt lat="45.66876" lon="3.05478">
        <ele>611</ele>
        <time>2019-06-23T09:11:19.000Z</time>
      </trkpt>
      <trkpt lat="45.66881" lon="3.05478">
        <ele>611</ele>
        <time>2019-06-23T09:11:20.000Z</time>
      </trkpt>
      <trkpt lat="45.66887" lon="3.05478">
        <ele>611</ele>
        <time>2019-06-23T09:11:21.000Z</time>
      </trkpt>
      <trkpt lat="45.66892" lon="3.05481">
        <ele>611</ele>
        <time>2019-06-23T09:11:22.000Z</time>
      </trkpt>
      <trkpt lat="45.66896" lon="3.05485">
        <ele>611</ele>
        <time>2019-06-23T09:11:23.000Z</time>
      </trkpt>
      <trkpt lat="45.669" lon="3.0549">
        <ele>610</ele>
        <time>2019-06-23T09:11:24.000Z</time>
      </trkpt>
      <trkpt lat="45.66903" lon="3.05497">
        <ele>611</ele>
        <time>2019-06-23T09:11:25.000Z</time>
      </trkpt>
      <trkpt lat="45.66905" lon="3.05504">
        <ele>612</ele>
        <time>2019-06-23T09:11:26.000Z</time>
      </trkpt>
      <trkpt lat="45.66908" lon="3.05511">
        <ele>613</ele>
        <time>2019-06-23T09:11:27.000Z</time>
      </trkpt>
      <trkpt lat="45.6691" lon="3.05519">
        <ele>613</ele>
        <time>2019-06-23T09:11:28.000Z</time>
      </trkpt>
      <trkpt lat="45.66912" lon="3.05526">
        <ele>613</ele>
        <time>2019-06-23T09:11:29.000Z</time>
      </trkpt>
      <trkpt lat="45.66914" lon="3.05533">
        <ele>612</ele>
        <time>2019-06-23T09:11:30.000Z</time>
      </trkpt>
      <trkpt lat="45.66916" lon="3.0554">
        <ele>612</ele>
        <time>2019-06-23T09:11:31.000Z</time>
      </trkpt>
      <trkpt lat="45.66919" lon="3.05547">
        <ele>612</ele>
        <time>2019-06-23T09:11:32.000Z</time>
      </trkpt>
      <trkpt lat="45.66921" lon="3.05553">
        <ele>612</ele>
        <time>2019-06-23T09:11:33.000Z</time>
      </trkpt>
      <trkpt lat="45.66922" lon="3.05561">
        <ele>612</ele>
        <time>2019-06-23T09:11:34.000Z</time>
      </trkpt>
      <trkpt lat="45.66924" lon="3.05568">
        <ele>612</ele>
        <time>2019-06-23T09:11:35.000Z</time>
      </trkpt>
      <trkpt lat="45.66925" lon="3.05575">
        <ele>612</ele>
        <time>2019-06-23T09:11:36.000Z</time>
      </trkpt>
      <trkpt lat="45.66926" lon="3.05582">
        <ele>612</ele>
        <time>2019-06-23T09:11:37.000Z</time>
      </trkpt>
      <trkpt lat="45.66926" lon="3.0559">
        <ele>612</ele>
        <time>2019-06-23T09:11:38.000Z</time>
      </trkpt>
      <trkpt lat="45.66927" lon="3.05597">
        <ele>611</ele>
        <time>2019-06-23T09:11:39.000Z</time>
      </trkpt>
      <trkpt lat="45.66927" lon="3.05604">
        <ele>611</ele>
        <time>2019-06-23T09:11:40.000Z</time>
      </trkpt>
      <trkpt lat="45.66929" lon="3.0561">
        <ele>610</ele>
        <time>2019-06-23T09:11:41.000Z</time>
      </trkpt>
      <trkpt lat="45.66931" lon="3.05616">
        <ele>610</ele>
        <time>2019-06-23T09:11:42.000Z</time>
      </trkpt>
      <trkpt lat="45.66933" lon="3.05622">
        <ele>610</ele>
        <time>2019-06-23T09:11:43.000Z</time>
      </trkpt>
      <trkpt lat="45.66935" lon="3.05627">
        <ele>611</ele>
        <time>2019-06-23T09:11:44.000Z</time>
      </trkpt>
      <trkpt lat="45.66937" lon="3.05631">
        <ele>611</ele>
        <time>2019-06-23T09:11:45.000Z</time>
      </trkpt>
      <trkpt lat="45.66939" lon="3.05636">
        <ele>611</ele>
        <time>2019-06-23T09:11:46.000Z</time>
      </trkpt>
      <trkpt lat="45.66941" lon="3.0564">
        <ele>611</ele>
        <time>2019-06-23T09:11:47.000Z</time>
      </trkpt>
      <trkpt lat="45.66944" lon="3.05644">
        <ele>611</ele>
        <time>2019-06-23T09:11:48.000Z</time>
      </trkpt>
      <trkpt lat="45.66945" lon="3.05649">
        <ele>611</ele>
        <time>2019-06-23T09:11:49.000Z</time>
      </trkpt>
      <trkpt lat="45.66947" lon="3.05654">
        <ele>612</ele>
        <time>2019-06-23T09:11:50.000Z</time>
      </trkpt>
      <trkpt lat="45.66949" lon="3.05659">
        <ele>612</ele>
        <time>2019-06-23T09:11:51.000Z</time>
      </trkpt>
      <trkpt lat="45.66951" lon="3.05663">
        <ele>612</ele>
        <time>2019-06-23T09:11:52.000Z</time>
      </trkpt>
      <trkpt lat="45.66953" lon="3.05667">
        <ele>613</ele>
        <time>2019-06-23T09:11:53.000Z</time>
      </trkpt>
      <trkpt lat="45.66955" lon="3.05671">
        <ele>612</ele>
        <time>2019-06-23T09:11:54.000Z</time>
      </trkpt>
      <trkpt lat="45.66957" lon="3.05676">
        <ele>613</ele>
        <time>2019-06-23T09:11:55.000Z</time>
      </trkpt>
      <trkpt lat="45.66959" lon="3.0568">
        <ele>613</ele>
        <time>2019-06-23T09:11:56.000Z</time>
      </trkpt>
      <trkpt lat="45.66961" lon="3.05684">
        <ele>612</ele>
        <time>2019-06-23T09:11:57.000Z</time>
      </trkpt>
      <trkpt lat="45.66963" lon="3.05688">
        <ele>612</ele>
        <time>2019-06-23T09:11:58.000Z</time>
      </trkpt>
      <trkpt lat="45.66966" lon="3.05691">
        <ele>612</ele>
        <time>2019-06-23T09:11:59.000Z</time>
      </trkpt>
      <trkpt lat="45.66969" lon="3.05694">
        <ele>611</ele>
        <time>2019-06-23T09:12:00.000Z</time>
      </trkpt>
      <trkpt lat="45.66971" lon="3.05698">
        <ele>611</ele>
        <time>2019-06-23T09:12:01.000Z</time>
      </trkpt>
      <trkpt lat="45.66974" lon="3.05701">
        <ele>612</ele>
        <time>2019-06-23T09:12:02.000Z</time>
      </trkpt>
      <trkpt lat="45.66977" lon="3.05704">
        <ele>611</ele>
        <time>2019-06-23T09:12:03.000Z</time>
      </trkpt>
      <trkpt lat="45.66979" lon="3.05707">
        <ele>611</ele>
        <time>2019-06-23T09:12:04.000Z</time>
      </trkpt>
      <trkpt lat="45.66982" lon="3.05709">
        <ele>611</ele>
        <time>2019-06-23T09:12:05.000Z</time>
      </trkpt>
      <trkpt lat="45.66985" lon="3.05711">
        <ele>611</ele>
        <time>2019-06-23T09:12:06.000Z</time>
      </trkpt>
      <trkpt lat="45.66988" lon="3.05713">
        <ele>611</ele>
        <time>2019-06-23T09:12:07.000Z</time>
      </trkpt>
      <trkpt lat="45.6699" lon="3.05716">
        <ele>611</ele>
        <time>2019-06-23T09:12:08.000Z</time>
      </trkpt>
      <trkpt lat="45.66993" lon="3.05717">
        <ele>611</ele>
        <time>2019-06-23T09:12:09.000Z</time>
      </trkpt>
      <trkpt lat="45.66996" lon="3.0572">
        <ele>611</ele>
        <time>2019-06-23T09:12:10.000Z</time>
      </trkpt>
      <trkpt lat="45.66999" lon="3.05722">
        <ele>611</ele>
        <time>2019-06-23T09:12:11.000Z</time>
      </trkpt>
      <trkpt lat="45.67001" lon="3.05725">
        <ele>611</ele>
        <time>2019-06-23T09:12:12.000Z</time>
      </trkpt>
      <trkpt lat="45.67004" lon="3.05728">
        <ele>611</ele>
        <time>2019-06-23T09:12:13.000Z</time>
      </trkpt>
      <trkpt lat="45.67007" lon="3.0573">
        <ele>611</ele>
        <time>2019-06-23T09:12:14.000Z</time>
      </trkpt>
      <trkpt lat="45.6701" lon="3.05732">
        <ele>611</ele>
        <time>2019-06-23T09:12:15.000Z</time>
      </trkpt>
      <trkpt lat="45.67013" lon="3.05735">
        <ele>611</ele>
        <time>2019-06-23T09:12:16.000Z</time>
      </trkpt>
      <trkpt lat="45.67016" lon="3.05736">
        <ele>611</ele>
        <time>2019-06-23T09:12:17.000Z</time>
      </trkpt>
      <trkpt lat="45.67019" lon="3.05739">
        <ele>611</ele>
        <time>2019-06-23T09:12:18.000Z</time>
      </trkpt>
      <trkpt lat="45.67021" lon="3.05742">
        <ele>611</ele>
        <time>2019-06-23T09:12:19.000Z</time>
      </trkpt>
      <trkpt lat="45.67024" lon="3.05745">
        <ele>611</ele>
        <time>2019-06-23T09:12:20.000Z</time>
      </trkpt>
      <trkpt lat="45.67026" lon="3.05747">
        <ele>611</ele>
        <time>2019-06-23T09:12:21.000Z</time>
      </trkpt>
      <trkpt lat="45.67029" lon="3.0575">
        <ele>611</ele>
        <time>2019-06-23T09:12:22.000Z</time>
      </trkpt>
      <trkpt lat="45.67032" lon="3.05752">
        <ele>611</ele>
        <time>2019-06-23T09:12:23.000Z</time>
      </trkpt>
      <trkpt lat="45.67034" lon="3.05755">
        <ele>611</ele>
        <time>2019-06-23T09:12:24.000Z</time>
      </trkpt>
      <trkpt lat="45.67037" lon="3.05757">
        <ele>611</ele>
        <time>2019-06-23T09:12:25.000Z</time>
      </trkpt>
      <trkpt lat="45.6704" lon="3.0576">
        <ele>611</ele>
        <time>2019-06-23T09:12:26.000Z</time>
      </trkpt>
      <trkpt lat="45.67044" lon="3.05763">
        <ele>611</ele>
        <time>2019-06-23T09:12:27.000Z</time>
      </trkpt>
      <trkpt lat="45.67047" lon="3.05765">
        <ele>611</ele>
        <time>2019-06-23T09:12:28.000Z</time>
      </trkpt>
      <trkpt lat="45.67051" lon="3.05767">
        <ele>610</ele>
        <time>2019-06-23T09:12:29.000Z</time>
      </trkpt>
      <trkpt lat="45.67055" lon="3.0577">
        <ele>610</ele>
        <time>2019-06-23T09:12:30.000Z</time>
      </trkpt>
      <trkpt lat="45.67059" lon="3.05773">
        <ele>610</ele>
        <time>2019-06-23T09:12:31.000Z</time>
      </trkpt>
      <trkpt lat="45.67063" lon="3.05776">
        <ele>610</ele>
        <time>2019-06-23T09:12:32.000Z</time>
      </trkpt>
      <trkpt lat="45.67067" lon="3.05779">
        <ele>610</ele>
        <time>2019-06-23T09:12:33.000Z</time>
      </trkpt>
      <trkpt lat="45.67072" lon="3.0578">
        <ele>610</ele>
        <time>2019-06-23T09:12:34.000Z</time>
      </trkpt>
      <trkpt lat="45.67076" lon="3.05782">
        <ele>610</ele>
        <time>2019-06-23T09:12:35.000Z</time>
      </trkpt>
      <trkpt lat="45.6708" lon="3.05783">
        <ele>610</ele>
        <time>2019-06-23T09:12:36.000Z</time>
      </trkpt>
      <trkpt lat="45.67085" lon="3.05784">
        <ele>610</ele>
        <time>2019-06-23T09:12:37.000Z</time>
      </trkpt>
      <trkpt lat="45.67089" lon="3.05786">
        <ele>610</ele>
        <time>2019-06-23T09:12:38.000Z</time>
      </trkpt>
      <trkpt lat="45.67092" lon="3.05789">
        <ele>610</ele>
        <time>2019-06-23T09:12:39.000Z</time>
      </trkpt>
      <trkpt lat="45.67096" lon="3.05791">
        <ele>610</ele>
        <time>2019-06-23T09:12:40.000Z</time>
      </trkpt>
      <trkpt lat="45.67101" lon="3.05793">
        <ele>610</ele>
        <time>2019-06-23T09:12:41.000Z</time>
      </trkpt>
      <trkpt lat="45.67104" lon="3.05795">
        <ele>610</ele>
        <time>2019-06-23T09:12:42.000Z</time>
      </trkpt>
      <trkpt lat="45.67108" lon="3.05797">
        <ele>610</ele>
        <time>2019-06-23T09:12:43.000Z</time>
      </trkpt>
      <trkpt lat="45.67112" lon="3.058">
        <ele>610</ele>
        <time>2019-06-23T09:12:44.000Z</time>
      </trkpt>
      <trkpt lat="45.67116" lon="3.05802">
        <ele>610</ele>
        <time>2019-06-23T09:12:45.000Z</time>
      </trkpt>
      <trkpt lat="45.67119" lon="3.05805">
        <ele>610</ele>
        <time>2019-06-23T09:12:46.000Z</time>
      </trkpt>
      <trkpt lat="45.67122" lon="3.05808">
        <ele>610</ele>
        <time>2019-06-23T09:12:47.000Z</time>
      </trkpt>
      <trkpt lat="45.67124" lon="3.05811">
        <ele>610</ele>
        <time>2019-06-23T09:12:48.000Z</time>
      </trkpt>
      <trkpt lat="45.67126" lon="3.05814">
        <ele>610</ele>
        <time>2019-06-23T09:12:49.000Z</time>
      </trkpt>
      <trkpt lat="45.67128" lon="3.05817">
        <ele>610</ele>
        <time>2019-06-23T09:12:50.000Z</time>
      </trkpt>
      <trkpt lat="45.6713" lon="3.0582">
        <ele>611</ele>
        <time>2019-06-23T09:12:51.000Z</time>
      </trkpt>
      <trkpt lat="45.67133" lon="3.05821">
        <ele>611</ele>
        <time>2019-06-23T09:12:52.000Z</time>
      </trkpt>
      <trkpt lat="45.67135" lon="3.05823">
        <ele>611</ele>
        <time>2019-06-23T09:12:53.000Z</time>
      </trkpt>
      <trkpt lat="45.67138" lon="3.05825">
        <ele>611</ele>
        <time>2019-06-23T09:12:54.000Z</time>
      </trkpt>
      <trkpt lat="45.67141" lon="3.05826">
        <ele>611</ele>
        <time>2019-06-23T09:12:55.000Z</time>
      </trkpt>
      <trkpt lat="45.67144" lon="3.05828">
        <ele>611</ele>
        <time>2019-06-23T09:12:56.000Z</time>
      </trkpt>
      <trkpt lat="45.67147" lon="3.05829">
        <ele>612</ele>
        <time>2019-06-23T09:12:57.000Z</time>
      </trkpt>
      <trkpt lat="45.67149" lon="3.05831">
        <ele>612</ele>
        <time>2019-06-23T09:12:58.000Z</time>
      </trkpt>
      <trkpt lat="45.67152" lon="3.05832">
        <ele>612</ele>
        <time>2019-06-23T09:12:59.000Z</time>
      </trkpt>
      <trkpt lat="45.67154" lon="3.05833">
        <ele>612</ele>
        <time>2019-06-23T09:13:00.000Z</time>
      </trkpt>
      <trkpt lat="45.67157" lon="3.05834">
        <ele>613</ele>
        <time>2019-06-23T09:13:01.000Z</time>
      </trkpt>
      <trkpt lat="45.67159" lon="3.05835">
        <ele>613</ele>
        <time>2019-06-23T09:13:02.000Z</time>
      </trkpt>
      <trkpt lat="45.67161" lon="3.05836">
        <ele>613</ele>
        <time>2019-06-23T09:13:03.000Z</time>
      </trkpt>
      <trkpt lat="45.67163" lon="3.05837">
        <ele>614</ele>
        <time>2019-06-23T09:13:04.000Z</time>
      </trkpt>
      <trkpt lat="45.67165" lon="3.05838">
        <ele>614</ele>
        <time>2019-06-23T09:13:05.000Z</time>
      </trkpt>
      <trkpt lat="45.67167" lon="3.05839">
        <ele>615</ele>
        <time>2019-06-23T09:13:06.000Z</time>
      </trkpt>
      <trkpt lat="45.67169" lon="3.0584">
        <ele>616</ele>
        <time>2019-06-23T09:13:07.000Z</time>
      </trkpt>
      <trkpt lat="45.67171" lon="3.05842">
        <ele>617</ele>
        <time>2019-06-23T09:13:08.000Z</time>
      </trkpt>
      <trkpt lat="45.67173" lon="3.05842">
        <ele>617</ele>
        <time>2019-06-23T09:13:09.000Z</time>
      </trkpt>
      <trkpt lat="45.67175" lon="3.05843">
        <ele>618</ele>
        <time>2019-06-23T09:13:10.000Z</time>
      </trkpt>
      <trkpt lat="45.67177" lon="3.05844">
        <ele>618</ele>
        <time>2019-06-23T09:13:11.000Z</time>
      </trkpt>
      <trkpt lat="45.67179" lon="3.05844">
        <ele>618</ele>
        <time>2019-06-23T09:13:12.000Z</time>
      </trkpt>
      <trkpt lat="45.67181" lon="3.05845">
        <ele>618</ele>
        <time>2019-06-23T09:13:13.000Z</time>
      </trkpt>
      <trkpt lat="45.67183" lon="3.05846">
        <ele>619</ele>
        <time>2019-06-23T09:13:14.000Z</time>
      </trkpt>
      <trkpt lat="45.67184" lon="3.05846">
        <ele>619</ele>
        <time>2019-06-23T09:13:15.000Z</time>
      </trkpt>
      <trkpt lat="45.67186" lon="3.05847">
        <ele>619</ele>
        <time>2019-06-23T09:13:16.000Z</time>
      </trkpt>
      <trkpt lat="45.67188" lon="3.05848">
        <ele>620</ele>
        <time>2019-06-23T09:13:17.000Z</time>
      </trkpt>
      <trkpt lat="45.6719" lon="3.05849">
        <ele>620</ele>
        <time>2019-06-23T09:13:18.000Z</time>
      </trkpt>
      <trkpt lat="45.67192" lon="3.05849">
        <ele>620</ele>
        <time>2019-06-23T09:13:19.000Z</time>
      </trkpt>
      <trkpt lat="45.67194" lon="3.0585">
        <ele>620</ele>
        <time>2019-06-23T09:13:20.000Z</time>
      </trkpt>
      <trkpt lat="45.67196" lon="3.05851">
        <ele>619</ele>
        <time>2019-06-23T09:13:21.000Z</time>
      </trkpt>
      <trkpt lat="45.67198" lon="3.05852">
        <ele>620</ele>
        <time>2019-06-23T09:13:22.000Z</time>
      </trkpt>
      <trkpt lat="45.67201" lon="3.05853">
        <ele>620</ele>
        <time>2019-06-23T09:13:23.000Z</time>
      </trkpt>
      <trkpt lat="45.67203" lon="3.05854">
        <ele>620</ele>
        <time>2019-06-23T09:13:24.000Z</time>
      </trkpt>
      <trkpt lat="45.67205" lon="3.05855">
        <ele>621</ele>
        <time>2019-06-23T09:13:25.000Z</time>
      </trkpt>
      <trkpt lat="45.67207" lon="3.05856">
        <ele>621</ele>
        <time>2019-06-23T09:13:26.000Z</time>
      </trkpt>
      <trkpt lat="45.6721" lon="3.05857">
        <ele>621</ele>
        <time>2019-06-23T09:13:27.000Z</time>
      </trkpt>
      <trkpt lat="45.67212" lon="3.05859">
        <ele>620</ele>
        <time>2019-06-23T09:13:28.000Z</time>
      </trkpt>
      <trkpt lat="45.67214" lon="3.05859">
        <ele>621</ele>
        <time>2019-06-23T09:13:29.000Z</time>
      </trkpt>
      <trkpt lat="45.67216" lon="3.0586">
        <ele>621</ele>
        <time>2019-06-23T09:13:30.000Z</time>
      </trkpt>
      <trkpt lat="45.67218" lon="3.05861">
        <ele>621</ele>
        <time>2019-06-23T09:13:31.000Z</time>
      </trkpt>
      <trkpt lat="45.6722" lon="3.05862">
        <ele>622</ele>
        <time>2019-06-23T09:13:32.000Z</time>
      </trkpt>
      <trkpt lat="45.67223" lon="3.05863">
        <ele>622</ele>
        <time>2019-06-23T09:13:33.000Z</time>
      </trkpt>
      <trkpt lat="45.67224" lon="3.05864">
        <ele>622</ele>
        <time>2019-06-23T09:13:34.000Z</time>
      </trkpt>
      <trkpt lat="45.67226" lon="3.05864">
        <ele>623</ele>
        <time>2019-06-23T09:13:35.000Z</time>
      </trkpt>
      <trkpt lat="45.67228" lon="3.05864">
        <ele>623</ele>
        <time>2019-06-23T09:13:36.000Z</time>
      </trkpt>
      <trkpt lat="45.67231" lon="3.05865">
        <ele>623</ele>
        <time>2019-06-23T09:13:37.000Z</time>
      </trkpt>
      <trkpt lat="45.67233" lon="3.05866">
        <ele>623</ele>
        <time>2019-06-23T09:13:38.000Z</time>
      </trkpt>
      <trkpt lat="45.67235" lon="3.05866">
        <ele>623</ele>
        <time>2019-06-23T09:13:39.000Z</time>
      </trkpt>
      <trkpt lat="45.67237" lon="3.05866">
        <ele>623</ele>
        <time>2019-06-23T09:13:40.000Z</time>
      </trkpt>
      <trkpt lat="45.6724" lon="3.05867">
        <ele>623</ele>
        <time>2019-06-23T09:13:41.000Z</time>
      </trkpt>
      <trkpt lat="45.67242" lon="3.05867">
        <ele>623</ele>
        <time>2019-06-23T09:13:42.000Z</time>
      </trkpt>
      <trkpt lat="45.67245" lon="3.05867">
        <ele>623</ele>
        <time>2019-06-23T09:13:43.000Z</time>
      </trkpt>
      <trkpt lat="45.67248" lon="3.05867">
        <ele>624</ele>
        <time>2019-06-23T09:13:44.000Z</time>
      </trkpt>
      <trkpt lat="45.6725" lon="3.05867">
        <ele>624</ele>
        <time>2019-06-23T09:13:45.000Z</time>
      </trkpt>
      <trkpt lat="45.67253" lon="3.05867">
        <ele>624</ele>
        <time>2019-06-23T09:13:46.000Z</time>
      </trkpt>
      <trkpt lat="45.67255" lon="3.05867">
        <ele>624</ele>
        <time>2019-06-23T09:13:47.000Z</time>
      </trkpt>
      <trkpt lat="45.67257" lon="3.05867">
        <ele>625</ele>
        <time>2019-06-23T09:13:48.000Z</time>
      </trkpt>
      <trkpt lat="45.6726" lon="3.05866">
        <ele>626</ele>
        <time>2019-06-23T09:13:49.000Z</time>
      </trkpt>
      <trkpt lat="45.67262" lon="3.05866">
        <ele>625</ele>
        <time>2019-06-23T09:13:50.000Z</time>
      </trkpt>
      <trkpt lat="45.67265" lon="3.05865">
        <ele>626</ele>
        <time>2019-06-23T09:13:51.000Z</time>
      </trkpt>
      <trkpt lat="45.67267" lon="3.05864">
        <ele>626</ele>
        <time>2019-06-23T09:13:52.000Z</time>
      </trkpt>
      <trkpt lat="45.6727" lon="3.05863">
        <ele>626</ele>
        <time>2019-06-23T09:13:53.000Z</time>
      </trkpt>
      <trkpt lat="45.67272" lon="3.05862">
        <ele>626</ele>
        <time>2019-06-23T09:13:54.000Z</time>
      </trkpt>
      <trkpt lat="45.67274" lon="3.05862">
        <ele>627</ele>
        <time>2019-06-23T09:13:55.000Z</time>
      </trkpt>
      <trkpt lat="45.67277" lon="3.05861">
        <ele>627</ele>
        <time>2019-06-23T09:13:56.000Z</time>
      </trkpt>
      <trkpt lat="45.6728" lon="3.0586">
        <ele>628</ele>
        <time>2019-06-23T09:13:57.000Z</time>
      </trkpt>
      <trkpt lat="45.67282" lon="3.05859">
        <ele>628</ele>
        <time>2019-06-23T09:13:58.000Z</time>
      </trkpt>
      <trkpt lat="45.67284" lon="3.05859">
        <ele>628</ele>
        <time>2019-06-23T09:13:59.000Z</time>
      </trkpt>
      <trkpt lat="45.67287" lon="3.05859">
        <ele>628</ele>
        <time>2019-06-23T09:14:00.000Z</time>
      </trkpt>
      <trkpt lat="45.67289" lon="3.05858">
        <ele>628</ele>
        <time>2019-06-23T09:14:01.000Z</time>
      </trkpt>
      <trkpt lat="45.67291" lon="3.05858">
        <ele>628</ele>
        <time>2019-06-23T09:14:02.000Z</time>
      </trkpt>
      <trkpt lat="45.67293" lon="3.05857">
        <ele>628</ele>
        <time>2019-06-23T09:14:03.000Z</time>
      </trkpt>
      <trkpt lat="45.67296" lon="3.05857">
        <ele>628</ele>
        <time>2019-06-23T09:14:04.000Z</time>
      </trkpt>
      <trkpt lat="45.67298" lon="3.05856">
        <ele>629</ele>
        <time>2019-06-23T09:14:05.000Z</time>
      </trkpt>
      <trkpt lat="45.67301" lon="3.05855">
        <ele>628</ele>
        <time>2019-06-23T09:14:06.000Z</time>
      </trkpt>
      <trkpt lat="45.67303" lon="3.05855">
        <ele>629</ele>
        <time>2019-06-23T09:14:07.000Z</time>
      </trkpt>
      <trkpt lat="45.67305" lon="3.05854">
        <ele>629</ele>
        <time>2019-06-23T09:14:08.000Z</time>
      </trkpt>
      <trkpt lat="45.67308" lon="3.05853">
        <ele>629</ele>
        <time>2019-06-23T09:14:09.000Z</time>
      </trkpt>
      <trkpt lat="45.6731" lon="3.05852">
        <ele>629</ele>
        <time>2019-06-23T09:14:10.000Z</time>
      </trkpt>
      <trkpt lat="45.67312" lon="3.05852">
        <ele>630</ele>
        <time>2019-06-23T09:14:11.000Z</time>
      </trkpt>
      <trkpt lat="45.67315" lon="3.05851">
        <ele>630</ele>
        <time>2019-06-23T09:14:12.000Z</time>
      </trkpt>
      <trkpt lat="45.67317" lon="3.05851">
        <ele>630</ele>
        <time>2019-06-23T09:14:13.000Z</time>
      </trkpt>
      <trkpt lat="45.67319" lon="3.0585">
        <ele>630</ele>
        <time>2019-06-23T09:14:14.000Z</time>
      </trkpt>
      <trkpt lat="45.67321" lon="3.05849">
        <ele>630</ele>
        <time>2019-06-23T09:14:15.000Z</time>
      </trkpt>
      <trkpt lat="45.67323" lon="3.05849">
        <ele>630</ele>
        <time>2019-06-23T09:14:16.000Z</time>
      </trkpt>
      <trkpt lat="45.67325" lon="3.05848">
        <ele>631</ele>
        <time>2019-06-23T09:14:17.000Z</time>
      </trkpt>
      <trkpt lat="45.67327" lon="3.05847">
        <ele>631</ele>
        <time>2019-06-23T09:14:18.000Z</time>
      </trkpt>
      <trkpt lat="45.67329" lon="3.05846">
        <ele>631</ele>
        <time>2019-06-23T09:14:19.000Z</time>
      </trkpt>
      <trkpt lat="45.67331" lon="3.05845">
        <ele>632</ele>
        <time>2019-06-23T09:14:20.000Z</time>
      </trkpt>
      <trkpt lat="45.67334" lon="3.05845">
        <ele>632</ele>
        <time>2019-06-23T09:14:21.000Z</time>
      </trkpt>
      <trkpt lat="45.67336" lon="3.05844">
        <ele>632</ele>
        <time>2019-06-23T09:14:22.000Z</time>
      </trkpt>
      <trkpt lat="45.67338" lon="3.05843">
        <ele>634</ele>
        <time>2019-06-23T09:14:23.000Z</time>
      </trkpt>
      <trkpt lat="45.67339" lon="3.05844">
        <ele>631</ele>
        <time>2019-06-23T09:14:24.000Z</time>
      </trkpt>
      <trkpt lat="45.67341" lon="3.05846">
        <ele>631</ele>
        <time>2019-06-23T09:14:25.000Z</time>
      </trkpt>
      <trkpt lat="45.67343" lon="3.05848">
        <ele>631</ele>
        <time>2019-06-23T09:14:26.000Z</time>
      </trkpt>
      <trkpt lat="45.67344" lon="3.0585">
        <ele>631</ele>
        <time>2019-06-23T09:14:27.000Z</time>
      </trkpt>
      <trkpt lat="45.67345" lon="3.05852">
        <ele>632</ele>
        <time>2019-06-23T09:14:28.000Z</time>
      </trkpt>
      <trkpt lat="45.67346" lon="3.05855">
        <ele>634</ele>
        <time>2019-06-23T09:14:29.000Z</time>
      </trkpt>
      <trkpt lat="45.67346" lon="3.05858">
        <ele>634</ele>
        <time>2019-06-23T09:14:30.000Z</time>
      </trkpt>
      <trkpt lat="45.67346" lon="3.05861">
        <ele>634</ele>
        <time>2019-06-23T09:14:31.000Z</time>
      </trkpt>
      <trkpt lat="45.67346" lon="3.05863">
        <ele>634</ele>
        <time>2019-06-23T09:14:32.000Z</time>
      </trkpt>
      <trkpt lat="45.67347" lon="3.05866">
        <ele>633</ele>
        <time>2019-06-23T09:14:33.000Z</time>
      </trkpt>
      <trkpt lat="45.67347" lon="3.05869">
        <ele>634</ele>
        <time>2019-06-23T09:14:34.000Z</time>
      </trkpt>
      <trkpt lat="45.67347" lon="3.05871">
        <ele>634</ele>
        <time>2019-06-23T09:14:35.000Z</time>
      </trkpt>
      <trkpt lat="45.67348" lon="3.05874">
        <ele>634</ele>
        <time>2019-06-23T09:14:36.000Z</time>
      </trkpt>
      <trkpt lat="45.67349" lon="3.05877">
        <ele>634</ele>
        <time>2019-06-23T09:14:37.000Z</time>
      </trkpt>
      <trkpt lat="45.67349" lon="3.0588">
        <ele>634</ele>
        <time>2019-06-23T09:14:38.000Z</time>
      </trkpt>
      <trkpt lat="45.6735" lon="3.05883">
        <ele>634</ele>
        <time>2019-06-23T09:14:39.000Z</time>
      </trkpt>
      <trkpt lat="45.6735" lon="3.05886">
        <ele>635</ele>
        <time>2019-06-23T09:14:40.000Z</time>
      </trkpt>
      <trkpt lat="45.6735" lon="3.05889">
        <ele>635</ele>
        <time>2019-06-23T09:14:41.000Z</time>
      </trkpt>
      <trkpt lat="45.6735" lon="3.05892">
        <ele>636</ele>
        <time>2019-06-23T09:14:42.000Z</time>
      </trkpt>
      <trkpt lat="45.6735" lon="3.05895">
        <ele>636</ele>
        <time>2019-06-23T09:14:43.000Z</time>
      </trkpt>
      <trkpt lat="45.6735" lon="3.05898">
        <ele>636</ele>
        <time>2019-06-23T09:14:44.000Z</time>
      </trkpt>
      <trkpt lat="45.6735" lon="3.05901">
        <ele>637</ele>
        <time>2019-06-23T09:14:45.000Z</time>
      </trkpt>
      <trkpt lat="45.67349" lon="3.05904">
        <ele>637</ele>
        <time>2019-06-23T09:14:46.000Z</time>
      </trkpt>
      <trkpt lat="45.67349" lon="3.05907">
        <ele>638</ele>
        <time>2019-06-23T09:14:47.000Z</time>
      </trkpt>
      <trkpt lat="45.67349" lon="3.05909">
        <ele>638</ele>
        <time>2019-06-23T09:14:48.000Z</time>
      </trkpt>
      <trkpt lat="45.67349" lon="3.05912">
        <ele>638</ele>
        <time>2019-06-23T09:14:49.000Z</time>
      </trkpt>
      <trkpt lat="45.67349" lon="3.05915">
        <ele>638</ele>
        <time>2019-06-23T09:14:50.000Z</time>
      </trkpt>
      <trkpt lat="45.67349" lon="3.05917">
        <ele>639</ele>
        <time>2019-06-23T09:14:51.000Z</time>
      </trkpt>
      <trkpt lat="45.6735" lon="3.05921">
        <ele>640</ele>
        <time>2019-06-23T09:14:52.000Z</time>
      </trkpt>
      <trkpt lat="45.67351" lon="3.05924">
        <ele>640</ele>
        <time>2019-06-23T09:14:53.000Z</time>
      </trkpt>
      <trkpt lat="45.67351" lon="3.05927">
        <ele>641</ele>
        <time>2019-06-23T09:14:54.000Z</time>
      </trkpt>
      <trkpt lat="45.67351" lon="3.05929">
        <ele>643</ele>
        <time>2019-06-23T09:14:55.000Z</time>
      </trkpt>
      <trkpt lat="45.67351" lon="3.05932">
        <ele>643</ele>
        <time>2019-06-23T09:14:56.000Z</time>
      </trkpt>
      <trkpt lat="45.67351" lon="3.05935">
        <ele>643</ele>
        <time>2019-06-23T09:14:57.000Z</time>
      </trkpt>
      <trkpt lat="45.67352" lon="3.05938">
        <ele>643</ele>
        <time>2019-06-23T09:14:58.000Z</time>
      </trkpt>
      <trkpt lat="45.67352" lon="3.05941">
        <ele>643</ele>
        <time>2019-06-23T09:14:59.000Z</time>
      </trkpt>
      <trkpt lat="45.67351" lon="3.05944">
        <ele>643</ele>
        <time>2019-06-23T09:15:00.000Z</time>
      </trkpt>
      <trkpt lat="45.67352" lon="3.05948">
        <ele>643</ele>
        <time>2019-06-23T09:15:01.000Z</time>
      </trkpt>
      <trkpt lat="45.67352" lon="3.05951">
        <ele>643</ele>
        <time>2019-06-23T09:15:02.000Z</time>
      </trkpt>
      <trkpt lat="45.67353" lon="3.05954">
        <ele>644</ele>
        <time>2019-06-23T09:15:03.000Z</time>
      </trkpt>
      <trkpt lat="45.67353" lon="3.05957">
        <ele>644</ele>
        <time>2019-06-23T09:15:04.000Z</time>
      </trkpt>
      <trkpt lat="45.67353" lon="3.0596">
        <ele>644</ele>
        <time>2019-06-23T09:15:05.000Z</time>
      </trkpt>
      <trkpt lat="45.67355" lon="3.05963">
        <ele>646</ele>
        <time>2019-06-23T09:15:06.000Z</time>
      </trkpt>
      <trkpt lat="45.67355" lon="3.05967">
        <ele>647</ele>
        <time>2019-06-23T09:15:07.000Z</time>
      </trkpt>
      <trkpt lat="45.67355" lon="3.0597">
        <ele>646</ele>
        <time>2019-06-23T09:15:08.000Z</time>
      </trkpt>
      <trkpt lat="45.67356" lon="3.05974">
        <ele>647</ele>
        <time>2019-06-23T09:15:09.000Z</time>
      </trkpt>
      <trkpt lat="45.67358" lon="3.05977">
        <ele>647</ele>
        <time>2019-06-23T09:15:10.000Z</time>
      </trkpt>
      <trkpt lat="45.67359" lon="3.0598">
        <ele>647</ele>
        <time>2019-06-23T09:15:11.000Z</time>
      </trkpt>
      <trkpt lat="45.67361" lon="3.05982">
        <ele>648</ele>
        <time>2019-06-23T09:15:12.000Z</time>
      </trkpt>
      <trkpt lat="45.67362" lon="3.05985">
        <ele>649</ele>
        <time>2019-06-23T09:15:13.000Z</time>
      </trkpt>
      <trkpt lat="45.67364" lon="3.05987">
        <ele>649</ele>
        <time>2019-06-23T09:15:14.000Z</time>
      </trkpt>
      <trkpt lat="45.67366" lon="3.05988">
        <ele>649</ele>
        <time>2019-06-23T09:15:15.000Z</time>
      </trkpt>
      <trkpt lat="45.67368" lon="3.0599">
        <ele>649</ele>
        <time>2019-06-23T09:15:16.000Z</time>
      </trkpt>
      <trkpt lat="45.6737" lon="3.05992">
        <ele>649</ele>
        <time>2019-06-23T09:15:17.000Z</time>
      </trkpt>
      <trkpt lat="45.67372" lon="3.05994">
        <ele>649</ele>
        <time>2019-06-23T09:15:18.000Z</time>
      </trkpt>
      <trkpt lat="45.67374" lon="3.05996">
        <ele>649</ele>
        <time>2019-06-23T09:15:19.000Z</time>
      </trkpt>
      <trkpt lat="45.67376" lon="3.05999">
        <ele>649</ele>
        <time>2019-06-23T09:15:20.000Z</time>
      </trkpt>
      <trkpt lat="45.67378" lon="3.06001">
        <ele>650</ele>
        <time>2019-06-23T09:15:21.000Z</time>
      </trkpt>
      <trkpt lat="45.67381" lon="3.06003">
        <ele>650</ele>
        <time>2019-06-23T09:15:22.000Z</time>
      </trkpt>
      <trkpt lat="45.67383" lon="3.06005">
        <ele>650</ele>
        <time>2019-06-23T09:15:23.000Z</time>
      </trkpt>
      <trkpt lat="45.67385" lon="3.06007">
        <ele>650</ele>
        <time>2019-06-23T09:15:24.000Z</time>
      </trkpt>
      <trkpt lat="45.67387" lon="3.06009">
        <ele>650</ele>
        <time>2019-06-23T09:15:25.000Z</time>
      </trkpt>
      <trkpt lat="45.67389" lon="3.06012">
        <ele>650</ele>
        <time>2019-06-23T09:15:26.000Z</time>
      </trkpt>
      <trkpt lat="45.67391" lon="3.06014">
        <ele>650</ele>
        <time>2019-06-23T09:15:27.000Z</time>
      </trkpt>
      <trkpt lat="45.67393" lon="3.06016">
        <ele>650</ele>
        <time>2019-06-23T09:15:28.000Z</time>
      </trkpt>
      <trkpt lat="45.67395" lon="3.06018">
        <ele>650</ele>
        <time>2019-06-23T09:15:29.000Z</time>
      </trkpt>
      <trkpt lat="45.67398" lon="3.0602">
        <ele>650</ele>
        <time>2019-06-23T09:15:30.000Z</time>
      </trkpt>
      <trkpt lat="45.674" lon="3.06023">
        <ele>650</ele>
        <time>2019-06-23T09:15:31.000Z</time>
      </trkpt>
      <trkpt lat="45.67401" lon="3.06024">
        <ele>650</ele>
        <time>2019-06-23T09:15:32.000Z</time>
      </trkpt>
      <trkpt lat="45.67404" lon="3.06027">
        <ele>650</ele>
        <time>2019-06-23T09:15:33.000Z</time>
      </trkpt>
      <trkpt lat="45.67406" lon="3.06028">
        <ele>650</ele>
        <time>2019-06-23T09:15:34.000Z</time>
      </trkpt>
      <trkpt lat="45.67408" lon="3.0603">
        <ele>650</ele>
        <time>2019-06-23T09:15:35.000Z</time>
      </trkpt>
      <trkpt lat="45.67411" lon="3.06032">
        <ele>650</ele>
        <time>2019-06-23T09:15:36.000Z</time>
      </trkpt>
      <trkpt lat="45.67413" lon="3.06034">
        <ele>650</ele>
        <time>2019-06-23T09:15:37.000Z</time>
      </trkpt>
      <trkpt lat="45.67416" lon="3.06036">
        <ele>650</ele>
        <time>2019-06-23T09:15:38.000Z</time>
      </trkpt>
      <trkpt lat="45.67418" lon="3.06038">
        <ele>649</ele>
        <time>2019-06-23T09:15:39.000Z</time>
      </trkpt>
      <trkpt lat="45.67421" lon="3.06039">
        <ele>648</ele>
        <time>2019-06-23T09:15:40.000Z</time>
      </trkpt>
      <trkpt lat="45.67424" lon="3.06041">
        <ele>648</ele>
        <time>2019-06-23T09:15:41.000Z</time>
      </trkpt>
      <trkpt lat="45.67427" lon="3.06043">
        <ele>648</ele>
        <time>2019-06-23T09:15:42.000Z</time>
      </trkpt>
      <trkpt lat="45.67429" lon="3.06045">
        <ele>648</ele>
        <time>2019-06-23T09:15:43.000Z</time>
      </trkpt>
      <trkpt lat="45.67432" lon="3.06047">
        <ele>648</ele>
        <time>2019-06-23T09:15:44.000Z</time>
      </trkpt>
      <trkpt lat="45.67435" lon="3.06048">
        <ele>648</ele>
        <time>2019-06-23T09:15:45.000Z</time>
      </trkpt>
      <trkpt lat="45.67438" lon="3.0605">
        <ele>648</ele>
        <time>2019-06-23T09:15:46.000Z</time>
      </trkpt>
      <trkpt lat="45.6744" lon="3.06051">
        <ele>648</ele>
        <time>2019-06-23T09:15:47.000Z</time>
      </trkpt>
      <trkpt lat="45.67443" lon="3.06053">
        <ele>648</ele>
        <time>2019-06-23T09:15:48.000Z</time>
      </trkpt>
      <trkpt lat="45.67445" lon="3.06055">
        <ele>649</ele>
        <time>2019-06-23T09:15:49.000Z</time>
      </trkpt>
      <trkpt lat="45.67447" lon="3.06057">
        <ele>649</ele>
        <time>2019-06-23T09:15:50.000Z</time>
      </trkpt>
      <trkpt lat="45.6745" lon="3.06059">
        <ele>649</ele>
        <time>2019-06-23T09:15:51.000Z</time>
      </trkpt>
      <trkpt lat="45.67453" lon="3.06061">
        <ele>649</ele>
        <time>2019-06-23T09:15:52.000Z</time>
      </trkpt>
      <trkpt lat="45.67455" lon="3.06063">
        <ele>649</ele>
        <time>2019-06-23T09:15:53.000Z</time>
      </trkpt>
      <trkpt lat="45.67457" lon="3.06065">
        <ele>650</ele>
        <time>2019-06-23T09:15:54.000Z</time>
      </trkpt>
      <trkpt lat="45.67459" lon="3.06068">
        <ele>650</ele>
        <time>2019-06-23T09:15:55.000Z</time>
      </trkpt>
      <trkpt lat="45.67461" lon="3.0607">
        <ele>650</ele>
        <time>2019-06-23T09:15:56.000Z</time>
      </trkpt>
      <trkpt lat="45.67463" lon="3.06073">
        <ele>651</ele>
        <time>2019-06-23T09:15:57.000Z</time>
      </trkpt>
      <trkpt lat="45.67465" lon="3.06076">
        <ele>652</ele>
        <time>2019-06-23T09:15:58.000Z</time>
      </trkpt>
      <trkpt lat="45.67467" lon="3.06078">
        <ele>652</ele>
        <time>2019-06-23T09:15:59.000Z</time>
      </trkpt>
      <trkpt lat="45.67469" lon="3.06081">
        <ele>653</ele>
        <time>2019-06-23T09:16:00.000Z</time>
      </trkpt>
      <trkpt lat="45.6747" lon="3.06084">
        <ele>653</ele>
        <time>2019-06-23T09:16:01.000Z</time>
      </trkpt>
      <trkpt lat="45.67472" lon="3.06087">
        <ele>653</ele>
        <time>2019-06-23T09:16:02.000Z</time>
      </trkpt>
      <trkpt lat="45.67474" lon="3.0609">
        <ele>653</ele>
        <time>2019-06-23T09:16:03.000Z</time>
      </trkpt>
      <trkpt lat="45.67476" lon="3.06093">
        <ele>654</ele>
        <time>2019-06-23T09:16:04.000Z</time>
      </trkpt>
      <trkpt lat="45.67477" lon="3.06096">
        <ele>654</ele>
        <time>2019-06-23T09:16:05.000Z</time>
      </trkpt>
      <trkpt lat="45.67479" lon="3.061">
        <ele>655</ele>
        <time>2019-06-23T09:16:06.000Z</time>
      </trkpt>
      <trkpt lat="45.6748" lon="3.06103">
        <ele>655</ele>
        <time>2019-06-23T09:16:07.000Z</time>
      </trkpt>
      <trkpt lat="45.67482" lon="3.06107">
        <ele>655</ele>
        <time>2019-06-23T09:16:08.000Z</time>
      </trkpt>
      <trkpt lat="45.67483" lon="3.06111">
        <ele>656</ele>
        <time>2019-06-23T09:16:09.000Z</time>
      </trkpt>
      <trkpt lat="45.67485" lon="3.06114">
        <ele>656</ele>
        <time>2019-06-23T09:16:10.000Z</time>
      </trkpt>
      <trkpt lat="45.67486" lon="3.06118">
        <ele>657</ele>
        <time>2019-06-23T09:16:11.000Z</time>
      </trkpt>
      <trkpt lat="45.67488" lon="3.06121">
        <ele>658</ele>
        <time>2019-06-23T09:16:12.000Z</time>
      </trkpt>
      <trkpt lat="45.67489" lon="3.06125">
        <ele>658</ele>
        <time>2019-06-23T09:16:13.000Z</time>
      </trkpt>
      <trkpt lat="45.6749" lon="3.06129">
        <ele>658</ele>
        <time>2019-06-23T09:16:14.000Z</time>
      </trkpt>
      <trkpt lat="45.67491" lon="3.06134">
        <ele>658</ele>
        <time>2019-06-23T09:16:15.000Z</time>
      </trkpt>
      <trkpt lat="45.67492" lon="3.06138">
        <ele>659</ele>
        <time>2019-06-23T09:16:16.000Z</time>
      </trkpt>
      <trkpt lat="45.67493" lon="3.06142">
        <ele>659</ele>
        <time>2019-06-23T09:16:17.000Z</time>
      </trkpt>
      <trkpt lat="45.67494" lon="3.06147">
        <ele>659</ele>
        <time>2019-06-23T09:16:18.000Z</time>
      </trkpt>
      <trkpt lat="45.67495" lon="3.06151">
        <ele>660</ele>
        <time>2019-06-23T09:16:19.000Z</time>
      </trkpt>
      <trkpt lat="45.67496" lon="3.06156">
        <ele>660</ele>
        <time>2019-06-23T09:16:20.000Z</time>
      </trkpt>
      <trkpt lat="45.67497" lon="3.06161">
        <ele>660</ele>
        <time>2019-06-23T09:16:21.000Z</time>
      </trkpt>
      <trkpt lat="45.67499" lon="3.06165">
        <ele>660</ele>
        <time>2019-06-23T09:16:22.000Z</time>
      </trkpt>
      <trkpt lat="45.675" lon="3.0617">
        <ele>660</ele>
        <time>2019-06-23T09:16:23.000Z</time>
      </trkpt>
      <trkpt lat="45.67501" lon="3.06174">
        <ele>660</ele>
        <time>2019-06-23T09:16:24.000Z</time>
      </trkpt>
      <trkpt lat="45.67503" lon="3.06178">
        <ele>661</ele>
        <time>2019-06-23T09:16:25.000Z</time>
      </trkpt>
      <trkpt lat="45.67504" lon="3.06184">
        <ele>660</ele>
        <time>2019-06-23T09:16:26.000Z</time>
      </trkpt>
      <trkpt lat="45.67505" lon="3.06189">
        <ele>660</ele>
        <time>2019-06-23T09:16:27.000Z</time>
      </trkpt>
      <trkpt lat="45.67507" lon="3.06194">
        <ele>660</ele>
        <time>2019-06-23T09:16:28.000Z</time>
      </trkpt>
      <trkpt lat="45.67508" lon="3.06199">
        <ele>660</ele>
        <time>2019-06-23T09:16:29.000Z</time>
      </trkpt>
      <trkpt lat="45.6751" lon="3.06205">
        <ele>661</ele>
        <time>2019-06-23T09:16:30.000Z</time>
      </trkpt>
      <trkpt lat="45.67512" lon="3.0621">
        <ele>661</ele>
        <time>2019-06-23T09:16:31.000Z</time>
      </trkpt>
      <trkpt lat="45.67514" lon="3.06215">
        <ele>661</ele>
        <time>2019-06-23T09:16:32.000Z</time>
      </trkpt>
      <trkpt lat="45.67516" lon="3.0622">
        <ele>661</ele>
        <time>2019-06-23T09:16:33.000Z</time>
      </trkpt>
      <trkpt lat="45.67517" lon="3.06226">
        <ele>661</ele>
        <time>2019-06-23T09:16:34.000Z</time>
      </trkpt>
      <trkpt lat="45.67518" lon="3.0623">
        <ele>660</ele>
        <time>2019-06-23T09:16:35.000Z</time>
      </trkpt>
      <trkpt lat="45.6752" lon="3.06236">
        <ele>661</ele>
        <time>2019-06-23T09:16:36.000Z</time>
      </trkpt>
      <trkpt lat="45.67522" lon="3.06241">
        <ele>661</ele>
        <time>2019-06-23T09:16:37.000Z</time>
      </trkpt>
      <trkpt lat="45.67524" lon="3.06248">
        <ele>660</ele>
        <time>2019-06-23T09:16:38.000Z</time>
      </trkpt>
      <trkpt lat="45.67526" lon="3.06253">
        <ele>660</ele>
        <time>2019-06-23T09:16:39.000Z</time>
      </trkpt>
      <trkpt lat="45.67527" lon="3.0626">
        <ele>659</ele>
        <time>2019-06-23T09:16:40.000Z</time>
      </trkpt>
      <trkpt lat="45.67529" lon="3.06265">
        <ele>659</ele>
        <time>2019-06-23T09:16:41.000Z</time>
      </trkpt>
      <trkpt lat="45.67529" lon="3.06271">
        <ele>659</ele>
        <time>2019-06-23T09:16:42.000Z</time>
      </trkpt>
      <trkpt lat="45.6753" lon="3.06276">
        <ele>659</ele>
        <time>2019-06-23T09:16:43.000Z</time>
      </trkpt>
      <trkpt lat="45.67531" lon="3.06281">
        <ele>660</ele>
        <time>2019-06-23T09:16:44.000Z</time>
      </trkpt>
      <trkpt lat="45.67532" lon="3.06287">
        <ele>659</ele>
        <time>2019-06-23T09:16:45.000Z</time>
      </trkpt>
      <trkpt lat="45.67533" lon="3.06293">
        <ele>660</ele>
        <time>2019-06-23T09:16:46.000Z</time>
      </trkpt>
      <trkpt lat="45.67533" lon="3.06299">
        <ele>660</ele>
        <time>2019-06-23T09:16:47.000Z</time>
      </trkpt>
      <trkpt lat="45.67534" lon="3.06304">
        <ele>660</ele>
        <time>2019-06-23T09:16:48.000Z</time>
      </trkpt>
      <trkpt lat="45.67534" lon="3.06309">
        <ele>661</ele>
        <time>2019-06-23T09:16:49.000Z</time>
      </trkpt>
      <trkpt lat="45.67534" lon="3.06314">
        <ele>661</ele>
        <time>2019-06-23T09:16:50.000Z</time>
      </trkpt>
      <trkpt lat="45.67534" lon="3.0632">
        <ele>661</ele>
        <time>2019-06-23T09:16:51.000Z</time>
      </trkpt>
      <trkpt lat="45.67534" lon="3.06325">
        <ele>661</ele>
        <time>2019-06-23T09:16:52.000Z</time>
      </trkpt>
      <trkpt lat="45.67533" lon="3.0633">
        <ele>661</ele>
        <time>2019-06-23T09:16:53.000Z</time>
      </trkpt>
      <trkpt lat="45.67533" lon="3.06335">
        <ele>661</ele>
        <time>2019-06-23T09:16:54.000Z</time>
      </trkpt>
      <trkpt lat="45.67533" lon="3.06339">
        <ele>662</ele>
        <time>2019-06-23T09:16:55.000Z</time>
      </trkpt>
      <trkpt lat="45.67533" lon="3.06344">
        <ele>662</ele>
        <time>2019-06-23T09:16:56.000Z</time>
      </trkpt>
      <trkpt lat="45.67533" lon="3.06349">
        <ele>662</ele>
        <time>2019-06-23T09:16:57.000Z</time>
      </trkpt>
      <trkpt lat="45.67534" lon="3.06353">
        <ele>663</ele>
        <time>2019-06-23T09:16:58.000Z</time>
      </trkpt>
      <trkpt lat="45.67534" lon="3.06358">
        <ele>663</ele>
        <time>2019-06-23T09:16:59.000Z</time>
      </trkpt>
      <trkpt lat="45.67534" lon="3.06362">
        <ele>664</ele>
        <time>2019-06-23T09:17:00.000Z</time>
      </trkpt>
      <trkpt lat="45.67535" lon="3.06367">
        <ele>664</ele>
        <time>2019-06-23T09:17:01.000Z</time>
      </trkpt>
      <trkpt lat="45.67535" lon="3.06371">
        <ele>664</ele>
        <time>2019-06-23T09:17:02.000Z</time>
      </trkpt>
      <trkpt lat="45.67536" lon="3.06375">
        <ele>665</ele>
        <time>2019-06-23T09:17:03.000Z</time>
      </trkpt>
      <trkpt lat="45.67537" lon="3.06379">
        <ele>665</ele>
        <time>2019-06-23T09:17:04.000Z</time>
      </trkpt>
      <trkpt lat="45.67537" lon="3.06383">
        <ele>665</ele>
        <time>2019-06-23T09:17:05.000Z</time>
      </trkpt>
      <trkpt lat="45.67538" lon="3.06388">
        <ele>665</ele>
        <time>2019-06-23T09:17:06.000Z</time>
      </trkpt>
      <trkpt lat="45.67539" lon="3.06392">
        <ele>665</ele>
        <time>2019-06-23T09:17:07.000Z</time>
      </trkpt>
      <trkpt lat="45.6754" lon="3.06396">
        <ele>665</ele>
        <time>2019-06-23T09:17:08.000Z</time>
      </trkpt>
      <trkpt lat="45.6754" lon="3.064">
        <ele>665</ele>
        <time>2019-06-23T09:17:09.000Z</time>
      </trkpt>
      <trkpt lat="45.67542" lon="3.06404">
        <ele>665</ele>
        <time>2019-06-23T09:17:10.000Z</time>
      </trkpt>
      <trkpt lat="45.67543" lon="3.06408">
        <ele>666</ele>
        <time>2019-06-23T09:17:11.000Z</time>
      </trkpt>
      <trkpt lat="45.67544" lon="3.06412">
        <ele>666</ele>
        <time>2019-06-23T09:17:12.000Z</time>
      </trkpt>
      <trkpt lat="45.67545" lon="3.06416">
        <ele>666</ele>
        <time>2019-06-23T09:17:13.000Z</time>
      </trkpt>
      <trkpt lat="45.67546" lon="3.06419">
        <ele>666</ele>
        <time>2019-06-23T09:17:14.000Z</time>
      </trkpt>
      <trkpt lat="45.67546" lon="3.06423">
        <ele>665</ele>
        <time>2019-06-23T09:17:15.000Z</time>
      </trkpt>
      <trkpt lat="45.67547" lon="3.06426">
        <ele>665</ele>
        <time>2019-06-23T09:17:16.000Z</time>
      </trkpt>
      <trkpt lat="45.67548" lon="3.0643">
        <ele>666</ele>
        <time>2019-06-23T09:17:17.000Z</time>
      </trkpt>
      <trkpt lat="45.6755" lon="3.06433">
        <ele>666</ele>
        <time>2019-06-23T09:17:18.000Z</time>
      </trkpt>
      <trkpt lat="45.67551" lon="3.06436">
        <ele>665</ele>
        <time>2019-06-23T09:17:19.000Z</time>
      </trkpt>
      <trkpt lat="45.67552" lon="3.0644">
        <ele>665</ele>
        <time>2019-06-23T09:17:20.000Z</time>
      </trkpt>
      <trkpt lat="45.67553" lon="3.06444">
        <ele>665</ele>
        <time>2019-06-23T09:17:21.000Z</time>
      </trkpt>
      <trkpt lat="45.67554" lon="3.06447">
        <ele>665</ele>
        <time>2019-06-23T09:17:22.000Z</time>
      </trkpt>
      <trkpt lat="45.67555" lon="3.06451">
        <ele>665</ele>
        <time>2019-06-23T09:17:23.000Z</time>
      </trkpt>
      <trkpt lat="45.67557" lon="3.06454">
        <ele>665</ele>
        <time>2019-06-23T09:17:24.000Z</time>
      </trkpt>
      <trkpt lat="45.67558" lon="3.06458">
        <ele>665</ele>
        <time>2019-06-23T09:17:25.000Z</time>
      </trkpt>
      <trkpt lat="45.6756" lon="3.06461">
        <ele>665</ele>
        <time>2019-06-23T09:17:26.000Z</time>
      </trkpt>
      <trkpt lat="45.67561" lon="3.06464">
        <ele>665</ele>
        <time>2019-06-23T09:17:27.000Z</time>
      </trkpt>
      <trkpt lat="45.67562" lon="3.06468">
        <ele>665</ele>
        <time>2019-06-23T09:17:28.000Z</time>
      </trkpt>
      <trkpt lat="45.67564" lon="3.06471">
        <ele>665</ele>
        <time>2019-06-23T09:17:29.000Z</time>
      </trkpt>
      <trkpt lat="45.67565" lon="3.06474">
        <ele>665</ele>
        <time>2019-06-23T09:17:30.000Z</time>
      </trkpt>
      <trkpt lat="45.67566" lon="3.06478">
        <ele>665</ele>
        <time>2019-06-23T09:17:31.000Z</time>
      </trkpt>
      <trkpt lat="45.67567" lon="3.06481">
        <ele>665</ele>
        <time>2019-06-23T09:17:32.000Z</time>
      </trkpt>
      <trkpt lat="45.67569" lon="3.06485">
        <ele>665</ele>
        <time>2019-06-23T09:17:33.000Z</time>
      </trkpt>
      <trkpt lat="45.6757" lon="3.06488">
        <ele>665</ele>
        <time>2019-06-23T09:17:34.000Z</time>
      </trkpt>
      <trkpt lat="45.67571" lon="3.06492">
        <ele>665</ele>
        <time>2019-06-23T09:17:35.000Z</time>
      </trkpt>
      <trkpt lat="45.67572" lon="3.06496">
        <ele>666</ele>
        <time>2019-06-23T09:17:36.000Z</time>
      </trkpt>
      <trkpt lat="45.67573" lon="3.06499">
        <ele>666</ele>
        <time>2019-06-23T09:17:37.000Z</time>
      </trkpt>
      <trkpt lat="45.67574" lon="3.06502">
        <ele>666</ele>
        <time>2019-06-23T09:17:38.000Z</time>
      </trkpt>
      <trkpt lat="45.67574" lon="3.06506">
        <ele>666</ele>
        <time>2019-06-23T09:17:39.000Z</time>
      </trkpt>
      <trkpt lat="45.67575" lon="3.0651">
        <ele>666</ele>
        <time>2019-06-23T09:17:40.000Z</time>
      </trkpt>
      <trkpt lat="45.67576" lon="3.06513">
        <ele>667</ele>
        <time>2019-06-23T09:17:41.000Z</time>
      </trkpt>
      <trkpt lat="45.67576" lon="3.06517">
        <ele>667</ele>
        <time>2019-06-23T09:17:42.000Z</time>
      </trkpt>
      <trkpt lat="45.67577" lon="3.06521">
        <ele>667</ele>
        <time>2019-06-23T09:17:43.000Z</time>
      </trkpt>
      <trkpt lat="45.67578" lon="3.06524">
        <ele>667</ele>
        <time>2019-06-23T09:17:44.000Z</time>
      </trkpt>
      <trkpt lat="45.67579" lon="3.06528">
        <ele>667</ele>
        <time>2019-06-23T09:17:45.000Z</time>
      </trkpt>
      <trkpt lat="45.67579" lon="3.06532">
        <ele>667</ele>
        <time>2019-06-23T09:17:46.000Z</time>
      </trkpt>
      <trkpt lat="45.67579" lon="3.06536">
        <ele>667</ele>
        <time>2019-06-23T09:17:47.000Z</time>
      </trkpt>
      <trkpt lat="45.67579" lon="3.06539">
        <ele>668</ele>
        <time>2019-06-23T09:17:48.000Z</time>
      </trkpt>
      <trkpt lat="45.6758" lon="3.06543">
        <ele>668</ele>
        <time>2019-06-23T09:17:49.000Z</time>
      </trkpt>
      <trkpt lat="45.67581" lon="3.06547">
        <ele>668</ele>
        <time>2019-06-23T09:17:50.000Z</time>
      </trkpt>
      <trkpt lat="45.67581" lon="3.06551">
        <ele>667</ele>
        <time>2019-06-23T09:17:51.000Z</time>
      </trkpt>
      <trkpt lat="45.67581" lon="3.06554">
        <ele>668</ele>
        <time>2019-06-23T09:17:52.000Z</time>
      </trkpt>
      <trkpt lat="45.67582" lon="3.06558">
        <ele>668</ele>
        <time>2019-06-23T09:17:53.000Z</time>
      </trkpt>
      <trkpt lat="45.67582" lon="3.06562">
        <ele>668</ele>
        <time>2019-06-23T09:17:54.000Z</time>
      </trkpt>
      <trkpt lat="45.67583" lon="3.06565">
        <ele>669</ele>
        <time>2019-06-23T09:17:55.000Z</time>
      </trkpt>
      <trkpt lat="45.67584" lon="3.06569">
        <ele>669</ele>
        <time>2019-06-23T09:17:56.000Z</time>
      </trkpt>
      <trkpt lat="45.67584" lon="3.06572">
        <ele>669</ele>
        <time>2019-06-23T09:17:57.000Z</time>
      </trkpt>
      <trkpt lat="45.67584" lon="3.06576">
        <ele>669</ele>
        <time>2019-06-23T09:17:58.000Z</time>
      </trkpt>
      <trkpt lat="45.67584" lon="3.06579">
        <ele>670</ele>
        <time>2019-06-23T09:17:59.000Z</time>
      </trkpt>
      <trkpt lat="45.67584" lon="3.06583">
        <ele>670</ele>
        <time>2019-06-23T09:18:00.000Z</time>
      </trkpt>
      <trkpt lat="45.67584" lon="3.06587">
        <ele>670</ele>
        <time>2019-06-23T09:18:01.000Z</time>
      </trkpt>
      <trkpt lat="45.67584" lon="3.0659">
        <ele>670</ele>
        <time>2019-06-23T09:18:02.000Z</time>
      </trkpt>
      <trkpt lat="45.67585" lon="3.06594">
        <ele>670</ele>
        <time>2019-06-23T09:18:03.000Z</time>
      </trkpt>
      <trkpt lat="45.67585" lon="3.06597">
        <ele>671</ele>
        <time>2019-06-23T09:18:04.000Z</time>
      </trkpt>
      <trkpt lat="45.67586" lon="3.06601">
        <ele>670</ele>
        <time>2019-06-23T09:18:05.000Z</time>
      </trkpt>
      <trkpt lat="45.67586" lon="3.06605">
        <ele>671</ele>
        <time>2019-06-23T09:18:06.000Z</time>
      </trkpt>
      <trkpt lat="45.67586" lon="3.06609">
        <ele>671</ele>
        <time>2019-06-23T09:18:07.000Z</time>
      </trkpt>
      <trkpt lat="45.67586" lon="3.06612">
        <ele>671</ele>
        <time>2019-06-23T09:18:08.000Z</time>
      </trkpt>
      <trkpt lat="45.67587" lon="3.06616">
        <ele>671</ele>
        <time>2019-06-23T09:18:09.000Z</time>
      </trkpt>
      <trkpt lat="45.67588" lon="3.0662">
        <ele>671</ele>
        <time>2019-06-23T09:18:10.000Z</time>
      </trkpt>
      <trkpt lat="45.67589" lon="3.06623">
        <ele>671</ele>
        <time>2019-06-23T09:18:11.000Z</time>
      </trkpt>
      <trkpt lat="45.6759" lon="3.06627">
        <ele>672</ele>
        <time>2019-06-23T09:18:12.000Z</time>
      </trkpt>
      <trkpt lat="45.6759" lon="3.06631">
        <ele>672</ele>
        <time>2019-06-23T09:18:13.000Z</time>
      </trkpt>
      <trkpt lat="45.67591" lon="3.06635">
        <ele>672</ele>
        <time>2019-06-23T09:18:14.000Z</time>
      </trkpt>
      <trkpt lat="45.67592" lon="3.06638">
        <ele>672</ele>
        <time>2019-06-23T09:18:15.000Z</time>
      </trkpt>
      <trkpt lat="45.67592" lon="3.06642">
        <ele>672</ele>
        <time>2019-06-23T09:18:16.000Z</time>
      </trkpt>
      <trkpt lat="45.67593" lon="3.06646">
        <ele>672</ele>
        <time>2019-06-23T09:18:17.000Z</time>
      </trkpt>
      <trkpt lat="45.67593" lon="3.0665">
        <ele>673</ele>
        <time>2019-06-23T09:18:18.000Z</time>
      </trkpt>
      <trkpt lat="45.67594" lon="3.06654">
        <ele>673</ele>
        <time>2019-06-23T09:18:19.000Z</time>
      </trkpt>
      <trkpt lat="45.67594" lon="3.06659">
        <ele>673</ele>
        <time>2019-06-23T09:18:20.000Z</time>
      </trkpt>
      <trkpt lat="45.67595" lon="3.06663">
        <ele>673</ele>
        <time>2019-06-23T09:18:21.000Z</time>
      </trkpt>
      <trkpt lat="45.67596" lon="3.06667">
        <ele>674</ele>
        <time>2019-06-23T09:18:22.000Z</time>
      </trkpt>
      <trkpt lat="45.67596" lon="3.06672">
        <ele>674</ele>
        <time>2019-06-23T09:18:23.000Z</time>
      </trkpt>
      <trkpt lat="45.67597" lon="3.06676">
        <ele>674</ele>
        <time>2019-06-23T09:18:24.000Z</time>
      </trkpt>
      <trkpt lat="45.67598" lon="3.06681">
        <ele>674</ele>
        <time>2019-06-23T09:18:25.000Z</time>
      </trkpt>
      <trkpt lat="45.67598" lon="3.06686">
        <ele>674</ele>
        <time>2019-06-23T09:18:26.000Z</time>
      </trkpt>
      <trkpt lat="45.67599" lon="3.06691">
        <ele>674</ele>
        <time>2019-06-23T09:18:27.000Z</time>
      </trkpt>
      <trkpt lat="45.67599" lon="3.06696">
        <ele>675</ele>
        <time>2019-06-23T09:18:28.000Z</time>
      </trkpt>
      <trkpt lat="45.676" lon="3.06701">
        <ele>675</ele>
        <time>2019-06-23T09:18:29.000Z</time>
      </trkpt>
      <trkpt lat="45.67601" lon="3.06707">
        <ele>675</ele>
        <time>2019-06-23T09:18:30.000Z</time>
      </trkpt>
      <trkpt lat="45.67602" lon="3.06711">
        <ele>676</ele>
        <time>2019-06-23T09:18:31.000Z</time>
      </trkpt>
      <trkpt lat="45.67602" lon="3.06717">
        <ele>676</ele>
        <time>2019-06-23T09:18:32.000Z</time>
      </trkpt>
      <trkpt lat="45.67603" lon="3.06722">
        <ele>676</ele>
        <time>2019-06-23T09:18:33.000Z</time>
      </trkpt>
      <trkpt lat="45.67604" lon="3.06727">
        <ele>676</ele>
        <time>2019-06-23T09:18:34.000Z</time>
      </trkpt>
      <trkpt lat="45.67604" lon="3.06732">
        <ele>677</ele>
        <time>2019-06-23T09:18:35.000Z</time>
      </trkpt>
      <trkpt lat="45.67605" lon="3.06737">
        <ele>677</ele>
        <time>2019-06-23T09:18:36.000Z</time>
      </trkpt>
      <trkpt lat="45.67605" lon="3.06742">
        <ele>677</ele>
        <time>2019-06-23T09:18:37.000Z</time>
      </trkpt>
      <trkpt lat="45.67606" lon="3.06747">
        <ele>678</ele>
        <time>2019-06-23T09:18:38.000Z</time>
      </trkpt>
      <trkpt lat="45.67607" lon="3.06752">
        <ele>678</ele>
        <time>2019-06-23T09:18:39.000Z</time>
      </trkpt>
      <trkpt lat="45.67608" lon="3.06757">
        <ele>678</ele>
        <time>2019-06-23T09:18:40.000Z</time>
      </trkpt>
      <trkpt lat="45.67608" lon="3.06762">
        <ele>678</ele>
        <time>2019-06-23T09:18:41.000Z</time>
      </trkpt>
      <trkpt lat="45.67609" lon="3.06766">
        <ele>679</ele>
        <time>2019-06-23T09:18:42.000Z</time>
      </trkpt>
      <trkpt lat="45.67609" lon="3.06771">
        <ele>679</ele>
        <time>2019-06-23T09:18:43.000Z</time>
      </trkpt>
      <trkpt lat="45.6761" lon="3.06776">
        <ele>679</ele>
        <time>2019-06-23T09:18:44.000Z</time>
      </trkpt>
      <trkpt lat="45.67611" lon="3.06781">
        <ele>680</ele>
        <time>2019-06-23T09:18:45.000Z</time>
      </trkpt>
      <trkpt lat="45.67612" lon="3.06785">
        <ele>680</ele>
        <time>2019-06-23T09:18:46.000Z</time>
      </trkpt>
      <trkpt lat="45.67612" lon="3.0679">
        <ele>681</ele>
        <time>2019-06-23T09:18:47.000Z</time>
      </trkpt>
      <trkpt lat="45.67613" lon="3.06794">
        <ele>681</ele>
        <time>2019-06-23T09:18:48.000Z</time>
      </trkpt>
      <trkpt lat="45.67613" lon="3.06798">
        <ele>681</ele>
        <time>2019-06-23T09:18:49.000Z</time>
      </trkpt>
      <trkpt lat="45.67613" lon="3.06803">
        <ele>681</ele>
        <time>2019-06-23T09:18:50.000Z</time>
      </trkpt>
      <trkpt lat="45.67613" lon="3.06807">
        <ele>681</ele>
        <time>2019-06-23T09:18:51.000Z</time>
      </trkpt>
      <trkpt lat="45.67613" lon="3.06811">
        <ele>682</ele>
        <time>2019-06-23T09:18:52.000Z</time>
      </trkpt>
      <trkpt lat="45.67613" lon="3.06815">
        <ele>682</ele>
        <time>2019-06-23T09:18:53.000Z</time>
      </trkpt>
      <trkpt lat="45.67613" lon="3.06819">
        <ele>682</ele>
        <time>2019-06-23T09:18:54.000Z</time>
      </trkpt>
      <trkpt lat="45.67612" lon="3.06823">
        <ele>682</ele>
        <time>2019-06-23T09:18:55.000Z</time>
      </trkpt>
      <trkpt lat="45.67612" lon="3.06828">
        <ele>682</ele>
        <time>2019-06-23T09:18:56.000Z</time>
      </trkpt>
      <trkpt lat="45.67612" lon="3.06832">
        <ele>682</ele>
        <time>2019-06-23T09:18:57.000Z</time>
      </trkpt>
      <trkpt lat="45.67612" lon="3.06836">
        <ele>682</ele>
        <time>2019-06-23T09:18:58.000Z</time>
      </trkpt>
      <trkpt lat="45.67612" lon="3.0684">
        <ele>682</ele>
        <time>2019-06-23T09:18:59.000Z</time>
      </trkpt>
      <trkpt lat="45.67612" lon="3.06845">
        <ele>683</ele>
        <time>2019-06-23T09:19:00.000Z</time>
      </trkpt>
      <trkpt lat="45.67613" lon="3.06849">
        <ele>682</ele>
        <time>2019-06-23T09:19:01.000Z</time>
      </trkpt>
      <trkpt lat="45.67613" lon="3.06853">
        <ele>683</ele>
        <time>2019-06-23T09:19:02.000Z</time>
      </trkpt>
      <trkpt lat="45.67613" lon="3.06858">
        <ele>683</ele>
        <time>2019-06-23T09:19:03.000Z</time>
      </trkpt>
      <trkpt lat="45.67614" lon="3.06862">
        <ele>683</ele>
        <time>2019-06-23T09:19:04.000Z</time>
      </trkpt>
      <trkpt lat="45.67615" lon="3.06866">
        <ele>683</ele>
        <time>2019-06-23T09:19:05.000Z</time>
      </trkpt>
      <trkpt lat="45.67617" lon="3.06869">
        <ele>683</ele>
        <time>2019-06-23T09:19:06.000Z</time>
      </trkpt>
      <trkpt lat="45.67619" lon="3.06871">
        <ele>683</ele>
        <time>2019-06-23T09:19:07.000Z</time>
      </trkpt>
      <trkpt lat="45.67622" lon="3.06871">
        <ele>683</ele>
        <time>2019-06-23T09:19:08.000Z</time>
      </trkpt>
      <trkpt lat="45.67624" lon="3.06871">
        <ele>683</ele>
        <time>2019-06-23T09:19:09.000Z</time>
      </trkpt>
      <trkpt lat="45.67626" lon="3.06871">
        <ele>683</ele>
        <time>2019-06-23T09:19:10.000Z</time>
      </trkpt>
      <trkpt lat="45.67628" lon="3.06872">
        <ele>683</ele>
        <time>2019-06-23T09:19:11.000Z</time>
      </trkpt>
      <trkpt lat="45.6763" lon="3.06873">
        <ele>683</ele>
        <time>2019-06-23T09:19:12.000Z</time>
      </trkpt>
      <trkpt lat="45.67632" lon="3.06873">
        <ele>683</ele>
        <time>2019-06-23T09:19:13.000Z</time>
      </trkpt>
      <trkpt lat="45.67634" lon="3.06873">
        <ele>683</ele>
        <time>2019-06-23T09:19:14.000Z</time>
      </trkpt>
      <trkpt lat="45.67636" lon="3.06873">
        <ele>682</ele>
        <time>2019-06-23T09:19:15.000Z</time>
      </trkpt>
      <trkpt lat="45.67638" lon="3.06873">
        <ele>683</ele>
        <time>2019-06-23T09:19:16.000Z</time>
      </trkpt>
      <trkpt lat="45.6764" lon="3.06872">
        <ele>683</ele>
        <time>2019-06-23T09:19:17.000Z</time>
      </trkpt>
      <trkpt lat="45.67641" lon="3.06873">
        <ele>683</ele>
        <time>2019-06-23T09:19:18.000Z</time>
      </trkpt>
      <trkpt lat="45.67643" lon="3.06872">
        <ele>683</ele>
        <time>2019-06-23T09:19:19.000Z</time>
      </trkpt>
      <trkpt lat="45.67645" lon="3.06872">
        <ele>683</ele>
        <time>2019-06-23T09:19:20.000Z</time>
      </trkpt>
      <trkpt lat="45.67646" lon="3.06872">
        <ele>683</ele>
        <time>2019-06-23T09:19:21.000Z</time>
      </trkpt>
      <trkpt lat="45.67648" lon="3.06872">
        <ele>683</ele>
        <time>2019-06-23T09:19:22.000Z</time>
      </trkpt>
      <trkpt lat="45.6765" lon="3.06871">
        <ele>683</ele>
        <time>2019-06-23T09:19:23.000Z</time>
      </trkpt>
      <trkpt lat="45.67651" lon="3.06871">
        <ele>683</ele>
        <time>2019-06-23T09:19:24.000Z</time>
      </trkpt>
      <trkpt lat="45.67653" lon="3.06871">
        <ele>683</ele>
        <time>2019-06-23T09:19:25.000Z</time>
      </trkpt>
      <trkpt lat="45.67654" lon="3.06871">
        <ele>683</ele>
        <time>2019-06-23T09:19:26.000Z</time>
      </trkpt>
      <trkpt lat="45.67655" lon="3.0687">
        <ele>683</ele>
        <time>2019-06-23T09:19:27.000Z</time>
      </trkpt>
      <trkpt lat="45.67656" lon="3.06869">
        <ele>683</ele>
        <time>2019-06-23T09:19:28.000Z</time>
      </trkpt>
      <trkpt lat="45.67658" lon="3.06869">
        <ele>683</ele>
        <time>2019-06-23T09:19:29.000Z</time>
      </trkpt>
      <trkpt lat="45.67659" lon="3.06869">
        <ele>683</ele>
        <time>2019-06-23T09:19:30.000Z</time>
      </trkpt>
      <trkpt lat="45.67661" lon="3.0687">
        <ele>682</ele>
        <time>2019-06-23T09:19:31.000Z</time>
      </trkpt>
      <trkpt lat="45.67663" lon="3.06869">
        <ele>683</ele>
        <time>2019-06-23T09:19:32.000Z</time>
      </trkpt>
      <trkpt lat="45.67663" lon="3.06869">
        <ele>683</ele>
        <time>2019-06-23T09:19:33.000Z</time>
      </trkpt>
      <trkpt lat="45.67663" lon="3.06869">
        <ele>683</ele>
        <time>2019-06-23T09:19:34.000Z</time>
      </trkpt>
      <trkpt lat="45.67663" lon="3.06869">
        <ele>683</ele>
        <time>2019-06-23T09:19:35.000Z</time>
      </trkpt>
      <trkpt lat="45.67663" lon="3.06869">
        <ele>682</ele>
        <time>2019-06-23T09:19:36.000Z</time>
      </trkpt>
      <trkpt lat="45.67663" lon="3.06869">
        <ele>682</ele>
        <time>2019-06-23T09:19:37.000Z</time>
      </trkpt>
      <trkpt lat="45.67663" lon="3.06869">
        <ele>682</ele>
        <time>2019-06-23T09:19:38.000Z</time>
      </trkpt>
      <trkpt lat="45.67663" lon="3.06869">
        <ele>682</ele>
        <time>2019-06-23T09:19:39.000Z</time>
      </trkpt>
      <trkpt lat="45.67663" lon="3.06869">
        <ele>682</ele>
        <time>2019-06-23T09:19:40.000Z</time>
      </trkpt>
      <trkpt lat="45.67667" lon="3.06868">
        <ele>682</ele>
        <time>2019-06-23T09:19:41.000Z</time>
      </trkpt>
      <trkpt lat="45.6767" lon="3.06868">
        <ele>682</ele>
        <time>2019-06-23T09:19:42.000Z</time>
      </trkpt>
      <trkpt lat="45.67673" lon="3.06867">
        <ele>683</ele>
        <time>2019-06-23T09:19:43.000Z</time>
      </trkpt>
      <trkpt lat="45.67676" lon="3.06866">
        <ele>683</ele>
        <time>2019-06-23T09:19:44.000Z</time>
      </trkpt>
      <trkpt lat="45.67679" lon="3.06866">
        <ele>682</ele>
        <time>2019-06-23T09:19:45.000Z</time>
      </trkpt>
      <trkpt lat="45.67683" lon="3.06865">
        <ele>682</ele>
        <time>2019-06-23T09:19:46.000Z</time>
      </trkpt>
      <trkpt lat="45.67687" lon="3.06864">
        <ele>683</ele>
        <time>2019-06-23T09:19:47.000Z</time>
      </trkpt>
      <trkpt lat="45.6769" lon="3.06863">
        <ele>683</ele>
        <time>2019-06-23T09:19:48.000Z</time>
      </trkpt>
      <trkpt lat="45.67694" lon="3.06863">
        <ele>683</ele>
        <time>2019-06-23T09:19:49.000Z</time>
      </trkpt>
      <trkpt lat="45.67697" lon="3.06862">
        <ele>683</ele>
        <time>2019-06-23T09:19:50.000Z</time>
      </trkpt>
      <trkpt lat="45.67701" lon="3.06861">
        <ele>682</ele>
        <time>2019-06-23T09:19:51.000Z</time>
      </trkpt>
      <trkpt lat="45.67704" lon="3.0686">
        <ele>682</ele>
        <time>2019-06-23T09:19:52.000Z</time>
      </trkpt>
      <trkpt lat="45.67707" lon="3.06859">
        <ele>682</ele>
        <time>2019-06-23T09:19:53.000Z</time>
      </trkpt>
      <trkpt lat="45.6771" lon="3.06858">
        <ele>682</ele>
        <time>2019-06-23T09:19:54.000Z</time>
      </trkpt>
      <trkpt lat="45.67713" lon="3.06857">
        <ele>682</ele>
        <time>2019-06-23T09:19:55.000Z</time>
      </trkpt>
      <trkpt lat="45.67716" lon="3.06856">
        <ele>683</ele>
        <time>2019-06-23T09:19:56.000Z</time>
      </trkpt>
      <trkpt lat="45.67719" lon="3.06855">
        <ele>682</ele>
        <time>2019-06-23T09:19:57.000Z</time>
      </trkpt>
      <trkpt lat="45.67723" lon="3.06854">
        <ele>682</ele>
        <time>2019-06-23T09:19:58.000Z</time>
      </trkpt>
      <trkpt lat="45.67726" lon="3.06853">
        <ele>682</ele>
        <time>2019-06-23T09:19:59.000Z</time>
      </trkpt>
      <trkpt lat="45.6773" lon="3.06852">
        <ele>682</ele>
        <time>2019-06-23T09:20:00.000Z</time>
      </trkpt>
      <trkpt lat="45.67734" lon="3.06851">
        <ele>682</ele>
        <time>2019-06-23T09:20:01.000Z</time>
      </trkpt>
      <trkpt lat="45.67738" lon="3.0685">
        <ele>682</ele>
        <time>2019-06-23T09:20:02.000Z</time>
      </trkpt>
      <trkpt lat="45.67742" lon="3.06849">
        <ele>682</ele>
        <time>2019-06-23T09:20:03.000Z</time>
      </trkpt>
      <trkpt lat="45.67746" lon="3.06848">
        <ele>682</ele>
        <time>2019-06-23T09:20:04.000Z</time>
      </trkpt>
      <trkpt lat="45.6775" lon="3.06847">
        <ele>682</ele>
        <time>2019-06-23T09:20:05.000Z</time>
      </trkpt>
      <trkpt lat="45.67754" lon="3.06846">
        <ele>682</ele>
        <time>2019-06-23T09:20:06.000Z</time>
      </trkpt>
      <trkpt lat="45.67759" lon="3.06846">
        <ele>682</ele>
        <time>2019-06-23T09:20:07.000Z</time>
      </trkpt>
      <trkpt lat="45.67763" lon="3.06845">
        <ele>682</ele>
        <time>2019-06-23T09:20:08.000Z</time>
      </trkpt>
      <trkpt lat="45.67767" lon="3.06844">
        <ele>682</ele>
        <time>2019-06-23T09:20:09.000Z</time>
      </trkpt>
      <trkpt lat="45.67772" lon="3.06844">
        <ele>682</ele>
        <time>2019-06-23T09:20:10.000Z</time>
      </trkpt>
      <trkpt lat="45.67776" lon="3.06843">
        <ele>682</ele>
        <time>2019-06-23T09:20:11.000Z</time>
      </trkpt>
      <trkpt lat="45.6778" lon="3.06843">
        <ele>682</ele>
        <time>2019-06-23T09:20:12.000Z</time>
      </trkpt>
      <trkpt lat="45.67784" lon="3.06842">
        <ele>682</ele>
        <time>2019-06-23T09:20:13.000Z</time>
      </trkpt>
      <trkpt lat="45.67789" lon="3.06841">
        <ele>682</ele>
        <time>2019-06-23T09:20:14.000Z</time>
      </trkpt>
      <trkpt lat="45.67793" lon="3.0684">
        <ele>682</ele>
        <time>2019-06-23T09:20:15.000Z</time>
      </trkpt>
      <trkpt lat="45.67798" lon="3.0684">
        <ele>682</ele>
        <time>2019-06-23T09:20:16.000Z</time>
      </trkpt>
      <trkpt lat="45.67802" lon="3.0684">
        <ele>682</ele>
        <time>2019-06-23T09:20:17.000Z</time>
      </trkpt>
      <trkpt lat="45.67806" lon="3.06839">
        <ele>682</ele>
        <time>2019-06-23T09:20:18.000Z</time>
      </trkpt>
      <trkpt lat="45.67811" lon="3.06838">
        <ele>682</ele>
        <time>2019-06-23T09:20:19.000Z</time>
      </trkpt>
      <trkpt lat="45.67815" lon="3.06837">
        <ele>682</ele>
        <time>2019-06-23T09:20:20.000Z</time>
      </trkpt>
      <trkpt lat="45.6782" lon="3.06835">
        <ele>682</ele>
        <time>2019-06-23T09:20:21.000Z</time>
      </trkpt>
      <trkpt lat="45.67825" lon="3.06833">
        <ele>682</ele>
        <time>2019-06-23T09:20:22.000Z</time>
      </trkpt>
      <trkpt lat="45.6783" lon="3.06833">
        <ele>682</ele>
        <time>2019-06-23T09:20:23.000Z</time>
      </trkpt>
      <trkpt lat="45.67834" lon="3.06833">
        <ele>683</ele>
        <time>2019-06-23T09:20:24.000Z</time>
      </trkpt>
      <trkpt lat="45.67839" lon="3.06833">
        <ele>683</ele>
        <time>2019-06-23T09:20:25.000Z</time>
      </trkpt>
      <trkpt lat="45.67843" lon="3.06833">
        <ele>683</ele>
        <time>2019-06-23T09:20:26.000Z</time>
      </trkpt>
      <trkpt lat="45.67847" lon="3.06833">
        <ele>683</ele>
        <time>2019-06-23T09:20:27.000Z</time>
      </trkpt>
      <trkpt lat="45.67851" lon="3.06832">
        <ele>683</ele>
        <time>2019-06-23T09:20:28.000Z</time>
      </trkpt>
      <trkpt lat="45.67856" lon="3.06832">
        <ele>684</ele>
        <time>2019-06-23T09:20:29.000Z</time>
      </trkpt>
      <trkpt lat="45.6786" lon="3.06832">
        <ele>684</ele>
        <time>2019-06-23T09:20:30.000Z</time>
      </trkpt>
      <trkpt lat="45.67864" lon="3.06832">
        <ele>684</ele>
        <time>2019-06-23T09:20:31.000Z</time>
      </trkpt>
      <trkpt lat="45.67868" lon="3.06832">
        <ele>684</ele>
        <time>2019-06-23T09:20:32.000Z</time>
      </trkpt>
      <trkpt lat="45.67872" lon="3.06832">
        <ele>684</ele>
        <time>2019-06-23T09:20:33.000Z</time>
      </trkpt>
      <trkpt lat="45.67877" lon="3.06833">
        <ele>684</ele>
        <time>2019-06-23T09:20:34.000Z</time>
      </trkpt>
      <trkpt lat="45.67881" lon="3.06833">
        <ele>684</ele>
        <time>2019-06-23T09:20:35.000Z</time>
      </trkpt>
      <trkpt lat="45.67886" lon="3.06833">
        <ele>684</ele>
        <time>2019-06-23T09:20:36.000Z</time>
      </trkpt>
      <trkpt lat="45.6789" lon="3.06834">
        <ele>684</ele>
        <time>2019-06-23T09:20:37.000Z</time>
      </trkpt>
      <trkpt lat="45.67894" lon="3.06834">
        <ele>684</ele>
        <time>2019-06-23T09:20:38.000Z</time>
      </trkpt>
      <trkpt lat="45.67899" lon="3.06835">
        <ele>684</ele>
        <time>2019-06-23T09:20:39.000Z</time>
      </trkpt>
      <trkpt lat="45.67903" lon="3.06837">
        <ele>684</ele>
        <time>2019-06-23T09:20:40.000Z</time>
      </trkpt>
      <trkpt lat="45.67907" lon="3.06838">
        <ele>684</ele>
        <time>2019-06-23T09:20:41.000Z</time>
      </trkpt>
      <trkpt lat="45.67911" lon="3.06839">
        <ele>684</ele>
        <time>2019-06-23T09:20:42.000Z</time>
      </trkpt>
      <trkpt lat="45.67916" lon="3.06841">
        <ele>684</ele>
        <time>2019-06-23T09:20:43.000Z</time>
      </trkpt>
      <trkpt lat="45.6792" lon="3.06843">
        <ele>684</ele>
        <time>2019-06-23T09:20:44.000Z</time>
      </trkpt>
      <trkpt lat="45.67924" lon="3.06845">
        <ele>684</ele>
        <time>2019-06-23T09:20:45.000Z</time>
      </trkpt>
      <trkpt lat="45.67928" lon="3.06847">
        <ele>684</ele>
        <time>2019-06-23T09:20:46.000Z</time>
      </trkpt>
      <trkpt lat="45.67932" lon="3.06849">
        <ele>684</ele>
        <time>2019-06-23T09:20:47.000Z</time>
      </trkpt>
      <trkpt lat="45.67936" lon="3.06851">
        <ele>684</ele>
        <time>2019-06-23T09:20:48.000Z</time>
      </trkpt>
      <trkpt lat="45.6794" lon="3.06853">
        <ele>684</ele>
        <time>2019-06-23T09:20:49.000Z</time>
      </trkpt>
      <trkpt lat="45.67944" lon="3.06854">
        <ele>684</ele>
        <time>2019-06-23T09:20:50.000Z</time>
      </trkpt>
      <trkpt lat="45.67948" lon="3.06856">
        <ele>684</ele>
        <time>2019-06-23T09:20:51.000Z</time>
      </trkpt>
      <trkpt lat="45.67952" lon="3.06856">
        <ele>684</ele>
        <time>2019-06-23T09:20:52.000Z</time>
      </trkpt>
      <trkpt lat="45.67955" lon="3.06858">
        <ele>685</ele>
        <time>2019-06-23T09:20:53.000Z</time>
      </trkpt>
      <trkpt lat="45.67958" lon="3.06859">
        <ele>685</ele>
        <time>2019-06-23T09:20:54.000Z</time>
      </trkpt>
      <trkpt lat="45.67962" lon="3.0686">
        <ele>685</ele>
        <time>2019-06-23T09:20:55.000Z</time>
      </trkpt>
      <trkpt lat="45.67965" lon="3.06861">
        <ele>686</ele>
        <time>2019-06-23T09:20:56.000Z</time>
      </trkpt>
      <trkpt lat="45.67968" lon="3.06862">
        <ele>685</ele>
        <time>2019-06-23T09:20:57.000Z</time>
      </trkpt>
      <trkpt lat="45.67972" lon="3.06863">
        <ele>686</ele>
        <time>2019-06-23T09:20:58.000Z</time>
      </trkpt>
      <trkpt lat="45.67975" lon="3.06864">
        <ele>686</ele>
        <time>2019-06-23T09:20:59.000Z</time>
      </trkpt>
      <trkpt lat="45.67978" lon="3.06864">
        <ele>686</ele>
        <time>2019-06-23T09:21:00.000Z</time>
      </trkpt>
      <trkpt lat="45.67981" lon="3.06865">
        <ele>686</ele>
        <time>2019-06-23T09:21:01.000Z</time>
      </trkpt>
      <trkpt lat="45.67985" lon="3.06865">
        <ele>686</ele>
        <time>2019-06-23T09:21:02.000Z</time>
      </trkpt>
      <trkpt lat="45.67988" lon="3.06866">
        <ele>686</ele>
        <time>2019-06-23T09:21:03.000Z</time>
      </trkpt>
      <trkpt lat="45.67991" lon="3.06866">
        <ele>686</ele>
        <time>2019-06-23T09:21:04.000Z</time>
      </trkpt>
      <trkpt lat="45.67994" lon="3.06866">
        <ele>686</ele>
        <time>2019-06-23T09:21:05.000Z</time>
      </trkpt>
      <trkpt lat="45.67997" lon="3.06867">
        <ele>687</ele>
        <time>2019-06-23T09:21:06.000Z</time>
      </trkpt>
      <trkpt lat="45.68" lon="3.06867">
        <ele>687</ele>
        <time>2019-06-23T09:21:07.000Z</time>
      </trkpt>
      <trkpt lat="45.68003" lon="3.06867">
        <ele>687</ele>
        <time>2019-06-23T09:21:08.000Z</time>
      </trkpt>
      <trkpt lat="45.68006" lon="3.06868">
        <ele>688</ele>
        <time>2019-06-23T09:21:09.000Z</time>
      </trkpt>
      <trkpt lat="45.68009" lon="3.06868">
        <ele>688</ele>
        <time>2019-06-23T09:21:10.000Z</time>
      </trkpt>
      <trkpt lat="45.68012" lon="3.06868">
        <ele>688</ele>
        <time>2019-06-23T09:21:11.000Z</time>
      </trkpt>
      <trkpt lat="45.68014" lon="3.06869">
        <ele>688</ele>
        <time>2019-06-23T09:21:12.000Z</time>
      </trkpt>
      <trkpt lat="45.68017" lon="3.06869">
        <ele>688</ele>
        <time>2019-06-23T09:21:13.000Z</time>
      </trkpt>
      <trkpt lat="45.6802" lon="3.06869">
        <ele>689</ele>
        <time>2019-06-23T09:21:14.000Z</time>
      </trkpt>
      <trkpt lat="45.68023" lon="3.06869">
        <ele>689</ele>
        <time>2019-06-23T09:21:15.000Z</time>
      </trkpt>
      <trkpt lat="45.68026" lon="3.06869">
        <ele>690</ele>
        <time>2019-06-23T09:21:16.000Z</time>
      </trkpt>
      <trkpt lat="45.68028" lon="3.06869">
        <ele>690</ele>
        <time>2019-06-23T09:21:17.000Z</time>
      </trkpt>
      <trkpt lat="45.68031" lon="3.06868">
        <ele>690</ele>
        <time>2019-06-23T09:21:18.000Z</time>
      </trkpt>
      <trkpt lat="45.68033" lon="3.06868">
        <ele>691</ele>
        <time>2019-06-23T09:21:19.000Z</time>
      </trkpt>
      <trkpt lat="45.68036" lon="3.06867">
        <ele>691</ele>
        <time>2019-06-23T09:21:20.000Z</time>
      </trkpt>
      <trkpt lat="45.68039" lon="3.06867">
        <ele>691</ele>
        <time>2019-06-23T09:21:21.000Z</time>
      </trkpt>
      <trkpt lat="45.68041" lon="3.06867">
        <ele>692</ele>
        <time>2019-06-23T09:21:22.000Z</time>
      </trkpt>
      <trkpt lat="45.68044" lon="3.06866">
        <ele>692</ele>
        <time>2019-06-23T09:21:23.000Z</time>
      </trkpt>
      <trkpt lat="45.68046" lon="3.06866">
        <ele>692</ele>
        <time>2019-06-23T09:21:24.000Z</time>
      </trkpt>
      <trkpt lat="45.68048" lon="3.06866">
        <ele>693</ele>
        <time>2019-06-23T09:21:25.000Z</time>
      </trkpt>
      <trkpt lat="45.68051" lon="3.06865">
        <ele>693</ele>
        <time>2019-06-23T09:21:26.000Z</time>
      </trkpt>
      <trkpt lat="45.68053" lon="3.06865">
        <ele>694</ele>
        <time>2019-06-23T09:21:27.000Z</time>
      </trkpt>
      <trkpt lat="45.68055" lon="3.06865">
        <ele>694</ele>
        <time>2019-06-23T09:21:28.000Z</time>
      </trkpt>
      <trkpt lat="45.68058" lon="3.06865">
        <ele>695</ele>
        <time>2019-06-23T09:21:29.000Z</time>
      </trkpt>
      <trkpt lat="45.6806" lon="3.06866">
        <ele>696</ele>
        <time>2019-06-23T09:21:30.000Z</time>
      </trkpt>
      <trkpt lat="45.68062" lon="3.06866">
        <ele>696</ele>
        <time>2019-06-23T09:21:31.000Z</time>
      </trkpt>
      <trkpt lat="45.68064" lon="3.06866">
        <ele>696</ele>
        <time>2019-06-23T09:21:32.000Z</time>
      </trkpt>
      <trkpt lat="45.68065" lon="3.06866">
        <ele>697</ele>
        <time>2019-06-23T09:21:33.000Z</time>
      </trkpt>
      <trkpt lat="45.68067" lon="3.06866">
        <ele>697</ele>
        <time>2019-06-23T09:21:34.000Z</time>
      </trkpt>
      <trkpt lat="45.68069" lon="3.06865">
        <ele>697</ele>
        <time>2019-06-23T09:21:35.000Z</time>
      </trkpt>
      <trkpt lat="45.68071" lon="3.06866">
        <ele>698</ele>
        <time>2019-06-23T09:21:36.000Z</time>
      </trkpt>
      <trkpt lat="45.68073" lon="3.06866">
        <ele>698</ele>
        <time>2019-06-23T09:21:37.000Z</time>
      </trkpt>
      <trkpt lat="45.68075" lon="3.06867">
        <ele>698</ele>
        <time>2019-06-23T09:21:38.000Z</time>
      </trkpt>
      <trkpt lat="45.68077" lon="3.06867">
        <ele>699</ele>
        <time>2019-06-23T09:21:39.000Z</time>
      </trkpt>
      <trkpt lat="45.68078" lon="3.06868">
        <ele>699</ele>
        <time>2019-06-23T09:21:40.000Z</time>
      </trkpt>
      <trkpt lat="45.6808" lon="3.06869">
        <ele>700</ele>
        <time>2019-06-23T09:21:41.000Z</time>
      </trkpt>
      <trkpt lat="45.68081" lon="3.0687">
        <ele>700</ele>
        <time>2019-06-23T09:21:42.000Z</time>
      </trkpt>
      <trkpt lat="45.68083" lon="3.0687">
        <ele>700</ele>
        <time>2019-06-23T09:21:43.000Z</time>
      </trkpt>
      <trkpt lat="45.68084" lon="3.0687">
        <ele>701</ele>
        <time>2019-06-23T09:21:44.000Z</time>
      </trkpt>
      <trkpt lat="45.68086" lon="3.06871">
        <ele>701</ele>
        <time>2019-06-23T09:21:45.000Z</time>
      </trkpt>
      <trkpt lat="45.68088" lon="3.06871">
        <ele>701</ele>
        <time>2019-06-23T09:21:46.000Z</time>
      </trkpt>
      <trkpt lat="45.6809" lon="3.0687">
        <ele>701</ele>
        <time>2019-06-23T09:21:47.000Z</time>
      </trkpt>
      <trkpt lat="45.68092" lon="3.0687">
        <ele>701</ele>
        <time>2019-06-23T09:21:48.000Z</time>
      </trkpt>
      <trkpt lat="45.68093" lon="3.06871">
        <ele>702</ele>
        <time>2019-06-23T09:21:49.000Z</time>
      </trkpt>
      <trkpt lat="45.68095" lon="3.06871">
        <ele>703</ele>
        <time>2019-06-23T09:21:50.000Z</time>
      </trkpt>
      <trkpt lat="45.68097" lon="3.06872">
        <ele>703</ele>
        <time>2019-06-23T09:21:51.000Z</time>
      </trkpt>
      <trkpt lat="45.68098" lon="3.06872">
        <ele>704</ele>
        <time>2019-06-23T09:21:52.000Z</time>
      </trkpt>
      <trkpt lat="45.68099" lon="3.06872">
        <ele>704</ele>
        <time>2019-06-23T09:21:53.000Z</time>
      </trkpt>
      <trkpt lat="45.681" lon="3.06871">
        <ele>704</ele>
        <time>2019-06-23T09:21:54.000Z</time>
      </trkpt>
      <trkpt lat="45.68101" lon="3.0687">
        <ele>705</ele>
        <time>2019-06-23T09:21:55.000Z</time>
      </trkpt>
      <trkpt lat="45.68102" lon="3.06869">
        <ele>706</ele>
        <time>2019-06-23T09:21:56.000Z</time>
      </trkpt>
      <trkpt lat="45.68104" lon="3.06869">
        <ele>707</ele>
        <time>2019-06-23T09:21:57.000Z</time>
      </trkpt>
      <trkpt lat="45.68106" lon="3.06869">
        <ele>707</ele>
        <time>2019-06-23T09:21:58.000Z</time>
      </trkpt>
      <trkpt lat="45.68107" lon="3.0687">
        <ele>708</ele>
        <time>2019-06-23T09:21:59.000Z</time>
      </trkpt>
      <trkpt lat="45.68109" lon="3.0687">
        <ele>708</ele>
        <time>2019-06-23T09:22:00.000Z</time>
      </trkpt>
      <trkpt lat="45.6811" lon="3.0687">
        <ele>708</ele>
        <time>2019-06-23T09:22:01.000Z</time>
      </trkpt>
      <trkpt lat="45.68112" lon="3.06871">
        <ele>708</ele>
        <time>2019-06-23T09:22:02.000Z</time>
      </trkpt>
      <trkpt lat="45.68113" lon="3.06871">
        <ele>708</ele>
        <time>2019-06-23T09:22:03.000Z</time>
      </trkpt>
      <trkpt lat="45.68115" lon="3.06871">
        <ele>708</ele>
        <time>2019-06-23T09:22:04.000Z</time>
      </trkpt>
      <trkpt lat="45.68117" lon="3.0687">
        <ele>709</ele>
        <time>2019-06-23T09:22:05.000Z</time>
      </trkpt>
      <trkpt lat="45.68118" lon="3.0687">
        <ele>709</ele>
        <time>2019-06-23T09:22:06.000Z</time>
      </trkpt>
      <trkpt lat="45.6812" lon="3.0687">
        <ele>709</ele>
        <time>2019-06-23T09:22:07.000Z</time>
      </trkpt>
      <trkpt lat="45.68121" lon="3.0687">
        <ele>709</ele>
        <time>2019-06-23T09:22:08.000Z</time>
      </trkpt>
      <trkpt lat="45.68122" lon="3.0687">
        <ele>710</ele>
        <time>2019-06-23T09:22:09.000Z</time>
      </trkpt>
      <trkpt lat="45.68124" lon="3.06871">
        <ele>710</ele>
        <time>2019-06-23T09:22:10.000Z</time>
      </trkpt>
      <trkpt lat="45.68125" lon="3.06871">
        <ele>711</ele>
        <time>2019-06-23T09:22:11.000Z</time>
      </trkpt>
      <trkpt lat="45.68127" lon="3.0687">
        <ele>710</ele>
        <time>2019-06-23T09:22:12.000Z</time>
      </trkpt>
      <trkpt lat="45.68128" lon="3.0687">
        <ele>710</ele>
        <time>2019-06-23T09:22:13.000Z</time>
      </trkpt>
      <trkpt lat="45.6813" lon="3.06871">
        <ele>711</ele>
        <time>2019-06-23T09:22:14.000Z</time>
      </trkpt>
      <trkpt lat="45.68131" lon="3.06871">
        <ele>711</ele>
        <time>2019-06-23T09:22:15.000Z</time>
      </trkpt>
      <trkpt lat="45.68132" lon="3.06872">
        <ele>711</ele>
        <time>2019-06-23T09:22:16.000Z</time>
      </trkpt>
      <trkpt lat="45.68134" lon="3.06872">
        <ele>711</ele>
        <time>2019-06-23T09:22:17.000Z</time>
      </trkpt>
      <trkpt lat="45.68136" lon="3.06872">
        <ele>711</ele>
        <time>2019-06-23T09:22:18.000Z</time>
      </trkpt>
      <trkpt lat="45.68137" lon="3.06871">
        <ele>711</ele>
        <time>2019-06-23T09:22:19.000Z</time>
      </trkpt>
      <trkpt lat="45.68138" lon="3.06871">
        <ele>710</ele>
        <time>2019-06-23T09:22:20.000Z</time>
      </trkpt>
      <trkpt lat="45.68139" lon="3.06871">
        <ele>711</ele>
        <time>2019-06-23T09:22:21.000Z</time>
      </trkpt>
      <trkpt lat="45.68141" lon="3.06871">
        <ele>710</ele>
        <time>2019-06-23T09:22:22.000Z</time>
      </trkpt>
      <trkpt lat="45.68142" lon="3.06872">
        <ele>710</ele>
        <time>2019-06-23T09:22:23.000Z</time>
      </trkpt>
      <trkpt lat="45.68144" lon="3.06872">
        <ele>710</ele>
        <time>2019-06-23T09:22:24.000Z</time>
      </trkpt>
      <trkpt lat="45.68145" lon="3.06872">
        <ele>711</ele>
        <time>2019-06-23T09:22:25.000Z</time>
      </trkpt>
      <trkpt lat="45.68146" lon="3.06872">
        <ele>711</ele>
        <time>2019-06-23T09:22:26.000Z</time>
      </trkpt>
      <trkpt lat="45.68148" lon="3.06872">
        <ele>712</ele>
        <time>2019-06-23T09:22:27.000Z</time>
      </trkpt>
      <trkpt lat="45.68149" lon="3.06872">
        <ele>712</ele>
        <time>2019-06-23T09:22:28.000Z</time>
      </trkpt>
      <trkpt lat="45.6815" lon="3.06873">
        <ele>712</ele>
        <time>2019-06-23T09:22:29.000Z</time>
      </trkpt>
      <trkpt lat="45.68152" lon="3.06873">
        <ele>712</ele>
        <time>2019-06-23T09:22:30.000Z</time>
      </trkpt>
      <trkpt lat="45.68153" lon="3.06873">
        <ele>712</ele>
        <time>2019-06-23T09:22:31.000Z</time>
      </trkpt>
      <trkpt lat="45.68154" lon="3.06874">
        <ele>713</ele>
        <time>2019-06-23T09:22:32.000Z</time>
      </trkpt>
      <trkpt lat="45.68156" lon="3.06875">
        <ele>714</ele>
        <time>2019-06-23T09:22:33.000Z</time>
      </trkpt>
      <trkpt lat="45.68157" lon="3.06875">
        <ele>714</ele>
        <time>2019-06-23T09:22:34.000Z</time>
      </trkpt>
      <trkpt lat="45.68158" lon="3.06875">
        <ele>714</ele>
        <time>2019-06-23T09:22:35.000Z</time>
      </trkpt>
      <trkpt lat="45.6816" lon="3.06875">
        <ele>714</ele>
        <time>2019-06-23T09:22:36.000Z</time>
      </trkpt>
      <trkpt lat="45.68161" lon="3.06875">
        <ele>714</ele>
        <time>2019-06-23T09:22:37.000Z</time>
      </trkpt>
      <trkpt lat="45.68162" lon="3.06876">
        <ele>714</ele>
        <time>2019-06-23T09:22:38.000Z</time>
      </trkpt>
      <trkpt lat="45.68164" lon="3.06876">
        <ele>714</ele>
        <time>2019-06-23T09:22:39.000Z</time>
      </trkpt>
      <trkpt lat="45.68166" lon="3.06876">
        <ele>713</ele>
        <time>2019-06-23T09:22:40.000Z</time>
      </trkpt>
      <trkpt lat="45.68167" lon="3.06877">
        <ele>714</ele>
        <time>2019-06-23T09:22:41.000Z</time>
      </trkpt>
      <trkpt lat="45.68168" lon="3.06877">
        <ele>714</ele>
        <time>2019-06-23T09:22:42.000Z</time>
      </trkpt>
      <trkpt lat="45.6817" lon="3.06877">
        <ele>714</ele>
        <time>2019-06-23T09:22:43.000Z</time>
      </trkpt>
      <trkpt lat="45.68171" lon="3.06878">
        <ele>714</ele>
        <time>2019-06-23T09:22:44.000Z</time>
      </trkpt>
      <trkpt lat="45.68173" lon="3.06879">
        <ele>714</ele>
        <time>2019-06-23T09:22:45.000Z</time>
      </trkpt>
      <trkpt lat="45.68174" lon="3.06879">
        <ele>714</ele>
        <time>2019-06-23T09:22:46.000Z</time>
      </trkpt>
      <trkpt lat="45.68175" lon="3.0688">
        <ele>714</ele>
        <time>2019-06-23T09:22:47.000Z</time>
      </trkpt>
      <trkpt lat="45.68177" lon="3.06881">
        <ele>715</ele>
        <time>2019-06-23T09:22:48.000Z</time>
      </trkpt>
      <trkpt lat="45.68178" lon="3.06881">
        <ele>716</ele>
        <time>2019-06-23T09:22:49.000Z</time>
      </trkpt>
      <trkpt lat="45.68179" lon="3.06882">
        <ele>715</ele>
        <time>2019-06-23T09:22:50.000Z</time>
      </trkpt>
      <trkpt lat="45.6818" lon="3.06883">
        <ele>715</ele>
        <time>2019-06-23T09:22:51.000Z</time>
      </trkpt>
      <trkpt lat="45.68181" lon="3.06884">
        <ele>715</ele>
        <time>2019-06-23T09:22:52.000Z</time>
      </trkpt>
      <trkpt lat="45.68182" lon="3.06885">
        <ele>716</ele>
        <time>2019-06-23T09:22:53.000Z</time>
      </trkpt>
      <trkpt lat="45.68184" lon="3.06886">
        <ele>716</ele>
        <time>2019-06-23T09:22:54.000Z</time>
      </trkpt>
      <trkpt lat="45.68185" lon="3.06888">
        <ele>716</ele>
        <time>2019-06-23T09:22:55.000Z</time>
      </trkpt>
      <trkpt lat="45.68186" lon="3.06889">
        <ele>716</ele>
        <time>2019-06-23T09:22:56.000Z</time>
      </trkpt>
      <trkpt lat="45.68187" lon="3.0689">
        <ele>717</ele>
        <time>2019-06-23T09:22:57.000Z</time>
      </trkpt>
      <trkpt lat="45.68188" lon="3.0689">
        <ele>717</ele>
        <time>2019-06-23T09:22:58.000Z</time>
      </trkpt>
      <trkpt lat="45.68189" lon="3.06891">
        <ele>718</ele>
        <time>2019-06-23T09:22:59.000Z</time>
      </trkpt>
      <trkpt lat="45.6819" lon="3.06892">
        <ele>718</ele>
        <time>2019-06-23T09:23:00.000Z</time>
      </trkpt>
      <trkpt lat="45.68191" lon="3.06893">
        <ele>718</ele>
        <time>2019-06-23T09:23:01.000Z</time>
      </trkpt>
      <trkpt lat="45.68193" lon="3.06893">
        <ele>718</ele>
        <time>2019-06-23T09:23:02.000Z</time>
      </trkpt>
      <trkpt lat="45.68194" lon="3.06894">
        <ele>719</ele>
        <time>2019-06-23T09:23:03.000Z</time>
      </trkpt>
      <trkpt lat="45.68195" lon="3.06894">
        <ele>719</ele>
        <time>2019-06-23T09:23:04.000Z</time>
      </trkpt>
      <trkpt lat="45.68196" lon="3.06895">
        <ele>720</ele>
        <time>2019-06-23T09:23:05.000Z</time>
      </trkpt>
      <trkpt lat="45.68197" lon="3.06896">
        <ele>720</ele>
        <time>2019-06-23T09:23:06.000Z</time>
      </trkpt>
      <trkpt lat="45.68199" lon="3.06897">
        <ele>720</ele>
        <time>2019-06-23T09:23:07.000Z</time>
      </trkpt>
      <trkpt lat="45.682" lon="3.06898">
        <ele>720</ele>
        <time>2019-06-23T09:23:08.000Z</time>
      </trkpt>
      <trkpt lat="45.68201" lon="3.06899">
        <ele>721</ele>
        <time>2019-06-23T09:23:09.000Z</time>
      </trkpt>
      <trkpt lat="45.68203" lon="3.069">
        <ele>721</ele>
        <time>2019-06-23T09:23:10.000Z</time>
      </trkpt>
      <trkpt lat="45.68204" lon="3.06901">
        <ele>722</ele>
        <time>2019-06-23T09:23:11.000Z</time>
      </trkpt>
      <trkpt lat="45.68205" lon="3.06902">
        <ele>722</ele>
        <time>2019-06-23T09:23:12.000Z</time>
      </trkpt>
      <trkpt lat="45.68206" lon="3.06903">
        <ele>722</ele>
        <time>2019-06-23T09:23:13.000Z</time>
      </trkpt>
      <trkpt lat="45.68207" lon="3.06904">
        <ele>722</ele>
        <time>2019-06-23T09:23:14.000Z</time>
      </trkpt>
      <trkpt lat="45.68208" lon="3.06905">
        <ele>722</ele>
        <time>2019-06-23T09:23:15.000Z</time>
      </trkpt>
      <trkpt lat="45.68209" lon="3.06906">
        <ele>722</ele>
        <time>2019-06-23T09:23:16.000Z</time>
      </trkpt>
      <trkpt lat="45.68209" lon="3.06907">
        <ele>722</ele>
        <time>2019-06-23T09:23:17.000Z</time>
      </trkpt>
      <trkpt lat="45.6821" lon="3.06908">
        <ele>722</ele>
        <time>2019-06-23T09:23:18.000Z</time>
      </trkpt>
      <trkpt lat="45.68211" lon="3.06908">
        <ele>722</ele>
        <time>2019-06-23T09:23:19.000Z</time>
      </trkpt>
      <trkpt lat="45.68212" lon="3.06909">
        <ele>722</ele>
        <time>2019-06-23T09:23:20.000Z</time>
      </trkpt>
      <trkpt lat="45.68213" lon="3.0691">
        <ele>722</ele>
        <time>2019-06-23T09:23:21.000Z</time>
      </trkpt>
      <trkpt lat="45.68214" lon="3.0691">
        <ele>722</ele>
        <time>2019-06-23T09:23:22.000Z</time>
      </trkpt>
      <trkpt lat="45.68216" lon="3.06912">
        <ele>722</ele>
        <time>2019-06-23T09:23:23.000Z</time>
      </trkpt>
      <trkpt lat="45.68217" lon="3.06913">
        <ele>722</ele>
        <time>2019-06-23T09:23:24.000Z</time>
      </trkpt>
      <trkpt lat="45.68218" lon="3.06914">
        <ele>722</ele>
        <time>2019-06-23T09:23:25.000Z</time>
      </trkpt>
      <trkpt lat="45.6822" lon="3.06915">
        <ele>722</ele>
        <time>2019-06-23T09:23:26.000Z</time>
      </trkpt>
      <trkpt lat="45.68221" lon="3.06916">
        <ele>722</ele>
        <time>2019-06-23T09:23:27.000Z</time>
      </trkpt>
      <trkpt lat="45.68222" lon="3.06916">
        <ele>723</ele>
        <time>2019-06-23T09:23:28.000Z</time>
      </trkpt>
      <trkpt lat="45.68224" lon="3.06917">
        <ele>724</ele>
        <time>2019-06-23T09:23:29.000Z</time>
      </trkpt>
      <trkpt lat="45.68226" lon="3.06918">
        <ele>725</ele>
        <time>2019-06-23T09:23:30.000Z</time>
      </trkpt>
      <trkpt lat="45.68227" lon="3.06918">
        <ele>725</ele>
        <time>2019-06-23T09:23:31.000Z</time>
      </trkpt>
      <trkpt lat="45.68228" lon="3.06919">
        <ele>725</ele>
        <time>2019-06-23T09:23:32.000Z</time>
      </trkpt>
      <trkpt lat="45.6823" lon="3.0692">
        <ele>726</ele>
        <time>2019-06-23T09:23:33.000Z</time>
      </trkpt>
      <trkpt lat="45.68231" lon="3.06921">
        <ele>727</ele>
        <time>2019-06-23T09:23:34.000Z</time>
      </trkpt>
      <trkpt lat="45.68233" lon="3.06922">
        <ele>726</ele>
        <time>2019-06-23T09:23:35.000Z</time>
      </trkpt>
      <trkpt lat="45.68234" lon="3.06922">
        <ele>726</ele>
        <time>2019-06-23T09:23:36.000Z</time>
      </trkpt>
      <trkpt lat="45.68236" lon="3.06922">
        <ele>725</ele>
        <time>2019-06-23T09:23:37.000Z</time>
      </trkpt>
      <trkpt lat="45.68237" lon="3.06922">
        <ele>726</ele>
        <time>2019-06-23T09:23:38.000Z</time>
      </trkpt>
      <trkpt lat="45.68238" lon="3.06923">
        <ele>726</ele>
        <time>2019-06-23T09:23:39.000Z</time>
      </trkpt>
      <trkpt lat="45.6824" lon="3.06924">
        <ele>726</ele>
        <time>2019-06-23T09:23:40.000Z</time>
      </trkpt>
      <trkpt lat="45.68241" lon="3.06924">
        <ele>726</ele>
        <time>2019-06-23T09:23:41.000Z</time>
      </trkpt>
      <trkpt lat="45.68242" lon="3.06925">
        <ele>726</ele>
        <time>2019-06-23T09:23:42.000Z</time>
      </trkpt>
      <trkpt lat="45.68243" lon="3.06926">
        <ele>726</ele>
        <time>2019-06-23T09:23:43.000Z</time>
      </trkpt>
      <trkpt lat="45.68245" lon="3.06926">
        <ele>727</ele>
        <time>2019-06-23T09:23:44.000Z</time>
      </trkpt>
      <trkpt lat="45.68246" lon="3.06926">
        <ele>726</ele>
        <time>2019-06-23T09:23:45.000Z</time>
      </trkpt>
      <trkpt lat="45.68247" lon="3.06927">
        <ele>726</ele>
        <time>2019-06-23T09:23:46.000Z</time>
      </trkpt>
      <trkpt lat="45.68249" lon="3.06928">
        <ele>726</ele>
        <time>2019-06-23T09:23:47.000Z</time>
      </trkpt>
      <trkpt lat="45.6825" lon="3.06929">
        <ele>727</ele>
        <time>2019-06-23T09:23:48.000Z</time>
      </trkpt>
      <trkpt lat="45.68251" lon="3.0693">
        <ele>727</ele>
        <time>2019-06-23T09:23:49.000Z</time>
      </trkpt>
      <trkpt lat="45.68253" lon="3.06931">
        <ele>727</ele>
        <time>2019-06-23T09:23:50.000Z</time>
      </trkpt>
      <trkpt lat="45.68254" lon="3.06931">
        <ele>728</ele>
        <time>2019-06-23T09:23:51.000Z</time>
      </trkpt>
      <trkpt lat="45.68255" lon="3.06932">
        <ele>728</ele>
        <time>2019-06-23T09:23:52.000Z</time>
      </trkpt>
      <trkpt lat="45.68257" lon="3.06933">
        <ele>729</ele>
        <time>2019-06-23T09:23:53.000Z</time>
      </trkpt>
      <trkpt lat="45.68258" lon="3.06934">
        <ele>729</ele>
        <time>2019-06-23T09:23:54.000Z</time>
      </trkpt>
      <trkpt lat="45.68259" lon="3.06934">
        <ele>729</ele>
        <time>2019-06-23T09:23:55.000Z</time>
      </trkpt>
      <trkpt lat="45.68261" lon="3.06935">
        <ele>730</ele>
        <time>2019-06-23T09:23:56.000Z</time>
      </trkpt>
      <trkpt lat="45.68262" lon="3.06936">
        <ele>730</ele>
        <time>2019-06-23T09:23:57.000Z</time>
      </trkpt>
      <trkpt lat="45.68263" lon="3.06937">
        <ele>730</ele>
        <time>2019-06-23T09:23:58.000Z</time>
      </trkpt>
      <trkpt lat="45.68264" lon="3.06939">
        <ele>730</ele>
        <time>2019-06-23T09:23:59.000Z</time>
      </trkpt>
      <trkpt lat="45.68266" lon="3.0694">
        <ele>731</ele>
        <time>2019-06-23T09:24:00.000Z</time>
      </trkpt>
      <trkpt lat="45.68267" lon="3.06941">
        <ele>731</ele>
        <time>2019-06-23T09:24:01.000Z</time>
      </trkpt>
      <trkpt lat="45.68268" lon="3.06942">
        <ele>731</ele>
        <time>2019-06-23T09:24:02.000Z</time>
      </trkpt>
      <trkpt lat="45.68269" lon="3.06943">
        <ele>731</ele>
        <time>2019-06-23T09:24:03.000Z</time>
      </trkpt>
      <trkpt lat="45.6827" lon="3.06944">
        <ele>732</ele>
        <time>2019-06-23T09:24:04.000Z</time>
      </trkpt>
      <trkpt lat="45.68271" lon="3.06945">
        <ele>732</ele>
        <time>2019-06-23T09:24:05.000Z</time>
      </trkpt>
      <trkpt lat="45.68272" lon="3.06946">
        <ele>732</ele>
        <time>2019-06-23T09:24:06.000Z</time>
      </trkpt>
      <trkpt lat="45.68274" lon="3.06946">
        <ele>732</ele>
        <time>2019-06-23T09:24:07.000Z</time>
      </trkpt>
      <trkpt lat="45.68274" lon="3.06946">
        <ele>731</ele>
        <time>2019-06-23T09:24:08.000Z</time>
      </trkpt>
      <trkpt lat="45.68275" lon="3.06946">
        <ele>732</ele>
        <time>2019-06-23T09:24:09.000Z</time>
      </trkpt>
      <trkpt lat="45.68276" lon="3.06947">
        <ele>732</ele>
        <time>2019-06-23T09:24:10.000Z</time>
      </trkpt>
      <trkpt lat="45.68278" lon="3.06947">
        <ele>732</ele>
        <time>2019-06-23T09:24:11.000Z</time>
      </trkpt>
      <trkpt lat="45.68279" lon="3.06948">
        <ele>733</ele>
        <time>2019-06-23T09:24:12.000Z</time>
      </trkpt>
      <trkpt lat="45.6828" lon="3.06949">
        <ele>733</ele>
        <time>2019-06-23T09:24:13.000Z</time>
      </trkpt>
      <trkpt lat="45.68282" lon="3.06949">
        <ele>733</ele>
        <time>2019-06-23T09:24:14.000Z</time>
      </trkpt>
      <trkpt lat="45.68283" lon="3.0695">
        <ele>733</ele>
        <time>2019-06-23T09:24:15.000Z</time>
      </trkpt>
      <trkpt lat="45.68285" lon="3.06951">
        <ele>732</ele>
        <time>2019-06-23T09:24:16.000Z</time>
      </trkpt>
      <trkpt lat="45.68286" lon="3.06952">
        <ele>733</ele>
        <time>2019-06-23T09:24:17.000Z</time>
      </trkpt>
      <trkpt lat="45.68287" lon="3.06953">
        <ele>733</ele>
        <time>2019-06-23T09:24:18.000Z</time>
      </trkpt>
      <trkpt lat="45.68289" lon="3.06953">
        <ele>733</ele>
        <time>2019-06-23T09:24:19.000Z</time>
      </trkpt>
      <trkpt lat="45.6829" lon="3.06953">
        <ele>733</ele>
        <time>2019-06-23T09:24:20.000Z</time>
      </trkpt>
      <trkpt lat="45.68291" lon="3.06954">
        <ele>734</ele>
        <time>2019-06-23T09:24:21.000Z</time>
      </trkpt>
      <trkpt lat="45.68293" lon="3.06955">
        <ele>734</ele>
        <time>2019-06-23T09:24:22.000Z</time>
      </trkpt>
      <trkpt lat="45.68294" lon="3.06956">
        <ele>735</ele>
        <time>2019-06-23T09:24:23.000Z</time>
      </trkpt>
      <trkpt lat="45.68295" lon="3.06957">
        <ele>735</ele>
        <time>2019-06-23T09:24:24.000Z</time>
      </trkpt>
      <trkpt lat="45.68296" lon="3.06958">
        <ele>735</ele>
        <time>2019-06-23T09:24:25.000Z</time>
      </trkpt>
      <trkpt lat="45.68297" lon="3.06958">
        <ele>736</ele>
        <time>2019-06-23T09:24:26.000Z</time>
      </trkpt>
      <trkpt lat="45.68299" lon="3.06959">
        <ele>737</ele>
        <time>2019-06-23T09:24:27.000Z</time>
      </trkpt>
      <trkpt lat="45.683" lon="3.06959">
        <ele>737</ele>
        <time>2019-06-23T09:24:28.000Z</time>
      </trkpt>
      <trkpt lat="45.68301" lon="3.0696">
        <ele>738</ele>
        <time>2019-06-23T09:24:29.000Z</time>
      </trkpt>
      <trkpt lat="45.68303" lon="3.06961">
        <ele>738</ele>
        <time>2019-06-23T09:24:30.000Z</time>
      </trkpt>
      <trkpt lat="45.68305" lon="3.06962">
        <ele>738</ele>
        <time>2019-06-23T09:24:31.000Z</time>
      </trkpt>
      <trkpt lat="45.68306" lon="3.06963">
        <ele>740</ele>
        <time>2019-06-23T09:24:32.000Z</time>
      </trkpt>
      <trkpt lat="45.68308" lon="3.06964">
        <ele>740</ele>
        <time>2019-06-23T09:24:33.000Z</time>
      </trkpt>
      <trkpt lat="45.68309" lon="3.06965">
        <ele>741</ele>
        <time>2019-06-23T09:24:34.000Z</time>
      </trkpt>
      <trkpt lat="45.68311" lon="3.06966">
        <ele>741</ele>
        <time>2019-06-23T09:24:35.000Z</time>
      </trkpt>
      <trkpt lat="45.68312" lon="3.06967">
        <ele>741</ele>
        <time>2019-06-23T09:24:36.000Z</time>
      </trkpt>
      <trkpt lat="45.68314" lon="3.06968">
        <ele>741</ele>
        <time>2019-06-23T09:24:37.000Z</time>
      </trkpt>
      <trkpt lat="45.68315" lon="3.06969">
        <ele>741</ele>
        <time>2019-06-23T09:24:38.000Z</time>
      </trkpt>
      <trkpt lat="45.68317" lon="3.0697">
        <ele>742</ele>
        <time>2019-06-23T09:24:39.000Z</time>
      </trkpt>
      <trkpt lat="45.68318" lon="3.06971">
        <ele>742</ele>
        <time>2019-06-23T09:24:40.000Z</time>
      </trkpt>
      <trkpt lat="45.6832" lon="3.06972">
        <ele>743</ele>
        <time>2019-06-23T09:24:41.000Z</time>
      </trkpt>
      <trkpt lat="45.68321" lon="3.06973">
        <ele>743</ele>
        <time>2019-06-23T09:24:42.000Z</time>
      </trkpt>
      <trkpt lat="45.68322" lon="3.06974">
        <ele>744</ele>
        <time>2019-06-23T09:24:43.000Z</time>
      </trkpt>
      <trkpt lat="45.68324" lon="3.06976">
        <ele>745</ele>
        <time>2019-06-23T09:24:44.000Z</time>
      </trkpt>
      <trkpt lat="45.68325" lon="3.06977">
        <ele>745</ele>
        <time>2019-06-23T09:24:45.000Z</time>
      </trkpt>
      <trkpt lat="45.68327" lon="3.06978">
        <ele>746</ele>
        <time>2019-06-23T09:24:46.000Z</time>
      </trkpt>
      <trkpt lat="45.68328" lon="3.0698">
        <ele>746</ele>
        <time>2019-06-23T09:24:47.000Z</time>
      </trkpt>
      <trkpt lat="45.68329" lon="3.06982">
        <ele>746</ele>
        <time>2019-06-23T09:24:48.000Z</time>
      </trkpt>
      <trkpt lat="45.6833" lon="3.06983">
        <ele>746</ele>
        <time>2019-06-23T09:24:49.000Z</time>
      </trkpt>
      <trkpt lat="45.68331" lon="3.06985">
        <ele>745</ele>
        <time>2019-06-23T09:24:50.000Z</time>
      </trkpt>
      <trkpt lat="45.68332" lon="3.06987">
        <ele>745</ele>
        <time>2019-06-23T09:24:51.000Z</time>
      </trkpt>
      <trkpt lat="45.68333" lon="3.06989">
        <ele>746</ele>
        <time>2019-06-23T09:24:52.000Z</time>
      </trkpt>
      <trkpt lat="45.68334" lon="3.06991">
        <ele>747</ele>
        <time>2019-06-23T09:24:53.000Z</time>
      </trkpt>
      <trkpt lat="45.68335" lon="3.06993">
        <ele>745</ele>
        <time>2019-06-23T09:24:54.000Z</time>
      </trkpt>
      <trkpt lat="45.68337" lon="3.06994">
        <ele>746</ele>
        <time>2019-06-23T09:24:55.000Z</time>
      </trkpt>
      <trkpt lat="45.68338" lon="3.06995">
        <ele>744</ele>
        <time>2019-06-23T09:24:56.000Z</time>
      </trkpt>
      <trkpt lat="45.6834" lon="3.06995">
        <ele>743</ele>
        <time>2019-06-23T09:24:57.000Z</time>
      </trkpt>
      <trkpt lat="45.68342" lon="3.06996">
        <ele>743</ele>
        <time>2019-06-23T09:24:58.000Z</time>
      </trkpt>
      <trkpt lat="45.68344" lon="3.06997">
        <ele>742</ele>
        <time>2019-06-23T09:24:59.000Z</time>
      </trkpt>
      <trkpt lat="45.68346" lon="3.06998">
        <ele>742</ele>
        <time>2019-06-23T09:25:00.000Z</time>
      </trkpt>
      <trkpt lat="45.68348" lon="3.07">
        <ele>742</ele>
        <time>2019-06-23T09:25:01.000Z</time>
      </trkpt>
      <trkpt lat="45.6835" lon="3.07001">
        <ele>742</ele>
        <time>2019-06-23T09:25:02.000Z</time>
      </trkpt>
      <trkpt lat="45.68353" lon="3.07003">
        <ele>743</ele>
        <time>2019-06-23T09:25:03.000Z</time>
      </trkpt>
      <trkpt lat="45.68355" lon="3.07005">
        <ele>743</ele>
        <time>2019-06-23T09:25:04.000Z</time>
      </trkpt>
      <trkpt lat="45.68357" lon="3.07006">
        <ele>743</ele>
        <time>2019-06-23T09:25:05.000Z</time>
      </trkpt>
      <trkpt lat="45.68359" lon="3.07007">
        <ele>743</ele>
        <time>2019-06-23T09:25:06.000Z</time>
      </trkpt>
      <trkpt lat="45.68361" lon="3.07009">
        <ele>744</ele>
        <time>2019-06-23T09:25:07.000Z</time>
      </trkpt>
      <trkpt lat="45.68362" lon="3.07011">
        <ele>744</ele>
        <time>2019-06-23T09:25:08.000Z</time>
      </trkpt>
      <trkpt lat="45.68362" lon="3.07013">
        <ele>744</ele>
        <time>2019-06-23T09:25:09.000Z</time>
      </trkpt>
      <trkpt lat="45.68361" lon="3.07015">
        <ele>744</ele>
        <time>2019-06-23T09:25:10.000Z</time>
      </trkpt>
      <trkpt lat="45.68361" lon="3.07015">
        <ele>744</ele>
        <time>2019-06-23T09:25:11.000Z</time>
      </trkpt>
      <trkpt lat="45.68361" lon="3.07015">
        <ele>743</ele>
        <time>2019-06-23T09:25:12.000Z</time>
      </trkpt>
      <trkpt lat="45.68362" lon="3.07013">
        <ele>758</ele>
        <time>2019-06-23T09:25:13.000Z</time>
      </trkpt>
      <trkpt lat="45.68363" lon="3.07011">
        <ele>757</ele>
        <time>2019-06-23T09:25:14.000Z</time>
      </trkpt>
      <trkpt lat="45.68363" lon="3.0701">
        <ele>757</ele>
        <time>2019-06-23T09:25:15.000Z</time>
      </trkpt>
      <trkpt lat="45.68364" lon="3.07008">
        <ele>757</ele>
        <time>2019-06-23T09:25:16.000Z</time>
      </trkpt>
      <trkpt lat="45.68365" lon="3.07006">
        <ele>757</ele>
        <time>2019-06-23T09:25:17.000Z</time>
      </trkpt>
      <trkpt lat="45.68367" lon="3.07004">
        <ele>757</ele>
        <time>2019-06-23T09:25:18.000Z</time>
      </trkpt>
      <trkpt lat="45.68369" lon="3.07003">
        <ele>757</ele>
        <time>2019-06-23T09:25:19.000Z</time>
      </trkpt>
      <trkpt lat="45.68372" lon="3.07002">
        <ele>756</ele>
        <time>2019-06-23T09:25:20.000Z</time>
      </trkpt>
      <trkpt lat="45.68374" lon="3.07002">
        <ele>756</ele>
        <time>2019-06-23T09:25:21.000Z</time>
      </trkpt>
      <trkpt lat="45.68377" lon="3.07001">
        <ele>756</ele>
        <time>2019-06-23T09:25:22.000Z</time>
      </trkpt>
      <trkpt lat="45.68379" lon="3.07001">
        <ele>755</ele>
        <time>2019-06-23T09:25:23.000Z</time>
      </trkpt>
      <trkpt lat="45.68382" lon="3.07001">
        <ele>755</ele>
        <time>2019-06-23T09:25:24.000Z</time>
      </trkpt>
      <trkpt lat="45.68384" lon="3.07002">
        <ele>755</ele>
        <time>2019-06-23T09:25:25.000Z</time>
      </trkpt>
      <trkpt lat="45.68386" lon="3.07003">
        <ele>755</ele>
        <time>2019-06-23T09:25:26.000Z</time>
      </trkpt>
      <trkpt lat="45.68387" lon="3.07006">
        <ele>754</ele>
        <time>2019-06-23T09:25:27.000Z</time>
      </trkpt>
      <trkpt lat="45.68388" lon="3.07009">
        <ele>754</ele>
        <time>2019-06-23T09:25:28.000Z</time>
      </trkpt>
      <trkpt lat="45.6839" lon="3.07013">
        <ele>754</ele>
        <time>2019-06-23T09:25:29.000Z</time>
      </trkpt>
      <trkpt lat="45.6839" lon="3.07016">
        <ele>754</ele>
        <time>2019-06-23T09:25:30.000Z</time>
      </trkpt>
      <trkpt lat="45.68391" lon="3.0702">
        <ele>754</ele>
        <time>2019-06-23T09:25:31.000Z</time>
      </trkpt>
      <trkpt lat="45.68391" lon="3.07023">
        <ele>754</ele>
        <time>2019-06-23T09:25:32.000Z</time>
      </trkpt>
      <trkpt lat="45.68391" lon="3.07027">
        <ele>751</ele>
        <time>2019-06-23T09:25:33.000Z</time>
      </trkpt>
      <trkpt lat="45.68391" lon="3.0703">
        <ele>749</ele>
        <time>2019-06-23T09:25:34.000Z</time>
      </trkpt>
      <trkpt lat="45.68391" lon="3.07035">
        <ele>748</ele>
        <time>2019-06-23T09:25:35.000Z</time>
      </trkpt>
      <trkpt lat="45.68392" lon="3.07039">
        <ele>747</ele>
        <time>2019-06-23T09:25:36.000Z</time>
      </trkpt>
      <trkpt lat="45.68392" lon="3.07043">
        <ele>747</ele>
        <time>2019-06-23T09:25:37.000Z</time>
      </trkpt>
      <trkpt lat="45.68391" lon="3.07047">
        <ele>746</ele>
        <time>2019-06-23T09:25:38.000Z</time>
      </trkpt>
      <trkpt lat="45.68391" lon="3.07051">
        <ele>746</ele>
        <time>2019-06-23T09:25:39.000Z</time>
      </trkpt>
      <trkpt lat="45.68391" lon="3.07056">
        <ele>746</ele>
        <time>2019-06-23T09:25:40.000Z</time>
      </trkpt>
      <trkpt lat="45.68392" lon="3.07063">
        <ele>746</ele>
        <time>2019-06-23T09:25:41.000Z</time>
      </trkpt>
      <trkpt lat="45.68391" lon="3.07069">
        <ele>746</ele>
        <time>2019-06-23T09:25:42.000Z</time>
      </trkpt>
      <trkpt lat="45.68391" lon="3.07076">
        <ele>745</ele>
        <time>2019-06-23T09:25:43.000Z</time>
      </trkpt>
      <trkpt lat="45.68391" lon="3.07082">
        <ele>745</ele>
        <time>2019-06-23T09:25:44.000Z</time>
      </trkpt>
      <trkpt lat="45.6839" lon="3.07089">
        <ele>744</ele>
        <time>2019-06-23T09:25:45.000Z</time>
      </trkpt>
      <trkpt lat="45.6839" lon="3.07096">
        <ele>744</ele>
        <time>2019-06-23T09:25:46.000Z</time>
      </trkpt>
      <trkpt lat="45.6839" lon="3.07103">
        <ele>744</ele>
        <time>2019-06-23T09:25:47.000Z</time>
      </trkpt>
      <trkpt lat="45.6839" lon="3.0711">
        <ele>744</ele>
        <time>2019-06-23T09:25:48.000Z</time>
      </trkpt>
      <trkpt lat="45.68389" lon="3.07117">
        <ele>743</ele>
        <time>2019-06-23T09:25:49.000Z</time>
      </trkpt>
      <trkpt lat="45.68389" lon="3.07124">
        <ele>744</ele>
        <time>2019-06-23T09:25:50.000Z</time>
      </trkpt>
      <trkpt lat="45.68389" lon="3.07131">
        <ele>744</ele>
        <time>2019-06-23T09:25:51.000Z</time>
      </trkpt>
      <trkpt lat="45.68389" lon="3.07138">
        <ele>744</ele>
        <time>2019-06-23T09:25:52.000Z</time>
      </trkpt>
      <trkpt lat="45.68389" lon="3.07145">
        <ele>743</ele>
        <time>2019-06-23T09:25:53.000Z</time>
      </trkpt>
      <trkpt lat="45.68389" lon="3.07152">
        <ele>743</ele>
        <time>2019-06-23T09:25:54.000Z</time>
      </trkpt>
      <trkpt lat="45.68388" lon="3.07158">
        <ele>743</ele>
        <time>2019-06-23T09:25:55.000Z</time>
      </trkpt>
      <trkpt lat="45.68389" lon="3.07166">
        <ele>743</ele>
        <time>2019-06-23T09:25:56.000Z</time>
      </trkpt>
      <trkpt lat="45.68388" lon="3.07174">
        <ele>743</ele>
        <time>2019-06-23T09:25:57.000Z</time>
      </trkpt>
      <trkpt lat="45.68387" lon="3.07181">
        <ele>742</ele>
        <time>2019-06-23T09:25:58.000Z</time>
      </trkpt>
      <trkpt lat="45.68387" lon="3.07189">
        <ele>742</ele>
        <time>2019-06-23T09:25:59.000Z</time>
      </trkpt>
      <trkpt lat="45.68386" lon="3.07196">
        <ele>741</ele>
        <time>2019-06-23T09:26:00.000Z</time>
      </trkpt>
      <trkpt lat="45.68386" lon="3.07204">
        <ele>740</ele>
        <time>2019-06-23T09:26:01.000Z</time>
      </trkpt>
      <trkpt lat="45.68387" lon="3.07211">
        <ele>738</ele>
        <time>2019-06-23T09:26:02.000Z</time>
      </trkpt>
      <trkpt lat="45.68389" lon="3.07218">
        <ele>738</ele>
        <time>2019-06-23T09:26:03.000Z</time>
      </trkpt>
      <trkpt lat="45.68391" lon="3.07225">
        <ele>737</ele>
        <time>2019-06-23T09:26:04.000Z</time>
      </trkpt>
      <trkpt lat="45.68394" lon="3.07232">
        <ele>736</ele>
        <time>2019-06-23T09:26:05.000Z</time>
      </trkpt>
      <trkpt lat="45.68397" lon="3.0724">
        <ele>736</ele>
        <time>2019-06-23T09:26:06.000Z</time>
      </trkpt>
      <trkpt lat="45.68399" lon="3.07247">
        <ele>735</ele>
        <time>2019-06-23T09:26:07.000Z</time>
      </trkpt>
      <trkpt lat="45.68402" lon="3.07255">
        <ele>735</ele>
        <time>2019-06-23T09:26:08.000Z</time>
      </trkpt>
      <trkpt lat="45.68404" lon="3.07264">
        <ele>735</ele>
        <time>2019-06-23T09:26:09.000Z</time>
      </trkpt>
      <trkpt lat="45.68406" lon="3.07273">
        <ele>735</ele>
        <time>2019-06-23T09:26:10.000Z</time>
      </trkpt>
      <trkpt lat="45.68408" lon="3.07282">
        <ele>735</ele>
        <time>2019-06-23T09:26:11.000Z</time>
      </trkpt>
      <trkpt lat="45.68409" lon="3.07292">
        <ele>735</ele>
        <time>2019-06-23T09:26:12.000Z</time>
      </trkpt>
      <trkpt lat="45.6841" lon="3.07301">
        <ele>735</ele>
        <time>2019-06-23T09:26:13.000Z</time>
      </trkpt>
      <trkpt lat="45.68411" lon="3.0731">
        <ele>734</ele>
        <time>2019-06-23T09:26:14.000Z</time>
      </trkpt>
      <trkpt lat="45.68412" lon="3.07319">
        <ele>734</ele>
        <time>2019-06-23T09:26:15.000Z</time>
      </trkpt>
      <trkpt lat="45.68413" lon="3.07328">
        <ele>734</ele>
        <time>2019-06-23T09:26:16.000Z</time>
      </trkpt>
      <trkpt lat="45.68415" lon="3.07338">
        <ele>734</ele>
        <time>2019-06-23T09:26:17.000Z</time>
      </trkpt>
      <trkpt lat="45.68416" lon="3.07347">
        <ele>734</ele>
        <time>2019-06-23T09:26:18.000Z</time>
      </trkpt>
      <trkpt lat="45.68417" lon="3.07357">
        <ele>734</ele>
        <time>2019-06-23T09:26:19.000Z</time>
      </trkpt>
      <trkpt lat="45.68417" lon="3.07366">
        <ele>734</ele>
        <time>2019-06-23T09:26:20.000Z</time>
      </trkpt>
      <trkpt lat="45.68416" lon="3.07374">
        <ele>733</ele>
        <time>2019-06-23T09:26:21.000Z</time>
      </trkpt>
      <trkpt lat="45.68415" lon="3.07385">
        <ele>731</ele>
        <time>2019-06-23T09:26:22.000Z</time>
      </trkpt>
      <trkpt lat="45.68414" lon="3.07395">
        <ele>730</ele>
        <time>2019-06-23T09:26:23.000Z</time>
      </trkpt>
      <trkpt lat="45.68413" lon="3.07405">
        <ele>730</ele>
        <time>2019-06-23T09:26:24.000Z</time>
      </trkpt>
      <trkpt lat="45.68412" lon="3.07414">
        <ele>730</ele>
        <time>2019-06-23T09:26:25.000Z</time>
      </trkpt>
      <trkpt lat="45.68411" lon="3.07424">
        <ele>729</ele>
        <time>2019-06-23T09:26:26.000Z</time>
      </trkpt>
      <trkpt lat="45.6841" lon="3.07435">
        <ele>730</ele>
        <time>2019-06-23T09:26:27.000Z</time>
      </trkpt>
      <trkpt lat="45.68409" lon="3.07446">
        <ele>730</ele>
        <time>2019-06-23T09:26:28.000Z</time>
      </trkpt>
      <trkpt lat="45.68408" lon="3.07457">
        <ele>731</ele>
        <time>2019-06-23T09:26:29.000Z</time>
      </trkpt>
      <trkpt lat="45.68407" lon="3.07468">
        <ele>732</ele>
        <time>2019-06-23T09:26:30.000Z</time>
      </trkpt>
      <trkpt lat="45.68406" lon="3.07479">
        <ele>732</ele>
        <time>2019-06-23T09:26:31.000Z</time>
      </trkpt>
      <trkpt lat="45.68405" lon="3.07489">
        <ele>732</ele>
        <time>2019-06-23T09:26:32.000Z</time>
      </trkpt>
      <trkpt lat="45.68403" lon="3.075">
        <ele>731</ele>
        <time>2019-06-23T09:26:33.000Z</time>
      </trkpt>
      <trkpt lat="45.68401" lon="3.07511">
        <ele>730</ele>
        <time>2019-06-23T09:26:34.000Z</time>
      </trkpt>
      <trkpt lat="45.68399" lon="3.07522">
        <ele>730</ele>
        <time>2019-06-23T09:26:35.000Z</time>
      </trkpt>
      <trkpt lat="45.68397" lon="3.07533">
        <ele>729</ele>
        <time>2019-06-23T09:26:36.000Z</time>
      </trkpt>
      <trkpt lat="45.68395" lon="3.07544">
        <ele>729</ele>
        <time>2019-06-23T09:26:37.000Z</time>
      </trkpt>
      <trkpt lat="45.68393" lon="3.07556">
        <ele>729</ele>
        <time>2019-06-23T09:26:38.000Z</time>
      </trkpt>
      <trkpt lat="45.68392" lon="3.07567">
        <ele>729</ele>
        <time>2019-06-23T09:26:39.000Z</time>
      </trkpt>
      <trkpt lat="45.6839" lon="3.07578">
        <ele>728</ele>
        <time>2019-06-23T09:26:40.000Z</time>
      </trkpt>
      <trkpt lat="45.68388" lon="3.07588">
        <ele>728</ele>
        <time>2019-06-23T09:26:41.000Z</time>
      </trkpt>
      <trkpt lat="45.68386" lon="3.07599">
        <ele>728</ele>
        <time>2019-06-23T09:26:42.000Z</time>
      </trkpt>
      <trkpt lat="45.68385" lon="3.07609">
        <ele>728</ele>
        <time>2019-06-23T09:26:43.000Z</time>
      </trkpt>
      <trkpt lat="45.68384" lon="3.0762">
        <ele>728</ele>
        <time>2019-06-23T09:26:44.000Z</time>
      </trkpt>
      <trkpt lat="45.68383" lon="3.07631">
        <ele>727</ele>
        <time>2019-06-23T09:26:45.000Z</time>
      </trkpt>
      <trkpt lat="45.68382" lon="3.07641">
        <ele>727</ele>
        <time>2019-06-23T09:26:46.000Z</time>
      </trkpt>
      <trkpt lat="45.68381" lon="3.07651">
        <ele>727</ele>
        <time>2019-06-23T09:26:47.000Z</time>
      </trkpt>
      <trkpt lat="45.68379" lon="3.0766">
        <ele>727</ele>
        <time>2019-06-23T09:26:48.000Z</time>
      </trkpt>
      <trkpt lat="45.68377" lon="3.0767">
        <ele>726</ele>
        <time>2019-06-23T09:26:49.000Z</time>
      </trkpt>
      <trkpt lat="45.68375" lon="3.0768">
        <ele>726</ele>
        <time>2019-06-23T09:26:50.000Z</time>
      </trkpt>
      <trkpt lat="45.68374" lon="3.07689">
        <ele>725</ele>
        <time>2019-06-23T09:26:51.000Z</time>
      </trkpt>
      <trkpt lat="45.68372" lon="3.07699">
        <ele>725</ele>
        <time>2019-06-23T09:26:52.000Z</time>
      </trkpt>
      <trkpt lat="45.68371" lon="3.07708">
        <ele>724</ele>
        <time>2019-06-23T09:26:53.000Z</time>
      </trkpt>
      <trkpt lat="45.6837" lon="3.07718">
        <ele>724</ele>
        <time>2019-06-23T09:26:54.000Z</time>
      </trkpt>
      <trkpt lat="45.68368" lon="3.07729">
        <ele>724</ele>
        <time>2019-06-23T09:26:55.000Z</time>
      </trkpt>
      <trkpt lat="45.68367" lon="3.07739">
        <ele>724</ele>
        <time>2019-06-23T09:26:56.000Z</time>
      </trkpt>
      <trkpt lat="45.68366" lon="3.07749">
        <ele>724</ele>
        <time>2019-06-23T09:26:57.000Z</time>
      </trkpt>
      <trkpt lat="45.68365" lon="3.07759">
        <ele>723</ele>
        <time>2019-06-23T09:26:58.000Z</time>
      </trkpt>
      <trkpt lat="45.68365" lon="3.07769">
        <ele>723</ele>
        <time>2019-06-23T09:26:59.000Z</time>
      </trkpt>
      <trkpt lat="45.68364" lon="3.07778">
        <ele>724</ele>
        <time>2019-06-23T09:27:00.000Z</time>
      </trkpt>
      <trkpt lat="45.68363" lon="3.07787">
        <ele>723</ele>
        <time>2019-06-23T09:27:01.000Z</time>
      </trkpt>
      <trkpt lat="45.68362" lon="3.07795">
        <ele>723</ele>
        <time>2019-06-23T09:27:02.000Z</time>
      </trkpt>
      <trkpt lat="45.6836" lon="3.07803">
        <ele>723</ele>
        <time>2019-06-23T09:27:03.000Z</time>
      </trkpt>
      <trkpt lat="45.68359" lon="3.0781">
        <ele>723</ele>
        <time>2019-06-23T09:27:04.000Z</time>
      </trkpt>
      <trkpt lat="45.68358" lon="3.07818">
        <ele>723</ele>
        <time>2019-06-23T09:27:05.000Z</time>
      </trkpt>
      <trkpt lat="45.68356" lon="3.07826">
        <ele>723</ele>
        <time>2019-06-23T09:27:06.000Z</time>
      </trkpt>
      <trkpt lat="45.68355" lon="3.07834">
        <ele>722</ele>
        <time>2019-06-23T09:27:07.000Z</time>
      </trkpt>
      <trkpt lat="45.68354" lon="3.07842">
        <ele>722</ele>
        <time>2019-06-23T09:27:08.000Z</time>
      </trkpt>
      <trkpt lat="45.68353" lon="3.0785">
        <ele>722</ele>
        <time>2019-06-23T09:27:09.000Z</time>
      </trkpt>
      <trkpt lat="45.68351" lon="3.07858">
        <ele>722</ele>
        <time>2019-06-23T09:27:10.000Z</time>
      </trkpt>
      <trkpt lat="45.68349" lon="3.07865">
        <ele>722</ele>
        <time>2019-06-23T09:27:11.000Z</time>
      </trkpt>
      <trkpt lat="45.68348" lon="3.07872">
        <ele>722</ele>
        <time>2019-06-23T09:27:12.000Z</time>
      </trkpt>
      <trkpt lat="45.68347" lon="3.07879">
        <ele>722</ele>
        <time>2019-06-23T09:27:13.000Z</time>
      </trkpt>
      <trkpt lat="45.68346" lon="3.07886">
        <ele>723</ele>
        <time>2019-06-23T09:27:14.000Z</time>
      </trkpt>
      <trkpt lat="45.68346" lon="3.07893">
        <ele>723</ele>
        <time>2019-06-23T09:27:15.000Z</time>
      </trkpt>
      <trkpt lat="45.68345" lon="3.079">
        <ele>724</ele>
        <time>2019-06-23T09:27:16.000Z</time>
      </trkpt>
      <trkpt lat="45.68344" lon="3.07905">
        <ele>726</ele>
        <time>2019-06-23T09:27:17.000Z</time>
      </trkpt>
      <trkpt lat="45.68344" lon="3.07911">
        <ele>728</ele>
        <time>2019-06-23T09:27:18.000Z</time>
      </trkpt>
      <trkpt lat="45.68343" lon="3.07917">
        <ele>728</ele>
        <time>2019-06-23T09:27:19.000Z</time>
      </trkpt>
      <trkpt lat="45.68343" lon="3.07923">
        <ele>729</ele>
        <time>2019-06-23T09:27:20.000Z</time>
      </trkpt>
      <trkpt lat="45.68341" lon="3.0793">
        <ele>730</ele>
        <time>2019-06-23T09:27:21.000Z</time>
      </trkpt>
      <trkpt lat="45.6834" lon="3.07937">
        <ele>731</ele>
        <time>2019-06-23T09:27:22.000Z</time>
      </trkpt>
      <trkpt lat="45.68339" lon="3.07943">
        <ele>733</ele>
        <time>2019-06-23T09:27:23.000Z</time>
      </trkpt>
      <trkpt lat="45.68339" lon="3.07951">
        <ele>732</ele>
        <time>2019-06-23T09:27:24.000Z</time>
      </trkpt>
      <trkpt lat="45.68338" lon="3.07958">
        <ele>733</ele>
        <time>2019-06-23T09:27:25.000Z</time>
      </trkpt>
      <trkpt lat="45.68339" lon="3.07965">
        <ele>733</ele>
        <time>2019-06-23T09:27:26.000Z</time>
      </trkpt>
      <trkpt lat="45.68338" lon="3.07973">
        <ele>733</ele>
        <time>2019-06-23T09:27:27.000Z</time>
      </trkpt>
      <trkpt lat="45.68337" lon="3.07981">
        <ele>732</ele>
        <time>2019-06-23T09:27:28.000Z</time>
      </trkpt>
      <trkpt lat="45.68335" lon="3.07988">
        <ele>733</ele>
        <time>2019-06-23T09:27:29.000Z</time>
      </trkpt>
      <trkpt lat="45.68334" lon="3.07996">
        <ele>732</ele>
        <time>2019-06-23T09:27:30.000Z</time>
      </trkpt>
      <trkpt lat="45.68332" lon="3.08002">
        <ele>732</ele>
        <time>2019-06-23T09:27:31.000Z</time>
      </trkpt>
      <trkpt lat="45.68331" lon="3.0801">
        <ele>731</ele>
        <time>2019-06-23T09:27:32.000Z</time>
      </trkpt>
      <trkpt lat="45.6833" lon="3.08018">
        <ele>728</ele>
        <time>2019-06-23T09:27:33.000Z</time>
      </trkpt>
      <trkpt lat="45.68329" lon="3.08025">
        <ele>726</ele>
        <time>2019-06-23T09:27:34.000Z</time>
      </trkpt>
      <trkpt lat="45.68329" lon="3.08033">
        <ele>725</ele>
        <time>2019-06-23T09:27:35.000Z</time>
      </trkpt>
      <trkpt lat="45.68328" lon="3.0804">
        <ele>725</ele>
        <time>2019-06-23T09:27:36.000Z</time>
      </trkpt>
      <trkpt lat="45.68326" lon="3.08046">
        <ele>725</ele>
        <time>2019-06-23T09:27:37.000Z</time>
      </trkpt>
      <trkpt lat="45.68325" lon="3.08053">
        <ele>725</ele>
        <time>2019-06-23T09:27:38.000Z</time>
      </trkpt>
      <trkpt lat="45.68323" lon="3.08061">
        <ele>725</ele>
        <time>2019-06-23T09:27:39.000Z</time>
      </trkpt>
      <trkpt lat="45.68319" lon="3.08067">
        <ele>722</ele>
        <time>2019-06-23T09:27:40.000Z</time>
      </trkpt>
      <trkpt lat="45.68316" lon="3.08074">
        <ele>721</ele>
        <time>2019-06-23T09:27:41.000Z</time>
      </trkpt>
      <trkpt lat="45.68313" lon="3.08082">
        <ele>722</ele>
        <time>2019-06-23T09:27:42.000Z</time>
      </trkpt>
      <trkpt lat="45.6831" lon="3.0809">
        <ele>722</ele>
        <time>2019-06-23T09:27:43.000Z</time>
      </trkpt>
      <trkpt lat="45.68308" lon="3.08097">
        <ele>723</ele>
        <time>2019-06-23T09:27:44.000Z</time>
      </trkpt>
      <trkpt lat="45.68305" lon="3.08105">
        <ele>723</ele>
        <time>2019-06-23T09:27:45.000Z</time>
      </trkpt>
      <trkpt lat="45.68303" lon="3.08112">
        <ele>723</ele>
        <time>2019-06-23T09:27:46.000Z</time>
      </trkpt>
      <trkpt lat="45.68302" lon="3.08119">
        <ele>723</ele>
        <time>2019-06-23T09:27:47.000Z</time>
      </trkpt>
      <trkpt lat="45.68301" lon="3.08126">
        <ele>723</ele>
        <time>2019-06-23T09:27:48.000Z</time>
      </trkpt>
      <trkpt lat="45.68299" lon="3.08133">
        <ele>723</ele>
        <time>2019-06-23T09:27:49.000Z</time>
      </trkpt>
      <trkpt lat="45.68297" lon="3.0814">
        <ele>723</ele>
        <time>2019-06-23T09:27:50.000Z</time>
      </trkpt>
      <trkpt lat="45.68295" lon="3.08147">
        <ele>723</ele>
        <time>2019-06-23T09:27:51.000Z</time>
      </trkpt>
      <trkpt lat="45.68292" lon="3.08155">
        <ele>721</ele>
        <time>2019-06-23T09:27:52.000Z</time>
      </trkpt>
      <trkpt lat="45.6829" lon="3.08162">
        <ele>720</ele>
        <time>2019-06-23T09:27:53.000Z</time>
      </trkpt>
      <trkpt lat="45.68287" lon="3.0817">
        <ele>720</ele>
        <time>2019-06-23T09:27:54.000Z</time>
      </trkpt>
      <trkpt lat="45.68285" lon="3.08178">
        <ele>721</ele>
        <time>2019-06-23T09:27:55.000Z</time>
      </trkpt>
      <trkpt lat="45.68283" lon="3.08186">
        <ele>720</ele>
        <time>2019-06-23T09:27:56.000Z</time>
      </trkpt>
      <trkpt lat="45.68282" lon="3.08194">
        <ele>719</ele>
        <time>2019-06-23T09:27:57.000Z</time>
      </trkpt>
      <trkpt lat="45.68282" lon="3.08202">
        <ele>720</ele>
        <time>2019-06-23T09:27:58.000Z</time>
      </trkpt>
      <trkpt lat="45.68281" lon="3.0821">
        <ele>720</ele>
        <time>2019-06-23T09:27:59.000Z</time>
      </trkpt>
      <trkpt lat="45.6828" lon="3.08218">
        <ele>719</ele>
        <time>2019-06-23T09:28:00.000Z</time>
      </trkpt>
      <trkpt lat="45.68279" lon="3.08227">
        <ele>719</ele>
        <time>2019-06-23T09:28:01.000Z</time>
      </trkpt>
      <trkpt lat="45.68278" lon="3.08235">
        <ele>719</ele>
        <time>2019-06-23T09:28:02.000Z</time>
      </trkpt>
      <trkpt lat="45.68277" lon="3.08244">
        <ele>719</ele>
        <time>2019-06-23T09:28:03.000Z</time>
      </trkpt>
      <trkpt lat="45.68276" lon="3.08252">
        <ele>719</ele>
        <time>2019-06-23T09:28:04.000Z</time>
      </trkpt>
      <trkpt lat="45.68274" lon="3.0826">
        <ele>719</ele>
        <time>2019-06-23T09:28:05.000Z</time>
      </trkpt>
      <trkpt lat="45.68272" lon="3.08268">
        <ele>719</ele>
        <time>2019-06-23T09:28:06.000Z</time>
      </trkpt>
      <trkpt lat="45.68269" lon="3.08276">
        <ele>719</ele>
        <time>2019-06-23T09:28:07.000Z</time>
      </trkpt>
      <trkpt lat="45.68266" lon="3.08284">
        <ele>719</ele>
        <time>2019-06-23T09:28:08.000Z</time>
      </trkpt>
      <trkpt lat="45.68263" lon="3.08292">
        <ele>719</ele>
        <time>2019-06-23T09:28:09.000Z</time>
      </trkpt>
      <trkpt lat="45.68259" lon="3.08299">
        <ele>718</ele>
        <time>2019-06-23T09:28:10.000Z</time>
      </trkpt>
      <trkpt lat="45.68255" lon="3.08307">
        <ele>719</ele>
        <time>2019-06-23T09:28:11.000Z</time>
      </trkpt>
      <trkpt lat="45.68252" lon="3.08315">
        <ele>719</ele>
        <time>2019-06-23T09:28:12.000Z</time>
      </trkpt>
      <trkpt lat="45.68248" lon="3.08322">
        <ele>719</ele>
        <time>2019-06-23T09:28:13.000Z</time>
      </trkpt>
      <trkpt lat="45.68245" lon="3.0833">
        <ele>718</ele>
        <time>2019-06-23T09:28:14.000Z</time>
      </trkpt>
      <trkpt lat="45.68241" lon="3.08338">
        <ele>718</ele>
        <time>2019-06-23T09:28:15.000Z</time>
      </trkpt>
      <trkpt lat="45.68238" lon="3.08345">
        <ele>718</ele>
        <time>2019-06-23T09:28:16.000Z</time>
      </trkpt>
      <trkpt lat="45.68234" lon="3.08353">
        <ele>718</ele>
        <time>2019-06-23T09:28:17.000Z</time>
      </trkpt>
      <trkpt lat="45.6823" lon="3.0836">
        <ele>717</ele>
        <time>2019-06-23T09:28:18.000Z</time>
      </trkpt>
      <trkpt lat="45.68226" lon="3.08368">
        <ele>717</ele>
        <time>2019-06-23T09:28:19.000Z</time>
      </trkpt>
      <trkpt lat="45.68223" lon="3.08376">
        <ele>717</ele>
        <time>2019-06-23T09:28:20.000Z</time>
      </trkpt>
      <trkpt lat="45.68219" lon="3.08385">
        <ele>717</ele>
        <time>2019-06-23T09:28:21.000Z</time>
      </trkpt>
      <trkpt lat="45.68216" lon="3.08394">
        <ele>717</ele>
        <time>2019-06-23T09:28:22.000Z</time>
      </trkpt>
      <trkpt lat="45.68213" lon="3.08404">
        <ele>716</ele>
        <time>2019-06-23T09:28:23.000Z</time>
      </trkpt>
      <trkpt lat="45.6821" lon="3.08413">
        <ele>716</ele>
        <time>2019-06-23T09:28:24.000Z</time>
      </trkpt>
      <trkpt lat="45.68208" lon="3.08423">
        <ele>715</ele>
        <time>2019-06-23T09:28:25.000Z</time>
      </trkpt>
      <trkpt lat="45.68207" lon="3.08433">
        <ele>715</ele>
        <time>2019-06-23T09:28:26.000Z</time>
      </trkpt>
      <trkpt lat="45.68207" lon="3.08442">
        <ele>714</ele>
        <time>2019-06-23T09:28:27.000Z</time>
      </trkpt>
      <trkpt lat="45.68206" lon="3.08452">
        <ele>714</ele>
        <time>2019-06-23T09:28:28.000Z</time>
      </trkpt>
      <trkpt lat="45.68206" lon="3.08462">
        <ele>714</ele>
        <time>2019-06-23T09:28:29.000Z</time>
      </trkpt>
      <trkpt lat="45.68204" lon="3.08471">
        <ele>714</ele>
        <time>2019-06-23T09:28:30.000Z</time>
      </trkpt>
      <trkpt lat="45.68203" lon="3.0848">
        <ele>714</ele>
        <time>2019-06-23T09:28:31.000Z</time>
      </trkpt>
      <trkpt lat="45.68202" lon="3.08489">
        <ele>713</ele>
        <time>2019-06-23T09:28:32.000Z</time>
      </trkpt>
      <trkpt lat="45.682" lon="3.08498">
        <ele>713</ele>
        <time>2019-06-23T09:28:33.000Z</time>
      </trkpt>
      <trkpt lat="45.68198" lon="3.08506">
        <ele>713</ele>
        <time>2019-06-23T09:28:34.000Z</time>
      </trkpt>
      <trkpt lat="45.68196" lon="3.08515">
        <ele>713</ele>
        <time>2019-06-23T09:28:35.000Z</time>
      </trkpt>
      <trkpt lat="45.68193" lon="3.08524">
        <ele>712</ele>
        <time>2019-06-23T09:28:36.000Z</time>
      </trkpt>
      <trkpt lat="45.6819" lon="3.08532">
        <ele>712</ele>
        <time>2019-06-23T09:28:37.000Z</time>
      </trkpt>
      <trkpt lat="45.68186" lon="3.08541">
        <ele>712</ele>
        <time>2019-06-23T09:28:38.000Z</time>
      </trkpt>
      <trkpt lat="45.68182" lon="3.0855">
        <ele>711</ele>
        <time>2019-06-23T09:28:39.000Z</time>
      </trkpt>
      <trkpt lat="45.68177" lon="3.08558">
        <ele>710</ele>
        <time>2019-06-23T09:28:40.000Z</time>
      </trkpt>
      <trkpt lat="45.68173" lon="3.08567">
        <ele>710</ele>
        <time>2019-06-23T09:28:41.000Z</time>
      </trkpt>
      <trkpt lat="45.68171" lon="3.08577">
        <ele>709</ele>
        <time>2019-06-23T09:28:42.000Z</time>
      </trkpt>
      <trkpt lat="45.68168" lon="3.08587">
        <ele>709</ele>
        <time>2019-06-23T09:28:43.000Z</time>
      </trkpt>
      <trkpt lat="45.68168" lon="3.08597">
        <ele>709</ele>
        <time>2019-06-23T09:28:44.000Z</time>
      </trkpt>
      <trkpt lat="45.68168" lon="3.08606">
        <ele>708</ele>
        <time>2019-06-23T09:28:45.000Z</time>
      </trkpt>
      <trkpt lat="45.68167" lon="3.08615">
        <ele>708</ele>
        <time>2019-06-23T09:28:46.000Z</time>
      </trkpt>
      <trkpt lat="45.68166" lon="3.08625">
        <ele>707</ele>
        <time>2019-06-23T09:28:47.000Z</time>
      </trkpt>
      <trkpt lat="45.68165" lon="3.08633">
        <ele>706</ele>
        <time>2019-06-23T09:28:48.000Z</time>
      </trkpt>
      <trkpt lat="45.68164" lon="3.08642">
        <ele>706</ele>
        <time>2019-06-23T09:28:49.000Z</time>
      </trkpt>
      <trkpt lat="45.68162" lon="3.08651">
        <ele>705</ele>
        <time>2019-06-23T09:28:50.000Z</time>
      </trkpt>
      <trkpt lat="45.6816" lon="3.0866">
        <ele>705</ele>
        <time>2019-06-23T09:28:51.000Z</time>
      </trkpt>
      <trkpt lat="45.68159" lon="3.08669">
        <ele>705</ele>
        <time>2019-06-23T09:28:52.000Z</time>
      </trkpt>
      <trkpt lat="45.68157" lon="3.08678">
        <ele>705</ele>
        <time>2019-06-23T09:28:53.000Z</time>
      </trkpt>
      <trkpt lat="45.68155" lon="3.08687">
        <ele>705</ele>
        <time>2019-06-23T09:28:54.000Z</time>
      </trkpt>
      <trkpt lat="45.68153" lon="3.08697">
        <ele>705</ele>
        <time>2019-06-23T09:28:55.000Z</time>
      </trkpt>
      <trkpt lat="45.68151" lon="3.08707">
        <ele>705</ele>
        <time>2019-06-23T09:28:56.000Z</time>
      </trkpt>
      <trkpt lat="45.68149" lon="3.08717">
        <ele>706</ele>
        <time>2019-06-23T09:28:57.000Z</time>
      </trkpt>
      <trkpt lat="45.68145" lon="3.08726">
        <ele>705</ele>
        <time>2019-06-23T09:28:58.000Z</time>
      </trkpt>
      <trkpt lat="45.68141" lon="3.08737">
        <ele>705</ele>
        <time>2019-06-23T09:28:59.000Z</time>
      </trkpt>
      <trkpt lat="45.68134" lon="3.08748">
        <ele>705</ele>
        <time>2019-06-23T09:29:00.000Z</time>
      </trkpt>
      <trkpt lat="45.68129" lon="3.08759">
        <ele>702</ele>
        <time>2019-06-23T09:29:01.000Z</time>
      </trkpt>
      <trkpt lat="45.68125" lon="3.0877">
        <ele>702</ele>
        <time>2019-06-23T09:29:02.000Z</time>
      </trkpt>
      <trkpt lat="45.6812" lon="3.08778">
        <ele>702</ele>
        <time>2019-06-23T09:29:03.000Z</time>
      </trkpt>
      <trkpt lat="45.68115" lon="3.08787">
        <ele>702</ele>
        <time>2019-06-23T09:29:04.000Z</time>
      </trkpt>
      <trkpt lat="45.6811" lon="3.08797">
        <ele>701</ele>
        <time>2019-06-23T09:29:05.000Z</time>
      </trkpt>
      <trkpt lat="45.68107" lon="3.08807">
        <ele>701</ele>
        <time>2019-06-23T09:29:06.000Z</time>
      </trkpt>
      <trkpt lat="45.68104" lon="3.08818">
        <ele>700</ele>
        <time>2019-06-23T09:29:07.000Z</time>
      </trkpt>
      <trkpt lat="45.68101" lon="3.08828">
        <ele>697</ele>
        <time>2019-06-23T09:29:08.000Z</time>
      </trkpt>
      <trkpt lat="45.68097" lon="3.08838">
        <ele>694</ele>
        <time>2019-06-23T09:29:09.000Z</time>
      </trkpt>
      <trkpt lat="45.68094" lon="3.08848">
        <ele>694</ele>
        <time>2019-06-23T09:29:10.000Z</time>
      </trkpt>
      <trkpt lat="45.68091" lon="3.08857">
        <ele>694</ele>
        <time>2019-06-23T09:29:11.000Z</time>
      </trkpt>
      <trkpt lat="45.68089" lon="3.08867">
        <ele>693</ele>
        <time>2019-06-23T09:29:12.000Z</time>
      </trkpt>
      <trkpt lat="45.68088" lon="3.08877">
        <ele>692</ele>
        <time>2019-06-23T09:29:13.000Z</time>
      </trkpt>
      <trkpt lat="45.68086" lon="3.08886">
        <ele>692</ele>
        <time>2019-06-23T09:29:14.000Z</time>
      </trkpt>
      <trkpt lat="45.68085" lon="3.08895">
        <ele>692</ele>
        <time>2019-06-23T09:29:15.000Z</time>
      </trkpt>
      <trkpt lat="45.68084" lon="3.08903">
        <ele>692</ele>
        <time>2019-06-23T09:29:16.000Z</time>
      </trkpt>
      <trkpt lat="45.68083" lon="3.08912">
        <ele>691</ele>
        <time>2019-06-23T09:29:17.000Z</time>
      </trkpt>
      <trkpt lat="45.68083" lon="3.0892">
        <ele>690</ele>
        <time>2019-06-23T09:29:18.000Z</time>
      </trkpt>
      <trkpt lat="45.68083" lon="3.08928">
        <ele>689</ele>
        <time>2019-06-23T09:29:19.000Z</time>
      </trkpt>
      <trkpt lat="45.68083" lon="3.08936">
        <ele>690</ele>
        <time>2019-06-23T09:29:20.000Z</time>
      </trkpt>
      <trkpt lat="45.68084" lon="3.08945">
        <ele>691</ele>
        <time>2019-06-23T09:29:21.000Z</time>
      </trkpt>
      <trkpt lat="45.68084" lon="3.08954">
        <ele>692</ele>
        <time>2019-06-23T09:29:22.000Z</time>
      </trkpt>
      <trkpt lat="45.68085" lon="3.08963">
        <ele>692</ele>
        <time>2019-06-23T09:29:23.000Z</time>
      </trkpt>
      <trkpt lat="45.68086" lon="3.08971">
        <ele>691</ele>
        <time>2019-06-23T09:29:24.000Z</time>
      </trkpt>
      <trkpt lat="45.68087" lon="3.0898">
        <ele>690</ele>
        <time>2019-06-23T09:29:25.000Z</time>
      </trkpt>
      <trkpt lat="45.68088" lon="3.08988">
        <ele>690</ele>
        <time>2019-06-23T09:29:26.000Z</time>
      </trkpt>
      <trkpt lat="45.6809" lon="3.08997">
        <ele>689</ele>
        <time>2019-06-23T09:29:27.000Z</time>
      </trkpt>
      <trkpt lat="45.68092" lon="3.09005">
        <ele>689</ele>
        <time>2019-06-23T09:29:28.000Z</time>
      </trkpt>
      <trkpt lat="45.68093" lon="3.09014">
        <ele>688</ele>
        <time>2019-06-23T09:29:29.000Z</time>
      </trkpt>
      <trkpt lat="45.68094" lon="3.09022">
        <ele>688</ele>
        <time>2019-06-23T09:29:30.000Z</time>
      </trkpt>
      <trkpt lat="45.68096" lon="3.09031">
        <ele>688</ele>
        <time>2019-06-23T09:29:31.000Z</time>
      </trkpt>
      <trkpt lat="45.68097" lon="3.0904">
        <ele>688</ele>
        <time>2019-06-23T09:29:32.000Z</time>
      </trkpt>
      <trkpt lat="45.68098" lon="3.09048">
        <ele>688</ele>
        <time>2019-06-23T09:29:33.000Z</time>
      </trkpt>
      <trkpt lat="45.681" lon="3.09057">
        <ele>689</ele>
        <time>2019-06-23T09:29:34.000Z</time>
      </trkpt>
      <trkpt lat="45.68101" lon="3.09065">
        <ele>690</ele>
        <time>2019-06-23T09:29:35.000Z</time>
      </trkpt>
      <trkpt lat="45.68102" lon="3.09072">
        <ele>691</ele>
        <time>2019-06-23T09:29:36.000Z</time>
      </trkpt>
      <trkpt lat="45.68103" lon="3.0908">
        <ele>692</ele>
        <time>2019-06-23T09:29:37.000Z</time>
      </trkpt>
      <trkpt lat="45.68104" lon="3.09089">
        <ele>694</ele>
        <time>2019-06-23T09:29:38.000Z</time>
      </trkpt>
      <trkpt lat="45.68104" lon="3.09097">
        <ele>694</ele>
        <time>2019-06-23T09:29:39.000Z</time>
      </trkpt>
      <trkpt lat="45.68106" lon="3.09106">
        <ele>695</ele>
        <time>2019-06-23T09:29:40.000Z</time>
      </trkpt>
      <trkpt lat="45.68107" lon="3.09113">
        <ele>696</ele>
        <time>2019-06-23T09:29:41.000Z</time>
      </trkpt>
      <trkpt lat="45.68109" lon="3.0912">
        <ele>696</ele>
        <time>2019-06-23T09:29:42.000Z</time>
      </trkpt>
      <trkpt lat="45.6811" lon="3.09127">
        <ele>696</ele>
        <time>2019-06-23T09:29:43.000Z</time>
      </trkpt>
      <trkpt lat="45.68111" lon="3.09135">
        <ele>695</ele>
        <time>2019-06-23T09:29:44.000Z</time>
      </trkpt>
      <trkpt lat="45.68113" lon="3.09143">
        <ele>694</ele>
        <time>2019-06-23T09:29:45.000Z</time>
      </trkpt>
      <trkpt lat="45.68114" lon="3.09152">
        <ele>694</ele>
        <time>2019-06-23T09:29:46.000Z</time>
      </trkpt>
      <trkpt lat="45.68115" lon="3.0916">
        <ele>694</ele>
        <time>2019-06-23T09:29:47.000Z</time>
      </trkpt>
      <trkpt lat="45.68115" lon="3.09169">
        <ele>694</ele>
        <time>2019-06-23T09:29:48.000Z</time>
      </trkpt>
      <trkpt lat="45.68116" lon="3.09177">
        <ele>694</ele>
        <time>2019-06-23T09:29:49.000Z</time>
      </trkpt>
      <trkpt lat="45.68116" lon="3.09186">
        <ele>694</ele>
        <time>2019-06-23T09:29:50.000Z</time>
      </trkpt>
      <trkpt lat="45.68117" lon="3.09194">
        <ele>694</ele>
        <time>2019-06-23T09:29:51.000Z</time>
      </trkpt>
      <trkpt lat="45.68117" lon="3.09202">
        <ele>693</ele>
        <time>2019-06-23T09:29:52.000Z</time>
      </trkpt>
      <trkpt lat="45.68118" lon="3.0921">
        <ele>693</ele>
        <time>2019-06-23T09:29:53.000Z</time>
      </trkpt>
      <trkpt lat="45.68117" lon="3.09219">
        <ele>694</ele>
        <time>2019-06-23T09:29:54.000Z</time>
      </trkpt>
      <trkpt lat="45.68116" lon="3.09227">
        <ele>694</ele>
        <time>2019-06-23T09:29:55.000Z</time>
      </trkpt>
      <trkpt lat="45.68116" lon="3.09236">
        <ele>694</ele>
        <time>2019-06-23T09:29:56.000Z</time>
      </trkpt>
      <trkpt lat="45.68115" lon="3.09244">
        <ele>694</ele>
        <time>2019-06-23T09:29:57.000Z</time>
      </trkpt>
      <trkpt lat="45.68115" lon="3.09252">
        <ele>693</ele>
        <time>2019-06-23T09:29:58.000Z</time>
      </trkpt>
      <trkpt lat="45.68114" lon="3.09261">
        <ele>693</ele>
        <time>2019-06-23T09:29:59.000Z</time>
      </trkpt>
      <trkpt lat="45.68114" lon="3.0927">
        <ele>693</ele>
        <time>2019-06-23T09:30:00.000Z</time>
      </trkpt>
      <trkpt lat="45.68113" lon="3.09278">
        <ele>693</ele>
        <time>2019-06-23T09:30:01.000Z</time>
      </trkpt>
      <trkpt lat="45.68113" lon="3.09287">
        <ele>693</ele>
        <time>2019-06-23T09:30:02.000Z</time>
      </trkpt>
      <trkpt lat="45.68112" lon="3.09296">
        <ele>693</ele>
        <time>2019-06-23T09:30:03.000Z</time>
      </trkpt>
      <trkpt lat="45.68112" lon="3.09304">
        <ele>693</ele>
        <time>2019-06-23T09:30:04.000Z</time>
      </trkpt>
      <trkpt lat="45.68111" lon="3.09313">
        <ele>692</ele>
        <time>2019-06-23T09:30:05.000Z</time>
      </trkpt>
      <trkpt lat="45.68111" lon="3.09323">
        <ele>692</ele>
        <time>2019-06-23T09:30:06.000Z</time>
      </trkpt>
      <trkpt lat="45.6811" lon="3.09332">
        <ele>692</ele>
        <time>2019-06-23T09:30:07.000Z</time>
      </trkpt>
      <trkpt lat="45.6811" lon="3.09342">
        <ele>692</ele>
        <time>2019-06-23T09:30:08.000Z</time>
      </trkpt>
      <trkpt lat="45.68109" lon="3.09351">
        <ele>692</ele>
        <time>2019-06-23T09:30:09.000Z</time>
      </trkpt>
      <trkpt lat="45.68109" lon="3.09361">
        <ele>691</ele>
        <time>2019-06-23T09:30:10.000Z</time>
      </trkpt>
      <trkpt lat="45.68109" lon="3.09371">
        <ele>691</ele>
        <time>2019-06-23T09:30:11.000Z</time>
      </trkpt>
      <trkpt lat="45.68109" lon="3.09381">
        <ele>691</ele>
        <time>2019-06-23T09:30:12.000Z</time>
      </trkpt>
      <trkpt lat="45.68109" lon="3.0939">
        <ele>691</ele>
        <time>2019-06-23T09:30:13.000Z</time>
      </trkpt>
      <trkpt lat="45.68109" lon="3.094">
        <ele>691</ele>
        <time>2019-06-23T09:30:14.000Z</time>
      </trkpt>
      <trkpt lat="45.68108" lon="3.0941">
        <ele>691</ele>
        <time>2019-06-23T09:30:15.000Z</time>
      </trkpt>
      <trkpt lat="45.68107" lon="3.0942">
        <ele>691</ele>
        <time>2019-06-23T09:30:16.000Z</time>
      </trkpt>
      <trkpt lat="45.68107" lon="3.0943">
        <ele>691</ele>
        <time>2019-06-23T09:30:17.000Z</time>
      </trkpt>
      <trkpt lat="45.68106" lon="3.0944">
        <ele>691</ele>
        <time>2019-06-23T09:30:18.000Z</time>
      </trkpt>
      <trkpt lat="45.68105" lon="3.0945">
        <ele>691</ele>
        <time>2019-06-23T09:30:19.000Z</time>
      </trkpt>
      <trkpt lat="45.68104" lon="3.0946">
        <ele>691</ele>
        <time>2019-06-23T09:30:20.000Z</time>
      </trkpt>
      <trkpt lat="45.68104" lon="3.0947">
        <ele>691</ele>
        <time>2019-06-23T09:30:21.000Z</time>
      </trkpt>
      <trkpt lat="45.68104" lon="3.0948">
        <ele>691</ele>
        <time>2019-06-23T09:30:22.000Z</time>
      </trkpt>
      <trkpt lat="45.68104" lon="3.09489">
        <ele>690</ele>
        <time>2019-06-23T09:30:23.000Z</time>
      </trkpt>
      <trkpt lat="45.68104" lon="3.09499">
        <ele>690</ele>
        <time>2019-06-23T09:30:24.000Z</time>
      </trkpt>
      <trkpt lat="45.68104" lon="3.0951">
        <ele>690</ele>
        <time>2019-06-23T09:30:25.000Z</time>
      </trkpt>
      <trkpt lat="45.68105" lon="3.0952">
        <ele>690</ele>
        <time>2019-06-23T09:30:26.000Z</time>
      </trkpt>
      <trkpt lat="45.68104" lon="3.09529">
        <ele>689</ele>
        <time>2019-06-23T09:30:27.000Z</time>
      </trkpt>
      <trkpt lat="45.68103" lon="3.09539">
        <ele>689</ele>
        <time>2019-06-23T09:30:28.000Z</time>
      </trkpt>
      <trkpt lat="45.68102" lon="3.09549">
        <ele>689</ele>
        <time>2019-06-23T09:30:29.000Z</time>
      </trkpt>
      <trkpt lat="45.68101" lon="3.09559">
        <ele>688</ele>
        <time>2019-06-23T09:30:30.000Z</time>
      </trkpt>
      <trkpt lat="45.681" lon="3.09569">
        <ele>688</ele>
        <time>2019-06-23T09:30:31.000Z</time>
      </trkpt>
      <trkpt lat="45.68098" lon="3.09579">
        <ele>687</ele>
        <time>2019-06-23T09:30:32.000Z</time>
      </trkpt>
      <trkpt lat="45.68095" lon="3.09589">
        <ele>687</ele>
        <time>2019-06-23T09:30:33.000Z</time>
      </trkpt>
      <trkpt lat="45.68093" lon="3.09599">
        <ele>686</ele>
        <time>2019-06-23T09:30:34.000Z</time>
      </trkpt>
      <trkpt lat="45.68091" lon="3.09609">
        <ele>686</ele>
        <time>2019-06-23T09:30:35.000Z</time>
      </trkpt>
      <trkpt lat="45.6809" lon="3.09619">
        <ele>686</ele>
        <time>2019-06-23T09:30:36.000Z</time>
      </trkpt>
      <trkpt lat="45.68088" lon="3.09629">
        <ele>686</ele>
        <time>2019-06-23T09:30:37.000Z</time>
      </trkpt>
      <trkpt lat="45.68086" lon="3.0964">
        <ele>685</ele>
        <time>2019-06-23T09:30:38.000Z</time>
      </trkpt>
      <trkpt lat="45.68086" lon="3.09649">
        <ele>684</ele>
        <time>2019-06-23T09:30:39.000Z</time>
      </trkpt>
      <trkpt lat="45.68085" lon="3.09659">
        <ele>684</ele>
        <time>2019-06-23T09:30:40.000Z</time>
      </trkpt>
      <trkpt lat="45.68084" lon="3.09668">
        <ele>684</ele>
        <time>2019-06-23T09:30:41.000Z</time>
      </trkpt>
      <trkpt lat="45.68082" lon="3.09678">
        <ele>684</ele>
        <time>2019-06-23T09:30:42.000Z</time>
      </trkpt>
      <trkpt lat="45.68081" lon="3.09687">
        <ele>684</ele>
        <time>2019-06-23T09:30:43.000Z</time>
      </trkpt>
      <trkpt lat="45.6808" lon="3.09696">
        <ele>684</ele>
        <time>2019-06-23T09:30:44.000Z</time>
      </trkpt>
      <trkpt lat="45.68078" lon="3.09705">
        <ele>684</ele>
        <time>2019-06-23T09:30:45.000Z</time>
      </trkpt>
      <trkpt lat="45.68077" lon="3.09714">
        <ele>682</ele>
        <time>2019-06-23T09:30:46.000Z</time>
      </trkpt>
      <trkpt lat="45.68077" lon="3.09723">
        <ele>682</ele>
        <time>2019-06-23T09:30:47.000Z</time>
      </trkpt>
      <trkpt lat="45.68075" lon="3.09732">
        <ele>682</ele>
        <time>2019-06-23T09:30:48.000Z</time>
      </trkpt>
      <trkpt lat="45.68075" lon="3.09741">
        <ele>683</ele>
        <time>2019-06-23T09:30:49.000Z</time>
      </trkpt>
      <trkpt lat="45.68074" lon="3.0975">
        <ele>684</ele>
        <time>2019-06-23T09:30:50.000Z</time>
      </trkpt>
      <trkpt lat="45.68074" lon="3.09759">
        <ele>684</ele>
        <time>2019-06-23T09:30:51.000Z</time>
      </trkpt>
      <trkpt lat="45.68074" lon="3.09768">
        <ele>684</ele>
        <time>2019-06-23T09:30:52.000Z</time>
      </trkpt>
      <trkpt lat="45.68073" lon="3.09777">
        <ele>684</ele>
        <time>2019-06-23T09:30:53.000Z</time>
      </trkpt>
      <trkpt lat="45.68073" lon="3.09787">
        <ele>684</ele>
        <time>2019-06-23T09:30:54.000Z</time>
      </trkpt>
      <trkpt lat="45.68072" lon="3.09797">
        <ele>685</ele>
        <time>2019-06-23T09:30:55.000Z</time>
      </trkpt>
      <trkpt lat="45.68072" lon="3.09806">
        <ele>686</ele>
        <time>2019-06-23T09:30:56.000Z</time>
      </trkpt>
      <trkpt lat="45.68071" lon="3.09816">
        <ele>686</ele>
        <time>2019-06-23T09:30:57.000Z</time>
      </trkpt>
      <trkpt lat="45.6807" lon="3.09825">
        <ele>685</ele>
        <time>2019-06-23T09:30:58.000Z</time>
      </trkpt>
      <trkpt lat="45.68069" lon="3.09833">
        <ele>685</ele>
        <time>2019-06-23T09:30:59.000Z</time>
      </trkpt>
      <trkpt lat="45.68069" lon="3.09842">
        <ele>685</ele>
        <time>2019-06-23T09:31:00.000Z</time>
      </trkpt>
      <trkpt lat="45.68068" lon="3.0985">
        <ele>685</ele>
        <time>2019-06-23T09:31:01.000Z</time>
      </trkpt>
      <trkpt lat="45.68068" lon="3.09859">
        <ele>685</ele>
        <time>2019-06-23T09:31:02.000Z</time>
      </trkpt>
      <trkpt lat="45.68067" lon="3.09867">
        <ele>685</ele>
        <time>2019-06-23T09:31:03.000Z</time>
      </trkpt>
      <trkpt lat="45.68066" lon="3.09876">
        <ele>685</ele>
        <time>2019-06-23T09:31:04.000Z</time>
      </trkpt>
      <trkpt lat="45.68066" lon="3.09884">
        <ele>685</ele>
        <time>2019-06-23T09:31:05.000Z</time>
      </trkpt>
      <trkpt lat="45.68066" lon="3.09894">
        <ele>687</ele>
        <time>2019-06-23T09:31:06.000Z</time>
      </trkpt>
      <trkpt lat="45.68065" lon="3.09904">
        <ele>688</ele>
        <time>2019-06-23T09:31:07.000Z</time>
      </trkpt>
      <trkpt lat="45.68064" lon="3.09912">
        <ele>688</ele>
        <time>2019-06-23T09:31:08.000Z</time>
      </trkpt>
      <trkpt lat="45.68063" lon="3.09919">
        <ele>692</ele>
        <time>2019-06-23T09:31:09.000Z</time>
      </trkpt>
      <trkpt lat="45.68062" lon="3.09927">
        <ele>693</ele>
        <time>2019-06-23T09:31:10.000Z</time>
      </trkpt>
      <trkpt lat="45.68061" lon="3.09935">
        <ele>693</ele>
        <time>2019-06-23T09:31:11.000Z</time>
      </trkpt>
      <trkpt lat="45.6806" lon="3.09942">
        <ele>693</ele>
        <time>2019-06-23T09:31:12.000Z</time>
      </trkpt>
      <trkpt lat="45.68059" lon="3.09951">
        <ele>697</ele>
        <time>2019-06-23T09:31:13.000Z</time>
      </trkpt>
      <trkpt lat="45.68059" lon="3.09962">
        <ele>695</ele>
        <time>2019-06-23T09:31:14.000Z</time>
      </trkpt>
      <trkpt lat="45.68059" lon="3.09971">
        <ele>692</ele>
        <time>2019-06-23T09:31:15.000Z</time>
      </trkpt>
      <trkpt lat="45.68059" lon="3.0998">
        <ele>690</ele>
        <time>2019-06-23T09:31:16.000Z</time>
      </trkpt>
      <trkpt lat="45.68061" lon="3.09989">
        <ele>685</ele>
        <time>2019-06-23T09:31:17.000Z</time>
      </trkpt>
      <trkpt lat="45.68062" lon="3.09997">
        <ele>686</ele>
        <time>2019-06-23T09:31:18.000Z</time>
      </trkpt>
      <trkpt lat="45.68063" lon="3.10006">
        <ele>687</ele>
        <time>2019-06-23T09:31:19.000Z</time>
      </trkpt>
      <trkpt lat="45.68064" lon="3.10015">
        <ele>687</ele>
        <time>2019-06-23T09:31:20.000Z</time>
      </trkpt>
      <trkpt lat="45.68065" lon="3.10024">
        <ele>687</ele>
        <time>2019-06-23T09:31:21.000Z</time>
      </trkpt>
      <trkpt lat="45.68066" lon="3.10033">
        <ele>688</ele>
        <time>2019-06-23T09:31:22.000Z</time>
      </trkpt>
      <trkpt lat="45.68066" lon="3.10042">
        <ele>690</ele>
        <time>2019-06-23T09:31:23.000Z</time>
      </trkpt>
      <trkpt lat="45.68067" lon="3.10051">
        <ele>691</ele>
        <time>2019-06-23T09:31:24.000Z</time>
      </trkpt>
      <trkpt lat="45.68067" lon="3.10058">
        <ele>691</ele>
        <time>2019-06-23T09:31:25.000Z</time>
      </trkpt>
      <trkpt lat="45.68068" lon="3.10066">
        <ele>690</ele>
        <time>2019-06-23T09:31:26.000Z</time>
      </trkpt>
      <trkpt lat="45.68068" lon="3.10073">
        <ele>690</ele>
        <time>2019-06-23T09:31:27.000Z</time>
      </trkpt>
      <trkpt lat="45.68068" lon="3.1008">
        <ele>690</ele>
        <time>2019-06-23T09:31:28.000Z</time>
      </trkpt>
      <trkpt lat="45.68068" lon="3.10088">
        <ele>690</ele>
        <time>2019-06-23T09:31:29.000Z</time>
      </trkpt>
      <trkpt lat="45.68069" lon="3.10096">
        <ele>690</ele>
        <time>2019-06-23T09:31:30.000Z</time>
      </trkpt>
      <trkpt lat="45.68069" lon="3.10103">
        <ele>691</ele>
        <time>2019-06-23T09:31:31.000Z</time>
      </trkpt>
      <trkpt lat="45.68069" lon="3.10109">
        <ele>691</ele>
        <time>2019-06-23T09:31:32.000Z</time>
      </trkpt>
      <trkpt lat="45.68068" lon="3.10115">
        <ele>690</ele>
        <time>2019-06-23T09:31:33.000Z</time>
      </trkpt>
      <trkpt lat="45.68068" lon="3.10121">
        <ele>690</ele>
        <time>2019-06-23T09:31:34.000Z</time>
      </trkpt>
      <trkpt lat="45.68069" lon="3.10128">
        <ele>689</ele>
        <time>2019-06-23T09:31:35.000Z</time>
      </trkpt>
      <trkpt lat="45.68068" lon="3.10134">
        <ele>690</ele>
        <time>2019-06-23T09:31:36.000Z</time>
      </trkpt>
      <trkpt lat="45.68069" lon="3.1014">
        <ele>691</ele>
        <time>2019-06-23T09:31:37.000Z</time>
      </trkpt>
      <trkpt lat="45.68069" lon="3.10145">
        <ele>690</ele>
        <time>2019-06-23T09:31:38.000Z</time>
      </trkpt>
      <trkpt lat="45.68069" lon="3.10151">
        <ele>691</ele>
        <time>2019-06-23T09:31:39.000Z</time>
      </trkpt>
      <trkpt lat="45.68069" lon="3.10156">
        <ele>693</ele>
        <time>2019-06-23T09:31:40.000Z</time>
      </trkpt>
      <trkpt lat="45.68069" lon="3.10162">
        <ele>695</ele>
        <time>2019-06-23T09:31:41.000Z</time>
      </trkpt>
      <trkpt lat="45.6807" lon="3.10167">
        <ele>696</ele>
        <time>2019-06-23T09:31:42.000Z</time>
      </trkpt>
      <trkpt lat="45.6807" lon="3.10172">
        <ele>698</ele>
        <time>2019-06-23T09:31:43.000Z</time>
      </trkpt>
      <trkpt lat="45.6807" lon="3.10178">
        <ele>699</ele>
        <time>2019-06-23T09:31:44.000Z</time>
      </trkpt>
      <trkpt lat="45.6807" lon="3.10184">
        <ele>700</ele>
        <time>2019-06-23T09:31:45.000Z</time>
      </trkpt>
      <trkpt lat="45.6807" lon="3.1019">
        <ele>702</ele>
        <time>2019-06-23T09:31:46.000Z</time>
      </trkpt>
      <trkpt lat="45.68071" lon="3.10194">
        <ele>703</ele>
        <time>2019-06-23T09:31:47.000Z</time>
      </trkpt>
      <trkpt lat="45.68071" lon="3.10198">
        <ele>703</ele>
        <time>2019-06-23T09:31:48.000Z</time>
      </trkpt>
      <trkpt lat="45.68072" lon="3.10204">
        <ele>704</ele>
        <time>2019-06-23T09:31:49.000Z</time>
      </trkpt>
      <trkpt lat="45.68074" lon="3.10212">
        <ele>708</ele>
        <time>2019-06-23T09:31:50.000Z</time>
      </trkpt>
      <trkpt lat="45.68076" lon="3.10219">
        <ele>711</ele>
        <time>2019-06-23T09:31:51.000Z</time>
      </trkpt>
      <trkpt lat="45.68077" lon="3.10224">
        <ele>711</ele>
        <time>2019-06-23T09:31:52.000Z</time>
      </trkpt>
      <trkpt lat="45.68077" lon="3.10229">
        <ele>711</ele>
        <time>2019-06-23T09:31:53.000Z</time>
      </trkpt>
      <trkpt lat="45.68079" lon="3.10234">
        <ele>710</ele>
        <time>2019-06-23T09:31:54.000Z</time>
      </trkpt>
      <trkpt lat="45.68079" lon="3.1024">
        <ele>711</ele>
        <time>2019-06-23T09:31:55.000Z</time>
      </trkpt>
      <trkpt lat="45.6808" lon="3.10245">
        <ele>712</ele>
        <time>2019-06-23T09:31:56.000Z</time>
      </trkpt>
      <trkpt lat="45.68079" lon="3.1025">
        <ele>713</ele>
        <time>2019-06-23T09:31:57.000Z</time>
      </trkpt>
      <trkpt lat="45.68081" lon="3.10258">
        <ele>718</ele>
        <time>2019-06-23T09:31:58.000Z</time>
      </trkpt>
      <trkpt lat="45.68082" lon="3.10265">
        <ele>719</ele>
        <time>2019-06-23T09:31:59.000Z</time>
      </trkpt>
      <trkpt lat="45.68083" lon="3.10272">
        <ele>722</ele>
        <time>2019-06-23T09:32:00.000Z</time>
      </trkpt>
      <trkpt lat="45.68084" lon="3.10278">
        <ele>723</ele>
        <time>2019-06-23T09:32:01.000Z</time>
      </trkpt>
      <trkpt lat="45.68085" lon="3.10284">
        <ele>721</ele>
        <time>2019-06-23T09:32:02.000Z</time>
      </trkpt>
      <trkpt lat="45.68086" lon="3.10289">
        <ele>718</ele>
        <time>2019-06-23T09:32:03.000Z</time>
      </trkpt>
      <trkpt lat="45.68087" lon="3.10294">
        <ele>713</ele>
        <time>2019-06-23T09:32:04.000Z</time>
      </trkpt>
      <trkpt lat="45.68088" lon="3.103">
        <ele>716</ele>
        <time>2019-06-23T09:32:05.000Z</time>
      </trkpt>
      <trkpt lat="45.6809" lon="3.10307">
        <ele>716</ele>
        <time>2019-06-23T09:32:06.000Z</time>
      </trkpt>
      <trkpt lat="45.68091" lon="3.10316">
        <ele>716</ele>
        <time>2019-06-23T09:32:07.000Z</time>
      </trkpt>
      <trkpt lat="45.68093" lon="3.10323">
        <ele>716</ele>
        <time>2019-06-23T09:32:08.000Z</time>
      </trkpt>
      <trkpt lat="45.68094" lon="3.10329">
        <ele>716</ele>
        <time>2019-06-23T09:32:09.000Z</time>
      </trkpt>
      <trkpt lat="45.68096" lon="3.10337">
        <ele>717</ele>
        <time>2019-06-23T09:32:10.000Z</time>
      </trkpt>
      <trkpt lat="45.68098" lon="3.10344">
        <ele>715</ele>
        <time>2019-06-23T09:32:11.000Z</time>
      </trkpt>
      <trkpt lat="45.68099" lon="3.1035">
        <ele>712</ele>
        <time>2019-06-23T09:32:12.000Z</time>
      </trkpt>
      <trkpt lat="45.68099" lon="3.10357">
        <ele>709</ele>
        <time>2019-06-23T09:32:13.000Z</time>
      </trkpt>
      <trkpt lat="45.681" lon="3.10364">
        <ele>707</ele>
        <time>2019-06-23T09:32:14.000Z</time>
      </trkpt>
      <trkpt lat="45.68101" lon="3.1037">
        <ele>706</ele>
        <time>2019-06-23T09:32:15.000Z</time>
      </trkpt>
      <trkpt lat="45.68101" lon="3.10378">
        <ele>703</ele>
        <time>2019-06-23T09:32:16.000Z</time>
      </trkpt>
      <trkpt lat="45.68102" lon="3.10385">
        <ele>702</ele>
        <time>2019-06-23T09:32:17.000Z</time>
      </trkpt>
      <trkpt lat="45.68102" lon="3.10394">
        <ele>704</ele>
        <time>2019-06-23T09:32:18.000Z</time>
      </trkpt>
      <trkpt lat="45.68105" lon="3.10402">
        <ele>704</ele>
        <time>2019-06-23T09:32:19.000Z</time>
      </trkpt>
      <trkpt lat="45.68107" lon="3.10411">
        <ele>705</ele>
        <time>2019-06-23T09:32:20.000Z</time>
      </trkpt>
      <trkpt lat="45.68108" lon="3.10419">
        <ele>703</ele>
        <time>2019-06-23T09:32:21.000Z</time>
      </trkpt>
      <trkpt lat="45.68109" lon="3.10426">
        <ele>702</ele>
        <time>2019-06-23T09:32:22.000Z</time>
      </trkpt>
      <trkpt lat="45.68111" lon="3.10435">
        <ele>703</ele>
        <time>2019-06-23T09:32:23.000Z</time>
      </trkpt>
      <trkpt lat="45.68112" lon="3.10446">
        <ele>701</ele>
        <time>2019-06-23T09:32:24.000Z</time>
      </trkpt>
      <trkpt lat="45.68114" lon="3.10455">
        <ele>702</ele>
        <time>2019-06-23T09:32:25.000Z</time>
      </trkpt>
      <trkpt lat="45.68116" lon="3.10463">
        <ele>697</ele>
        <time>2019-06-23T09:32:26.000Z</time>
      </trkpt>
      <trkpt lat="45.68118" lon="3.10471">
        <ele>697</ele>
        <time>2019-06-23T09:32:27.000Z</time>
      </trkpt>
      <trkpt lat="45.68119" lon="3.10478">
        <ele>695</ele>
        <time>2019-06-23T09:32:28.000Z</time>
      </trkpt>
      <trkpt lat="45.68121" lon="3.10485">
        <ele>693</ele>
        <time>2019-06-23T09:32:29.000Z</time>
      </trkpt>
      <trkpt lat="45.68121" lon="3.10492">
        <ele>692</ele>
        <time>2019-06-23T09:32:30.000Z</time>
      </trkpt>
      <trkpt lat="45.68122" lon="3.10499">
        <ele>692</ele>
        <time>2019-06-23T09:32:31.000Z</time>
      </trkpt>
      <trkpt lat="45.68123" lon="3.10505">
        <ele>692</ele>
        <time>2019-06-23T09:32:32.000Z</time>
      </trkpt>
      <trkpt lat="45.68124" lon="3.10512">
        <ele>693</ele>
        <time>2019-06-23T09:32:33.000Z</time>
      </trkpt>
      <trkpt lat="45.68126" lon="3.10521">
        <ele>694</ele>
        <time>2019-06-23T09:32:34.000Z</time>
      </trkpt>
      <trkpt lat="45.68128" lon="3.10529">
        <ele>695</ele>
        <time>2019-06-23T09:32:35.000Z</time>
      </trkpt>
      <trkpt lat="45.68128" lon="3.10536">
        <ele>694</ele>
        <time>2019-06-23T09:32:36.000Z</time>
      </trkpt>
      <trkpt lat="45.68128" lon="3.10542">
        <ele>694</ele>
        <time>2019-06-23T09:32:37.000Z</time>
      </trkpt>
      <trkpt lat="45.6813" lon="3.1055">
        <ele>695</ele>
        <time>2019-06-23T09:32:38.000Z</time>
      </trkpt>
      <trkpt lat="45.6813" lon="3.10559">
        <ele>695</ele>
        <time>2019-06-23T09:32:39.000Z</time>
      </trkpt>
      <trkpt lat="45.68131" lon="3.10568">
        <ele>695</ele>
        <time>2019-06-23T09:32:40.000Z</time>
      </trkpt>
      <trkpt lat="45.68132" lon="3.10575">
        <ele>694</ele>
        <time>2019-06-23T09:32:41.000Z</time>
      </trkpt>
      <trkpt lat="45.68133" lon="3.10583">
        <ele>692</ele>
        <time>2019-06-23T09:32:42.000Z</time>
      </trkpt>
      <trkpt lat="45.68134" lon="3.1059">
        <ele>693</ele>
        <time>2019-06-23T09:32:43.000Z</time>
      </trkpt>
      <trkpt lat="45.68135" lon="3.10596">
        <ele>693</ele>
        <time>2019-06-23T09:32:44.000Z</time>
      </trkpt>
      <trkpt lat="45.68136" lon="3.10603">
        <ele>693</ele>
        <time>2019-06-23T09:32:45.000Z</time>
      </trkpt>
      <trkpt lat="45.68137" lon="3.10609">
        <ele>693</ele>
        <time>2019-06-23T09:32:46.000Z</time>
      </trkpt>
      <trkpt lat="45.68138" lon="3.10615">
        <ele>693</ele>
        <time>2019-06-23T09:32:47.000Z</time>
      </trkpt>
      <trkpt lat="45.68137" lon="3.10627">
        <ele>691</ele>
        <time>2019-06-23T09:32:48.000Z</time>
      </trkpt>
      <trkpt lat="45.68138" lon="3.10634">
        <ele>691</ele>
        <time>2019-06-23T09:32:49.000Z</time>
      </trkpt>
      <trkpt lat="45.68139" lon="3.10641">
        <ele>691</ele>
        <time>2019-06-23T09:32:50.000Z</time>
      </trkpt>
      <trkpt lat="45.6814" lon="3.10649">
        <ele>690</ele>
        <time>2019-06-23T09:32:51.000Z</time>
      </trkpt>
      <trkpt lat="45.68141" lon="3.10657">
        <ele>691</ele>
        <time>2019-06-23T09:32:52.000Z</time>
      </trkpt>
      <trkpt lat="45.68143" lon="3.10665">
        <ele>692</ele>
        <time>2019-06-23T09:32:53.000Z</time>
      </trkpt>
      <trkpt lat="45.68149" lon="3.10681">
        <ele>694</ele>
        <time>2019-06-23T09:32:54.000Z</time>
      </trkpt>
      <trkpt lat="45.68151" lon="3.1069">
        <ele>693</ele>
        <time>2019-06-23T09:32:55.000Z</time>
      </trkpt>
      <trkpt lat="45.68153" lon="3.10698">
        <ele>691</ele>
        <time>2019-06-23T09:32:56.000Z</time>
      </trkpt>
      <trkpt lat="45.68155" lon="3.10709">
        <ele>692</ele>
        <time>2019-06-23T09:32:57.000Z</time>
      </trkpt>
      <trkpt lat="45.68157" lon="3.10717">
        <ele>691</ele>
        <time>2019-06-23T09:32:58.000Z</time>
      </trkpt>
      <trkpt lat="45.6816" lon="3.10727">
        <ele>691</ele>
        <time>2019-06-23T09:32:59.000Z</time>
      </trkpt>
      <trkpt lat="45.68162" lon="3.10736">
        <ele>691</ele>
        <time>2019-06-23T09:33:00.000Z</time>
      </trkpt>
      <trkpt lat="45.68164" lon="3.10745">
        <ele>692</ele>
        <time>2019-06-23T09:33:01.000Z</time>
      </trkpt>
      <trkpt lat="45.68167" lon="3.10753">
        <ele>692</ele>
        <time>2019-06-23T09:33:02.000Z</time>
      </trkpt>
      <trkpt lat="45.68169" lon="3.10761">
        <ele>691</ele>
        <time>2019-06-23T09:33:03.000Z</time>
      </trkpt>
      <trkpt lat="45.68171" lon="3.10768">
        <ele>689</ele>
        <time>2019-06-23T09:33:04.000Z</time>
      </trkpt>
      <trkpt lat="45.68175" lon="3.10775">
        <ele>687</ele>
        <time>2019-06-23T09:33:05.000Z</time>
      </trkpt>
      <trkpt lat="45.68177" lon="3.10784">
        <ele>687</ele>
        <time>2019-06-23T09:33:06.000Z</time>
      </trkpt>
      <trkpt lat="45.68179" lon="3.10792">
        <ele>686</ele>
        <time>2019-06-23T09:33:07.000Z</time>
      </trkpt>
      <trkpt lat="45.6818" lon="3.108">
        <ele>686</ele>
        <time>2019-06-23T09:33:08.000Z</time>
      </trkpt>
      <trkpt lat="45.6818" lon="3.10807">
        <ele>687</ele>
        <time>2019-06-23T09:33:09.000Z</time>
      </trkpt>
      <trkpt lat="45.68181" lon="3.10816">
        <ele>686</ele>
        <time>2019-06-23T09:33:10.000Z</time>
      </trkpt>
      <trkpt lat="45.68182" lon="3.10823">
        <ele>686</ele>
        <time>2019-06-23T09:33:11.000Z</time>
      </trkpt>
      <trkpt lat="45.68186" lon="3.10824">
        <ele>685</ele>
        <time>2019-06-23T09:33:12.000Z</time>
      </trkpt>
      <trkpt lat="45.68187" lon="3.10827">
        <ele>681</ele>
        <time>2019-06-23T09:33:13.000Z</time>
      </trkpt>
      <trkpt lat="45.68188" lon="3.10827">
        <ele>681</ele>
        <time>2019-06-23T09:33:14.000Z</time>
      </trkpt>
      <trkpt lat="45.68187" lon="3.10828">
        <ele>678</ele>
        <time>2019-06-23T09:33:15.000Z</time>
      </trkpt>
      <trkpt lat="45.68187" lon="3.10827">
        <ele>678</ele>
        <time>2019-06-23T09:33:16.000Z</time>
      </trkpt>
      <trkpt lat="45.68185" lon="3.10827">
        <ele>677</ele>
        <time>2019-06-23T09:33:17.000Z</time>
      </trkpt>
      <trkpt lat="45.68183" lon="3.10828">
        <ele>674</ele>
        <time>2019-06-23T09:33:18.000Z</time>
      </trkpt>
      <trkpt lat="45.68182" lon="3.10828">
        <ele>675</ele>
        <time>2019-06-23T09:33:19.000Z</time>
      </trkpt>
      <trkpt lat="45.68181" lon="3.1083">
        <ele>675</ele>
        <time>2019-06-23T09:33:20.000Z</time>
      </trkpt>
      <trkpt lat="45.68181" lon="3.10831">
        <ele>675</ele>
        <time>2019-06-23T09:33:21.000Z</time>
      </trkpt>
      <trkpt lat="45.6818" lon="3.10832">
        <ele>674</ele>
        <time>2019-06-23T09:33:22.000Z</time>
      </trkpt>
      <trkpt lat="45.68179" lon="3.10833">
        <ele>674</ele>
        <time>2019-06-23T09:33:23.000Z</time>
      </trkpt>
      <trkpt lat="45.68178" lon="3.10834">
        <ele>674</ele>
        <time>2019-06-23T09:33:24.000Z</time>
      </trkpt>
      <trkpt lat="45.68177" lon="3.10835">
        <ele>674</ele>
        <time>2019-06-23T09:33:25.000Z</time>
      </trkpt>
      <trkpt lat="45.68177" lon="3.10836">
        <ele>674</ele>
        <time>2019-06-23T09:33:26.000Z</time>
      </trkpt>
      <trkpt lat="45.68176" lon="3.10838">
        <ele>674</ele>
        <time>2019-06-23T09:33:27.000Z</time>
      </trkpt>
      <trkpt lat="45.68175" lon="3.10839">
        <ele>673</ele>
        <time>2019-06-23T09:33:28.000Z</time>
      </trkpt>
      <trkpt lat="45.68175" lon="3.10841">
        <ele>673</ele>
        <time>2019-06-23T09:33:29.000Z</time>
      </trkpt>
      <trkpt lat="45.68175" lon="3.10843">
        <ele>674</ele>
        <time>2019-06-23T09:33:30.000Z</time>
      </trkpt>
      <trkpt lat="45.68176" lon="3.10845">
        <ele>675</ele>
        <time>2019-06-23T09:33:31.000Z</time>
      </trkpt>
      <trkpt lat="45.68177" lon="3.10848">
        <ele>676</ele>
        <time>2019-06-23T09:33:32.000Z</time>
      </trkpt>
      <trkpt lat="45.68177" lon="3.1085">
        <ele>678</ele>
        <time>2019-06-23T09:33:33.000Z</time>
      </trkpt>
      <trkpt lat="45.68178" lon="3.10853">
        <ele>678</ele>
        <time>2019-06-23T09:33:34.000Z</time>
      </trkpt>
      <trkpt lat="45.68178" lon="3.10856">
        <ele>678</ele>
        <time>2019-06-23T09:33:35.000Z</time>
      </trkpt>
      <trkpt lat="45.68179" lon="3.1086">
        <ele>678</ele>
        <time>2019-06-23T09:33:36.000Z</time>
      </trkpt>
      <trkpt lat="45.68179" lon="3.10863">
        <ele>679</ele>
        <time>2019-06-23T09:33:37.000Z</time>
      </trkpt>
      <trkpt lat="45.68179" lon="3.10866">
        <ele>679</ele>
        <time>2019-06-23T09:33:38.000Z</time>
      </trkpt>
      <trkpt lat="45.68179" lon="3.10869">
        <ele>679</ele>
        <time>2019-06-23T09:33:39.000Z</time>
      </trkpt>
      <trkpt lat="45.68179" lon="3.10872">
        <ele>679</ele>
        <time>2019-06-23T09:33:40.000Z</time>
      </trkpt>
      <trkpt lat="45.6818" lon="3.10875">
        <ele>679</ele>
        <time>2019-06-23T09:33:41.000Z</time>
      </trkpt>
      <trkpt lat="45.68181" lon="3.1088">
        <ele>679</ele>
        <time>2019-06-23T09:33:42.000Z</time>
      </trkpt>
      <trkpt lat="45.68182" lon="3.10884">
        <ele>680</ele>
        <time>2019-06-23T09:33:43.000Z</time>
      </trkpt>
      <trkpt lat="45.68183" lon="3.10889">
        <ele>681</ele>
        <time>2019-06-23T09:33:44.000Z</time>
      </trkpt>
      <trkpt lat="45.68186" lon="3.10894">
        <ele>681</ele>
        <time>2019-06-23T09:33:45.000Z</time>
      </trkpt>
      <trkpt lat="45.68187" lon="3.109">
        <ele>682</ele>
        <time>2019-06-23T09:33:46.000Z</time>
      </trkpt>
      <trkpt lat="45.68189" lon="3.10905">
        <ele>682</ele>
        <time>2019-06-23T09:33:47.000Z</time>
      </trkpt>
      <trkpt lat="45.68191" lon="3.1091">
        <ele>681</ele>
        <time>2019-06-23T09:33:48.000Z</time>
      </trkpt>
      <trkpt lat="45.68192" lon="3.10915">
        <ele>681</ele>
        <time>2019-06-23T09:33:49.000Z</time>
      </trkpt>
      <trkpt lat="45.68193" lon="3.10921">
        <ele>681</ele>
        <time>2019-06-23T09:33:50.000Z</time>
      </trkpt>
      <trkpt lat="45.68195" lon="3.10929">
        <ele>681</ele>
        <time>2019-06-23T09:33:51.000Z</time>
      </trkpt>
      <trkpt lat="45.68196" lon="3.10934">
        <ele>682</ele>
        <time>2019-06-23T09:33:52.000Z</time>
      </trkpt>
      <trkpt lat="45.68197" lon="3.1094">
        <ele>682</ele>
        <time>2019-06-23T09:33:53.000Z</time>
      </trkpt>
      <trkpt lat="45.68198" lon="3.10946">
        <ele>681</ele>
        <time>2019-06-23T09:33:54.000Z</time>
      </trkpt>
      <trkpt lat="45.682" lon="3.10951">
        <ele>682</ele>
        <time>2019-06-23T09:33:55.000Z</time>
      </trkpt>
      <trkpt lat="45.68201" lon="3.10958">
        <ele>680</ele>
        <time>2019-06-23T09:33:56.000Z</time>
      </trkpt>
      <trkpt lat="45.68203" lon="3.10965">
        <ele>679</ele>
        <time>2019-06-23T09:33:57.000Z</time>
      </trkpt>
      <trkpt lat="45.68205" lon="3.10972">
        <ele>679</ele>
        <time>2019-06-23T09:33:58.000Z</time>
      </trkpt>
      <trkpt lat="45.68207" lon="3.10979">
        <ele>679</ele>
        <time>2019-06-23T09:33:59.000Z</time>
      </trkpt>
      <trkpt lat="45.6821" lon="3.10987">
        <ele>680</ele>
        <time>2019-06-23T09:34:00.000Z</time>
      </trkpt>
      <trkpt lat="45.68212" lon="3.10994">
        <ele>681</ele>
        <time>2019-06-23T09:34:01.000Z</time>
      </trkpt>
      <trkpt lat="45.68214" lon="3.11002">
        <ele>681</ele>
        <time>2019-06-23T09:34:02.000Z</time>
      </trkpt>
      <trkpt lat="45.68216" lon="3.11009">
        <ele>681</ele>
        <time>2019-06-23T09:34:03.000Z</time>
      </trkpt>
      <trkpt lat="45.68218" lon="3.11016">
        <ele>682</ele>
        <time>2019-06-23T09:34:04.000Z</time>
      </trkpt>
      <trkpt lat="45.68219" lon="3.11023">
        <ele>682</ele>
        <time>2019-06-23T09:34:05.000Z</time>
      </trkpt>
      <trkpt lat="45.68221" lon="3.11031">
        <ele>682</ele>
        <time>2019-06-23T09:34:06.000Z</time>
      </trkpt>
      <trkpt lat="45.68222" lon="3.11037">
        <ele>684</ele>
        <time>2019-06-23T09:34:07.000Z</time>
      </trkpt>
      <trkpt lat="45.68225" lon="3.11046">
        <ele>684</ele>
        <time>2019-06-23T09:34:08.000Z</time>
      </trkpt>
      <trkpt lat="45.6823" lon="3.11059">
        <ele>685</ele>
        <time>2019-06-23T09:34:09.000Z</time>
      </trkpt>
      <trkpt lat="45.68234" lon="3.11067">
        <ele>687</ele>
        <time>2019-06-23T09:34:10.000Z</time>
      </trkpt>
      <trkpt lat="45.68236" lon="3.11076">
        <ele>686</ele>
        <time>2019-06-23T09:34:11.000Z</time>
      </trkpt>
      <trkpt lat="45.6824" lon="3.11087">
        <ele>687</ele>
        <time>2019-06-23T09:34:12.000Z</time>
      </trkpt>
      <trkpt lat="45.68243" lon="3.11095">
        <ele>685</ele>
        <time>2019-06-23T09:34:13.000Z</time>
      </trkpt>
      <trkpt lat="45.68245" lon="3.11102">
        <ele>684</ele>
        <time>2019-06-23T09:34:14.000Z</time>
      </trkpt>
      <trkpt lat="45.68247" lon="3.1111">
        <ele>683</ele>
        <time>2019-06-23T09:34:15.000Z</time>
      </trkpt>
      <trkpt lat="45.6825" lon="3.11119">
        <ele>682</ele>
        <time>2019-06-23T09:34:16.000Z</time>
      </trkpt>
      <trkpt lat="45.68252" lon="3.11127">
        <ele>682</ele>
        <time>2019-06-23T09:34:17.000Z</time>
      </trkpt>
      <trkpt lat="45.68254" lon="3.11134">
        <ele>682</ele>
        <time>2019-06-23T09:34:18.000Z</time>
      </trkpt>
      <trkpt lat="45.68257" lon="3.11142">
        <ele>682</ele>
        <time>2019-06-23T09:34:19.000Z</time>
      </trkpt>
      <trkpt lat="45.68259" lon="3.11151">
        <ele>680</ele>
        <time>2019-06-23T09:34:20.000Z</time>
      </trkpt>
      <trkpt lat="45.68261" lon="3.11158">
        <ele>680</ele>
        <time>2019-06-23T09:34:21.000Z</time>
      </trkpt>
      <trkpt lat="45.68262" lon="3.11166">
        <ele>680</ele>
        <time>2019-06-23T09:34:22.000Z</time>
      </trkpt>
      <trkpt lat="45.68265" lon="3.11174">
        <ele>680</ele>
        <time>2019-06-23T09:34:23.000Z</time>
      </trkpt>
      <trkpt lat="45.68268" lon="3.11182">
        <ele>679</ele>
        <time>2019-06-23T09:34:24.000Z</time>
      </trkpt>
      <trkpt lat="45.6827" lon="3.11189">
        <ele>679</ele>
        <time>2019-06-23T09:34:25.000Z</time>
      </trkpt>
      <trkpt lat="45.68272" lon="3.11196">
        <ele>678</ele>
        <time>2019-06-23T09:34:26.000Z</time>
      </trkpt>
      <trkpt lat="45.68275" lon="3.11206">
        <ele>680</ele>
        <time>2019-06-23T09:34:27.000Z</time>
      </trkpt>
      <trkpt lat="45.68278" lon="3.11215">
        <ele>681</ele>
        <time>2019-06-23T09:34:28.000Z</time>
      </trkpt>
      <trkpt lat="45.6828" lon="3.11221">
        <ele>682</ele>
        <time>2019-06-23T09:34:29.000Z</time>
      </trkpt>
      <trkpt lat="45.68282" lon="3.11229">
        <ele>682</ele>
        <time>2019-06-23T09:34:30.000Z</time>
      </trkpt>
      <trkpt lat="45.68284" lon="3.11236">
        <ele>682</ele>
        <time>2019-06-23T09:34:31.000Z</time>
      </trkpt>
      <trkpt lat="45.68287" lon="3.11242">
        <ele>682</ele>
        <time>2019-06-23T09:34:32.000Z</time>
      </trkpt>
      <trkpt lat="45.68289" lon="3.11248">
        <ele>683</ele>
        <time>2019-06-23T09:34:33.000Z</time>
      </trkpt>
      <trkpt lat="45.68291" lon="3.11255">
        <ele>682</ele>
        <time>2019-06-23T09:34:34.000Z</time>
      </trkpt>
      <trkpt lat="45.68292" lon="3.11263">
        <ele>681</ele>
        <time>2019-06-23T09:34:35.000Z</time>
      </trkpt>
      <trkpt lat="45.68294" lon="3.11271">
        <ele>681</ele>
        <time>2019-06-23T09:34:36.000Z</time>
      </trkpt>
      <trkpt lat="45.68303" lon="3.1128">
        <ele>683</ele>
        <time>2019-06-23T09:34:37.000Z</time>
      </trkpt>
      <trkpt lat="45.6831" lon="3.11285">
        <ele>683</ele>
        <time>2019-06-23T09:34:38.000Z</time>
      </trkpt>
      <trkpt lat="45.68313" lon="3.11291">
        <ele>682</ele>
        <time>2019-06-23T09:34:39.000Z</time>
      </trkpt>
      <trkpt lat="45.68316" lon="3.11296">
        <ele>682</ele>
        <time>2019-06-23T09:34:40.000Z</time>
      </trkpt>
      <trkpt lat="45.68319" lon="3.11301">
        <ele>683</ele>
        <time>2019-06-23T09:34:41.000Z</time>
      </trkpt>
      <trkpt lat="45.68323" lon="3.11306">
        <ele>683</ele>
        <time>2019-06-23T09:34:42.000Z</time>
      </trkpt>
      <trkpt lat="45.68325" lon="3.11312">
        <ele>683</ele>
        <time>2019-06-23T09:34:43.000Z</time>
      </trkpt>
      <trkpt lat="45.68326" lon="3.11318">
        <ele>682</ele>
        <time>2019-06-23T09:34:44.000Z</time>
      </trkpt>
      <trkpt lat="45.68328" lon="3.11323">
        <ele>683</ele>
        <time>2019-06-23T09:34:45.000Z</time>
      </trkpt>
      <trkpt lat="45.68331" lon="3.11327">
        <ele>684</ele>
        <time>2019-06-23T09:34:46.000Z</time>
      </trkpt>
      <trkpt lat="45.68335" lon="3.11329">
        <ele>686</ele>
        <time>2019-06-23T09:34:47.000Z</time>
      </trkpt>
      <trkpt lat="45.68335" lon="3.11327">
        <ele>689</ele>
        <time>2019-06-23T09:34:48.000Z</time>
      </trkpt>
      <trkpt lat="45.68336" lon="3.11327">
        <ele>688</ele>
        <time>2019-06-23T09:34:49.000Z</time>
      </trkpt>
      <trkpt lat="45.68335" lon="3.11322">
        <ele>684</ele>
        <time>2019-06-23T09:34:50.000Z</time>
      </trkpt>
      <trkpt lat="45.68338" lon="3.11319">
        <ele>686</ele>
        <time>2019-06-23T09:34:51.000Z</time>
      </trkpt>
      <trkpt lat="45.68341" lon="3.11319">
        <ele>687</ele>
        <time>2019-06-23T09:34:52.000Z</time>
      </trkpt>
      <trkpt lat="45.68343" lon="3.11319">
        <ele>689</ele>
        <time>2019-06-23T09:34:53.000Z</time>
      </trkpt>
      <trkpt lat="45.68345" lon="3.11318">
        <ele>688</ele>
        <time>2019-06-23T09:34:54.000Z</time>
      </trkpt>
      <trkpt lat="45.68348" lon="3.11319">
        <ele>686</ele>
        <time>2019-06-23T09:34:55.000Z</time>
      </trkpt>
      <trkpt lat="45.68351" lon="3.1132">
        <ele>688</ele>
        <time>2019-06-23T09:34:56.000Z</time>
      </trkpt>
      <trkpt lat="45.68351" lon="3.11323">
        <ele>687</ele>
        <time>2019-06-23T09:34:57.000Z</time>
      </trkpt>
      <trkpt lat="45.68353" lon="3.11326">
        <ele>687</ele>
        <time>2019-06-23T09:34:58.000Z</time>
      </trkpt>
      <trkpt lat="45.68354" lon="3.11327">
        <ele>686</ele>
        <time>2019-06-23T09:34:59.000Z</time>
      </trkpt>
      <trkpt lat="45.68354" lon="3.11331">
        <ele>682</ele>
        <time>2019-06-23T09:35:00.000Z</time>
      </trkpt>
      <trkpt lat="45.68354" lon="3.11337">
        <ele>681</ele>
        <time>2019-06-23T09:35:01.000Z</time>
      </trkpt>
      <trkpt lat="45.68355" lon="3.11342">
        <ele>678</ele>
        <time>2019-06-23T09:35:02.000Z</time>
      </trkpt>
      <trkpt lat="45.68357" lon="3.11347">
        <ele>680</ele>
        <time>2019-06-23T09:35:03.000Z</time>
      </trkpt>
      <trkpt lat="45.68359" lon="3.11352">
        <ele>681</ele>
        <time>2019-06-23T09:35:04.000Z</time>
      </trkpt>
      <trkpt lat="45.68361" lon="3.11359">
        <ele>684</ele>
        <time>2019-06-23T09:35:05.000Z</time>
      </trkpt>
      <trkpt lat="45.68364" lon="3.11367">
        <ele>687</ele>
        <time>2019-06-23T09:35:06.000Z</time>
      </trkpt>
      <trkpt lat="45.68365" lon="3.11375">
        <ele>689</ele>
        <time>2019-06-23T09:35:07.000Z</time>
      </trkpt>
      <trkpt lat="45.68366" lon="3.11382">
        <ele>689</ele>
        <time>2019-06-23T09:35:08.000Z</time>
      </trkpt>
      <trkpt lat="45.68369" lon="3.1139">
        <ele>690</ele>
        <time>2019-06-23T09:35:09.000Z</time>
      </trkpt>
      <trkpt lat="45.68373" lon="3.114">
        <ele>690</ele>
        <time>2019-06-23T09:35:10.000Z</time>
      </trkpt>
      <trkpt lat="45.68374" lon="3.11409">
        <ele>684</ele>
        <time>2019-06-23T09:35:11.000Z</time>
      </trkpt>
      <trkpt lat="45.68376" lon="3.11417">
        <ele>682</ele>
        <time>2019-06-23T09:35:12.000Z</time>
      </trkpt>
      <trkpt lat="45.68378" lon="3.11425">
        <ele>683</ele>
        <time>2019-06-23T09:35:13.000Z</time>
      </trkpt>
      <trkpt lat="45.6838" lon="3.11433">
        <ele>683</ele>
        <time>2019-06-23T09:35:14.000Z</time>
      </trkpt>
      <trkpt lat="45.68382" lon="3.1144">
        <ele>684</ele>
        <time>2019-06-23T09:35:15.000Z</time>
      </trkpt>
      <trkpt lat="45.68382" lon="3.11449">
        <ele>681</ele>
        <time>2019-06-23T09:35:16.000Z</time>
      </trkpt>
      <trkpt lat="45.68383" lon="3.11456">
        <ele>680</ele>
        <time>2019-06-23T09:35:17.000Z</time>
      </trkpt>
      <trkpt lat="45.68384" lon="3.11464">
        <ele>680</ele>
        <time>2019-06-23T09:35:18.000Z</time>
      </trkpt>
      <trkpt lat="45.68385" lon="3.11472">
        <ele>680</ele>
        <time>2019-06-23T09:35:19.000Z</time>
      </trkpt>
      <trkpt lat="45.68386" lon="3.1148">
        <ele>681</ele>
        <time>2019-06-23T09:35:20.000Z</time>
      </trkpt>
      <trkpt lat="45.68388" lon="3.11488">
        <ele>681</ele>
        <time>2019-06-23T09:35:21.000Z</time>
      </trkpt>
      <trkpt lat="45.6839" lon="3.11496">
        <ele>677</ele>
        <time>2019-06-23T09:35:22.000Z</time>
      </trkpt>
      <trkpt lat="45.68393" lon="3.11502">
        <ele>675</ele>
        <time>2019-06-23T09:35:23.000Z</time>
      </trkpt>
      <trkpt lat="45.68397" lon="3.11508">
        <ele>674</ele>
        <time>2019-06-23T09:35:24.000Z</time>
      </trkpt>
      <trkpt lat="45.684" lon="3.11514">
        <ele>674</ele>
        <time>2019-06-23T09:35:25.000Z</time>
      </trkpt>
      <trkpt lat="45.68402" lon="3.11521">
        <ele>672</ele>
        <time>2019-06-23T09:35:26.000Z</time>
      </trkpt>
      <trkpt lat="45.68405" lon="3.11527">
        <ele>670</ele>
        <time>2019-06-23T09:35:27.000Z</time>
      </trkpt>
      <trkpt lat="45.68409" lon="3.11535">
        <ele>667</ele>
        <time>2019-06-23T09:35:28.000Z</time>
      </trkpt>
      <trkpt lat="45.68412" lon="3.11541">
        <ele>664</ele>
        <time>2019-06-23T09:35:29.000Z</time>
      </trkpt>
      <trkpt lat="45.68415" lon="3.11548">
        <ele>663</ele>
        <time>2019-06-23T09:35:30.000Z</time>
      </trkpt>
      <trkpt lat="45.68418" lon="3.11556">
        <ele>663</ele>
        <time>2019-06-23T09:35:31.000Z</time>
      </trkpt>
      <trkpt lat="45.68421" lon="3.11563">
        <ele>661</ele>
        <time>2019-06-23T09:35:32.000Z</time>
      </trkpt>
      <trkpt lat="45.68424" lon="3.11571">
        <ele>660</ele>
        <time>2019-06-23T09:35:33.000Z</time>
      </trkpt>
      <trkpt lat="45.68426" lon="3.1158">
        <ele>659</ele>
        <time>2019-06-23T09:35:34.000Z</time>
      </trkpt>
      <trkpt lat="45.68429" lon="3.11588">
        <ele>658</ele>
        <time>2019-06-23T09:35:35.000Z</time>
      </trkpt>
      <trkpt lat="45.68431" lon="3.11596">
        <ele>657</ele>
        <time>2019-06-23T09:35:36.000Z</time>
      </trkpt>
      <trkpt lat="45.68433" lon="3.11604">
        <ele>657</ele>
        <time>2019-06-23T09:35:37.000Z</time>
      </trkpt>
      <trkpt lat="45.68435" lon="3.11612">
        <ele>656</ele>
        <time>2019-06-23T09:35:38.000Z</time>
      </trkpt>
      <trkpt lat="45.68437" lon="3.11621">
        <ele>656</ele>
        <time>2019-06-23T09:35:39.000Z</time>
      </trkpt>
      <trkpt lat="45.68439" lon="3.1163">
        <ele>655</ele>
        <time>2019-06-23T09:35:40.000Z</time>
      </trkpt>
      <trkpt lat="45.6844" lon="3.11638">
        <ele>655</ele>
        <time>2019-06-23T09:35:41.000Z</time>
      </trkpt>
      <trkpt lat="45.68442" lon="3.11646">
        <ele>655</ele>
        <time>2019-06-23T09:35:42.000Z</time>
      </trkpt>
      <trkpt lat="45.68444" lon="3.11654">
        <ele>654</ele>
        <time>2019-06-23T09:35:43.000Z</time>
      </trkpt>
      <trkpt lat="45.68446" lon="3.11662">
        <ele>654</ele>
        <time>2019-06-23T09:35:44.000Z</time>
      </trkpt>
      <trkpt lat="45.68449" lon="3.1167">
        <ele>654</ele>
        <time>2019-06-23T09:35:45.000Z</time>
      </trkpt>
      <trkpt lat="45.68451" lon="3.11677">
        <ele>653</ele>
        <time>2019-06-23T09:35:46.000Z</time>
      </trkpt>
      <trkpt lat="45.68454" lon="3.11685">
        <ele>653</ele>
        <time>2019-06-23T09:35:47.000Z</time>
      </trkpt>
      <trkpt lat="45.68456" lon="3.11693">
        <ele>652</ele>
        <time>2019-06-23T09:35:48.000Z</time>
      </trkpt>
      <trkpt lat="45.68459" lon="3.11702">
        <ele>652</ele>
        <time>2019-06-23T09:35:49.000Z</time>
      </trkpt>
      <trkpt lat="45.68461" lon="3.1171">
        <ele>652</ele>
        <time>2019-06-23T09:35:50.000Z</time>
      </trkpt>
      <trkpt lat="45.68464" lon="3.11718">
        <ele>652</ele>
        <time>2019-06-23T09:35:51.000Z</time>
      </trkpt>
      <trkpt lat="45.68467" lon="3.11727">
        <ele>652</ele>
        <time>2019-06-23T09:35:52.000Z</time>
      </trkpt>
      <trkpt lat="45.68469" lon="3.11735">
        <ele>652</ele>
        <time>2019-06-23T09:35:53.000Z</time>
      </trkpt>
      <trkpt lat="45.68472" lon="3.11743">
        <ele>652</ele>
        <time>2019-06-23T09:35:54.000Z</time>
      </trkpt>
      <trkpt lat="45.68475" lon="3.11751">
        <ele>651</ele>
        <time>2019-06-23T09:35:55.000Z</time>
      </trkpt>
      <trkpt lat="45.68478" lon="3.11759">
        <ele>651</ele>
        <time>2019-06-23T09:35:56.000Z</time>
      </trkpt>
      <trkpt lat="45.68481" lon="3.11768">
        <ele>651</ele>
        <time>2019-06-23T09:35:57.000Z</time>
      </trkpt>
      <trkpt lat="45.68484" lon="3.11776">
        <ele>651</ele>
        <time>2019-06-23T09:35:58.000Z</time>
      </trkpt>
      <trkpt lat="45.68486" lon="3.11785">
        <ele>651</ele>
        <time>2019-06-23T09:35:59.000Z</time>
      </trkpt>
      <trkpt lat="45.68489" lon="3.11793">
        <ele>650</ele>
        <time>2019-06-23T09:36:00.000Z</time>
      </trkpt>
      <trkpt lat="45.68491" lon="3.11801">
        <ele>650</ele>
        <time>2019-06-23T09:36:01.000Z</time>
      </trkpt>
      <trkpt lat="45.68493" lon="3.1181">
        <ele>649</ele>
        <time>2019-06-23T09:36:02.000Z</time>
      </trkpt>
      <trkpt lat="45.68495" lon="3.11818">
        <ele>649</ele>
        <time>2019-06-23T09:36:03.000Z</time>
      </trkpt>
      <trkpt lat="45.68497" lon="3.11827">
        <ele>649</ele>
        <time>2019-06-23T09:36:04.000Z</time>
      </trkpt>
      <trkpt lat="45.68499" lon="3.11836">
        <ele>649</ele>
        <time>2019-06-23T09:36:05.000Z</time>
      </trkpt>
      <trkpt lat="45.685" lon="3.11845">
        <ele>649</ele>
        <time>2019-06-23T09:36:06.000Z</time>
      </trkpt>
      <trkpt lat="45.68502" lon="3.11853">
        <ele>648</ele>
        <time>2019-06-23T09:36:07.000Z</time>
      </trkpt>
      <trkpt lat="45.68503" lon="3.11862">
        <ele>648</ele>
        <time>2019-06-23T09:36:08.000Z</time>
      </trkpt>
      <trkpt lat="45.68505" lon="3.11871">
        <ele>648</ele>
        <time>2019-06-23T09:36:09.000Z</time>
      </trkpt>
      <trkpt lat="45.68506" lon="3.1188">
        <ele>648</ele>
        <time>2019-06-23T09:36:10.000Z</time>
      </trkpt>
      <trkpt lat="45.68508" lon="3.11889">
        <ele>648</ele>
        <time>2019-06-23T09:36:11.000Z</time>
      </trkpt>
      <trkpt lat="45.68509" lon="3.11899">
        <ele>647</ele>
        <time>2019-06-23T09:36:12.000Z</time>
      </trkpt>
      <trkpt lat="45.68511" lon="3.11909">
        <ele>647</ele>
        <time>2019-06-23T09:36:13.000Z</time>
      </trkpt>
      <trkpt lat="45.68512" lon="3.11918">
        <ele>647</ele>
        <time>2019-06-23T09:36:14.000Z</time>
      </trkpt>
      <trkpt lat="45.68513" lon="3.11928">
        <ele>647</ele>
        <time>2019-06-23T09:36:15.000Z</time>
      </trkpt>
      <trkpt lat="45.68514" lon="3.11938">
        <ele>646</ele>
        <time>2019-06-23T09:36:16.000Z</time>
      </trkpt>
      <trkpt lat="45.68514" lon="3.11948">
        <ele>646</ele>
        <time>2019-06-23T09:36:17.000Z</time>
      </trkpt>
      <trkpt lat="45.68516" lon="3.11958">
        <ele>646</ele>
        <time>2019-06-23T09:36:18.000Z</time>
      </trkpt>
      <trkpt lat="45.68518" lon="3.11967">
        <ele>646</ele>
        <time>2019-06-23T09:36:19.000Z</time>
      </trkpt>
      <trkpt lat="45.6852" lon="3.11976">
        <ele>646</ele>
        <time>2019-06-23T09:36:20.000Z</time>
      </trkpt>
      <trkpt lat="45.68522" lon="3.11984">
        <ele>645</ele>
        <time>2019-06-23T09:36:21.000Z</time>
      </trkpt>
      <trkpt lat="45.68524" lon="3.1199">
        <ele>644</ele>
        <time>2019-06-23T09:36:22.000Z</time>
      </trkpt>
      <trkpt lat="45.68526" lon="3.11997">
        <ele>644</ele>
        <time>2019-06-23T09:36:23.000Z</time>
      </trkpt>
      <trkpt lat="45.68529" lon="3.12004">
        <ele>644</ele>
        <time>2019-06-23T09:36:24.000Z</time>
      </trkpt>
      <trkpt lat="45.68529" lon="3.12011">
        <ele>643</ele>
        <time>2019-06-23T09:36:25.000Z</time>
      </trkpt>
      <trkpt lat="45.6853" lon="3.12018">
        <ele>643</ele>
        <time>2019-06-23T09:36:26.000Z</time>
      </trkpt>
      <trkpt lat="45.6853" lon="3.12025">
        <ele>642</ele>
        <time>2019-06-23T09:36:27.000Z</time>
      </trkpt>
      <trkpt lat="45.68531" lon="3.12032">
        <ele>642</ele>
        <time>2019-06-23T09:36:28.000Z</time>
      </trkpt>
      <trkpt lat="45.6853" lon="3.12037">
        <ele>641</ele>
        <time>2019-06-23T09:36:29.000Z</time>
      </trkpt>
      <trkpt lat="45.68529" lon="3.12042">
        <ele>641</ele>
        <time>2019-06-23T09:36:30.000Z</time>
      </trkpt>
      <trkpt lat="45.68528" lon="3.12047">
        <ele>641</ele>
        <time>2019-06-23T09:36:31.000Z</time>
      </trkpt>
      <trkpt lat="45.68528" lon="3.12052">
        <ele>640</ele>
        <time>2019-06-23T09:36:32.000Z</time>
      </trkpt>
      <trkpt lat="45.68529" lon="3.12058">
        <ele>640</ele>
        <time>2019-06-23T09:36:33.000Z</time>
      </trkpt>
      <trkpt lat="45.68529" lon="3.12063">
        <ele>639</ele>
        <time>2019-06-23T09:36:34.000Z</time>
      </trkpt>
      <trkpt lat="45.6853" lon="3.12069">
        <ele>639</ele>
        <time>2019-06-23T09:36:35.000Z</time>
      </trkpt>
      <trkpt lat="45.68531" lon="3.12075">
        <ele>638</ele>
        <time>2019-06-23T09:36:36.000Z</time>
      </trkpt>
      <trkpt lat="45.68533" lon="3.12081">
        <ele>638</ele>
        <time>2019-06-23T09:36:37.000Z</time>
      </trkpt>
      <trkpt lat="45.68535" lon="3.12087">
        <ele>638</ele>
        <time>2019-06-23T09:36:38.000Z</time>
      </trkpt>
      <trkpt lat="45.68537" lon="3.12093">
        <ele>637</ele>
        <time>2019-06-23T09:36:39.000Z</time>
      </trkpt>
      <trkpt lat="45.68538" lon="3.12099">
        <ele>636</ele>
        <time>2019-06-23T09:36:40.000Z</time>
      </trkpt>
      <trkpt lat="45.6854" lon="3.12107">
        <ele>635</ele>
        <time>2019-06-23T09:36:41.000Z</time>
      </trkpt>
      <trkpt lat="45.68541" lon="3.12114">
        <ele>634</ele>
        <time>2019-06-23T09:36:42.000Z</time>
      </trkpt>
      <trkpt lat="45.68539" lon="3.12119">
        <ele>632</ele>
        <time>2019-06-23T09:36:43.000Z</time>
      </trkpt>
      <trkpt lat="45.6854" lon="3.12125">
        <ele>631</ele>
        <time>2019-06-23T09:36:44.000Z</time>
      </trkpt>
      <trkpt lat="45.68541" lon="3.12131">
        <ele>631</ele>
        <time>2019-06-23T09:36:45.000Z</time>
      </trkpt>
      <trkpt lat="45.68544" lon="3.12136">
        <ele>629</ele>
        <time>2019-06-23T09:36:46.000Z</time>
      </trkpt>
      <trkpt lat="45.68545" lon="3.12143">
        <ele>629</ele>
        <time>2019-06-23T09:36:47.000Z</time>
      </trkpt>
      <trkpt lat="45.68546" lon="3.1215">
        <ele>628</ele>
        <time>2019-06-23T09:36:48.000Z</time>
      </trkpt>
      <trkpt lat="45.68546" lon="3.12158">
        <ele>625</ele>
        <time>2019-06-23T09:36:49.000Z</time>
      </trkpt>
      <trkpt lat="45.68546" lon="3.12166">
        <ele>624</ele>
        <time>2019-06-23T09:36:50.000Z</time>
      </trkpt>
      <trkpt lat="45.68545" lon="3.12173">
        <ele>622</ele>
        <time>2019-06-23T09:36:51.000Z</time>
      </trkpt>
      <trkpt lat="45.68544" lon="3.12181">
        <ele>621</ele>
        <time>2019-06-23T09:36:52.000Z</time>
      </trkpt>
      <trkpt lat="45.68544" lon="3.12188">
        <ele>620</ele>
        <time>2019-06-23T09:36:53.000Z</time>
      </trkpt>
      <trkpt lat="45.68543" lon="3.12197">
        <ele>619</ele>
        <time>2019-06-23T09:36:54.000Z</time>
      </trkpt>
      <trkpt lat="45.68542" lon="3.12206">
        <ele>619</ele>
        <time>2019-06-23T09:36:55.000Z</time>
      </trkpt>
      <trkpt lat="45.68541" lon="3.12215">
        <ele>618</ele>
        <time>2019-06-23T09:36:56.000Z</time>
      </trkpt>
      <trkpt lat="45.6854" lon="3.12224">
        <ele>617</ele>
        <time>2019-06-23T09:36:57.000Z</time>
      </trkpt>
      <trkpt lat="45.68539" lon="3.12233">
        <ele>616</ele>
        <time>2019-06-23T09:36:58.000Z</time>
      </trkpt>
      <trkpt lat="45.68537" lon="3.12241">
        <ele>615</ele>
        <time>2019-06-23T09:36:59.000Z</time>
      </trkpt>
      <trkpt lat="45.68535" lon="3.12249">
        <ele>613</ele>
        <time>2019-06-23T09:37:00.000Z</time>
      </trkpt>
      <trkpt lat="45.68533" lon="3.12259">
        <ele>612</ele>
        <time>2019-06-23T09:37:01.000Z</time>
      </trkpt>
      <trkpt lat="45.68533" lon="3.12269">
        <ele>610</ele>
        <time>2019-06-23T09:37:02.000Z</time>
      </trkpt>
      <trkpt lat="45.68532" lon="3.12278">
        <ele>609</ele>
        <time>2019-06-23T09:37:03.000Z</time>
      </trkpt>
      <trkpt lat="45.6853" lon="3.12287">
        <ele>608</ele>
        <time>2019-06-23T09:37:04.000Z</time>
      </trkpt>
      <trkpt lat="45.68528" lon="3.12297">
        <ele>608</ele>
        <time>2019-06-23T09:37:05.000Z</time>
      </trkpt>
      <trkpt lat="45.68526" lon="3.12305">
        <ele>608</ele>
        <time>2019-06-23T09:37:06.000Z</time>
      </trkpt>
      <trkpt lat="45.68522" lon="3.12313">
        <ele>611</ele>
        <time>2019-06-23T09:37:07.000Z</time>
      </trkpt>
      <trkpt lat="45.68519" lon="3.12319">
        <ele>610</ele>
        <time>2019-06-23T09:37:08.000Z</time>
      </trkpt>
      <trkpt lat="45.68516" lon="3.12324">
        <ele>610</ele>
        <time>2019-06-23T09:37:09.000Z</time>
      </trkpt>
      <trkpt lat="45.68512" lon="3.1233">
        <ele>610</ele>
        <time>2019-06-23T09:37:10.000Z</time>
      </trkpt>
      <trkpt lat="45.68509" lon="3.12335">
        <ele>610</ele>
        <time>2019-06-23T09:37:11.000Z</time>
      </trkpt>
      <trkpt lat="45.68505" lon="3.12341">
        <ele>610</ele>
        <time>2019-06-23T09:37:12.000Z</time>
      </trkpt>
      <trkpt lat="45.68501" lon="3.12347">
        <ele>610</ele>
        <time>2019-06-23T09:37:13.000Z</time>
      </trkpt>
      <trkpt lat="45.68498" lon="3.12353">
        <ele>610</ele>
        <time>2019-06-23T09:37:14.000Z</time>
      </trkpt>
      <trkpt lat="45.68494" lon="3.12359">
        <ele>610</ele>
        <time>2019-06-23T09:37:15.000Z</time>
      </trkpt>
      <trkpt lat="45.6849" lon="3.12363">
        <ele>610</ele>
        <time>2019-06-23T09:37:16.000Z</time>
      </trkpt>
      <trkpt lat="45.68486" lon="3.12365">
        <ele>610</ele>
        <time>2019-06-23T09:37:17.000Z</time>
      </trkpt>
      <trkpt lat="45.68481" lon="3.12365">
        <ele>609</ele>
        <time>2019-06-23T09:37:18.000Z</time>
      </trkpt>
      <trkpt lat="45.68477" lon="3.12365">
        <ele>610</ele>
        <time>2019-06-23T09:37:19.000Z</time>
      </trkpt>
      <trkpt lat="45.68473" lon="3.12363">
        <ele>611</ele>
        <time>2019-06-23T09:37:20.000Z</time>
      </trkpt>
      <trkpt lat="45.68469" lon="3.12361">
        <ele>611</ele>
        <time>2019-06-23T09:37:21.000Z</time>
      </trkpt>
      <trkpt lat="45.68468" lon="3.12359">
        <ele>611</ele>
        <time>2019-06-23T09:37:22.000Z</time>
      </trkpt>
      <trkpt lat="45.68466" lon="3.12357">
        <ele>612</ele>
        <time>2019-06-23T09:37:23.000Z</time>
      </trkpt>
      <trkpt lat="45.68464" lon="3.12357">
        <ele>612</ele>
        <time>2019-06-23T09:37:24.000Z</time>
      </trkpt>
      <trkpt lat="45.68462" lon="3.12359">
        <ele>612</ele>
        <time>2019-06-23T09:37:25.000Z</time>
      </trkpt>
      <trkpt lat="45.68462" lon="3.12364">
        <ele>611</ele>
        <time>2019-06-23T09:37:26.000Z</time>
      </trkpt>
      <trkpt lat="45.68463" lon="3.12371">
        <ele>611</ele>
        <time>2019-06-23T09:37:27.000Z</time>
      </trkpt>
      <trkpt lat="45.68463" lon="3.1238">
        <ele>609</ele>
        <time>2019-06-23T09:37:28.000Z</time>
      </trkpt>
      <trkpt lat="45.68464" lon="3.1239">
        <ele>609</ele>
        <time>2019-06-23T09:37:29.000Z</time>
      </trkpt>
      <trkpt lat="45.68466" lon="3.12401">
        <ele>608</ele>
        <time>2019-06-23T09:37:30.000Z</time>
      </trkpt>
      <trkpt lat="45.68467" lon="3.12411">
        <ele>607</ele>
        <time>2019-06-23T09:37:31.000Z</time>
      </trkpt>
      <trkpt lat="45.68469" lon="3.1242">
        <ele>606</ele>
        <time>2019-06-23T09:37:32.000Z</time>
      </trkpt>
      <trkpt lat="45.68471" lon="3.1243">
        <ele>605</ele>
        <time>2019-06-23T09:37:33.000Z</time>
      </trkpt>
      <trkpt lat="45.68473" lon="3.12439">
        <ele>603</ele>
        <time>2019-06-23T09:37:34.000Z</time>
      </trkpt>
      <trkpt lat="45.68475" lon="3.12448">
        <ele>602</ele>
        <time>2019-06-23T09:37:35.000Z</time>
      </trkpt>
      <trkpt lat="45.68477" lon="3.12458">
        <ele>601</ele>
        <time>2019-06-23T09:37:36.000Z</time>
      </trkpt>
      <trkpt lat="45.6848" lon="3.12469">
        <ele>600</ele>
        <time>2019-06-23T09:37:37.000Z</time>
      </trkpt>
      <trkpt lat="45.68483" lon="3.12481">
        <ele>599</ele>
        <time>2019-06-23T09:37:38.000Z</time>
      </trkpt>
      <trkpt lat="45.68486" lon="3.12494">
        <ele>598</ele>
        <time>2019-06-23T09:37:39.000Z</time>
      </trkpt>
      <trkpt lat="45.6849" lon="3.12506">
        <ele>597</ele>
        <time>2019-06-23T09:37:40.000Z</time>
      </trkpt>
      <trkpt lat="45.68493" lon="3.12519">
        <ele>596</ele>
        <time>2019-06-23T09:37:41.000Z</time>
      </trkpt>
      <trkpt lat="45.68496" lon="3.12531">
        <ele>595</ele>
        <time>2019-06-23T09:37:42.000Z</time>
      </trkpt>
      <trkpt lat="45.685" lon="3.12542">
        <ele>594</ele>
        <time>2019-06-23T09:37:43.000Z</time>
      </trkpt>
      <trkpt lat="45.68503" lon="3.12554">
        <ele>593</ele>
        <time>2019-06-23T09:37:44.000Z</time>
      </trkpt>
      <trkpt lat="45.68505" lon="3.12564">
        <ele>593</ele>
        <time>2019-06-23T09:37:45.000Z</time>
      </trkpt>
      <trkpt lat="45.68506" lon="3.12573">
        <ele>592</ele>
        <time>2019-06-23T09:37:46.000Z</time>
      </trkpt>
      <trkpt lat="45.68507" lon="3.12583">
        <ele>592</ele>
        <time>2019-06-23T09:37:47.000Z</time>
      </trkpt>
      <trkpt lat="45.68508" lon="3.12592">
        <ele>592</ele>
        <time>2019-06-23T09:37:48.000Z</time>
      </trkpt>
      <trkpt lat="45.68508" lon="3.12599">
        <ele>592</ele>
        <time>2019-06-23T09:37:49.000Z</time>
      </trkpt>
      <trkpt lat="45.68508" lon="3.12606">
        <ele>592</ele>
        <time>2019-06-23T09:37:50.000Z</time>
      </trkpt>
      <trkpt lat="45.68506" lon="3.12611">
        <ele>590</ele>
        <time>2019-06-23T09:37:51.000Z</time>
      </trkpt>
      <trkpt lat="45.68506" lon="3.12617">
        <ele>590</ele>
        <time>2019-06-23T09:37:52.000Z</time>
      </trkpt>
      <trkpt lat="45.68507" lon="3.12623">
        <ele>589</ele>
        <time>2019-06-23T09:37:53.000Z</time>
      </trkpt>
      <trkpt lat="45.68509" lon="3.12627">
        <ele>592</ele>
        <time>2019-06-23T09:37:54.000Z</time>
      </trkpt>
      <trkpt lat="45.68511" lon="3.12631">
        <ele>592</ele>
        <time>2019-06-23T09:37:55.000Z</time>
      </trkpt>
      <trkpt lat="45.68514" lon="3.12634">
        <ele>593</ele>
        <time>2019-06-23T09:37:56.000Z</time>
      </trkpt>
      <trkpt lat="45.68517" lon="3.12635">
        <ele>592</ele>
        <time>2019-06-23T09:37:57.000Z</time>
      </trkpt>
      <trkpt lat="45.68519" lon="3.12635">
        <ele>593</ele>
        <time>2019-06-23T09:37:58.000Z</time>
      </trkpt>
      <trkpt lat="45.68522" lon="3.12635">
        <ele>593</ele>
        <time>2019-06-23T09:37:59.000Z</time>
      </trkpt>
      <trkpt lat="45.68525" lon="3.12634">
        <ele>593</ele>
        <time>2019-06-23T09:38:00.000Z</time>
      </trkpt>
      <trkpt lat="45.68528" lon="3.12634">
        <ele>593</ele>
        <time>2019-06-23T09:38:01.000Z</time>
      </trkpt>
      <trkpt lat="45.68531" lon="3.12634">
        <ele>594</ele>
        <time>2019-06-23T09:38:02.000Z</time>
      </trkpt>
      <trkpt lat="45.68534" lon="3.12634">
        <ele>594</ele>
        <time>2019-06-23T09:38:03.000Z</time>
      </trkpt>
      <trkpt lat="45.68537" lon="3.12634">
        <ele>594</ele>
        <time>2019-06-23T09:38:04.000Z</time>
      </trkpt>
      <trkpt lat="45.6854" lon="3.12634">
        <ele>595</ele>
        <time>2019-06-23T09:38:05.000Z</time>
      </trkpt>
      <trkpt lat="45.68542" lon="3.12634">
        <ele>594</ele>
        <time>2019-06-23T09:38:06.000Z</time>
      </trkpt>
      <trkpt lat="45.68545" lon="3.12634">
        <ele>595</ele>
        <time>2019-06-23T09:38:07.000Z</time>
      </trkpt>
      <trkpt lat="45.68547" lon="3.12633">
        <ele>595</ele>
        <time>2019-06-23T09:38:08.000Z</time>
      </trkpt>
      <trkpt lat="45.6855" lon="3.12633">
        <ele>595</ele>
        <time>2019-06-23T09:38:09.000Z</time>
      </trkpt>
      <trkpt lat="45.68553" lon="3.12633">
        <ele>595</ele>
        <time>2019-06-23T09:38:10.000Z</time>
      </trkpt>
      <trkpt lat="45.68556" lon="3.12633">
        <ele>595</ele>
        <time>2019-06-23T09:38:11.000Z</time>
      </trkpt>
      <trkpt lat="45.68559" lon="3.12634">
        <ele>595</ele>
        <time>2019-06-23T09:38:12.000Z</time>
      </trkpt>
      <trkpt lat="45.68562" lon="3.12634">
        <ele>595</ele>
        <time>2019-06-23T09:38:13.000Z</time>
      </trkpt>
      <trkpt lat="45.68564" lon="3.12634">
        <ele>595</ele>
        <time>2019-06-23T09:38:14.000Z</time>
      </trkpt>
      <trkpt lat="45.68566" lon="3.12635">
        <ele>595</ele>
        <time>2019-06-23T09:38:15.000Z</time>
      </trkpt>
      <trkpt lat="45.68568" lon="3.12635">
        <ele>596</ele>
        <time>2019-06-23T09:38:16.000Z</time>
      </trkpt>
      <trkpt lat="45.6857" lon="3.12636">
        <ele>595</ele>
        <time>2019-06-23T09:38:17.000Z</time>
      </trkpt>
      <trkpt lat="45.68571" lon="3.12635">
        <ele>592</ele>
        <time>2019-06-23T09:38:18.000Z</time>
      </trkpt>
      <trkpt lat="45.68573" lon="3.12637">
        <ele>593</ele>
        <time>2019-06-23T09:38:19.000Z</time>
      </trkpt>
      <trkpt lat="45.68575" lon="3.12639">
        <ele>593</ele>
        <time>2019-06-23T09:38:20.000Z</time>
      </trkpt>
      <trkpt lat="45.68577" lon="3.12641">
        <ele>593</ele>
        <time>2019-06-23T09:38:21.000Z</time>
      </trkpt>
      <trkpt lat="45.6858" lon="3.12644">
        <ele>592</ele>
        <time>2019-06-23T09:38:22.000Z</time>
      </trkpt>
      <trkpt lat="45.68582" lon="3.12649">
        <ele>591</ele>
        <time>2019-06-23T09:38:23.000Z</time>
      </trkpt>
      <trkpt lat="45.68584" lon="3.12655">
        <ele>591</ele>
        <time>2019-06-23T09:38:24.000Z</time>
      </trkpt>
      <trkpt lat="45.68587" lon="3.1266">
        <ele>590</ele>
        <time>2019-06-23T09:38:25.000Z</time>
      </trkpt>
      <trkpt lat="45.68589" lon="3.12666">
        <ele>589</ele>
        <time>2019-06-23T09:38:26.000Z</time>
      </trkpt>
      <trkpt lat="45.68592" lon="3.12672">
        <ele>589</ele>
        <time>2019-06-23T09:38:27.000Z</time>
      </trkpt>
      <trkpt lat="45.68594" lon="3.12676">
        <ele>588</ele>
        <time>2019-06-23T09:38:28.000Z</time>
      </trkpt>
      <trkpt lat="45.68597" lon="3.12681">
        <ele>588</ele>
        <time>2019-06-23T09:38:29.000Z</time>
      </trkpt>
      <trkpt lat="45.68599" lon="3.12686">
        <ele>588</ele>
        <time>2019-06-23T09:38:30.000Z</time>
      </trkpt>
      <trkpt lat="45.68602" lon="3.12693">
        <ele>586</ele>
        <time>2019-06-23T09:38:31.000Z</time>
      </trkpt>
      <trkpt lat="45.68605" lon="3.127">
        <ele>587</ele>
        <time>2019-06-23T09:38:32.000Z</time>
      </trkpt>
      <trkpt lat="45.68609" lon="3.12708">
        <ele>586</ele>
        <time>2019-06-23T09:38:33.000Z</time>
      </trkpt>
      <trkpt lat="45.68611" lon="3.12714">
        <ele>586</ele>
        <time>2019-06-23T09:38:34.000Z</time>
      </trkpt>
      <trkpt lat="45.68614" lon="3.1272">
        <ele>586</ele>
        <time>2019-06-23T09:38:35.000Z</time>
      </trkpt>
      <trkpt lat="45.68616" lon="3.12724">
        <ele>586</ele>
        <time>2019-06-23T09:38:36.000Z</time>
      </trkpt>
      <trkpt lat="45.68617" lon="3.12729">
        <ele>585</ele>
        <time>2019-06-23T09:38:37.000Z</time>
      </trkpt>
      <trkpt lat="45.68619" lon="3.12733">
        <ele>585</ele>
        <time>2019-06-23T09:38:38.000Z</time>
      </trkpt>
      <trkpt lat="45.68621" lon="3.12736">
        <ele>585</ele>
        <time>2019-06-23T09:38:39.000Z</time>
      </trkpt>
      <trkpt lat="45.68627" lon="3.12732">
        <ele>586</ele>
        <time>2019-06-23T09:38:40.000Z</time>
      </trkpt>
      <trkpt lat="45.68637" lon="3.12723">
        <ele>587</ele>
        <time>2019-06-23T09:38:41.000Z</time>
      </trkpt>
      <trkpt lat="45.68642" lon="3.12721">
        <ele>587</ele>
        <time>2019-06-23T09:38:42.000Z</time>
      </trkpt>
      <trkpt lat="45.68647" lon="3.12719">
        <ele>588</ele>
        <time>2019-06-23T09:38:43.000Z</time>
      </trkpt>
      <trkpt lat="45.68652" lon="3.12718">
        <ele>589</ele>
        <time>2019-06-23T09:38:44.000Z</time>
      </trkpt>
      <trkpt lat="45.68656" lon="3.12718">
        <ele>590</ele>
        <time>2019-06-23T09:38:45.000Z</time>
      </trkpt>
      <trkpt lat="45.68659" lon="3.12717">
        <ele>591</ele>
        <time>2019-06-23T09:38:46.000Z</time>
      </trkpt>
      <trkpt lat="45.68658" lon="3.12721">
        <ele>596</ele>
        <time>2019-06-23T09:38:47.000Z</time>
      </trkpt>
      <trkpt lat="45.6866" lon="3.12728">
        <ele>596</ele>
        <time>2019-06-23T09:38:48.000Z</time>
      </trkpt>
      <trkpt lat="45.68662" lon="3.1273">
        <ele>597</ele>
        <time>2019-06-23T09:38:49.000Z</time>
      </trkpt>
      <trkpt lat="45.68663" lon="3.12734">
        <ele>597</ele>
        <time>2019-06-23T09:38:50.000Z</time>
      </trkpt>
      <trkpt lat="45.68665" lon="3.12738">
        <ele>598</ele>
        <time>2019-06-23T09:38:51.000Z</time>
      </trkpt>
      <trkpt lat="45.68667" lon="3.12741">
        <ele>599</ele>
        <time>2019-06-23T09:38:52.000Z</time>
      </trkpt>
      <trkpt lat="45.68668" lon="3.12744">
        <ele>599</ele>
        <time>2019-06-23T09:38:53.000Z</time>
      </trkpt>
      <trkpt lat="45.6867" lon="3.12749">
        <ele>600</ele>
        <time>2019-06-23T09:38:54.000Z</time>
      </trkpt>
      <trkpt lat="45.6867" lon="3.12755">
        <ele>602</ele>
        <time>2019-06-23T09:38:55.000Z</time>
      </trkpt>
      <trkpt lat="45.68673" lon="3.12759">
        <ele>599</ele>
        <time>2019-06-23T09:38:56.000Z</time>
      </trkpt>
      <trkpt lat="45.68676" lon="3.12759">
        <ele>596</ele>
        <time>2019-06-23T09:38:57.000Z</time>
      </trkpt>
      <trkpt lat="45.6868" lon="3.1276">
        <ele>601</ele>
        <time>2019-06-23T09:38:58.000Z</time>
      </trkpt>
      <trkpt lat="45.68683" lon="3.12758">
        <ele>601</ele>
        <time>2019-06-23T09:38:59.000Z</time>
      </trkpt>
      <trkpt lat="45.68687" lon="3.12757">
        <ele>602</ele>
        <time>2019-06-23T09:39:00.000Z</time>
      </trkpt>
      <trkpt lat="45.6869" lon="3.12757">
        <ele>601</ele>
        <time>2019-06-23T09:39:01.000Z</time>
      </trkpt>
      <trkpt lat="45.68694" lon="3.12759">
        <ele>601</ele>
        <time>2019-06-23T09:39:02.000Z</time>
      </trkpt>
      <trkpt lat="45.68697" lon="3.1276">
        <ele>599</ele>
        <time>2019-06-23T09:39:03.000Z</time>
      </trkpt>
      <trkpt lat="45.687" lon="3.12763">
        <ele>598</ele>
        <time>2019-06-23T09:39:04.000Z</time>
      </trkpt>
      <trkpt lat="45.68701" lon="3.12767">
        <ele>596</ele>
        <time>2019-06-23T09:39:05.000Z</time>
      </trkpt>
      <trkpt lat="45.68702" lon="3.12771">
        <ele>595</ele>
        <time>2019-06-23T09:39:06.000Z</time>
      </trkpt>
      <trkpt lat="45.68703" lon="3.12774">
        <ele>594</ele>
        <time>2019-06-23T09:39:07.000Z</time>
      </trkpt>
      <trkpt lat="45.68705" lon="3.12778">
        <ele>594</ele>
        <time>2019-06-23T09:39:08.000Z</time>
      </trkpt>
      <trkpt lat="45.68706" lon="3.12782">
        <ele>594</ele>
        <time>2019-06-23T09:39:09.000Z</time>
      </trkpt>
      <trkpt lat="45.68709" lon="3.12786">
        <ele>595</ele>
        <time>2019-06-23T09:39:10.000Z</time>
      </trkpt>
      <trkpt lat="45.68714" lon="3.12789">
        <ele>595</ele>
        <time>2019-06-23T09:39:11.000Z</time>
      </trkpt>
      <trkpt lat="45.68722" lon="3.12783">
        <ele>592</ele>
        <time>2019-06-23T09:39:12.000Z</time>
      </trkpt>
      <trkpt lat="45.68729" lon="3.12782">
        <ele>590</ele>
        <time>2019-06-23T09:39:13.000Z</time>
      </trkpt>
      <trkpt lat="45.68733" lon="3.12783">
        <ele>591</ele>
        <time>2019-06-23T09:39:14.000Z</time>
      </trkpt>
      <trkpt lat="45.68738" lon="3.12781">
        <ele>588</ele>
        <time>2019-06-23T09:39:15.000Z</time>
      </trkpt>
      <trkpt lat="45.68743" lon="3.12779">
        <ele>587</ele>
        <time>2019-06-23T09:39:16.000Z</time>
      </trkpt>
      <trkpt lat="45.68747" lon="3.12778">
        <ele>586</ele>
        <time>2019-06-23T09:39:17.000Z</time>
      </trkpt>
      <trkpt lat="45.68751" lon="3.1278">
        <ele>585</ele>
        <time>2019-06-23T09:39:18.000Z</time>
      </trkpt>
      <trkpt lat="45.68752" lon="3.12783">
        <ele>585</ele>
        <time>2019-06-23T09:39:19.000Z</time>
      </trkpt>
      <trkpt lat="45.68753" lon="3.12789">
        <ele>586</ele>
        <time>2019-06-23T09:39:20.000Z</time>
      </trkpt>
      <trkpt lat="45.68754" lon="3.12795">
        <ele>585</ele>
        <time>2019-06-23T09:39:21.000Z</time>
      </trkpt>
      <trkpt lat="45.68754" lon="3.12801">
        <ele>586</ele>
        <time>2019-06-23T09:39:22.000Z</time>
      </trkpt>
      <trkpt lat="45.68754" lon="3.12808">
        <ele>585</ele>
        <time>2019-06-23T09:39:23.000Z</time>
      </trkpt>
      <trkpt lat="45.68754" lon="3.12815">
        <ele>584</ele>
        <time>2019-06-23T09:39:24.000Z</time>
      </trkpt>
      <trkpt lat="45.68755" lon="3.12823">
        <ele>584</ele>
        <time>2019-06-23T09:39:25.000Z</time>
      </trkpt>
      <trkpt lat="45.68755" lon="3.12832">
        <ele>583</ele>
        <time>2019-06-23T09:39:26.000Z</time>
      </trkpt>
      <trkpt lat="45.68753" lon="3.12841">
        <ele>582</ele>
        <time>2019-06-23T09:39:27.000Z</time>
      </trkpt>
      <trkpt lat="45.68753" lon="3.12851">
        <ele>580</ele>
        <time>2019-06-23T09:39:28.000Z</time>
      </trkpt>
      <trkpt lat="45.68752" lon="3.1286">
        <ele>578</ele>
        <time>2019-06-23T09:39:29.000Z</time>
      </trkpt>
      <trkpt lat="45.68752" lon="3.12869">
        <ele>577</ele>
        <time>2019-06-23T09:39:30.000Z</time>
      </trkpt>
      <trkpt lat="45.68752" lon="3.12877">
        <ele>575</ele>
        <time>2019-06-23T09:39:31.000Z</time>
      </trkpt>
      <trkpt lat="45.68752" lon="3.12883">
        <ele>575</ele>
        <time>2019-06-23T09:39:32.000Z</time>
      </trkpt>
      <trkpt lat="45.68753" lon="3.12889">
        <ele>576</ele>
        <time>2019-06-23T09:39:33.000Z</time>
      </trkpt>
      <trkpt lat="45.68758" lon="3.12893">
        <ele>580</ele>
        <time>2019-06-23T09:39:34.000Z</time>
      </trkpt>
      <trkpt lat="45.68765" lon="3.1289">
        <ele>582</ele>
        <time>2019-06-23T09:39:35.000Z</time>
      </trkpt>
      <trkpt lat="45.68771" lon="3.12885">
        <ele>581</ele>
        <time>2019-06-23T09:39:36.000Z</time>
      </trkpt>
      <trkpt lat="45.68777" lon="3.12882">
        <ele>581</ele>
        <time>2019-06-23T09:39:37.000Z</time>
      </trkpt>
      <trkpt lat="45.68784" lon="3.12879">
        <ele>581</ele>
        <time>2019-06-23T09:39:38.000Z</time>
      </trkpt>
      <trkpt lat="45.68791" lon="3.12877">
        <ele>579</ele>
        <time>2019-06-23T09:39:39.000Z</time>
      </trkpt>
      <trkpt lat="45.68797" lon="3.12877">
        <ele>573</ele>
        <time>2019-06-23T09:39:40.000Z</time>
      </trkpt>
      <trkpt lat="45.68802" lon="3.12877">
        <ele>572</ele>
        <time>2019-06-23T09:39:41.000Z</time>
      </trkpt>
      <trkpt lat="45.68807" lon="3.12877">
        <ele>572</ele>
        <time>2019-06-23T09:39:42.000Z</time>
      </trkpt>
      <trkpt lat="45.68811" lon="3.12877">
        <ele>572</ele>
        <time>2019-06-23T09:39:43.000Z</time>
      </trkpt>
      <trkpt lat="45.68816" lon="3.12878">
        <ele>571</ele>
        <time>2019-06-23T09:39:44.000Z</time>
      </trkpt>
      <trkpt lat="45.68822" lon="3.12878">
        <ele>570</ele>
        <time>2019-06-23T09:39:45.000Z</time>
      </trkpt>
      <trkpt lat="45.68828" lon="3.12877">
        <ele>570</ele>
        <time>2019-06-23T09:39:46.000Z</time>
      </trkpt>
      <trkpt lat="45.68834" lon="3.12875">
        <ele>569</ele>
        <time>2019-06-23T09:39:47.000Z</time>
      </trkpt>
      <trkpt lat="45.68842" lon="3.12867">
        <ele>568</ele>
        <time>2019-06-23T09:39:48.000Z</time>
      </trkpt>
      <trkpt lat="45.68853" lon="3.12862">
        <ele>560</ele>
        <time>2019-06-23T09:39:49.000Z</time>
      </trkpt>
      <trkpt lat="45.68861" lon="3.12856">
        <ele>558</ele>
        <time>2019-06-23T09:39:50.000Z</time>
      </trkpt>
      <trkpt lat="45.68869" lon="3.12851">
        <ele>557</ele>
        <time>2019-06-23T09:39:51.000Z</time>
      </trkpt>
      <trkpt lat="45.68876" lon="3.12846">
        <ele>556</ele>
        <time>2019-06-23T09:39:52.000Z</time>
      </trkpt>
      <trkpt lat="45.68876" lon="3.12845">
        <ele>551</ele>
        <time>2019-06-23T09:39:53.000Z</time>
      </trkpt>
      <trkpt lat="45.68879" lon="3.12844">
        <ele>549</ele>
        <time>2019-06-23T09:39:54.000Z</time>
      </trkpt>
      <trkpt lat="45.68882" lon="3.12841">
        <ele>554</ele>
        <time>2019-06-23T09:39:55.000Z</time>
      </trkpt>
      <trkpt lat="45.68883" lon="3.12836">
        <ele>555</ele>
        <time>2019-06-23T09:39:56.000Z</time>
      </trkpt>
      <trkpt lat="45.68882" lon="3.12831">
        <ele>553</ele>
        <time>2019-06-23T09:39:57.000Z</time>
      </trkpt>
      <trkpt lat="45.68881" lon="3.12826">
        <ele>553</ele>
        <time>2019-06-23T09:39:58.000Z</time>
      </trkpt>
      <trkpt lat="45.68879" lon="3.1282">
        <ele>552</ele>
        <time>2019-06-23T09:39:59.000Z</time>
      </trkpt>
      <trkpt lat="45.68877" lon="3.12815">
        <ele>551</ele>
        <time>2019-06-23T09:40:00.000Z</time>
      </trkpt>
      <trkpt lat="45.68877" lon="3.12809">
        <ele>551</ele>
        <time>2019-06-23T09:40:01.000Z</time>
      </trkpt>
      <trkpt lat="45.68875" lon="3.12803">
        <ele>551</ele>
        <time>2019-06-23T09:40:02.000Z</time>
      </trkpt>
      <trkpt lat="45.68874" lon="3.12796">
        <ele>550</ele>
        <time>2019-06-23T09:40:03.000Z</time>
      </trkpt>
      <trkpt lat="45.68874" lon="3.1279">
        <ele>550</ele>
        <time>2019-06-23T09:40:04.000Z</time>
      </trkpt>
      <trkpt lat="45.68873" lon="3.12783">
        <ele>550</ele>
        <time>2019-06-23T09:40:05.000Z</time>
      </trkpt>
      <trkpt lat="45.68872" lon="3.12777">
        <ele>550</ele>
        <time>2019-06-23T09:40:06.000Z</time>
      </trkpt>
      <trkpt lat="45.68871" lon="3.1277">
        <ele>550</ele>
        <time>2019-06-23T09:40:07.000Z</time>
      </trkpt>
      <trkpt lat="45.6887" lon="3.12763">
        <ele>550</ele>
        <time>2019-06-23T09:40:08.000Z</time>
      </trkpt>
      <trkpt lat="45.68869" lon="3.12757">
        <ele>549</ele>
        <time>2019-06-23T09:40:09.000Z</time>
      </trkpt>
      <trkpt lat="45.6887" lon="3.12751">
        <ele>549</ele>
        <time>2019-06-23T09:40:10.000Z</time>
      </trkpt>
      <trkpt lat="45.68873" lon="3.12747">
        <ele>550</ele>
        <time>2019-06-23T09:40:11.000Z</time>
      </trkpt>
      <trkpt lat="45.68876" lon="3.12744">
        <ele>551</ele>
        <time>2019-06-23T09:40:12.000Z</time>
      </trkpt>
      <trkpt lat="45.6888" lon="3.12742">
        <ele>551</ele>
        <time>2019-06-23T09:40:13.000Z</time>
      </trkpt>
      <trkpt lat="45.68886" lon="3.1274">
        <ele>551</ele>
        <time>2019-06-23T09:40:14.000Z</time>
      </trkpt>
      <trkpt lat="45.6889" lon="3.1274">
        <ele>551</ele>
        <time>2019-06-23T09:40:15.000Z</time>
      </trkpt>
      <trkpt lat="45.68895" lon="3.12739">
        <ele>551</ele>
        <time>2019-06-23T09:40:16.000Z</time>
      </trkpt>
      <trkpt lat="45.68899" lon="3.1274">
        <ele>552</ele>
        <time>2019-06-23T09:40:17.000Z</time>
      </trkpt>
      <trkpt lat="45.68903" lon="3.12744">
        <ele>553</ele>
        <time>2019-06-23T09:40:18.000Z</time>
      </trkpt>
      <trkpt lat="45.68907" lon="3.12745">
        <ele>553</ele>
        <time>2019-06-23T09:40:19.000Z</time>
      </trkpt>
      <trkpt lat="45.68911" lon="3.12746">
        <ele>553</ele>
        <time>2019-06-23T09:40:20.000Z</time>
      </trkpt>
      <trkpt lat="45.68915" lon="3.12747">
        <ele>553</ele>
        <time>2019-06-23T09:40:21.000Z</time>
      </trkpt>
      <trkpt lat="45.68919" lon="3.12748">
        <ele>554</ele>
        <time>2019-06-23T09:40:22.000Z</time>
      </trkpt>
      <trkpt lat="45.68923" lon="3.12749">
        <ele>554</ele>
        <time>2019-06-23T09:40:23.000Z</time>
      </trkpt>
      <trkpt lat="45.68927" lon="3.1275">
        <ele>555</ele>
        <time>2019-06-23T09:40:24.000Z</time>
      </trkpt>
      <trkpt lat="45.68933" lon="3.12752">
        <ele>560</ele>
        <time>2019-06-23T09:40:25.000Z</time>
      </trkpt>
      <trkpt lat="45.6894" lon="3.12755">
        <ele>560</ele>
        <time>2019-06-23T09:40:26.000Z</time>
      </trkpt>
      <trkpt lat="45.68946" lon="3.12757">
        <ele>560</ele>
        <time>2019-06-23T09:40:27.000Z</time>
      </trkpt>
      <trkpt lat="45.68952" lon="3.12759">
        <ele>558</ele>
        <time>2019-06-23T09:40:28.000Z</time>
      </trkpt>
      <trkpt lat="45.68957" lon="3.1276">
        <ele>557</ele>
        <time>2019-06-23T09:40:29.000Z</time>
      </trkpt>
      <trkpt lat="45.68963" lon="3.12762">
        <ele>550</ele>
        <time>2019-06-23T09:40:30.000Z</time>
      </trkpt>
      <trkpt lat="45.68969" lon="3.12764">
        <ele>549</ele>
        <time>2019-06-23T09:40:31.000Z</time>
      </trkpt>
      <trkpt lat="45.68975" lon="3.12765">
        <ele>549</ele>
        <time>2019-06-23T09:40:32.000Z</time>
      </trkpt>
      <trkpt lat="45.68981" lon="3.12766">
        <ele>543</ele>
        <time>2019-06-23T09:40:33.000Z</time>
      </trkpt>
      <trkpt lat="45.68987" lon="3.12766">
        <ele>539</ele>
        <time>2019-06-23T09:40:34.000Z</time>
      </trkpt>
      <trkpt lat="45.68991" lon="3.12765">
        <ele>536</ele>
        <time>2019-06-23T09:40:35.000Z</time>
      </trkpt>
      <trkpt lat="45.68995" lon="3.12765">
        <ele>535</ele>
        <time>2019-06-23T09:40:36.000Z</time>
      </trkpt>
      <trkpt lat="45.69" lon="3.12764">
        <ele>534</ele>
        <time>2019-06-23T09:40:37.000Z</time>
      </trkpt>
      <trkpt lat="45.69005" lon="3.12761">
        <ele>532</ele>
        <time>2019-06-23T09:40:38.000Z</time>
      </trkpt>
      <trkpt lat="45.69011" lon="3.12758">
        <ele>530</ele>
        <time>2019-06-23T09:40:39.000Z</time>
      </trkpt>
      <trkpt lat="45.69018" lon="3.12755">
        <ele>528</ele>
        <time>2019-06-23T09:40:40.000Z</time>
      </trkpt>
      <trkpt lat="45.69025" lon="3.12751">
        <ele>526</ele>
        <time>2019-06-23T09:40:41.000Z</time>
      </trkpt>
      <trkpt lat="45.69032" lon="3.12748">
        <ele>525</ele>
        <time>2019-06-23T09:40:42.000Z</time>
      </trkpt>
      <trkpt lat="45.69039" lon="3.12745">
        <ele>523</ele>
        <time>2019-06-23T09:40:43.000Z</time>
      </trkpt>
      <trkpt lat="45.69047" lon="3.12741">
        <ele>522</ele>
        <time>2019-06-23T09:40:44.000Z</time>
      </trkpt>
      <trkpt lat="45.69054" lon="3.12737">
        <ele>521</ele>
        <time>2019-06-23T09:40:45.000Z</time>
      </trkpt>
      <trkpt lat="45.69061" lon="3.12733">
        <ele>519</ele>
        <time>2019-06-23T09:40:46.000Z</time>
      </trkpt>
      <trkpt lat="45.69068" lon="3.1273">
        <ele>519</ele>
        <time>2019-06-23T09:40:47.000Z</time>
      </trkpt>
      <trkpt lat="45.69075" lon="3.12726">
        <ele>519</ele>
        <time>2019-06-23T09:40:48.000Z</time>
      </trkpt>
      <trkpt lat="45.6908" lon="3.12723">
        <ele>519</ele>
        <time>2019-06-23T09:40:49.000Z</time>
      </trkpt>
      <trkpt lat="45.69086" lon="3.12722">
        <ele>517</ele>
        <time>2019-06-23T09:40:50.000Z</time>
      </trkpt>
      <trkpt lat="45.69092" lon="3.12719">
        <ele>516</ele>
        <time>2019-06-23T09:40:51.000Z</time>
      </trkpt>
      <trkpt lat="45.69098" lon="3.12716">
        <ele>516</ele>
        <time>2019-06-23T09:40:52.000Z</time>
      </trkpt>
      <trkpt lat="45.69104" lon="3.12713">
        <ele>517</ele>
        <time>2019-06-23T09:40:53.000Z</time>
      </trkpt>
      <trkpt lat="45.6911" lon="3.12711">
        <ele>515</ele>
        <time>2019-06-23T09:40:54.000Z</time>
      </trkpt>
      <trkpt lat="45.69117" lon="3.12709">
        <ele>516</ele>
        <time>2019-06-23T09:40:55.000Z</time>
      </trkpt>
      <trkpt lat="45.69123" lon="3.12705">
        <ele>516</ele>
        <time>2019-06-23T09:40:56.000Z</time>
      </trkpt>
      <trkpt lat="45.6913" lon="3.12702">
        <ele>517</ele>
        <time>2019-06-23T09:40:57.000Z</time>
      </trkpt>
      <trkpt lat="45.69136" lon="3.12698">
        <ele>517</ele>
        <time>2019-06-23T09:40:58.000Z</time>
      </trkpt>
      <trkpt lat="45.69142" lon="3.12695">
        <ele>518</ele>
        <time>2019-06-23T09:40:59.000Z</time>
      </trkpt>
      <trkpt lat="45.69145" lon="3.12693">
        <ele>520</ele>
        <time>2019-06-23T09:41:00.000Z</time>
      </trkpt>
      <trkpt lat="45.69147" lon="3.12692">
        <ele>522</ele>
        <time>2019-06-23T09:41:01.000Z</time>
      </trkpt>
      <trkpt lat="45.6915" lon="3.12691">
        <ele>522</ele>
        <time>2019-06-23T09:41:02.000Z</time>
      </trkpt>
      <trkpt lat="45.69154" lon="3.12691">
        <ele>521</ele>
        <time>2019-06-23T09:41:03.000Z</time>
      </trkpt>
      <trkpt lat="45.6916" lon="3.12691">
        <ele>515</ele>
        <time>2019-06-23T09:41:04.000Z</time>
      </trkpt>
      <trkpt lat="45.69166" lon="3.1269">
        <ele>513</ele>
        <time>2019-06-23T09:41:05.000Z</time>
      </trkpt>
      <trkpt lat="45.69172" lon="3.12689">
        <ele>511</ele>
        <time>2019-06-23T09:41:06.000Z</time>
      </trkpt>
      <trkpt lat="45.69178" lon="3.12688">
        <ele>508</ele>
        <time>2019-06-23T09:41:07.000Z</time>
      </trkpt>
      <trkpt lat="45.69184" lon="3.12687">
        <ele>507</ele>
        <time>2019-06-23T09:41:08.000Z</time>
      </trkpt>
      <trkpt lat="45.6919" lon="3.12686">
        <ele>506</ele>
        <time>2019-06-23T09:41:09.000Z</time>
      </trkpt>
      <trkpt lat="45.69197" lon="3.12685">
        <ele>506</ele>
        <time>2019-06-23T09:41:10.000Z</time>
      </trkpt>
      <trkpt lat="45.69203" lon="3.12685">
        <ele>505</ele>
        <time>2019-06-23T09:41:11.000Z</time>
      </trkpt>
      <trkpt lat="45.69208" lon="3.12685">
        <ele>504</ele>
        <time>2019-06-23T09:41:12.000Z</time>
      </trkpt>
      <trkpt lat="45.69214" lon="3.12687">
        <ele>503</ele>
        <time>2019-06-23T09:41:13.000Z</time>
      </trkpt>
      <trkpt lat="45.6922" lon="3.12689">
        <ele>501</ele>
        <time>2019-06-23T09:41:14.000Z</time>
      </trkpt>
      <trkpt lat="45.69227" lon="3.12693">
        <ele>499</ele>
        <time>2019-06-23T09:41:15.000Z</time>
      </trkpt>
      <trkpt lat="45.69233" lon="3.12695">
        <ele>498</ele>
        <time>2019-06-23T09:41:16.000Z</time>
      </trkpt>
      <trkpt lat="45.69239" lon="3.12697">
        <ele>496</ele>
        <time>2019-06-23T09:41:17.000Z</time>
      </trkpt>
      <trkpt lat="45.69245" lon="3.12698">
        <ele>495</ele>
        <time>2019-06-23T09:41:18.000Z</time>
      </trkpt>
      <trkpt lat="45.69251" lon="3.12696">
        <ele>492</ele>
        <time>2019-06-23T09:41:19.000Z</time>
      </trkpt>
      <trkpt lat="45.69257" lon="3.12694">
        <ele>490</ele>
        <time>2019-06-23T09:41:20.000Z</time>
      </trkpt>
      <trkpt lat="45.69263" lon="3.12692">
        <ele>490</ele>
        <time>2019-06-23T09:41:21.000Z</time>
      </trkpt>
      <trkpt lat="45.6927" lon="3.12688">
        <ele>488</ele>
        <time>2019-06-23T09:41:22.000Z</time>
      </trkpt>
      <trkpt lat="45.69277" lon="3.12683">
        <ele>487</ele>
        <time>2019-06-23T09:41:23.000Z</time>
      </trkpt>
      <trkpt lat="45.69285" lon="3.12679">
        <ele>486</ele>
        <time>2019-06-23T09:41:24.000Z</time>
      </trkpt>
      <trkpt lat="45.69292" lon="3.12674">
        <ele>485</ele>
        <time>2019-06-23T09:41:25.000Z</time>
      </trkpt>
      <trkpt lat="45.693" lon="3.12669">
        <ele>485</ele>
        <time>2019-06-23T09:41:26.000Z</time>
      </trkpt>
      <trkpt lat="45.69308" lon="3.12664">
        <ele>484</ele>
        <time>2019-06-23T09:41:27.000Z</time>
      </trkpt>
      <trkpt lat="45.69317" lon="3.1266">
        <ele>483</ele>
        <time>2019-06-23T09:41:28.000Z</time>
      </trkpt>
      <trkpt lat="45.69325" lon="3.12655">
        <ele>482</ele>
        <time>2019-06-23T09:41:29.000Z</time>
      </trkpt>
      <trkpt lat="45.69333" lon="3.12651">
        <ele>481</ele>
        <time>2019-06-23T09:41:30.000Z</time>
      </trkpt>
      <trkpt lat="45.69342" lon="3.12646">
        <ele>480</ele>
        <time>2019-06-23T09:41:31.000Z</time>
      </trkpt>
      <trkpt lat="45.6935" lon="3.12641">
        <ele>479</ele>
        <time>2019-06-23T09:41:32.000Z</time>
      </trkpt>
      <trkpt lat="45.69358" lon="3.12636">
        <ele>478</ele>
        <time>2019-06-23T09:41:33.000Z</time>
      </trkpt>
      <trkpt lat="45.69366" lon="3.12631">
        <ele>477</ele>
        <time>2019-06-23T09:41:34.000Z</time>
      </trkpt>
      <trkpt lat="45.69375" lon="3.12627">
        <ele>476</ele>
        <time>2019-06-23T09:41:35.000Z</time>
      </trkpt>
      <trkpt lat="45.69383" lon="3.12627">
        <ele>475</ele>
        <time>2019-06-23T09:41:36.000Z</time>
      </trkpt>
      <trkpt lat="45.69393" lon="3.12628">
        <ele>475</ele>
        <time>2019-06-23T09:41:37.000Z</time>
      </trkpt>
      <trkpt lat="45.69402" lon="3.12629">
        <ele>474</ele>
        <time>2019-06-23T09:41:38.000Z</time>
      </trkpt>
      <trkpt lat="45.69411" lon="3.12631">
        <ele>474</ele>
        <time>2019-06-23T09:41:39.000Z</time>
      </trkpt>
      <trkpt lat="45.6942" lon="3.12632">
        <ele>473</ele>
        <time>2019-06-23T09:41:40.000Z</time>
      </trkpt>
      <trkpt lat="45.69429" lon="3.12632">
        <ele>472</ele>
        <time>2019-06-23T09:41:41.000Z</time>
      </trkpt>
      <trkpt lat="45.69437" lon="3.12633">
        <ele>472</ele>
        <time>2019-06-23T09:41:42.000Z</time>
      </trkpt>
      <trkpt lat="45.69443" lon="3.12634">
        <ele>472</ele>
        <time>2019-06-23T09:41:43.000Z</time>
      </trkpt>
      <trkpt lat="45.69448" lon="3.12633">
        <ele>472</ele>
        <time>2019-06-23T09:41:44.000Z</time>
      </trkpt>
      <trkpt lat="45.69451" lon="3.12633">
        <ele>471</ele>
        <time>2019-06-23T09:41:45.000Z</time>
      </trkpt>
      <trkpt lat="45.69454" lon="3.12636">
        <ele>471</ele>
        <time>2019-06-23T09:41:46.000Z</time>
      </trkpt>
      <trkpt lat="45.69454" lon="3.1264">
        <ele>470</ele>
        <time>2019-06-23T09:41:47.000Z</time>
      </trkpt>
      <trkpt lat="45.69454" lon="3.12644">
        <ele>470</ele>
        <time>2019-06-23T09:41:48.000Z</time>
      </trkpt>
      <trkpt lat="45.69453" lon="3.12647">
        <ele>470</ele>
        <time>2019-06-23T09:41:49.000Z</time>
      </trkpt>
      <trkpt lat="45.69451" lon="3.12652">
        <ele>470</ele>
        <time>2019-06-23T09:41:50.000Z</time>
      </trkpt>
      <trkpt lat="45.69449" lon="3.12658">
        <ele>469</ele>
        <time>2019-06-23T09:41:51.000Z</time>
      </trkpt>
      <trkpt lat="45.69448" lon="3.12665">
        <ele>469</ele>
        <time>2019-06-23T09:41:52.000Z</time>
      </trkpt>
      <trkpt lat="45.69446" lon="3.12672">
        <ele>469</ele>
        <time>2019-06-23T09:41:53.000Z</time>
      </trkpt>
      <trkpt lat="45.69445" lon="3.12679">
        <ele>469</ele>
        <time>2019-06-23T09:41:54.000Z</time>
      </trkpt>
      <trkpt lat="45.69443" lon="3.12686">
        <ele>469</ele>
        <time>2019-06-23T09:41:55.000Z</time>
      </trkpt>
      <trkpt lat="45.69441" lon="3.12693">
        <ele>468</ele>
        <time>2019-06-23T09:41:56.000Z</time>
      </trkpt>
      <trkpt lat="45.6944" lon="3.12699">
        <ele>469</ele>
        <time>2019-06-23T09:41:57.000Z</time>
      </trkpt>
      <trkpt lat="45.69438" lon="3.12706">
        <ele>469</ele>
        <time>2019-06-23T09:41:58.000Z</time>
      </trkpt>
      <trkpt lat="45.69437" lon="3.12712">
        <ele>468</ele>
        <time>2019-06-23T09:41:59.000Z</time>
      </trkpt>
      <trkpt lat="45.69435" lon="3.12719">
        <ele>469</ele>
        <time>2019-06-23T09:42:00.000Z</time>
      </trkpt>
      <trkpt lat="45.69434" lon="3.12725">
        <ele>469</ele>
        <time>2019-06-23T09:42:01.000Z</time>
      </trkpt>
      <trkpt lat="45.69432" lon="3.12731">
        <ele>469</ele>
        <time>2019-06-23T09:42:02.000Z</time>
      </trkpt>
      <trkpt lat="45.69431" lon="3.12737">
        <ele>469</ele>
        <time>2019-06-23T09:42:03.000Z</time>
      </trkpt>
      <trkpt lat="45.6943" lon="3.12742">
        <ele>469</ele>
        <time>2019-06-23T09:42:04.000Z</time>
      </trkpt>
      <trkpt lat="45.69428" lon="3.12749">
        <ele>469</ele>
        <time>2019-06-23T09:42:05.000Z</time>
      </trkpt>
      <trkpt lat="45.69427" lon="3.12755">
        <ele>470</ele>
        <time>2019-06-23T09:42:06.000Z</time>
      </trkpt>
      <trkpt lat="45.69425" lon="3.12761">
        <ele>470</ele>
        <time>2019-06-23T09:42:07.000Z</time>
      </trkpt>
      <trkpt lat="45.69423" lon="3.12767">
        <ele>470</ele>
        <time>2019-06-23T09:42:08.000Z</time>
      </trkpt>
      <trkpt lat="45.69422" lon="3.12773">
        <ele>470</ele>
        <time>2019-06-23T09:42:09.000Z</time>
      </trkpt>
      <trkpt lat="45.6942" lon="3.12779">
        <ele>471</ele>
        <time>2019-06-23T09:42:10.000Z</time>
      </trkpt>
      <trkpt lat="45.69419" lon="3.12784">
        <ele>471</ele>
        <time>2019-06-23T09:42:11.000Z</time>
      </trkpt>
      <trkpt lat="45.69417" lon="3.1279">
        <ele>472</ele>
        <time>2019-06-23T09:42:12.000Z</time>
      </trkpt>
      <trkpt lat="45.69416" lon="3.12795">
        <ele>472</ele>
        <time>2019-06-23T09:42:13.000Z</time>
      </trkpt>
      <trkpt lat="45.69414" lon="3.12801">
        <ele>472</ele>
        <time>2019-06-23T09:42:14.000Z</time>
      </trkpt>
      <trkpt lat="45.69412" lon="3.12806">
        <ele>473</ele>
        <time>2019-06-23T09:42:15.000Z</time>
      </trkpt>
      <trkpt lat="45.6941" lon="3.1281">
        <ele>473</ele>
        <time>2019-06-23T09:42:16.000Z</time>
      </trkpt>
      <trkpt lat="45.69409" lon="3.12815">
        <ele>473</ele>
        <time>2019-06-23T09:42:17.000Z</time>
      </trkpt>
      <trkpt lat="45.69407" lon="3.12819">
        <ele>472</ele>
        <time>2019-06-23T09:42:18.000Z</time>
      </trkpt>
      <trkpt lat="45.69405" lon="3.12823">
        <ele>472</ele>
        <time>2019-06-23T09:42:19.000Z</time>
      </trkpt>
      <trkpt lat="45.69403" lon="3.12828">
        <ele>473</ele>
        <time>2019-06-23T09:42:20.000Z</time>
      </trkpt>
      <trkpt lat="45.69401" lon="3.12833">
        <ele>473</ele>
        <time>2019-06-23T09:42:21.000Z</time>
      </trkpt>
      <trkpt lat="45.69399" lon="3.12837">
        <ele>473</ele>
        <time>2019-06-23T09:42:22.000Z</time>
      </trkpt>
      <trkpt lat="45.69397" lon="3.12842">
        <ele>473</ele>
        <time>2019-06-23T09:42:23.000Z</time>
      </trkpt>
      <trkpt lat="45.69395" lon="3.12846">
        <ele>473</ele>
        <time>2019-06-23T09:42:24.000Z</time>
      </trkpt>
      <trkpt lat="45.69393" lon="3.12851">
        <ele>473</ele>
        <time>2019-06-23T09:42:25.000Z</time>
      </trkpt>
      <trkpt lat="45.69391" lon="3.12855">
        <ele>473</ele>
        <time>2019-06-23T09:42:26.000Z</time>
      </trkpt>
      <trkpt lat="45.69389" lon="3.1286">
        <ele>473</ele>
        <time>2019-06-23T09:42:27.000Z</time>
      </trkpt>
      <trkpt lat="45.69387" lon="3.12864">
        <ele>474</ele>
        <time>2019-06-23T09:42:28.000Z</time>
      </trkpt>
      <trkpt lat="45.69385" lon="3.12869">
        <ele>474</ele>
        <time>2019-06-23T09:42:29.000Z</time>
      </trkpt>
      <trkpt lat="45.69383" lon="3.12874">
        <ele>474</ele>
        <time>2019-06-23T09:42:30.000Z</time>
      </trkpt>
      <trkpt lat="45.69381" lon="3.12878">
        <ele>474</ele>
        <time>2019-06-23T09:42:31.000Z</time>
      </trkpt>
      <trkpt lat="45.69379" lon="3.12883">
        <ele>475</ele>
        <time>2019-06-23T09:42:32.000Z</time>
      </trkpt>
      <trkpt lat="45.69377" lon="3.12887">
        <ele>475</ele>
        <time>2019-06-23T09:42:33.000Z</time>
      </trkpt>
      <trkpt lat="45.69374" lon="3.12892">
        <ele>475</ele>
        <time>2019-06-23T09:42:34.000Z</time>
      </trkpt>
      <trkpt lat="45.69372" lon="3.12896">
        <ele>475</ele>
        <time>2019-06-23T09:42:35.000Z</time>
      </trkpt>
      <trkpt lat="45.6937" lon="3.129">
        <ele>475</ele>
        <time>2019-06-23T09:42:36.000Z</time>
      </trkpt>
      <trkpt lat="45.69367" lon="3.12904">
        <ele>476</ele>
        <time>2019-06-23T09:42:37.000Z</time>
      </trkpt>
      <trkpt lat="45.69365" lon="3.12908">
        <ele>476</ele>
        <time>2019-06-23T09:42:38.000Z</time>
      </trkpt>
      <trkpt lat="45.69364" lon="3.12912">
        <ele>477</ele>
        <time>2019-06-23T09:42:39.000Z</time>
      </trkpt>
      <trkpt lat="45.69363" lon="3.12916">
        <ele>477</ele>
        <time>2019-06-23T09:42:40.000Z</time>
      </trkpt>
      <trkpt lat="45.69362" lon="3.1292">
        <ele>477</ele>
        <time>2019-06-23T09:42:41.000Z</time>
      </trkpt>
      <trkpt lat="45.69363" lon="3.12923">
        <ele>476</ele>
        <time>2019-06-23T09:42:42.000Z</time>
      </trkpt>
      <trkpt lat="45.69366" lon="3.12925">
        <ele>475</ele>
        <time>2019-06-23T09:42:43.000Z</time>
      </trkpt>
      <trkpt lat="45.6937" lon="3.12925">
        <ele>475</ele>
        <time>2019-06-23T09:42:44.000Z</time>
      </trkpt>
      <trkpt lat="45.69374" lon="3.12923">
        <ele>474</ele>
        <time>2019-06-23T09:42:45.000Z</time>
      </trkpt>
      <trkpt lat="45.69378" lon="3.1292">
        <ele>474</ele>
        <time>2019-06-23T09:42:46.000Z</time>
      </trkpt>
      <trkpt lat="45.69383" lon="3.12916">
        <ele>473</ele>
        <time>2019-06-23T09:42:47.000Z</time>
      </trkpt>
      <trkpt lat="45.69389" lon="3.12912">
        <ele>473</ele>
        <time>2019-06-23T09:42:48.000Z</time>
      </trkpt>
      <trkpt lat="45.69395" lon="3.12909">
        <ele>472</ele>
        <time>2019-06-23T09:42:49.000Z</time>
      </trkpt>
      <trkpt lat="45.69402" lon="3.12906">
        <ele>472</ele>
        <time>2019-06-23T09:42:50.000Z</time>
      </trkpt>
      <trkpt lat="45.69409" lon="3.12904">
        <ele>471</ele>
        <time>2019-06-23T09:42:51.000Z</time>
      </trkpt>
      <trkpt lat="45.69416" lon="3.12903">
        <ele>471</ele>
        <time>2019-06-23T09:42:52.000Z</time>
      </trkpt>
      <trkpt lat="45.69425" lon="3.12904">
        <ele>471</ele>
        <time>2019-06-23T09:42:53.000Z</time>
      </trkpt>
      <trkpt lat="45.69433" lon="3.12905">
        <ele>470</ele>
        <time>2019-06-23T09:42:54.000Z</time>
      </trkpt>
      <trkpt lat="45.69442" lon="3.12907">
        <ele>469</ele>
        <time>2019-06-23T09:42:55.000Z</time>
      </trkpt>
      <trkpt lat="45.69451" lon="3.12911">
        <ele>468</ele>
        <time>2019-06-23T09:42:56.000Z</time>
      </trkpt>
      <trkpt lat="45.69459" lon="3.12917">
        <ele>466</ele>
        <time>2019-06-23T09:42:57.000Z</time>
      </trkpt>
      <trkpt lat="45.69466" lon="3.12922">
        <ele>465</ele>
        <time>2019-06-23T09:42:58.000Z</time>
      </trkpt>
      <trkpt lat="45.69471" lon="3.12926">
        <ele>465</ele>
        <time>2019-06-23T09:42:59.000Z</time>
      </trkpt>
      <trkpt lat="45.69476" lon="3.1293">
        <ele>464</ele>
        <time>2019-06-23T09:43:00.000Z</time>
      </trkpt>
      <trkpt lat="45.69481" lon="3.12933">
        <ele>464</ele>
        <time>2019-06-23T09:43:01.000Z</time>
      </trkpt>
      <trkpt lat="45.69486" lon="3.12936">
        <ele>464</ele>
        <time>2019-06-23T09:43:02.000Z</time>
      </trkpt>
      <trkpt lat="45.6949" lon="3.12939">
        <ele>463</ele>
        <time>2019-06-23T09:43:03.000Z</time>
      </trkpt>
      <trkpt lat="45.69492" lon="3.12945">
        <ele>461</ele>
        <time>2019-06-23T09:43:04.000Z</time>
      </trkpt>
      <trkpt lat="45.69492" lon="3.12951">
        <ele>461</ele>
        <time>2019-06-23T09:43:05.000Z</time>
      </trkpt>
      <trkpt lat="45.69492" lon="3.12956">
        <ele>462</ele>
        <time>2019-06-23T09:43:06.000Z</time>
      </trkpt>
      <trkpt lat="45.69492" lon="3.12962">
        <ele>461</ele>
        <time>2019-06-23T09:43:07.000Z</time>
      </trkpt>
      <trkpt lat="45.69492" lon="3.12968">
        <ele>461</ele>
        <time>2019-06-23T09:43:08.000Z</time>
      </trkpt>
      <trkpt lat="45.69492" lon="3.12975">
        <ele>461</ele>
        <time>2019-06-23T09:43:09.000Z</time>
      </trkpt>
      <trkpt lat="45.69491" lon="3.12981">
        <ele>460</ele>
        <time>2019-06-23T09:43:10.000Z</time>
      </trkpt>
      <trkpt lat="45.6949" lon="3.12988">
        <ele>460</ele>
        <time>2019-06-23T09:43:11.000Z</time>
      </trkpt>
      <trkpt lat="45.69488" lon="3.12994">
        <ele>460</ele>
        <time>2019-06-23T09:43:12.000Z</time>
      </trkpt>
      <trkpt lat="45.69488" lon="3.12999">
        <ele>461</ele>
        <time>2019-06-23T09:43:13.000Z</time>
      </trkpt>
      <trkpt lat="45.69487" lon="3.13005">
        <ele>461</ele>
        <time>2019-06-23T09:43:14.000Z</time>
      </trkpt>
      <trkpt lat="45.69487" lon="3.1301">
        <ele>460</ele>
        <time>2019-06-23T09:43:15.000Z</time>
      </trkpt>
      <trkpt lat="45.69486" lon="3.13016">
        <ele>460</ele>
        <time>2019-06-23T09:43:16.000Z</time>
      </trkpt>
      <trkpt lat="45.69485" lon="3.13022">
        <ele>460</ele>
        <time>2019-06-23T09:43:17.000Z</time>
      </trkpt>
      <trkpt lat="45.69485" lon="3.13028">
        <ele>460</ele>
        <time>2019-06-23T09:43:18.000Z</time>
      </trkpt>
      <trkpt lat="45.69484" lon="3.13034">
        <ele>460</ele>
        <time>2019-06-23T09:43:19.000Z</time>
      </trkpt>
      <trkpt lat="45.69484" lon="3.13039">
        <ele>460</ele>
        <time>2019-06-23T09:43:20.000Z</time>
      </trkpt>
      <trkpt lat="45.69483" lon="3.13044">
        <ele>460</ele>
        <time>2019-06-23T09:43:21.000Z</time>
      </trkpt>
      <trkpt lat="45.69483" lon="3.13049">
        <ele>460</ele>
        <time>2019-06-23T09:43:22.000Z</time>
      </trkpt>
      <trkpt lat="45.69483" lon="3.13054">
        <ele>460</ele>
        <time>2019-06-23T09:43:23.000Z</time>
      </trkpt>
      <trkpt lat="45.69482" lon="3.13059">
        <ele>460</ele>
        <time>2019-06-23T09:43:24.000Z</time>
      </trkpt>
      <trkpt lat="45.69482" lon="3.13064">
        <ele>460</ele>
        <time>2019-06-23T09:43:25.000Z</time>
      </trkpt>
      <trkpt lat="45.69482" lon="3.1307">
        <ele>462</ele>
        <time>2019-06-23T09:43:26.000Z</time>
      </trkpt>
      <trkpt lat="45.69482" lon="3.13076">
        <ele>462</ele>
        <time>2019-06-23T09:43:27.000Z</time>
      </trkpt>
      <trkpt lat="45.69481" lon="3.13081">
        <ele>462</ele>
        <time>2019-06-23T09:43:28.000Z</time>
      </trkpt>
      <trkpt lat="45.69481" lon="3.13087">
        <ele>462</ele>
        <time>2019-06-23T09:43:29.000Z</time>
      </trkpt>
      <trkpt lat="45.69481" lon="3.13092">
        <ele>462</ele>
        <time>2019-06-23T09:43:30.000Z</time>
      </trkpt>
      <trkpt lat="45.6948" lon="3.13097">
        <ele>462</ele>
        <time>2019-06-23T09:43:31.000Z</time>
      </trkpt>
      <trkpt lat="45.6948" lon="3.13101">
        <ele>464</ele>
        <time>2019-06-23T09:43:32.000Z</time>
      </trkpt>
      <trkpt lat="45.69479" lon="3.13105">
        <ele>465</ele>
        <time>2019-06-23T09:43:33.000Z</time>
      </trkpt>
      <trkpt lat="45.69479" lon="3.1311">
        <ele>467</ele>
        <time>2019-06-23T09:43:34.000Z</time>
      </trkpt>
      <trkpt lat="45.69479" lon="3.13115">
        <ele>468</ele>
        <time>2019-06-23T09:43:35.000Z</time>
      </trkpt>
      <trkpt lat="45.69479" lon="3.13119">
        <ele>468</ele>
        <time>2019-06-23T09:43:36.000Z</time>
      </trkpt>
      <trkpt lat="45.69479" lon="3.13124">
        <ele>469</ele>
        <time>2019-06-23T09:43:37.000Z</time>
      </trkpt>
      <trkpt lat="45.69478" lon="3.1313">
        <ele>469</ele>
        <time>2019-06-23T09:43:38.000Z</time>
      </trkpt>
      <trkpt lat="45.69479" lon="3.13137">
        <ele>470</ele>
        <time>2019-06-23T09:43:39.000Z</time>
      </trkpt>
      <trkpt lat="45.69479" lon="3.13143">
        <ele>469</ele>
        <time>2019-06-23T09:43:40.000Z</time>
      </trkpt>
      <trkpt lat="45.69479" lon="3.13149">
        <ele>471</ele>
        <time>2019-06-23T09:43:41.000Z</time>
      </trkpt>
      <trkpt lat="45.69479" lon="3.13155">
        <ele>472</ele>
        <time>2019-06-23T09:43:42.000Z</time>
      </trkpt>
      <trkpt lat="45.6948" lon="3.13162">
        <ele>474</ele>
        <time>2019-06-23T09:43:43.000Z</time>
      </trkpt>
      <trkpt lat="45.69479" lon="3.13168">
        <ele>475</ele>
        <time>2019-06-23T09:43:44.000Z</time>
      </trkpt>
      <trkpt lat="45.6948" lon="3.13175">
        <ele>476</ele>
        <time>2019-06-23T09:43:45.000Z</time>
      </trkpt>
      <trkpt lat="45.6948" lon="3.13182">
        <ele>475</ele>
        <time>2019-06-23T09:43:46.000Z</time>
      </trkpt>
      <trkpt lat="45.6948" lon="3.13189">
        <ele>475</ele>
        <time>2019-06-23T09:43:47.000Z</time>
      </trkpt>
      <trkpt lat="45.69481" lon="3.13195">
        <ele>474</ele>
        <time>2019-06-23T09:43:48.000Z</time>
      </trkpt>
      <trkpt lat="45.69481" lon="3.13202">
        <ele>475</ele>
        <time>2019-06-23T09:43:49.000Z</time>
      </trkpt>
      <trkpt lat="45.69481" lon="3.13208">
        <ele>474</ele>
        <time>2019-06-23T09:43:50.000Z</time>
      </trkpt>
      <trkpt lat="45.69481" lon="3.13215">
        <ele>475</ele>
        <time>2019-06-23T09:43:51.000Z</time>
      </trkpt>
      <trkpt lat="45.69481" lon="3.13222">
        <ele>475</ele>
        <time>2019-06-23T09:43:52.000Z</time>
      </trkpt>
      <trkpt lat="45.69481" lon="3.13228">
        <ele>475</ele>
        <time>2019-06-23T09:43:53.000Z</time>
      </trkpt>
      <trkpt lat="45.69481" lon="3.13236">
        <ele>474</ele>
        <time>2019-06-23T09:43:54.000Z</time>
      </trkpt>
      <trkpt lat="45.69481" lon="3.13242">
        <ele>475</ele>
        <time>2019-06-23T09:43:55.000Z</time>
      </trkpt>
      <trkpt lat="45.69481" lon="3.13249">
        <ele>475</ele>
        <time>2019-06-23T09:43:56.000Z</time>
      </trkpt>
      <trkpt lat="45.69481" lon="3.13256">
        <ele>476</ele>
        <time>2019-06-23T09:43:57.000Z</time>
      </trkpt>
      <trkpt lat="45.69481" lon="3.13263">
        <ele>475</ele>
        <time>2019-06-23T09:43:58.000Z</time>
      </trkpt>
      <trkpt lat="45.69482" lon="3.1327">
        <ele>475</ele>
        <time>2019-06-23T09:43:59.000Z</time>
      </trkpt>
      <trkpt lat="45.69482" lon="3.13277">
        <ele>471</ele>
        <time>2019-06-23T09:44:00.000Z</time>
      </trkpt>
      <trkpt lat="45.69483" lon="3.13283">
        <ele>468</ele>
        <time>2019-06-23T09:44:01.000Z</time>
      </trkpt>
      <trkpt lat="45.69483" lon="3.13288">
        <ele>464</ele>
        <time>2019-06-23T09:44:02.000Z</time>
      </trkpt>
      <trkpt lat="45.69485" lon="3.13291">
        <ele>462</ele>
        <time>2019-06-23T09:44:03.000Z</time>
      </trkpt>
      <trkpt lat="45.69488" lon="3.13293">
        <ele>462</ele>
        <time>2019-06-23T09:44:04.000Z</time>
      </trkpt>
      <trkpt lat="45.69489" lon="3.13293">
        <ele>462</ele>
        <time>2019-06-23T09:44:05.000Z</time>
      </trkpt>
      <trkpt lat="45.69492" lon="3.1329">
        <ele>463</ele>
        <time>2019-06-23T09:44:06.000Z</time>
      </trkpt>
      <trkpt lat="45.69495" lon="3.13288">
        <ele>463</ele>
        <time>2019-06-23T09:44:07.000Z</time>
      </trkpt>
      <trkpt lat="45.69498" lon="3.13286">
        <ele>463</ele>
        <time>2019-06-23T09:44:08.000Z</time>
      </trkpt>
      <trkpt lat="45.695" lon="3.1328">
        <ele>464</ele>
        <time>2019-06-23T09:44:09.000Z</time>
      </trkpt>
      <trkpt lat="45.69505" lon="3.13276">
        <ele>463</ele>
        <time>2019-06-23T09:44:10.000Z</time>
      </trkpt>
      <trkpt lat="45.69509" lon="3.13272">
        <ele>462</ele>
        <time>2019-06-23T09:44:11.000Z</time>
      </trkpt>
      <trkpt lat="45.69513" lon="3.13268">
        <ele>462</ele>
        <time>2019-06-23T09:44:12.000Z</time>
      </trkpt>
      <trkpt lat="45.69519" lon="3.13264">
        <ele>461</ele>
        <time>2019-06-23T09:44:13.000Z</time>
      </trkpt>
      <trkpt lat="45.69524" lon="3.1326">
        <ele>461</ele>
        <time>2019-06-23T09:44:14.000Z</time>
      </trkpt>
      <trkpt lat="45.69525" lon="3.13262">
        <ele>462</ele>
        <time>2019-06-23T09:44:15.000Z</time>
      </trkpt>
      <trkpt lat="45.69526" lon="3.13264">
        <ele>461</ele>
        <time>2019-06-23T09:44:16.000Z</time>
      </trkpt>
      <trkpt lat="45.69529" lon="3.13267">
        <ele>461</ele>
        <time>2019-06-23T09:44:17.000Z</time>
      </trkpt>
      <trkpt lat="45.69533" lon="3.13274">
        <ele>458</ele>
        <time>2019-06-23T09:44:18.000Z</time>
      </trkpt>
      <trkpt lat="45.69536" lon="3.13277">
        <ele>455</ele>
        <time>2019-06-23T09:44:19.000Z</time>
      </trkpt>
      <trkpt lat="45.69539" lon="3.13279">
        <ele>452</ele>
        <time>2019-06-23T09:44:20.000Z</time>
      </trkpt>
      <trkpt lat="45.69542" lon="3.13284">
        <ele>449</ele>
        <time>2019-06-23T09:44:21.000Z</time>
      </trkpt>
      <trkpt lat="45.69544" lon="3.1329">
        <ele>448</ele>
        <time>2019-06-23T09:44:22.000Z</time>
      </trkpt>
      <trkpt lat="45.69547" lon="3.13296">
        <ele>446</ele>
        <time>2019-06-23T09:44:23.000Z</time>
      </trkpt>
      <trkpt lat="45.6955" lon="3.13303">
        <ele>447</ele>
        <time>2019-06-23T09:44:24.000Z</time>
      </trkpt>
      <trkpt lat="45.69552" lon="3.13309">
        <ele>446</ele>
        <time>2019-06-23T09:44:25.000Z</time>
      </trkpt>
      <trkpt lat="45.69554" lon="3.13318">
        <ele>447</ele>
        <time>2019-06-23T09:44:26.000Z</time>
      </trkpt>
      <trkpt lat="45.69556" lon="3.13325">
        <ele>447</ele>
        <time>2019-06-23T09:44:27.000Z</time>
      </trkpt>
      <trkpt lat="45.69557" lon="3.13332">
        <ele>447</ele>
        <time>2019-06-23T09:44:28.000Z</time>
      </trkpt>
      <trkpt lat="45.69558" lon="3.13339">
        <ele>449</ele>
        <time>2019-06-23T09:44:29.000Z</time>
      </trkpt>
      <trkpt lat="45.69561" lon="3.13347">
        <ele>449</ele>
        <time>2019-06-23T09:44:30.000Z</time>
      </trkpt>
      <trkpt lat="45.69563" lon="3.13354">
        <ele>449</ele>
        <time>2019-06-23T09:44:31.000Z</time>
      </trkpt>
      <trkpt lat="45.69565" lon="3.13362">
        <ele>448</ele>
        <time>2019-06-23T09:44:32.000Z</time>
      </trkpt>
      <trkpt lat="45.69568" lon="3.13369">
        <ele>448</ele>
        <time>2019-06-23T09:44:33.000Z</time>
      </trkpt>
      <trkpt lat="45.6957" lon="3.13376">
        <ele>448</ele>
        <time>2019-06-23T09:44:34.000Z</time>
      </trkpt>
      <trkpt lat="45.69572" lon="3.13383">
        <ele>449</ele>
        <time>2019-06-23T09:44:35.000Z</time>
      </trkpt>
      <trkpt lat="45.69575" lon="3.13391">
        <ele>449</ele>
        <time>2019-06-23T09:44:36.000Z</time>
      </trkpt>
      <trkpt lat="45.6958" lon="3.13401">
        <ele>449</ele>
        <time>2019-06-23T09:44:37.000Z</time>
      </trkpt>
      <trkpt lat="45.69583" lon="3.1341">
        <ele>448</ele>
        <time>2019-06-23T09:44:38.000Z</time>
      </trkpt>
      <trkpt lat="45.69585" lon="3.13418">
        <ele>448</ele>
        <time>2019-06-23T09:44:39.000Z</time>
      </trkpt>
      <trkpt lat="45.69587" lon="3.13427">
        <ele>449</ele>
        <time>2019-06-23T09:44:40.000Z</time>
      </trkpt>
      <trkpt lat="45.6959" lon="3.13436">
        <ele>448</ele>
        <time>2019-06-23T09:44:41.000Z</time>
      </trkpt>
      <trkpt lat="45.69592" lon="3.13444">
        <ele>448</ele>
        <time>2019-06-23T09:44:42.000Z</time>
      </trkpt>
      <trkpt lat="45.69594" lon="3.13453">
        <ele>449</ele>
        <time>2019-06-23T09:44:43.000Z</time>
      </trkpt>
      <trkpt lat="45.69596" lon="3.13461">
        <ele>449</ele>
        <time>2019-06-23T09:44:44.000Z</time>
      </trkpt>
      <trkpt lat="45.69598" lon="3.13469">
        <ele>449</ele>
        <time>2019-06-23T09:44:45.000Z</time>
      </trkpt>
      <trkpt lat="45.696" lon="3.13478">
        <ele>449</ele>
        <time>2019-06-23T09:44:46.000Z</time>
      </trkpt>
      <trkpt lat="45.69601" lon="3.13487">
        <ele>448</ele>
        <time>2019-06-23T09:44:47.000Z</time>
      </trkpt>
      <trkpt lat="45.69603" lon="3.13496">
        <ele>449</ele>
        <time>2019-06-23T09:44:48.000Z</time>
      </trkpt>
      <trkpt lat="45.69605" lon="3.13504">
        <ele>449</ele>
        <time>2019-06-23T09:44:49.000Z</time>
      </trkpt>
      <trkpt lat="45.69606" lon="3.13513">
        <ele>448</ele>
        <time>2019-06-23T09:44:50.000Z</time>
      </trkpt>
      <trkpt lat="45.69607" lon="3.13522">
        <ele>448</ele>
        <time>2019-06-23T09:44:51.000Z</time>
      </trkpt>
      <trkpt lat="45.69608" lon="3.13531">
        <ele>448</ele>
        <time>2019-06-23T09:44:52.000Z</time>
      </trkpt>
      <trkpt lat="45.69609" lon="3.1354">
        <ele>448</ele>
        <time>2019-06-23T09:44:53.000Z</time>
      </trkpt>
      <trkpt lat="45.6961" lon="3.13549">
        <ele>448</ele>
        <time>2019-06-23T09:44:54.000Z</time>
      </trkpt>
      <trkpt lat="45.69611" lon="3.13557">
        <ele>448</ele>
        <time>2019-06-23T09:44:55.000Z</time>
      </trkpt>
      <trkpt lat="45.69612" lon="3.13566">
        <ele>448</ele>
        <time>2019-06-23T09:44:56.000Z</time>
      </trkpt>
      <trkpt lat="45.69614" lon="3.13575">
        <ele>447</ele>
        <time>2019-06-23T09:44:57.000Z</time>
      </trkpt>
      <trkpt lat="45.69615" lon="3.13584">
        <ele>447</ele>
        <time>2019-06-23T09:44:58.000Z</time>
      </trkpt>
      <trkpt lat="45.69616" lon="3.13592">
        <ele>447</ele>
        <time>2019-06-23T09:44:59.000Z</time>
      </trkpt>
      <trkpt lat="45.69617" lon="3.13597">
        <ele>446</ele>
        <time>2019-06-23T09:45:00.000Z</time>
      </trkpt>
      <trkpt lat="45.69618" lon="3.13601">
        <ele>445</ele>
        <time>2019-06-23T09:45:01.000Z</time>
      </trkpt>
      <trkpt lat="45.69618" lon="3.13603">
        <ele>446</ele>
        <time>2019-06-23T09:45:02.000Z</time>
      </trkpt>
      <trkpt lat="45.69617" lon="3.13605">
        <ele>446</ele>
        <time>2019-06-23T09:45:03.000Z</time>
      </trkpt>
      <trkpt lat="45.69617" lon="3.13606">
        <ele>447</ele>
        <time>2019-06-23T09:45:04.000Z</time>
      </trkpt>
      <trkpt lat="45.69617" lon="3.13606">
        <ele>447</ele>
        <time>2019-06-23T09:45:05.000Z</time>
      </trkpt>
      <trkpt lat="45.69619" lon="3.13605">
        <ele>447</ele>
        <time>2019-06-23T09:45:06.000Z</time>
      </trkpt>
      <trkpt lat="45.69619" lon="3.13605">
        <ele>447</ele>
        <time>2019-06-23T09:45:07.000Z</time>
      </trkpt>
      <trkpt lat="45.69619" lon="3.13604">
        <ele>447</ele>
        <time>2019-06-23T09:45:08.000Z</time>
      </trkpt>
      <trkpt lat="45.69619" lon="3.13604">
        <ele>447</ele>
        <time>2019-06-23T09:45:09.000Z</time>
      </trkpt>
      <trkpt lat="45.69619" lon="3.13604">
        <ele>448</ele>
        <time>2019-06-23T09:45:10.000Z</time>
      </trkpt>
      <trkpt lat="45.69619" lon="3.13603">
        <ele>448</ele>
        <time>2019-06-23T09:45:11.000Z</time>
      </trkpt>
      <trkpt lat="45.69619" lon="3.13602">
        <ele>449</ele>
        <time>2019-06-23T09:45:12.000Z</time>
      </trkpt>
      <trkpt lat="45.69618" lon="3.13599">
        <ele>449</ele>
        <time>2019-06-23T09:45:13.000Z</time>
      </trkpt>
      <trkpt lat="45.69618" lon="3.13597">
        <ele>448</ele>
        <time>2019-06-23T09:45:14.000Z</time>
      </trkpt>
      <trkpt lat="45.69618" lon="3.13595">
        <ele>448</ele>
        <time>2019-06-23T09:45:15.000Z</time>
      </trkpt>
      <trkpt lat="45.69617" lon="3.13593">
        <ele>448</ele>
        <time>2019-06-23T09:45:16.000Z</time>
      </trkpt>
      <trkpt lat="45.69617" lon="3.1359">
        <ele>448</ele>
        <time>2019-06-23T09:45:17.000Z</time>
      </trkpt>
      <trkpt lat="45.69616" lon="3.13587">
        <ele>448</ele>
        <time>2019-06-23T09:45:18.000Z</time>
      </trkpt>
      <trkpt lat="45.69616" lon="3.13584">
        <ele>447</ele>
        <time>2019-06-23T09:45:19.000Z</time>
      </trkpt>
      <trkpt lat="45.69616" lon="3.13581">
        <ele>447</ele>
        <time>2019-06-23T09:45:20.000Z</time>
      </trkpt>
      <trkpt lat="45.69615" lon="3.13577">
        <ele>448</ele>
        <time>2019-06-23T09:45:21.000Z</time>
      </trkpt>
      <trkpt lat="45.69615" lon="3.13573">
        <ele>448</ele>
        <time>2019-06-23T09:45:22.000Z</time>
      </trkpt>
      <trkpt lat="45.69614" lon="3.13569">
        <ele>448</ele>
        <time>2019-06-23T09:45:23.000Z</time>
      </trkpt>
      <trkpt lat="45.69614" lon="3.13566">
        <ele>448</ele>
        <time>2019-06-23T09:45:24.000Z</time>
      </trkpt>
      <trkpt lat="45.69613" lon="3.13563">
        <ele>449</ele>
        <time>2019-06-23T09:45:25.000Z</time>
      </trkpt>
      <trkpt lat="45.69613" lon="3.1356">
        <ele>449</ele>
        <time>2019-06-23T09:45:26.000Z</time>
      </trkpt>
      <trkpt lat="45.69612" lon="3.13558">
        <ele>449</ele>
        <time>2019-06-23T09:45:27.000Z</time>
      </trkpt>
      <trkpt lat="45.69612" lon="3.13556">
        <ele>449</ele>
        <time>2019-06-23T09:45:28.000Z</time>
      </trkpt>
      <trkpt lat="45.69613" lon="3.13556">
        <ele>449</ele>
        <time>2019-06-23T09:45:29.000Z</time>
      </trkpt>
      <trkpt lat="45.69615" lon="3.13555">
        <ele>449</ele>
        <time>2019-06-23T09:45:30.000Z</time>
      </trkpt>
      <trkpt lat="45.69617" lon="3.13555">
        <ele>449</ele>
        <time>2019-06-23T09:45:31.000Z</time>
      </trkpt>
      <trkpt lat="45.69619" lon="3.13555">
        <ele>449</ele>
        <time>2019-06-23T09:45:32.000Z</time>
      </trkpt>
      <trkpt lat="45.69621" lon="3.13555">
        <ele>449</ele>
        <time>2019-06-23T09:45:33.000Z</time>
      </trkpt>
      <trkpt lat="45.69624" lon="3.13554">
        <ele>448</ele>
        <time>2019-06-23T09:45:34.000Z</time>
      </trkpt>
      <trkpt lat="45.69626" lon="3.13554">
        <ele>448</ele>
        <time>2019-06-23T09:45:35.000Z</time>
      </trkpt>
      <trkpt lat="45.6963" lon="3.13553">
        <ele>447</ele>
        <time>2019-06-23T09:45:36.000Z</time>
      </trkpt>
      <trkpt lat="45.69633" lon="3.13552">
        <ele>447</ele>
        <time>2019-06-23T09:45:37.000Z</time>
      </trkpt>
      <trkpt lat="45.69637" lon="3.13549">
        <ele>445</ele>
        <time>2019-06-23T09:45:38.000Z</time>
      </trkpt>
      <trkpt lat="45.69642" lon="3.13547">
        <ele>445</ele>
        <time>2019-06-23T09:45:39.000Z</time>
      </trkpt>
      <trkpt lat="45.69646" lon="3.13546">
        <ele>444</ele>
        <time>2019-06-23T09:45:40.000Z</time>
      </trkpt>
      <trkpt lat="45.6965" lon="3.13546">
        <ele>443</ele>
        <time>2019-06-23T09:45:41.000Z</time>
      </trkpt>
      <trkpt lat="45.69656" lon="3.13544">
        <ele>443</ele>
        <time>2019-06-23T09:45:42.000Z</time>
      </trkpt>
      <trkpt lat="45.69662" lon="3.13543">
        <ele>442</ele>
        <time>2019-06-23T09:45:43.000Z</time>
      </trkpt>
      <trkpt lat="45.69667" lon="3.13544">
        <ele>442</ele>
        <time>2019-06-23T09:45:44.000Z</time>
      </trkpt>
      <trkpt lat="45.69672" lon="3.13543">
        <ele>442</ele>
        <time>2019-06-23T09:45:45.000Z</time>
      </trkpt>
      <trkpt lat="45.69677" lon="3.13542">
        <ele>441</ele>
        <time>2019-06-23T09:45:46.000Z</time>
      </trkpt>
      <trkpt lat="45.69682" lon="3.13542">
        <ele>440</ele>
        <time>2019-06-23T09:45:47.000Z</time>
      </trkpt>
      <trkpt lat="45.69686" lon="3.13542">
        <ele>440</ele>
        <time>2019-06-23T09:45:48.000Z</time>
      </trkpt>
      <trkpt lat="45.69689" lon="3.13546">
        <ele>442</ele>
        <time>2019-06-23T09:45:49.000Z</time>
      </trkpt>
      <trkpt lat="45.69692" lon="3.1355">
        <ele>442</ele>
        <time>2019-06-23T09:45:50.000Z</time>
      </trkpt>
      <trkpt lat="45.69693" lon="3.13556">
        <ele>440</ele>
        <time>2019-06-23T09:45:51.000Z</time>
      </trkpt>
      <trkpt lat="45.69696" lon="3.13563">
        <ele>440</ele>
        <time>2019-06-23T09:45:52.000Z</time>
      </trkpt>
      <trkpt lat="45.69699" lon="3.1357">
        <ele>439</ele>
        <time>2019-06-23T09:45:53.000Z</time>
      </trkpt>
      <trkpt lat="45.69701" lon="3.13576">
        <ele>439</ele>
        <time>2019-06-23T09:45:54.000Z</time>
      </trkpt>
      <trkpt lat="45.69705" lon="3.13583">
        <ele>439</ele>
        <time>2019-06-23T09:45:55.000Z</time>
      </trkpt>
      <trkpt lat="45.69709" lon="3.13589">
        <ele>439</ele>
        <time>2019-06-23T09:45:56.000Z</time>
      </trkpt>
      <trkpt lat="45.69714" lon="3.13592">
        <ele>439</ele>
        <time>2019-06-23T09:45:57.000Z</time>
      </trkpt>
      <trkpt lat="45.69719" lon="3.13596">
        <ele>439</ele>
        <time>2019-06-23T09:45:58.000Z</time>
      </trkpt>
      <trkpt lat="45.69724" lon="3.13597">
        <ele>435</ele>
        <time>2019-06-23T09:45:59.000Z</time>
      </trkpt>
      <trkpt lat="45.69731" lon="3.13597">
        <ele>433</ele>
        <time>2019-06-23T09:46:00.000Z</time>
      </trkpt>
      <trkpt lat="45.69737" lon="3.13595">
        <ele>431</ele>
        <time>2019-06-23T09:46:01.000Z</time>
      </trkpt>
      <trkpt lat="45.69743" lon="3.13595">
        <ele>430</ele>
        <time>2019-06-23T09:46:02.000Z</time>
      </trkpt>
      <trkpt lat="45.69748" lon="3.13595">
        <ele>429</ele>
        <time>2019-06-23T09:46:03.000Z</time>
      </trkpt>
      <trkpt lat="45.69753" lon="3.13597">
        <ele>428</ele>
        <time>2019-06-23T09:46:04.000Z</time>
      </trkpt>
      <trkpt lat="45.69759" lon="3.13598">
        <ele>427</ele>
        <time>2019-06-23T09:46:05.000Z</time>
      </trkpt>
      <trkpt lat="45.69764" lon="3.13599">
        <ele>426</ele>
        <time>2019-06-23T09:46:06.000Z</time>
      </trkpt>
      <trkpt lat="45.69769" lon="3.13598">
        <ele>426</ele>
        <time>2019-06-23T09:46:07.000Z</time>
      </trkpt>
      <trkpt lat="45.69773" lon="3.13595">
        <ele>425</ele>
        <time>2019-06-23T09:46:08.000Z</time>
      </trkpt>
      <trkpt lat="45.69777" lon="3.13592">
        <ele>425</ele>
        <time>2019-06-23T09:46:09.000Z</time>
      </trkpt>
      <trkpt lat="45.69782" lon="3.13589">
        <ele>425</ele>
        <time>2019-06-23T09:46:10.000Z</time>
      </trkpt>
      <trkpt lat="45.69785" lon="3.13584">
        <ele>425</ele>
        <time>2019-06-23T09:46:11.000Z</time>
      </trkpt>
      <trkpt lat="45.69787" lon="3.13582">
        <ele>426</ele>
        <time>2019-06-23T09:46:12.000Z</time>
      </trkpt>
      <trkpt lat="45.69786" lon="3.13585">
        <ele>425</ele>
        <time>2019-06-23T09:46:13.000Z</time>
      </trkpt>
      <trkpt lat="45.69787" lon="3.13587">
        <ele>425</ele>
        <time>2019-06-23T09:46:14.000Z</time>
      </trkpt>
      <trkpt lat="45.69788" lon="3.13588">
        <ele>426</ele>
        <time>2019-06-23T09:46:15.000Z</time>
      </trkpt>
      <trkpt lat="45.69788" lon="3.13589">
        <ele>424</ele>
        <time>2019-06-23T09:46:16.000Z</time>
      </trkpt>
      <trkpt lat="45.69788" lon="3.13591">
        <ele>424</ele>
        <time>2019-06-23T09:46:17.000Z</time>
      </trkpt>
      <trkpt lat="45.69788" lon="3.13593">
        <ele>425</ele>
        <time>2019-06-23T09:46:18.000Z</time>
      </trkpt>
      <trkpt lat="45.69788" lon="3.13595">
        <ele>425</ele>
        <time>2019-06-23T09:46:19.000Z</time>
      </trkpt>
      <trkpt lat="45.69788" lon="3.13598">
        <ele>426</ele>
        <time>2019-06-23T09:46:20.000Z</time>
      </trkpt>
      <trkpt lat="45.69787" lon="3.13602">
        <ele>427</ele>
        <time>2019-06-23T09:46:21.000Z</time>
      </trkpt>
      <trkpt lat="45.69786" lon="3.13608">
        <ele>428</ele>
        <time>2019-06-23T09:46:22.000Z</time>
      </trkpt>
      <trkpt lat="45.69786" lon="3.13615">
        <ele>430</ele>
        <time>2019-06-23T09:46:23.000Z</time>
      </trkpt>
      <trkpt lat="45.69787" lon="3.13621">
        <ele>431</ele>
        <time>2019-06-23T09:46:24.000Z</time>
      </trkpt>
      <trkpt lat="45.69785" lon="3.13628">
        <ele>432</ele>
        <time>2019-06-23T09:46:25.000Z</time>
      </trkpt>
      <trkpt lat="45.69783" lon="3.13634">
        <ele>431</ele>
        <time>2019-06-23T09:46:26.000Z</time>
      </trkpt>
      <trkpt lat="45.69781" lon="3.1364">
        <ele>430</ele>
        <time>2019-06-23T09:46:27.000Z</time>
      </trkpt>
      <trkpt lat="45.6978" lon="3.13646">
        <ele>430</ele>
        <time>2019-06-23T09:46:28.000Z</time>
      </trkpt>
      <trkpt lat="45.69776" lon="3.13652">
        <ele>430</ele>
        <time>2019-06-23T09:46:29.000Z</time>
      </trkpt>
      <trkpt lat="45.69773" lon="3.13657">
        <ele>429</ele>
        <time>2019-06-23T09:46:30.000Z</time>
      </trkpt>
      <trkpt lat="45.69769" lon="3.13664">
        <ele>426</ele>
        <time>2019-06-23T09:46:31.000Z</time>
      </trkpt>
      <trkpt lat="45.69766" lon="3.13671">
        <ele>425</ele>
        <time>2019-06-23T09:46:32.000Z</time>
      </trkpt>
      <trkpt lat="45.69764" lon="3.13678">
        <ele>426</ele>
        <time>2019-06-23T09:46:33.000Z</time>
      </trkpt>
      <trkpt lat="45.69762" lon="3.13687">
        <ele>428</ele>
        <time>2019-06-23T09:46:34.000Z</time>
      </trkpt>
      <trkpt lat="45.6976" lon="3.13694">
        <ele>430</ele>
        <time>2019-06-23T09:46:35.000Z</time>
      </trkpt>
      <trkpt lat="45.69758" lon="3.13701">
        <ele>430</ele>
        <time>2019-06-23T09:46:36.000Z</time>
      </trkpt>
      <trkpt lat="45.69757" lon="3.13707">
        <ele>431</ele>
        <time>2019-06-23T09:46:37.000Z</time>
      </trkpt>
      <trkpt lat="45.69755" lon="3.13713">
        <ele>432</ele>
        <time>2019-06-23T09:46:38.000Z</time>
      </trkpt>
      <trkpt lat="45.69753" lon="3.13719">
        <ele>434</ele>
        <time>2019-06-23T09:46:39.000Z</time>
      </trkpt>
      <trkpt lat="45.6975" lon="3.13726">
        <ele>434</ele>
        <time>2019-06-23T09:46:40.000Z</time>
      </trkpt>
      <trkpt lat="45.69749" lon="3.13734">
        <ele>433</ele>
        <time>2019-06-23T09:46:41.000Z</time>
      </trkpt>
      <trkpt lat="45.69747" lon="3.1374">
        <ele>433</ele>
        <time>2019-06-23T09:46:42.000Z</time>
      </trkpt>
      <trkpt lat="45.69745" lon="3.13747">
        <ele>433</ele>
        <time>2019-06-23T09:46:43.000Z</time>
      </trkpt>
      <trkpt lat="45.69744" lon="3.13753">
        <ele>434</ele>
        <time>2019-06-23T09:46:44.000Z</time>
      </trkpt>
      <trkpt lat="45.69744" lon="3.13762">
        <ele>435</ele>
        <time>2019-06-23T09:46:45.000Z</time>
      </trkpt>
      <trkpt lat="45.69743" lon="3.1377">
        <ele>436</ele>
        <time>2019-06-23T09:46:46.000Z</time>
      </trkpt>
      <trkpt lat="45.69739" lon="3.13778">
        <ele>433</ele>
        <time>2019-06-23T09:46:47.000Z</time>
      </trkpt>
      <trkpt lat="45.69736" lon="3.13787">
        <ele>427</ele>
        <time>2019-06-23T09:46:48.000Z</time>
      </trkpt>
      <trkpt lat="45.69733" lon="3.13795">
        <ele>427</ele>
        <time>2019-06-23T09:46:49.000Z</time>
      </trkpt>
      <trkpt lat="45.69731" lon="3.13802">
        <ele>425</ele>
        <time>2019-06-23T09:46:50.000Z</time>
      </trkpt>
      <trkpt lat="45.69728" lon="3.13809">
        <ele>425</ele>
        <time>2019-06-23T09:46:51.000Z</time>
      </trkpt>
      <trkpt lat="45.69725" lon="3.13815">
        <ele>424</ele>
        <time>2019-06-23T09:46:52.000Z</time>
      </trkpt>
      <trkpt lat="45.69723" lon="3.13821">
        <ele>424</ele>
        <time>2019-06-23T09:46:53.000Z</time>
      </trkpt>
      <trkpt lat="45.6972" lon="3.13828">
        <ele>424</ele>
        <time>2019-06-23T09:46:54.000Z</time>
      </trkpt>
      <trkpt lat="45.69717" lon="3.13834">
        <ele>424</ele>
        <time>2019-06-23T09:46:55.000Z</time>
      </trkpt>
      <trkpt lat="45.69714" lon="3.13841">
        <ele>424</ele>
        <time>2019-06-23T09:46:56.000Z</time>
      </trkpt>
      <trkpt lat="45.69712" lon="3.13847">
        <ele>424</ele>
        <time>2019-06-23T09:46:57.000Z</time>
      </trkpt>
      <trkpt lat="45.69709" lon="3.13853">
        <ele>425</ele>
        <time>2019-06-23T09:46:58.000Z</time>
      </trkpt>
      <trkpt lat="45.69706" lon="3.13859">
        <ele>425</ele>
        <time>2019-06-23T09:46:59.000Z</time>
      </trkpt>
      <trkpt lat="45.69704" lon="3.13865">
        <ele>425</ele>
        <time>2019-06-23T09:47:00.000Z</time>
      </trkpt>
      <trkpt lat="45.69701" lon="3.13871">
        <ele>425</ele>
        <time>2019-06-23T09:47:01.000Z</time>
      </trkpt>
      <trkpt lat="45.69699" lon="3.13877">
        <ele>423</ele>
        <time>2019-06-23T09:47:02.000Z</time>
      </trkpt>
      <trkpt lat="45.69697" lon="3.13884">
        <ele>423</ele>
        <time>2019-06-23T09:47:03.000Z</time>
      </trkpt>
      <trkpt lat="45.69695" lon="3.1389">
        <ele>423</ele>
        <time>2019-06-23T09:47:04.000Z</time>
      </trkpt>
      <trkpt lat="45.69694" lon="3.13897">
        <ele>423</ele>
        <time>2019-06-23T09:47:05.000Z</time>
      </trkpt>
      <trkpt lat="45.69693" lon="3.13904">
        <ele>423</ele>
        <time>2019-06-23T09:47:06.000Z</time>
      </trkpt>
      <trkpt lat="45.69692" lon="3.13911">
        <ele>423</ele>
        <time>2019-06-23T09:47:07.000Z</time>
      </trkpt>
      <trkpt lat="45.69691" lon="3.13918">
        <ele>423</ele>
        <time>2019-06-23T09:47:08.000Z</time>
      </trkpt>
      <trkpt lat="45.6969" lon="3.13926">
        <ele>424</ele>
        <time>2019-06-23T09:47:09.000Z</time>
      </trkpt>
      <trkpt lat="45.69688" lon="3.13933">
        <ele>425</ele>
        <time>2019-06-23T09:47:10.000Z</time>
      </trkpt>
      <trkpt lat="45.69687" lon="3.13939">
        <ele>426</ele>
        <time>2019-06-23T09:47:11.000Z</time>
      </trkpt>
      <trkpt lat="45.69685" lon="3.13945">
        <ele>427</ele>
        <time>2019-06-23T09:47:12.000Z</time>
      </trkpt>
      <trkpt lat="45.69684" lon="3.13951">
        <ele>428</ele>
        <time>2019-06-23T09:47:13.000Z</time>
      </trkpt>
      <trkpt lat="45.69682" lon="3.13957">
        <ele>428</ele>
        <time>2019-06-23T09:47:14.000Z</time>
      </trkpt>
      <trkpt lat="45.69681" lon="3.13963">
        <ele>429</ele>
        <time>2019-06-23T09:47:15.000Z</time>
      </trkpt>
      <trkpt lat="45.6968" lon="3.13969">
        <ele>429</ele>
        <time>2019-06-23T09:47:16.000Z</time>
      </trkpt>
      <trkpt lat="45.6968" lon="3.13976">
        <ele>431</ele>
        <time>2019-06-23T09:47:17.000Z</time>
      </trkpt>
      <trkpt lat="45.69679" lon="3.13983">
        <ele>431</ele>
        <time>2019-06-23T09:47:18.000Z</time>
      </trkpt>
      <trkpt lat="45.69677" lon="3.13991">
        <ele>431</ele>
        <time>2019-06-23T09:47:19.000Z</time>
      </trkpt>
      <trkpt lat="45.69676" lon="3.13998">
        <ele>432</ele>
        <time>2019-06-23T09:47:20.000Z</time>
      </trkpt>
      <trkpt lat="45.69675" lon="3.14005">
        <ele>432</ele>
        <time>2019-06-23T09:47:21.000Z</time>
      </trkpt>
      <trkpt lat="45.69675" lon="3.14011">
        <ele>432</ele>
        <time>2019-06-23T09:47:22.000Z</time>
      </trkpt>
      <trkpt lat="45.69674" lon="3.14018">
        <ele>431</ele>
        <time>2019-06-23T09:47:23.000Z</time>
      </trkpt>
      <trkpt lat="45.69674" lon="3.14025">
        <ele>431</ele>
        <time>2019-06-23T09:47:24.000Z</time>
      </trkpt>
      <trkpt lat="45.69672" lon="3.14033">
        <ele>429</ele>
        <time>2019-06-23T09:47:25.000Z</time>
      </trkpt>
      <trkpt lat="45.6967" lon="3.14041">
        <ele>430</ele>
        <time>2019-06-23T09:47:26.000Z</time>
      </trkpt>
      <trkpt lat="45.69669" lon="3.14049">
        <ele>431</ele>
        <time>2019-06-23T09:47:27.000Z</time>
      </trkpt>
      <trkpt lat="45.69666" lon="3.14056">
        <ele>430</ele>
        <time>2019-06-23T09:47:28.000Z</time>
      </trkpt>
      <trkpt lat="45.69662" lon="3.14062">
        <ele>429</ele>
        <time>2019-06-23T09:47:29.000Z</time>
      </trkpt>
      <trkpt lat="45.69659" lon="3.14068">
        <ele>429</ele>
        <time>2019-06-23T09:47:30.000Z</time>
      </trkpt>
      <trkpt lat="45.69656" lon="3.14075">
        <ele>428</ele>
        <time>2019-06-23T09:47:31.000Z</time>
      </trkpt>
      <trkpt lat="45.69652" lon="3.14082">
        <ele>429</ele>
        <time>2019-06-23T09:47:32.000Z</time>
      </trkpt>
      <trkpt lat="45.69649" lon="3.14088">
        <ele>428</ele>
        <time>2019-06-23T09:47:33.000Z</time>
      </trkpt>
      <trkpt lat="45.69647" lon="3.14094">
        <ele>428</ele>
        <time>2019-06-23T09:47:34.000Z</time>
      </trkpt>
      <trkpt lat="45.69644" lon="3.141">
        <ele>427</ele>
        <time>2019-06-23T09:47:35.000Z</time>
      </trkpt>
      <trkpt lat="45.69642" lon="3.14106">
        <ele>428</ele>
        <time>2019-06-23T09:47:36.000Z</time>
      </trkpt>
      <trkpt lat="45.69639" lon="3.14113">
        <ele>428</ele>
        <time>2019-06-23T09:47:37.000Z</time>
      </trkpt>
      <trkpt lat="45.69637" lon="3.14121">
        <ele>428</ele>
        <time>2019-06-23T09:47:38.000Z</time>
      </trkpt>
      <trkpt lat="45.69633" lon="3.14127">
        <ele>426</ele>
        <time>2019-06-23T09:47:39.000Z</time>
      </trkpt>
      <trkpt lat="45.69629" lon="3.14132">
        <ele>425</ele>
        <time>2019-06-23T09:47:40.000Z</time>
      </trkpt>
      <trkpt lat="45.69627" lon="3.14137">
        <ele>425</ele>
        <time>2019-06-23T09:47:41.000Z</time>
      </trkpt>
      <trkpt lat="45.69624" lon="3.14143">
        <ele>425</ele>
        <time>2019-06-23T09:47:42.000Z</time>
      </trkpt>
      <trkpt lat="45.69622" lon="3.14149">
        <ele>423</ele>
        <time>2019-06-23T09:47:43.000Z</time>
      </trkpt>
      <trkpt lat="45.6962" lon="3.14155">
        <ele>424</ele>
        <time>2019-06-23T09:47:44.000Z</time>
      </trkpt>
      <trkpt lat="45.69619" lon="3.14163">
        <ele>423</ele>
        <time>2019-06-23T09:47:45.000Z</time>
      </trkpt>
      <trkpt lat="45.69618" lon="3.14171">
        <ele>423</ele>
        <time>2019-06-23T09:47:46.000Z</time>
      </trkpt>
      <trkpt lat="45.69616" lon="3.14179">
        <ele>423</ele>
        <time>2019-06-23T09:47:47.000Z</time>
      </trkpt>
      <trkpt lat="45.69615" lon="3.14185">
        <ele>422</ele>
        <time>2019-06-23T09:47:48.000Z</time>
      </trkpt>
      <trkpt lat="45.69616" lon="3.14189">
        <ele>420</ele>
        <time>2019-06-23T09:47:49.000Z</time>
      </trkpt>
      <trkpt lat="45.69618" lon="3.14192">
        <ele>419</ele>
        <time>2019-06-23T09:47:50.000Z</time>
      </trkpt>
      <trkpt lat="45.6962" lon="3.14195">
        <ele>416</ele>
        <time>2019-06-23T09:47:51.000Z</time>
      </trkpt>
      <trkpt lat="45.69623" lon="3.14197">
        <ele>410</ele>
        <time>2019-06-23T09:47:52.000Z</time>
      </trkpt>
      <trkpt lat="45.6963" lon="3.14199">
        <ele>409</ele>
        <time>2019-06-23T09:47:53.000Z</time>
      </trkpt>
      <trkpt lat="45.6964" lon="3.14201">
        <ele>412</ele>
        <time>2019-06-23T09:47:54.000Z</time>
      </trkpt>
      <trkpt lat="45.69647" lon="3.14202">
        <ele>412</ele>
        <time>2019-06-23T09:47:55.000Z</time>
      </trkpt>
      <trkpt lat="45.69656" lon="3.14201">
        <ele>410</ele>
        <time>2019-06-23T09:47:56.000Z</time>
      </trkpt>
      <trkpt lat="45.69665" lon="3.14201">
        <ele>409</ele>
        <time>2019-06-23T09:47:57.000Z</time>
      </trkpt>
      <trkpt lat="45.69673" lon="3.142">
        <ele>408</ele>
        <time>2019-06-23T09:47:58.000Z</time>
      </trkpt>
      <trkpt lat="45.69682" lon="3.142">
        <ele>409</ele>
        <time>2019-06-23T09:47:59.000Z</time>
      </trkpt>
      <trkpt lat="45.69691" lon="3.14201">
        <ele>410</ele>
        <time>2019-06-23T09:48:00.000Z</time>
      </trkpt>
      <trkpt lat="45.69699" lon="3.14203">
        <ele>412</ele>
        <time>2019-06-23T09:48:01.000Z</time>
      </trkpt>
      <trkpt lat="45.69707" lon="3.14206">
        <ele>412</ele>
        <time>2019-06-23T09:48:02.000Z</time>
      </trkpt>
      <trkpt lat="45.69713" lon="3.1421">
        <ele>409</ele>
        <time>2019-06-23T09:48:03.000Z</time>
      </trkpt>
      <trkpt lat="45.69716" lon="3.14213">
        <ele>408</ele>
        <time>2019-06-23T09:48:04.000Z</time>
      </trkpt>
      <trkpt lat="45.69718" lon="3.14215">
        <ele>405</ele>
        <time>2019-06-23T09:48:05.000Z</time>
      </trkpt>
      <trkpt lat="45.69717" lon="3.14214">
        <ele>401</ele>
        <time>2019-06-23T09:48:06.000Z</time>
      </trkpt>
      <trkpt lat="45.69717" lon="3.14212">
        <ele>398</ele>
        <time>2019-06-23T09:48:07.000Z</time>
      </trkpt>
      <trkpt lat="45.69718" lon="3.14209">
        <ele>398</ele>
        <time>2019-06-23T09:48:08.000Z</time>
      </trkpt>
      <trkpt lat="45.69719" lon="3.14204">
        <ele>398</ele>
        <time>2019-06-23T09:48:09.000Z</time>
      </trkpt>
      <trkpt lat="45.6972" lon="3.14199">
        <ele>399</ele>
        <time>2019-06-23T09:48:10.000Z</time>
      </trkpt>
      <trkpt lat="45.69721" lon="3.14194">
        <ele>398</ele>
        <time>2019-06-23T09:48:11.000Z</time>
      </trkpt>
      <trkpt lat="45.69722" lon="3.14188">
        <ele>398</ele>
        <time>2019-06-23T09:48:12.000Z</time>
      </trkpt>
      <trkpt lat="45.69723" lon="3.14182">
        <ele>398</ele>
        <time>2019-06-23T09:48:13.000Z</time>
      </trkpt>
      <trkpt lat="45.69724" lon="3.14176">
        <ele>398</ele>
        <time>2019-06-23T09:48:14.000Z</time>
      </trkpt>
      <trkpt lat="45.69725" lon="3.14171">
        <ele>398</ele>
        <time>2019-06-23T09:48:15.000Z</time>
      </trkpt>
      <trkpt lat="45.69727" lon="3.14165">
        <ele>398</ele>
        <time>2019-06-23T09:48:16.000Z</time>
      </trkpt>
      <trkpt lat="45.69728" lon="3.14159">
        <ele>398</ele>
        <time>2019-06-23T09:48:17.000Z</time>
      </trkpt>
      <trkpt lat="45.69729" lon="3.14152">
        <ele>398</ele>
        <time>2019-06-23T09:48:18.000Z</time>
      </trkpt>
      <trkpt lat="45.6973" lon="3.14146">
        <ele>398</ele>
        <time>2019-06-23T09:48:19.000Z</time>
      </trkpt>
      <trkpt lat="45.69731" lon="3.1414">
        <ele>398</ele>
        <time>2019-06-23T09:48:20.000Z</time>
      </trkpt>
      <trkpt lat="45.69731" lon="3.14134">
        <ele>398</ele>
        <time>2019-06-23T09:48:21.000Z</time>
      </trkpt>
      <trkpt lat="45.69732" lon="3.14127">
        <ele>398</ele>
        <time>2019-06-23T09:48:22.000Z</time>
      </trkpt>
      <trkpt lat="45.69732" lon="3.14121">
        <ele>399</ele>
        <time>2019-06-23T09:48:23.000Z</time>
      </trkpt>
      <trkpt lat="45.69733" lon="3.14115">
        <ele>399</ele>
        <time>2019-06-23T09:48:24.000Z</time>
      </trkpt>
      <trkpt lat="45.69734" lon="3.14109">
        <ele>399</ele>
        <time>2019-06-23T09:48:25.000Z</time>
      </trkpt>
      <trkpt lat="45.69734" lon="3.14103">
        <ele>399</ele>
        <time>2019-06-23T09:48:26.000Z</time>
      </trkpt>
      <trkpt lat="45.69735" lon="3.14097">
        <ele>400</ele>
        <time>2019-06-23T09:48:27.000Z</time>
      </trkpt>
      <trkpt lat="45.69736" lon="3.14091">
        <ele>400</ele>
        <time>2019-06-23T09:48:28.000Z</time>
      </trkpt>
      <trkpt lat="45.69737" lon="3.14085">
        <ele>400</ele>
        <time>2019-06-23T09:48:29.000Z</time>
      </trkpt>
      <trkpt lat="45.69738" lon="3.14078">
        <ele>400</ele>
        <time>2019-06-23T09:48:30.000Z</time>
      </trkpt>
      <trkpt lat="45.69739" lon="3.14072">
        <ele>400</ele>
        <time>2019-06-23T09:48:31.000Z</time>
      </trkpt>
      <trkpt lat="45.6974" lon="3.14066">
        <ele>400</ele>
        <time>2019-06-23T09:48:32.000Z</time>
      </trkpt>
      <trkpt lat="45.69741" lon="3.1406">
        <ele>400</ele>
        <time>2019-06-23T09:48:33.000Z</time>
      </trkpt>
      <trkpt lat="45.69742" lon="3.14055">
        <ele>400</ele>
        <time>2019-06-23T09:48:34.000Z</time>
      </trkpt>
      <trkpt lat="45.69744" lon="3.14049">
        <ele>400</ele>
        <time>2019-06-23T09:48:35.000Z</time>
      </trkpt>
      <trkpt lat="45.69747" lon="3.14044">
        <ele>400</ele>
        <time>2019-06-23T09:48:36.000Z</time>
      </trkpt>
      <trkpt lat="45.69748" lon="3.14038">
        <ele>400</ele>
        <time>2019-06-23T09:48:37.000Z</time>
      </trkpt>
      <trkpt lat="45.69749" lon="3.14033">
        <ele>400</ele>
        <time>2019-06-23T09:48:38.000Z</time>
      </trkpt>
      <trkpt lat="45.69751" lon="3.14027">
        <ele>400</ele>
        <time>2019-06-23T09:48:39.000Z</time>
      </trkpt>
      <trkpt lat="45.69752" lon="3.14021">
        <ele>400</ele>
        <time>2019-06-23T09:48:40.000Z</time>
      </trkpt>
      <trkpt lat="45.69753" lon="3.14015">
        <ele>399</ele>
        <time>2019-06-23T09:48:41.000Z</time>
      </trkpt>
      <trkpt lat="45.69755" lon="3.14009">
        <ele>399</ele>
        <time>2019-06-23T09:48:42.000Z</time>
      </trkpt>
      <trkpt lat="45.69756" lon="3.14005">
        <ele>399</ele>
        <time>2019-06-23T09:48:43.000Z</time>
      </trkpt>
      <trkpt lat="45.69759" lon="3.13999">
        <ele>399</ele>
        <time>2019-06-23T09:48:44.000Z</time>
      </trkpt>
      <trkpt lat="45.69762" lon="3.13991">
        <ele>400</ele>
        <time>2019-06-23T09:48:45.000Z</time>
      </trkpt>
      <trkpt lat="45.69763" lon="3.13985">
        <ele>401</ele>
        <time>2019-06-23T09:48:46.000Z</time>
      </trkpt>
      <trkpt lat="45.69766" lon="3.13978">
        <ele>402</ele>
        <time>2019-06-23T09:48:47.000Z</time>
      </trkpt>
      <trkpt lat="45.69768" lon="3.13971">
        <ele>402</ele>
        <time>2019-06-23T09:48:48.000Z</time>
      </trkpt>
      <trkpt lat="45.69769" lon="3.13963">
        <ele>402</ele>
        <time>2019-06-23T09:48:49.000Z</time>
      </trkpt>
      <trkpt lat="45.6977" lon="3.13956">
        <ele>404</ele>
        <time>2019-06-23T09:48:50.000Z</time>
      </trkpt>
      <trkpt lat="45.69772" lon="3.13949">
        <ele>404</ele>
        <time>2019-06-23T09:48:51.000Z</time>
      </trkpt>
      <trkpt lat="45.69773" lon="3.13942">
        <ele>404</ele>
        <time>2019-06-23T09:48:52.000Z</time>
      </trkpt>
      <trkpt lat="45.69774" lon="3.13934">
        <ele>404</ele>
        <time>2019-06-23T09:48:53.000Z</time>
      </trkpt>
      <trkpt lat="45.69775" lon="3.13927">
        <ele>404</ele>
        <time>2019-06-23T09:48:54.000Z</time>
      </trkpt>
      <trkpt lat="45.69776" lon="3.1392">
        <ele>404</ele>
        <time>2019-06-23T09:48:55.000Z</time>
      </trkpt>
      <trkpt lat="45.69777" lon="3.13913">
        <ele>404</ele>
        <time>2019-06-23T09:48:56.000Z</time>
      </trkpt>
      <trkpt lat="45.69778" lon="3.13906">
        <ele>404</ele>
        <time>2019-06-23T09:48:57.000Z</time>
      </trkpt>
      <trkpt lat="45.69779" lon="3.13898">
        <ele>404</ele>
        <time>2019-06-23T09:48:58.000Z</time>
      </trkpt>
      <trkpt lat="45.69781" lon="3.13891">
        <ele>404</ele>
        <time>2019-06-23T09:48:59.000Z</time>
      </trkpt>
      <trkpt lat="45.69783" lon="3.13884">
        <ele>404</ele>
        <time>2019-06-23T09:49:00.000Z</time>
      </trkpt>
      <trkpt lat="45.69784" lon="3.13877">
        <ele>404</ele>
        <time>2019-06-23T09:49:01.000Z</time>
      </trkpt>
      <trkpt lat="45.69786" lon="3.13869">
        <ele>404</ele>
        <time>2019-06-23T09:49:02.000Z</time>
      </trkpt>
      <trkpt lat="45.69787" lon="3.13862">
        <ele>404</ele>
        <time>2019-06-23T09:49:03.000Z</time>
      </trkpt>
      <trkpt lat="45.69789" lon="3.13854">
        <ele>404</ele>
        <time>2019-06-23T09:49:04.000Z</time>
      </trkpt>
      <trkpt lat="45.69791" lon="3.13847">
        <ele>404</ele>
        <time>2019-06-23T09:49:05.000Z</time>
      </trkpt>
      <trkpt lat="45.69793" lon="3.13839">
        <ele>404</ele>
        <time>2019-06-23T09:49:06.000Z</time>
      </trkpt>
      <trkpt lat="45.69795" lon="3.13831">
        <ele>404</ele>
        <time>2019-06-23T09:49:07.000Z</time>
      </trkpt>
      <trkpt lat="45.69797" lon="3.13823">
        <ele>404</ele>
        <time>2019-06-23T09:49:08.000Z</time>
      </trkpt>
      <trkpt lat="45.69798" lon="3.13816">
        <ele>404</ele>
        <time>2019-06-23T09:49:09.000Z</time>
      </trkpt>
      <trkpt lat="45.698" lon="3.13809">
        <ele>405</ele>
        <time>2019-06-23T09:49:10.000Z</time>
      </trkpt>
      <trkpt lat="45.69802" lon="3.13801">
        <ele>405</ele>
        <time>2019-06-23T09:49:11.000Z</time>
      </trkpt>
      <trkpt lat="45.69805" lon="3.13794">
        <ele>405</ele>
        <time>2019-06-23T09:49:12.000Z</time>
      </trkpt>
      <trkpt lat="45.69807" lon="3.13788">
        <ele>405</ele>
        <time>2019-06-23T09:49:13.000Z</time>
      </trkpt>
      <trkpt lat="45.6981" lon="3.13781">
        <ele>405</ele>
        <time>2019-06-23T09:49:14.000Z</time>
      </trkpt>
      <trkpt lat="45.69813" lon="3.13775">
        <ele>405</ele>
        <time>2019-06-23T09:49:15.000Z</time>
      </trkpt>
      <trkpt lat="45.69816" lon="3.13769">
        <ele>406</ele>
        <time>2019-06-23T09:49:16.000Z</time>
      </trkpt>
      <trkpt lat="45.69818" lon="3.13764">
        <ele>406</ele>
        <time>2019-06-23T09:49:17.000Z</time>
      </trkpt>
      <trkpt lat="45.6982" lon="3.13758">
        <ele>406</ele>
        <time>2019-06-23T09:49:18.000Z</time>
      </trkpt>
      <trkpt lat="45.69822" lon="3.13752">
        <ele>407</ele>
        <time>2019-06-23T09:49:19.000Z</time>
      </trkpt>
      <trkpt lat="45.69824" lon="3.13747">
        <ele>408</ele>
        <time>2019-06-23T09:49:20.000Z</time>
      </trkpt>
      <trkpt lat="45.69826" lon="3.1374">
        <ele>408</ele>
        <time>2019-06-23T09:49:21.000Z</time>
      </trkpt>
      <trkpt lat="45.69827" lon="3.13733">
        <ele>407</ele>
        <time>2019-06-23T09:49:22.000Z</time>
      </trkpt>
      <trkpt lat="45.69829" lon="3.13726">
        <ele>408</ele>
        <time>2019-06-23T09:49:23.000Z</time>
      </trkpt>
      <trkpt lat="45.69831" lon="3.13719">
        <ele>407</ele>
        <time>2019-06-23T09:49:24.000Z</time>
      </trkpt>
      <trkpt lat="45.69833" lon="3.13712">
        <ele>407</ele>
        <time>2019-06-23T09:49:25.000Z</time>
      </trkpt>
      <trkpt lat="45.69836" lon="3.13706">
        <ele>408</ele>
        <time>2019-06-23T09:49:26.000Z</time>
      </trkpt>
      <trkpt lat="45.69838" lon="3.13698">
        <ele>408</ele>
        <time>2019-06-23T09:49:27.000Z</time>
      </trkpt>
      <trkpt lat="45.6984" lon="3.13691">
        <ele>408</ele>
        <time>2019-06-23T09:49:28.000Z</time>
      </trkpt>
      <trkpt lat="45.69842" lon="3.13683">
        <ele>407</ele>
        <time>2019-06-23T09:49:29.000Z</time>
      </trkpt>
      <trkpt lat="45.69844" lon="3.13676">
        <ele>408</ele>
        <time>2019-06-23T09:49:30.000Z</time>
      </trkpt>
      <trkpt lat="45.69847" lon="3.13669">
        <ele>408</ele>
        <time>2019-06-23T09:49:31.000Z</time>
      </trkpt>
      <trkpt lat="45.69847" lon="3.13661">
        <ele>407</ele>
        <time>2019-06-23T09:49:32.000Z</time>
      </trkpt>
      <trkpt lat="45.69847" lon="3.13653">
        <ele>407</ele>
        <time>2019-06-23T09:49:33.000Z</time>
      </trkpt>
      <trkpt lat="45.69848" lon="3.13645">
        <ele>407</ele>
        <time>2019-06-23T09:49:34.000Z</time>
      </trkpt>
      <trkpt lat="45.69849" lon="3.13638">
        <ele>406</ele>
        <time>2019-06-23T09:49:35.000Z</time>
      </trkpt>
      <trkpt lat="45.6985" lon="3.1363">
        <ele>406</ele>
        <time>2019-06-23T09:49:36.000Z</time>
      </trkpt>
      <trkpt lat="45.6985" lon="3.13622">
        <ele>406</ele>
        <time>2019-06-23T09:49:37.000Z</time>
      </trkpt>
      <trkpt lat="45.69851" lon="3.13615">
        <ele>406</ele>
        <time>2019-06-23T09:49:38.000Z</time>
      </trkpt>
      <trkpt lat="45.69851" lon="3.13607">
        <ele>405</ele>
        <time>2019-06-23T09:49:39.000Z</time>
      </trkpt>
      <trkpt lat="45.69852" lon="3.13599">
        <ele>406</ele>
        <time>2019-06-23T09:49:40.000Z</time>
      </trkpt>
      <trkpt lat="45.69852" lon="3.13592">
        <ele>407</ele>
        <time>2019-06-23T09:49:41.000Z</time>
      </trkpt>
      <trkpt lat="45.69852" lon="3.13585">
        <ele>407</ele>
        <time>2019-06-23T09:49:42.000Z</time>
      </trkpt>
      <trkpt lat="45.69852" lon="3.13578">
        <ele>408</ele>
        <time>2019-06-23T09:49:43.000Z</time>
      </trkpt>
      <trkpt lat="45.69852" lon="3.13572">
        <ele>408</ele>
        <time>2019-06-23T09:49:44.000Z</time>
      </trkpt>
      <trkpt lat="45.69852" lon="3.13565">
        <ele>408</ele>
        <time>2019-06-23T09:49:45.000Z</time>
      </trkpt>
      <trkpt lat="45.69853" lon="3.13559">
        <ele>409</ele>
        <time>2019-06-23T09:49:46.000Z</time>
      </trkpt>
      <trkpt lat="45.69854" lon="3.13553">
        <ele>409</ele>
        <time>2019-06-23T09:49:47.000Z</time>
      </trkpt>
      <trkpt lat="45.69854" lon="3.13547">
        <ele>409</ele>
        <time>2019-06-23T09:49:48.000Z</time>
      </trkpt>
      <trkpt lat="45.69855" lon="3.13541">
        <ele>408</ele>
        <time>2019-06-23T09:49:49.000Z</time>
      </trkpt>
      <trkpt lat="45.69856" lon="3.13534">
        <ele>409</ele>
        <time>2019-06-23T09:49:50.000Z</time>
      </trkpt>
      <trkpt lat="45.69857" lon="3.13528">
        <ele>409</ele>
        <time>2019-06-23T09:49:51.000Z</time>
      </trkpt>
      <trkpt lat="45.69857" lon="3.13522">
        <ele>409</ele>
        <time>2019-06-23T09:49:52.000Z</time>
      </trkpt>
      <trkpt lat="45.69858" lon="3.13515">
        <ele>409</ele>
        <time>2019-06-23T09:49:53.000Z</time>
      </trkpt>
      <trkpt lat="45.69858" lon="3.1351">
        <ele>410</ele>
        <time>2019-06-23T09:49:54.000Z</time>
      </trkpt>
      <trkpt lat="45.69859" lon="3.13504">
        <ele>409</ele>
        <time>2019-06-23T09:49:55.000Z</time>
      </trkpt>
      <trkpt lat="45.69859" lon="3.13498">
        <ele>409</ele>
        <time>2019-06-23T09:49:56.000Z</time>
      </trkpt>
      <trkpt lat="45.69859" lon="3.13491">
        <ele>409</ele>
        <time>2019-06-23T09:49:57.000Z</time>
      </trkpt>
      <trkpt lat="45.69859" lon="3.13486">
        <ele>409</ele>
        <time>2019-06-23T09:49:58.000Z</time>
      </trkpt>
      <trkpt lat="45.69858" lon="3.1348">
        <ele>409</ele>
        <time>2019-06-23T09:49:59.000Z</time>
      </trkpt>
      <trkpt lat="45.69858" lon="3.13475">
        <ele>409</ele>
        <time>2019-06-23T09:50:00.000Z</time>
      </trkpt>
      <trkpt lat="45.69857" lon="3.13469">
        <ele>409</ele>
        <time>2019-06-23T09:50:01.000Z</time>
      </trkpt>
      <trkpt lat="45.69856" lon="3.13464">
        <ele>409</ele>
        <time>2019-06-23T09:50:02.000Z</time>
      </trkpt>
      <trkpt lat="45.69856" lon="3.13459">
        <ele>409</ele>
        <time>2019-06-23T09:50:03.000Z</time>
      </trkpt>
      <trkpt lat="45.69855" lon="3.13453">
        <ele>409</ele>
        <time>2019-06-23T09:50:04.000Z</time>
      </trkpt>
      <trkpt lat="45.69855" lon="3.13448">
        <ele>409</ele>
        <time>2019-06-23T09:50:05.000Z</time>
      </trkpt>
      <trkpt lat="45.69854" lon="3.13444">
        <ele>409</ele>
        <time>2019-06-23T09:50:06.000Z</time>
      </trkpt>
      <trkpt lat="45.69854" lon="3.13438">
        <ele>409</ele>
        <time>2019-06-23T09:50:07.000Z</time>
      </trkpt>
      <trkpt lat="45.69856" lon="3.1343">
        <ele>408</ele>
        <time>2019-06-23T09:50:08.000Z</time>
      </trkpt>
      <trkpt lat="45.69857" lon="3.13423">
        <ele>408</ele>
        <time>2019-06-23T09:50:09.000Z</time>
      </trkpt>
      <trkpt lat="45.69858" lon="3.13415">
        <ele>409</ele>
        <time>2019-06-23T09:50:10.000Z</time>
      </trkpt>
      <trkpt lat="45.69859" lon="3.13408">
        <ele>407</ele>
        <time>2019-06-23T09:50:11.000Z</time>
      </trkpt>
      <trkpt lat="45.69859" lon="3.13401">
        <ele>408</ele>
        <time>2019-06-23T09:50:12.000Z</time>
      </trkpt>
      <trkpt lat="45.69859" lon="3.13394">
        <ele>408</ele>
        <time>2019-06-23T09:50:13.000Z</time>
      </trkpt>
      <trkpt lat="45.69859" lon="3.13386">
        <ele>407</ele>
        <time>2019-06-23T09:50:14.000Z</time>
      </trkpt>
      <trkpt lat="45.6986" lon="3.13379">
        <ele>409</ele>
        <time>2019-06-23T09:50:15.000Z</time>
      </trkpt>
      <trkpt lat="45.6986" lon="3.13373">
        <ele>408</ele>
        <time>2019-06-23T09:50:16.000Z</time>
      </trkpt>
      <trkpt lat="45.69861" lon="3.13366">
        <ele>409</ele>
        <time>2019-06-23T09:50:17.000Z</time>
      </trkpt>
      <trkpt lat="45.69861" lon="3.1336">
        <ele>409</ele>
        <time>2019-06-23T09:50:18.000Z</time>
      </trkpt>
      <trkpt lat="45.69862" lon="3.13353">
        <ele>409</ele>
        <time>2019-06-23T09:50:19.000Z</time>
      </trkpt>
      <trkpt lat="45.69862" lon="3.13346">
        <ele>410</ele>
        <time>2019-06-23T09:50:20.000Z</time>
      </trkpt>
      <trkpt lat="45.69862" lon="3.13339">
        <ele>410</ele>
        <time>2019-06-23T09:50:21.000Z</time>
      </trkpt>
      <trkpt lat="45.69862" lon="3.13332">
        <ele>411</ele>
        <time>2019-06-23T09:50:22.000Z</time>
      </trkpt>
      <trkpt lat="45.69863" lon="3.13325">
        <ele>411</ele>
        <time>2019-06-23T09:50:23.000Z</time>
      </trkpt>
      <trkpt lat="45.69863" lon="3.13318">
        <ele>411</ele>
        <time>2019-06-23T09:50:24.000Z</time>
      </trkpt>
      <trkpt lat="45.69863" lon="3.13311">
        <ele>412</ele>
        <time>2019-06-23T09:50:25.000Z</time>
      </trkpt>
      <trkpt lat="45.69863" lon="3.13304">
        <ele>412</ele>
        <time>2019-06-23T09:50:26.000Z</time>
      </trkpt>
      <trkpt lat="45.69862" lon="3.13298">
        <ele>412</ele>
        <time>2019-06-23T09:50:27.000Z</time>
      </trkpt>
      <trkpt lat="45.69862" lon="3.13292">
        <ele>412</ele>
        <time>2019-06-23T09:50:28.000Z</time>
      </trkpt>
      <trkpt lat="45.69861" lon="3.13285">
        <ele>412</ele>
        <time>2019-06-23T09:50:29.000Z</time>
      </trkpt>
      <trkpt lat="45.6986" lon="3.13279">
        <ele>412</ele>
        <time>2019-06-23T09:50:30.000Z</time>
      </trkpt>
      <trkpt lat="45.69861" lon="3.13273">
        <ele>412</ele>
        <time>2019-06-23T09:50:31.000Z</time>
      </trkpt>
      <trkpt lat="45.69861" lon="3.13266">
        <ele>412</ele>
        <time>2019-06-23T09:50:32.000Z</time>
      </trkpt>
      <trkpt lat="45.69861" lon="3.1326">
        <ele>412</ele>
        <time>2019-06-23T09:50:33.000Z</time>
      </trkpt>
      <trkpt lat="45.69861" lon="3.13254">
        <ele>413</ele>
        <time>2019-06-23T09:50:34.000Z</time>
      </trkpt>
      <trkpt lat="45.69861" lon="3.13248">
        <ele>413</ele>
        <time>2019-06-23T09:50:35.000Z</time>
      </trkpt>
      <trkpt lat="45.6986" lon="3.13241">
        <ele>413</ele>
        <time>2019-06-23T09:50:36.000Z</time>
      </trkpt>
      <trkpt lat="45.69859" lon="3.13235">
        <ele>413</ele>
        <time>2019-06-23T09:50:37.000Z</time>
      </trkpt>
      <trkpt lat="45.69859" lon="3.13228">
        <ele>413</ele>
        <time>2019-06-23T09:50:38.000Z</time>
      </trkpt>
      <trkpt lat="45.69858" lon="3.13222">
        <ele>413</ele>
        <time>2019-06-23T09:50:39.000Z</time>
      </trkpt>
      <trkpt lat="45.69857" lon="3.13215">
        <ele>413</ele>
        <time>2019-06-23T09:50:40.000Z</time>
      </trkpt>
      <trkpt lat="45.69855" lon="3.13208">
        <ele>413</ele>
        <time>2019-06-23T09:50:41.000Z</time>
      </trkpt>
      <trkpt lat="45.69855" lon="3.13202">
        <ele>414</ele>
        <time>2019-06-23T09:50:42.000Z</time>
      </trkpt>
      <trkpt lat="45.69854" lon="3.13195">
        <ele>414</ele>
        <time>2019-06-23T09:50:43.000Z</time>
      </trkpt>
      <trkpt lat="45.69854" lon="3.13188">
        <ele>414</ele>
        <time>2019-06-23T09:50:44.000Z</time>
      </trkpt>
      <trkpt lat="45.69853" lon="3.13181">
        <ele>414</ele>
        <time>2019-06-23T09:50:45.000Z</time>
      </trkpt>
      <trkpt lat="45.69853" lon="3.13175">
        <ele>414</ele>
        <time>2019-06-23T09:50:46.000Z</time>
      </trkpt>
      <trkpt lat="45.69854" lon="3.13168">
        <ele>414</ele>
        <time>2019-06-23T09:50:47.000Z</time>
      </trkpt>
      <trkpt lat="45.69854" lon="3.13161">
        <ele>414</ele>
        <time>2019-06-23T09:50:48.000Z</time>
      </trkpt>
      <trkpt lat="45.69853" lon="3.13155">
        <ele>414</ele>
        <time>2019-06-23T09:50:49.000Z</time>
      </trkpt>
      <trkpt lat="45.69851" lon="3.1315">
        <ele>414</ele>
        <time>2019-06-23T09:50:50.000Z</time>
      </trkpt>
      <trkpt lat="45.69849" lon="3.13145">
        <ele>414</ele>
        <time>2019-06-23T09:50:51.000Z</time>
      </trkpt>
      <trkpt lat="45.69846" lon="3.1314">
        <ele>414</ele>
        <time>2019-06-23T09:50:52.000Z</time>
      </trkpt>
      <trkpt lat="45.69843" lon="3.13134">
        <ele>415</ele>
        <time>2019-06-23T09:50:53.000Z</time>
      </trkpt>
      <trkpt lat="45.6984" lon="3.13129">
        <ele>415</ele>
        <time>2019-06-23T09:50:54.000Z</time>
      </trkpt>
      <trkpt lat="45.69838" lon="3.13123">
        <ele>415</ele>
        <time>2019-06-23T09:50:55.000Z</time>
      </trkpt>
      <trkpt lat="45.69835" lon="3.13118">
        <ele>415</ele>
        <time>2019-06-23T09:50:56.000Z</time>
      </trkpt>
      <trkpt lat="45.69833" lon="3.13112">
        <ele>415</ele>
        <time>2019-06-23T09:50:57.000Z</time>
      </trkpt>
      <trkpt lat="45.69831" lon="3.13106">
        <ele>415</ele>
        <time>2019-06-23T09:50:58.000Z</time>
      </trkpt>
      <trkpt lat="45.69829" lon="3.13101">
        <ele>416</ele>
        <time>2019-06-23T09:50:59.000Z</time>
      </trkpt>
      <trkpt lat="45.69827" lon="3.13097">
        <ele>416</ele>
        <time>2019-06-23T09:51:00.000Z</time>
      </trkpt>
      <trkpt lat="45.69824" lon="3.13092">
        <ele>416</ele>
        <time>2019-06-23T09:51:01.000Z</time>
      </trkpt>
      <trkpt lat="45.69822" lon="3.13088">
        <ele>416</ele>
        <time>2019-06-23T09:51:02.000Z</time>
      </trkpt>
      <trkpt lat="45.69819" lon="3.13084">
        <ele>417</ele>
        <time>2019-06-23T09:51:03.000Z</time>
      </trkpt>
      <trkpt lat="45.69816" lon="3.13081">
        <ele>417</ele>
        <time>2019-06-23T09:51:04.000Z</time>
      </trkpt>
      <trkpt lat="45.69813" lon="3.13077">
        <ele>417</ele>
        <time>2019-06-23T09:51:05.000Z</time>
      </trkpt>
      <trkpt lat="45.6981" lon="3.13073">
        <ele>417</ele>
        <time>2019-06-23T09:51:06.000Z</time>
      </trkpt>
      <trkpt lat="45.69808" lon="3.13069">
        <ele>417</ele>
        <time>2019-06-23T09:51:07.000Z</time>
      </trkpt>
      <trkpt lat="45.69805" lon="3.13065">
        <ele>417</ele>
        <time>2019-06-23T09:51:08.000Z</time>
      </trkpt>
      <trkpt lat="45.69803" lon="3.13062">
        <ele>417</ele>
        <time>2019-06-23T09:51:09.000Z</time>
      </trkpt>
      <trkpt lat="45.698" lon="3.13058">
        <ele>417</ele>
        <time>2019-06-23T09:51:10.000Z</time>
      </trkpt>
      <trkpt lat="45.69798" lon="3.13055">
        <ele>418</ele>
        <time>2019-06-23T09:51:11.000Z</time>
      </trkpt>
      <trkpt lat="45.69797" lon="3.13051">
        <ele>418</ele>
        <time>2019-06-23T09:51:12.000Z</time>
      </trkpt>
      <trkpt lat="45.69798" lon="3.13048">
        <ele>418</ele>
        <time>2019-06-23T09:51:13.000Z</time>
      </trkpt>
      <trkpt lat="45.698" lon="3.13045">
        <ele>419</ele>
        <time>2019-06-23T09:51:14.000Z</time>
      </trkpt>
      <trkpt lat="45.69801" lon="3.13043">
        <ele>419</ele>
        <time>2019-06-23T09:51:15.000Z</time>
      </trkpt>
      <trkpt lat="45.69804" lon="3.13041">
        <ele>420</ele>
        <time>2019-06-23T09:51:16.000Z</time>
      </trkpt>
      <trkpt lat="45.69807" lon="3.13039">
        <ele>420</ele>
        <time>2019-06-23T09:51:17.000Z</time>
      </trkpt>
      <trkpt lat="45.6981" lon="3.13037">
        <ele>420</ele>
        <time>2019-06-23T09:51:18.000Z</time>
      </trkpt>
      <trkpt lat="45.69813" lon="3.13035">
        <ele>421</ele>
        <time>2019-06-23T09:51:19.000Z</time>
      </trkpt>
      <trkpt lat="45.69816" lon="3.13033">
        <ele>420</ele>
        <time>2019-06-23T09:51:20.000Z</time>
      </trkpt>
      <trkpt lat="45.6982" lon="3.13032">
        <ele>420</ele>
        <time>2019-06-23T09:51:21.000Z</time>
      </trkpt>
      <trkpt lat="45.69824" lon="3.1303">
        <ele>420</ele>
        <time>2019-06-23T09:51:22.000Z</time>
      </trkpt>
      <trkpt lat="45.69828" lon="3.13029">
        <ele>420</ele>
        <time>2019-06-23T09:51:23.000Z</time>
      </trkpt>
      <trkpt lat="45.69832" lon="3.13028">
        <ele>420</ele>
        <time>2019-06-23T09:51:24.000Z</time>
      </trkpt>
      <trkpt lat="45.69836" lon="3.13026">
        <ele>420</ele>
        <time>2019-06-23T09:51:25.000Z</time>
      </trkpt>
      <trkpt lat="45.6984" lon="3.13025">
        <ele>420</ele>
        <time>2019-06-23T09:51:26.000Z</time>
      </trkpt>
      <trkpt lat="45.69845" lon="3.13025">
        <ele>421</ele>
        <time>2019-06-23T09:51:27.000Z</time>
      </trkpt>
      <trkpt lat="45.69849" lon="3.13025">
        <ele>421</ele>
        <time>2019-06-23T09:51:28.000Z</time>
      </trkpt>
      <trkpt lat="45.69853" lon="3.13026">
        <ele>421</ele>
        <time>2019-06-23T09:51:29.000Z</time>
      </trkpt>
      <trkpt lat="45.69857" lon="3.13027">
        <ele>421</ele>
        <time>2019-06-23T09:51:30.000Z</time>
      </trkpt>
      <trkpt lat="45.69862" lon="3.13029">
        <ele>421</ele>
        <time>2019-06-23T09:51:31.000Z</time>
      </trkpt>
      <trkpt lat="45.69866" lon="3.13033">
        <ele>421</ele>
        <time>2019-06-23T09:51:32.000Z</time>
      </trkpt>
      <trkpt lat="45.69869" lon="3.13037">
        <ele>420</ele>
        <time>2019-06-23T09:51:33.000Z</time>
      </trkpt>
      <trkpt lat="45.69873" lon="3.13041">
        <ele>420</ele>
        <time>2019-06-23T09:51:34.000Z</time>
      </trkpt>
      <trkpt lat="45.69877" lon="3.13045">
        <ele>420</ele>
        <time>2019-06-23T09:51:35.000Z</time>
      </trkpt>
      <trkpt lat="45.6988" lon="3.1305">
        <ele>420</ele>
        <time>2019-06-23T09:51:36.000Z</time>
      </trkpt>
      <trkpt lat="45.69884" lon="3.13054">
        <ele>421</ele>
        <time>2019-06-23T09:51:37.000Z</time>
      </trkpt>
      <trkpt lat="45.69888" lon="3.13059">
        <ele>421</ele>
        <time>2019-06-23T09:51:38.000Z</time>
      </trkpt>
      <trkpt lat="45.69892" lon="3.13063">
        <ele>421</ele>
        <time>2019-06-23T09:51:39.000Z</time>
      </trkpt>
      <trkpt lat="45.69895" lon="3.13067">
        <ele>421</ele>
        <time>2019-06-23T09:51:40.000Z</time>
      </trkpt>
      <trkpt lat="45.69899" lon="3.13071">
        <ele>421</ele>
        <time>2019-06-23T09:51:41.000Z</time>
      </trkpt>
      <trkpt lat="45.69903" lon="3.13075">
        <ele>421</ele>
        <time>2019-06-23T09:51:42.000Z</time>
      </trkpt>
      <trkpt lat="45.69908" lon="3.13079">
        <ele>421</ele>
        <time>2019-06-23T09:51:43.000Z</time>
      </trkpt>
      <trkpt lat="45.69912" lon="3.13082">
        <ele>421</ele>
        <time>2019-06-23T09:51:44.000Z</time>
      </trkpt>
      <trkpt lat="45.69916" lon="3.13086">
        <ele>421</ele>
        <time>2019-06-23T09:51:45.000Z</time>
      </trkpt>
      <trkpt lat="45.69921" lon="3.13089">
        <ele>421</ele>
        <time>2019-06-23T09:51:46.000Z</time>
      </trkpt>
      <trkpt lat="45.69925" lon="3.13092">
        <ele>422</ele>
        <time>2019-06-23T09:51:47.000Z</time>
      </trkpt>
      <trkpt lat="45.6993" lon="3.13094">
        <ele>422</ele>
        <time>2019-06-23T09:51:48.000Z</time>
      </trkpt>
      <trkpt lat="45.69935" lon="3.13097">
        <ele>422</ele>
        <time>2019-06-23T09:51:49.000Z</time>
      </trkpt>
      <trkpt lat="45.6994" lon="3.13099">
        <ele>422</ele>
        <time>2019-06-23T09:51:50.000Z</time>
      </trkpt>
      <trkpt lat="45.69944" lon="3.13101">
        <ele>422</ele>
        <time>2019-06-23T09:51:51.000Z</time>
      </trkpt>
      <trkpt lat="45.69949" lon="3.13103">
        <ele>422</ele>
        <time>2019-06-23T09:51:52.000Z</time>
      </trkpt>
      <trkpt lat="45.69953" lon="3.13105">
        <ele>423</ele>
        <time>2019-06-23T09:51:53.000Z</time>
      </trkpt>
      <trkpt lat="45.69957" lon="3.13107">
        <ele>423</ele>
        <time>2019-06-23T09:51:54.000Z</time>
      </trkpt>
      <trkpt lat="45.69961" lon="3.1311">
        <ele>424</ele>
        <time>2019-06-23T09:51:55.000Z</time>
      </trkpt>
      <trkpt lat="45.69964" lon="3.13113">
        <ele>425</ele>
        <time>2019-06-23T09:51:56.000Z</time>
      </trkpt>
      <trkpt lat="45.69966" lon="3.13118">
        <ele>424</ele>
        <time>2019-06-23T09:51:57.000Z</time>
      </trkpt>
      <trkpt lat="45.69966" lon="3.13125">
        <ele>424</ele>
        <time>2019-06-23T09:51:58.000Z</time>
      </trkpt>
      <trkpt lat="45.69961" lon="3.13132">
        <ele>420</ele>
        <time>2019-06-23T09:51:59.000Z</time>
      </trkpt>
      <trkpt lat="45.69959" lon="3.13141">
        <ele>418</ele>
        <time>2019-06-23T09:52:00.000Z</time>
      </trkpt>
      <trkpt lat="45.69956" lon="3.13152">
        <ele>416</ele>
        <time>2019-06-23T09:52:01.000Z</time>
      </trkpt>
      <trkpt lat="45.69953" lon="3.13163">
        <ele>414</ele>
        <time>2019-06-23T09:52:02.000Z</time>
      </trkpt>
      <trkpt lat="45.69952" lon="3.13176">
        <ele>414</ele>
        <time>2019-06-23T09:52:03.000Z</time>
      </trkpt>
      <trkpt lat="45.69952" lon="3.13188">
        <ele>413</ele>
        <time>2019-06-23T09:52:04.000Z</time>
      </trkpt>
      <trkpt lat="45.69952" lon="3.132">
        <ele>412</ele>
        <time>2019-06-23T09:52:05.000Z</time>
      </trkpt>
      <trkpt lat="45.69953" lon="3.13213">
        <ele>412</ele>
        <time>2019-06-23T09:52:06.000Z</time>
      </trkpt>
      <trkpt lat="45.69954" lon="3.13225">
        <ele>412</ele>
        <time>2019-06-23T09:52:07.000Z</time>
      </trkpt>
      <trkpt lat="45.69954" lon="3.13238">
        <ele>411</ele>
        <time>2019-06-23T09:52:08.000Z</time>
      </trkpt>
      <trkpt lat="45.69955" lon="3.1325">
        <ele>411</ele>
        <time>2019-06-23T09:52:09.000Z</time>
      </trkpt>
      <trkpt lat="45.69955" lon="3.13262">
        <ele>410</ele>
        <time>2019-06-23T09:52:10.000Z</time>
      </trkpt>
      <trkpt lat="45.69955" lon="3.13274">
        <ele>410</ele>
        <time>2019-06-23T09:52:11.000Z</time>
      </trkpt>
      <trkpt lat="45.69955" lon="3.13285">
        <ele>410</ele>
        <time>2019-06-23T09:52:12.000Z</time>
      </trkpt>
      <trkpt lat="45.69955" lon="3.13296">
        <ele>410</ele>
        <time>2019-06-23T09:52:13.000Z</time>
      </trkpt>
      <trkpt lat="45.69955" lon="3.13307">
        <ele>410</ele>
        <time>2019-06-23T09:52:14.000Z</time>
      </trkpt>
      <trkpt lat="45.69955" lon="3.13317">
        <ele>410</ele>
        <time>2019-06-23T09:52:15.000Z</time>
      </trkpt>
      <trkpt lat="45.69954" lon="3.13327">
        <ele>411</ele>
        <time>2019-06-23T09:52:16.000Z</time>
      </trkpt>
      <trkpt lat="45.69955" lon="3.13337">
        <ele>410</ele>
        <time>2019-06-23T09:52:17.000Z</time>
      </trkpt>
      <trkpt lat="45.69955" lon="3.13347">
        <ele>411</ele>
        <time>2019-06-23T09:52:18.000Z</time>
      </trkpt>
      <trkpt lat="45.69955" lon="3.13356">
        <ele>412</ele>
        <time>2019-06-23T09:52:19.000Z</time>
      </trkpt>
      <trkpt lat="45.69953" lon="3.13366">
        <ele>412</ele>
        <time>2019-06-23T09:52:20.000Z</time>
      </trkpt>
      <trkpt lat="45.69953" lon="3.13375">
        <ele>413</ele>
        <time>2019-06-23T09:52:21.000Z</time>
      </trkpt>
      <trkpt lat="45.69951" lon="3.13384">
        <ele>411</ele>
        <time>2019-06-23T09:52:22.000Z</time>
      </trkpt>
      <trkpt lat="45.69949" lon="3.13393">
        <ele>411</ele>
        <time>2019-06-23T09:52:23.000Z</time>
      </trkpt>
      <trkpt lat="45.69949" lon="3.13402">
        <ele>410</ele>
        <time>2019-06-23T09:52:24.000Z</time>
      </trkpt>
      <trkpt lat="45.69948" lon="3.13411">
        <ele>410</ele>
        <time>2019-06-23T09:52:25.000Z</time>
      </trkpt>
      <trkpt lat="45.69948" lon="3.1342">
        <ele>410</ele>
        <time>2019-06-23T09:52:26.000Z</time>
      </trkpt>
      <trkpt lat="45.69947" lon="3.1343">
        <ele>410</ele>
        <time>2019-06-23T09:52:27.000Z</time>
      </trkpt>
      <trkpt lat="45.69947" lon="3.13439">
        <ele>409</ele>
        <time>2019-06-23T09:52:28.000Z</time>
      </trkpt>
      <trkpt lat="45.69947" lon="3.13448">
        <ele>409</ele>
        <time>2019-06-23T09:52:29.000Z</time>
      </trkpt>
      <trkpt lat="45.69946" lon="3.13457">
        <ele>409</ele>
        <time>2019-06-23T09:52:30.000Z</time>
      </trkpt>
      <trkpt lat="45.69946" lon="3.13465">
        <ele>409</ele>
        <time>2019-06-23T09:52:31.000Z</time>
      </trkpt>
      <trkpt lat="45.69945" lon="3.13474">
        <ele>409</ele>
        <time>2019-06-23T09:52:32.000Z</time>
      </trkpt>
      <trkpt lat="45.69945" lon="3.13483">
        <ele>408</ele>
        <time>2019-06-23T09:52:33.000Z</time>
      </trkpt>
      <trkpt lat="45.69944" lon="3.13491">
        <ele>408</ele>
        <time>2019-06-23T09:52:34.000Z</time>
      </trkpt>
      <trkpt lat="45.69943" lon="3.135">
        <ele>408</ele>
        <time>2019-06-23T09:52:35.000Z</time>
      </trkpt>
      <trkpt lat="45.69942" lon="3.13509">
        <ele>407</ele>
        <time>2019-06-23T09:52:36.000Z</time>
      </trkpt>
      <trkpt lat="45.6994" lon="3.13519">
        <ele>407</ele>
        <time>2019-06-23T09:52:37.000Z</time>
      </trkpt>
      <trkpt lat="45.69939" lon="3.13528">
        <ele>407</ele>
        <time>2019-06-23T09:52:38.000Z</time>
      </trkpt>
      <trkpt lat="45.69938" lon="3.13537">
        <ele>407</ele>
        <time>2019-06-23T09:52:39.000Z</time>
      </trkpt>
      <trkpt lat="45.69938" lon="3.13544">
        <ele>407</ele>
        <time>2019-06-23T09:52:40.000Z</time>
      </trkpt>
      <trkpt lat="45.69938" lon="3.1355">
        <ele>406</ele>
        <time>2019-06-23T09:52:41.000Z</time>
      </trkpt>
      <trkpt lat="45.6994" lon="3.13551">
        <ele>407</ele>
        <time>2019-06-23T09:52:42.000Z</time>
      </trkpt>
      <trkpt lat="45.69942" lon="3.13552">
        <ele>409</ele>
        <time>2019-06-23T09:52:43.000Z</time>
      </trkpt>
      <trkpt lat="45.69944" lon="3.13552">
        <ele>407</ele>
        <time>2019-06-23T09:52:44.000Z</time>
      </trkpt>
      <trkpt lat="45.69947" lon="3.13552">
        <ele>407</ele>
        <time>2019-06-23T09:52:45.000Z</time>
      </trkpt>
      <trkpt lat="45.69949" lon="3.13552">
        <ele>408</ele>
        <time>2019-06-23T09:52:46.000Z</time>
      </trkpt>
      <trkpt lat="45.69951" lon="3.13553">
        <ele>407</ele>
        <time>2019-06-23T09:52:47.000Z</time>
      </trkpt>
      <trkpt lat="45.69954" lon="3.13552">
        <ele>408</ele>
        <time>2019-06-23T09:52:48.000Z</time>
      </trkpt>
      <trkpt lat="45.69957" lon="3.13552">
        <ele>408</ele>
        <time>2019-06-23T09:52:49.000Z</time>
      </trkpt>
      <trkpt lat="45.6996" lon="3.13552">
        <ele>408</ele>
        <time>2019-06-23T09:52:50.000Z</time>
      </trkpt>
      <trkpt lat="45.69962" lon="3.13552">
        <ele>408</ele>
        <time>2019-06-23T09:52:51.000Z</time>
      </trkpt>
      <trkpt lat="45.69965" lon="3.13551">
        <ele>409</ele>
        <time>2019-06-23T09:52:52.000Z</time>
      </trkpt>
      <trkpt lat="45.69967" lon="3.13551">
        <ele>409</ele>
        <time>2019-06-23T09:52:53.000Z</time>
      </trkpt>
      <trkpt lat="45.6997" lon="3.13552">
        <ele>409</ele>
        <time>2019-06-23T09:52:54.000Z</time>
      </trkpt>
      <trkpt lat="45.69972" lon="3.13552">
        <ele>410</ele>
        <time>2019-06-23T09:52:55.000Z</time>
      </trkpt>
      <trkpt lat="45.69974" lon="3.13551">
        <ele>410</ele>
        <time>2019-06-23T09:52:56.000Z</time>
      </trkpt>
      <trkpt lat="45.69976" lon="3.13551">
        <ele>410</ele>
        <time>2019-06-23T09:52:57.000Z</time>
      </trkpt>
      <trkpt lat="45.69979" lon="3.1355">
        <ele>410</ele>
        <time>2019-06-23T09:52:58.000Z</time>
      </trkpt>
      <trkpt lat="45.69981" lon="3.1355">
        <ele>410</ele>
        <time>2019-06-23T09:52:59.000Z</time>
      </trkpt>
      <trkpt lat="45.69984" lon="3.1355">
        <ele>411</ele>
        <time>2019-06-23T09:53:00.000Z</time>
      </trkpt>
      <trkpt lat="45.69987" lon="3.1355">
        <ele>411</ele>
        <time>2019-06-23T09:53:01.000Z</time>
      </trkpt>
      <trkpt lat="45.69989" lon="3.1355">
        <ele>411</ele>
        <time>2019-06-23T09:53:02.000Z</time>
      </trkpt>
      <trkpt lat="45.69991" lon="3.1355">
        <ele>412</ele>
        <time>2019-06-23T09:53:03.000Z</time>
      </trkpt>
      <trkpt lat="45.69994" lon="3.13549">
        <ele>412</ele>
        <time>2019-06-23T09:53:04.000Z</time>
      </trkpt>
      <trkpt lat="45.69996" lon="3.13548">
        <ele>413</ele>
        <time>2019-06-23T09:53:05.000Z</time>
      </trkpt>
      <trkpt lat="45.69999" lon="3.13548">
        <ele>413</ele>
        <time>2019-06-23T09:53:06.000Z</time>
      </trkpt>
      <trkpt lat="45.70001" lon="3.13547">
        <ele>413</ele>
        <time>2019-06-23T09:53:07.000Z</time>
      </trkpt>
      <trkpt lat="45.70003" lon="3.13546">
        <ele>413</ele>
        <time>2019-06-23T09:53:08.000Z</time>
      </trkpt>
      <trkpt lat="45.70005" lon="3.13546">
        <ele>414</ele>
        <time>2019-06-23T09:53:09.000Z</time>
      </trkpt>
      <trkpt lat="45.70008" lon="3.13547">
        <ele>415</ele>
        <time>2019-06-23T09:53:10.000Z</time>
      </trkpt>
      <trkpt lat="45.7001" lon="3.13547">
        <ele>416</ele>
        <time>2019-06-23T09:53:11.000Z</time>
      </trkpt>
      <trkpt lat="45.70013" lon="3.13548">
        <ele>416</ele>
        <time>2019-06-23T09:53:12.000Z</time>
      </trkpt>
      <trkpt lat="45.70016" lon="3.13548">
        <ele>416</ele>
        <time>2019-06-23T09:53:13.000Z</time>
      </trkpt>
      <trkpt lat="45.70018" lon="3.13549">
        <ele>416</ele>
        <time>2019-06-23T09:53:14.000Z</time>
      </trkpt>
      <trkpt lat="45.70021" lon="3.13549">
        <ele>416</ele>
        <time>2019-06-23T09:53:15.000Z</time>
      </trkpt>
      <trkpt lat="45.70024" lon="3.13547">
        <ele>416</ele>
        <time>2019-06-23T09:53:16.000Z</time>
      </trkpt>
      <trkpt lat="45.70026" lon="3.13546">
        <ele>415</ele>
        <time>2019-06-23T09:53:17.000Z</time>
      </trkpt>
      <trkpt lat="45.70029" lon="3.13545">
        <ele>415</ele>
        <time>2019-06-23T09:53:18.000Z</time>
      </trkpt>
      <trkpt lat="45.70031" lon="3.13544">
        <ele>416</ele>
        <time>2019-06-23T09:53:19.000Z</time>
      </trkpt>
      <trkpt lat="45.70034" lon="3.13543">
        <ele>416</ele>
        <time>2019-06-23T09:53:20.000Z</time>
      </trkpt>
      <trkpt lat="45.70037" lon="3.13543">
        <ele>416</ele>
        <time>2019-06-23T09:53:21.000Z</time>
      </trkpt>
      <trkpt lat="45.70039" lon="3.13542">
        <ele>416</ele>
        <time>2019-06-23T09:53:22.000Z</time>
      </trkpt>
      <trkpt lat="45.70042" lon="3.13542">
        <ele>416</ele>
        <time>2019-06-23T09:53:23.000Z</time>
      </trkpt>
      <trkpt lat="45.70044" lon="3.13541">
        <ele>416</ele>
        <time>2019-06-23T09:53:24.000Z</time>
      </trkpt>
      <trkpt lat="45.70047" lon="3.13541">
        <ele>417</ele>
        <time>2019-06-23T09:53:25.000Z</time>
      </trkpt>
      <trkpt lat="45.70049" lon="3.1354">
        <ele>417</ele>
        <time>2019-06-23T09:53:26.000Z</time>
      </trkpt>
      <trkpt lat="45.70052" lon="3.1354">
        <ele>418</ele>
        <time>2019-06-23T09:53:27.000Z</time>
      </trkpt>
      <trkpt lat="45.70054" lon="3.13539">
        <ele>418</ele>
        <time>2019-06-23T09:53:28.000Z</time>
      </trkpt>
      <trkpt lat="45.70056" lon="3.13539">
        <ele>418</ele>
        <time>2019-06-23T09:53:29.000Z</time>
      </trkpt>
      <trkpt lat="45.70059" lon="3.13539">
        <ele>418</ele>
        <time>2019-06-23T09:53:30.000Z</time>
      </trkpt>
      <trkpt lat="45.70061" lon="3.13538">
        <ele>419</ele>
        <time>2019-06-23T09:53:31.000Z</time>
      </trkpt>
      <trkpt lat="45.70063" lon="3.13538">
        <ele>419</ele>
        <time>2019-06-23T09:53:32.000Z</time>
      </trkpt>
      <trkpt lat="45.70065" lon="3.13537">
        <ele>420</ele>
        <time>2019-06-23T09:53:33.000Z</time>
      </trkpt>
      <trkpt lat="45.70068" lon="3.13537">
        <ele>420</ele>
        <time>2019-06-23T09:53:34.000Z</time>
      </trkpt>
      <trkpt lat="45.7007" lon="3.13537">
        <ele>421</ele>
        <time>2019-06-23T09:53:35.000Z</time>
      </trkpt>
      <trkpt lat="45.70072" lon="3.13537">
        <ele>421</ele>
        <time>2019-06-23T09:53:36.000Z</time>
      </trkpt>
      <trkpt lat="45.70074" lon="3.13536">
        <ele>421</ele>
        <time>2019-06-23T09:53:37.000Z</time>
      </trkpt>
      <trkpt lat="45.70076" lon="3.13536">
        <ele>422</ele>
        <time>2019-06-23T09:53:38.000Z</time>
      </trkpt>
      <trkpt lat="45.70078" lon="3.13535">
        <ele>422</ele>
        <time>2019-06-23T09:53:39.000Z</time>
      </trkpt>
      <trkpt lat="45.7008" lon="3.13534">
        <ele>422</ele>
        <time>2019-06-23T09:53:40.000Z</time>
      </trkpt>
      <trkpt lat="45.70082" lon="3.13534">
        <ele>423</ele>
        <time>2019-06-23T09:53:41.000Z</time>
      </trkpt>
      <trkpt lat="45.70084" lon="3.13534">
        <ele>423</ele>
        <time>2019-06-23T09:53:42.000Z</time>
      </trkpt>
      <trkpt lat="45.70086" lon="3.13534">
        <ele>423</ele>
        <time>2019-06-23T09:53:43.000Z</time>
      </trkpt>
      <trkpt lat="45.70088" lon="3.13534">
        <ele>424</ele>
        <time>2019-06-23T09:53:44.000Z</time>
      </trkpt>
      <trkpt lat="45.7009" lon="3.13534">
        <ele>424</ele>
        <time>2019-06-23T09:53:45.000Z</time>
      </trkpt>
      <trkpt lat="45.70092" lon="3.13534">
        <ele>424</ele>
        <time>2019-06-23T09:53:46.000Z</time>
      </trkpt>
      <trkpt lat="45.70094" lon="3.13534">
        <ele>425</ele>
        <time>2019-06-23T09:53:47.000Z</time>
      </trkpt>
      <trkpt lat="45.70096" lon="3.13534">
        <ele>425</ele>
        <time>2019-06-23T09:53:48.000Z</time>
      </trkpt>
      <trkpt lat="45.70098" lon="3.13534">
        <ele>426</ele>
        <time>2019-06-23T09:53:49.000Z</time>
      </trkpt>
      <trkpt lat="45.701" lon="3.13534">
        <ele>426</ele>
        <time>2019-06-23T09:53:50.000Z</time>
      </trkpt>
      <trkpt lat="45.70102" lon="3.13534">
        <ele>427</ele>
        <time>2019-06-23T09:53:51.000Z</time>
      </trkpt>
      <trkpt lat="45.70104" lon="3.13533">
        <ele>427</ele>
        <time>2019-06-23T09:53:52.000Z</time>
      </trkpt>
      <trkpt lat="45.70106" lon="3.13533">
        <ele>427</ele>
        <time>2019-06-23T09:53:53.000Z</time>
      </trkpt>
      <trkpt lat="45.70108" lon="3.13533">
        <ele>427</ele>
        <time>2019-06-23T09:53:54.000Z</time>
      </trkpt>
      <trkpt lat="45.7011" lon="3.13533">
        <ele>428</ele>
        <time>2019-06-23T09:53:55.000Z</time>
      </trkpt>
      <trkpt lat="45.70111" lon="3.13533">
        <ele>428</ele>
        <time>2019-06-23T09:53:56.000Z</time>
      </trkpt>
      <trkpt lat="45.70113" lon="3.13533">
        <ele>429</ele>
        <time>2019-06-23T09:53:57.000Z</time>
      </trkpt>
      <trkpt lat="45.70115" lon="3.13533">
        <ele>429</ele>
        <time>2019-06-23T09:53:58.000Z</time>
      </trkpt>
      <trkpt lat="45.70117" lon="3.13533">
        <ele>430</ele>
        <time>2019-06-23T09:53:59.000Z</time>
      </trkpt>
      <trkpt lat="45.70119" lon="3.13533">
        <ele>430</ele>
        <time>2019-06-23T09:54:00.000Z</time>
      </trkpt>
      <trkpt lat="45.70121" lon="3.13533">
        <ele>430</ele>
        <time>2019-06-23T09:54:01.000Z</time>
      </trkpt>
      <trkpt lat="45.70123" lon="3.13534">
        <ele>430</ele>
        <time>2019-06-23T09:54:02.000Z</time>
      </trkpt>
      <trkpt lat="45.70125" lon="3.13534">
        <ele>430</ele>
        <time>2019-06-23T09:54:03.000Z</time>
      </trkpt>
      <trkpt lat="45.70127" lon="3.13534">
        <ele>430</ele>
        <time>2019-06-23T09:54:04.000Z</time>
      </trkpt>
      <trkpt lat="45.70129" lon="3.13534">
        <ele>431</ele>
        <time>2019-06-23T09:54:05.000Z</time>
      </trkpt>
      <trkpt lat="45.7013" lon="3.13534">
        <ele>431</ele>
        <time>2019-06-23T09:54:06.000Z</time>
      </trkpt>
      <trkpt lat="45.70132" lon="3.13533">
        <ele>431</ele>
        <time>2019-06-23T09:54:07.000Z</time>
      </trkpt>
      <trkpt lat="45.70134" lon="3.13532">
        <ele>431</ele>
        <time>2019-06-23T09:54:08.000Z</time>
      </trkpt>
      <trkpt lat="45.70135" lon="3.13532">
        <ele>431</ele>
        <time>2019-06-23T09:54:09.000Z</time>
      </trkpt>
      <trkpt lat="45.70137" lon="3.13531">
        <ele>431</ele>
        <time>2019-06-23T09:54:10.000Z</time>
      </trkpt>
      <trkpt lat="45.70139" lon="3.13531">
        <ele>432</ele>
        <time>2019-06-23T09:54:11.000Z</time>
      </trkpt>
      <trkpt lat="45.70141" lon="3.13531">
        <ele>432</ele>
        <time>2019-06-23T09:54:12.000Z</time>
      </trkpt>
      <trkpt lat="45.70143" lon="3.1353">
        <ele>432</ele>
        <time>2019-06-23T09:54:13.000Z</time>
      </trkpt>
      <trkpt lat="45.70145" lon="3.1353">
        <ele>433</ele>
        <time>2019-06-23T09:54:14.000Z</time>
      </trkpt>
      <trkpt lat="45.70147" lon="3.13529">
        <ele>433</ele>
        <time>2019-06-23T09:54:15.000Z</time>
      </trkpt>
      <trkpt lat="45.70149" lon="3.13529">
        <ele>434</ele>
        <time>2019-06-23T09:54:16.000Z</time>
      </trkpt>
      <trkpt lat="45.70151" lon="3.13529">
        <ele>434</ele>
        <time>2019-06-23T09:54:17.000Z</time>
      </trkpt>
      <trkpt lat="45.70153" lon="3.13528">
        <ele>434</ele>
        <time>2019-06-23T09:54:18.000Z</time>
      </trkpt>
      <trkpt lat="45.70154" lon="3.13528">
        <ele>435</ele>
        <time>2019-06-23T09:54:19.000Z</time>
      </trkpt>
      <trkpt lat="45.70156" lon="3.13529">
        <ele>434</ele>
        <time>2019-06-23T09:54:20.000Z</time>
      </trkpt>
      <trkpt lat="45.70157" lon="3.13531">
        <ele>435</ele>
        <time>2019-06-23T09:54:21.000Z</time>
      </trkpt>
      <trkpt lat="45.70158" lon="3.13534">
        <ele>435</ele>
        <time>2019-06-23T09:54:22.000Z</time>
      </trkpt>
      <trkpt lat="45.70159" lon="3.13537">
        <ele>435</ele>
        <time>2019-06-23T09:54:23.000Z</time>
      </trkpt>
      <trkpt lat="45.7016" lon="3.1354">
        <ele>434</ele>
        <time>2019-06-23T09:54:24.000Z</time>
      </trkpt>
      <trkpt lat="45.7016" lon="3.13544">
        <ele>434</ele>
        <time>2019-06-23T09:54:25.000Z</time>
      </trkpt>
      <trkpt lat="45.70161" lon="3.13548">
        <ele>434</ele>
        <time>2019-06-23T09:54:26.000Z</time>
      </trkpt>
      <trkpt lat="45.70162" lon="3.13553">
        <ele>435</ele>
        <time>2019-06-23T09:54:27.000Z</time>
      </trkpt>
      <trkpt lat="45.70163" lon="3.13559">
        <ele>434</ele>
        <time>2019-06-23T09:54:28.000Z</time>
      </trkpt>
      <trkpt lat="45.70164" lon="3.13565">
        <ele>434</ele>
        <time>2019-06-23T09:54:29.000Z</time>
      </trkpt>
      <trkpt lat="45.70165" lon="3.13571">
        <ele>434</ele>
        <time>2019-06-23T09:54:30.000Z</time>
      </trkpt>
      <trkpt lat="45.70167" lon="3.13577">
        <ele>434</ele>
        <time>2019-06-23T09:54:31.000Z</time>
      </trkpt>
      <trkpt lat="45.70167" lon="3.13583">
        <ele>434</ele>
        <time>2019-06-23T09:54:32.000Z</time>
      </trkpt>
      <trkpt lat="45.70168" lon="3.13589">
        <ele>433</ele>
        <time>2019-06-23T09:54:33.000Z</time>
      </trkpt>
      <trkpt lat="45.70169" lon="3.13596">
        <ele>433</ele>
        <time>2019-06-23T09:54:34.000Z</time>
      </trkpt>
      <trkpt lat="45.70171" lon="3.13603">
        <ele>433</ele>
        <time>2019-06-23T09:54:35.000Z</time>
      </trkpt>
      <trkpt lat="45.70172" lon="3.1361">
        <ele>433</ele>
        <time>2019-06-23T09:54:36.000Z</time>
      </trkpt>
      <trkpt lat="45.70173" lon="3.13617">
        <ele>433</ele>
        <time>2019-06-23T09:54:37.000Z</time>
      </trkpt>
      <trkpt lat="45.70175" lon="3.13624">
        <ele>433</ele>
        <time>2019-06-23T09:54:38.000Z</time>
      </trkpt>
      <trkpt lat="45.70176" lon="3.13631">
        <ele>433</ele>
        <time>2019-06-23T09:54:39.000Z</time>
      </trkpt>
      <trkpt lat="45.70177" lon="3.13639">
        <ele>433</ele>
        <time>2019-06-23T09:54:40.000Z</time>
      </trkpt>
      <trkpt lat="45.70179" lon="3.13647">
        <ele>432</ele>
        <time>2019-06-23T09:54:41.000Z</time>
      </trkpt>
      <trkpt lat="45.7018" lon="3.13655">
        <ele>432</ele>
        <time>2019-06-23T09:54:42.000Z</time>
      </trkpt>
      <trkpt lat="45.70182" lon="3.13663">
        <ele>432</ele>
        <time>2019-06-23T09:54:43.000Z</time>
      </trkpt>
      <trkpt lat="45.70184" lon="3.13671">
        <ele>432</ele>
        <time>2019-06-23T09:54:44.000Z</time>
      </trkpt>
      <trkpt lat="45.70186" lon="3.13679">
        <ele>431</ele>
        <time>2019-06-23T09:54:45.000Z</time>
      </trkpt>
      <trkpt lat="45.70187" lon="3.13688">
        <ele>431</ele>
        <time>2019-06-23T09:54:46.000Z</time>
      </trkpt>
      <trkpt lat="45.70189" lon="3.13696">
        <ele>430</ele>
        <time>2019-06-23T09:54:47.000Z</time>
      </trkpt>
      <trkpt lat="45.70192" lon="3.13705">
        <ele>430</ele>
        <time>2019-06-23T09:54:48.000Z</time>
      </trkpt>
      <trkpt lat="45.70193" lon="3.13714">
        <ele>429</ele>
        <time>2019-06-23T09:54:49.000Z</time>
      </trkpt>
      <trkpt lat="45.70196" lon="3.13723">
        <ele>429</ele>
        <time>2019-06-23T09:54:50.000Z</time>
      </trkpt>
      <trkpt lat="45.70198" lon="3.13732">
        <ele>429</ele>
        <time>2019-06-23T09:54:51.000Z</time>
      </trkpt>
      <trkpt lat="45.702" lon="3.13741">
        <ele>428</ele>
        <time>2019-06-23T09:54:52.000Z</time>
      </trkpt>
      <trkpt lat="45.70203" lon="3.13749">
        <ele>428</ele>
        <time>2019-06-23T09:54:53.000Z</time>
      </trkpt>
      <trkpt lat="45.70205" lon="3.13758">
        <ele>427</ele>
        <time>2019-06-23T09:54:54.000Z</time>
      </trkpt>
      <trkpt lat="45.70207" lon="3.13766">
        <ele>427</ele>
        <time>2019-06-23T09:54:55.000Z</time>
      </trkpt>
      <trkpt lat="45.70209" lon="3.13774">
        <ele>427</ele>
        <time>2019-06-23T09:54:56.000Z</time>
      </trkpt>
      <trkpt lat="45.7021" lon="3.13781">
        <ele>426</ele>
        <time>2019-06-23T09:54:57.000Z</time>
      </trkpt>
      <trkpt lat="45.7021" lon="3.13787">
        <ele>426</ele>
        <time>2019-06-23T09:54:58.000Z</time>
      </trkpt>
      <trkpt lat="45.7021" lon="3.13794">
        <ele>426</ele>
        <time>2019-06-23T09:54:59.000Z</time>
      </trkpt>
      <trkpt lat="45.70209" lon="3.13802">
        <ele>425</ele>
        <time>2019-06-23T09:55:00.000Z</time>
      </trkpt>
      <trkpt lat="45.7021" lon="3.13809">
        <ele>424</ele>
        <time>2019-06-23T09:55:01.000Z</time>
      </trkpt>
      <trkpt lat="45.70212" lon="3.13815">
        <ele>424</ele>
        <time>2019-06-23T09:55:02.000Z</time>
      </trkpt>
      <trkpt lat="45.70216" lon="3.13818">
        <ele>424</ele>
        <time>2019-06-23T09:55:03.000Z</time>
      </trkpt>
      <trkpt lat="45.7022" lon="3.13818">
        <ele>425</ele>
        <time>2019-06-23T09:55:04.000Z</time>
      </trkpt>
      <trkpt lat="45.70225" lon="3.1382">
        <ele>425</ele>
        <time>2019-06-23T09:55:05.000Z</time>
      </trkpt>
      <trkpt lat="45.70228" lon="3.13825">
        <ele>425</ele>
        <time>2019-06-23T09:55:06.000Z</time>
      </trkpt>
      <trkpt lat="45.70229" lon="3.13831">
        <ele>427</ele>
        <time>2019-06-23T09:55:07.000Z</time>
      </trkpt>
      <trkpt lat="45.70231" lon="3.13837">
        <ele>427</ele>
        <time>2019-06-23T09:55:08.000Z</time>
      </trkpt>
      <trkpt lat="45.70232" lon="3.13843">
        <ele>427</ele>
        <time>2019-06-23T09:55:09.000Z</time>
      </trkpt>
      <trkpt lat="45.70234" lon="3.1385">
        <ele>426</ele>
        <time>2019-06-23T09:55:10.000Z</time>
      </trkpt>
      <trkpt lat="45.70236" lon="3.13857">
        <ele>426</ele>
        <time>2019-06-23T09:55:11.000Z</time>
      </trkpt>
      <trkpt lat="45.70238" lon="3.13865">
        <ele>425</ele>
        <time>2019-06-23T09:55:12.000Z</time>
      </trkpt>
      <trkpt lat="45.7024" lon="3.13872">
        <ele>425</ele>
        <time>2019-06-23T09:55:13.000Z</time>
      </trkpt>
      <trkpt lat="45.70243" lon="3.13879">
        <ele>425</ele>
        <time>2019-06-23T09:55:14.000Z</time>
      </trkpt>
      <trkpt lat="45.70246" lon="3.13887">
        <ele>425</ele>
        <time>2019-06-23T09:55:15.000Z</time>
      </trkpt>
      <trkpt lat="45.70249" lon="3.13895">
        <ele>424</ele>
        <time>2019-06-23T09:55:16.000Z</time>
      </trkpt>
      <trkpt lat="45.70253" lon="3.13902">
        <ele>424</ele>
        <time>2019-06-23T09:55:17.000Z</time>
      </trkpt>
      <trkpt lat="45.70257" lon="3.1391">
        <ele>424</ele>
        <time>2019-06-23T09:55:18.000Z</time>
      </trkpt>
      <trkpt lat="45.7026" lon="3.13918">
        <ele>424</ele>
        <time>2019-06-23T09:55:19.000Z</time>
      </trkpt>
      <trkpt lat="45.70263" lon="3.13927">
        <ele>424</ele>
        <time>2019-06-23T09:55:20.000Z</time>
      </trkpt>
      <trkpt lat="45.70266" lon="3.13935">
        <ele>424</ele>
        <time>2019-06-23T09:55:21.000Z</time>
      </trkpt>
      <trkpt lat="45.70268" lon="3.13944">
        <ele>423</ele>
        <time>2019-06-23T09:55:22.000Z</time>
      </trkpt>
      <trkpt lat="45.7027" lon="3.13953">
        <ele>423</ele>
        <time>2019-06-23T09:55:23.000Z</time>
      </trkpt>
      <trkpt lat="45.70272" lon="3.13961">
        <ele>423</ele>
        <time>2019-06-23T09:55:24.000Z</time>
      </trkpt>
      <trkpt lat="45.70273" lon="3.1397">
        <ele>422</ele>
        <time>2019-06-23T09:55:25.000Z</time>
      </trkpt>
      <trkpt lat="45.70275" lon="3.13978">
        <ele>422</ele>
        <time>2019-06-23T09:55:26.000Z</time>
      </trkpt>
      <trkpt lat="45.70276" lon="3.13987">
        <ele>421</ele>
        <time>2019-06-23T09:55:27.000Z</time>
      </trkpt>
      <trkpt lat="45.70276" lon="3.13995">
        <ele>422</ele>
        <time>2019-06-23T09:55:28.000Z</time>
      </trkpt>
      <trkpt lat="45.70276" lon="3.14004">
        <ele>422</ele>
        <time>2019-06-23T09:55:29.000Z</time>
      </trkpt>
      <trkpt lat="45.70275" lon="3.14013">
        <ele>421</ele>
        <time>2019-06-23T09:55:30.000Z</time>
      </trkpt>
      <trkpt lat="45.70274" lon="3.14022">
        <ele>421</ele>
        <time>2019-06-23T09:55:31.000Z</time>
      </trkpt>
      <trkpt lat="45.70273" lon="3.14031">
        <ele>421</ele>
        <time>2019-06-23T09:55:32.000Z</time>
      </trkpt>
      <trkpt lat="45.70272" lon="3.1404">
        <ele>421</ele>
        <time>2019-06-23T09:55:33.000Z</time>
      </trkpt>
      <trkpt lat="45.70271" lon="3.14049">
        <ele>421</ele>
        <time>2019-06-23T09:55:34.000Z</time>
      </trkpt>
      <trkpt lat="45.7027" lon="3.14058">
        <ele>421</ele>
        <time>2019-06-23T09:55:35.000Z</time>
      </trkpt>
      <trkpt lat="45.70269" lon="3.14068">
        <ele>420</ele>
        <time>2019-06-23T09:55:36.000Z</time>
      </trkpt>
      <trkpt lat="45.70268" lon="3.14076">
        <ele>420</ele>
        <time>2019-06-23T09:55:37.000Z</time>
      </trkpt>
      <trkpt lat="45.70267" lon="3.14086">
        <ele>419</ele>
        <time>2019-06-23T09:55:38.000Z</time>
      </trkpt>
      <trkpt lat="45.70266" lon="3.14095">
        <ele>419</ele>
        <time>2019-06-23T09:55:39.000Z</time>
      </trkpt>
      <trkpt lat="45.70265" lon="3.14104">
        <ele>418</ele>
        <time>2019-06-23T09:55:40.000Z</time>
      </trkpt>
      <trkpt lat="45.70264" lon="3.14113">
        <ele>418</ele>
        <time>2019-06-23T09:55:41.000Z</time>
      </trkpt>
      <trkpt lat="45.70263" lon="3.14122">
        <ele>418</ele>
        <time>2019-06-23T09:55:42.000Z</time>
      </trkpt>
      <trkpt lat="45.70262" lon="3.14131">
        <ele>417</ele>
        <time>2019-06-23T09:55:43.000Z</time>
      </trkpt>
      <trkpt lat="45.70261" lon="3.1414">
        <ele>417</ele>
        <time>2019-06-23T09:55:44.000Z</time>
      </trkpt>
      <trkpt lat="45.7026" lon="3.14149">
        <ele>416</ele>
        <time>2019-06-23T09:55:45.000Z</time>
      </trkpt>
      <trkpt lat="45.70259" lon="3.14158">
        <ele>416</ele>
        <time>2019-06-23T09:55:46.000Z</time>
      </trkpt>
      <trkpt lat="45.70259" lon="3.14167">
        <ele>415</ele>
        <time>2019-06-23T09:55:47.000Z</time>
      </trkpt>
      <trkpt lat="45.70258" lon="3.14177">
        <ele>415</ele>
        <time>2019-06-23T09:55:48.000Z</time>
      </trkpt>
      <trkpt lat="45.70257" lon="3.14186">
        <ele>415</ele>
        <time>2019-06-23T09:55:49.000Z</time>
      </trkpt>
      <trkpt lat="45.70256" lon="3.14195">
        <ele>415</ele>
        <time>2019-06-23T09:55:50.000Z</time>
      </trkpt>
      <trkpt lat="45.70255" lon="3.14204">
        <ele>415</ele>
        <time>2019-06-23T09:55:51.000Z</time>
      </trkpt>
      <trkpt lat="45.70254" lon="3.14213">
        <ele>415</ele>
        <time>2019-06-23T09:55:52.000Z</time>
      </trkpt>
      <trkpt lat="45.70253" lon="3.14221">
        <ele>414</ele>
        <time>2019-06-23T09:55:53.000Z</time>
      </trkpt>
      <trkpt lat="45.70253" lon="3.14229">
        <ele>414</ele>
        <time>2019-06-23T09:55:54.000Z</time>
      </trkpt>
      <trkpt lat="45.70252" lon="3.14238">
        <ele>414</ele>
        <time>2019-06-23T09:55:55.000Z</time>
      </trkpt>
      <trkpt lat="45.70252" lon="3.14245">
        <ele>414</ele>
        <time>2019-06-23T09:55:56.000Z</time>
      </trkpt>
      <trkpt lat="45.70254" lon="3.14252">
        <ele>414</ele>
        <time>2019-06-23T09:55:57.000Z</time>
      </trkpt>
      <trkpt lat="45.70258" lon="3.14258">
        <ele>415</ele>
        <time>2019-06-23T09:55:58.000Z</time>
      </trkpt>
      <trkpt lat="45.70262" lon="3.1426">
        <ele>416</ele>
        <time>2019-06-23T09:55:59.000Z</time>
      </trkpt>
      <trkpt lat="45.70266" lon="3.14261">
        <ele>415</ele>
        <time>2019-06-23T09:56:00.000Z</time>
      </trkpt>
      <trkpt lat="45.7027" lon="3.1426">
        <ele>415</ele>
        <time>2019-06-23T09:56:01.000Z</time>
      </trkpt>
      <trkpt lat="45.70275" lon="3.14258">
        <ele>415</ele>
        <time>2019-06-23T09:56:02.000Z</time>
      </trkpt>
      <trkpt lat="45.70279" lon="3.14255">
        <ele>414</ele>
        <time>2019-06-23T09:56:03.000Z</time>
      </trkpt>
      <trkpt lat="45.70283" lon="3.14252">
        <ele>414</ele>
        <time>2019-06-23T09:56:04.000Z</time>
      </trkpt>
      <trkpt lat="45.70287" lon="3.1425">
        <ele>414</ele>
        <time>2019-06-23T09:56:05.000Z</time>
      </trkpt>
      <trkpt lat="45.70291" lon="3.14247">
        <ele>415</ele>
        <time>2019-06-23T09:56:06.000Z</time>
      </trkpt>
      <trkpt lat="45.70295" lon="3.14245">
        <ele>415</ele>
        <time>2019-06-23T09:56:07.000Z</time>
      </trkpt>
      <trkpt lat="45.70299" lon="3.14242">
        <ele>415</ele>
        <time>2019-06-23T09:56:08.000Z</time>
      </trkpt>
      <trkpt lat="45.70303" lon="3.14241">
        <ele>415</ele>
        <time>2019-06-23T09:56:09.000Z</time>
      </trkpt>
      <trkpt lat="45.70307" lon="3.1424">
        <ele>415</ele>
        <time>2019-06-23T09:56:10.000Z</time>
      </trkpt>
      <trkpt lat="45.70311" lon="3.14238">
        <ele>415</ele>
        <time>2019-06-23T09:56:11.000Z</time>
      </trkpt>
      <trkpt lat="45.70315" lon="3.14237">
        <ele>414</ele>
        <time>2019-06-23T09:56:12.000Z</time>
      </trkpt>
      <trkpt lat="45.70319" lon="3.14237">
        <ele>414</ele>
        <time>2019-06-23T09:56:13.000Z</time>
      </trkpt>
      <trkpt lat="45.70324" lon="3.14236">
        <ele>414</ele>
        <time>2019-06-23T09:56:14.000Z</time>
      </trkpt>
      <trkpt lat="45.70328" lon="3.14236">
        <ele>414</ele>
        <time>2019-06-23T09:56:15.000Z</time>
      </trkpt>
      <trkpt lat="45.70332" lon="3.14236">
        <ele>415</ele>
        <time>2019-06-23T09:56:16.000Z</time>
      </trkpt>
      <trkpt lat="45.70336" lon="3.14236">
        <ele>415</ele>
        <time>2019-06-23T09:56:17.000Z</time>
      </trkpt>
      <trkpt lat="45.70341" lon="3.14236">
        <ele>415</ele>
        <time>2019-06-23T09:56:18.000Z</time>
      </trkpt>
      <trkpt lat="45.70345" lon="3.14236">
        <ele>415</ele>
        <time>2019-06-23T09:56:19.000Z</time>
      </trkpt>
      <trkpt lat="45.70349" lon="3.14236">
        <ele>415</ele>
        <time>2019-06-23T09:56:20.000Z</time>
      </trkpt>
      <trkpt lat="45.70353" lon="3.14236">
        <ele>416</ele>
        <time>2019-06-23T09:56:21.000Z</time>
      </trkpt>
      <trkpt lat="45.70357" lon="3.14236">
        <ele>416</ele>
        <time>2019-06-23T09:56:22.000Z</time>
      </trkpt>
      <trkpt lat="45.70361" lon="3.14235">
        <ele>416</ele>
        <time>2019-06-23T09:56:23.000Z</time>
      </trkpt>
      <trkpt lat="45.70365" lon="3.14234">
        <ele>416</ele>
        <time>2019-06-23T09:56:24.000Z</time>
      </trkpt>
      <trkpt lat="45.70369" lon="3.14233">
        <ele>417</ele>
        <time>2019-06-23T09:56:25.000Z</time>
      </trkpt>
      <trkpt lat="45.70373" lon="3.14233">
        <ele>417</ele>
        <time>2019-06-23T09:56:26.000Z</time>
      </trkpt>
      <trkpt lat="45.70376" lon="3.14232">
        <ele>417</ele>
        <time>2019-06-23T09:56:27.000Z</time>
      </trkpt>
      <trkpt lat="45.7038" lon="3.14232">
        <ele>418</ele>
        <time>2019-06-23T09:56:28.000Z</time>
      </trkpt>
      <trkpt lat="45.70384" lon="3.14231">
        <ele>418</ele>
        <time>2019-06-23T09:56:29.000Z</time>
      </trkpt>
      <trkpt lat="45.70387" lon="3.14231">
        <ele>418</ele>
        <time>2019-06-23T09:56:30.000Z</time>
      </trkpt>
      <trkpt lat="45.70391" lon="3.1423">
        <ele>419</ele>
        <time>2019-06-23T09:56:31.000Z</time>
      </trkpt>
      <trkpt lat="45.70395" lon="3.1423">
        <ele>419</ele>
        <time>2019-06-23T09:56:32.000Z</time>
      </trkpt>
      <trkpt lat="45.70398" lon="3.14229">
        <ele>419</ele>
        <time>2019-06-23T09:56:33.000Z</time>
      </trkpt>
      <trkpt lat="45.70402" lon="3.14228">
        <ele>420</ele>
        <time>2019-06-23T09:56:34.000Z</time>
      </trkpt>
      <trkpt lat="45.70405" lon="3.14227">
        <ele>420</ele>
        <time>2019-06-23T09:56:35.000Z</time>
      </trkpt>
      <trkpt lat="45.70409" lon="3.14227">
        <ele>420</ele>
        <time>2019-06-23T09:56:36.000Z</time>
      </trkpt>
      <trkpt lat="45.70413" lon="3.14226">
        <ele>421</ele>
        <time>2019-06-23T09:56:37.000Z</time>
      </trkpt>
      <trkpt lat="45.70416" lon="3.14225">
        <ele>421</ele>
        <time>2019-06-23T09:56:38.000Z</time>
      </trkpt>
      <trkpt lat="45.7042" lon="3.14225">
        <ele>421</ele>
        <time>2019-06-23T09:56:39.000Z</time>
      </trkpt>
      <trkpt lat="45.70423" lon="3.14225">
        <ele>422</ele>
        <time>2019-06-23T09:56:40.000Z</time>
      </trkpt>
      <trkpt lat="45.70427" lon="3.14225">
        <ele>422</ele>
        <time>2019-06-23T09:56:41.000Z</time>
      </trkpt>
      <trkpt lat="45.7043" lon="3.14224">
        <ele>422</ele>
        <time>2019-06-23T09:56:42.000Z</time>
      </trkpt>
      <trkpt lat="45.70433" lon="3.14224">
        <ele>423</ele>
        <time>2019-06-23T09:56:43.000Z</time>
      </trkpt>
      <trkpt lat="45.70437" lon="3.14223">
        <ele>423</ele>
        <time>2019-06-23T09:56:44.000Z</time>
      </trkpt>
      <trkpt lat="45.7044" lon="3.14223">
        <ele>423</ele>
        <time>2019-06-23T09:56:45.000Z</time>
      </trkpt>
      <trkpt lat="45.70443" lon="3.14222">
        <ele>424</ele>
        <time>2019-06-23T09:56:46.000Z</time>
      </trkpt>
      <trkpt lat="45.70446" lon="3.14222">
        <ele>424</ele>
        <time>2019-06-23T09:56:47.000Z</time>
      </trkpt>
      <trkpt lat="45.70449" lon="3.14221">
        <ele>424</ele>
        <time>2019-06-23T09:56:48.000Z</time>
      </trkpt>
      <trkpt lat="45.70452" lon="3.14221">
        <ele>425</ele>
        <time>2019-06-23T09:56:49.000Z</time>
      </trkpt>
      <trkpt lat="45.70455" lon="3.14221">
        <ele>425</ele>
        <time>2019-06-23T09:56:50.000Z</time>
      </trkpt>
      <trkpt lat="45.70458" lon="3.1422">
        <ele>425</ele>
        <time>2019-06-23T09:56:51.000Z</time>
      </trkpt>
      <trkpt lat="45.70461" lon="3.1422">
        <ele>426</ele>
        <time>2019-06-23T09:56:52.000Z</time>
      </trkpt>
      <trkpt lat="45.70464" lon="3.14219">
        <ele>426</ele>
        <time>2019-06-23T09:56:53.000Z</time>
      </trkpt>
      <trkpt lat="45.70468" lon="3.14219">
        <ele>426</ele>
        <time>2019-06-23T09:56:54.000Z</time>
      </trkpt>
      <trkpt lat="45.70471" lon="3.14219">
        <ele>426</ele>
        <time>2019-06-23T09:56:55.000Z</time>
      </trkpt>
      <trkpt lat="45.70474" lon="3.14218">
        <ele>427</ele>
        <time>2019-06-23T09:56:56.000Z</time>
      </trkpt>
      <trkpt lat="45.70477" lon="3.14218">
        <ele>427</ele>
        <time>2019-06-23T09:56:57.000Z</time>
      </trkpt>
      <trkpt lat="45.7048" lon="3.14217">
        <ele>427</ele>
        <time>2019-06-23T09:56:58.000Z</time>
      </trkpt>
      <trkpt lat="45.70483" lon="3.14217">
        <ele>427</ele>
        <time>2019-06-23T09:56:59.000Z</time>
      </trkpt>
      <trkpt lat="45.70486" lon="3.14217">
        <ele>427</ele>
        <time>2019-06-23T09:57:00.000Z</time>
      </trkpt>
      <trkpt lat="45.70489" lon="3.14217">
        <ele>427</ele>
        <time>2019-06-23T09:57:01.000Z</time>
      </trkpt>
      <trkpt lat="45.70493" lon="3.14217">
        <ele>427</ele>
        <time>2019-06-23T09:57:02.000Z</time>
      </trkpt>
      <trkpt lat="45.70496" lon="3.14216">
        <ele>427</ele>
        <time>2019-06-23T09:57:03.000Z</time>
      </trkpt>
      <trkpt lat="45.70498" lon="3.14215">
        <ele>427</ele>
        <time>2019-06-23T09:57:04.000Z</time>
      </trkpt>
      <trkpt lat="45.70501" lon="3.14213">
        <ele>427</ele>
        <time>2019-06-23T09:57:05.000Z</time>
      </trkpt>
      <trkpt lat="45.70503" lon="3.1421">
        <ele>427</ele>
        <time>2019-06-23T09:57:06.000Z</time>
      </trkpt>
      <trkpt lat="45.70505" lon="3.14206">
        <ele>427</ele>
        <time>2019-06-23T09:57:07.000Z</time>
      </trkpt>
      <trkpt lat="45.70507" lon="3.14203">
        <ele>428</ele>
        <time>2019-06-23T09:57:08.000Z</time>
      </trkpt>
      <trkpt lat="45.70509" lon="3.14199">
        <ele>428</ele>
        <time>2019-06-23T09:57:09.000Z</time>
      </trkpt>
      <trkpt lat="45.70511" lon="3.14196">
        <ele>428</ele>
        <time>2019-06-23T09:57:10.000Z</time>
      </trkpt>
      <trkpt lat="45.70512" lon="3.14192">
        <ele>429</ele>
        <time>2019-06-23T09:57:11.000Z</time>
      </trkpt>
      <trkpt lat="45.70514" lon="3.14188">
        <ele>429</ele>
        <time>2019-06-23T09:57:12.000Z</time>
      </trkpt>
      <trkpt lat="45.70515" lon="3.14184">
        <ele>429</ele>
        <time>2019-06-23T09:57:13.000Z</time>
      </trkpt>
      <trkpt lat="45.70517" lon="3.1418">
        <ele>429</ele>
        <time>2019-06-23T09:57:14.000Z</time>
      </trkpt>
      <trkpt lat="45.70518" lon="3.14177">
        <ele>429</ele>
        <time>2019-06-23T09:57:15.000Z</time>
      </trkpt>
      <trkpt lat="45.7052" lon="3.14173">
        <ele>429</ele>
        <time>2019-06-23T09:57:16.000Z</time>
      </trkpt>
      <trkpt lat="45.70521" lon="3.14169">
        <ele>429</ele>
        <time>2019-06-23T09:57:17.000Z</time>
      </trkpt>
      <trkpt lat="45.70523" lon="3.14165">
        <ele>430</ele>
        <time>2019-06-23T09:57:18.000Z</time>
      </trkpt>
      <trkpt lat="45.70524" lon="3.1416">
        <ele>429</ele>
        <time>2019-06-23T09:57:19.000Z</time>
      </trkpt>
      <trkpt lat="45.70525" lon="3.14157">
        <ele>430</ele>
        <time>2019-06-23T09:57:20.000Z</time>
      </trkpt>
      <trkpt lat="45.70527" lon="3.14152">
        <ele>430</ele>
        <time>2019-06-23T09:57:21.000Z</time>
      </trkpt>
      <trkpt lat="45.70528" lon="3.14148">
        <ele>431</ele>
        <time>2019-06-23T09:57:22.000Z</time>
      </trkpt>
      <trkpt lat="45.7053" lon="3.14144">
        <ele>432</ele>
        <time>2019-06-23T09:57:23.000Z</time>
      </trkpt>
      <trkpt lat="45.70531" lon="3.1414">
        <ele>432</ele>
        <time>2019-06-23T09:57:24.000Z</time>
      </trkpt>
      <trkpt lat="45.70532" lon="3.14136">
        <ele>432</ele>
        <time>2019-06-23T09:57:25.000Z</time>
      </trkpt>
      <trkpt lat="45.70532" lon="3.14132">
        <ele>433</ele>
        <time>2019-06-23T09:57:26.000Z</time>
      </trkpt>
      <trkpt lat="45.70533" lon="3.14129">
        <ele>433</ele>
        <time>2019-06-23T09:57:27.000Z</time>
      </trkpt>
      <trkpt lat="45.70535" lon="3.14125">
        <ele>434</ele>
        <time>2019-06-23T09:57:28.000Z</time>
      </trkpt>
      <trkpt lat="45.70536" lon="3.14121">
        <ele>434</ele>
        <time>2019-06-23T09:57:29.000Z</time>
      </trkpt>
      <trkpt lat="45.70537" lon="3.14117">
        <ele>435</ele>
        <time>2019-06-23T09:57:30.000Z</time>
      </trkpt>
      <trkpt lat="45.70538" lon="3.14113">
        <ele>435</ele>
        <time>2019-06-23T09:57:31.000Z</time>
      </trkpt>
      <trkpt lat="45.7054" lon="3.14109">
        <ele>435</ele>
        <time>2019-06-23T09:57:32.000Z</time>
      </trkpt>
      <trkpt lat="45.70541" lon="3.14105">
        <ele>436</ele>
        <time>2019-06-23T09:57:33.000Z</time>
      </trkpt>
      <trkpt lat="45.70542" lon="3.14102">
        <ele>437</ele>
        <time>2019-06-23T09:57:34.000Z</time>
      </trkpt>
      <trkpt lat="45.70543" lon="3.14098">
        <ele>437</ele>
        <time>2019-06-23T09:57:35.000Z</time>
      </trkpt>
      <trkpt lat="45.70544" lon="3.14094">
        <ele>437</ele>
        <time>2019-06-23T09:57:36.000Z</time>
      </trkpt>
      <trkpt lat="45.70546" lon="3.14091">
        <ele>438</ele>
        <time>2019-06-23T09:57:37.000Z</time>
      </trkpt>
      <trkpt lat="45.70547" lon="3.14088">
        <ele>438</ele>
        <time>2019-06-23T09:57:38.000Z</time>
      </trkpt>
      <trkpt lat="45.70548" lon="3.14084">
        <ele>439</ele>
        <time>2019-06-23T09:57:39.000Z</time>
      </trkpt>
      <trkpt lat="45.70549" lon="3.14079">
        <ele>439</ele>
        <time>2019-06-23T09:57:40.000Z</time>
      </trkpt>
      <trkpt lat="45.7055" lon="3.14075">
        <ele>440</ele>
        <time>2019-06-23T09:57:41.000Z</time>
      </trkpt>
      <trkpt lat="45.7055" lon="3.14071">
        <ele>440</ele>
        <time>2019-06-23T09:57:42.000Z</time>
      </trkpt>
      <trkpt lat="45.70551" lon="3.14067">
        <ele>440</ele>
        <time>2019-06-23T09:57:43.000Z</time>
      </trkpt>
      <trkpt lat="45.70551" lon="3.14063">
        <ele>440</ele>
        <time>2019-06-23T09:57:44.000Z</time>
      </trkpt>
      <trkpt lat="45.70552" lon="3.14059">
        <ele>441</ele>
        <time>2019-06-23T09:57:45.000Z</time>
      </trkpt>
      <trkpt lat="45.70552" lon="3.14055">
        <ele>441</ele>
        <time>2019-06-23T09:57:46.000Z</time>
      </trkpt>
      <trkpt lat="45.70553" lon="3.14051">
        <ele>441</ele>
        <time>2019-06-23T09:57:47.000Z</time>
      </trkpt>
      <trkpt lat="45.70553" lon="3.14047">
        <ele>442</ele>
        <time>2019-06-23T09:57:48.000Z</time>
      </trkpt>
      <trkpt lat="45.70554" lon="3.14043">
        <ele>442</ele>
        <time>2019-06-23T09:57:49.000Z</time>
      </trkpt>
      <trkpt lat="45.70555" lon="3.14039">
        <ele>442</ele>
        <time>2019-06-23T09:57:50.000Z</time>
      </trkpt>
      <trkpt lat="45.70555" lon="3.14035">
        <ele>442</ele>
        <time>2019-06-23T09:57:51.000Z</time>
      </trkpt>
      <trkpt lat="45.70556" lon="3.14031">
        <ele>443</ele>
        <time>2019-06-23T09:57:52.000Z</time>
      </trkpt>
      <trkpt lat="45.70557" lon="3.14027">
        <ele>443</ele>
        <time>2019-06-23T09:57:53.000Z</time>
      </trkpt>
      <trkpt lat="45.70558" lon="3.14024">
        <ele>443</ele>
        <time>2019-06-23T09:57:54.000Z</time>
      </trkpt>
      <trkpt lat="45.70558" lon="3.1402">
        <ele>443</ele>
        <time>2019-06-23T09:57:55.000Z</time>
      </trkpt>
      <trkpt lat="45.70558" lon="3.14016">
        <ele>444</ele>
        <time>2019-06-23T09:57:56.000Z</time>
      </trkpt>
      <trkpt lat="45.70558" lon="3.14012">
        <ele>444</ele>
        <time>2019-06-23T09:57:57.000Z</time>
      </trkpt>
      <trkpt lat="45.70558" lon="3.14009">
        <ele>444</ele>
        <time>2019-06-23T09:57:58.000Z</time>
      </trkpt>
      <trkpt lat="45.70558" lon="3.14005">
        <ele>444</ele>
        <time>2019-06-23T09:57:59.000Z</time>
      </trkpt>
      <trkpt lat="45.70558" lon="3.14002">
        <ele>445</ele>
        <time>2019-06-23T09:58:00.000Z</time>
      </trkpt>
      <trkpt lat="45.70559" lon="3.13998">
        <ele>445</ele>
        <time>2019-06-23T09:58:01.000Z</time>
      </trkpt>
      <trkpt lat="45.70559" lon="3.13994">
        <ele>445</ele>
        <time>2019-06-23T09:58:02.000Z</time>
      </trkpt>
      <trkpt lat="45.70559" lon="3.1399">
        <ele>445</ele>
        <time>2019-06-23T09:58:03.000Z</time>
      </trkpt>
      <trkpt lat="45.7056" lon="3.13986">
        <ele>446</ele>
        <time>2019-06-23T09:58:04.000Z</time>
      </trkpt>
      <trkpt lat="45.70561" lon="3.13982">
        <ele>446</ele>
        <time>2019-06-23T09:58:05.000Z</time>
      </trkpt>
      <trkpt lat="45.70561" lon="3.13978">
        <ele>446</ele>
        <time>2019-06-23T09:58:06.000Z</time>
      </trkpt>
      <trkpt lat="45.70562" lon="3.13975">
        <ele>446</ele>
        <time>2019-06-23T09:58:07.000Z</time>
      </trkpt>
      <trkpt lat="45.70562" lon="3.13971">
        <ele>447</ele>
        <time>2019-06-23T09:58:08.000Z</time>
      </trkpt>
      <trkpt lat="45.70563" lon="3.13967">
        <ele>447</ele>
        <time>2019-06-23T09:58:09.000Z</time>
      </trkpt>
      <trkpt lat="45.70564" lon="3.13963">
        <ele>447</ele>
        <time>2019-06-23T09:58:10.000Z</time>
      </trkpt>
      <trkpt lat="45.70565" lon="3.13959">
        <ele>447</ele>
        <time>2019-06-23T09:58:11.000Z</time>
      </trkpt>
      <trkpt lat="45.70566" lon="3.13955">
        <ele>447</ele>
        <time>2019-06-23T09:58:12.000Z</time>
      </trkpt>
      <trkpt lat="45.70566" lon="3.13951">
        <ele>448</ele>
        <time>2019-06-23T09:58:13.000Z</time>
      </trkpt>
      <trkpt lat="45.70567" lon="3.13947">
        <ele>448</ele>
        <time>2019-06-23T09:58:14.000Z</time>
      </trkpt>
      <trkpt lat="45.70568" lon="3.13944">
        <ele>448</ele>
        <time>2019-06-23T09:58:15.000Z</time>
      </trkpt>
      <trkpt lat="45.70568" lon="3.1394">
        <ele>449</ele>
        <time>2019-06-23T09:58:16.000Z</time>
      </trkpt>
      <trkpt lat="45.70569" lon="3.13935">
        <ele>449</ele>
        <time>2019-06-23T09:58:17.000Z</time>
      </trkpt>
      <trkpt lat="45.70569" lon="3.13931">
        <ele>449</ele>
        <time>2019-06-23T09:58:18.000Z</time>
      </trkpt>
      <trkpt lat="45.7057" lon="3.13927">
        <ele>449</ele>
        <time>2019-06-23T09:58:19.000Z</time>
      </trkpt>
      <trkpt lat="45.70571" lon="3.13923">
        <ele>450</ele>
        <time>2019-06-23T09:58:20.000Z</time>
      </trkpt>
      <trkpt lat="45.70572" lon="3.13919">
        <ele>450</ele>
        <time>2019-06-23T09:58:21.000Z</time>
      </trkpt>
      <trkpt lat="45.70573" lon="3.13916">
        <ele>450</ele>
        <time>2019-06-23T09:58:22.000Z</time>
      </trkpt>
      <trkpt lat="45.70574" lon="3.13912">
        <ele>450</ele>
        <time>2019-06-23T09:58:23.000Z</time>
      </trkpt>
      <trkpt lat="45.70575" lon="3.13908">
        <ele>450</ele>
        <time>2019-06-23T09:58:24.000Z</time>
      </trkpt>
      <trkpt lat="45.70576" lon="3.13904">
        <ele>450</ele>
        <time>2019-06-23T09:58:25.000Z</time>
      </trkpt>
      <trkpt lat="45.70577" lon="3.139">
        <ele>451</ele>
        <time>2019-06-23T09:58:26.000Z</time>
      </trkpt>
      <trkpt lat="45.70578" lon="3.13896">
        <ele>451</ele>
        <time>2019-06-23T09:58:27.000Z</time>
      </trkpt>
      <trkpt lat="45.70579" lon="3.13892">
        <ele>451</ele>
        <time>2019-06-23T09:58:28.000Z</time>
      </trkpt>
      <trkpt lat="45.70581" lon="3.13888">
        <ele>451</ele>
        <time>2019-06-23T09:58:29.000Z</time>
      </trkpt>
      <trkpt lat="45.70582" lon="3.13885">
        <ele>452</ele>
        <time>2019-06-23T09:58:30.000Z</time>
      </trkpt>
      <trkpt lat="45.70583" lon="3.13881">
        <ele>452</ele>
        <time>2019-06-23T09:58:31.000Z</time>
      </trkpt>
      <trkpt lat="45.70584" lon="3.13877">
        <ele>452</ele>
        <time>2019-06-23T09:58:32.000Z</time>
      </trkpt>
      <trkpt lat="45.70585" lon="3.13873">
        <ele>452</ele>
        <time>2019-06-23T09:58:33.000Z</time>
      </trkpt>
      <trkpt lat="45.70585" lon="3.13869">
        <ele>452</ele>
        <time>2019-06-23T09:58:34.000Z</time>
      </trkpt>
      <trkpt lat="45.70586" lon="3.13865">
        <ele>453</ele>
        <time>2019-06-23T09:58:35.000Z</time>
      </trkpt>
      <trkpt lat="45.70587" lon="3.13861">
        <ele>453</ele>
        <time>2019-06-23T09:58:36.000Z</time>
      </trkpt>
      <trkpt lat="45.70588" lon="3.13857">
        <ele>453</ele>
        <time>2019-06-23T09:58:37.000Z</time>
      </trkpt>
      <trkpt lat="45.70589" lon="3.13852">
        <ele>453</ele>
        <time>2019-06-23T09:58:38.000Z</time>
      </trkpt>
      <trkpt lat="45.7059" lon="3.13848">
        <ele>453</ele>
        <time>2019-06-23T09:58:39.000Z</time>
      </trkpt>
      <trkpt lat="45.7059" lon="3.13844">
        <ele>454</ele>
        <time>2019-06-23T09:58:40.000Z</time>
      </trkpt>
      <trkpt lat="45.70591" lon="3.1384">
        <ele>454</ele>
        <time>2019-06-23T09:58:41.000Z</time>
      </trkpt>
      <trkpt lat="45.70591" lon="3.13836">
        <ele>454</ele>
        <time>2019-06-23T09:58:42.000Z</time>
      </trkpt>
      <trkpt lat="45.70592" lon="3.13832">
        <ele>454</ele>
        <time>2019-06-23T09:58:43.000Z</time>
      </trkpt>
      <trkpt lat="45.70593" lon="3.13827">
        <ele>454</ele>
        <time>2019-06-23T09:58:44.000Z</time>
      </trkpt>
      <trkpt lat="45.70594" lon="3.13823">
        <ele>455</ele>
        <time>2019-06-23T09:58:45.000Z</time>
      </trkpt>
      <trkpt lat="45.70596" lon="3.13819">
        <ele>455</ele>
        <time>2019-06-23T09:58:46.000Z</time>
      </trkpt>
      <trkpt lat="45.70597" lon="3.13815">
        <ele>455</ele>
        <time>2019-06-23T09:58:47.000Z</time>
      </trkpt>
      <trkpt lat="45.70599" lon="3.13811">
        <ele>455</ele>
        <time>2019-06-23T09:58:48.000Z</time>
      </trkpt>
      <trkpt lat="45.706" lon="3.13807">
        <ele>455</ele>
        <time>2019-06-23T09:58:49.000Z</time>
      </trkpt>
      <trkpt lat="45.70601" lon="3.13803">
        <ele>455</ele>
        <time>2019-06-23T09:58:50.000Z</time>
      </trkpt>
      <trkpt lat="45.70603" lon="3.13799">
        <ele>456</ele>
        <time>2019-06-23T09:58:51.000Z</time>
      </trkpt>
      <trkpt lat="45.70605" lon="3.13795">
        <ele>456</ele>
        <time>2019-06-23T09:58:52.000Z</time>
      </trkpt>
      <trkpt lat="45.70606" lon="3.13791">
        <ele>456</ele>
        <time>2019-06-23T09:58:53.000Z</time>
      </trkpt>
      <trkpt lat="45.70608" lon="3.13786">
        <ele>456</ele>
        <time>2019-06-23T09:58:54.000Z</time>
      </trkpt>
      <trkpt lat="45.7061" lon="3.13782">
        <ele>456</ele>
        <time>2019-06-23T09:58:55.000Z</time>
      </trkpt>
      <trkpt lat="45.70611" lon="3.13778">
        <ele>456</ele>
        <time>2019-06-23T09:58:56.000Z</time>
      </trkpt>
      <trkpt lat="45.70613" lon="3.13774">
        <ele>457</ele>
        <time>2019-06-23T09:58:57.000Z</time>
      </trkpt>
      <trkpt lat="45.70614" lon="3.1377">
        <ele>457</ele>
        <time>2019-06-23T09:58:58.000Z</time>
      </trkpt>
      <trkpt lat="45.70616" lon="3.13766">
        <ele>457</ele>
        <time>2019-06-23T09:58:59.000Z</time>
      </trkpt>
      <trkpt lat="45.70617" lon="3.13762">
        <ele>457</ele>
        <time>2019-06-23T09:59:00.000Z</time>
      </trkpt>
      <trkpt lat="45.70619" lon="3.13758">
        <ele>457</ele>
        <time>2019-06-23T09:59:01.000Z</time>
      </trkpt>
      <trkpt lat="45.70621" lon="3.13753">
        <ele>457</ele>
        <time>2019-06-23T09:59:02.000Z</time>
      </trkpt>
      <trkpt lat="45.70622" lon="3.13749">
        <ele>457</ele>
        <time>2019-06-23T09:59:03.000Z</time>
      </trkpt>
      <trkpt lat="45.70624" lon="3.13745">
        <ele>457</ele>
        <time>2019-06-23T09:59:04.000Z</time>
      </trkpt>
      <trkpt lat="45.70625" lon="3.1374">
        <ele>457</ele>
        <time>2019-06-23T09:59:05.000Z</time>
      </trkpt>
      <trkpt lat="45.70627" lon="3.13736">
        <ele>458</ele>
        <time>2019-06-23T09:59:06.000Z</time>
      </trkpt>
      <trkpt lat="45.70628" lon="3.13731">
        <ele>458</ele>
        <time>2019-06-23T09:59:07.000Z</time>
      </trkpt>
      <trkpt lat="45.7063" lon="3.13727">
        <ele>458</ele>
        <time>2019-06-23T09:59:08.000Z</time>
      </trkpt>
      <trkpt lat="45.70632" lon="3.13723">
        <ele>458</ele>
        <time>2019-06-23T09:59:09.000Z</time>
      </trkpt>
      <trkpt lat="45.70633" lon="3.13718">
        <ele>458</ele>
        <time>2019-06-23T09:59:10.000Z</time>
      </trkpt>
      <trkpt lat="45.70635" lon="3.13714">
        <ele>458</ele>
        <time>2019-06-23T09:59:11.000Z</time>
      </trkpt>
      <trkpt lat="45.70637" lon="3.1371">
        <ele>459</ele>
        <time>2019-06-23T09:59:12.000Z</time>
      </trkpt>
      <trkpt lat="45.70639" lon="3.13706">
        <ele>459</ele>
        <time>2019-06-23T09:59:13.000Z</time>
      </trkpt>
      <trkpt lat="45.70641" lon="3.13702">
        <ele>459</ele>
        <time>2019-06-23T09:59:14.000Z</time>
      </trkpt>
      <trkpt lat="45.70642" lon="3.13697">
        <ele>459</ele>
        <time>2019-06-23T09:59:15.000Z</time>
      </trkpt>
      <trkpt lat="45.70644" lon="3.13693">
        <ele>459</ele>
        <time>2019-06-23T09:59:16.000Z</time>
      </trkpt>
      <trkpt lat="45.70645" lon="3.13688">
        <ele>459</ele>
        <time>2019-06-23T09:59:17.000Z</time>
      </trkpt>
      <trkpt lat="45.70646" lon="3.13683">
        <ele>460</ele>
        <time>2019-06-23T09:59:18.000Z</time>
      </trkpt>
      <trkpt lat="45.70647" lon="3.13678">
        <ele>460</ele>
        <time>2019-06-23T09:59:19.000Z</time>
      </trkpt>
      <trkpt lat="45.70648" lon="3.13674">
        <ele>460</ele>
        <time>2019-06-23T09:59:20.000Z</time>
      </trkpt>
      <trkpt lat="45.7065" lon="3.1367">
        <ele>460</ele>
        <time>2019-06-23T09:59:21.000Z</time>
      </trkpt>
      <trkpt lat="45.70651" lon="3.13665">
        <ele>460</ele>
        <time>2019-06-23T09:59:22.000Z</time>
      </trkpt>
      <trkpt lat="45.70652" lon="3.13661">
        <ele>461</ele>
        <time>2019-06-23T09:59:23.000Z</time>
      </trkpt>
      <trkpt lat="45.70654" lon="3.13656">
        <ele>461</ele>
        <time>2019-06-23T09:59:24.000Z</time>
      </trkpt>
      <trkpt lat="45.70655" lon="3.13652">
        <ele>461</ele>
        <time>2019-06-23T09:59:25.000Z</time>
      </trkpt>
      <trkpt lat="45.70657" lon="3.13647">
        <ele>461</ele>
        <time>2019-06-23T09:59:26.000Z</time>
      </trkpt>
      <trkpt lat="45.70658" lon="3.13642">
        <ele>461</ele>
        <time>2019-06-23T09:59:27.000Z</time>
      </trkpt>
      <trkpt lat="45.70659" lon="3.13638">
        <ele>462</ele>
        <time>2019-06-23T09:59:28.000Z</time>
      </trkpt>
      <trkpt lat="45.70661" lon="3.13633">
        <ele>462</ele>
        <time>2019-06-23T09:59:29.000Z</time>
      </trkpt>
      <trkpt lat="45.70662" lon="3.13628">
        <ele>462</ele>
        <time>2019-06-23T09:59:30.000Z</time>
      </trkpt>
      <trkpt lat="45.70664" lon="3.13623">
        <ele>462</ele>
        <time>2019-06-23T09:59:31.000Z</time>
      </trkpt>
      <trkpt lat="45.70665" lon="3.13619">
        <ele>463</ele>
        <time>2019-06-23T09:59:32.000Z</time>
      </trkpt>
      <trkpt lat="45.70666" lon="3.13614">
        <ele>463</ele>
        <time>2019-06-23T09:59:33.000Z</time>
      </trkpt>
      <trkpt lat="45.70667" lon="3.13609">
        <ele>463</ele>
        <time>2019-06-23T09:59:34.000Z</time>
      </trkpt>
      <trkpt lat="45.70668" lon="3.13604">
        <ele>463</ele>
        <time>2019-06-23T09:59:35.000Z</time>
      </trkpt>
      <trkpt lat="45.7067" lon="3.13599">
        <ele>464</ele>
        <time>2019-06-23T09:59:36.000Z</time>
      </trkpt>
      <trkpt lat="45.70671" lon="3.13594">
        <ele>464</ele>
        <time>2019-06-23T09:59:37.000Z</time>
      </trkpt>
      <trkpt lat="45.70672" lon="3.13589">
        <ele>464</ele>
        <time>2019-06-23T09:59:38.000Z</time>
      </trkpt>
      <trkpt lat="45.70673" lon="3.13585">
        <ele>464</ele>
        <time>2019-06-23T09:59:39.000Z</time>
      </trkpt>
      <trkpt lat="45.70675" lon="3.1358">
        <ele>465</ele>
        <time>2019-06-23T09:59:40.000Z</time>
      </trkpt>
      <trkpt lat="45.70676" lon="3.13575">
        <ele>465</ele>
        <time>2019-06-23T09:59:41.000Z</time>
      </trkpt>
      <trkpt lat="45.70677" lon="3.13571">
        <ele>465</ele>
        <time>2019-06-23T09:59:42.000Z</time>
      </trkpt>
      <trkpt lat="45.70679" lon="3.13566">
        <ele>465</ele>
        <time>2019-06-23T09:59:43.000Z</time>
      </trkpt>
      <trkpt lat="45.7068" lon="3.13561">
        <ele>466</ele>
        <time>2019-06-23T09:59:44.000Z</time>
      </trkpt>
      <trkpt lat="45.70681" lon="3.13557">
        <ele>466</ele>
        <time>2019-06-23T09:59:45.000Z</time>
      </trkpt>
      <trkpt lat="45.70683" lon="3.13552">
        <ele>466</ele>
        <time>2019-06-23T09:59:46.000Z</time>
      </trkpt>
      <trkpt lat="45.70684" lon="3.13548">
        <ele>466</ele>
        <time>2019-06-23T09:59:47.000Z</time>
      </trkpt>
      <trkpt lat="45.70685" lon="3.13543">
        <ele>466</ele>
        <time>2019-06-23T09:59:48.000Z</time>
      </trkpt>
      <trkpt lat="45.70687" lon="3.13538">
        <ele>466</ele>
        <time>2019-06-23T09:59:49.000Z</time>
      </trkpt>
      <trkpt lat="45.70688" lon="3.13534">
        <ele>467</ele>
        <time>2019-06-23T09:59:50.000Z</time>
      </trkpt>
      <trkpt lat="45.7069" lon="3.13529">
        <ele>467</ele>
        <time>2019-06-23T09:59:51.000Z</time>
      </trkpt>
      <trkpt lat="45.70691" lon="3.13524">
        <ele>467</ele>
        <time>2019-06-23T09:59:52.000Z</time>
      </trkpt>
      <trkpt lat="45.70692" lon="3.13519">
        <ele>467</ele>
        <time>2019-06-23T09:59:53.000Z</time>
      </trkpt>
      <trkpt lat="45.70693" lon="3.13514">
        <ele>467</ele>
        <time>2019-06-23T09:59:54.000Z</time>
      </trkpt>
      <trkpt lat="45.70695" lon="3.13509">
        <ele>468</ele>
        <time>2019-06-23T09:59:55.000Z</time>
      </trkpt>
      <trkpt lat="45.70696" lon="3.13504">
        <ele>468</ele>
        <time>2019-06-23T09:59:56.000Z</time>
      </trkpt>
      <trkpt lat="45.70697" lon="3.13499">
        <ele>468</ele>
        <time>2019-06-23T09:59:57.000Z</time>
      </trkpt>
      <trkpt lat="45.70699" lon="3.13494">
        <ele>469</ele>
        <time>2019-06-23T09:59:58.000Z</time>
      </trkpt>
      <trkpt lat="45.707" lon="3.13489">
        <ele>469</ele>
        <time>2019-06-23T09:59:59.000Z</time>
      </trkpt>
      <trkpt lat="45.70701" lon="3.13484">
        <ele>469</ele>
        <time>2019-06-23T10:00:00.000Z</time>
      </trkpt>
      <trkpt lat="45.70702" lon="3.13479">
        <ele>469</ele>
        <time>2019-06-23T10:00:01.000Z</time>
      </trkpt>
      <trkpt lat="45.70703" lon="3.13474">
        <ele>470</ele>
        <time>2019-06-23T10:00:02.000Z</time>
      </trkpt>
      <trkpt lat="45.70704" lon="3.13468">
        <ele>470</ele>
        <time>2019-06-23T10:00:03.000Z</time>
      </trkpt>
      <trkpt lat="45.70705" lon="3.13463">
        <ele>470</ele>
        <time>2019-06-23T10:00:04.000Z</time>
      </trkpt>
      <trkpt lat="45.70707" lon="3.13458">
        <ele>471</ele>
        <time>2019-06-23T10:00:05.000Z</time>
      </trkpt>
      <trkpt lat="45.70708" lon="3.13453">
        <ele>471</ele>
        <time>2019-06-23T10:00:06.000Z</time>
      </trkpt>
      <trkpt lat="45.70709" lon="3.13448">
        <ele>471</ele>
        <time>2019-06-23T10:00:07.000Z</time>
      </trkpt>
      <trkpt lat="45.7071" lon="3.13443">
        <ele>472</ele>
        <time>2019-06-23T10:00:08.000Z</time>
      </trkpt>
      <trkpt lat="45.70711" lon="3.13438">
        <ele>472</ele>
        <time>2019-06-23T10:00:09.000Z</time>
      </trkpt>
      <trkpt lat="45.70712" lon="3.13433">
        <ele>472</ele>
        <time>2019-06-23T10:00:10.000Z</time>
      </trkpt>
      <trkpt lat="45.70714" lon="3.13428">
        <ele>473</ele>
        <time>2019-06-23T10:00:11.000Z</time>
      </trkpt>
      <trkpt lat="45.70715" lon="3.13423">
        <ele>473</ele>
        <time>2019-06-23T10:00:12.000Z</time>
      </trkpt>
      <trkpt lat="45.70716" lon="3.13418">
        <ele>474</ele>
        <time>2019-06-23T10:00:13.000Z</time>
      </trkpt>
      <trkpt lat="45.70718" lon="3.13414">
        <ele>474</ele>
        <time>2019-06-23T10:00:14.000Z</time>
      </trkpt>
      <trkpt lat="45.7072" lon="3.1341">
        <ele>475</ele>
        <time>2019-06-23T10:00:15.000Z</time>
      </trkpt>
      <trkpt lat="45.70723" lon="3.13407">
        <ele>475</ele>
        <time>2019-06-23T10:00:16.000Z</time>
      </trkpt>
      <trkpt lat="45.70725" lon="3.13403">
        <ele>475</ele>
        <time>2019-06-23T10:00:17.000Z</time>
      </trkpt>
      <trkpt lat="45.70728" lon="3.134">
        <ele>475</ele>
        <time>2019-06-23T10:00:18.000Z</time>
      </trkpt>
      <trkpt lat="45.7073" lon="3.13396">
        <ele>476</ele>
        <time>2019-06-23T10:00:19.000Z</time>
      </trkpt>
      <trkpt lat="45.70733" lon="3.13394">
        <ele>476</ele>
        <time>2019-06-23T10:00:20.000Z</time>
      </trkpt>
      <trkpt lat="45.70736" lon="3.13391">
        <ele>476</ele>
        <time>2019-06-23T10:00:21.000Z</time>
      </trkpt>
      <trkpt lat="45.70738" lon="3.13388">
        <ele>477</ele>
        <time>2019-06-23T10:00:22.000Z</time>
      </trkpt>
      <trkpt lat="45.70741" lon="3.13386">
        <ele>477</ele>
        <time>2019-06-23T10:00:23.000Z</time>
      </trkpt>
      <trkpt lat="45.70743" lon="3.13383">
        <ele>478</ele>
        <time>2019-06-23T10:00:24.000Z</time>
      </trkpt>
      <trkpt lat="45.70746" lon="3.1338">
        <ele>479</ele>
        <time>2019-06-23T10:00:25.000Z</time>
      </trkpt>
      <trkpt lat="45.70749" lon="3.13377">
        <ele>479</ele>
        <time>2019-06-23T10:00:26.000Z</time>
      </trkpt>
      <trkpt lat="45.70751" lon="3.13374">
        <ele>479</ele>
        <time>2019-06-23T10:00:27.000Z</time>
      </trkpt>
      <trkpt lat="45.70754" lon="3.13372">
        <ele>479</ele>
        <time>2019-06-23T10:00:28.000Z</time>
      </trkpt>
      <trkpt lat="45.70756" lon="3.13369">
        <ele>479</ele>
        <time>2019-06-23T10:00:29.000Z</time>
      </trkpt>
      <trkpt lat="45.70759" lon="3.13366">
        <ele>479</ele>
        <time>2019-06-23T10:00:30.000Z</time>
      </trkpt>
      <trkpt lat="45.70761" lon="3.13363">
        <ele>479</ele>
        <time>2019-06-23T10:00:31.000Z</time>
      </trkpt>
      <trkpt lat="45.70763" lon="3.1336">
        <ele>480</ele>
        <time>2019-06-23T10:00:32.000Z</time>
      </trkpt>
      <trkpt lat="45.70766" lon="3.13358">
        <ele>480</ele>
        <time>2019-06-23T10:00:33.000Z</time>
      </trkpt>
      <trkpt lat="45.70768" lon="3.13355">
        <ele>480</ele>
        <time>2019-06-23T10:00:34.000Z</time>
      </trkpt>
      <trkpt lat="45.70771" lon="3.13352">
        <ele>480</ele>
        <time>2019-06-23T10:00:35.000Z</time>
      </trkpt>
      <trkpt lat="45.70774" lon="3.13349">
        <ele>480</ele>
        <time>2019-06-23T10:00:36.000Z</time>
      </trkpt>
      <trkpt lat="45.70777" lon="3.13347">
        <ele>480</ele>
        <time>2019-06-23T10:00:37.000Z</time>
      </trkpt>
      <trkpt lat="45.7078" lon="3.13344">
        <ele>481</ele>
        <time>2019-06-23T10:00:38.000Z</time>
      </trkpt>
      <trkpt lat="45.70782" lon="3.13341">
        <ele>481</ele>
        <time>2019-06-23T10:00:39.000Z</time>
      </trkpt>
      <trkpt lat="45.70785" lon="3.13338">
        <ele>481</ele>
        <time>2019-06-23T10:00:40.000Z</time>
      </trkpt>
      <trkpt lat="45.70787" lon="3.13335">
        <ele>482</ele>
        <time>2019-06-23T10:00:41.000Z</time>
      </trkpt>
      <trkpt lat="45.70789" lon="3.13333">
        <ele>482</ele>
        <time>2019-06-23T10:00:42.000Z</time>
      </trkpt>
      <trkpt lat="45.70792" lon="3.1333">
        <ele>482</ele>
        <time>2019-06-23T10:00:43.000Z</time>
      </trkpt>
      <trkpt lat="45.70794" lon="3.13326">
        <ele>483</ele>
        <time>2019-06-23T10:00:44.000Z</time>
      </trkpt>
      <trkpt lat="45.70796" lon="3.13323">
        <ele>483</ele>
        <time>2019-06-23T10:00:45.000Z</time>
      </trkpt>
      <trkpt lat="45.70798" lon="3.1332">
        <ele>483</ele>
        <time>2019-06-23T10:00:46.000Z</time>
      </trkpt>
      <trkpt lat="45.708" lon="3.13317">
        <ele>483</ele>
        <time>2019-06-23T10:00:47.000Z</time>
      </trkpt>
      <trkpt lat="45.70802" lon="3.13313">
        <ele>483</ele>
        <time>2019-06-23T10:00:48.000Z</time>
      </trkpt>
      <trkpt lat="45.70804" lon="3.1331">
        <ele>483</ele>
        <time>2019-06-23T10:00:49.000Z</time>
      </trkpt>
      <trkpt lat="45.70806" lon="3.13307">
        <ele>484</ele>
        <time>2019-06-23T10:00:50.000Z</time>
      </trkpt>
      <trkpt lat="45.70809" lon="3.13303">
        <ele>484</ele>
        <time>2019-06-23T10:00:51.000Z</time>
      </trkpt>
      <trkpt lat="45.7081" lon="3.13299">
        <ele>484</ele>
        <time>2019-06-23T10:00:52.000Z</time>
      </trkpt>
      <trkpt lat="45.70813" lon="3.13295">
        <ele>485</ele>
        <time>2019-06-23T10:00:53.000Z</time>
      </trkpt>
      <trkpt lat="45.70815" lon="3.13292">
        <ele>485</ele>
        <time>2019-06-23T10:00:54.000Z</time>
      </trkpt>
      <trkpt lat="45.70817" lon="3.13288">
        <ele>485</ele>
        <time>2019-06-23T10:00:55.000Z</time>
      </trkpt>
      <trkpt lat="45.70819" lon="3.13285">
        <ele>486</ele>
        <time>2019-06-23T10:00:56.000Z</time>
      </trkpt>
      <trkpt lat="45.70822" lon="3.13282">
        <ele>486</ele>
        <time>2019-06-23T10:00:57.000Z</time>
      </trkpt>
      <trkpt lat="45.70824" lon="3.13278">
        <ele>487</ele>
        <time>2019-06-23T10:00:58.000Z</time>
      </trkpt>
      <trkpt lat="45.70826" lon="3.13274">
        <ele>487</ele>
        <time>2019-06-23T10:00:59.000Z</time>
      </trkpt>
      <trkpt lat="45.70828" lon="3.13271">
        <ele>488</ele>
        <time>2019-06-23T10:01:00.000Z</time>
      </trkpt>
      <trkpt lat="45.7083" lon="3.13268">
        <ele>488</ele>
        <time>2019-06-23T10:01:01.000Z</time>
      </trkpt>
      <trkpt lat="45.70832" lon="3.13264">
        <ele>488</ele>
        <time>2019-06-23T10:01:02.000Z</time>
      </trkpt>
      <trkpt lat="45.70834" lon="3.13262">
        <ele>488</ele>
        <time>2019-06-23T10:01:03.000Z</time>
      </trkpt>
      <trkpt lat="45.70837" lon="3.13258">
        <ele>489</ele>
        <time>2019-06-23T10:01:04.000Z</time>
      </trkpt>
      <trkpt lat="45.70838" lon="3.13255">
        <ele>489</ele>
        <time>2019-06-23T10:01:05.000Z</time>
      </trkpt>
      <trkpt lat="45.7084" lon="3.13252">
        <ele>490</ele>
        <time>2019-06-23T10:01:06.000Z</time>
      </trkpt>
      <trkpt lat="45.70842" lon="3.13248">
        <ele>490</ele>
        <time>2019-06-23T10:01:07.000Z</time>
      </trkpt>
      <trkpt lat="45.70844" lon="3.13244">
        <ele>490</ele>
        <time>2019-06-23T10:01:08.000Z</time>
      </trkpt>
      <trkpt lat="45.70846" lon="3.13241">
        <ele>490</ele>
        <time>2019-06-23T10:01:09.000Z</time>
      </trkpt>
      <trkpt lat="45.70848" lon="3.13237">
        <ele>491</ele>
        <time>2019-06-23T10:01:10.000Z</time>
      </trkpt>
      <trkpt lat="45.7085" lon="3.13234">
        <ele>491</ele>
        <time>2019-06-23T10:01:11.000Z</time>
      </trkpt>
      <trkpt lat="45.70852" lon="3.1323">
        <ele>491</ele>
        <time>2019-06-23T10:01:12.000Z</time>
      </trkpt>
      <trkpt lat="45.70853" lon="3.13227">
        <ele>492</ele>
        <time>2019-06-23T10:01:13.000Z</time>
      </trkpt>
      <trkpt lat="45.70855" lon="3.13224">
        <ele>492</ele>
        <time>2019-06-23T10:01:14.000Z</time>
      </trkpt>
      <trkpt lat="45.70857" lon="3.1322">
        <ele>492</ele>
        <time>2019-06-23T10:01:15.000Z</time>
      </trkpt>
      <trkpt lat="45.70858" lon="3.13216">
        <ele>492</ele>
        <time>2019-06-23T10:01:16.000Z</time>
      </trkpt>
      <trkpt lat="45.70859" lon="3.13212">
        <ele>493</ele>
        <time>2019-06-23T10:01:17.000Z</time>
      </trkpt>
      <trkpt lat="45.70858" lon="3.13208">
        <ele>492</ele>
        <time>2019-06-23T10:01:18.000Z</time>
      </trkpt>
      <trkpt lat="45.70858" lon="3.13205">
        <ele>492</ele>
        <time>2019-06-23T10:01:19.000Z</time>
      </trkpt>
      <trkpt lat="45.70856" lon="3.13202">
        <ele>492</ele>
        <time>2019-06-23T10:01:20.000Z</time>
      </trkpt>
      <trkpt lat="45.70853" lon="3.132">
        <ele>493</ele>
        <time>2019-06-23T10:01:21.000Z</time>
      </trkpt>
      <trkpt lat="45.7085" lon="3.13201">
        <ele>493</ele>
        <time>2019-06-23T10:01:22.000Z</time>
      </trkpt>
      <trkpt lat="45.70846" lon="3.13201">
        <ele>491</ele>
        <time>2019-06-23T10:01:23.000Z</time>
      </trkpt>
      <trkpt lat="45.70842" lon="3.13203">
        <ele>491</ele>
        <time>2019-06-23T10:01:24.000Z</time>
      </trkpt>
      <trkpt lat="45.70837" lon="3.13205">
        <ele>491</ele>
        <time>2019-06-23T10:01:25.000Z</time>
      </trkpt>
      <trkpt lat="45.70831" lon="3.13208">
        <ele>490</ele>
        <time>2019-06-23T10:01:26.000Z</time>
      </trkpt>
      <trkpt lat="45.70825" lon="3.13213">
        <ele>491</ele>
        <time>2019-06-23T10:01:27.000Z</time>
      </trkpt>
      <trkpt lat="45.70819" lon="3.13217">
        <ele>490</ele>
        <time>2019-06-23T10:01:28.000Z</time>
      </trkpt>
      <trkpt lat="45.70813" lon="3.13222">
        <ele>490</ele>
        <time>2019-06-23T10:01:29.000Z</time>
      </trkpt>
      <trkpt lat="45.70806" lon="3.13226">
        <ele>489</ele>
        <time>2019-06-23T10:01:30.000Z</time>
      </trkpt>
      <trkpt lat="45.708" lon="3.1323">
        <ele>488</ele>
        <time>2019-06-23T10:01:31.000Z</time>
      </trkpt>
      <trkpt lat="45.70794" lon="3.13235">
        <ele>488</ele>
        <time>2019-06-23T10:01:32.000Z</time>
      </trkpt>
      <trkpt lat="45.70787" lon="3.13239">
        <ele>487</ele>
        <time>2019-06-23T10:01:33.000Z</time>
      </trkpt>
      <trkpt lat="45.70781" lon="3.13243">
        <ele>487</ele>
        <time>2019-06-23T10:01:34.000Z</time>
      </trkpt>
      <trkpt lat="45.70774" lon="3.13248">
        <ele>485</ele>
        <time>2019-06-23T10:01:35.000Z</time>
      </trkpt>
      <trkpt lat="45.70768" lon="3.13253">
        <ele>485</ele>
        <time>2019-06-23T10:01:36.000Z</time>
      </trkpt>
      <trkpt lat="45.70762" lon="3.13258">
        <ele>484</ele>
        <time>2019-06-23T10:01:37.000Z</time>
      </trkpt>
      <trkpt lat="45.70756" lon="3.13262">
        <ele>484</ele>
        <time>2019-06-23T10:01:38.000Z</time>
      </trkpt>
      <trkpt lat="45.70751" lon="3.13265">
        <ele>483</ele>
        <time>2019-06-23T10:01:39.000Z</time>
      </trkpt>
      <trkpt lat="45.70746" lon="3.13264">
        <ele>483</ele>
        <time>2019-06-23T10:01:40.000Z</time>
      </trkpt>
      <trkpt lat="45.70742" lon="3.13261">
        <ele>484</ele>
        <time>2019-06-23T10:01:41.000Z</time>
      </trkpt>
      <trkpt lat="45.7074" lon="3.13254">
        <ele>484</ele>
        <time>2019-06-23T10:01:42.000Z</time>
      </trkpt>
      <trkpt lat="45.70741" lon="3.13247">
        <ele>484</ele>
        <time>2019-06-23T10:01:43.000Z</time>
      </trkpt>
      <trkpt lat="45.70742" lon="3.13241">
        <ele>484</ele>
        <time>2019-06-23T10:01:44.000Z</time>
      </trkpt>
      <trkpt lat="45.70742" lon="3.13234">
        <ele>484</ele>
        <time>2019-06-23T10:01:45.000Z</time>
      </trkpt>
      <trkpt lat="45.70743" lon="3.13227">
        <ele>484</ele>
        <time>2019-06-23T10:01:46.000Z</time>
      </trkpt>
      <trkpt lat="45.70743" lon="3.13221">
        <ele>485</ele>
        <time>2019-06-23T10:01:47.000Z</time>
      </trkpt>
      <trkpt lat="45.70744" lon="3.13214">
        <ele>484</ele>
        <time>2019-06-23T10:01:48.000Z</time>
      </trkpt>
      <trkpt lat="45.70745" lon="3.13208">
        <ele>485</ele>
        <time>2019-06-23T10:01:49.000Z</time>
      </trkpt>
      <trkpt lat="45.70746" lon="3.13201">
        <ele>485</ele>
        <time>2019-06-23T10:01:50.000Z</time>
      </trkpt>
      <trkpt lat="45.70747" lon="3.13195">
        <ele>485</ele>
        <time>2019-06-23T10:01:51.000Z</time>
      </trkpt>
      <trkpt lat="45.70749" lon="3.13188">
        <ele>486</ele>
        <time>2019-06-23T10:01:52.000Z</time>
      </trkpt>
      <trkpt lat="45.70751" lon="3.13182">
        <ele>486</ele>
        <time>2019-06-23T10:01:53.000Z</time>
      </trkpt>
      <trkpt lat="45.70752" lon="3.13175">
        <ele>486</ele>
        <time>2019-06-23T10:01:54.000Z</time>
      </trkpt>
      <trkpt lat="45.70754" lon="3.13169">
        <ele>487</ele>
        <time>2019-06-23T10:01:55.000Z</time>
      </trkpt>
      <trkpt lat="45.70756" lon="3.13162">
        <ele>487</ele>
        <time>2019-06-23T10:01:56.000Z</time>
      </trkpt>
      <trkpt lat="45.70757" lon="3.13156">
        <ele>487</ele>
        <time>2019-06-23T10:01:57.000Z</time>
      </trkpt>
      <trkpt lat="45.70759" lon="3.13149">
        <ele>487</ele>
        <time>2019-06-23T10:01:58.000Z</time>
      </trkpt>
      <trkpt lat="45.70761" lon="3.13142">
        <ele>487</ele>
        <time>2019-06-23T10:01:59.000Z</time>
      </trkpt>
      <trkpt lat="45.70762" lon="3.13134">
        <ele>487</ele>
        <time>2019-06-23T10:02:00.000Z</time>
      </trkpt>
      <trkpt lat="45.70764" lon="3.13127">
        <ele>488</ele>
        <time>2019-06-23T10:02:01.000Z</time>
      </trkpt>
      <trkpt lat="45.70766" lon="3.1312">
        <ele>488</ele>
        <time>2019-06-23T10:02:02.000Z</time>
      </trkpt>
      <trkpt lat="45.70768" lon="3.13112">
        <ele>488</ele>
        <time>2019-06-23T10:02:03.000Z</time>
      </trkpt>
      <trkpt lat="45.7077" lon="3.13104">
        <ele>488</ele>
        <time>2019-06-23T10:02:04.000Z</time>
      </trkpt>
      <trkpt lat="45.70771" lon="3.13096">
        <ele>488</ele>
        <time>2019-06-23T10:02:05.000Z</time>
      </trkpt>
      <trkpt lat="45.70773" lon="3.13088">
        <ele>488</ele>
        <time>2019-06-23T10:02:06.000Z</time>
      </trkpt>
      <trkpt lat="45.70775" lon="3.1308">
        <ele>489</ele>
        <time>2019-06-23T10:02:07.000Z</time>
      </trkpt>
      <trkpt lat="45.70777" lon="3.13072">
        <ele>489</ele>
        <time>2019-06-23T10:02:08.000Z</time>
      </trkpt>
      <trkpt lat="45.70778" lon="3.13064">
        <ele>489</ele>
        <time>2019-06-23T10:02:09.000Z</time>
      </trkpt>
      <trkpt lat="45.7078" lon="3.13056">
        <ele>489</ele>
        <time>2019-06-23T10:02:10.000Z</time>
      </trkpt>
      <trkpt lat="45.70781" lon="3.13049">
        <ele>489</ele>
        <time>2019-06-23T10:02:11.000Z</time>
      </trkpt>
      <trkpt lat="45.70781" lon="3.13042">
        <ele>489</ele>
        <time>2019-06-23T10:02:12.000Z</time>
      </trkpt>
      <trkpt lat="45.70782" lon="3.13037">
        <ele>489</ele>
        <time>2019-06-23T10:02:13.000Z</time>
      </trkpt>
      <trkpt lat="45.70782" lon="3.13031">
        <ele>489</ele>
        <time>2019-06-23T10:02:14.000Z</time>
      </trkpt>
      <trkpt lat="45.70782" lon="3.13024">
        <ele>489</ele>
        <time>2019-06-23T10:02:15.000Z</time>
      </trkpt>
      <trkpt lat="45.70782" lon="3.13017">
        <ele>489</ele>
        <time>2019-06-23T10:02:16.000Z</time>
      </trkpt>
      <trkpt lat="45.70782" lon="3.13009">
        <ele>489</ele>
        <time>2019-06-23T10:02:17.000Z</time>
      </trkpt>
      <trkpt lat="45.70782" lon="3.13002">
        <ele>489</ele>
        <time>2019-06-23T10:02:18.000Z</time>
      </trkpt>
      <trkpt lat="45.70782" lon="3.12994">
        <ele>489</ele>
        <time>2019-06-23T10:02:19.000Z</time>
      </trkpt>
      <trkpt lat="45.70781" lon="3.12987">
        <ele>490</ele>
        <time>2019-06-23T10:02:20.000Z</time>
      </trkpt>
      <trkpt lat="45.70781" lon="3.12979">
        <ele>490</ele>
        <time>2019-06-23T10:02:21.000Z</time>
      </trkpt>
      <trkpt lat="45.70781" lon="3.12971">
        <ele>490</ele>
        <time>2019-06-23T10:02:22.000Z</time>
      </trkpt>
      <trkpt lat="45.70781" lon="3.12963">
        <ele>490</ele>
        <time>2019-06-23T10:02:23.000Z</time>
      </trkpt>
      <trkpt lat="45.70781" lon="3.12955">
        <ele>490</ele>
        <time>2019-06-23T10:02:24.000Z</time>
      </trkpt>
      <trkpt lat="45.7078" lon="3.12947">
        <ele>490</ele>
        <time>2019-06-23T10:02:25.000Z</time>
      </trkpt>
      <trkpt lat="45.7078" lon="3.12939">
        <ele>490</ele>
        <time>2019-06-23T10:02:26.000Z</time>
      </trkpt>
      <trkpt lat="45.7078" lon="3.12931">
        <ele>490</ele>
        <time>2019-06-23T10:02:27.000Z</time>
      </trkpt>
      <trkpt lat="45.70779" lon="3.12923">
        <ele>490</ele>
        <time>2019-06-23T10:02:28.000Z</time>
      </trkpt>
      <trkpt lat="45.70779" lon="3.12914">
        <ele>490</ele>
        <time>2019-06-23T10:02:29.000Z</time>
      </trkpt>
      <trkpt lat="45.70778" lon="3.12905">
        <ele>490</ele>
        <time>2019-06-23T10:02:30.000Z</time>
      </trkpt>
      <trkpt lat="45.70777" lon="3.12896">
        <ele>490</ele>
        <time>2019-06-23T10:02:31.000Z</time>
      </trkpt>
      <trkpt lat="45.70777" lon="3.12888">
        <ele>490</ele>
        <time>2019-06-23T10:02:32.000Z</time>
      </trkpt>
      <trkpt lat="45.70777" lon="3.12879">
        <ele>490</ele>
        <time>2019-06-23T10:02:33.000Z</time>
      </trkpt>
      <trkpt lat="45.70776" lon="3.1287">
        <ele>489</ele>
        <time>2019-06-23T10:02:34.000Z</time>
      </trkpt>
      <trkpt lat="45.70776" lon="3.12861">
        <ele>489</ele>
        <time>2019-06-23T10:02:35.000Z</time>
      </trkpt>
      <trkpt lat="45.70776" lon="3.12852">
        <ele>489</ele>
        <time>2019-06-23T10:02:36.000Z</time>
      </trkpt>
      <trkpt lat="45.70776" lon="3.12843">
        <ele>489</ele>
        <time>2019-06-23T10:02:37.000Z</time>
      </trkpt>
      <trkpt lat="45.70775" lon="3.12835">
        <ele>489</ele>
        <time>2019-06-23T10:02:38.000Z</time>
      </trkpt>
      <trkpt lat="45.70776" lon="3.12828">
        <ele>489</ele>
        <time>2019-06-23T10:02:39.000Z</time>
      </trkpt>
      <trkpt lat="45.70776" lon="3.12823">
        <ele>489</ele>
        <time>2019-06-23T10:02:40.000Z</time>
      </trkpt>
      <trkpt lat="45.70775" lon="3.12819">
        <ele>489</ele>
        <time>2019-06-23T10:02:41.000Z</time>
      </trkpt>
      <trkpt lat="45.70774" lon="3.12815">
        <ele>489</ele>
        <time>2019-06-23T10:02:42.000Z</time>
      </trkpt>
      <trkpt lat="45.70773" lon="3.12812">
        <ele>489</ele>
        <time>2019-06-23T10:02:43.000Z</time>
      </trkpt>
      <trkpt lat="45.7077" lon="3.12808">
        <ele>491</ele>
        <time>2019-06-23T10:02:44.000Z</time>
      </trkpt>
      <trkpt lat="45.70765" lon="3.12803">
        <ele>491</ele>
        <time>2019-06-23T10:02:45.000Z</time>
      </trkpt>
      <trkpt lat="45.70761" lon="3.12799">
        <ele>490</ele>
        <time>2019-06-23T10:02:46.000Z</time>
      </trkpt>
      <trkpt lat="45.70756" lon="3.12795">
        <ele>490</ele>
        <time>2019-06-23T10:02:47.000Z</time>
      </trkpt>
      <trkpt lat="45.70751" lon="3.12791">
        <ele>490</ele>
        <time>2019-06-23T10:02:48.000Z</time>
      </trkpt>
      <trkpt lat="45.70746" lon="3.12786">
        <ele>489</ele>
        <time>2019-06-23T10:02:49.000Z</time>
      </trkpt>
      <trkpt lat="45.70741" lon="3.12782">
        <ele>489</ele>
        <time>2019-06-23T10:02:50.000Z</time>
      </trkpt>
      <trkpt lat="45.70737" lon="3.12779">
        <ele>489</ele>
        <time>2019-06-23T10:02:51.000Z</time>
      </trkpt>
      <trkpt lat="45.70733" lon="3.12775">
        <ele>489</ele>
        <time>2019-06-23T10:02:52.000Z</time>
      </trkpt>
      <trkpt lat="45.70733" lon="3.12765">
        <ele>489</ele>
        <time>2019-06-23T10:02:53.000Z</time>
      </trkpt>
      <trkpt lat="45.70735" lon="3.12759">
        <ele>488</ele>
        <time>2019-06-23T10:02:54.000Z</time>
      </trkpt>
      <trkpt lat="45.70739" lon="3.12757">
        <ele>493</ele>
        <time>2019-06-23T10:02:55.000Z</time>
      </trkpt>
      <trkpt lat="45.70742" lon="3.12759">
        <ele>492</ele>
        <time>2019-06-23T10:02:56.000Z</time>
      </trkpt>
      <trkpt lat="45.70745" lon="3.12761">
        <ele>493</ele>
        <time>2019-06-23T10:02:57.000Z</time>
      </trkpt>
      <trkpt lat="45.70749" lon="3.12762">
        <ele>493</ele>
        <time>2019-06-23T10:02:58.000Z</time>
      </trkpt>
      <trkpt lat="45.70749" lon="3.12755">
        <ele>495</ele>
        <time>2019-06-23T10:02:59.000Z</time>
      </trkpt>
      <trkpt lat="45.7075" lon="3.1275">
        <ele>495</ele>
        <time>2019-06-23T10:03:00.000Z</time>
      </trkpt>
      <trkpt lat="45.70752" lon="3.12745">
        <ele>495</ele>
        <time>2019-06-23T10:03:01.000Z</time>
      </trkpt>
      <trkpt lat="45.70753" lon="3.12741">
        <ele>494</ele>
        <time>2019-06-23T10:03:02.000Z</time>
      </trkpt>
      <trkpt lat="45.70754" lon="3.12736">
        <ele>494</ele>
        <time>2019-06-23T10:03:03.000Z</time>
      </trkpt>
      <trkpt lat="45.70754" lon="3.12732">
        <ele>494</ele>
        <time>2019-06-23T10:03:04.000Z</time>
      </trkpt>
      <trkpt lat="45.70755" lon="3.12729">
        <ele>494</ele>
        <time>2019-06-23T10:03:05.000Z</time>
      </trkpt>
      <trkpt lat="45.70756" lon="3.12725">
        <ele>494</ele>
        <time>2019-06-23T10:03:06.000Z</time>
      </trkpt>
      <trkpt lat="45.70757" lon="3.12723">
        <ele>495</ele>
        <time>2019-06-23T10:03:07.000Z</time>
      </trkpt>
      <trkpt lat="45.70758" lon="3.12723">
        <ele>495</ele>
        <time>2019-06-23T10:03:08.000Z</time>
      </trkpt>
      <trkpt lat="45.70758" lon="3.12722">
        <ele>495</ele>
        <time>2019-06-23T10:03:09.000Z</time>
      </trkpt>
    </trkseg>
  </trk>
</gpx>